<?xml version="1.0" encoding="UTF-8" standalone="no" ?>
<gpx xmlns="http://www.topografix.com/GPX/1/1" xmlns:xsi="http://www.w3.org/2001/XMLSchema-instance" xsi:schemaLocation="http://www.topografix.com/GPX/1/1 http://www.topografix.com/GPX/1/1/gpx.xsd" version="1.1" creator="VisuGPX - https://www.visugpx.com">
  <metadata>
    <name>Tour d'Europe: étape 091</name>
    <desc><![CDATA[Étape 091]]></desc>
  </metadata>
  <trk>
    <name><![CDATA[Tour d'Europe: étape 091]]></name>
    <trkseg>
      <trkpt lat="65.31671" lon="21.47917">
        <ele>73.582463</ele>
        <time>2020-09-27T07:44:28.833Z</time>
      </trkpt>
      <trkpt lat="65.31664" lon="21.479">
        <ele>73.582463</ele>
        <time>2020-09-27T07:44:31.864Z</time>
      </trkpt>
      <trkpt lat="65.31657" lon="21.47882">
        <ele>73.582463</ele>
        <time>2020-09-27T07:44:34.875Z</time>
      </trkpt>
      <trkpt lat="65.3165" lon="21.47858">
        <ele>73.582463</ele>
        <time>2020-09-27T07:44:38.847Z</time>
      </trkpt>
      <trkpt lat="65.31652" lon="21.47836">
        <ele>73.582463</ele>
        <time>2020-09-27T07:44:41.867Z</time>
      </trkpt>
      <trkpt lat="65.31656" lon="21.47807">
        <ele>73.582463</ele>
        <time>2020-09-27T07:44:44.880Z</time>
      </trkpt>
      <trkpt lat="65.31662" lon="21.47778">
        <ele>73.582463</ele>
        <time>2020-09-27T07:44:47.855Z</time>
      </trkpt>
      <trkpt lat="65.31666" lon="21.47751">
        <ele>73.582463</ele>
        <time>2020-09-27T07:44:50.863Z</time>
      </trkpt>
      <trkpt lat="65.31674" lon="21.47726">
        <ele>73.23655</ele>
        <time>2020-09-27T07:44:53.840Z</time>
      </trkpt>
      <trkpt lat="65.31682" lon="21.47708">
        <ele>72.146448</ele>
        <time>2020-09-27T07:44:55.847Z</time>
      </trkpt>
      <trkpt lat="65.3169" lon="21.47691">
        <ele>71.050233</ele>
        <time>2020-09-27T07:44:57.846Z</time>
      </trkpt>
      <trkpt lat="65.31697" lon="21.47677">
        <ele>70.078269</ele>
        <time>2020-09-27T07:44:59.857Z</time>
      </trkpt>
      <trkpt lat="65.31706" lon="21.47659">
        <ele>68.879534</ele>
        <time>2020-09-27T07:45:02.855Z</time>
      </trkpt>
      <trkpt lat="65.31712" lon="21.47636">
        <ele>67.68456</ele>
        <time>2020-09-27T07:45:06.861Z</time>
      </trkpt>
      <trkpt lat="65.31721" lon="21.47625">
        <ele>66.690824</ele>
        <time>2020-09-27T07:45:10.852Z</time>
      </trkpt>
      <trkpt lat="65.31718" lon="21.47591">
        <ele>65.177146</ele>
        <time>2020-09-27T07:46:36.850Z</time>
      </trkpt>
      <trkpt lat="65.31708" lon="21.47577">
        <ele>63.985945</ele>
        <time>2020-09-27T07:46:40.834Z</time>
      </trkpt>
      <trkpt lat="65.31701" lon="21.47564">
        <ele>63.013982</ele>
        <time>2020-09-27T07:46:43.858Z</time>
      </trkpt>
      <trkpt lat="65.31693" lon="21.47544">
        <ele>61.861047</ele>
        <time>2020-09-27T07:46:46.861Z</time>
      </trkpt>
      <trkpt lat="65.31686" lon="21.47522">
        <ele>60.650833</ele>
        <time>2020-09-27T07:46:49.837Z</time>
      </trkpt>
      <trkpt lat="65.31689" lon="21.47499">
        <ele>59.599581</ele>
        <time>2020-09-27T07:46:52.854Z</time>
      </trkpt>
      <trkpt lat="65.31696" lon="21.47473">
        <ele>58.259139</ele>
        <time>2020-09-27T07:46:55.854Z</time>
      </trkpt>
      <trkpt lat="65.31701" lon="21.47455">
        <ele>57.286967</ele>
        <time>2020-09-27T07:46:57.847Z</time>
      </trkpt>
      <trkpt lat="65.31708" lon="21.47433">
        <ele>56.116737</ele>
        <time>2020-09-27T07:47:00.859Z</time>
      </trkpt>
      <trkpt lat="65.31714" lon="21.47411">
        <ele>55.011701</ele>
        <time>2020-09-27T07:47:03.857Z</time>
      </trkpt>
      <trkpt lat="65.3172" lon="21.47384">
        <ele>53.278799</ele>
        <time>2020-09-27T07:47:06.880Z</time>
      </trkpt>
      <trkpt lat="65.31727" lon="21.4736">
        <ele>51.638029</ele>
        <time>2020-09-27T07:47:09.850Z</time>
      </trkpt>
      <trkpt lat="65.31732" lon="21.4734">
        <ele>50.335959</ele>
        <time>2020-09-27T07:47:12.866Z</time>
      </trkpt>
      <trkpt lat="65.31737" lon="21.47321">
        <ele>49.042597</ele>
        <time>2020-09-27T07:47:18.839Z</time>
      </trkpt>
      <trkpt lat="65.3174" lon="21.473">
        <ele>47.790803</ele>
        <time>2020-09-27T07:47:21.842Z</time>
      </trkpt>
      <trkpt lat="65.31737" lon="21.47277">
        <ele>46.391237</ele>
        <time>2020-09-27T07:47:24.875Z</time>
      </trkpt>
      <trkpt lat="65.31729" lon="21.47256">
        <ele>44.774452</ele>
        <time>2020-09-27T07:47:27.838Z</time>
      </trkpt>
      <trkpt lat="65.31719" lon="21.47237">
        <ele>43.140323</ele>
        <time>2020-09-27T07:47:30.880Z</time>
      </trkpt>
      <trkpt lat="65.3171" lon="21.47219">
        <ele>41.520961</ele>
        <time>2020-09-27T07:47:33.840Z</time>
      </trkpt>
      <trkpt lat="65.31701" lon="21.47201">
        <ele>39.933817</ele>
        <time>2020-09-27T07:47:36.841Z</time>
      </trkpt>
      <trkpt lat="65.31694" lon="21.47183">
        <ele>38.533122</ele>
        <time>2020-09-27T07:47:39.834Z</time>
      </trkpt>
      <trkpt lat="65.31689" lon="21.47162">
        <ele>37.143973</ele>
        <time>2020-09-27T07:47:42.885Z</time>
      </trkpt>
      <trkpt lat="65.31688" lon="21.47139">
        <ele>35.850669</ele>
        <time>2020-09-27T07:47:45.832Z</time>
      </trkpt>
      <trkpt lat="65.31691" lon="21.47117">
        <ele>34.520593</ele>
        <time>2020-09-27T07:47:48.844Z</time>
      </trkpt>
      <trkpt lat="65.31695" lon="21.47095">
        <ele>33.148556</ele>
        <time>2020-09-27T07:47:51.857Z</time>
      </trkpt>
      <trkpt lat="65.317" lon="21.47071">
        <ele>31.654652</ele>
        <time>2020-09-27T07:47:54.864Z</time>
      </trkpt>
      <trkpt lat="65.31705" lon="21.47046">
        <ele>30.506264</ele>
        <time>2020-09-27T07:47:57.859Z</time>
      </trkpt>
      <trkpt lat="65.3171" lon="21.47018">
        <ele>30.110959</ele>
        <time>2020-09-27T07:48:00.836Z</time>
      </trkpt>
      <trkpt lat="65.31714" lon="21.46998">
        <ele>29.822348</ele>
        <time>2020-09-27T07:48:02.856Z</time>
      </trkpt>
      <trkpt lat="65.31717" lon="21.46977">
        <ele>29.522861</ele>
        <time>2020-09-27T07:48:04.875Z</time>
      </trkpt>
      <trkpt lat="65.3172" lon="21.46957">
        <ele>29.231787</ele>
        <time>2020-09-27T07:48:06.894Z</time>
      </trkpt>
      <trkpt lat="65.31724" lon="21.46926">
        <ele>28.807196</ele>
        <time>2020-09-27T07:48:09.919Z</time>
      </trkpt>
      <trkpt lat="65.31728" lon="21.46896">
        <ele>28.385229</ele>
        <time>2020-09-27T07:48:12.862Z</time>
      </trkpt>
      <trkpt lat="65.31729" lon="21.46874">
        <ele>28.091648</ele>
        <time>2020-09-27T07:48:14.875Z</time>
      </trkpt>
      <trkpt lat="65.31732" lon="21.46851">
        <ele>27.775055</ele>
        <time>2020-09-27T07:48:16.843Z</time>
      </trkpt>
      <trkpt lat="65.31734" lon="21.46829">
        <ele>27.474875</ele>
        <time>2020-09-27T07:48:18.860Z</time>
      </trkpt>
      <trkpt lat="65.31735" lon="21.46807">
        <ele>27.179184</ele>
        <time>2020-09-27T07:48:20.906Z</time>
      </trkpt>
      <trkpt lat="65.31737" lon="21.46785">
        <ele>26.878252</ele>
        <time>2020-09-27T07:48:22.828Z</time>
      </trkpt>
      <trkpt lat="65.31739" lon="21.46762">
        <ele>26.573602</ele>
        <time>2020-09-27T07:48:24.874Z</time>
      </trkpt>
      <trkpt lat="65.3174" lon="21.46739">
        <ele>26.267426</ele>
        <time>2020-09-27T07:48:26.866Z</time>
      </trkpt>
      <trkpt lat="65.31742" lon="21.46717">
        <ele>25.965704</ele>
        <time>2020-09-27T07:48:28.852Z</time>
      </trkpt>
      <trkpt lat="65.31743" lon="21.46695">
        <ele>25.668416</ele>
        <time>2020-09-27T07:48:30.848Z</time>
      </trkpt>
      <trkpt lat="65.31744" lon="21.46673">
        <ele>25.37241</ele>
        <time>2020-09-27T07:48:32.883Z</time>
      </trkpt>
      <trkpt lat="65.31745" lon="21.4665">
        <ele>25.06305</ele>
        <time>2020-09-27T07:48:34.862Z</time>
      </trkpt>
      <trkpt lat="65.31746" lon="21.46627">
        <ele>25.046021</ele>
        <time>2020-09-27T07:48:36.840Z</time>
      </trkpt>
      <trkpt lat="65.31747" lon="21.46604">
        <ele>25.278814</ele>
        <time>2020-09-27T07:48:38.864Z</time>
      </trkpt>
      <trkpt lat="65.31747" lon="21.46581">
        <ele>25.514645</ele>
        <time>2020-09-27T07:48:40.841Z</time>
      </trkpt>
      <trkpt lat="65.31748" lon="21.46557">
        <ele>25.755698</ele>
        <time>2020-09-27T07:48:42.866Z</time>
      </trkpt>
      <trkpt lat="65.31749" lon="21.46535">
        <ele>25.983597</ele>
        <time>2020-09-27T07:48:44.860Z</time>
      </trkpt>
      <trkpt lat="65.31749" lon="21.46512">
        <ele>26.216948</ele>
        <time>2020-09-27T07:48:46.837Z</time>
      </trkpt>
      <trkpt lat="65.31749" lon="21.46489">
        <ele>26.450413</ele>
        <time>2020-09-27T07:48:48.847Z</time>
      </trkpt>
      <trkpt lat="65.31749" lon="21.46466">
        <ele>26.683776</ele>
        <time>2020-09-27T07:48:50.850Z</time>
      </trkpt>
      <trkpt lat="65.31748" lon="21.46443">
        <ele>26.917329</ele>
        <time>2020-09-27T07:48:52.844Z</time>
      </trkpt>
      <trkpt lat="65.31748" lon="21.46419">
        <ele>27.158845</ele>
        <time>2020-09-27T07:48:54.844Z</time>
      </trkpt>
      <trkpt lat="65.31748" lon="21.46394">
        <ele>27.410751</ele>
        <time>2020-09-27T07:48:56.847Z</time>
      </trkpt>
      <trkpt lat="65.31747" lon="21.46369">
        <ele>27.665698</ele>
        <time>2020-09-27T07:48:58.846Z</time>
      </trkpt>
      <trkpt lat="65.31746" lon="21.46345">
        <ele>27.910174</ele>
        <time>2020-09-27T07:49:00.861Z</time>
      </trkpt>
      <trkpt lat="65.31746" lon="21.46322">
        <ele>28.146355</ele>
        <time>2020-09-27T07:49:02.846Z</time>
      </trkpt>
      <trkpt lat="65.31745" lon="21.46299">
        <ele>28.377482</ele>
        <time>2020-09-27T07:49:04.874Z</time>
      </trkpt>
      <trkpt lat="65.31743" lon="21.46276">
        <ele>28.61296</ele>
        <time>2020-09-27T07:49:06.851Z</time>
      </trkpt>
      <trkpt lat="65.31742" lon="21.46252">
        <ele>28.85616</ele>
        <time>2020-09-27T07:49:08.847Z</time>
      </trkpt>
      <trkpt lat="65.3174" lon="21.46229">
        <ele>29.095348</ele>
        <time>2020-09-27T07:49:10.848Z</time>
      </trkpt>
      <trkpt lat="65.31739" lon="21.46205">
        <ele>29.328391</ele>
        <time>2020-09-27T07:49:12.839Z</time>
      </trkpt>
      <trkpt lat="65.31738" lon="21.46181">
        <ele>29.521533</ele>
        <time>2020-09-27T07:49:14.843Z</time>
      </trkpt>
      <trkpt lat="65.31736" lon="21.46157">
        <ele>29.714338</ele>
        <time>2020-09-27T07:49:16.854Z</time>
      </trkpt>
      <trkpt lat="65.31735" lon="21.46134">
        <ele>29.892687</ele>
        <time>2020-09-27T07:49:18.833Z</time>
      </trkpt>
      <trkpt lat="65.31734" lon="21.46113">
        <ele>30.063973</ele>
        <time>2020-09-27T07:49:20.880Z</time>
      </trkpt>
      <trkpt lat="65.31733" lon="21.4609">
        <ele>30.243103</ele>
        <time>2020-09-27T07:49:22.839Z</time>
      </trkpt>
      <trkpt lat="65.31731" lon="21.46066">
        <ele>30.432085</ele>
        <time>2020-09-27T07:49:24.839Z</time>
      </trkpt>
      <trkpt lat="65.3173" lon="21.46043">
        <ele>30.618475</ele>
        <time>2020-09-27T07:49:26.836Z</time>
      </trkpt>
      <trkpt lat="65.31729" lon="21.46019">
        <ele>30.807983</ele>
        <time>2020-09-27T07:49:28.858Z</time>
      </trkpt>
      <trkpt lat="65.31727" lon="21.45996">
        <ele>30.989183</ele>
        <time>2020-09-27T07:49:30.861Z</time>
      </trkpt>
      <trkpt lat="65.31726" lon="21.45974">
        <ele>31.166524</ele>
        <time>2020-09-27T07:49:32.840Z</time>
      </trkpt>
      <trkpt lat="65.31725" lon="21.45952">
        <ele>31.338893</ele>
        <time>2020-09-27T07:49:34.856Z</time>
      </trkpt>
      <trkpt lat="65.31723" lon="21.45931">
        <ele>31.507858</ele>
        <time>2020-09-27T07:49:36.848Z</time>
      </trkpt>
      <trkpt lat="65.31721" lon="21.45909">
        <ele>31.679572</ele>
        <time>2020-09-27T07:49:38.869Z</time>
      </trkpt>
      <trkpt lat="65.3172" lon="21.45888">
        <ele>31.853529</ele>
        <time>2020-09-27T07:49:40.847Z</time>
      </trkpt>
      <trkpt lat="65.31718" lon="21.45866">
        <ele>32.026715</ele>
        <time>2020-09-27T07:49:42.868Z</time>
      </trkpt>
      <trkpt lat="65.31717" lon="21.45843">
        <ele>32.207406</ele>
        <time>2020-09-27T07:49:44.833Z</time>
      </trkpt>
      <trkpt lat="65.31716" lon="21.4582">
        <ele>32.393741</ele>
        <time>2020-09-27T07:49:46.856Z</time>
      </trkpt>
      <trkpt lat="65.31715" lon="21.45797">
        <ele>32.573425</ele>
        <time>2020-09-27T07:49:48.867Z</time>
      </trkpt>
      <trkpt lat="65.31714" lon="21.45775">
        <ele>32.664705</ele>
        <time>2020-09-27T07:49:50.862Z</time>
      </trkpt>
      <trkpt lat="65.31712" lon="21.45744">
        <ele>32.61689</ele>
        <time>2020-09-27T07:49:53.857Z</time>
      </trkpt>
      <trkpt lat="65.31711" lon="21.45711">
        <ele>32.567523</ele>
        <time>2020-09-27T07:49:56.869Z</time>
      </trkpt>
      <trkpt lat="65.31709" lon="21.45689">
        <ele>32.533321</ele>
        <time>2020-09-27T07:49:58.877Z</time>
      </trkpt>
      <trkpt lat="65.31707" lon="21.45666">
        <ele>32.49889</ele>
        <time>2020-09-27T07:50:00.839Z</time>
      </trkpt>
      <trkpt lat="65.31706" lon="21.45644">
        <ele>32.465082</ele>
        <time>2020-09-27T07:50:02.859Z</time>
      </trkpt>
      <trkpt lat="65.31704" lon="21.45621">
        <ele>32.429582</ele>
        <time>2020-09-27T07:50:04.864Z</time>
      </trkpt>
      <trkpt lat="65.31703" lon="21.45598">
        <ele>32.394871</ele>
        <time>2020-09-27T07:50:06.857Z</time>
      </trkpt>
      <trkpt lat="65.31702" lon="21.45566">
        <ele>32.346971</ele>
        <time>2020-09-27T07:50:09.874Z</time>
      </trkpt>
      <trkpt lat="65.317" lon="21.45535">
        <ele>32.298844</ele>
        <time>2020-09-27T07:50:12.881Z</time>
      </trkpt>
      <trkpt lat="65.31698" lon="21.45503">
        <ele>32.2509</ele>
        <time>2020-09-27T07:50:15.841Z</time>
      </trkpt>
      <trkpt lat="65.31696" lon="21.45472">
        <ele>32.202825</ele>
        <time>2020-09-27T07:50:18.856Z</time>
      </trkpt>
      <trkpt lat="65.31694" lon="21.4544">
        <ele>32.155088</ele>
        <time>2020-09-27T07:50:21.844Z</time>
      </trkpt>
      <trkpt lat="65.31692" lon="21.45419">
        <ele>32.122709</ele>
        <time>2020-09-27T07:50:23.858Z</time>
      </trkpt>
      <trkpt lat="65.31691" lon="21.45389">
        <ele>32.076271</ele>
        <time>2020-09-27T07:50:26.836Z</time>
      </trkpt>
      <trkpt lat="65.31689" lon="21.45357">
        <ele>32.029206</ele>
        <time>2020-09-27T07:50:29.846Z</time>
      </trkpt>
      <trkpt lat="65.31689" lon="21.45326">
        <ele>31.736834</ele>
        <time>2020-09-27T07:50:32.851Z</time>
      </trkpt>
      <trkpt lat="65.31688" lon="21.45295">
        <ele>31.443207</ele>
        <time>2020-09-27T07:50:35.858Z</time>
      </trkpt>
      <trkpt lat="65.31688" lon="21.45265">
        <ele>31.15807</ele>
        <time>2020-09-27T07:50:38.844Z</time>
      </trkpt>
      <trkpt lat="65.31688" lon="21.45235">
        <ele>30.877711</ele>
        <time>2020-09-27T07:50:41.842Z</time>
      </trkpt>
      <trkpt lat="65.31688" lon="21.45204">
        <ele>30.576929</ele>
        <time>2020-09-27T07:50:44.866Z</time>
      </trkpt>
      <trkpt lat="65.31689" lon="21.45182">
        <ele>30.371093</ele>
        <time>2020-09-27T07:50:46.840Z</time>
      </trkpt>
      <trkpt lat="65.3169" lon="21.4516">
        <ele>30.165305</ele>
        <time>2020-09-27T07:50:48.903Z</time>
      </trkpt>
      <trkpt lat="65.31692" lon="21.4513">
        <ele>29.879894</ele>
        <time>2020-09-27T07:50:51.854Z</time>
      </trkpt>
      <trkpt lat="65.31694" lon="21.451">
        <ele>29.586877</ele>
        <time>2020-09-27T07:50:54.830Z</time>
      </trkpt>
      <trkpt lat="65.31696" lon="21.45069">
        <ele>29.290139</ele>
        <time>2020-09-27T07:50:57.841Z</time>
      </trkpt>
      <trkpt lat="65.31699" lon="21.45037">
        <ele>28.988407</ele>
        <time>2020-09-27T07:51:00.838Z</time>
      </trkpt>
      <trkpt lat="65.31703" lon="21.45007">
        <ele>28.683781</ele>
        <time>2020-09-27T07:51:03.840Z</time>
      </trkpt>
      <trkpt lat="65.31705" lon="21.44986">
        <ele>28.479526</ele>
        <time>2020-09-27T07:51:05.869Z</time>
      </trkpt>
      <trkpt lat="65.31707" lon="21.44964">
        <ele>28.273956</ele>
        <time>2020-09-27T07:51:07.836Z</time>
      </trkpt>
      <trkpt lat="65.31707" lon="21.44942">
        <ele>28.067178</ele>
        <time>2020-09-27T07:51:09.852Z</time>
      </trkpt>
      <trkpt lat="65.31706" lon="21.44921">
        <ele>28.033747</ele>
        <time>2020-09-27T07:51:11.842Z</time>
      </trkpt>
      <trkpt lat="65.31709" lon="21.4489">
        <ele>28.241247</ele>
        <time>2020-09-27T07:51:14.855Z</time>
      </trkpt>
      <trkpt lat="65.31712" lon="21.44869">
        <ele>28.387402</ele>
        <time>2020-09-27T07:51:16.879Z</time>
      </trkpt>
      <trkpt lat="65.31715" lon="21.44848">
        <ele>28.528541</ele>
        <time>2020-09-27T07:51:18.862Z</time>
      </trkpt>
      <trkpt lat="65.31719" lon="21.44819">
        <ele>28.730483</ele>
        <time>2020-09-27T07:51:21.831Z</time>
      </trkpt>
      <trkpt lat="65.31725" lon="21.44791">
        <ele>28.936614</ele>
        <time>2020-09-27T07:51:24.843Z</time>
      </trkpt>
      <trkpt lat="65.31728" lon="21.44768">
        <ele>29.091503</ele>
        <time>2020-09-27T07:51:27.862Z</time>
      </trkpt>
      <trkpt lat="65.31724" lon="21.44745">
        <ele>29.258602</ele>
        <time>2020-09-27T07:51:36.837Z</time>
      </trkpt>
      <trkpt lat="65.31715" lon="21.4473">
        <ele>29.423223</ele>
        <time>2020-09-27T07:51:39.840Z</time>
      </trkpt>
      <trkpt lat="65.31705" lon="21.44716">
        <ele>29.61041</ele>
        <time>2020-09-27T07:51:42.841Z</time>
      </trkpt>
      <trkpt lat="65.31701" lon="21.44691">
        <ele>29.783389</ele>
        <time>2020-09-27T07:51:45.848Z</time>
      </trkpt>
      <trkpt lat="65.31703" lon="21.4466">
        <ele>29.992959</ele>
        <time>2020-09-27T07:51:48.862Z</time>
      </trkpt>
      <trkpt lat="65.31705" lon="21.44637">
        <ele>30.14575</ele>
        <time>2020-09-27T07:51:50.835Z</time>
      </trkpt>
      <trkpt lat="65.31708" lon="21.44606">
        <ele>30.349994</ele>
        <time>2020-09-27T07:51:53.874Z</time>
      </trkpt>
      <trkpt lat="65.3171" lon="21.44576">
        <ele>30.546302</ele>
        <time>2020-09-27T07:51:56.856Z</time>
      </trkpt>
      <trkpt lat="65.3171" lon="21.44555">
        <ele>30.686039</ele>
        <time>2020-09-27T07:51:58.844Z</time>
      </trkpt>
      <trkpt lat="65.31707" lon="21.44524">
        <ele>30.830731</ele>
        <time>2020-09-27T07:52:01.829Z</time>
      </trkpt>
      <trkpt lat="65.31705" lon="21.44493">
        <ele>30.924892</ele>
        <time>2020-09-27T07:52:04.838Z</time>
      </trkpt>
      <trkpt lat="65.31703" lon="21.44472">
        <ele>30.99228</ele>
        <time>2020-09-27T07:52:06.846Z</time>
      </trkpt>
      <trkpt lat="65.31701" lon="21.4445">
        <ele>31.05889</ele>
        <time>2020-09-27T07:52:08.834Z</time>
      </trkpt>
      <trkpt lat="65.31698" lon="21.44429">
        <ele>31.1255</ele>
        <time>2020-09-27T07:52:10.866Z</time>
      </trkpt>
      <trkpt lat="65.31696" lon="21.44407">
        <ele>31.193981</ele>
        <time>2020-09-27T07:52:12.835Z</time>
      </trkpt>
      <trkpt lat="65.31695" lon="21.44386">
        <ele>31.260267</ele>
        <time>2020-09-27T07:52:14.835Z</time>
      </trkpt>
      <trkpt lat="65.31693" lon="21.44355">
        <ele>31.354523</ele>
        <time>2020-09-27T07:52:17.831Z</time>
      </trkpt>
      <trkpt lat="65.31692" lon="21.44323">
        <ele>31.450683</ele>
        <time>2020-09-27T07:52:20.858Z</time>
      </trkpt>
      <trkpt lat="65.31692" lon="21.44302">
        <ele>31.516589</ele>
        <time>2020-09-27T07:52:22.862Z</time>
      </trkpt>
      <trkpt lat="65.31691" lon="21.4427">
        <ele>31.611482</ele>
        <time>2020-09-27T07:52:25.834Z</time>
      </trkpt>
      <trkpt lat="65.3169" lon="21.44249">
        <ele>31.677596</ele>
        <time>2020-09-27T07:52:27.851Z</time>
      </trkpt>
      <trkpt lat="65.31689" lon="21.44217">
        <ele>31.772849</ele>
        <time>2020-09-27T07:52:30.840Z</time>
      </trkpt>
      <trkpt lat="65.31689" lon="21.44186">
        <ele>31.86814</ele>
        <time>2020-09-27T07:52:33.859Z</time>
      </trkpt>
      <trkpt lat="65.31688" lon="21.44154">
        <ele>31.963497</ele>
        <time>2020-09-27T07:52:36.862Z</time>
      </trkpt>
      <trkpt lat="65.31687" lon="21.44127">
        <ele>32.048114</ele>
        <time>2020-09-27T07:52:39.842Z</time>
      </trkpt>
      <trkpt lat="65.31686" lon="21.44099">
        <ele>32.066875</ele>
        <time>2020-09-27T07:52:42.866Z</time>
      </trkpt>
      <trkpt lat="65.31686" lon="21.44068">
        <ele>32.038249</ele>
        <time>2020-09-27T07:52:45.824Z</time>
      </trkpt>
      <trkpt lat="65.31688" lon="21.44038">
        <ele>32.00951</ele>
        <time>2020-09-27T07:52:48.837Z</time>
      </trkpt>
      <trkpt lat="65.31688" lon="21.44007">
        <ele>31.979956</ele>
        <time>2020-09-27T07:52:51.823Z</time>
      </trkpt>
      <trkpt lat="65.31688" lon="21.43985">
        <ele>31.958729</ele>
        <time>2020-09-27T07:52:53.831Z</time>
      </trkpt>
      <trkpt lat="65.31688" lon="21.43961">
        <ele>31.936264</ele>
        <time>2020-09-27T07:52:55.833Z</time>
      </trkpt>
      <trkpt lat="65.31687" lon="21.43938">
        <ele>31.914664</ele>
        <time>2020-09-27T07:52:57.826Z</time>
      </trkpt>
      <trkpt lat="65.31688" lon="21.43916">
        <ele>31.893796</ele>
        <time>2020-09-27T07:52:59.861Z</time>
      </trkpt>
      <trkpt lat="65.31689" lon="21.43885">
        <ele>31.864329</ele>
        <time>2020-09-27T07:53:02.842Z</time>
      </trkpt>
      <trkpt lat="65.31691" lon="21.43855">
        <ele>31.835497</ele>
        <time>2020-09-27T07:53:05.865Z</time>
      </trkpt>
      <trkpt lat="65.31692" lon="21.43833">
        <ele>31.8147</ele>
        <time>2020-09-27T07:53:07.871Z</time>
      </trkpt>
      <trkpt lat="65.31694" lon="21.43812">
        <ele>31.794117</ele>
        <time>2020-09-27T07:53:09.852Z</time>
      </trkpt>
      <trkpt lat="65.31697" lon="21.43782">
        <ele>31.764462</ele>
        <time>2020-09-27T07:53:12.836Z</time>
      </trkpt>
      <trkpt lat="65.317" lon="21.43752">
        <ele>31.735667</ele>
        <time>2020-09-27T07:53:15.867Z</time>
      </trkpt>
      <trkpt lat="65.317" lon="21.43723">
        <ele>31.7082</ele>
        <time>2020-09-27T07:53:18.847Z</time>
      </trkpt>
      <trkpt lat="65.317" lon="21.43692">
        <ele>31.679122</ele>
        <time>2020-09-27T07:53:21.836Z</time>
      </trkpt>
      <trkpt lat="65.317" lon="21.4366">
        <ele>31.686686</ele>
        <time>2020-09-27T07:53:24.835Z</time>
      </trkpt>
      <trkpt lat="65.317" lon="21.4363">
        <ele>31.69938</ele>
        <time>2020-09-27T07:53:27.879Z</time>
      </trkpt>
      <trkpt lat="65.31699" lon="21.43604">
        <ele>31.710674</ele>
        <time>2020-09-27T07:53:30.851Z</time>
      </trkpt>
      <trkpt lat="65.31699" lon="21.43579">
        <ele>31.721462</ele>
        <time>2020-09-27T07:53:33.896Z</time>
      </trkpt>
      <trkpt lat="65.31698" lon="21.43553">
        <ele>31.732496</ele>
        <time>2020-09-27T07:53:36.852Z</time>
      </trkpt>
      <trkpt lat="65.31698" lon="21.43523">
        <ele>31.74537</ele>
        <time>2020-09-27T07:53:39.881Z</time>
      </trkpt>
      <trkpt lat="65.31698" lon="21.43492">
        <ele>31.758501</ele>
        <time>2020-09-27T07:53:42.840Z</time>
      </trkpt>
      <trkpt lat="65.31699" lon="21.43463">
        <ele>31.770868</ele>
        <time>2020-09-27T07:53:45.844Z</time>
      </trkpt>
      <trkpt lat="65.31699" lon="21.43433">
        <ele>31.783866</ele>
        <time>2020-09-27T07:53:48.859Z</time>
      </trkpt>
      <trkpt lat="65.31698" lon="21.43402">
        <ele>31.797082</ele>
        <time>2020-09-27T07:53:51.854Z</time>
      </trkpt>
      <trkpt lat="65.31696" lon="21.43372">
        <ele>31.809966</ele>
        <time>2020-09-27T07:53:54.869Z</time>
      </trkpt>
      <trkpt lat="65.31694" lon="21.43344">
        <ele>31.822434</ele>
        <time>2020-09-27T07:53:57.840Z</time>
      </trkpt>
      <trkpt lat="65.31691" lon="21.43314">
        <ele>31.835215</ele>
        <time>2020-09-27T07:54:00.858Z</time>
      </trkpt>
      <trkpt lat="65.31688" lon="21.43285">
        <ele>31.848059</ele>
        <time>2020-09-27T07:54:03.866Z</time>
      </trkpt>
      <trkpt lat="65.31687" lon="21.43255">
        <ele>31.834696</ele>
        <time>2020-09-27T07:54:06.835Z</time>
      </trkpt>
      <trkpt lat="65.31686" lon="21.43234">
        <ele>31.731889</ele>
        <time>2020-09-27T07:54:08.846Z</time>
      </trkpt>
      <trkpt lat="65.31686" lon="21.43202">
        <ele>31.579073</ele>
        <time>2020-09-27T07:54:11.869Z</time>
      </trkpt>
      <trkpt lat="65.31688" lon="21.4318">
        <ele>31.472131</ele>
        <time>2020-09-27T07:54:13.866Z</time>
      </trkpt>
      <trkpt lat="65.31689" lon="21.43158">
        <ele>31.367333</ele>
        <time>2020-09-27T07:54:15.847Z</time>
      </trkpt>
      <trkpt lat="65.3169" lon="21.43126">
        <ele>31.212688</ele>
        <time>2020-09-27T07:54:18.852Z</time>
      </trkpt>
      <trkpt lat="65.31689" lon="21.43104">
        <ele>31.107976</ele>
        <time>2020-09-27T07:54:20.844Z</time>
      </trkpt>
      <trkpt lat="65.3169" lon="21.43072">
        <ele>30.953811</ele>
        <time>2020-09-27T07:54:23.849Z</time>
      </trkpt>
      <trkpt lat="65.3169" lon="21.43041">
        <ele>30.803435</ele>
        <time>2020-09-27T07:54:26.850Z</time>
      </trkpt>
      <trkpt lat="65.3169" lon="21.43009">
        <ele>30.65023</ele>
        <time>2020-09-27T07:54:29.909Z</time>
      </trkpt>
      <trkpt lat="65.31689" lon="21.42978">
        <ele>30.498749</ele>
        <time>2020-09-27T07:54:32.852Z</time>
      </trkpt>
      <trkpt lat="65.31688" lon="21.42946">
        <ele>30.346567</ele>
        <time>2020-09-27T07:54:35.836Z</time>
      </trkpt>
      <trkpt lat="65.31687" lon="21.42915">
        <ele>30.195878</ele>
        <time>2020-09-27T07:54:38.839Z</time>
      </trkpt>
      <trkpt lat="65.31686" lon="21.42893">
        <ele>30.092337</ele>
        <time>2020-09-27T07:54:40.844Z</time>
      </trkpt>
      <trkpt lat="65.31686" lon="21.42862">
        <ele>29.943187</ele>
        <time>2020-09-27T07:54:43.858Z</time>
      </trkpt>
      <trkpt lat="65.31689" lon="21.42832">
        <ele>29.791588</ele>
        <time>2020-09-27T07:54:46.897Z</time>
      </trkpt>
      <trkpt lat="65.31691" lon="21.428">
        <ele>30.067681</ele>
        <time>2020-09-27T07:54:49.850Z</time>
      </trkpt>
      <trkpt lat="65.31692" lon="21.42768">
        <ele>30.34847</ele>
        <time>2020-09-27T07:54:52.858Z</time>
      </trkpt>
      <trkpt lat="65.31693" lon="21.42737">
        <ele>30.625842</ele>
        <time>2020-09-27T07:54:55.857Z</time>
      </trkpt>
      <trkpt lat="65.3169" lon="21.42706">
        <ele>30.905543</ele>
        <time>2020-09-27T07:54:58.853Z</time>
      </trkpt>
      <trkpt lat="65.31683" lon="21.42679">
        <ele>31.180326</ele>
        <time>2020-09-27T07:55:01.853Z</time>
      </trkpt>
      <trkpt lat="65.31674" lon="21.42665">
        <ele>31.41054</ele>
        <time>2020-09-27T07:55:04.845Z</time>
      </trkpt>
      <trkpt lat="65.31662" lon="21.42663">
        <ele>31.676428</ele>
        <time>2020-09-27T07:55:07.858Z</time>
      </trkpt>
      <trkpt lat="65.31651" lon="21.42661">
        <ele>31.892054</ele>
        <time>2020-09-27T07:55:09.860Z</time>
      </trkpt>
      <trkpt lat="65.31641" lon="21.42659">
        <ele>32.116817</ele>
        <time>2020-09-27T07:55:11.880Z</time>
      </trkpt>
      <trkpt lat="65.3163" lon="21.42658">
        <ele>32.333946</ele>
        <time>2020-09-27T07:55:13.864Z</time>
      </trkpt>
      <trkpt lat="65.3162" lon="21.4266">
        <ele>32.545302</ele>
        <time>2020-09-27T07:55:15.837Z</time>
      </trkpt>
      <trkpt lat="65.31611" lon="21.42662">
        <ele>32.742265</ele>
        <time>2020-09-27T07:55:17.890Z</time>
      </trkpt>
      <trkpt lat="65.31601" lon="21.42664">
        <ele>32.957825</ele>
        <time>2020-09-27T07:55:19.889Z</time>
      </trkpt>
      <trkpt lat="65.3159" lon="21.42664">
        <ele>33.198108</ele>
        <time>2020-09-27T07:55:21.857Z</time>
      </trkpt>
      <trkpt lat="65.31577" lon="21.42662">
        <ele>33.457727</ele>
        <time>2020-09-27T07:55:23.858Z</time>
      </trkpt>
      <trkpt lat="65.31566" lon="21.42661">
        <ele>33.56206</ele>
        <time>2020-09-27T07:55:25.887Z</time>
      </trkpt>
      <trkpt lat="65.31555" lon="21.42659">
        <ele>33.518882</ele>
        <time>2020-09-27T07:55:27.844Z</time>
      </trkpt>
      <trkpt lat="65.31545" lon="21.42658">
        <ele>33.476911</ele>
        <time>2020-09-27T07:55:29.846Z</time>
      </trkpt>
      <trkpt lat="65.31534" lon="21.42657">
        <ele>33.434962</ele>
        <time>2020-09-27T07:55:31.852Z</time>
      </trkpt>
      <trkpt lat="65.31523" lon="21.42652">
        <ele>33.391406</ele>
        <time>2020-09-27T07:55:33.861Z</time>
      </trkpt>
      <trkpt lat="65.31511" lon="21.4264">
        <ele>33.341395</ele>
        <time>2020-09-27T07:55:35.851Z</time>
      </trkpt>
      <trkpt lat="65.31502" lon="21.42621">
        <ele>33.292388</ele>
        <time>2020-09-27T07:55:37.864Z</time>
      </trkpt>
      <trkpt lat="65.31495" lon="21.42598">
        <ele>33.247154</ele>
        <time>2020-09-27T07:55:39.877Z</time>
      </trkpt>
      <trkpt lat="65.31492" lon="21.42572">
        <ele>33.201821</ele>
        <time>2020-09-27T07:55:41.836Z</time>
      </trkpt>
      <trkpt lat="65.3149" lon="21.42545">
        <ele>33.157654</ele>
        <time>2020-09-27T07:55:43.844Z</time>
      </trkpt>
      <trkpt lat="65.31488" lon="21.42521">
        <ele>33.117599</ele>
        <time>2020-09-27T07:55:45.856Z</time>
      </trkpt>
      <trkpt lat="65.31486" lon="21.42498">
        <ele>33.07778</ele>
        <time>2020-09-27T07:55:47.852Z</time>
      </trkpt>
      <trkpt lat="65.31484" lon="21.42474">
        <ele>33.039002</ele>
        <time>2020-09-27T07:55:49.864Z</time>
      </trkpt>
      <trkpt lat="65.31481" lon="21.42452">
        <ele>33.000734</ele>
        <time>2020-09-27T07:55:51.826Z</time>
      </trkpt>
      <trkpt lat="65.31478" lon="21.42429">
        <ele>32.961</ele>
        <time>2020-09-27T07:55:53.881Z</time>
      </trkpt>
      <trkpt lat="65.31476" lon="21.42404">
        <ele>32.920216</ele>
        <time>2020-09-27T07:55:55.866Z</time>
      </trkpt>
      <trkpt lat="65.31474" lon="21.42381">
        <ele>32.880884</ele>
        <time>2020-09-27T07:55:57.843Z</time>
      </trkpt>
      <trkpt lat="65.31472" lon="21.42356">
        <ele>32.638042</ele>
        <time>2020-09-27T07:55:59.843Z</time>
      </trkpt>
      <trkpt lat="65.31469" lon="21.42332">
        <ele>32.365938</ele>
        <time>2020-09-27T07:56:01.843Z</time>
      </trkpt>
      <trkpt lat="65.31467" lon="21.42308">
        <ele>32.106548</ele>
        <time>2020-09-27T07:56:03.880Z</time>
      </trkpt>
      <trkpt lat="65.31464" lon="21.42286">
        <ele>31.851964</ele>
        <time>2020-09-27T07:56:05.846Z</time>
      </trkpt>
      <trkpt lat="65.31461" lon="21.42262">
        <ele>31.592237</ele>
        <time>2020-09-27T07:56:07.844Z</time>
      </trkpt>
      <trkpt lat="65.31459" lon="21.4224">
        <ele>31.341118</ele>
        <time>2020-09-27T07:56:09.848Z</time>
      </trkpt>
      <trkpt lat="65.31455" lon="21.42217">
        <ele>31.086668</ele>
        <time>2020-09-27T07:56:11.865Z</time>
      </trkpt>
      <trkpt lat="65.31452" lon="21.42195">
        <ele>30.834588</ele>
        <time>2020-09-27T07:56:13.863Z</time>
      </trkpt>
      <trkpt lat="65.31447" lon="21.42174">
        <ele>30.582902</ele>
        <time>2020-09-27T07:56:15.836Z</time>
      </trkpt>
      <trkpt lat="65.31442" lon="21.42154">
        <ele>30.33228</ele>
        <time>2020-09-27T07:56:17.837Z</time>
      </trkpt>
      <trkpt lat="65.31436" lon="21.42135">
        <ele>30.07495</ele>
        <time>2020-09-27T07:56:19.852Z</time>
      </trkpt>
      <trkpt lat="65.3143" lon="21.42116">
        <ele>29.814223</ele>
        <time>2020-09-27T07:56:21.838Z</time>
      </trkpt>
      <trkpt lat="65.31423" lon="21.42098">
        <ele>29.562261</ele>
        <time>2020-09-27T07:56:23.838Z</time>
      </trkpt>
      <trkpt lat="65.31417" lon="21.42083">
        <ele>29.322914</ele>
        <time>2020-09-27T07:56:25.891Z</time>
      </trkpt>
      <trkpt lat="65.3141" lon="21.42069">
        <ele>29.086196</ele>
        <time>2020-09-27T07:56:27.838Z</time>
      </trkpt>
      <trkpt lat="65.31402" lon="21.42055">
        <ele>28.832029</ele>
        <time>2020-09-27T07:56:30.840Z</time>
      </trkpt>
      <trkpt lat="65.31392" lon="21.42044">
        <ele>28.558977</ele>
        <time>2020-09-27T07:56:35.850Z</time>
      </trkpt>
      <trkpt lat="65.31384" lon="21.42033">
        <ele>28.323406</ele>
        <time>2020-09-27T07:56:38.857Z</time>
      </trkpt>
      <trkpt lat="65.31375" lon="21.42019">
        <ele>28.468535</ele>
        <time>2020-09-27T07:56:41.857Z</time>
      </trkpt>
      <trkpt lat="65.31365" lon="21.42004">
        <ele>28.743199</ele>
        <time>2020-09-27T07:56:44.837Z</time>
      </trkpt>
      <trkpt lat="65.31355" lon="21.41987">
        <ele>29.029813</ele>
        <time>2020-09-27T07:56:47.831Z</time>
      </trkpt>
      <trkpt lat="65.31345" lon="21.41971">
        <ele>29.32345</ele>
        <time>2020-09-27T07:56:50.860Z</time>
      </trkpt>
      <trkpt lat="65.31335" lon="21.41954">
        <ele>29.621022</ele>
        <time>2020-09-27T07:56:53.854Z</time>
      </trkpt>
      <trkpt lat="65.31325" lon="21.41933">
        <ele>29.942339</ele>
        <time>2020-09-27T07:56:56.851Z</time>
      </trkpt>
      <trkpt lat="65.31316" lon="21.4191">
        <ele>30.259088</ele>
        <time>2020-09-27T07:56:59.848Z</time>
      </trkpt>
      <trkpt lat="65.31307" lon="21.41886">
        <ele>30.576686</ele>
        <time>2020-09-27T07:57:02.866Z</time>
      </trkpt>
      <trkpt lat="65.31298" lon="21.41851">
        <ele>30.998056</ele>
        <time>2020-09-27T07:57:06.863Z</time>
      </trkpt>
      <trkpt lat="65.31293" lon="21.41833">
        <ele>31.214656</ele>
        <time>2020-09-27T07:57:08.873Z</time>
      </trkpt>
      <trkpt lat="65.31285" lon="21.41808">
        <ele>31.529736</ele>
        <time>2020-09-27T07:57:11.844Z</time>
      </trkpt>
      <trkpt lat="65.3128" lon="21.41781">
        <ele>31.826584</ele>
        <time>2020-09-27T07:57:14.837Z</time>
      </trkpt>
      <trkpt lat="65.31275" lon="21.41753">
        <ele>32.123372</ele>
        <time>2020-09-27T07:57:17.907Z</time>
      </trkpt>
      <trkpt lat="65.31271" lon="21.41724">
        <ele>32.425547</ele>
        <time>2020-09-27T07:57:20.835Z</time>
      </trkpt>
      <trkpt lat="65.31269" lon="21.41694">
        <ele>32.716595</ele>
        <time>2020-09-27T07:57:23.848Z</time>
      </trkpt>
      <trkpt lat="65.31267" lon="21.41665">
        <ele>32.963322</ele>
        <time>2020-09-27T07:57:26.876Z</time>
      </trkpt>
      <trkpt lat="65.31264" lon="21.41643">
        <ele>33.165789</ele>
        <time>2020-09-27T07:57:29.874Z</time>
      </trkpt>
      <trkpt lat="65.31261" lon="21.41622">
        <ele>33.357357</ele>
        <time>2020-09-27T07:57:32.857Z</time>
      </trkpt>
      <trkpt lat="65.31257" lon="21.416">
        <ele>33.556058</ele>
        <time>2020-09-27T07:57:35.853Z</time>
      </trkpt>
      <trkpt lat="65.31252" lon="21.41575">
        <ele>33.795499</ele>
        <time>2020-09-27T07:57:39.854Z</time>
      </trkpt>
      <trkpt lat="65.31245" lon="21.41555">
        <ele>34.016772</ele>
        <time>2020-09-27T07:57:43.849Z</time>
      </trkpt>
      <trkpt lat="65.31238" lon="21.41538">
        <ele>34.233338</ele>
        <time>2020-09-27T07:57:47.870Z</time>
      </trkpt>
      <trkpt lat="65.3123" lon="21.41521">
        <ele>34.444869</ele>
        <time>2020-09-27T07:57:51.844Z</time>
      </trkpt>
      <trkpt lat="65.31222" lon="21.41503">
        <ele>34.677367</ele>
        <time>2020-09-27T07:57:55.857Z</time>
      </trkpt>
      <trkpt lat="65.31213" lon="21.41484">
        <ele>34.916351</ele>
        <time>2020-09-27T07:57:59.844Z</time>
      </trkpt>
      <trkpt lat="65.31205" lon="21.41466">
        <ele>35.147512</ele>
        <time>2020-09-27T07:58:03.859Z</time>
      </trkpt>
      <trkpt lat="65.31196" lon="21.41446">
        <ele>35.38998</ele>
        <time>2020-09-27T07:58:07.881Z</time>
      </trkpt>
      <trkpt lat="65.31189" lon="21.4143">
        <ele>35.58934</ele>
        <time>2020-09-27T07:58:10.840Z</time>
      </trkpt>
      <trkpt lat="65.31183" lon="21.41414">
        <ele>35.783286</ele>
        <time>2020-09-27T07:58:13.880Z</time>
      </trkpt>
      <trkpt lat="65.31175" lon="21.41393">
        <ele>36.026478</ele>
        <time>2020-09-27T07:58:17.863Z</time>
      </trkpt>
      <trkpt lat="65.31168" lon="21.41378">
        <ele>36.210826</ele>
        <time>2020-09-27T07:58:20.829Z</time>
      </trkpt>
      <trkpt lat="65.3116" lon="21.41363">
        <ele>36.099662</ele>
        <time>2020-09-27T07:58:23.846Z</time>
      </trkpt>
      <trkpt lat="65.31153" lon="21.41347">
        <ele>35.857718</ele>
        <time>2020-09-27T07:58:26.884Z</time>
      </trkpt>
      <trkpt lat="65.31146" lon="21.4133">
        <ele>35.609917</ele>
        <time>2020-09-27T07:58:29.842Z</time>
      </trkpt>
      <trkpt lat="65.31139" lon="21.41312">
        <ele>35.363846</ele>
        <time>2020-09-27T07:58:32.858Z</time>
      </trkpt>
      <trkpt lat="65.31131" lon="21.41293">
        <ele>35.101088</ele>
        <time>2020-09-27T07:58:35.865Z</time>
      </trkpt>
      <trkpt lat="65.31123" lon="21.41277">
        <ele>34.842819</ele>
        <time>2020-09-27T07:58:38.856Z</time>
      </trkpt>
      <trkpt lat="65.31117" lon="21.41257">
        <ele>34.587757</ele>
        <time>2020-09-27T07:58:41.843Z</time>
      </trkpt>
      <trkpt lat="65.31108" lon="21.41237">
        <ele>34.289345</ele>
        <time>2020-09-27T07:58:44.830Z</time>
      </trkpt>
      <trkpt lat="65.31098" lon="21.41216">
        <ele>33.979666</ele>
        <time>2020-09-27T07:58:47.856Z</time>
      </trkpt>
      <trkpt lat="65.31089" lon="21.41195">
        <ele>33.662264</ele>
        <time>2020-09-27T07:58:50.844Z</time>
      </trkpt>
      <trkpt lat="65.31082" lon="21.41181">
        <ele>33.43584</ele>
        <time>2020-09-27T07:58:52.860Z</time>
      </trkpt>
      <trkpt lat="65.31075" lon="21.41165">
        <ele>33.197739</ele>
        <time>2020-09-27T07:58:54.853Z</time>
      </trkpt>
      <trkpt lat="65.31067" lon="21.41148">
        <ele>32.941074</ele>
        <time>2020-09-27T07:58:56.865Z</time>
      </trkpt>
      <trkpt lat="65.31058" lon="21.41132">
        <ele>32.668138</ele>
        <time>2020-09-27T07:58:58.855Z</time>
      </trkpt>
      <trkpt lat="65.31047" lon="21.41118">
        <ele>32.376812</ele>
        <time>2020-09-27T07:59:00.838Z</time>
      </trkpt>
      <trkpt lat="65.31036" lon="21.41106">
        <ele>32.07074</ele>
        <time>2020-09-27T07:59:02.847Z</time>
      </trkpt>
      <trkpt lat="65.31023" lon="21.41096">
        <ele>31.813448</ele>
        <time>2020-09-27T07:59:04.884Z</time>
      </trkpt>
      <trkpt lat="65.3101" lon="21.4109">
        <ele>31.627944</ele>
        <time>2020-09-27T07:59:06.856Z</time>
      </trkpt>
      <trkpt lat="65.30998" lon="21.41085">
        <ele>31.446671</ele>
        <time>2020-09-27T07:59:08.865Z</time>
      </trkpt>
      <trkpt lat="65.30986" lon="21.41082">
        <ele>31.280431</ele>
        <time>2020-09-27T07:59:10.840Z</time>
      </trkpt>
      <trkpt lat="65.30975" lon="21.41079">
        <ele>31.129873</ele>
        <time>2020-09-27T07:59:12.842Z</time>
      </trkpt>
      <trkpt lat="65.30966" lon="21.41077">
        <ele>30.99556</ele>
        <time>2020-09-27T07:59:14.856Z</time>
      </trkpt>
      <trkpt lat="65.30957" lon="21.41076">
        <ele>30.864217</ele>
        <time>2020-09-27T07:59:16.834Z</time>
      </trkpt>
      <trkpt lat="65.30947" lon="21.41073">
        <ele>30.723801</ele>
        <time>2020-09-27T07:59:18.869Z</time>
      </trkpt>
      <trkpt lat="65.30937" lon="21.4107">
        <ele>30.588285</ele>
        <time>2020-09-27T07:59:20.877Z</time>
      </trkpt>
      <trkpt lat="65.30926" lon="21.41066">
        <ele>30.431419</ele>
        <time>2020-09-27T07:59:22.867Z</time>
      </trkpt>
      <trkpt lat="65.30914" lon="21.41059">
        <ele>30.259065</ele>
        <time>2020-09-27T07:59:24.843Z</time>
      </trkpt>
      <trkpt lat="65.30903" lon="21.41048">
        <ele>30.084683</ele>
        <time>2020-09-27T07:59:26.838Z</time>
      </trkpt>
      <trkpt lat="65.30892" lon="21.41035">
        <ele>29.919541</ele>
        <time>2020-09-27T07:59:28.866Z</time>
      </trkpt>
      <trkpt lat="65.30882" lon="21.41021">
        <ele>29.751372</ele>
        <time>2020-09-27T07:59:30.880Z</time>
      </trkpt>
      <trkpt lat="65.30872" lon="21.41009">
        <ele>29.588086</ele>
        <time>2020-09-27T07:59:32.851Z</time>
      </trkpt>
      <trkpt lat="65.30861" lon="21.40998">
        <ele>29.428951</ele>
        <time>2020-09-27T07:59:34.875Z</time>
      </trkpt>
      <trkpt lat="65.3085" lon="21.4099">
        <ele>29.580617</ele>
        <time>2020-09-27T07:59:36.860Z</time>
      </trkpt>
      <trkpt lat="65.30839" lon="21.40984">
        <ele>29.945825</ele>
        <time>2020-09-27T07:59:38.843Z</time>
      </trkpt>
      <trkpt lat="65.30829" lon="21.40978">
        <ele>30.279064</ele>
        <time>2020-09-27T07:59:40.867Z</time>
      </trkpt>
      <trkpt lat="65.30821" lon="21.40967">
        <ele>30.582426</ele>
        <time>2020-09-27T07:59:42.853Z</time>
      </trkpt>
      <trkpt lat="65.30813" lon="21.4095">
        <ele>30.939782</ele>
        <time>2020-09-27T07:59:45.840Z</time>
      </trkpt>
      <trkpt lat="65.30804" lon="21.40933">
        <ele>31.315948</ele>
        <time>2020-09-27T07:59:48.827Z</time>
      </trkpt>
      <trkpt lat="65.30795" lon="21.40913">
        <ele>31.718345</ele>
        <time>2020-09-27T07:59:51.837Z</time>
      </trkpt>
      <trkpt lat="65.30788" lon="21.40888">
        <ele>32.126803</ele>
        <time>2020-09-27T07:59:54.851Z</time>
      </trkpt>
      <trkpt lat="65.30784" lon="21.4086">
        <ele>32.524984</ele>
        <time>2020-09-27T07:59:57.857Z</time>
      </trkpt>
      <trkpt lat="65.30782" lon="21.40831">
        <ele>32.934186</ele>
        <time>2020-09-27T08:00:00.856Z</time>
      </trkpt>
      <trkpt lat="65.30779" lon="21.40805">
        <ele>33.299073</ele>
        <time>2020-09-27T08:00:03.844Z</time>
      </trkpt>
      <trkpt lat="65.30775" lon="21.40781">
        <ele>33.652365</ele>
        <time>2020-09-27T08:00:06.837Z</time>
      </trkpt>
      <trkpt lat="65.30771" lon="21.40761">
        <ele>33.965478</ele>
        <time>2020-09-27T08:00:08.838Z</time>
      </trkpt>
      <trkpt lat="65.3077" lon="21.40735">
        <ele>34.310828</ele>
        <time>2020-09-27T08:00:10.852Z</time>
      </trkpt>
      <trkpt lat="65.30769" lon="21.4071">
        <ele>34.656672</ele>
        <time>2020-09-27T08:00:12.859Z</time>
      </trkpt>
      <trkpt lat="65.30765" lon="21.40682">
        <ele>35.059248</ele>
        <time>2020-09-27T08:00:15.838Z</time>
      </trkpt>
      <trkpt lat="65.30756" lon="21.40675">
        <ele>35.671153</ele>
        <time>2020-09-27T08:00:18.843Z</time>
      </trkpt>
      <trkpt lat="65.30747" lon="21.4068">
        <ele>36.786326</ele>
        <time>2020-09-27T08:00:21.846Z</time>
      </trkpt>
      <trkpt lat="65.30738" lon="21.40692">
        <ele>38.073243</ele>
        <time>2020-09-27T08:00:26.847Z</time>
      </trkpt>
      <trkpt lat="65.30729" lon="21.40702">
        <ele>39.303578</ele>
        <time>2020-09-27T08:00:31.860Z</time>
      </trkpt>
      <trkpt lat="65.3072" lon="21.40711">
        <ele>40.46811</ele>
        <time>2020-09-27T08:00:36.850Z</time>
      </trkpt>
      <trkpt lat="65.30712" lon="21.40719">
        <ele>41.601947</ele>
        <time>2020-09-27T08:00:41.850Z</time>
      </trkpt>
      <trkpt lat="65.30703" lon="21.40728">
        <ele>42.831298</ele>
        <time>2020-09-27T08:00:46.832Z</time>
      </trkpt>
      <trkpt lat="65.30692" lon="21.40734">
        <ele>44.169715</ele>
        <time>2020-09-27T08:00:51.855Z</time>
      </trkpt>
      <trkpt lat="65.30683" lon="21.40738">
        <ele>45.325483</ele>
        <time>2020-09-27T08:00:55.841Z</time>
      </trkpt>
      <trkpt lat="65.30674" lon="21.40741">
        <ele>46.453737</ele>
        <time>2020-09-27T08:00:59.902Z</time>
      </trkpt>
      <trkpt lat="65.30664" lon="21.4074">
        <ele>47.637449</ele>
        <time>2020-09-27T08:01:03.871Z</time>
      </trkpt>
      <trkpt lat="65.30654" lon="21.40734">
        <ele>48.989211</ele>
        <time>2020-09-27T08:01:08.868Z</time>
      </trkpt>
      <trkpt lat="65.30644" lon="21.40724">
        <ele>50.246268</ele>
        <time>2020-09-27T08:01:13.867Z</time>
      </trkpt>
      <trkpt lat="65.30636" lon="21.40712">
        <ele>51.445092</ele>
        <time>2020-09-27T08:01:18.857Z</time>
      </trkpt>
      <trkpt lat="65.30625" lon="21.40703">
        <ele>52.850433</ele>
        <time>2020-09-27T08:01:23.865Z</time>
      </trkpt>
      <trkpt lat="65.30616" lon="21.40693">
        <ele>54.049458</ele>
        <time>2020-09-27T08:01:27.846Z</time>
      </trkpt>
      <trkpt lat="65.30607" lon="21.4068">
        <ele>55.394464</ele>
        <time>2020-09-27T08:01:32.870Z</time>
      </trkpt>
      <trkpt lat="65.30598" lon="21.40666">
        <ele>56.71612</ele>
        <time>2020-09-27T08:01:37.868Z</time>
      </trkpt>
      <trkpt lat="65.3059" lon="21.40655">
        <ele>57.456944</ele>
        <time>2020-09-27T08:01:42.845Z</time>
      </trkpt>
      <trkpt lat="65.3058" lon="21.40645">
        <ele>57.555987</ele>
        <time>2020-09-27T08:01:47.863Z</time>
      </trkpt>
      <trkpt lat="65.30572" lon="21.40633">
        <ele>57.644874</ele>
        <time>2020-09-27T08:01:52.875Z</time>
      </trkpt>
      <trkpt lat="65.30564" lon="21.40621">
        <ele>57.735175</ele>
        <time>2020-09-27T08:01:58.851Z</time>
      </trkpt>
      <trkpt lat="65.30555" lon="21.40604">
        <ele>57.836837</ele>
        <time>2020-09-27T08:02:03.844Z</time>
      </trkpt>
      <trkpt lat="65.30548" lon="21.40589">
        <ele>57.926565</ele>
        <time>2020-09-27T08:02:08.852Z</time>
      </trkpt>
      <trkpt lat="65.3054" lon="21.40574">
        <ele>58.024643</ele>
        <time>2020-09-27T08:02:14.847Z</time>
      </trkpt>
      <trkpt lat="65.3053" lon="21.40563">
        <ele>58.122449</ele>
        <time>2020-09-27T08:02:20.844Z</time>
      </trkpt>
      <trkpt lat="65.3052" lon="21.40562">
        <ele>58.215977</ele>
        <time>2020-09-27T08:02:26.846Z</time>
      </trkpt>
      <trkpt lat="65.30511" lon="21.40562">
        <ele>58.303901</ele>
        <time>2020-09-27T08:02:31.883Z</time>
      </trkpt>
      <trkpt lat="65.30502" lon="21.40563">
        <ele>58.392795</ele>
        <time>2020-09-27T08:02:35.843Z</time>
      </trkpt>
      <trkpt lat="65.30491" lon="21.40562">
        <ele>58.490114</ele>
        <time>2020-09-27T08:02:39.846Z</time>
      </trkpt>
      <trkpt lat="65.30481" lon="21.40564">
        <ele>58.586796</ele>
        <time>2020-09-27T08:02:43.854Z</time>
      </trkpt>
      <trkpt lat="65.30472" lon="21.40568">
        <ele>58.675312</ele>
        <time>2020-09-27T08:02:47.863Z</time>
      </trkpt>
      <trkpt lat="65.3046" lon="21.40567">
        <ele>58.782005</ele>
        <time>2020-09-27T08:02:52.850Z</time>
      </trkpt>
      <trkpt lat="65.30451" lon="21.40564">
        <ele>58.871576</ele>
        <time>2020-09-27T08:02:56.856Z</time>
      </trkpt>
      <trkpt lat="65.30446" lon="21.40544">
        <ele>58.962985</ele>
        <time>2020-09-27T08:03:00.844Z</time>
      </trkpt>
      <trkpt lat="65.30443" lon="21.40524">
        <ele>59.047557</ele>
        <time>2020-09-27T08:03:04.839Z</time>
      </trkpt>
      <trkpt lat="65.30438" lon="21.40505">
        <ele>59.040132</ele>
        <time>2020-09-27T08:03:08.864Z</time>
      </trkpt>
      <trkpt lat="65.30428" lon="21.40499">
        <ele>58.80758</ele>
        <time>2020-09-27T08:03:11.856Z</time>
      </trkpt>
      <trkpt lat="65.30418" lon="21.40497">
        <ele>58.551664</ele>
        <time>2020-09-27T08:03:14.887Z</time>
      </trkpt>
      <trkpt lat="65.30406" lon="21.40496">
        <ele>58.273178</ele>
        <time>2020-09-27T08:03:17.842Z</time>
      </trkpt>
      <trkpt lat="65.30394" lon="21.40497">
        <ele>57.994724</ele>
        <time>2020-09-27T08:03:20.880Z</time>
      </trkpt>
      <trkpt lat="65.30381" lon="21.40496">
        <ele>57.697693</ele>
        <time>2020-09-27T08:03:23.858Z</time>
      </trkpt>
      <trkpt lat="65.30369" lon="21.40495">
        <ele>57.423882</ele>
        <time>2020-09-27T08:03:26.857Z</time>
      </trkpt>
      <trkpt lat="65.30358" lon="21.40496">
        <ele>57.147697</ele>
        <time>2020-09-27T08:03:29.856Z</time>
      </trkpt>
      <trkpt lat="65.30345" lon="21.40498">
        <ele>56.845684</ele>
        <time>2020-09-27T08:03:32.848Z</time>
      </trkpt>
      <trkpt lat="65.30335" lon="21.40497">
        <ele>56.618568</ele>
        <time>2020-09-27T08:03:34.879Z</time>
      </trkpt>
      <trkpt lat="65.30326" lon="21.40494">
        <ele>56.406431</ele>
        <time>2020-09-27T08:03:36.837Z</time>
      </trkpt>
      <trkpt lat="65.30314" lon="21.40486">
        <ele>56.122895</ele>
        <time>2020-09-27T08:03:39.879Z</time>
      </trkpt>
      <trkpt lat="65.30303" lon="21.40477">
        <ele>55.844364</ele>
        <time>2020-09-27T08:03:42.868Z</time>
      </trkpt>
      <trkpt lat="65.3029" lon="21.40476">
        <ele>55.533006</ele>
        <time>2020-09-27T08:03:45.872Z</time>
      </trkpt>
      <trkpt lat="65.30281" lon="21.4049">
        <ele>55.28944</ele>
        <time>2020-09-27T08:03:47.839Z</time>
      </trkpt>
      <trkpt lat="65.30275" lon="21.4051">
        <ele>55.045888</ele>
        <time>2020-09-27T08:03:49.871Z</time>
      </trkpt>
      <trkpt lat="65.30269" lon="21.4053">
        <ele>54.656184</ele>
        <time>2020-09-27T08:03:51.852Z</time>
      </trkpt>
      <trkpt lat="65.30263" lon="21.40551">
        <ele>54.029732</ele>
        <time>2020-09-27T08:03:53.855Z</time>
      </trkpt>
      <trkpt lat="65.30257" lon="21.40568">
        <ele>53.443814</ele>
        <time>2020-09-27T08:03:55.839Z</time>
      </trkpt>
      <trkpt lat="65.3025" lon="21.40586">
        <ele>52.859939</ele>
        <time>2020-09-27T08:03:57.847Z</time>
      </trkpt>
      <trkpt lat="65.30244" lon="21.40604">
        <ele>52.254819</ele>
        <time>2020-09-27T08:03:59.852Z</time>
      </trkpt>
      <trkpt lat="65.30237" lon="21.40621">
        <ele>51.670538</ele>
        <time>2020-09-27T08:04:01.849Z</time>
      </trkpt>
      <trkpt lat="65.30231" lon="21.4064">
        <ele>51.059638</ele>
        <time>2020-09-27T08:04:03.849Z</time>
      </trkpt>
      <trkpt lat="65.30224" lon="21.40657">
        <ele>50.467198</ele>
        <time>2020-09-27T08:04:05.837Z</time>
      </trkpt>
      <trkpt lat="65.30218" lon="21.40675">
        <ele>49.873512</ele>
        <time>2020-09-27T08:04:07.873Z</time>
      </trkpt>
      <trkpt lat="65.30212" lon="21.40694">
        <ele>49.273491</ele>
        <time>2020-09-27T08:04:09.843Z</time>
      </trkpt>
      <trkpt lat="65.30205" lon="21.40712">
        <ele>48.679987</ele>
        <time>2020-09-27T08:04:11.836Z</time>
      </trkpt>
      <trkpt lat="65.302" lon="21.40731">
        <ele>48.085601</ele>
        <time>2020-09-27T08:04:13.833Z</time>
      </trkpt>
      <trkpt lat="65.30194" lon="21.4075">
        <ele>47.514527</ele>
        <time>2020-09-27T08:04:15.834Z</time>
      </trkpt>
      <trkpt lat="65.3019" lon="21.4077">
        <ele>46.93422</ele>
        <time>2020-09-27T08:04:17.835Z</time>
      </trkpt>
      <trkpt lat="65.30184" lon="21.4079">
        <ele>46.315347</ele>
        <time>2020-09-27T08:04:19.868Z</time>
      </trkpt>
      <trkpt lat="65.30177" lon="21.40812">
        <ele>45.630628</ele>
        <time>2020-09-27T08:04:21.854Z</time>
      </trkpt>
      <trkpt lat="65.30171" lon="21.40832">
        <ele>44.98949</ele>
        <time>2020-09-27T08:04:23.883Z</time>
      </trkpt>
      <trkpt lat="65.30164" lon="21.40853">
        <ele>44.312136</ele>
        <time>2020-09-27T08:04:25.840Z</time>
      </trkpt>
      <trkpt lat="65.30156" lon="21.40874">
        <ele>43.806604</ele>
        <time>2020-09-27T08:04:27.853Z</time>
      </trkpt>
      <trkpt lat="65.30147" lon="21.40894">
        <ele>43.408952</ele>
        <time>2020-09-27T08:04:29.833Z</time>
      </trkpt>
      <trkpt lat="65.30138" lon="21.40913">
        <ele>43.025069</ele>
        <time>2020-09-27T08:04:31.876Z</time>
      </trkpt>
      <trkpt lat="65.3013" lon="21.40932">
        <ele>42.650238</ele>
        <time>2020-09-27T08:04:33.847Z</time>
      </trkpt>
      <trkpt lat="65.30122" lon="21.4095">
        <ele>42.27953</ele>
        <time>2020-09-27T08:04:35.846Z</time>
      </trkpt>
      <trkpt lat="65.30113" lon="21.40967">
        <ele>41.91454</ele>
        <time>2020-09-27T08:04:37.877Z</time>
      </trkpt>
      <trkpt lat="65.30104" lon="21.40985">
        <ele>41.531898</ele>
        <time>2020-09-27T08:04:39.835Z</time>
      </trkpt>
      <trkpt lat="65.30096" lon="21.41004">
        <ele>41.153769</ele>
        <time>2020-09-27T08:04:41.844Z</time>
      </trkpt>
      <trkpt lat="65.30087" lon="21.41023">
        <ele>40.765602</ele>
        <time>2020-09-27T08:04:43.879Z</time>
      </trkpt>
      <trkpt lat="65.30078" lon="21.41044">
        <ele>40.3435</ele>
        <time>2020-09-27T08:04:45.860Z</time>
      </trkpt>
      <trkpt lat="65.30068" lon="21.41064">
        <ele>39.908791</ele>
        <time>2020-09-27T08:04:47.838Z</time>
      </trkpt>
      <trkpt lat="65.30057" lon="21.41084">
        <ele>39.450312</ele>
        <time>2020-09-27T08:04:49.869Z</time>
      </trkpt>
      <trkpt lat="65.30045" lon="21.41105">
        <ele>38.982108</ele>
        <time>2020-09-27T08:04:51.840Z</time>
      </trkpt>
      <trkpt lat="65.30034" lon="21.41126">
        <ele>38.52539</ele>
        <time>2020-09-27T08:04:53.851Z</time>
      </trkpt>
      <trkpt lat="65.30024" lon="21.41148">
        <ele>38.045872</ele>
        <time>2020-09-27T08:04:55.855Z</time>
      </trkpt>
      <trkpt lat="65.30012" lon="21.41171">
        <ele>37.471255</ele>
        <time>2020-09-27T08:04:57.854Z</time>
      </trkpt>
      <trkpt lat="65.3" lon="21.41196">
        <ele>36.848213</ele>
        <time>2020-09-27T08:04:59.844Z</time>
      </trkpt>
      <trkpt lat="65.29987" lon="21.41222">
        <ele>36.216984</ele>
        <time>2020-09-27T08:05:01.840Z</time>
      </trkpt>
      <trkpt lat="65.29975" lon="21.41246">
        <ele>35.599929</ele>
        <time>2020-09-27T08:05:03.842Z</time>
      </trkpt>
      <trkpt lat="65.29962" lon="21.4127">
        <ele>35.001827</ele>
        <time>2020-09-27T08:05:05.887Z</time>
      </trkpt>
      <trkpt lat="65.29949" lon="21.41292">
        <ele>34.36767</ele>
        <time>2020-09-27T08:05:07.862Z</time>
      </trkpt>
      <trkpt lat="65.29934" lon="21.41312">
        <ele>33.732462</ele>
        <time>2020-09-27T08:05:09.864Z</time>
      </trkpt>
      <trkpt lat="65.29919" lon="21.41326">
        <ele>33.118777</ele>
        <time>2020-09-27T08:05:11.864Z</time>
      </trkpt>
      <trkpt lat="65.29904" lon="21.41337">
        <ele>32.523246</ele>
        <time>2020-09-27T08:05:13.850Z</time>
      </trkpt>
      <trkpt lat="65.29889" lon="21.41343">
        <ele>31.933838</ele>
        <time>2020-09-27T08:05:15.841Z</time>
      </trkpt>
      <trkpt lat="65.29875" lon="21.41346">
        <ele>31.397037</ele>
        <time>2020-09-27T08:05:17.856Z</time>
      </trkpt>
      <trkpt lat="65.29862" lon="21.41348">
        <ele>31.194154</ele>
        <time>2020-09-27T08:05:19.829Z</time>
      </trkpt>
      <trkpt lat="65.29848" lon="21.4135">
        <ele>31.093451</ele>
        <time>2020-09-27T08:05:21.844Z</time>
      </trkpt>
      <trkpt lat="65.29835" lon="21.41351">
        <ele>30.996555</ele>
        <time>2020-09-27T08:05:23.854Z</time>
      </trkpt>
      <trkpt lat="65.29823" lon="21.41352">
        <ele>30.903434</ele>
        <time>2020-09-27T08:05:25.884Z</time>
      </trkpt>
      <trkpt lat="65.29811" lon="21.41351">
        <ele>30.81552</ele>
        <time>2020-09-27T08:05:27.839Z</time>
      </trkpt>
      <trkpt lat="65.298" lon="21.41351">
        <ele>30.729962</ele>
        <time>2020-09-27T08:05:29.863Z</time>
      </trkpt>
      <trkpt lat="65.29789" lon="21.41352">
        <ele>30.647339</ele>
        <time>2020-09-27T08:05:31.839Z</time>
      </trkpt>
      <trkpt lat="65.29779" lon="21.41352">
        <ele>30.570776</ele>
        <time>2020-09-27T08:05:33.844Z</time>
      </trkpt>
      <trkpt lat="65.29769" lon="21.4135">
        <ele>30.498633</ele>
        <time>2020-09-27T08:05:35.856Z</time>
      </trkpt>
      <trkpt lat="65.29759" lon="21.4135">
        <ele>30.427328</ele>
        <time>2020-09-27T08:05:37.843Z</time>
      </trkpt>
      <trkpt lat="65.2975" lon="21.41351">
        <ele>30.358214</ele>
        <time>2020-09-27T08:05:39.869Z</time>
      </trkpt>
      <trkpt lat="65.29741" lon="21.41359">
        <ele>30.286755</ele>
        <time>2020-09-27T08:05:41.862Z</time>
      </trkpt>
      <trkpt lat="65.29732" lon="21.41366">
        <ele>30.215021</ele>
        <time>2020-09-27T08:05:43.840Z</time>
      </trkpt>
      <trkpt lat="65.29724" lon="21.41359">
        <ele>30.147736</ele>
        <time>2020-09-27T08:05:45.872Z</time>
      </trkpt>
      <trkpt lat="65.29719" lon="21.41331">
        <ele>30.05282</ele>
        <time>2020-09-27T08:05:48.840Z</time>
      </trkpt>
      <trkpt lat="65.29713" lon="21.41306">
        <ele>29.962027</ele>
        <time>2020-09-27T08:05:51.861Z</time>
      </trkpt>
      <trkpt lat="65.29704" lon="21.4131">
        <ele>30.101328</ele>
        <time>2020-09-27T08:05:53.856Z</time>
      </trkpt>
      <trkpt lat="65.29695" lon="21.41321">
        <ele>30.533104</ele>
        <time>2020-09-27T08:05:55.830Z</time>
      </trkpt>
      <trkpt lat="65.29686" lon="21.41328">
        <ele>30.951303</ele>
        <time>2020-09-27T08:05:57.827Z</time>
      </trkpt>
      <trkpt lat="65.29676" lon="21.41332">
        <ele>31.372241</ele>
        <time>2020-09-27T08:05:59.847Z</time>
      </trkpt>
      <trkpt lat="65.29667" lon="21.41334">
        <ele>31.785873</ele>
        <time>2020-09-27T08:06:01.844Z</time>
      </trkpt>
      <trkpt lat="65.29657" lon="21.41335">
        <ele>32.202213</ele>
        <time>2020-09-27T08:06:03.849Z</time>
      </trkpt>
      <trkpt lat="65.29648" lon="21.41336">
        <ele>32.605409</ele>
        <time>2020-09-27T08:06:05.833Z</time>
      </trkpt>
      <trkpt lat="65.29638" lon="21.41338">
        <ele>33.0099</ele>
        <time>2020-09-27T08:06:07.858Z</time>
      </trkpt>
      <trkpt lat="65.29625" lon="21.41337">
        <ele>33.57319</ele>
        <time>2020-09-27T08:06:10.841Z</time>
      </trkpt>
      <trkpt lat="65.29612" lon="21.41336">
        <ele>34.132243</ele>
        <time>2020-09-27T08:06:13.831Z</time>
      </trkpt>
      <trkpt lat="65.296" lon="21.41337">
        <ele>34.6868</ele>
        <time>2020-09-27T08:06:16.856Z</time>
      </trkpt>
      <trkpt lat="65.29587" lon="21.4134">
        <ele>35.252225</ele>
        <time>2020-09-27T08:06:19.826Z</time>
      </trkpt>
      <trkpt lat="65.29577" lon="21.41342">
        <ele>35.65353</ele>
        <time>2020-09-27T08:06:21.827Z</time>
      </trkpt>
      <trkpt lat="65.29564" lon="21.41344">
        <ele>36.230495</ele>
        <time>2020-09-27T08:06:24.838Z</time>
      </trkpt>
      <trkpt lat="65.29551" lon="21.41344">
        <ele>36.811015</ele>
        <time>2020-09-27T08:06:27.846Z</time>
      </trkpt>
      <trkpt lat="65.29541" lon="21.41345">
        <ele>37.218701</ele>
        <time>2020-09-27T08:06:29.855Z</time>
      </trkpt>
      <trkpt lat="65.29528" lon="21.41345">
        <ele>37.732863</ele>
        <time>2020-09-27T08:06:32.826Z</time>
      </trkpt>
      <trkpt lat="65.29519" lon="21.41344">
        <ele>37.833953</ele>
        <time>2020-09-27T08:06:34.868Z</time>
      </trkpt>
      <trkpt lat="65.29509" lon="21.41345">
        <ele>37.942629</ele>
        <time>2020-09-27T08:06:36.829Z</time>
      </trkpt>
      <trkpt lat="65.29499" lon="21.41345">
        <ele>38.052433</ele>
        <time>2020-09-27T08:06:38.830Z</time>
      </trkpt>
      <trkpt lat="65.29489" lon="21.41347">
        <ele>38.159149</ele>
        <time>2020-09-27T08:06:40.871Z</time>
      </trkpt>
      <trkpt lat="65.2948" lon="21.41347">
        <ele>38.261317</ele>
        <time>2020-09-27T08:06:42.853Z</time>
      </trkpt>
      <trkpt lat="65.2947" lon="21.41347">
        <ele>38.362391</ele>
        <time>2020-09-27T08:06:44.859Z</time>
      </trkpt>
      <trkpt lat="65.29461" lon="21.41349">
        <ele>38.467001</ele>
        <time>2020-09-27T08:06:46.872Z</time>
      </trkpt>
      <trkpt lat="65.29451" lon="21.4135">
        <ele>38.571493</ele>
        <time>2020-09-27T08:06:48.844Z</time>
      </trkpt>
      <trkpt lat="65.29442" lon="21.41352">
        <ele>38.67273</ele>
        <time>2020-09-27T08:06:50.837Z</time>
      </trkpt>
      <trkpt lat="65.29432" lon="21.41354">
        <ele>38.777411</ele>
        <time>2020-09-27T08:06:52.839Z</time>
      </trkpt>
      <trkpt lat="65.29423" lon="21.41356">
        <ele>38.878195</ele>
        <time>2020-09-27T08:06:54.836Z</time>
      </trkpt>
      <trkpt lat="65.2941" lon="21.41358">
        <ele>39.016355</ele>
        <time>2020-09-27T08:06:57.862Z</time>
      </trkpt>
      <trkpt lat="65.29398" lon="21.41358">
        <ele>39.151135</ele>
        <time>2020-09-27T08:07:00.827Z</time>
      </trkpt>
      <trkpt lat="65.29385" lon="21.41361">
        <ele>39.286292</ele>
        <time>2020-09-27T08:07:03.828Z</time>
      </trkpt>
      <trkpt lat="65.29374" lon="21.41362">
        <ele>39.41352</ele>
        <time>2020-09-27T08:07:06.835Z</time>
      </trkpt>
      <trkpt lat="65.29363" lon="21.41362">
        <ele>39.531972</ele>
        <time>2020-09-27T08:07:09.839Z</time>
      </trkpt>
      <trkpt lat="65.29352" lon="21.41363">
        <ele>39.647393</ele>
        <time>2020-09-27T08:07:12.835Z</time>
      </trkpt>
      <trkpt lat="65.29342" lon="21.41364">
        <ele>39.569036</ele>
        <time>2020-09-27T08:07:15.855Z</time>
      </trkpt>
      <trkpt lat="65.29329" lon="21.41363">
        <ele>39.427504</ele>
        <time>2020-09-27T08:07:18.835Z</time>
      </trkpt>
      <trkpt lat="65.29317" lon="21.41363">
        <ele>39.284882</ele>
        <time>2020-09-27T08:07:21.842Z</time>
      </trkpt>
      <trkpt lat="65.29304" lon="21.41364">
        <ele>39.137545</ele>
        <time>2020-09-27T08:07:24.858Z</time>
      </trkpt>
      <trkpt lat="65.29291" lon="21.41365">
        <ele>38.989212</ele>
        <time>2020-09-27T08:07:27.828Z</time>
      </trkpt>
      <trkpt lat="65.29278" lon="21.41367">
        <ele>38.847343</ele>
        <time>2020-09-27T08:07:30.837Z</time>
      </trkpt>
      <trkpt lat="65.29265" lon="21.41368">
        <ele>38.695425</ele>
        <time>2020-09-27T08:07:33.836Z</time>
      </trkpt>
      <trkpt lat="65.29256" lon="21.4137">
        <ele>38.59255</ele>
        <time>2020-09-27T08:07:35.849Z</time>
      </trkpt>
      <trkpt lat="65.29247" lon="21.4137">
        <ele>38.486413</ele>
        <time>2020-09-27T08:07:37.861Z</time>
      </trkpt>
      <trkpt lat="65.29238" lon="21.41369">
        <ele>38.382515</ele>
        <time>2020-09-27T08:07:39.820Z</time>
      </trkpt>
      <trkpt lat="65.29229" lon="21.41368">
        <ele>38.279717</ele>
        <time>2020-09-27T08:07:41.870Z</time>
      </trkpt>
      <trkpt lat="65.29216" lon="21.41369">
        <ele>38.137015</ele>
        <time>2020-09-27T08:07:44.844Z</time>
      </trkpt>
      <trkpt lat="65.29207" lon="21.41371">
        <ele>38.032871</ele>
        <time>2020-09-27T08:07:46.834Z</time>
      </trkpt>
      <trkpt lat="65.29198" lon="21.4137">
        <ele>37.925534</ele>
        <time>2020-09-27T08:07:48.822Z</time>
      </trkpt>
      <trkpt lat="65.29188" lon="21.41366">
        <ele>37.811678</ele>
        <time>2020-09-27T08:07:50.842Z</time>
      </trkpt>
      <trkpt lat="65.29178" lon="21.41354">
        <ele>37.689983</ele>
        <time>2020-09-27T08:07:52.835Z</time>
      </trkpt>
      <trkpt lat="65.29169" lon="21.41345">
        <ele>37.472383</ele>
        <time>2020-09-27T08:07:54.840Z</time>
      </trkpt>
      <trkpt lat="65.29158" lon="21.41344">
        <ele>37.072703</ele>
        <time>2020-09-27T08:07:56.829Z</time>
      </trkpt>
      <trkpt lat="65.29147" lon="21.41345">
        <ele>36.662214</ele>
        <time>2020-09-27T08:07:58.834Z</time>
      </trkpt>
      <trkpt lat="65.29136" lon="21.41346">
        <ele>36.247876</ele>
        <time>2020-09-27T08:08:00.830Z</time>
      </trkpt>
      <trkpt lat="65.29124" lon="21.41347">
        <ele>35.834082</ele>
        <time>2020-09-27T08:08:02.866Z</time>
      </trkpt>
      <trkpt lat="65.29113" lon="21.41349">
        <ele>35.404716</ele>
        <time>2020-09-27T08:08:04.831Z</time>
      </trkpt>
      <trkpt lat="65.29101" lon="21.4135">
        <ele>34.983295</ele>
        <time>2020-09-27T08:08:06.831Z</time>
      </trkpt>
      <trkpt lat="65.2909" lon="21.4135">
        <ele>34.551092</ele>
        <time>2020-09-27T08:08:08.839Z</time>
      </trkpt>
      <trkpt lat="65.29077" lon="21.41351">
        <ele>34.07794</ele>
        <time>2020-09-27T08:08:10.829Z</time>
      </trkpt>
      <trkpt lat="65.29064" lon="21.41352">
        <ele>33.616221</ele>
        <time>2020-09-27T08:08:12.829Z</time>
      </trkpt>
      <trkpt lat="65.29053" lon="21.41352">
        <ele>33.176607</ele>
        <time>2020-09-27T08:08:14.870Z</time>
      </trkpt>
      <trkpt lat="65.2904" lon="21.41353">
        <ele>32.725715</ele>
        <time>2020-09-27T08:08:16.837Z</time>
      </trkpt>
      <trkpt lat="65.29028" lon="21.41355">
        <ele>32.278182</ele>
        <time>2020-09-27T08:08:18.859Z</time>
      </trkpt>
      <trkpt lat="65.29016" lon="21.41356">
        <ele>31.830566</ele>
        <time>2020-09-27T08:08:20.843Z</time>
      </trkpt>
      <trkpt lat="65.29004" lon="21.41357">
        <ele>31.38331</ele>
        <time>2020-09-27T08:08:22.841Z</time>
      </trkpt>
      <trkpt lat="65.28992" lon="21.41359">
        <ele>30.971829</ele>
        <time>2020-09-27T08:08:24.857Z</time>
      </trkpt>
      <trkpt lat="65.28981" lon="21.4136">
        <ele>30.962744</ele>
        <time>2020-09-27T08:08:26.841Z</time>
      </trkpt>
      <trkpt lat="65.2897" lon="21.41361">
        <ele>30.953743</ele>
        <time>2020-09-27T08:08:28.824Z</time>
      </trkpt>
      <trkpt lat="65.28958" lon="21.41361">
        <ele>30.944261</ele>
        <time>2020-09-27T08:08:30.828Z</time>
      </trkpt>
      <trkpt lat="65.28946" lon="21.41361">
        <ele>30.934697</ele>
        <time>2020-09-27T08:08:32.843Z</time>
      </trkpt>
      <trkpt lat="65.28935" lon="21.41359">
        <ele>30.925118</ele>
        <time>2020-09-27T08:08:34.835Z</time>
      </trkpt>
      <trkpt lat="65.28923" lon="21.41355">
        <ele>30.915706</ele>
        <time>2020-09-27T08:08:36.849Z</time>
      </trkpt>
      <trkpt lat="65.28912" lon="21.41349">
        <ele>30.906698</ele>
        <time>2020-09-27T08:08:38.851Z</time>
      </trkpt>
      <trkpt lat="65.28901" lon="21.4134">
        <ele>30.897419</ele>
        <time>2020-09-27T08:08:40.880Z</time>
      </trkpt>
      <trkpt lat="65.28891" lon="21.41332">
        <ele>30.888436</ele>
        <time>2020-09-27T08:08:42.832Z</time>
      </trkpt>
      <trkpt lat="65.28881" lon="21.41324">
        <ele>30.879629</ele>
        <time>2020-09-27T08:08:44.831Z</time>
      </trkpt>
      <trkpt lat="65.2887" lon="21.41314">
        <ele>30.870684</ele>
        <time>2020-09-27T08:08:46.828Z</time>
      </trkpt>
      <trkpt lat="65.28862" lon="21.41307">
        <ele>30.863345</ele>
        <time>2020-09-27T08:08:48.840Z</time>
      </trkpt>
      <trkpt lat="65.28849" lon="21.41299">
        <ele>30.852755</ele>
        <time>2020-09-27T08:08:51.846Z</time>
      </trkpt>
      <trkpt lat="65.2884" lon="21.41297">
        <ele>30.84528</ele>
        <time>2020-09-27T08:08:53.863Z</time>
      </trkpt>
      <trkpt lat="65.2883" lon="21.41299">
        <ele>30.837477</ele>
        <time>2020-09-27T08:08:55.839Z</time>
      </trkpt>
      <trkpt lat="65.28821" lon="21.41301">
        <ele>30.829901</ele>
        <time>2020-09-27T08:08:57.845Z</time>
      </trkpt>
      <trkpt lat="65.28809" lon="21.41308">
        <ele>30.868143</ele>
        <time>2020-09-27T08:09:00.853Z</time>
      </trkpt>
      <trkpt lat="65.288" lon="21.41315">
        <ele>30.916784</ele>
        <time>2020-09-27T08:09:03.827Z</time>
      </trkpt>
      <trkpt lat="65.28789" lon="21.41306">
        <ele>30.975309</ele>
        <time>2020-09-27T08:09:07.905Z</time>
      </trkpt>
      <trkpt lat="65.28779" lon="21.41297">
        <ele>31.029192</ele>
        <time>2020-09-27T08:09:10.838Z</time>
      </trkpt>
      <trkpt lat="65.28769" lon="21.41287">
        <ele>31.083395</ele>
        <time>2020-09-27T08:09:13.876Z</time>
      </trkpt>
      <trkpt lat="65.2876" lon="21.41277">
        <ele>31.135996</ele>
        <time>2020-09-27T08:09:16.816Z</time>
      </trkpt>
      <trkpt lat="65.2875" lon="21.41267">
        <ele>31.188511</ele>
        <time>2020-09-27T08:09:19.862Z</time>
      </trkpt>
      <trkpt lat="65.28741" lon="21.41256">
        <ele>31.240641</ele>
        <time>2020-09-27T08:09:22.861Z</time>
      </trkpt>
      <trkpt lat="65.28731" lon="21.41244">
        <ele>31.297062</ele>
        <time>2020-09-27T08:09:25.842Z</time>
      </trkpt>
      <trkpt lat="65.28721" lon="21.41232">
        <ele>31.354217</ele>
        <time>2020-09-27T08:09:28.856Z</time>
      </trkpt>
      <trkpt lat="65.2871" lon="21.41219">
        <ele>31.412656</ele>
        <time>2020-09-27T08:09:31.865Z</time>
      </trkpt>
      <trkpt lat="65.287" lon="21.41204">
        <ele>31.472621</ele>
        <time>2020-09-27T08:09:34.826Z</time>
      </trkpt>
      <trkpt lat="65.28691" lon="21.4119">
        <ele>31.527701</ele>
        <time>2020-09-27T08:09:37.822Z</time>
      </trkpt>
      <trkpt lat="65.28682" lon="21.41175">
        <ele>31.586628</ele>
        <time>2020-09-27T08:09:40.858Z</time>
      </trkpt>
      <trkpt lat="65.28671" lon="21.41159">
        <ele>31.648244</ele>
        <time>2020-09-27T08:09:43.841Z</time>
      </trkpt>
      <trkpt lat="65.28661" lon="21.41142">
        <ele>31.71194</ele>
        <time>2020-09-27T08:09:46.844Z</time>
      </trkpt>
      <trkpt lat="65.2865" lon="21.41125">
        <ele>31.788978</ele>
        <time>2020-09-27T08:09:49.819Z</time>
      </trkpt>
      <trkpt lat="65.2864" lon="21.41111">
        <ele>31.867607</ele>
        <time>2020-09-27T08:09:52.832Z</time>
      </trkpt>
      <trkpt lat="65.28629" lon="21.41094">
        <ele>31.950424</ele>
        <time>2020-09-27T08:09:55.831Z</time>
      </trkpt>
      <trkpt lat="65.28618" lon="21.41078">
        <ele>32.033531</ele>
        <time>2020-09-27T08:09:58.827Z</time>
      </trkpt>
      <trkpt lat="65.28607" lon="21.41061">
        <ele>32.116897</ele>
        <time>2020-09-27T08:10:01.826Z</time>
      </trkpt>
      <trkpt lat="65.28597" lon="21.41045">
        <ele>32.196536</ele>
        <time>2020-09-27T08:10:04.825Z</time>
      </trkpt>
      <trkpt lat="65.28587" lon="21.4103">
        <ele>32.271685</ele>
        <time>2020-09-27T08:10:07.839Z</time>
      </trkpt>
      <trkpt lat="65.28578" lon="21.41014">
        <ele>32.347956</ele>
        <time>2020-09-27T08:10:10.836Z</time>
      </trkpt>
      <trkpt lat="65.28568" lon="21.40997">
        <ele>32.426572</ele>
        <time>2020-09-27T08:10:13.866Z</time>
      </trkpt>
      <trkpt lat="65.28557" lon="21.40979">
        <ele>32.511617</ele>
        <time>2020-09-27T08:10:16.858Z</time>
      </trkpt>
      <trkpt lat="65.2855" lon="21.40966">
        <ele>32.570259</ele>
        <time>2020-09-27T08:10:18.836Z</time>
      </trkpt>
      <trkpt lat="65.28543" lon="21.40952">
        <ele>32.628903</ele>
        <time>2020-09-27T08:10:20.833Z</time>
      </trkpt>
      <trkpt lat="65.28533" lon="21.40933">
        <ele>32.713738</ele>
        <time>2020-09-27T08:10:23.844Z</time>
      </trkpt>
      <trkpt lat="65.28523" lon="21.40916">
        <ele>32.790537</ele>
        <time>2020-09-27T08:10:26.868Z</time>
      </trkpt>
      <trkpt lat="65.28514" lon="21.40901">
        <ele>32.865631</ele>
        <time>2020-09-27T08:10:29.867Z</time>
      </trkpt>
      <trkpt lat="65.28503" lon="21.40884">
        <ele>32.948902</ele>
        <time>2020-09-27T08:10:32.837Z</time>
      </trkpt>
      <trkpt lat="65.28493" lon="21.40868">
        <ele>33.038344</ele>
        <time>2020-09-27T08:10:35.877Z</time>
      </trkpt>
      <trkpt lat="65.28482" lon="21.40853">
        <ele>33.127892</ele>
        <time>2020-09-27T08:10:38.839Z</time>
      </trkpt>
      <trkpt lat="65.2847" lon="21.4084">
        <ele>33.217184</ele>
        <time>2020-09-27T08:10:41.841Z</time>
      </trkpt>
      <trkpt lat="65.2846" lon="21.40824">
        <ele>33.308516</ele>
        <time>2020-09-27T08:10:44.838Z</time>
      </trkpt>
      <trkpt lat="65.28449" lon="21.40809">
        <ele>33.396328</ele>
        <time>2020-09-27T08:10:47.829Z</time>
      </trkpt>
      <trkpt lat="65.28439" lon="21.40789">
        <ele>33.486944</ele>
        <time>2020-09-27T08:10:50.850Z</time>
      </trkpt>
      <trkpt lat="65.28429" lon="21.40771">
        <ele>33.573682</ele>
        <time>2020-09-27T08:10:53.838Z</time>
      </trkpt>
      <trkpt lat="65.2842" lon="21.40752">
        <ele>33.659137</ele>
        <time>2020-09-27T08:10:56.828Z</time>
      </trkpt>
      <trkpt lat="65.2841" lon="21.40736">
        <ele>33.747407</ele>
        <time>2020-09-27T08:10:59.865Z</time>
      </trkpt>
      <trkpt lat="65.28398" lon="21.4072">
        <ele>33.841055</ele>
        <time>2020-09-27T08:11:02.842Z</time>
      </trkpt>
      <trkpt lat="65.28387" lon="21.40705">
        <ele>33.932821</ele>
        <time>2020-09-27T08:11:05.842Z</time>
      </trkpt>
      <trkpt lat="65.28377" lon="21.40689">
        <ele>34.018107</ele>
        <time>2020-09-27T08:11:08.844Z</time>
      </trkpt>
      <trkpt lat="65.28366" lon="21.40674">
        <ele>34.111099</ele>
        <time>2020-09-27T08:11:11.846Z</time>
      </trkpt>
      <trkpt lat="65.28355" lon="21.40656">
        <ele>34.201639</ele>
        <time>2020-09-27T08:11:14.842Z</time>
      </trkpt>
      <trkpt lat="65.28345" lon="21.40638">
        <ele>34.289309</ele>
        <time>2020-09-27T08:11:17.859Z</time>
      </trkpt>
      <trkpt lat="65.28334" lon="21.40621">
        <ele>34.376867</ele>
        <time>2020-09-27T08:11:20.838Z</time>
      </trkpt>
      <trkpt lat="65.28323" lon="21.40605">
        <ele>34.464912</ele>
        <time>2020-09-27T08:11:23.871Z</time>
      </trkpt>
      <trkpt lat="65.28312" lon="21.40588">
        <ele>34.555189</ele>
        <time>2020-09-27T08:11:26.867Z</time>
      </trkpt>
      <trkpt lat="65.28301" lon="21.40571">
        <ele>34.643888</ele>
        <time>2020-09-27T08:11:29.838Z</time>
      </trkpt>
      <trkpt lat="65.28291" lon="21.40554">
        <ele>34.730391</ele>
        <time>2020-09-27T08:11:32.857Z</time>
      </trkpt>
      <trkpt lat="65.28281" lon="21.4054">
        <ele>34.810171</ele>
        <time>2020-09-27T08:11:35.851Z</time>
      </trkpt>
      <trkpt lat="65.28272" lon="21.40525">
        <ele>34.885667</ele>
        <time>2020-09-27T08:11:38.836Z</time>
      </trkpt>
      <trkpt lat="65.28262" lon="21.40508">
        <ele>34.968761</ele>
        <time>2020-09-27T08:11:41.855Z</time>
      </trkpt>
      <trkpt lat="65.28251" lon="21.40494">
        <ele>35.055221</ele>
        <time>2020-09-27T08:11:44.832Z</time>
      </trkpt>
      <trkpt lat="65.28241" lon="21.40479">
        <ele>35.137801</ele>
        <time>2020-09-27T08:11:47.847Z</time>
      </trkpt>
      <trkpt lat="65.28232" lon="21.40463">
        <ele>35.214872</ele>
        <time>2020-09-27T08:11:50.849Z</time>
      </trkpt>
      <trkpt lat="65.28223" lon="21.40449">
        <ele>35.288501</ele>
        <time>2020-09-27T08:11:53.837Z</time>
      </trkpt>
      <trkpt lat="65.28214" lon="21.40436">
        <ele>35.362086</ele>
        <time>2020-09-27T08:11:56.828Z</time>
      </trkpt>
      <trkpt lat="65.28205" lon="21.40421">
        <ele>35.509368</ele>
        <time>2020-09-27T08:11:59.843Z</time>
      </trkpt>
      <trkpt lat="65.28196" lon="21.40409">
        <ele>35.841529</ele>
        <time>2020-09-27T08:12:02.840Z</time>
      </trkpt>
      <trkpt lat="65.28184" lon="21.40391">
        <ele>36.267878</ele>
        <time>2020-09-27T08:12:06.866Z</time>
      </trkpt>
      <trkpt lat="65.28176" lon="21.40378">
        <ele>36.572635</ele>
        <time>2020-09-27T08:12:10.016Z</time>
      </trkpt>
      <trkpt lat="65.28168" lon="21.40365">
        <ele>36.877954</ele>
        <time>2020-09-27T08:12:12.831Z</time>
      </trkpt>
      <trkpt lat="65.2816" lon="21.4035">
        <ele>37.188249</ele>
        <time>2020-09-27T08:12:15.829Z</time>
      </trkpt>
      <trkpt lat="65.28151" lon="21.40336">
        <ele>37.504168</ele>
        <time>2020-09-27T08:12:18.839Z</time>
      </trkpt>
      <trkpt lat="65.28143" lon="21.40322">
        <ele>37.821563</ele>
        <time>2020-09-27T08:12:21.831Z</time>
      </trkpt>
      <trkpt lat="65.28135" lon="21.40307">
        <ele>38.135116</ele>
        <time>2020-09-27T08:12:24.843Z</time>
      </trkpt>
      <trkpt lat="65.28127" lon="21.40291">
        <ele>38.45271</ele>
        <time>2020-09-27T08:12:27.865Z</time>
      </trkpt>
      <trkpt lat="65.28119" lon="21.40276">
        <ele>38.767141</ele>
        <time>2020-09-27T08:12:30.850Z</time>
      </trkpt>
      <trkpt lat="65.28112" lon="21.40261">
        <ele>39.060245</ele>
        <time>2020-09-27T08:12:33.847Z</time>
      </trkpt>
      <trkpt lat="65.28105" lon="21.40245">
        <ele>39.368962</ele>
        <time>2020-09-27T08:12:36.848Z</time>
      </trkpt>
      <trkpt lat="65.28097" lon="21.40232">
        <ele>39.662396</ele>
        <time>2020-09-27T08:12:39.895Z</time>
      </trkpt>
      <trkpt lat="65.28088" lon="21.40215">
        <ele>40.030214</ele>
        <time>2020-09-27T08:12:43.844Z</time>
      </trkpt>
      <trkpt lat="65.2808" lon="21.40198">
        <ele>40.355962</ele>
        <time>2020-09-27T08:12:46.836Z</time>
      </trkpt>
      <trkpt lat="65.28072" lon="21.40181">
        <ele>40.678091</ele>
        <time>2020-09-27T08:12:49.839Z</time>
      </trkpt>
      <trkpt lat="65.28064" lon="21.40161">
        <ele>40.958524</ele>
        <time>2020-09-27T08:12:52.838Z</time>
      </trkpt>
      <trkpt lat="65.28055" lon="21.40142">
        <ele>40.775853</ele>
        <time>2020-09-27T08:12:55.833Z</time>
      </trkpt>
      <trkpt lat="65.28046" lon="21.40121">
        <ele>40.586309</ele>
        <time>2020-09-27T08:12:58.839Z</time>
      </trkpt>
      <trkpt lat="65.28038" lon="21.40101">
        <ele>40.402669</ele>
        <time>2020-09-27T08:13:01.848Z</time>
      </trkpt>
      <trkpt lat="65.28029" lon="21.40081">
        <ele>40.215563</ele>
        <time>2020-09-27T08:13:04.844Z</time>
      </trkpt>
      <trkpt lat="65.2802" lon="21.40058">
        <ele>40.01554</ele>
        <time>2020-09-27T08:13:07.843Z</time>
      </trkpt>
      <trkpt lat="65.2801" lon="21.40036">
        <ele>39.811347</ele>
        <time>2020-09-27T08:13:10.830Z</time>
      </trkpt>
      <trkpt lat="65.28004" lon="21.4002">
        <ele>39.671312</ele>
        <time>2020-09-27T08:13:12.848Z</time>
      </trkpt>
      <trkpt lat="65.27998" lon="21.40004">
        <ele>39.528939</ele>
        <time>2020-09-27T08:13:14.841Z</time>
      </trkpt>
      <trkpt lat="65.27992" lon="21.39987">
        <ele>39.386173</ele>
        <time>2020-09-27T08:13:16.836Z</time>
      </trkpt>
      <trkpt lat="65.27985" lon="21.39971">
        <ele>39.239833</ele>
        <time>2020-09-27T08:13:18.869Z</time>
      </trkpt>
      <trkpt lat="65.27979" lon="21.39953">
        <ele>39.094189</ele>
        <time>2020-09-27T08:13:20.831Z</time>
      </trkpt>
      <trkpt lat="65.27972" lon="21.39935">
        <ele>38.937717</ele>
        <time>2020-09-27T08:13:22.840Z</time>
      </trkpt>
      <trkpt lat="65.27966" lon="21.39916">
        <ele>38.781721</ele>
        <time>2020-09-27T08:13:24.862Z</time>
      </trkpt>
      <trkpt lat="65.27958" lon="21.39896">
        <ele>38.609404</ele>
        <time>2020-09-27T08:13:26.842Z</time>
      </trkpt>
      <trkpt lat="65.27951" lon="21.39875">
        <ele>38.433248</ele>
        <time>2020-09-27T08:13:28.840Z</time>
      </trkpt>
      <trkpt lat="65.27944" lon="21.39853">
        <ele>38.259404</ele>
        <time>2020-09-27T08:13:30.828Z</time>
      </trkpt>
      <trkpt lat="65.27938" lon="21.3983">
        <ele>38.032608</ele>
        <time>2020-09-27T08:13:32.835Z</time>
      </trkpt>
      <trkpt lat="65.27931" lon="21.39807">
        <ele>37.788265</ele>
        <time>2020-09-27T08:13:34.860Z</time>
      </trkpt>
      <trkpt lat="65.27924" lon="21.39783">
        <ele>37.53845</ele>
        <time>2020-09-27T08:13:36.839Z</time>
      </trkpt>
      <trkpt lat="65.27917" lon="21.39757">
        <ele>37.27484</ele>
        <time>2020-09-27T08:13:38.855Z</time>
      </trkpt>
      <trkpt lat="65.2791" lon="21.3973">
        <ele>37.004495</ele>
        <time>2020-09-27T08:13:40.880Z</time>
      </trkpt>
      <trkpt lat="65.27904" lon="21.39701">
        <ele>36.721929</ele>
        <time>2020-09-27T08:13:42.912Z</time>
      </trkpt>
      <trkpt lat="65.27897" lon="21.39672">
        <ele>36.436629</ele>
        <time>2020-09-27T08:13:44.864Z</time>
      </trkpt>
      <trkpt lat="65.2789" lon="21.39645">
        <ele>36.165722</ele>
        <time>2020-09-27T08:13:46.846Z</time>
      </trkpt>
      <trkpt lat="65.27883" lon="21.39618">
        <ele>35.903529</ele>
        <time>2020-09-27T08:13:48.843Z</time>
      </trkpt>
      <trkpt lat="65.27878" lon="21.39593">
        <ele>35.653802</ele>
        <time>2020-09-27T08:13:50.867Z</time>
      </trkpt>
      <trkpt lat="65.27872" lon="21.39567">
        <ele>35.407648</ele>
        <time>2020-09-27T08:13:52.847Z</time>
      </trkpt>
      <trkpt lat="65.27867" lon="21.39543">
        <ele>35.176877</ele>
        <time>2020-09-27T08:13:54.850Z</time>
      </trkpt>
      <trkpt lat="65.27862" lon="21.39521">
        <ele>34.958358</ele>
        <time>2020-09-27T08:13:56.885Z</time>
      </trkpt>
      <trkpt lat="65.27857" lon="21.39498">
        <ele>34.74345</ele>
        <time>2020-09-27T08:13:58.849Z</time>
      </trkpt>
      <trkpt lat="65.27854" lon="21.39476">
        <ele>34.555921</ele>
        <time>2020-09-27T08:14:00.856Z</time>
      </trkpt>
      <trkpt lat="65.2785" lon="21.39455">
        <ele>34.750587</ele>
        <time>2020-09-27T08:14:02.853Z</time>
      </trkpt>
      <trkpt lat="65.27845" lon="21.39434">
        <ele>34.944561</ele>
        <time>2020-09-27T08:14:04.847Z</time>
      </trkpt>
      <trkpt lat="65.27841" lon="21.39412">
        <ele>35.140039</ele>
        <time>2020-09-27T08:14:06.899Z</time>
      </trkpt>
      <trkpt lat="65.27837" lon="21.3939">
        <ele>35.337096</ele>
        <time>2020-09-27T08:14:08.857Z</time>
      </trkpt>
      <trkpt lat="65.27833" lon="21.3937">
        <ele>35.526424</ele>
        <time>2020-09-27T08:14:10.848Z</time>
      </trkpt>
      <trkpt lat="65.2783" lon="21.3935">
        <ele>35.70579</ele>
        <time>2020-09-27T08:14:12.844Z</time>
      </trkpt>
      <trkpt lat="65.27826" lon="21.39322">
        <ele>35.949651</ele>
        <time>2020-09-27T08:14:15.873Z</time>
      </trkpt>
      <trkpt lat="65.27821" lon="21.39294">
        <ele>36.196512</ele>
        <time>2020-09-27T08:14:18.853Z</time>
      </trkpt>
      <trkpt lat="65.27816" lon="21.39265">
        <ele>36.456859</ele>
        <time>2020-09-27T08:14:21.879Z</time>
      </trkpt>
      <trkpt lat="65.27812" lon="21.3924">
        <ele>36.679366</ele>
        <time>2020-09-27T08:14:24.848Z</time>
      </trkpt>
      <trkpt lat="65.27809" lon="21.39217">
        <ele>36.877535</ele>
        <time>2020-09-27T08:14:27.865Z</time>
      </trkpt>
      <trkpt lat="65.27806" lon="21.39193">
        <ele>37.088585</ele>
        <time>2020-09-27T08:14:30.896Z</time>
      </trkpt>
      <trkpt lat="65.27803" lon="21.39167">
        <ele>37.306195</ele>
        <time>2020-09-27T08:14:33.861Z</time>
      </trkpt>
      <trkpt lat="65.278" lon="21.39142">
        <ele>37.527017</ele>
        <time>2020-09-27T08:14:36.828Z</time>
      </trkpt>
      <trkpt lat="65.27797" lon="21.39116">
        <ele>37.744096</ele>
        <time>2020-09-27T08:14:39.840Z</time>
      </trkpt>
      <trkpt lat="65.27795" lon="21.39095">
        <ele>37.92997</ele>
        <time>2020-09-27T08:14:42.878Z</time>
      </trkpt>
      <trkpt lat="65.27792" lon="21.39072">
        <ele>38.111171</ele>
        <time>2020-09-27T08:14:45.866Z</time>
      </trkpt>
      <trkpt lat="65.2779" lon="21.39048">
        <ele>38.154338</ele>
        <time>2020-09-27T08:14:48.842Z</time>
      </trkpt>
      <trkpt lat="65.27789" lon="21.39027">
        <ele>38.193329</ele>
        <time>2020-09-27T08:14:51.851Z</time>
      </trkpt>
      <trkpt lat="65.27787" lon="21.39">
        <ele>38.242741</ele>
        <time>2020-09-27T08:14:55.862Z</time>
      </trkpt>
      <trkpt lat="65.27785" lon="21.38971">
        <ele>38.294891</ele>
        <time>2020-09-27T08:14:59.842Z</time>
      </trkpt>
      <trkpt lat="65.27783" lon="21.38949">
        <ele>38.335678</ele>
        <time>2020-09-27T08:15:02.867Z</time>
      </trkpt>
      <trkpt lat="65.27781" lon="21.38922">
        <ele>38.385008</ele>
        <time>2020-09-27T08:15:06.889Z</time>
      </trkpt>
      <trkpt lat="65.27777" lon="21.38896">
        <ele>38.435037</ele>
        <time>2020-09-27T08:15:10.860Z</time>
      </trkpt>
      <trkpt lat="65.27775" lon="21.38868">
        <ele>38.486839</ele>
        <time>2020-09-27T08:15:14.848Z</time>
      </trkpt>
      <trkpt lat="65.27773" lon="21.38845">
        <ele>38.528845</ele>
        <time>2020-09-27T08:15:17.881Z</time>
      </trkpt>
      <trkpt lat="65.27771" lon="21.38822">
        <ele>38.570861</ele>
        <time>2020-09-27T08:15:20.866Z</time>
      </trkpt>
      <trkpt lat="65.27769" lon="21.388">
        <ele>38.612338</ele>
        <time>2020-09-27T08:15:23.856Z</time>
      </trkpt>
      <trkpt lat="65.27767" lon="21.38778">
        <ele>38.65302</ele>
        <time>2020-09-27T08:15:26.836Z</time>
      </trkpt>
      <trkpt lat="65.27765" lon="21.38755">
        <ele>38.694589</ele>
        <time>2020-09-27T08:15:29.860Z</time>
      </trkpt>
      <trkpt lat="65.27762" lon="21.38732">
        <ele>38.73678</ele>
        <time>2020-09-27T08:15:32.839Z</time>
      </trkpt>
      <trkpt lat="65.27761" lon="21.38707">
        <ele>38.782629</ele>
        <time>2020-09-27T08:15:36.859Z</time>
      </trkpt>
      <trkpt lat="65.27758" lon="21.3868">
        <ele>38.832061</ele>
        <time>2020-09-27T08:15:40.854Z</time>
      </trkpt>
      <trkpt lat="65.27755" lon="21.38653">
        <ele>38.883104</ele>
        <time>2020-09-27T08:15:44.876Z</time>
      </trkpt>
      <trkpt lat="65.27753" lon="21.38626">
        <ele>39.439937</ele>
        <time>2020-09-27T08:15:48.866Z</time>
      </trkpt>
      <trkpt lat="65.27752" lon="21.38604">
        <ele>39.885755</ele>
        <time>2020-09-27T08:15:51.838Z</time>
      </trkpt>
      <trkpt lat="65.2775" lon="21.38582">
        <ele>40.315331</ele>
        <time>2020-09-27T08:15:54.862Z</time>
      </trkpt>
      <trkpt lat="65.27748" lon="21.38555">
        <ele>40.877925</ele>
        <time>2020-09-27T08:15:58.848Z</time>
      </trkpt>
      <trkpt lat="65.27745" lon="21.38529">
        <ele>41.408028</ele>
        <time>2020-09-27T08:16:02.868Z</time>
      </trkpt>
      <trkpt lat="65.27742" lon="21.38503">
        <ele>41.95221</ele>
        <time>2020-09-27T08:16:06.851Z</time>
      </trkpt>
      <trkpt lat="65.2774" lon="21.38482">
        <ele>42.378611</ele>
        <time>2020-09-27T08:16:09.882Z</time>
      </trkpt>
      <trkpt lat="65.27737" lon="21.3846">
        <ele>42.824613</ele>
        <time>2020-09-27T08:16:12.858Z</time>
      </trkpt>
      <trkpt lat="65.27735" lon="21.38437">
        <ele>43.285981</ele>
        <time>2020-09-27T08:16:15.857Z</time>
      </trkpt>
      <trkpt lat="65.27733" lon="21.38415">
        <ele>43.743876</ele>
        <time>2020-09-27T08:16:18.844Z</time>
      </trkpt>
      <trkpt lat="65.2773" lon="21.38394">
        <ele>44.190329</ele>
        <time>2020-09-27T08:16:21.844Z</time>
      </trkpt>
      <trkpt lat="65.27727" lon="21.38371">
        <ele>44.670516</ele>
        <time>2020-09-27T08:16:24.862Z</time>
      </trkpt>
      <trkpt lat="65.27724" lon="21.38348">
        <ele>45.150747</ele>
        <time>2020-09-27T08:16:27.864Z</time>
      </trkpt>
      <trkpt lat="65.27721" lon="21.38324">
        <ele>45.638108</ele>
        <time>2020-09-27T08:16:30.866Z</time>
      </trkpt>
      <trkpt lat="65.27718" lon="21.38301">
        <ele>46.134381</ele>
        <time>2020-09-27T08:16:33.876Z</time>
      </trkpt>
      <trkpt lat="65.27715" lon="21.38275">
        <ele>46.665705</ele>
        <time>2020-09-27T08:16:36.850Z</time>
      </trkpt>
      <trkpt lat="65.27712" lon="21.38247">
        <ele>47.235165</ele>
        <time>2020-09-27T08:16:39.848Z</time>
      </trkpt>
      <trkpt lat="65.27709" lon="21.38219">
        <ele>47.306978</ele>
        <time>2020-09-27T08:16:42.865Z</time>
      </trkpt>
      <trkpt lat="65.27706" lon="21.3819">
        <ele>47.098653</ele>
        <time>2020-09-27T08:16:45.848Z</time>
      </trkpt>
      <trkpt lat="65.27703" lon="21.38168">
        <ele>46.947612</ele>
        <time>2020-09-27T08:16:47.859Z</time>
      </trkpt>
      <trkpt lat="65.277" lon="21.38148">
        <ele>46.796842</ele>
        <time>2020-09-27T08:16:49.858Z</time>
      </trkpt>
      <trkpt lat="65.27696" lon="21.38124">
        <ele>46.62574</ele>
        <time>2020-09-27T08:16:51.853Z</time>
      </trkpt>
      <trkpt lat="65.27693" lon="21.38102">
        <ele>46.463468</ele>
        <time>2020-09-27T08:16:53.837Z</time>
      </trkpt>
      <trkpt lat="65.2769" lon="21.38079">
        <ele>46.302121</ele>
        <time>2020-09-27T08:16:55.856Z</time>
      </trkpt>
      <trkpt lat="65.27687" lon="21.38056">
        <ele>46.140015</ele>
        <time>2020-09-27T08:16:57.867Z</time>
      </trkpt>
      <trkpt lat="65.27684" lon="21.38033">
        <ele>45.971478</ele>
        <time>2020-09-27T08:16:59.851Z</time>
      </trkpt>
      <trkpt lat="65.2768" lon="21.38009">
        <ele>45.793296</ele>
        <time>2020-09-27T08:17:01.846Z</time>
      </trkpt>
      <trkpt lat="65.27677" lon="21.37983">
        <ele>45.611236</ele>
        <time>2020-09-27T08:17:03.859Z</time>
      </trkpt>
      <trkpt lat="65.27672" lon="21.37958">
        <ele>45.422645</ele>
        <time>2020-09-27T08:17:05.847Z</time>
      </trkpt>
      <trkpt lat="65.27668" lon="21.37932">
        <ele>45.231452</ele>
        <time>2020-09-27T08:17:07.849Z</time>
      </trkpt>
      <trkpt lat="65.27664" lon="21.37906">
        <ele>45.042051</ele>
        <time>2020-09-27T08:17:09.875Z</time>
      </trkpt>
      <trkpt lat="65.27659" lon="21.3788">
        <ele>44.847778</ele>
        <time>2020-09-27T08:17:11.843Z</time>
      </trkpt>
      <trkpt lat="65.27655" lon="21.37854">
        <ele>44.658376</ele>
        <time>2020-09-27T08:17:13.859Z</time>
      </trkpt>
      <trkpt lat="65.27652" lon="21.37829">
        <ele>44.487662</ele>
        <time>2020-09-27T08:17:15.841Z</time>
      </trkpt>
      <trkpt lat="65.27648" lon="21.37804">
        <ele>44.412156</ele>
        <time>2020-09-27T08:17:17.876Z</time>
      </trkpt>
      <trkpt lat="65.27644" lon="21.37778">
        <ele>44.331012</ele>
        <time>2020-09-27T08:17:19.838Z</time>
      </trkpt>
      <trkpt lat="65.2764" lon="21.37753">
        <ele>44.251518</ele>
        <time>2020-09-27T08:17:21.868Z</time>
      </trkpt>
      <trkpt lat="65.27635" lon="21.37727">
        <ele>44.168545</ele>
        <time>2020-09-27T08:17:23.895Z</time>
      </trkpt>
      <trkpt lat="65.27631" lon="21.37703">
        <ele>44.09363</ele>
        <time>2020-09-27T08:17:25.840Z</time>
      </trkpt>
      <trkpt lat="65.27627" lon="21.3768">
        <ele>44.020325</ele>
        <time>2020-09-27T08:17:27.882Z</time>
      </trkpt>
      <trkpt lat="65.27623" lon="21.37658">
        <ele>43.952906</ele>
        <time>2020-09-27T08:17:29.850Z</time>
      </trkpt>
      <trkpt lat="65.2762" lon="21.37636">
        <ele>43.88281</ele>
        <time>2020-09-27T08:17:31.837Z</time>
      </trkpt>
      <trkpt lat="65.27616" lon="21.37615">
        <ele>43.817292</ele>
        <time>2020-09-27T08:17:33.858Z</time>
      </trkpt>
      <trkpt lat="65.27613" lon="21.37594">
        <ele>43.753299</ele>
        <time>2020-09-27T08:17:35.861Z</time>
      </trkpt>
      <trkpt lat="65.27609" lon="21.37564">
        <ele>43.662049</ele>
        <time>2020-09-27T08:17:38.858Z</time>
      </trkpt>
      <trkpt lat="65.27604" lon="21.37536">
        <ele>43.573172</ele>
        <time>2020-09-27T08:17:41.869Z</time>
      </trkpt>
      <trkpt lat="65.276" lon="21.3751">
        <ele>43.492541</ele>
        <time>2020-09-27T08:17:44.876Z</time>
      </trkpt>
      <trkpt lat="65.27595" lon="21.37486">
        <ele>43.416282</ele>
        <time>2020-09-27T08:17:47.885Z</time>
      </trkpt>
      <trkpt lat="65.2759" lon="21.37464">
        <ele>43.343835</ele>
        <time>2020-09-27T08:17:50.919Z</time>
      </trkpt>
      <trkpt lat="65.27586" lon="21.37443">
        <ele>43.27334</ele>
        <time>2020-09-27T08:17:53.839Z</time>
      </trkpt>
      <trkpt lat="65.27582" lon="21.37422">
        <ele>43.495413</ele>
        <time>2020-09-27T08:17:56.836Z</time>
      </trkpt>
      <trkpt lat="65.27578" lon="21.37401">
        <ele>43.952758</ele>
        <time>2020-09-27T08:17:59.858Z</time>
      </trkpt>
      <trkpt lat="65.27575" lon="21.3738">
        <ele>44.389906</ele>
        <time>2020-09-27T08:18:02.857Z</time>
      </trkpt>
      <trkpt lat="65.27571" lon="21.37354">
        <ele>44.961253</ele>
        <time>2020-09-27T08:18:06.836Z</time>
      </trkpt>
      <trkpt lat="65.27566" lon="21.37329">
        <ele>45.505304</ele>
        <time>2020-09-27T08:18:10.886Z</time>
      </trkpt>
      <trkpt lat="65.27562" lon="21.37306">
        <ele>45.993881</ele>
        <time>2020-09-27T08:18:14.867Z</time>
      </trkpt>
      <trkpt lat="65.27558" lon="21.37282">
        <ele>46.49119</ele>
        <time>2020-09-27T08:18:18.848Z</time>
      </trkpt>
      <trkpt lat="65.27554" lon="21.37258">
        <ele>47.02388</ele>
        <time>2020-09-27T08:18:22.847Z</time>
      </trkpt>
      <trkpt lat="65.2755" lon="21.37234">
        <ele>47.538649</ele>
        <time>2020-09-27T08:18:26.841Z</time>
      </trkpt>
      <trkpt lat="65.27545" lon="21.37212">
        <ele>48.033154</ele>
        <time>2020-09-27T08:18:30.855Z</time>
      </trkpt>
      <trkpt lat="65.27541" lon="21.37188">
        <ele>48.53644</ele>
        <time>2020-09-27T08:18:34.849Z</time>
      </trkpt>
      <trkpt lat="65.27537" lon="21.37166">
        <ele>49.028722</ele>
        <time>2020-09-27T08:18:38.891Z</time>
      </trkpt>
      <trkpt lat="65.27534" lon="21.37143">
        <ele>49.503152</ele>
        <time>2020-09-27T08:18:42.838Z</time>
      </trkpt>
      <trkpt lat="65.2753" lon="21.37123">
        <ele>49.942339</ele>
        <time>2020-09-27T08:18:46.862Z</time>
      </trkpt>
      <trkpt lat="65.27525" lon="21.37101">
        <ele>50.436807</ele>
        <time>2020-09-27T08:18:50.845Z</time>
      </trkpt>
      <trkpt lat="65.2752" lon="21.37077">
        <ele>50.970314</ele>
        <time>2020-09-27T08:18:54.876Z</time>
      </trkpt>
      <trkpt lat="65.27515" lon="21.37052">
        <ele>51.531268</ele>
        <time>2020-09-27T08:18:58.889Z</time>
      </trkpt>
      <trkpt lat="65.27511" lon="21.37027">
        <ele>51.876569</ele>
        <time>2020-09-27T08:19:02.843Z</time>
      </trkpt>
      <trkpt lat="65.27507" lon="21.37005">
        <ele>52.018415</ele>
        <time>2020-09-27T08:19:06.860Z</time>
      </trkpt>
      <trkpt lat="65.27502" lon="21.36981">
        <ele>52.166286</ele>
        <time>2020-09-27T08:19:10.845Z</time>
      </trkpt>
      <trkpt lat="65.27498" lon="21.36957">
        <ele>52.319663</ele>
        <time>2020-09-27T08:19:14.889Z</time>
      </trkpt>
      <trkpt lat="65.27493" lon="21.36931">
        <ele>52.479386</ele>
        <time>2020-09-27T08:19:18.846Z</time>
      </trkpt>
      <trkpt lat="65.27487" lon="21.36906">
        <ele>52.642556</ele>
        <time>2020-09-27T08:19:22.844Z</time>
      </trkpt>
      <trkpt lat="65.27482" lon="21.36881">
        <ele>52.800646</ele>
        <time>2020-09-27T08:19:26.832Z</time>
      </trkpt>
      <trkpt lat="65.27478" lon="21.36862">
        <ele>52.923564</ele>
        <time>2020-09-27T08:19:29.856Z</time>
      </trkpt>
      <trkpt lat="65.27473" lon="21.36842">
        <ele>53.052667</ele>
        <time>2020-09-27T08:19:32.851Z</time>
      </trkpt>
      <trkpt lat="65.27469" lon="21.36822">
        <ele>53.184814</ele>
        <time>2020-09-27T08:19:35.864Z</time>
      </trkpt>
      <trkpt lat="65.27464" lon="21.36801">
        <ele>53.322195</ele>
        <time>2020-09-27T08:19:38.862Z</time>
      </trkpt>
      <trkpt lat="65.2746" lon="21.36781">
        <ele>53.448275</ele>
        <time>2020-09-27T08:19:41.847Z</time>
      </trkpt>
      <trkpt lat="65.27456" lon="21.36762">
        <ele>53.572965</ele>
        <time>2020-09-27T08:19:44.846Z</time>
      </trkpt>
      <trkpt lat="65.27452" lon="21.3674">
        <ele>53.710529</ele>
        <time>2020-09-27T08:19:47.896Z</time>
      </trkpt>
      <trkpt lat="65.27448" lon="21.36716">
        <ele>53.857582</ele>
        <time>2020-09-27T08:19:50.840Z</time>
      </trkpt>
      <trkpt lat="65.27443" lon="21.36693">
        <ele>54.003167</ele>
        <time>2020-09-27T08:19:53.867Z</time>
      </trkpt>
      <trkpt lat="65.27439" lon="21.36668">
        <ele>54.154963</ele>
        <time>2020-09-27T08:19:56.857Z</time>
      </trkpt>
      <trkpt lat="65.27433" lon="21.36645">
        <ele>54.245337</ele>
        <time>2020-09-27T08:19:59.848Z</time>
      </trkpt>
      <trkpt lat="65.27428" lon="21.3662">
        <ele>54.186002</ele>
        <time>2020-09-27T08:20:02.859Z</time>
      </trkpt>
      <trkpt lat="65.27422" lon="21.36596">
        <ele>54.125715</ele>
        <time>2020-09-27T08:20:05.896Z</time>
      </trkpt>
      <trkpt lat="65.27415" lon="21.3657">
        <ele>54.063253</ele>
        <time>2020-09-27T08:20:08.849Z</time>
      </trkpt>
      <trkpt lat="65.27409" lon="21.36544">
        <ele>53.998959</ele>
        <time>2020-09-27T08:20:11.847Z</time>
      </trkpt>
      <trkpt lat="65.27402" lon="21.3652">
        <ele>53.939571</ele>
        <time>2020-09-27T08:20:14.838Z</time>
      </trkpt>
      <trkpt lat="65.27397" lon="21.36495">
        <ele>53.87981</ele>
        <time>2020-09-27T08:20:17.855Z</time>
      </trkpt>
      <trkpt lat="65.27391" lon="21.3647">
        <ele>53.817712</ele>
        <time>2020-09-27T08:20:20.884Z</time>
      </trkpt>
      <trkpt lat="65.27384" lon="21.36444">
        <ele>53.755067</ele>
        <time>2020-09-27T08:20:23.848Z</time>
      </trkpt>
      <trkpt lat="65.27379" lon="21.36419">
        <ele>53.696948</ele>
        <time>2020-09-27T08:20:26.846Z</time>
      </trkpt>
      <trkpt lat="65.27373" lon="21.36396">
        <ele>53.640371</ele>
        <time>2020-09-27T08:20:29.851Z</time>
      </trkpt>
      <trkpt lat="65.27367" lon="21.36372">
        <ele>53.580342</ele>
        <time>2020-09-27T08:20:32.857Z</time>
      </trkpt>
      <trkpt lat="65.27361" lon="21.36347">
        <ele>53.520933</ele>
        <time>2020-09-27T08:20:35.870Z</time>
      </trkpt>
      <trkpt lat="65.27356" lon="21.36323">
        <ele>53.461908</ele>
        <time>2020-09-27T08:20:38.858Z</time>
      </trkpt>
      <trkpt lat="65.27351" lon="21.36298">
        <ele>53.403817</ele>
        <time>2020-09-27T08:20:41.860Z</time>
      </trkpt>
      <trkpt lat="65.27345" lon="21.36273">
        <ele>53.40488</ele>
        <time>2020-09-27T08:20:44.855Z</time>
      </trkpt>
      <trkpt lat="65.2734" lon="21.36248">
        <ele>53.632007</ele>
        <time>2020-09-27T08:20:47.906Z</time>
      </trkpt>
      <trkpt lat="65.27334" lon="21.36224">
        <ele>53.858104</ele>
        <time>2020-09-27T08:20:50.860Z</time>
      </trkpt>
      <trkpt lat="65.27329" lon="21.36199">
        <ele>54.082347</ele>
        <time>2020-09-27T08:20:53.838Z</time>
      </trkpt>
      <trkpt lat="65.27323" lon="21.36175">
        <ele>54.311527</ele>
        <time>2020-09-27T08:20:56.860Z</time>
      </trkpt>
      <trkpt lat="65.27317" lon="21.36151">
        <ele>54.540715</ele>
        <time>2020-09-27T08:20:59.850Z</time>
      </trkpt>
      <trkpt lat="65.27311" lon="21.36127">
        <ele>54.771291</ele>
        <time>2020-09-27T08:21:02.885Z</time>
      </trkpt>
      <trkpt lat="65.27305" lon="21.36102">
        <ele>55.003841</ele>
        <time>2020-09-27T08:21:05.866Z</time>
      </trkpt>
      <trkpt lat="65.27299" lon="21.36077">
        <ele>55.234229</ele>
        <time>2020-09-27T08:21:08.882Z</time>
      </trkpt>
      <trkpt lat="65.27294" lon="21.36054">
        <ele>55.452025</ele>
        <time>2020-09-27T08:21:11.853Z</time>
      </trkpt>
      <trkpt lat="65.27289" lon="21.36031">
        <ele>55.662944</ele>
        <time>2020-09-27T08:21:14.859Z</time>
      </trkpt>
      <trkpt lat="65.27283" lon="21.36008">
        <ele>55.879806</ele>
        <time>2020-09-27T08:21:17.857Z</time>
      </trkpt>
      <trkpt lat="65.27278" lon="21.35985">
        <ele>56.092381</ele>
        <time>2020-09-27T08:21:20.841Z</time>
      </trkpt>
      <trkpt lat="65.27272" lon="21.3596">
        <ele>56.319429</ele>
        <time>2020-09-27T08:21:23.854Z</time>
      </trkpt>
      <trkpt lat="65.27267" lon="21.35937">
        <ele>56.533741</ele>
        <time>2020-09-27T08:21:26.842Z</time>
      </trkpt>
      <trkpt lat="65.27262" lon="21.35914">
        <ele>56.747527</ele>
        <time>2020-09-27T08:21:29.835Z</time>
      </trkpt>
      <trkpt lat="65.27257" lon="21.35892">
        <ele>57.027851</ele>
        <time>2020-09-27T08:21:32.858Z</time>
      </trkpt>
      <trkpt lat="65.27252" lon="21.3587">
        <ele>57.3683</ele>
        <time>2020-09-27T08:21:35.854Z</time>
      </trkpt>
      <trkpt lat="65.27247" lon="21.35849">
        <ele>57.722764</ele>
        <time>2020-09-27T08:21:38.875Z</time>
      </trkpt>
      <trkpt lat="65.27242" lon="21.35829">
        <ele>58.04791</ele>
        <time>2020-09-27T08:21:41.915Z</time>
      </trkpt>
      <trkpt lat="65.27237" lon="21.35808">
        <ele>58.378399</ele>
        <time>2020-09-27T08:21:44.865Z</time>
      </trkpt>
      <trkpt lat="65.27233" lon="21.35787">
        <ele>58.71885</ele>
        <time>2020-09-27T08:21:47.860Z</time>
      </trkpt>
      <trkpt lat="65.27228" lon="21.35766">
        <ele>59.057163</ele>
        <time>2020-09-27T08:21:50.857Z</time>
      </trkpt>
      <trkpt lat="65.27224" lon="21.35745">
        <ele>59.389924</ele>
        <time>2020-09-27T08:21:53.842Z</time>
      </trkpt>
      <trkpt lat="65.27219" lon="21.35719">
        <ele>59.795657</ele>
        <time>2020-09-27T08:21:57.835Z</time>
      </trkpt>
      <trkpt lat="65.27215" lon="21.35698">
        <ele>60.114346</ele>
        <time>2020-09-27T08:22:00.848Z</time>
      </trkpt>
      <trkpt lat="65.27211" lon="21.35678">
        <ele>60.43005</ele>
        <time>2020-09-27T08:22:03.919Z</time>
      </trkpt>
      <trkpt lat="65.27207" lon="21.35658">
        <ele>60.736741</ele>
        <time>2020-09-27T08:22:06.849Z</time>
      </trkpt>
      <trkpt lat="65.27203" lon="21.35638">
        <ele>61.052888</ele>
        <time>2020-09-27T08:22:09.850Z</time>
      </trkpt>
      <trkpt lat="65.27198" lon="21.35613">
        <ele>61.450383</ele>
        <time>2020-09-27T08:22:13.839Z</time>
      </trkpt>
      <trkpt lat="65.27193" lon="21.35589">
        <ele>61.82921</ele>
        <time>2020-09-27T08:22:17.856Z</time>
      </trkpt>
      <trkpt lat="65.27188" lon="21.35565">
        <ele>62.204227</ele>
        <time>2020-09-27T08:22:21.854Z</time>
      </trkpt>
      <trkpt lat="65.27183" lon="21.35541">
        <ele>62.573475</ele>
        <time>2020-09-27T08:22:25.843Z</time>
      </trkpt>
      <trkpt lat="65.27179" lon="21.3552">
        <ele>62.914882</ele>
        <time>2020-09-27T08:22:29.844Z</time>
      </trkpt>
      <trkpt lat="65.27174" lon="21.35496">
        <ele>63.232497</ele>
        <time>2020-09-27T08:22:33.856Z</time>
      </trkpt>
      <trkpt lat="65.27169" lon="21.35474">
        <ele>63.537833</ele>
        <time>2020-09-27T08:22:37.860Z</time>
      </trkpt>
      <trkpt lat="65.27165" lon="21.35451">
        <ele>63.842481</ele>
        <time>2020-09-27T08:22:41.868Z</time>
      </trkpt>
      <trkpt lat="65.2716" lon="21.3543">
        <ele>64.136033</ele>
        <time>2020-09-27T08:22:45.866Z</time>
      </trkpt>
      <trkpt lat="65.27156" lon="21.3541">
        <ele>64.399251</ele>
        <time>2020-09-27T08:22:49.840Z</time>
      </trkpt>
      <trkpt lat="65.27152" lon="21.35385">
        <ele>64.719359</ele>
        <time>2020-09-27T08:22:54.879Z</time>
      </trkpt>
      <trkpt lat="65.27148" lon="21.35362">
        <ele>65.030525</ele>
        <time>2020-09-27T08:22:59.863Z</time>
      </trkpt>
      <trkpt lat="65.27144" lon="21.35341">
        <ele>65.299321</ele>
        <time>2020-09-27T08:23:03.871Z</time>
      </trkpt>
      <trkpt lat="65.2714" lon="21.35317">
        <ele>65.61287</ele>
        <time>2020-09-27T08:23:08.877Z</time>
      </trkpt>
      <trkpt lat="65.27136" lon="21.35297">
        <ele>65.886118</ele>
        <time>2020-09-27T08:23:12.860Z</time>
      </trkpt>
      <trkpt lat="65.27133" lon="21.35274">
        <ele>66.173221</ele>
        <time>2020-09-27T08:23:16.876Z</time>
      </trkpt>
      <trkpt lat="65.27128" lon="21.3525">
        <ele>66.490173</ele>
        <time>2020-09-27T08:23:21.835Z</time>
      </trkpt>
      <trkpt lat="65.27125" lon="21.3523">
        <ele>66.758979</ele>
        <time>2020-09-27T08:23:25.857Z</time>
      </trkpt>
      <trkpt lat="65.27121" lon="21.35208">
        <ele>67.040389</ele>
        <time>2020-09-27T08:23:29.843Z</time>
      </trkpt>
      <trkpt lat="65.27118" lon="21.35186">
        <ele>67.324854</ele>
        <time>2020-09-27T08:23:33.849Z</time>
      </trkpt>
      <trkpt lat="65.27114" lon="21.35166">
        <ele>67.584854</ele>
        <time>2020-09-27T08:23:37.847Z</time>
      </trkpt>
      <trkpt lat="65.27111" lon="21.35144">
        <ele>67.868195</ele>
        <time>2020-09-27T08:23:41.837Z</time>
      </trkpt>
      <trkpt lat="65.27107" lon="21.35123">
        <ele>68.146193</ele>
        <time>2020-09-27T08:23:45.835Z</time>
      </trkpt>
      <trkpt lat="65.27104" lon="21.35102">
        <ele>68.535843</ele>
        <time>2020-09-27T08:23:49.857Z</time>
      </trkpt>
      <trkpt lat="65.27101" lon="21.35081">
        <ele>68.931394</ele>
        <time>2020-09-27T08:23:53.860Z</time>
      </trkpt>
      <trkpt lat="65.27097" lon="21.3506">
        <ele>69.309405</ele>
        <time>2020-09-27T08:23:57.869Z</time>
      </trkpt>
      <trkpt lat="65.27094" lon="21.35039">
        <ele>69.698812</ele>
        <time>2020-09-27T08:24:01.912Z</time>
      </trkpt>
      <trkpt lat="65.2709" lon="21.35018">
        <ele>70.108776</ele>
        <time>2020-09-27T08:24:05.871Z</time>
      </trkpt>
      <trkpt lat="65.27086" lon="21.34993">
        <ele>70.571376</ele>
        <time>2020-09-27T08:24:10.854Z</time>
      </trkpt>
      <trkpt lat="65.27082" lon="21.34969">
        <ele>71.02123</ele>
        <time>2020-09-27T08:24:15.856Z</time>
      </trkpt>
      <trkpt lat="65.27078" lon="21.34949">
        <ele>71.403848</ele>
        <time>2020-09-27T08:24:19.847Z</time>
      </trkpt>
      <trkpt lat="65.27074" lon="21.34928">
        <ele>71.800913</ele>
        <time>2020-09-27T08:24:23.852Z</time>
      </trkpt>
      <trkpt lat="65.27071" lon="21.34908">
        <ele>72.180276</ele>
        <time>2020-09-27T08:24:27.859Z</time>
      </trkpt>
      <trkpt lat="65.27068" lon="21.34887">
        <ele>72.554439</ele>
        <time>2020-09-27T08:24:31.854Z</time>
      </trkpt>
      <trkpt lat="65.27065" lon="21.34866">
        <ele>72.952294</ele>
        <time>2020-09-27T08:24:35.880Z</time>
      </trkpt>
      <trkpt lat="65.27062" lon="21.34844">
        <ele>73.351508</ele>
        <time>2020-09-27T08:24:39.842Z</time>
      </trkpt>
      <trkpt lat="65.27059" lon="21.34822">
        <ele>73.750067</ele>
        <time>2020-09-27T08:24:43.847Z</time>
      </trkpt>
      <trkpt lat="65.27056" lon="21.34799">
        <ele>74.172268</ele>
        <time>2020-09-27T08:24:47.863Z</time>
      </trkpt>
      <trkpt lat="65.27051" lon="21.34775">
        <ele>74.622153</ele>
        <time>2020-09-27T08:24:51.841Z</time>
      </trkpt>
      <trkpt lat="65.27049" lon="21.34753">
        <ele>75.018311</ele>
        <time>2020-09-27T08:24:55.846Z</time>
      </trkpt>
      <trkpt lat="65.27046" lon="21.3473">
        <ele>75.440094</ele>
        <time>2020-09-27T08:24:59.843Z</time>
      </trkpt>
      <trkpt lat="65.27043" lon="21.34709">
        <ele>75.783273</ele>
        <time>2020-09-27T08:25:03.880Z</time>
      </trkpt>
      <trkpt lat="65.27042" lon="21.34686">
        <ele>76.100155</ele>
        <time>2020-09-27T08:25:07.857Z</time>
      </trkpt>
      <trkpt lat="65.27039" lon="21.34664">
        <ele>76.410351</ele>
        <time>2020-09-27T08:25:11.836Z</time>
      </trkpt>
      <trkpt lat="65.27035" lon="21.34641">
        <ele>76.750439</ele>
        <time>2020-09-27T08:25:15.839Z</time>
      </trkpt>
      <trkpt lat="65.27033" lon="21.34618">
        <ele>77.075873</ele>
        <time>2020-09-27T08:25:19.858Z</time>
      </trkpt>
      <trkpt lat="65.2703" lon="21.34596">
        <ele>77.405464</ele>
        <time>2020-09-27T08:25:23.870Z</time>
      </trkpt>
      <trkpt lat="65.27026" lon="21.34571">
        <ele>77.770701</ele>
        <time>2020-09-27T08:25:27.838Z</time>
      </trkpt>
      <trkpt lat="65.27022" lon="21.34545">
        <ele>78.138454</ele>
        <time>2020-09-27T08:25:31.860Z</time>
      </trkpt>
      <trkpt lat="65.2702" lon="21.34525">
        <ele>78.43452</ele>
        <time>2020-09-27T08:25:34.843Z</time>
      </trkpt>
      <trkpt lat="65.27017" lon="21.34504">
        <ele>78.737063</ele>
        <time>2020-09-27T08:25:37.847Z</time>
      </trkpt>
      <trkpt lat="65.27014" lon="21.34479">
        <ele>79.095933</ele>
        <time>2020-09-27T08:25:41.841Z</time>
      </trkpt>
      <trkpt lat="65.2701" lon="21.34451">
        <ele>79.495597</ele>
        <time>2020-09-27T08:25:45.858Z</time>
      </trkpt>
      <trkpt lat="65.27007" lon="21.34431">
        <ele>79.793785</ele>
        <time>2020-09-27T08:25:48.848Z</time>
      </trkpt>
      <trkpt lat="65.27004" lon="21.3441">
        <ele>80.109355</ele>
        <time>2020-09-27T08:25:51.854Z</time>
      </trkpt>
      <trkpt lat="65.27001" lon="21.34388">
        <ele>80.430347</ele>
        <time>2020-09-27T08:25:54.843Z</time>
      </trkpt>
      <trkpt lat="65.26997" lon="21.34363">
        <ele>80.789966</ele>
        <time>2020-09-27T08:25:57.848Z</time>
      </trkpt>
      <trkpt lat="65.26994" lon="21.3434">
        <ele>81.127466</ele>
        <time>2020-09-27T08:26:00.869Z</time>
      </trkpt>
      <trkpt lat="65.26991" lon="21.34317">
        <ele>81.465334</ele>
        <time>2020-09-27T08:26:03.843Z</time>
      </trkpt>
      <trkpt lat="65.26988" lon="21.34293">
        <ele>81.433918</ele>
        <time>2020-09-27T08:26:06.887Z</time>
      </trkpt>
      <trkpt lat="65.26985" lon="21.3427">
        <ele>81.323508</ele>
        <time>2020-09-27T08:26:09.860Z</time>
      </trkpt>
      <trkpt lat="65.26983" lon="21.34247">
        <ele>81.213503</ele>
        <time>2020-09-27T08:26:12.868Z</time>
      </trkpt>
      <trkpt lat="65.26979" lon="21.34223">
        <ele>81.09694</ele>
        <time>2020-09-27T08:26:15.866Z</time>
      </trkpt>
      <trkpt lat="65.26977" lon="21.34198">
        <ele>80.978107</ele>
        <time>2020-09-27T08:26:18.877Z</time>
      </trkpt>
      <trkpt lat="65.26974" lon="21.34174">
        <ele>80.859502</ele>
        <time>2020-09-27T08:26:21.850Z</time>
      </trkpt>
      <trkpt lat="65.26971" lon="21.34149">
        <ele>80.736722</ele>
        <time>2020-09-27T08:26:24.848Z</time>
      </trkpt>
      <trkpt lat="65.26967" lon="21.34124">
        <ele>80.617153</ele>
        <time>2020-09-27T08:26:27.847Z</time>
      </trkpt>
      <trkpt lat="65.26964" lon="21.34099">
        <ele>80.493921</ele>
        <time>2020-09-27T08:26:30.883Z</time>
      </trkpt>
      <trkpt lat="65.2696" lon="21.34073">
        <ele>80.36662</ele>
        <time>2020-09-27T08:26:33.868Z</time>
      </trkpt>
      <trkpt lat="65.26958" lon="21.34046">
        <ele>80.240794</ele>
        <time>2020-09-27T08:26:36.861Z</time>
      </trkpt>
      <trkpt lat="65.26955" lon="21.34021">
        <ele>80.117918</ele>
        <time>2020-09-27T08:26:39.851Z</time>
      </trkpt>
      <trkpt lat="65.26952" lon="21.33995">
        <ele>79.992877</ele>
        <time>2020-09-27T08:26:42.846Z</time>
      </trkpt>
      <trkpt lat="65.26949" lon="21.33967">
        <ele>79.858016</ele>
        <time>2020-09-27T08:26:45.836Z</time>
      </trkpt>
      <trkpt lat="65.26945" lon="21.33938">
        <ele>79.71691</ele>
        <time>2020-09-27T08:26:48.871Z</time>
      </trkpt>
      <trkpt lat="65.26942" lon="21.33909">
        <ele>79.57744</ele>
        <time>2020-09-27T08:26:51.853Z</time>
      </trkpt>
      <trkpt lat="65.26938" lon="21.33881">
        <ele>79.615981</ele>
        <time>2020-09-27T08:26:54.862Z</time>
      </trkpt>
      <trkpt lat="65.26935" lon="21.33854">
        <ele>79.741792</ele>
        <time>2020-09-27T08:26:57.860Z</time>
      </trkpt>
      <trkpt lat="65.26932" lon="21.33829">
        <ele>79.862445</ele>
        <time>2020-09-27T08:27:00.860Z</time>
      </trkpt>
      <trkpt lat="65.26929" lon="21.33802">
        <ele>79.986116</ele>
        <time>2020-09-27T08:27:03.857Z</time>
      </trkpt>
      <trkpt lat="65.26926" lon="21.33774">
        <ele>80.117104</ele>
        <time>2020-09-27T08:27:06.876Z</time>
      </trkpt>
      <trkpt lat="65.26922" lon="21.33746">
        <ele>80.248386</ele>
        <time>2020-09-27T08:27:09.843Z</time>
      </trkpt>
      <trkpt lat="65.2692" lon="21.33716">
        <ele>80.383272</ele>
        <time>2020-09-27T08:27:12.842Z</time>
      </trkpt>
      <trkpt lat="65.26917" lon="21.33688">
        <ele>80.516219</ele>
        <time>2020-09-27T08:27:15.850Z</time>
      </trkpt>
      <trkpt lat="65.26913" lon="21.3366">
        <ele>80.643461</ele>
        <time>2020-09-27T08:27:18.843Z</time>
      </trkpt>
      <trkpt lat="65.26911" lon="21.33633">
        <ele>80.769119</ele>
        <time>2020-09-27T08:27:21.889Z</time>
      </trkpt>
      <trkpt lat="65.26909" lon="21.33604">
        <ele>80.90158</ele>
        <time>2020-09-27T08:27:24.847Z</time>
      </trkpt>
      <trkpt lat="65.26905" lon="21.33573">
        <ele>81.044709</ele>
        <time>2020-09-27T08:27:27.860Z</time>
      </trkpt>
      <trkpt lat="65.26902" lon="21.33543">
        <ele>81.184413</ele>
        <time>2020-09-27T08:27:30.859Z</time>
      </trkpt>
      <trkpt lat="65.269" lon="21.33514">
        <ele>81.315366</ele>
        <time>2020-09-27T08:27:33.874Z</time>
      </trkpt>
      <trkpt lat="65.26897" lon="21.33487">
        <ele>81.440159</ele>
        <time>2020-09-27T08:27:36.839Z</time>
      </trkpt>
      <trkpt lat="65.26894" lon="21.33462">
        <ele>81.564215</ele>
        <time>2020-09-27T08:27:39.841Z</time>
      </trkpt>
      <trkpt lat="65.26891" lon="21.33435">
        <ele>81.696055</ele>
        <time>2020-09-27T08:27:42.852Z</time>
      </trkpt>
      <trkpt lat="65.26888" lon="21.33407">
        <ele>81.831949</ele>
        <time>2020-09-27T08:27:45.865Z</time>
      </trkpt>
      <trkpt lat="65.26886" lon="21.33379">
        <ele>81.966577</ele>
        <time>2020-09-27T08:27:48.856Z</time>
      </trkpt>
      <trkpt lat="65.26884" lon="21.33351">
        <ele>82.100392</ele>
        <time>2020-09-27T08:27:51.892Z</time>
      </trkpt>
      <trkpt lat="65.26882" lon="21.33324">
        <ele>82.231465</ele>
        <time>2020-09-27T08:27:54.853Z</time>
      </trkpt>
      <trkpt lat="65.26879" lon="21.33297">
        <ele>82.363488</ele>
        <time>2020-09-27T08:27:57.840Z</time>
      </trkpt>
      <trkpt lat="65.26877" lon="21.3327">
        <ele>82.494059</ele>
        <time>2020-09-27T08:28:00.863Z</time>
      </trkpt>
      <trkpt lat="65.26875" lon="21.33246">
        <ele>82.613333</ele>
        <time>2020-09-27T08:28:03.844Z</time>
      </trkpt>
      <trkpt lat="65.26873" lon="21.33219">
        <ele>82.740409</ele>
        <time>2020-09-27T08:28:06.861Z</time>
      </trkpt>
      <trkpt lat="65.26871" lon="21.33194">
        <ele>82.863807</ele>
        <time>2020-09-27T08:28:09.838Z</time>
      </trkpt>
      <trkpt lat="65.26869" lon="21.33169">
        <ele>82.986532</ele>
        <time>2020-09-27T08:28:12.840Z</time>
      </trkpt>
      <trkpt lat="65.26866" lon="21.33144">
        <ele>83.105693</ele>
        <time>2020-09-27T08:28:15.864Z</time>
      </trkpt>
      <trkpt lat="65.26864" lon="21.33121">
        <ele>83.218659</ele>
        <time>2020-09-27T08:28:18.843Z</time>
      </trkpt>
      <trkpt lat="65.26862" lon="21.33097">
        <ele>83.334592</ele>
        <time>2020-09-27T08:28:21.878Z</time>
      </trkpt>
      <trkpt lat="65.26859" lon="21.33074">
        <ele>83.447668</ele>
        <time>2020-09-27T08:28:24.846Z</time>
      </trkpt>
      <trkpt lat="65.26857" lon="21.33051">
        <ele>83.550133</ele>
        <time>2020-09-27T08:28:27.847Z</time>
      </trkpt>
      <trkpt lat="65.26855" lon="21.33028">
        <ele>83.641883</ele>
        <time>2020-09-27T08:28:30.853Z</time>
      </trkpt>
      <trkpt lat="65.26854" lon="21.33005">
        <ele>83.73678</ele>
        <time>2020-09-27T08:28:33.850Z</time>
      </trkpt>
      <trkpt lat="65.26852" lon="21.32983">
        <ele>83.823565</ele>
        <time>2020-09-27T08:28:36.849Z</time>
      </trkpt>
      <trkpt lat="65.26849" lon="21.32963">
        <ele>83.911407</ele>
        <time>2020-09-27T08:28:39.848Z</time>
      </trkpt>
      <trkpt lat="65.26847" lon="21.32938">
        <ele>84.011228</ele>
        <time>2020-09-27T08:28:42.855Z</time>
      </trkpt>
      <trkpt lat="65.26845" lon="21.32913">
        <ele>84.113415</ele>
        <time>2020-09-27T08:28:45.847Z</time>
      </trkpt>
      <trkpt lat="65.26843" lon="21.32889">
        <ele>84.208392</ele>
        <time>2020-09-27T08:28:48.883Z</time>
      </trkpt>
      <trkpt lat="65.26841" lon="21.32865">
        <ele>84.305717</ele>
        <time>2020-09-27T08:28:51.849Z</time>
      </trkpt>
      <trkpt lat="65.26839" lon="21.3284">
        <ele>84.407586</ele>
        <time>2020-09-27T08:28:54.863Z</time>
      </trkpt>
      <trkpt lat="65.26837" lon="21.32815">
        <ele>84.506822</ele>
        <time>2020-09-27T08:28:57.881Z</time>
      </trkpt>
      <trkpt lat="65.26836" lon="21.32793">
        <ele>84.596995</ele>
        <time>2020-09-27T08:29:00.880Z</time>
      </trkpt>
      <trkpt lat="65.26835" lon="21.32769">
        <ele>84.690718</ele>
        <time>2020-09-27T08:29:03.851Z</time>
      </trkpt>
      <trkpt lat="65.26832" lon="21.32747">
        <ele>84.781984</ele>
        <time>2020-09-27T08:29:06.882Z</time>
      </trkpt>
      <trkpt lat="65.26831" lon="21.32724">
        <ele>84.876357</ele>
        <time>2020-09-27T08:29:09.848Z</time>
      </trkpt>
      <trkpt lat="65.26829" lon="21.32701">
        <ele>84.970339</ele>
        <time>2020-09-27T08:29:12.832Z</time>
      </trkpt>
      <trkpt lat="65.26827" lon="21.32678">
        <ele>85.062972</ele>
        <time>2020-09-27T08:29:15.870Z</time>
      </trkpt>
      <trkpt lat="65.26825" lon="21.32655">
        <ele>85.15512</ele>
        <time>2020-09-27T08:29:18.848Z</time>
      </trkpt>
      <trkpt lat="65.26824" lon="21.32632">
        <ele>85.139778</ele>
        <time>2020-09-27T08:29:21.839Z</time>
      </trkpt>
      <trkpt lat="65.26822" lon="21.32608">
        <ele>84.949258</ele>
        <time>2020-09-27T08:29:24.848Z</time>
      </trkpt>
      <trkpt lat="65.2682" lon="21.32584">
        <ele>84.75661</ele>
        <time>2020-09-27T08:29:27.858Z</time>
      </trkpt>
      <trkpt lat="65.26818" lon="21.3256">
        <ele>84.569917</ele>
        <time>2020-09-27T08:29:30.861Z</time>
      </trkpt>
      <trkpt lat="65.26816" lon="21.32535">
        <ele>84.370772</ele>
        <time>2020-09-27T08:29:33.841Z</time>
      </trkpt>
      <trkpt lat="65.26814" lon="21.32509">
        <ele>84.162129</ele>
        <time>2020-09-27T08:29:36.875Z</time>
      </trkpt>
      <trkpt lat="65.26811" lon="21.32481">
        <ele>83.940433</ele>
        <time>2020-09-27T08:29:39.847Z</time>
      </trkpt>
      <trkpt lat="65.26809" lon="21.32455">
        <ele>83.732548</ele>
        <time>2020-09-27T08:29:42.877Z</time>
      </trkpt>
      <trkpt lat="65.26806" lon="21.3243">
        <ele>83.536428</ele>
        <time>2020-09-27T08:29:45.854Z</time>
      </trkpt>
      <trkpt lat="65.26804" lon="21.32407">
        <ele>83.352134</ele>
        <time>2020-09-27T08:29:48.854Z</time>
      </trkpt>
      <trkpt lat="65.26802" lon="21.32383">
        <ele>83.164419</ele>
        <time>2020-09-27T08:29:51.852Z</time>
      </trkpt>
      <trkpt lat="65.268" lon="21.32358">
        <ele>82.961874</ele>
        <time>2020-09-27T08:29:54.848Z</time>
      </trkpt>
      <trkpt lat="65.26798" lon="21.32331">
        <ele>82.753891</ele>
        <time>2020-09-27T08:29:57.842Z</time>
      </trkpt>
      <trkpt lat="65.26795" lon="21.32304">
        <ele>82.534237</ele>
        <time>2020-09-27T08:30:00.850Z</time>
      </trkpt>
      <trkpt lat="65.26793" lon="21.32277">
        <ele>82.319534</ele>
        <time>2020-09-27T08:30:03.886Z</time>
      </trkpt>
      <trkpt lat="65.26791" lon="21.32247">
        <ele>82.086964</ele>
        <time>2020-09-27T08:30:06.842Z</time>
      </trkpt>
      <trkpt lat="65.26789" lon="21.32217">
        <ele>81.849405</ele>
        <time>2020-09-27T08:30:09.870Z</time>
      </trkpt>
      <trkpt lat="65.26787" lon="21.32195">
        <ele>81.674065</ele>
        <time>2020-09-27T08:30:11.842Z</time>
      </trkpt>
      <trkpt lat="65.26786" lon="21.32173">
        <ele>81.494523</ele>
        <time>2020-09-27T08:30:13.875Z</time>
      </trkpt>
      <trkpt lat="65.26784" lon="21.3215">
        <ele>81.309373</ele>
        <time>2020-09-27T08:30:15.860Z</time>
      </trkpt>
      <trkpt lat="65.26782" lon="21.32127">
        <ele>81.122271</ele>
        <time>2020-09-27T08:30:17.865Z</time>
      </trkpt>
      <trkpt lat="65.2678" lon="21.32103">
        <ele>80.927814</ele>
        <time>2020-09-27T08:30:19.869Z</time>
      </trkpt>
      <trkpt lat="65.26778" lon="21.32078">
        <ele>80.731039</ele>
        <time>2020-09-27T08:30:21.833Z</time>
      </trkpt>
      <trkpt lat="65.26775" lon="21.32052">
        <ele>80.515613</ele>
        <time>2020-09-27T08:30:23.837Z</time>
      </trkpt>
      <trkpt lat="65.26773" lon="21.32026">
        <ele>80.307219</ele>
        <time>2020-09-27T08:30:25.878Z</time>
      </trkpt>
      <trkpt lat="65.26771" lon="21.32">
        <ele>80.095985</ele>
        <time>2020-09-27T08:30:27.851Z</time>
      </trkpt>
      <trkpt lat="65.26769" lon="21.31973">
        <ele>79.882085</ele>
        <time>2020-09-27T08:30:29.865Z</time>
      </trkpt>
      <trkpt lat="65.26767" lon="21.31945">
        <ele>79.658199</ele>
        <time>2020-09-27T08:30:31.866Z</time>
      </trkpt>
      <trkpt lat="65.26764" lon="21.31918">
        <ele>79.432742</ele>
        <time>2020-09-27T08:30:33.879Z</time>
      </trkpt>
      <trkpt lat="65.26761" lon="21.3189">
        <ele>79.206095</ele>
        <time>2020-09-27T08:30:35.872Z</time>
      </trkpt>
      <trkpt lat="65.26759" lon="21.31861">
        <ele>78.974452</ele>
        <time>2020-09-27T08:30:37.840Z</time>
      </trkpt>
      <trkpt lat="65.26756" lon="21.31832">
        <ele>78.738151</ele>
        <time>2020-09-27T08:30:39.857Z</time>
      </trkpt>
      <trkpt lat="65.26754" lon="21.31802">
        <ele>78.500296</ele>
        <time>2020-09-27T08:30:41.847Z</time>
      </trkpt>
      <trkpt lat="65.26752" lon="21.31772">
        <ele>78.041662</ele>
        <time>2020-09-27T08:30:43.868Z</time>
      </trkpt>
      <trkpt lat="65.2675" lon="21.3174">
        <ele>77.533941</ele>
        <time>2020-09-27T08:30:45.843Z</time>
      </trkpt>
      <trkpt lat="65.26747" lon="21.31708">
        <ele>77.023054</ele>
        <time>2020-09-27T08:30:47.884Z</time>
      </trkpt>
      <trkpt lat="65.26745" lon="21.31677">
        <ele>76.525317</ele>
        <time>2020-09-27T08:30:49.844Z</time>
      </trkpt>
      <trkpt lat="65.26742" lon="21.31648">
        <ele>76.045517</ele>
        <time>2020-09-27T08:30:51.846Z</time>
      </trkpt>
      <trkpt lat="65.26739" lon="21.3162">
        <ele>75.586224</ele>
        <time>2020-09-27T08:30:53.869Z</time>
      </trkpt>
      <trkpt lat="65.26737" lon="21.31591">
        <ele>75.119608</ele>
        <time>2020-09-27T08:30:55.849Z</time>
      </trkpt>
      <trkpt lat="65.26734" lon="21.31561">
        <ele>74.641354</ele>
        <time>2020-09-27T08:30:57.843Z</time>
      </trkpt>
      <trkpt lat="65.26732" lon="21.31533">
        <ele>74.184776</ele>
        <time>2020-09-27T08:30:59.868Z</time>
      </trkpt>
      <trkpt lat="65.2673" lon="21.31506">
        <ele>73.740491</ele>
        <time>2020-09-27T08:31:01.877Z</time>
      </trkpt>
      <trkpt lat="65.26727" lon="21.31478">
        <ele>73.297765</ele>
        <time>2020-09-27T08:31:03.868Z</time>
      </trkpt>
      <trkpt lat="65.26725" lon="21.31451">
        <ele>72.866033</ele>
        <time>2020-09-27T08:31:05.850Z</time>
      </trkpt>
      <trkpt lat="65.26723" lon="21.31425">
        <ele>72.448913</ele>
        <time>2020-09-27T08:31:07.860Z</time>
      </trkpt>
      <trkpt lat="65.26721" lon="21.314">
        <ele>72.031131</ele>
        <time>2020-09-27T08:31:09.850Z</time>
      </trkpt>
      <trkpt lat="65.26719" lon="21.31374">
        <ele>71.637367</ele>
        <time>2020-09-27T08:31:11.844Z</time>
      </trkpt>
      <trkpt lat="65.26717" lon="21.31348">
        <ele>71.410903</ele>
        <time>2020-09-27T08:31:13.863Z</time>
      </trkpt>
      <trkpt lat="65.26714" lon="21.31324">
        <ele>71.194847</ele>
        <time>2020-09-27T08:31:15.843Z</time>
      </trkpt>
      <trkpt lat="65.26712" lon="21.31301">
        <ele>70.984512</ele>
        <time>2020-09-27T08:31:17.865Z</time>
      </trkpt>
      <trkpt lat="65.2671" lon="21.31277">
        <ele>70.770772</ele>
        <time>2020-09-27T08:31:19.841Z</time>
      </trkpt>
      <trkpt lat="65.26707" lon="21.31253">
        <ele>70.557541</ele>
        <time>2020-09-27T08:31:21.845Z</time>
      </trkpt>
      <trkpt lat="65.26705" lon="21.31229">
        <ele>70.34586</ele>
        <time>2020-09-27T08:31:23.861Z</time>
      </trkpt>
      <trkpt lat="65.26703" lon="21.31204">
        <ele>70.124273</ele>
        <time>2020-09-27T08:31:25.883Z</time>
      </trkpt>
      <trkpt lat="65.26701" lon="21.31179">
        <ele>69.901589</ele>
        <time>2020-09-27T08:31:27.860Z</time>
      </trkpt>
      <trkpt lat="65.26699" lon="21.31153">
        <ele>69.678964</ele>
        <time>2020-09-27T08:31:29.858Z</time>
      </trkpt>
      <trkpt lat="65.26697" lon="21.3113">
        <ele>69.467761</ele>
        <time>2020-09-27T08:31:31.841Z</time>
      </trkpt>
      <trkpt lat="65.26695" lon="21.31105">
        <ele>69.250599</ele>
        <time>2020-09-27T08:31:33.845Z</time>
      </trkpt>
      <trkpt lat="65.26693" lon="21.3108">
        <ele>69.025247</ele>
        <time>2020-09-27T08:31:35.877Z</time>
      </trkpt>
      <trkpt lat="65.26691" lon="21.31053">
        <ele>68.791151</ele>
        <time>2020-09-27T08:31:37.880Z</time>
      </trkpt>
      <trkpt lat="65.26689" lon="21.31028">
        <ele>68.567511</ele>
        <time>2020-09-27T08:31:39.842Z</time>
      </trkpt>
      <trkpt lat="65.26687" lon="21.31002">
        <ele>68.338873</ele>
        <time>2020-09-27T08:31:41.883Z</time>
      </trkpt>
      <trkpt lat="65.26685" lon="21.30976">
        <ele>68.111998</ele>
        <time>2020-09-27T08:31:43.857Z</time>
      </trkpt>
      <trkpt lat="65.26683" lon="21.30951">
        <ele>67.933256</ele>
        <time>2020-09-27T08:31:45.862Z</time>
      </trkpt>
      <trkpt lat="65.26681" lon="21.30925">
        <ele>67.95061</ele>
        <time>2020-09-27T08:31:47.849Z</time>
      </trkpt>
      <trkpt lat="65.26678" lon="21.30899">
        <ele>67.967645</ele>
        <time>2020-09-27T08:31:49.845Z</time>
      </trkpt>
      <trkpt lat="65.26677" lon="21.30872">
        <ele>67.985364</ele>
        <time>2020-09-27T08:31:51.847Z</time>
      </trkpt>
      <trkpt lat="65.26675" lon="21.30844">
        <ele>68.003883</ele>
        <time>2020-09-27T08:31:53.852Z</time>
      </trkpt>
      <trkpt lat="65.26672" lon="21.30817">
        <ele>68.022172</ele>
        <time>2020-09-27T08:31:55.856Z</time>
      </trkpt>
      <trkpt lat="65.2667" lon="21.3079">
        <ele>68.040397</ele>
        <time>2020-09-27T08:31:57.848Z</time>
      </trkpt>
      <trkpt lat="65.26667" lon="21.30762">
        <ele>68.058937</ele>
        <time>2020-09-27T08:31:59.843Z</time>
      </trkpt>
      <trkpt lat="65.26665" lon="21.30736">
        <ele>68.076387</ele>
        <time>2020-09-27T08:32:01.839Z</time>
      </trkpt>
      <trkpt lat="65.26664" lon="21.3071">
        <ele>68.093818</ele>
        <time>2020-09-27T08:32:03.880Z</time>
      </trkpt>
      <trkpt lat="65.26662" lon="21.30684">
        <ele>68.110752</ele>
        <time>2020-09-27T08:32:05.873Z</time>
      </trkpt>
      <trkpt lat="65.26661" lon="21.30659">
        <ele>68.127494</ele>
        <time>2020-09-27T08:32:07.858Z</time>
      </trkpt>
      <trkpt lat="65.26659" lon="21.30633">
        <ele>68.144433</ele>
        <time>2020-09-27T08:32:09.864Z</time>
      </trkpt>
      <trkpt lat="65.26656" lon="21.30608">
        <ele>68.161116</ele>
        <time>2020-09-27T08:32:11.874Z</time>
      </trkpt>
      <trkpt lat="65.26655" lon="21.30583">
        <ele>68.177648</ele>
        <time>2020-09-27T08:32:13.864Z</time>
      </trkpt>
      <trkpt lat="65.26652" lon="21.3056">
        <ele>68.193595</ele>
        <time>2020-09-27T08:32:15.846Z</time>
      </trkpt>
      <trkpt lat="65.26651" lon="21.30538">
        <ele>68.208167</ele>
        <time>2020-09-27T08:32:17.887Z</time>
      </trkpt>
      <trkpt lat="65.26649" lon="21.30514">
        <ele>68.416865</ele>
        <time>2020-09-27T08:32:19.839Z</time>
      </trkpt>
      <trkpt lat="65.26647" lon="21.30491">
        <ele>68.666542</ele>
        <time>2020-09-27T08:32:21.838Z</time>
      </trkpt>
      <trkpt lat="65.26645" lon="21.30469">
        <ele>68.909997</ele>
        <time>2020-09-27T08:32:23.871Z</time>
      </trkpt>
      <trkpt lat="65.26643" lon="21.30448">
        <ele>69.140018</ele>
        <time>2020-09-27T08:32:25.868Z</time>
      </trkpt>
      <trkpt lat="65.26641" lon="21.30426">
        <ele>69.371518</ele>
        <time>2020-09-27T08:32:27.845Z</time>
      </trkpt>
      <trkpt lat="65.26639" lon="21.30405">
        <ele>69.598861</ele>
        <time>2020-09-27T08:32:29.849Z</time>
      </trkpt>
      <trkpt lat="65.26637" lon="21.30384">
        <ele>69.831413</ele>
        <time>2020-09-27T08:32:31.836Z</time>
      </trkpt>
      <trkpt lat="65.26634" lon="21.30355">
        <ele>70.149124</ele>
        <time>2020-09-27T08:32:34.845Z</time>
      </trkpt>
      <trkpt lat="65.26631" lon="21.30326">
        <ele>70.457445</ele>
        <time>2020-09-27T08:32:37.841Z</time>
      </trkpt>
      <trkpt lat="65.26629" lon="21.303">
        <ele>70.747094</ele>
        <time>2020-09-27T08:32:40.886Z</time>
      </trkpt>
      <trkpt lat="65.26627" lon="21.30273">
        <ele>71.033139</ele>
        <time>2020-09-27T08:32:43.863Z</time>
      </trkpt>
      <trkpt lat="65.26625" lon="21.30246">
        <ele>71.324348</ele>
        <time>2020-09-27T08:32:46.847Z</time>
      </trkpt>
      <trkpt lat="65.26623" lon="21.30218">
        <ele>71.625186</ele>
        <time>2020-09-27T08:32:49.848Z</time>
      </trkpt>
      <trkpt lat="65.26621" lon="21.30197">
        <ele>71.856705</ele>
        <time>2020-09-27T08:32:51.863Z</time>
      </trkpt>
      <trkpt lat="65.26618" lon="21.30166">
        <ele>72.188376</ele>
        <time>2020-09-27T08:32:54.847Z</time>
      </trkpt>
      <trkpt lat="65.26616" lon="21.30136">
        <ele>72.515797</ele>
        <time>2020-09-27T08:32:57.862Z</time>
      </trkpt>
      <trkpt lat="65.26615" lon="21.30107">
        <ele>72.765341</ele>
        <time>2020-09-27T08:33:00.887Z</time>
      </trkpt>
      <trkpt lat="65.26612" lon="21.30076">
        <ele>72.735257</ele>
        <time>2020-09-27T08:33:03.859Z</time>
      </trkpt>
      <trkpt lat="65.26609" lon="21.30047">
        <ele>72.706735</ele>
        <time>2020-09-27T08:33:06.848Z</time>
      </trkpt>
      <trkpt lat="65.26607" lon="21.30026">
        <ele>72.686142</ele>
        <time>2020-09-27T08:33:08.870Z</time>
      </trkpt>
      <trkpt lat="65.26605" lon="21.30004">
        <ele>72.664546</ele>
        <time>2020-09-27T08:33:10.850Z</time>
      </trkpt>
      <trkpt lat="65.26602" lon="21.29981">
        <ele>72.641994</ele>
        <time>2020-09-27T08:33:12.843Z</time>
      </trkpt>
      <trkpt lat="65.266" lon="21.29959">
        <ele>72.620446</ele>
        <time>2020-09-27T08:33:14.863Z</time>
      </trkpt>
      <trkpt lat="65.26598" lon="21.29935">
        <ele>72.5975</ele>
        <time>2020-09-27T08:33:16.862Z</time>
      </trkpt>
      <trkpt lat="65.26597" lon="21.29911">
        <ele>72.573929</ele>
        <time>2020-09-27T08:33:18.837Z</time>
      </trkpt>
      <trkpt lat="65.26595" lon="21.29884">
        <ele>72.548321</ele>
        <time>2020-09-27T08:33:20.847Z</time>
      </trkpt>
      <trkpt lat="65.26593" lon="21.29858">
        <ele>72.52318</ele>
        <time>2020-09-27T08:33:22.880Z</time>
      </trkpt>
      <trkpt lat="65.26591" lon="21.29832">
        <ele>72.497622</ele>
        <time>2020-09-27T08:33:24.862Z</time>
      </trkpt>
      <trkpt lat="65.26588" lon="21.29805">
        <ele>72.470745</ele>
        <time>2020-09-27T08:33:26.864Z</time>
      </trkpt>
      <trkpt lat="65.26586" lon="21.29777">
        <ele>72.444439</ele>
        <time>2020-09-27T08:33:28.862Z</time>
      </trkpt>
      <trkpt lat="65.26584" lon="21.29751">
        <ele>72.418986</ele>
        <time>2020-09-27T08:33:30.903Z</time>
      </trkpt>
      <trkpt lat="65.26583" lon="21.29724">
        <ele>72.393315</ele>
        <time>2020-09-27T08:33:32.850Z</time>
      </trkpt>
      <trkpt lat="65.26582" lon="21.29697">
        <ele>72.367416</ele>
        <time>2020-09-27T08:33:34.849Z</time>
      </trkpt>
      <trkpt lat="65.2658" lon="21.29671">
        <ele>72.347625</ele>
        <time>2020-09-27T08:33:36.868Z</time>
      </trkpt>
      <trkpt lat="65.26578" lon="21.29647">
        <ele>72.330812</ele>
        <time>2020-09-27T08:33:38.848Z</time>
      </trkpt>
      <trkpt lat="65.26576" lon="21.29623">
        <ele>72.314395</ele>
        <time>2020-09-27T08:33:40.850Z</time>
      </trkpt>
      <trkpt lat="65.26574" lon="21.29599">
        <ele>72.298098</ele>
        <time>2020-09-27T08:33:42.874Z</time>
      </trkpt>
      <trkpt lat="65.26572" lon="21.29576">
        <ele>72.282202</ele>
        <time>2020-09-27T08:33:44.852Z</time>
      </trkpt>
      <trkpt lat="65.26569" lon="21.29554">
        <ele>72.267049</ele>
        <time>2020-09-27T08:33:46.900Z</time>
      </trkpt>
      <trkpt lat="65.26567" lon="21.29531">
        <ele>72.251319</ele>
        <time>2020-09-27T08:33:48.853Z</time>
      </trkpt>
      <trkpt lat="65.26566" lon="21.29509">
        <ele>72.236153</ele>
        <time>2020-09-27T08:33:50.881Z</time>
      </trkpt>
      <trkpt lat="65.26563" lon="21.29488">
        <ele>72.221731</ele>
        <time>2020-09-27T08:33:52.865Z</time>
      </trkpt>
      <trkpt lat="65.2656" lon="21.29458">
        <ele>72.200531</ele>
        <time>2020-09-27T08:33:55.852Z</time>
      </trkpt>
      <trkpt lat="65.26556" lon="21.29427">
        <ele>72.179055</ele>
        <time>2020-09-27T08:33:58.867Z</time>
      </trkpt>
      <trkpt lat="65.26552" lon="21.29398">
        <ele>72.158485</ele>
        <time>2020-09-27T08:34:01.856Z</time>
      </trkpt>
      <trkpt lat="65.26549" lon="21.29368">
        <ele>72.137624</ele>
        <time>2020-09-27T08:34:04.851Z</time>
      </trkpt>
      <trkpt lat="65.26546" lon="21.29347">
        <ele>72.12268</ele>
        <time>2020-09-27T08:34:06.874Z</time>
      </trkpt>
      <trkpt lat="65.26542" lon="21.29318">
        <ele>72.102024</ele>
        <time>2020-09-27T08:34:09.879Z</time>
      </trkpt>
      <trkpt lat="65.26538" lon="21.2929">
        <ele>72.082326</ele>
        <time>2020-09-27T08:34:12.857Z</time>
      </trkpt>
      <trkpt lat="65.26534" lon="21.2926">
        <ele>72.244834</ele>
        <time>2020-09-27T08:34:15.851Z</time>
      </trkpt>
      <trkpt lat="65.2653" lon="21.29232">
        <ele>72.595833</ele>
        <time>2020-09-27T08:34:18.851Z</time>
      </trkpt>
      <trkpt lat="65.26521" lon="21.29241">
        <ele>72.867487</ele>
        <time>2020-09-27T08:34:22.859Z</time>
      </trkpt>
      <trkpt lat="65.26514" lon="21.29259">
        <ele>73.15111</ele>
        <time>2020-09-27T08:34:25.847Z</time>
      </trkpt>
      <trkpt lat="65.26503" lon="21.29262">
        <ele>73.451406</ele>
        <time>2020-09-27T08:34:28.855Z</time>
      </trkpt>
      <trkpt lat="65.26492" lon="21.29266">
        <ele>73.749652</ele>
        <time>2020-09-27T08:34:31.880Z</time>
      </trkpt>
      <trkpt lat="65.26482" lon="21.29269">
        <ele>74.026663</ele>
        <time>2020-09-27T08:34:34.846Z</time>
      </trkpt>
      <trkpt lat="65.26473" lon="21.2927">
        <ele>74.286182</ele>
        <time>2020-09-27T08:34:37.842Z</time>
      </trkpt>
      <trkpt lat="65.26463" lon="21.29271">
        <ele>74.561809</ele>
        <time>2020-09-27T08:34:40.858Z</time>
      </trkpt>
      <trkpt lat="65.26453" lon="21.29269">
        <ele>74.824439</ele>
        <time>2020-09-27T08:34:43.848Z</time>
      </trkpt>
      <trkpt lat="65.26444" lon="21.29269">
        <ele>75.091685</ele>
        <time>2020-09-27T08:34:46.877Z</time>
      </trkpt>
      <trkpt lat="65.26433" lon="21.29268">
        <ele>75.386357</ele>
        <time>2020-09-27T08:34:49.838Z</time>
      </trkpt>
      <trkpt lat="65.26421" lon="21.29268">
        <ele>75.711413</ele>
        <time>2020-09-27T08:34:52.838Z</time>
      </trkpt>
      <trkpt lat="65.26409" lon="21.29268">
        <ele>76.039122</ele>
        <time>2020-09-27T08:34:55.860Z</time>
      </trkpt>
      <trkpt lat="65.26396" lon="21.29269">
        <ele>76.400143</ele>
        <time>2020-09-27T08:34:58.870Z</time>
      </trkpt>
      <trkpt lat="65.26383" lon="21.29273">
        <ele>76.77175</ele>
        <time>2020-09-27T08:35:01.843Z</time>
      </trkpt>
      <trkpt lat="65.2637" lon="21.2928">
        <ele>76.903589</ele>
        <time>2020-09-27T08:35:04.849Z</time>
      </trkpt>
      <trkpt lat="65.2636" lon="21.29286">
        <ele>76.632892</ele>
        <time>2020-09-27T08:35:06.844Z</time>
      </trkpt>
      <trkpt lat="65.26351" lon="21.29292">
        <ele>76.362716</ele>
        <time>2020-09-27T08:35:08.846Z</time>
      </trkpt>
      <trkpt lat="65.26343" lon="21.29299">
        <ele>76.100873</ele>
        <time>2020-09-27T08:35:10.834Z</time>
      </trkpt>
      <trkpt lat="65.26333" lon="21.29307">
        <ele>75.819755</ele>
        <time>2020-09-27T08:35:12.842Z</time>
      </trkpt>
      <trkpt lat="65.26323" lon="21.29315">
        <ele>75.517803</ele>
        <time>2020-09-27T08:35:14.846Z</time>
      </trkpt>
      <trkpt lat="65.26313" lon="21.29323">
        <ele>75.218564</ele>
        <time>2020-09-27T08:35:16.856Z</time>
      </trkpt>
      <trkpt lat="65.26302" lon="21.29331">
        <ele>74.89049</ele>
        <time>2020-09-27T08:35:18.865Z</time>
      </trkpt>
      <trkpt lat="65.26291" lon="21.2934">
        <ele>74.559335</ele>
        <time>2020-09-27T08:35:20.879Z</time>
      </trkpt>
      <trkpt lat="65.2628" lon="21.29349">
        <ele>74.22932</ele>
        <time>2020-09-27T08:35:22.847Z</time>
      </trkpt>
      <trkpt lat="65.26268" lon="21.29358">
        <ele>73.870741</ele>
        <time>2020-09-27T08:35:24.860Z</time>
      </trkpt>
      <trkpt lat="65.26256" lon="21.29367">
        <ele>73.520397</ele>
        <time>2020-09-27T08:35:26.866Z</time>
      </trkpt>
      <trkpt lat="65.26244" lon="21.29376">
        <ele>73.151858</ele>
        <time>2020-09-27T08:35:28.849Z</time>
      </trkpt>
      <trkpt lat="65.26231" lon="21.29385">
        <ele>72.768767</ele>
        <time>2020-09-27T08:35:30.844Z</time>
      </trkpt>
      <trkpt lat="65.26218" lon="21.29394">
        <ele>72.383932</ele>
        <time>2020-09-27T08:35:32.846Z</time>
      </trkpt>
      <trkpt lat="65.26205" lon="21.29402">
        <ele>71.989172</ele>
        <time>2020-09-27T08:35:34.867Z</time>
      </trkpt>
      <trkpt lat="65.26191" lon="21.29407">
        <ele>71.807636</ele>
        <time>2020-09-27T08:35:36.840Z</time>
      </trkpt>
      <trkpt lat="65.26178" lon="21.29412">
        <ele>71.690072</ele>
        <time>2020-09-27T08:35:38.842Z</time>
      </trkpt>
      <trkpt lat="65.26165" lon="21.29415">
        <ele>71.576232</ele>
        <time>2020-09-27T08:35:40.840Z</time>
      </trkpt>
      <trkpt lat="65.26152" lon="21.2942">
        <ele>71.467332</ele>
        <time>2020-09-27T08:35:42.838Z</time>
      </trkpt>
      <trkpt lat="65.26141" lon="21.29424">
        <ele>71.364559</ele>
        <time>2020-09-27T08:35:44.858Z</time>
      </trkpt>
      <trkpt lat="65.26129" lon="21.29425">
        <ele>71.262713</ele>
        <time>2020-09-27T08:35:46.843Z</time>
      </trkpt>
      <trkpt lat="65.26117" lon="21.29426">
        <ele>71.162674</ele>
        <time>2020-09-27T08:35:48.836Z</time>
      </trkpt>
      <trkpt lat="65.26106" lon="21.29425">
        <ele>71.066144</ele>
        <time>2020-09-27T08:35:50.838Z</time>
      </trkpt>
      <trkpt lat="65.26096" lon="21.29425">
        <ele>70.977424</ele>
        <time>2020-09-27T08:35:52.839Z</time>
      </trkpt>
      <trkpt lat="65.26086" lon="21.29423">
        <ele>70.893662</ele>
        <time>2020-09-27T08:35:54.853Z</time>
      </trkpt>
      <trkpt lat="65.26078" lon="21.2942">
        <ele>70.815507</ele>
        <time>2020-09-27T08:35:56.839Z</time>
      </trkpt>
      <trkpt lat="65.26066" lon="21.29412">
        <ele>70.714901</ele>
        <time>2020-09-27T08:35:59.863Z</time>
      </trkpt>
      <trkpt lat="65.26054" lon="21.29407">
        <ele>70.609279</ele>
        <time>2020-09-27T08:36:02.851Z</time>
      </trkpt>
      <trkpt lat="65.26041" lon="21.29405">
        <ele>70.495812</ele>
        <time>2020-09-27T08:36:05.846Z</time>
      </trkpt>
      <trkpt lat="65.26029" lon="21.29399">
        <ele>70.387924</ele>
        <time>2020-09-27T08:36:08.860Z</time>
      </trkpt>
      <trkpt lat="65.26017" lon="21.29393">
        <ele>70.556089</ele>
        <time>2020-09-27T08:36:11.888Z</time>
      </trkpt>
      <trkpt lat="65.26006" lon="21.29387">
        <ele>70.939189</ele>
        <time>2020-09-27T08:36:14.870Z</time>
      </trkpt>
      <trkpt lat="65.25993" lon="21.29383">
        <ele>71.351999</ele>
        <time>2020-09-27T08:36:17.869Z</time>
      </trkpt>
      <trkpt lat="65.25981" lon="21.29379">
        <ele>71.765007</ele>
        <time>2020-09-27T08:36:20.880Z</time>
      </trkpt>
      <trkpt lat="65.25969" lon="21.29373">
        <ele>72.159648</ele>
        <time>2020-09-27T08:36:23.835Z</time>
      </trkpt>
      <trkpt lat="65.25958" lon="21.29368">
        <ele>72.531838</ele>
        <time>2020-09-27T08:36:26.857Z</time>
      </trkpt>
      <trkpt lat="65.25946" lon="21.29364">
        <ele>72.904662</ele>
        <time>2020-09-27T08:36:29.857Z</time>
      </trkpt>
      <trkpt lat="65.25935" lon="21.29359">
        <ele>73.297134</ele>
        <time>2020-09-27T08:36:32.837Z</time>
      </trkpt>
      <trkpt lat="65.25923" lon="21.29355">
        <ele>73.679498</ele>
        <time>2020-09-27T08:36:35.849Z</time>
      </trkpt>
      <trkpt lat="65.25912" lon="21.29352">
        <ele>74.038645</ele>
        <time>2020-09-27T08:36:38.842Z</time>
      </trkpt>
      <trkpt lat="65.25901" lon="21.29348">
        <ele>74.404807</ele>
        <time>2020-09-27T08:36:41.837Z</time>
      </trkpt>
      <trkpt lat="65.25889" lon="21.29344">
        <ele>74.79059</ele>
        <time>2020-09-27T08:36:44.838Z</time>
      </trkpt>
      <trkpt lat="65.25877" lon="21.29341">
        <ele>75.198132</ele>
        <time>2020-09-27T08:36:47.860Z</time>
      </trkpt>
      <trkpt lat="65.25864" lon="21.29338">
        <ele>75.618413</ele>
        <time>2020-09-27T08:36:50.845Z</time>
      </trkpt>
      <trkpt lat="65.25855" lon="21.29338">
        <ele>75.915986</ele>
        <time>2020-09-27T08:36:52.836Z</time>
      </trkpt>
      <trkpt lat="65.25846" lon="21.29337">
        <ele>76.217171</ele>
        <time>2020-09-27T08:36:54.857Z</time>
      </trkpt>
      <trkpt lat="65.25836" lon="21.29337">
        <ele>76.205809</ele>
        <time>2020-09-27T08:36:56.837Z</time>
      </trkpt>
      <trkpt lat="65.25823" lon="21.29336">
        <ele>76.189429</ele>
        <time>2020-09-27T08:36:59.855Z</time>
      </trkpt>
      <trkpt lat="65.25814" lon="21.29336">
        <ele>76.178189</ele>
        <time>2020-09-27T08:37:01.863Z</time>
      </trkpt>
      <trkpt lat="65.25804" lon="21.29337">
        <ele>76.166695</ele>
        <time>2020-09-27T08:37:03.834Z</time>
      </trkpt>
      <trkpt lat="65.25795" lon="21.29338">
        <ele>76.155332</ele>
        <time>2020-09-27T08:37:05.839Z</time>
      </trkpt>
      <trkpt lat="65.25786" lon="21.29339">
        <ele>76.144309</ele>
        <time>2020-09-27T08:37:07.870Z</time>
      </trkpt>
      <trkpt lat="65.25777" lon="21.2934">
        <ele>76.133185</ele>
        <time>2020-09-27T08:37:09.839Z</time>
      </trkpt>
      <trkpt lat="65.25768" lon="21.2934">
        <ele>76.121939</ele>
        <time>2020-09-27T08:37:11.863Z</time>
      </trkpt>
      <trkpt lat="65.25758" lon="21.29341">
        <ele>76.110203</ele>
        <time>2020-09-27T08:37:13.864Z</time>
      </trkpt>
      <trkpt lat="65.25749" lon="21.29343">
        <ele>76.099034</ele>
        <time>2020-09-27T08:37:15.928Z</time>
      </trkpt>
      <trkpt lat="65.2574" lon="21.29345">
        <ele>76.08752</ele>
        <time>2020-09-27T08:37:17.859Z</time>
      </trkpt>
      <trkpt lat="65.2573" lon="21.29347">
        <ele>76.075854</ele>
        <time>2020-09-27T08:37:19.880Z</time>
      </trkpt>
      <trkpt lat="65.25721" lon="21.2935">
        <ele>76.064795</ele>
        <time>2020-09-27T08:37:21.856Z</time>
      </trkpt>
      <trkpt lat="65.25712" lon="21.29352">
        <ele>76.0537</ele>
        <time>2020-09-27T08:37:23.869Z</time>
      </trkpt>
      <trkpt lat="65.25703" lon="21.29356">
        <ele>76.042783</ele>
        <time>2020-09-27T08:37:25.849Z</time>
      </trkpt>
      <trkpt lat="65.25694" lon="21.29361">
        <ele>76.031624</ele>
        <time>2020-09-27T08:37:27.841Z</time>
      </trkpt>
      <trkpt lat="65.25685" lon="21.29365">
        <ele>76.020541</ele>
        <time>2020-09-27T08:37:29.870Z</time>
      </trkpt>
      <trkpt lat="65.25676" lon="21.29369">
        <ele>76.008857</ele>
        <time>2020-09-27T08:37:31.884Z</time>
      </trkpt>
      <trkpt lat="65.25667" lon="21.29374">
        <ele>75.997917</ele>
        <time>2020-09-27T08:37:33.851Z</time>
      </trkpt>
      <trkpt lat="65.25658" lon="21.29378">
        <ele>76.109436</ele>
        <time>2020-09-27T08:37:35.874Z</time>
      </trkpt>
      <trkpt lat="65.25649" lon="21.29383">
        <ele>76.216778</ele>
        <time>2020-09-27T08:37:37.848Z</time>
      </trkpt>
      <trkpt lat="65.2564" lon="21.29388">
        <ele>76.327476</ele>
        <time>2020-09-27T08:37:39.841Z</time>
      </trkpt>
      <trkpt lat="65.25631" lon="21.29395">
        <ele>76.441518</ele>
        <time>2020-09-27T08:37:41.858Z</time>
      </trkpt>
      <trkpt lat="65.25622" lon="21.29399">
        <ele>76.552566</ele>
        <time>2020-09-27T08:37:43.867Z</time>
      </trkpt>
      <trkpt lat="65.2561" lon="21.29405">
        <ele>76.701091</ele>
        <time>2020-09-27T08:37:46.884Z</time>
      </trkpt>
      <trkpt lat="65.25599" lon="21.29414">
        <ele>76.837264</ele>
        <time>2020-09-27T08:37:49.845Z</time>
      </trkpt>
      <trkpt lat="65.25587" lon="21.2942">
        <ele>76.981023</ele>
        <time>2020-09-27T08:37:52.856Z</time>
      </trkpt>
      <trkpt lat="65.25575" lon="21.29427">
        <ele>77.124868</ele>
        <time>2020-09-27T08:37:55.898Z</time>
      </trkpt>
      <trkpt lat="65.25564" lon="21.29434">
        <ele>77.260516</ele>
        <time>2020-09-27T08:37:58.844Z</time>
      </trkpt>
      <trkpt lat="65.25553" lon="21.29441">
        <ele>77.393604</ele>
        <time>2020-09-27T08:38:01.899Z</time>
      </trkpt>
      <trkpt lat="65.25543" lon="21.29447">
        <ele>77.522855</ele>
        <time>2020-09-27T08:38:04.862Z</time>
      </trkpt>
      <trkpt lat="65.25532" lon="21.29453">
        <ele>77.657086</ele>
        <time>2020-09-27T08:38:07.861Z</time>
      </trkpt>
      <trkpt lat="65.25522" lon="21.29457">
        <ele>77.777266</ele>
        <time>2020-09-27T08:38:10.870Z</time>
      </trkpt>
      <trkpt lat="65.25513" lon="21.29463">
        <ele>77.886936</ele>
        <time>2020-09-27T08:38:13.852Z</time>
      </trkpt>
      <trkpt lat="65.25502" lon="21.29468">
        <ele>78.026312</ele>
        <time>2020-09-27T08:38:17.864Z</time>
      </trkpt>
      <trkpt lat="65.2549" lon="21.29474">
        <ele>78.299769</ele>
        <time>2020-09-27T08:38:21.858Z</time>
      </trkpt>
      <trkpt lat="65.2548" lon="21.29478">
        <ele>79.247362</ele>
        <time>2020-09-27T08:38:25.852Z</time>
      </trkpt>
      <trkpt lat="65.2547" lon="21.29482">
        <ele>80.208737</ele>
        <time>2020-09-27T08:38:29.861Z</time>
      </trkpt>
      <trkpt lat="65.25459" lon="21.29485">
        <ele>81.123084</ele>
        <time>2020-09-27T08:38:33.848Z</time>
      </trkpt>
      <trkpt lat="65.2545" lon="21.29487">
        <ele>81.955622</ele>
        <time>2020-09-27T08:38:37.860Z</time>
      </trkpt>
      <trkpt lat="65.25439" lon="21.29488">
        <ele>82.965991</ele>
        <time>2020-09-27T08:38:42.858Z</time>
      </trkpt>
      <trkpt lat="65.25429" lon="21.29487">
        <ele>83.84957</ele>
        <time>2020-09-27T08:38:46.904Z</time>
      </trkpt>
      <trkpt lat="65.25419" lon="21.29488">
        <ele>84.742054</ele>
        <time>2020-09-27T08:38:50.877Z</time>
      </trkpt>
      <trkpt lat="65.2541" lon="21.29488">
        <ele>85.571475</ele>
        <time>2020-09-27T08:38:54.844Z</time>
      </trkpt>
      <trkpt lat="65.254" lon="21.29487">
        <ele>86.52736</ele>
        <time>2020-09-27T08:38:59.847Z</time>
      </trkpt>
      <trkpt lat="65.2539" lon="21.29485">
        <ele>87.372594</ele>
        <time>2020-09-27T08:39:04.856Z</time>
      </trkpt>
      <trkpt lat="65.25381" lon="21.29484">
        <ele>88.192911</ele>
        <time>2020-09-27T08:39:09.861Z</time>
      </trkpt>
      <trkpt lat="65.25371" lon="21.2948">
        <ele>89.092263</ele>
        <time>2020-09-27T08:39:14.858Z</time>
      </trkpt>
      <trkpt lat="65.25361" lon="21.29476">
        <ele>89.996509</ele>
        <time>2020-09-27T08:39:19.848Z</time>
      </trkpt>
      <trkpt lat="65.25351" lon="21.2947">
        <ele>90.956458</ele>
        <time>2020-09-27T08:39:24.876Z</time>
      </trkpt>
      <trkpt lat="65.25341" lon="21.29466">
        <ele>91.860705</ele>
        <time>2020-09-27T08:39:29.850Z</time>
      </trkpt>
      <trkpt lat="65.25331" lon="21.29461">
        <ele>92.828654</ele>
        <time>2020-09-27T08:39:34.837Z</time>
      </trkpt>
      <trkpt lat="65.2532" lon="21.29455">
        <ele>93.802504</ele>
        <time>2020-09-27T08:39:39.872Z</time>
      </trkpt>
      <trkpt lat="65.25309" lon="21.29449">
        <ele>94.46007</ele>
        <time>2020-09-27T08:39:44.855Z</time>
      </trkpt>
      <trkpt lat="65.253" lon="21.29445">
        <ele>94.656169</ele>
        <time>2020-09-27T08:39:48.852Z</time>
      </trkpt>
      <trkpt lat="65.25291" lon="21.2944">
        <ele>94.865129</ele>
        <time>2020-09-27T08:39:52.894Z</time>
      </trkpt>
      <trkpt lat="65.2528" lon="21.29435">
        <ele>95.09112</ele>
        <time>2020-09-27T08:39:56.850Z</time>
      </trkpt>
      <trkpt lat="65.2527" lon="21.2943">
        <ele>95.308778</ele>
        <time>2020-09-27T08:40:00.874Z</time>
      </trkpt>
      <trkpt lat="65.2526" lon="21.29423">
        <ele>95.534679</ele>
        <time>2020-09-27T08:40:04.862Z</time>
      </trkpt>
      <trkpt lat="65.2525" lon="21.29417">
        <ele>95.754605</ele>
        <time>2020-09-27T08:40:08.863Z</time>
      </trkpt>
      <trkpt lat="65.2524" lon="21.29411">
        <ele>95.981374</ele>
        <time>2020-09-27T08:40:12.868Z</time>
      </trkpt>
      <trkpt lat="65.25228" lon="21.29404">
        <ele>96.233552</ele>
        <time>2020-09-27T08:40:16.854Z</time>
      </trkpt>
      <trkpt lat="65.25219" lon="21.294">
        <ele>96.437446</ele>
        <time>2020-09-27T08:40:19.867Z</time>
      </trkpt>
      <trkpt lat="65.25209" lon="21.29395">
        <ele>96.650213</ele>
        <time>2020-09-27T08:40:22.842Z</time>
      </trkpt>
      <trkpt lat="65.25199" lon="21.29391">
        <ele>96.855548</ele>
        <time>2020-09-27T08:40:25.855Z</time>
      </trkpt>
      <trkpt lat="65.2519" lon="21.29386">
        <ele>97.066053</ele>
        <time>2020-09-27T08:40:28.859Z</time>
      </trkpt>
      <trkpt lat="65.2518" lon="21.29383">
        <ele>97.264641</ele>
        <time>2020-09-27T08:40:31.837Z</time>
      </trkpt>
      <trkpt lat="65.25171" lon="21.29379">
        <ele>97.46925</ele>
        <time>2020-09-27T08:40:34.898Z</time>
      </trkpt>
      <trkpt lat="65.2516" lon="21.29375">
        <ele>97.698419</ele>
        <time>2020-09-27T08:40:37.897Z</time>
      </trkpt>
      <trkpt lat="65.25149" lon="21.29368">
        <ele>97.944848</ele>
        <time>2020-09-27T08:40:40.856Z</time>
      </trkpt>
      <trkpt lat="65.25139" lon="21.29362">
        <ele>98.172589</ele>
        <time>2020-09-27T08:40:43.860Z</time>
      </trkpt>
      <trkpt lat="65.25127" lon="21.29356">
        <ele>97.977877</ele>
        <time>2020-09-27T08:40:46.844Z</time>
      </trkpt>
      <trkpt lat="65.25115" lon="21.2935">
        <ele>97.760562</ele>
        <time>2020-09-27T08:40:49.857Z</time>
      </trkpt>
      <trkpt lat="65.25104" lon="21.29344">
        <ele>97.55169</ele>
        <time>2020-09-27T08:40:52.894Z</time>
      </trkpt>
      <trkpt lat="65.25091" lon="21.29338">
        <ele>97.324315</ele>
        <time>2020-09-27T08:40:55.869Z</time>
      </trkpt>
      <trkpt lat="65.25082" lon="21.29333">
        <ele>97.163704</ele>
        <time>2020-09-27T08:40:57.888Z</time>
      </trkpt>
      <trkpt lat="65.25073" lon="21.29329">
        <ele>96.99913</ele>
        <time>2020-09-27T08:40:59.859Z</time>
      </trkpt>
      <trkpt lat="65.25064" lon="21.29325">
        <ele>96.83428</ele>
        <time>2020-09-27T08:41:01.855Z</time>
      </trkpt>
      <trkpt lat="65.25054" lon="21.29321">
        <ele>96.669969</ele>
        <time>2020-09-27T08:41:03.858Z</time>
      </trkpt>
      <trkpt lat="65.25045" lon="21.29317">
        <ele>96.507123</ele>
        <time>2020-09-27T08:41:05.859Z</time>
      </trkpt>
      <trkpt lat="65.25036" lon="21.29313">
        <ele>96.345866</ele>
        <time>2020-09-27T08:41:07.866Z</time>
      </trkpt>
      <trkpt lat="65.25027" lon="21.2931">
        <ele>96.181121</ele>
        <time>2020-09-27T08:41:09.886Z</time>
      </trkpt>
      <trkpt lat="65.25017" lon="21.29306">
        <ele>96.011857</ele>
        <time>2020-09-27T08:41:11.859Z</time>
      </trkpt>
      <trkpt lat="65.25005" lon="21.293">
        <ele>95.780607</ele>
        <time>2020-09-27T08:41:14.879Z</time>
      </trkpt>
      <trkpt lat="65.24996" lon="21.29295">
        <ele>95.621709</ele>
        <time>2020-09-27T08:41:16.864Z</time>
      </trkpt>
      <trkpt lat="65.24987" lon="21.29292">
        <ele>95.459505</ele>
        <time>2020-09-27T08:41:18.855Z</time>
      </trkpt>
      <trkpt lat="65.24977" lon="21.29288">
        <ele>95.281669</ele>
        <time>2020-09-27T08:41:20.875Z</time>
      </trkpt>
      <trkpt lat="65.24967" lon="21.29286">
        <ele>95.105005</ele>
        <time>2020-09-27T08:41:22.849Z</time>
      </trkpt>
      <trkpt lat="65.24957" lon="21.29282">
        <ele>94.931195</ele>
        <time>2020-09-27T08:41:24.876Z</time>
      </trkpt>
      <trkpt lat="65.24947" lon="21.29278">
        <ele>94.757503</ele>
        <time>2020-09-27T08:41:26.880Z</time>
      </trkpt>
      <trkpt lat="65.24937" lon="21.29275">
        <ele>94.580994</ele>
        <time>2020-09-27T08:41:28.870Z</time>
      </trkpt>
      <trkpt lat="65.24927" lon="21.29272">
        <ele>94.40111</ele>
        <time>2020-09-27T08:41:30.883Z</time>
      </trkpt>
      <trkpt lat="65.24916" lon="21.29269">
        <ele>94.214455</ele>
        <time>2020-09-27T08:41:32.845Z</time>
      </trkpt>
      <trkpt lat="65.24906" lon="21.29266">
        <ele>94.038311</ele>
        <time>2020-09-27T08:41:34.859Z</time>
      </trkpt>
      <trkpt lat="65.24896" lon="21.29263">
        <ele>93.863119</ele>
        <time>2020-09-27T08:41:36.874Z</time>
      </trkpt>
      <trkpt lat="65.24886" lon="21.29259">
        <ele>93.680439</ele>
        <time>2020-09-27T08:41:38.864Z</time>
      </trkpt>
      <trkpt lat="65.24876" lon="21.29255">
        <ele>93.494965</ele>
        <time>2020-09-27T08:41:40.866Z</time>
      </trkpt>
      <trkpt lat="65.24865" lon="21.29252">
        <ele>93.309591</ele>
        <time>2020-09-27T08:41:42.856Z</time>
      </trkpt>
      <trkpt lat="65.24854" lon="21.29248">
        <ele>93.122484</ele>
        <time>2020-09-27T08:41:44.892Z</time>
      </trkpt>
      <trkpt lat="65.24844" lon="21.29244">
        <ele>92.94313</ele>
        <time>2020-09-27T08:41:46.844Z</time>
      </trkpt>
      <trkpt lat="65.24834" lon="21.29241">
        <ele>92.768808</ele>
        <time>2020-09-27T08:41:48.861Z</time>
      </trkpt>
      <trkpt lat="65.24824" lon="21.29238">
        <ele>92.589934</ele>
        <time>2020-09-27T08:41:50.867Z</time>
      </trkpt>
      <trkpt lat="65.24814" lon="21.29234">
        <ele>92.407713</ele>
        <time>2020-09-27T08:41:52.848Z</time>
      </trkpt>
      <trkpt lat="65.24803" lon="21.29231">
        <ele>92.219319</ele>
        <time>2020-09-27T08:41:54.896Z</time>
      </trkpt>
      <trkpt lat="65.24792" lon="21.29229">
        <ele>92.028009</ele>
        <time>2020-09-27T08:41:56.845Z</time>
      </trkpt>
      <trkpt lat="65.24782" lon="21.29227">
        <ele>91.806384</ele>
        <time>2020-09-27T08:41:58.856Z</time>
      </trkpt>
      <trkpt lat="65.24771" lon="21.29224">
        <ele>91.434448</ele>
        <time>2020-09-27T08:42:00.855Z</time>
      </trkpt>
      <trkpt lat="65.24759" lon="21.29221">
        <ele>91.059016</ele>
        <time>2020-09-27T08:42:02.867Z</time>
      </trkpt>
      <trkpt lat="65.24747" lon="21.29218">
        <ele>90.650586</ele>
        <time>2020-09-27T08:42:04.844Z</time>
      </trkpt>
      <trkpt lat="65.24735" lon="21.29214">
        <ele>90.243941</ele>
        <time>2020-09-27T08:42:06.842Z</time>
      </trkpt>
      <trkpt lat="65.24723" lon="21.29212">
        <ele>89.822369</ele>
        <time>2020-09-27T08:42:08.852Z</time>
      </trkpt>
      <trkpt lat="65.2471" lon="21.2921">
        <ele>89.397561</ele>
        <time>2020-09-27T08:42:10.854Z</time>
      </trkpt>
      <trkpt lat="65.24698" lon="21.29205">
        <ele>88.966065</ele>
        <time>2020-09-27T08:42:12.846Z</time>
      </trkpt>
      <trkpt lat="65.24685" lon="21.29201">
        <ele>88.532741</ele>
        <time>2020-09-27T08:42:14.858Z</time>
      </trkpt>
      <trkpt lat="65.24672" lon="21.29198">
        <ele>88.090177</ele>
        <time>2020-09-27T08:42:16.863Z</time>
      </trkpt>
      <trkpt lat="65.24658" lon="21.29195">
        <ele>87.641064</ele>
        <time>2020-09-27T08:42:18.857Z</time>
      </trkpt>
      <trkpt lat="65.24645" lon="21.29192">
        <ele>87.19137</ele>
        <time>2020-09-27T08:42:20.850Z</time>
      </trkpt>
      <trkpt lat="65.24632" lon="21.29189">
        <ele>86.7393</ele>
        <time>2020-09-27T08:42:22.838Z</time>
      </trkpt>
      <trkpt lat="65.24618" lon="21.29187">
        <ele>86.294689</ele>
        <time>2020-09-27T08:42:24.860Z</time>
      </trkpt>
      <trkpt lat="65.24605" lon="21.29185">
        <ele>85.857273</ele>
        <time>2020-09-27T08:42:26.868Z</time>
      </trkpt>
      <trkpt lat="65.24593" lon="21.29182">
        <ele>85.308074</ele>
        <time>2020-09-27T08:42:28.850Z</time>
      </trkpt>
      <trkpt lat="65.24581" lon="21.2918">
        <ele>84.761949</ele>
        <time>2020-09-27T08:42:30.876Z</time>
      </trkpt>
      <trkpt lat="65.24569" lon="21.29179">
        <ele>84.22188</ele>
        <time>2020-09-27T08:42:32.876Z</time>
      </trkpt>
      <trkpt lat="65.24556" lon="21.29177">
        <ele>83.654291</ele>
        <time>2020-09-27T08:42:34.861Z</time>
      </trkpt>
      <trkpt lat="65.24544" lon="21.29176">
        <ele>83.105236</ele>
        <time>2020-09-27T08:42:36.851Z</time>
      </trkpt>
      <trkpt lat="65.24532" lon="21.29175">
        <ele>82.55183</ele>
        <time>2020-09-27T08:42:38.866Z</time>
      </trkpt>
      <trkpt lat="65.2452" lon="21.29173">
        <ele>82.028862</ele>
        <time>2020-09-27T08:42:40.889Z</time>
      </trkpt>
      <trkpt lat="65.24509" lon="21.29171">
        <ele>81.52871</ele>
        <time>2020-09-27T08:42:42.859Z</time>
      </trkpt>
      <trkpt lat="65.24498" lon="21.29169">
        <ele>81.032188</ele>
        <time>2020-09-27T08:42:44.852Z</time>
      </trkpt>
      <trkpt lat="65.24487" lon="21.29166">
        <ele>80.531498</ele>
        <time>2020-09-27T08:42:46.888Z</time>
      </trkpt>
      <trkpt lat="65.24476" lon="21.29165">
        <ele>80.045245</ele>
        <time>2020-09-27T08:42:48.846Z</time>
      </trkpt>
      <trkpt lat="65.24465" lon="21.29164">
        <ele>79.54583</ele>
        <time>2020-09-27T08:42:50.863Z</time>
      </trkpt>
      <trkpt lat="65.24454" lon="21.29163">
        <ele>79.055086</ele>
        <time>2020-09-27T08:42:52.858Z</time>
      </trkpt>
      <trkpt lat="65.24444" lon="21.29163">
        <ele>78.578383</ele>
        <time>2020-09-27T08:42:54.859Z</time>
      </trkpt>
      <trkpt lat="65.24433" lon="21.29163">
        <ele>78.110491</ele>
        <time>2020-09-27T08:42:56.862Z</time>
      </trkpt>
      <trkpt lat="65.24423" lon="21.29161">
        <ele>77.743432</ele>
        <time>2020-09-27T08:42:58.849Z</time>
      </trkpt>
      <trkpt lat="65.24413" lon="21.2916">
        <ele>77.777689</ele>
        <time>2020-09-27T08:43:00.883Z</time>
      </trkpt>
      <trkpt lat="65.24402" lon="21.29159">
        <ele>77.812288</ele>
        <time>2020-09-27T08:43:02.883Z</time>
      </trkpt>
      <trkpt lat="65.24392" lon="21.29158">
        <ele>77.845857</ele>
        <time>2020-09-27T08:43:04.843Z</time>
      </trkpt>
      <trkpt lat="65.24382" lon="21.29157">
        <ele>77.880096</ele>
        <time>2020-09-27T08:43:06.844Z</time>
      </trkpt>
      <trkpt lat="65.24372" lon="21.29156">
        <ele>77.913995</ele>
        <time>2020-09-27T08:43:08.841Z</time>
      </trkpt>
      <trkpt lat="65.24362" lon="21.29155">
        <ele>77.946899</ele>
        <time>2020-09-27T08:43:10.868Z</time>
      </trkpt>
      <trkpt lat="65.24353" lon="21.29153">
        <ele>77.979237</ele>
        <time>2020-09-27T08:43:12.874Z</time>
      </trkpt>
      <trkpt lat="65.24343" lon="21.29153">
        <ele>78.01178</ele>
        <time>2020-09-27T08:43:14.855Z</time>
      </trkpt>
      <trkpt lat="65.24334" lon="21.29153">
        <ele>78.043315</ele>
        <time>2020-09-27T08:43:16.855Z</time>
      </trkpt>
      <trkpt lat="65.24324" lon="21.29152">
        <ele>78.074855</ele>
        <time>2020-09-27T08:43:18.854Z</time>
      </trkpt>
      <trkpt lat="65.24314" lon="21.29152">
        <ele>78.108069</ele>
        <time>2020-09-27T08:43:20.860Z</time>
      </trkpt>
      <trkpt lat="65.24304" lon="21.29152">
        <ele>78.144305</ele>
        <time>2020-09-27T08:43:22.843Z</time>
      </trkpt>
      <trkpt lat="65.24293" lon="21.2915">
        <ele>78.180937</ele>
        <time>2020-09-27T08:43:24.876Z</time>
      </trkpt>
      <trkpt lat="65.24282" lon="21.29149">
        <ele>78.21553</ele>
        <time>2020-09-27T08:43:26.902Z</time>
      </trkpt>
      <trkpt lat="65.24272" lon="21.29148">
        <ele>78.250095</ele>
        <time>2020-09-27T08:43:28.839Z</time>
      </trkpt>
      <trkpt lat="65.24262" lon="21.29147">
        <ele>78.285016</ele>
        <time>2020-09-27T08:43:30.840Z</time>
      </trkpt>
      <trkpt lat="65.24251" lon="21.29146">
        <ele>78.319255</ele>
        <time>2020-09-27T08:43:32.874Z</time>
      </trkpt>
      <trkpt lat="65.24241" lon="21.29145">
        <ele>78.327406</ele>
        <time>2020-09-27T08:43:34.883Z</time>
      </trkpt>
      <trkpt lat="65.24231" lon="21.29144">
        <ele>78.296299</ele>
        <time>2020-09-27T08:43:36.857Z</time>
      </trkpt>
      <trkpt lat="65.24221" lon="21.29143">
        <ele>78.266102</ele>
        <time>2020-09-27T08:43:38.862Z</time>
      </trkpt>
      <trkpt lat="65.24211" lon="21.29142">
        <ele>78.235324</ele>
        <time>2020-09-27T08:43:40.853Z</time>
      </trkpt>
      <trkpt lat="65.242" lon="21.29142">
        <ele>78.203949</ele>
        <time>2020-09-27T08:43:42.861Z</time>
      </trkpt>
      <trkpt lat="65.2419" lon="21.29141">
        <ele>78.172858</ele>
        <time>2020-09-27T08:43:44.847Z</time>
      </trkpt>
      <trkpt lat="65.2418" lon="21.2914">
        <ele>78.141762</ele>
        <time>2020-09-27T08:43:46.847Z</time>
      </trkpt>
      <trkpt lat="65.24169" lon="21.29139">
        <ele>78.111245</ele>
        <time>2020-09-27T08:43:48.862Z</time>
      </trkpt>
      <trkpt lat="65.24159" lon="21.29138">
        <ele>78.080752</ele>
        <time>2020-09-27T08:43:50.867Z</time>
      </trkpt>
      <trkpt lat="65.24149" lon="21.29137">
        <ele>78.050867</ele>
        <time>2020-09-27T08:43:52.857Z</time>
      </trkpt>
      <trkpt lat="65.2414" lon="21.29136">
        <ele>78.02158</ele>
        <time>2020-09-27T08:43:54.875Z</time>
      </trkpt>
      <trkpt lat="65.2413" lon="21.29135">
        <ele>77.993214</ele>
        <time>2020-09-27T08:43:56.863Z</time>
      </trkpt>
      <trkpt lat="65.24121" lon="21.29135">
        <ele>77.965764</ele>
        <time>2020-09-27T08:43:58.841Z</time>
      </trkpt>
      <trkpt lat="65.24112" lon="21.29135">
        <ele>77.938615</ele>
        <time>2020-09-27T08:44:00.850Z</time>
      </trkpt>
      <trkpt lat="65.24103" lon="21.29134">
        <ele>77.910533</ele>
        <time>2020-09-27T08:44:02.886Z</time>
      </trkpt>
      <trkpt lat="65.2409" lon="21.29134">
        <ele>77.871314</ele>
        <time>2020-09-27T08:44:05.864Z</time>
      </trkpt>
      <trkpt lat="65.24077" lon="21.29132">
        <ele>77.832349</ele>
        <time>2020-09-27T08:44:08.861Z</time>
      </trkpt>
      <trkpt lat="65.24065" lon="21.29131">
        <ele>77.838843</ele>
        <time>2020-09-27T08:44:11.843Z</time>
      </trkpt>
      <trkpt lat="65.24052" lon="21.29129">
        <ele>78.431308</ele>
        <time>2020-09-27T08:44:14.863Z</time>
      </trkpt>
      <trkpt lat="65.2404" lon="21.29129">
        <ele>78.999142</ele>
        <time>2020-09-27T08:44:17.851Z</time>
      </trkpt>
      <trkpt lat="65.24029" lon="21.29127">
        <ele>79.553184</ele>
        <time>2020-09-27T08:44:20.883Z</time>
      </trkpt>
      <trkpt lat="65.24017" lon="21.29127">
        <ele>80.092397</ele>
        <time>2020-09-27T08:44:23.875Z</time>
      </trkpt>
      <trkpt lat="65.24007" lon="21.29127">
        <ele>80.607678</ele>
        <time>2020-09-27T08:44:26.847Z</time>
      </trkpt>
      <trkpt lat="65.23996" lon="21.29126">
        <ele>81.108647</ele>
        <time>2020-09-27T08:44:29.849Z</time>
      </trkpt>
      <trkpt lat="65.23986" lon="21.29126">
        <ele>81.609635</ele>
        <time>2020-09-27T08:44:32.842Z</time>
      </trkpt>
      <trkpt lat="65.23976" lon="21.29124">
        <ele>82.092563</ele>
        <time>2020-09-27T08:44:35.879Z</time>
      </trkpt>
      <trkpt lat="65.23965" lon="21.29124">
        <ele>82.584303</ele>
        <time>2020-09-27T08:44:38.851Z</time>
      </trkpt>
      <trkpt lat="65.23955" lon="21.29124">
        <ele>83.095047</ele>
        <time>2020-09-27T08:44:41.854Z</time>
      </trkpt>
      <trkpt lat="65.23944" lon="21.29125">
        <ele>83.605558</ele>
        <time>2020-09-27T08:44:44.857Z</time>
      </trkpt>
      <trkpt lat="65.23934" lon="21.29125">
        <ele>84.087575</ele>
        <time>2020-09-27T08:44:47.848Z</time>
      </trkpt>
      <trkpt lat="65.23923" lon="21.29126">
        <ele>84.598168</ele>
        <time>2020-09-27T08:44:50.900Z</time>
      </trkpt>
      <trkpt lat="65.23912" lon="21.29127">
        <ele>85.104211</ele>
        <time>2020-09-27T08:44:53.877Z</time>
      </trkpt>
      <trkpt lat="65.23902" lon="21.29127">
        <ele>85.610254</ele>
        <time>2020-09-27T08:44:56.854Z</time>
      </trkpt>
      <trkpt lat="65.23891" lon="21.2913">
        <ele>86.146249</ele>
        <time>2020-09-27T08:44:59.859Z</time>
      </trkpt>
      <trkpt lat="65.23879" lon="21.29131">
        <ele>86.508537</ele>
        <time>2020-09-27T08:45:02.835Z</time>
      </trkpt>
      <trkpt lat="65.23868" lon="21.29132">
        <ele>86.729868</ele>
        <time>2020-09-27T08:45:05.859Z</time>
      </trkpt>
      <trkpt lat="65.23857" lon="21.29132">
        <ele>86.953298</ele>
        <time>2020-09-27T08:45:08.868Z</time>
      </trkpt>
      <trkpt lat="65.23845" lon="21.29132">
        <ele>87.200793</ele>
        <time>2020-09-27T08:45:11.858Z</time>
      </trkpt>
      <trkpt lat="65.23833" lon="21.29134">
        <ele>87.439065</ele>
        <time>2020-09-27T08:45:14.864Z</time>
      </trkpt>
      <trkpt lat="65.23821" lon="21.29138">
        <ele>87.684001</ele>
        <time>2020-09-27T08:45:17.863Z</time>
      </trkpt>
      <trkpt lat="65.23808" lon="21.2914">
        <ele>87.942393</ele>
        <time>2020-09-27T08:45:20.868Z</time>
      </trkpt>
      <trkpt lat="65.23796" lon="21.29143">
        <ele>88.191519</ele>
        <time>2020-09-27T08:45:23.844Z</time>
      </trkpt>
      <trkpt lat="65.23784" lon="21.29147">
        <ele>88.442642</ele>
        <time>2020-09-27T08:45:26.859Z</time>
      </trkpt>
      <trkpt lat="65.23771" lon="21.29149">
        <ele>88.690687</ele>
        <time>2020-09-27T08:45:29.854Z</time>
      </trkpt>
      <trkpt lat="65.23759" lon="21.29153">
        <ele>88.940798</ele>
        <time>2020-09-27T08:45:32.878Z</time>
      </trkpt>
      <trkpt lat="65.23746" lon="21.29155">
        <ele>89.19699</ele>
        <time>2020-09-27T08:45:35.873Z</time>
      </trkpt>
      <trkpt lat="65.23733" lon="21.29159">
        <ele>89.46211</ele>
        <time>2020-09-27T08:45:38.862Z</time>
      </trkpt>
      <trkpt lat="65.2372" lon="21.29163">
        <ele>89.725938</ele>
        <time>2020-09-27T08:45:41.880Z</time>
      </trkpt>
      <trkpt lat="65.23707" lon="21.29168">
        <ele>89.993124</ele>
        <time>2020-09-27T08:45:44.869Z</time>
      </trkpt>
      <trkpt lat="65.23698" lon="21.29172">
        <ele>89.796246</ele>
        <time>2020-09-27T08:45:46.866Z</time>
      </trkpt>
      <trkpt lat="65.23689" lon="21.29176">
        <ele>89.584834</ele>
        <time>2020-09-27T08:45:48.864Z</time>
      </trkpt>
      <trkpt lat="65.23679" lon="21.2918">
        <ele>89.368512</ele>
        <time>2020-09-27T08:45:50.855Z</time>
      </trkpt>
      <trkpt lat="65.23669" lon="21.29185">
        <ele>89.140126</ele>
        <time>2020-09-27T08:45:52.896Z</time>
      </trkpt>
      <trkpt lat="65.23659" lon="21.2919">
        <ele>88.914119</ele>
        <time>2020-09-27T08:45:54.862Z</time>
      </trkpt>
      <trkpt lat="65.23649" lon="21.29194">
        <ele>88.686457</ele>
        <time>2020-09-27T08:45:56.852Z</time>
      </trkpt>
      <trkpt lat="65.23639" lon="21.29198">
        <ele>88.457852</ele>
        <time>2020-09-27T08:45:58.855Z</time>
      </trkpt>
      <trkpt lat="65.23628" lon="21.29203">
        <ele>88.211731</ele>
        <time>2020-09-27T08:46:00.868Z</time>
      </trkpt>
      <trkpt lat="65.23618" lon="21.29208">
        <ele>87.97018</ele>
        <time>2020-09-27T08:46:02.860Z</time>
      </trkpt>
      <trkpt lat="65.23607" lon="21.29213">
        <ele>87.720541</ele>
        <time>2020-09-27T08:46:04.897Z</time>
      </trkpt>
      <trkpt lat="65.23596" lon="21.29219">
        <ele>87.476248</ele>
        <time>2020-09-27T08:46:06.860Z</time>
      </trkpt>
      <trkpt lat="65.23585" lon="21.29225">
        <ele>87.224019</ele>
        <time>2020-09-27T08:46:08.880Z</time>
      </trkpt>
      <trkpt lat="65.23574" lon="21.2923">
        <ele>86.974966</ele>
        <time>2020-09-27T08:46:10.861Z</time>
      </trkpt>
      <trkpt lat="65.23563" lon="21.29236">
        <ele>86.711411</ele>
        <time>2020-09-27T08:46:12.857Z</time>
      </trkpt>
      <trkpt lat="65.23551" lon="21.29243">
        <ele>86.450924</ele>
        <time>2020-09-27T08:46:14.855Z</time>
      </trkpt>
      <trkpt lat="65.2354" lon="21.29249">
        <ele>86.189956</ele>
        <time>2020-09-27T08:46:16.868Z</time>
      </trkpt>
      <trkpt lat="65.23528" lon="21.29255">
        <ele>85.873953</ele>
        <time>2020-09-27T08:46:18.852Z</time>
      </trkpt>
      <trkpt lat="65.23517" lon="21.29263">
        <ele>85.368034</ele>
        <time>2020-09-27T08:46:20.861Z</time>
      </trkpt>
      <trkpt lat="65.23505" lon="21.29271">
        <ele>84.84682</ele>
        <time>2020-09-27T08:46:22.884Z</time>
      </trkpt>
      <trkpt lat="65.23494" lon="21.2928">
        <ele>84.323523</ele>
        <time>2020-09-27T08:46:24.858Z</time>
      </trkpt>
      <trkpt lat="65.23481" lon="21.29288">
        <ele>83.773104</ele>
        <time>2020-09-27T08:46:26.856Z</time>
      </trkpt>
      <trkpt lat="65.23469" lon="21.29296">
        <ele>83.236952</ele>
        <time>2020-09-27T08:46:28.843Z</time>
      </trkpt>
      <trkpt lat="65.23456" lon="21.29305">
        <ele>82.673717</ele>
        <time>2020-09-27T08:46:30.858Z</time>
      </trkpt>
      <trkpt lat="65.23444" lon="21.29314">
        <ele>82.124877</ele>
        <time>2020-09-27T08:46:32.862Z</time>
      </trkpt>
      <trkpt lat="65.23432" lon="21.29323">
        <ele>81.575515</ele>
        <time>2020-09-27T08:46:34.846Z</time>
      </trkpt>
      <trkpt lat="65.23419" lon="21.29331">
        <ele>81.022586</ele>
        <time>2020-09-27T08:46:36.846Z</time>
      </trkpt>
      <trkpt lat="65.23407" lon="21.29341">
        <ele>80.464533</ele>
        <time>2020-09-27T08:46:38.859Z</time>
      </trkpt>
      <trkpt lat="65.23394" lon="21.29351">
        <ele>79.901573</ele>
        <time>2020-09-27T08:46:40.844Z</time>
      </trkpt>
      <trkpt lat="65.23382" lon="21.29359">
        <ele>79.357337</ele>
        <time>2020-09-27T08:46:42.858Z</time>
      </trkpt>
      <trkpt lat="65.2337" lon="21.29368">
        <ele>78.796224</ele>
        <time>2020-09-27T08:46:44.855Z</time>
      </trkpt>
      <trkpt lat="65.23357" lon="21.29378">
        <ele>78.259901</ele>
        <time>2020-09-27T08:46:46.844Z</time>
      </trkpt>
      <trkpt lat="65.23345" lon="21.29388">
        <ele>77.938241</ele>
        <time>2020-09-27T08:46:48.875Z</time>
      </trkpt>
      <trkpt lat="65.23333" lon="21.29397">
        <ele>77.613351</ele>
        <time>2020-09-27T08:46:50.877Z</time>
      </trkpt>
      <trkpt lat="65.23321" lon="21.29406">
        <ele>77.283564</ele>
        <time>2020-09-27T08:46:52.892Z</time>
      </trkpt>
      <trkpt lat="65.23309" lon="21.29414">
        <ele>76.960231</ele>
        <time>2020-09-27T08:46:54.856Z</time>
      </trkpt>
      <trkpt lat="65.23297" lon="21.29423">
        <ele>76.650325</ele>
        <time>2020-09-27T08:46:56.858Z</time>
      </trkpt>
      <trkpt lat="65.23286" lon="21.29431">
        <ele>76.343262</ele>
        <time>2020-09-27T08:46:58.854Z</time>
      </trkpt>
      <trkpt lat="65.23274" lon="21.29439">
        <ele>76.037735</ele>
        <time>2020-09-27T08:47:00.865Z</time>
      </trkpt>
      <trkpt lat="65.23263" lon="21.29448">
        <ele>75.734449</ele>
        <time>2020-09-27T08:47:02.852Z</time>
      </trkpt>
      <trkpt lat="65.23252" lon="21.29456">
        <ele>75.432304</ele>
        <time>2020-09-27T08:47:04.842Z</time>
      </trkpt>
      <trkpt lat="65.23241" lon="21.29465">
        <ele>75.130375</ele>
        <time>2020-09-27T08:47:06.864Z</time>
      </trkpt>
      <trkpt lat="65.2323" lon="21.29473">
        <ele>74.83464</ele>
        <time>2020-09-27T08:47:08.889Z</time>
      </trkpt>
      <trkpt lat="65.23218" lon="21.29482">
        <ele>74.531246</ele>
        <time>2020-09-27T08:47:10.869Z</time>
      </trkpt>
      <trkpt lat="65.23207" lon="21.29488">
        <ele>74.233281</ele>
        <time>2020-09-27T08:47:12.852Z</time>
      </trkpt>
      <trkpt lat="65.23196" lon="21.29495">
        <ele>73.935063</ele>
        <time>2020-09-27T08:47:14.860Z</time>
      </trkpt>
      <trkpt lat="65.23184" lon="21.29501">
        <ele>73.711686</ele>
        <time>2020-09-27T08:47:16.858Z</time>
      </trkpt>
      <trkpt lat="65.23173" lon="21.29507">
        <ele>73.906128</ele>
        <time>2020-09-27T08:47:18.851Z</time>
      </trkpt>
      <trkpt lat="65.23161" lon="21.29513">
        <ele>74.096794</ele>
        <time>2020-09-27T08:47:20.855Z</time>
      </trkpt>
      <trkpt lat="65.2315" lon="21.29517">
        <ele>74.281216</ele>
        <time>2020-09-27T08:47:22.851Z</time>
      </trkpt>
      <trkpt lat="65.23139" lon="21.29521">
        <ele>74.463572</ele>
        <time>2020-09-27T08:47:24.846Z</time>
      </trkpt>
      <trkpt lat="65.23128" lon="21.29526">
        <ele>74.645821</ele>
        <time>2020-09-27T08:47:26.869Z</time>
      </trkpt>
      <trkpt lat="65.23117" lon="21.2953">
        <ele>74.829903</ele>
        <time>2020-09-27T08:47:28.856Z</time>
      </trkpt>
      <trkpt lat="65.23106" lon="21.29533">
        <ele>75.006791</ele>
        <time>2020-09-27T08:47:30.876Z</time>
      </trkpt>
      <trkpt lat="65.23096" lon="21.29537">
        <ele>75.184941</ele>
        <time>2020-09-27T08:47:32.878Z</time>
      </trkpt>
      <trkpt lat="65.23085" lon="21.2954">
        <ele>75.362927</ele>
        <time>2020-09-27T08:47:34.851Z</time>
      </trkpt>
      <trkpt lat="65.23074" lon="21.29541">
        <ele>75.536837</ele>
        <time>2020-09-27T08:47:36.861Z</time>
      </trkpt>
      <trkpt lat="65.23063" lon="21.29543">
        <ele>75.714014</ele>
        <time>2020-09-27T08:47:38.851Z</time>
      </trkpt>
      <trkpt lat="65.23053" lon="21.29545">
        <ele>75.886443</ele>
        <time>2020-09-27T08:47:40.878Z</time>
      </trkpt>
      <trkpt lat="65.23042" lon="21.29547">
        <ele>76.060353</ele>
        <time>2020-09-27T08:47:42.868Z</time>
      </trkpt>
      <trkpt lat="65.23032" lon="21.29547">
        <ele>76.235558</ele>
        <time>2020-09-27T08:47:44.848Z</time>
      </trkpt>
      <trkpt lat="65.23021" lon="21.29549">
        <ele>76.409342</ele>
        <time>2020-09-27T08:47:46.880Z</time>
      </trkpt>
      <trkpt lat="65.23011" lon="21.2955">
        <ele>76.569912</ele>
        <time>2020-09-27T08:47:48.860Z</time>
      </trkpt>
      <trkpt lat="65.23002" lon="21.29549">
        <ele>76.675472</ele>
        <time>2020-09-27T08:47:50.855Z</time>
      </trkpt>
      <trkpt lat="65.22992" lon="21.29548">
        <ele>76.75095</ele>
        <time>2020-09-27T08:47:52.889Z</time>
      </trkpt>
      <trkpt lat="65.22983" lon="21.29547">
        <ele>76.831241</ele>
        <time>2020-09-27T08:47:54.856Z</time>
      </trkpt>
      <trkpt lat="65.22972" lon="21.29546">
        <ele>76.913976</ele>
        <time>2020-09-27T08:47:56.869Z</time>
      </trkpt>
      <trkpt lat="65.22963" lon="21.29544">
        <ele>76.993616</ele>
        <time>2020-09-27T08:47:58.867Z</time>
      </trkpt>
      <trkpt lat="65.22953" lon="21.29542">
        <ele>77.07078</ele>
        <time>2020-09-27T08:48:00.858Z</time>
      </trkpt>
      <trkpt lat="65.22944" lon="21.2954">
        <ele>77.147283</ele>
        <time>2020-09-27T08:48:02.856Z</time>
      </trkpt>
      <trkpt lat="65.22934" lon="21.29538">
        <ele>77.223753</ele>
        <time>2020-09-27T08:48:04.838Z</time>
      </trkpt>
      <trkpt lat="65.22921" lon="21.29534">
        <ele>77.328839</ele>
        <time>2020-09-27T08:48:07.845Z</time>
      </trkpt>
      <trkpt lat="65.22909" lon="21.29529">
        <ele>77.433896</ele>
        <time>2020-09-27T08:48:10.908Z</time>
      </trkpt>
      <trkpt lat="65.22899" lon="21.29525">
        <ele>77.511175</ele>
        <time>2020-09-27T08:48:12.844Z</time>
      </trkpt>
      <trkpt lat="65.2289" lon="21.29522">
        <ele>77.588839</ele>
        <time>2020-09-27T08:48:14.843Z</time>
      </trkpt>
      <trkpt lat="65.2288" lon="21.2952">
        <ele>77.667979</ele>
        <time>2020-09-27T08:48:16.860Z</time>
      </trkpt>
      <trkpt lat="65.2287" lon="21.29516">
        <ele>77.750107</ele>
        <time>2020-09-27T08:48:18.857Z</time>
      </trkpt>
      <trkpt lat="65.2286" lon="21.29512">
        <ele>77.832125</ele>
        <time>2020-09-27T08:48:20.859Z</time>
      </trkpt>
      <trkpt lat="65.2285" lon="21.29508">
        <ele>77.912599</ele>
        <time>2020-09-27T08:48:22.855Z</time>
      </trkpt>
      <trkpt lat="65.2284" lon="21.29502">
        <ele>77.994065</ele>
        <time>2020-09-27T08:48:24.868Z</time>
      </trkpt>
      <trkpt lat="65.2283" lon="21.29498">
        <ele>78.076553</ele>
        <time>2020-09-27T08:48:26.846Z</time>
      </trkpt>
      <trkpt lat="65.22821" lon="21.29493">
        <ele>77.652768</ele>
        <time>2020-09-27T08:48:28.874Z</time>
      </trkpt>
      <trkpt lat="65.22811" lon="21.29488">
        <ele>77.165515</ele>
        <time>2020-09-27T08:48:30.863Z</time>
      </trkpt>
      <trkpt lat="65.228" lon="21.29481">
        <ele>76.66334</ele>
        <time>2020-09-27T08:48:32.860Z</time>
      </trkpt>
      <trkpt lat="65.2279" lon="21.29474">
        <ele>76.134535</ele>
        <time>2020-09-27T08:48:34.848Z</time>
      </trkpt>
      <trkpt lat="65.22779" lon="21.29466">
        <ele>75.591508</ele>
        <time>2020-09-27T08:48:36.854Z</time>
      </trkpt>
      <trkpt lat="65.22768" lon="21.29459">
        <ele>75.033608</ele>
        <time>2020-09-27T08:48:38.856Z</time>
      </trkpt>
      <trkpt lat="65.22756" lon="21.29451">
        <ele>74.482642</ele>
        <time>2020-09-27T08:48:40.867Z</time>
      </trkpt>
      <trkpt lat="65.22745" lon="21.29441">
        <ele>73.914725</ele>
        <time>2020-09-27T08:48:42.850Z</time>
      </trkpt>
      <trkpt lat="65.22734" lon="21.29431">
        <ele>73.328059</ele>
        <time>2020-09-27T08:48:44.861Z</time>
      </trkpt>
      <trkpt lat="65.22722" lon="21.29421">
        <ele>72.722804</ele>
        <time>2020-09-27T08:48:46.860Z</time>
      </trkpt>
      <trkpt lat="65.22709" lon="21.29411">
        <ele>72.11106</ele>
        <time>2020-09-27T08:48:48.895Z</time>
      </trkpt>
      <trkpt lat="65.22697" lon="21.29401">
        <ele>71.507119</ele>
        <time>2020-09-27T08:48:50.848Z</time>
      </trkpt>
      <trkpt lat="65.22686" lon="21.29389">
        <ele>70.903708</ele>
        <time>2020-09-27T08:48:52.855Z</time>
      </trkpt>
      <trkpt lat="65.22674" lon="21.29376">
        <ele>70.304391</ele>
        <time>2020-09-27T08:48:54.866Z</time>
      </trkpt>
      <trkpt lat="65.22663" lon="21.29362">
        <ele>69.675927</ele>
        <time>2020-09-27T08:48:56.879Z</time>
      </trkpt>
      <trkpt lat="65.22651" lon="21.29349">
        <ele>69.129156</ele>
        <time>2020-09-27T08:48:58.880Z</time>
      </trkpt>
      <trkpt lat="65.22639" lon="21.29334">
        <ele>68.616618</ele>
        <time>2020-09-27T08:49:00.892Z</time>
      </trkpt>
      <trkpt lat="65.22627" lon="21.2932">
        <ele>68.08365</ele>
        <time>2020-09-27T08:49:02.876Z</time>
      </trkpt>
      <trkpt lat="65.22615" lon="21.29305">
        <ele>67.549175</ele>
        <time>2020-09-27T08:49:04.902Z</time>
      </trkpt>
      <trkpt lat="65.22602" lon="21.29289">
        <ele>67.00547</ele>
        <time>2020-09-27T08:49:06.847Z</time>
      </trkpt>
      <trkpt lat="65.2259" lon="21.29273">
        <ele>66.452128</ele>
        <time>2020-09-27T08:49:08.862Z</time>
      </trkpt>
      <trkpt lat="65.22578" lon="21.29257">
        <ele>65.896413</ele>
        <time>2020-09-27T08:49:10.882Z</time>
      </trkpt>
      <trkpt lat="65.22566" lon="21.2924">
        <ele>65.347709</ele>
        <time>2020-09-27T08:49:12.856Z</time>
      </trkpt>
      <trkpt lat="65.22554" lon="21.29221">
        <ele>64.799436</ele>
        <time>2020-09-27T08:49:14.863Z</time>
      </trkpt>
      <trkpt lat="65.22543" lon="21.29202">
        <ele>64.256255</ele>
        <time>2020-09-27T08:49:16.884Z</time>
      </trkpt>
      <trkpt lat="65.22532" lon="21.29183">
        <ele>63.720447</ele>
        <time>2020-09-27T08:49:18.843Z</time>
      </trkpt>
      <trkpt lat="65.22521" lon="21.29164">
        <ele>63.195188</ele>
        <time>2020-09-27T08:49:20.854Z</time>
      </trkpt>
      <trkpt lat="65.2251" lon="21.29147">
        <ele>62.679756</ele>
        <time>2020-09-27T08:49:22.861Z</time>
      </trkpt>
      <trkpt lat="65.22499" lon="21.2913">
        <ele>62.446056</ele>
        <time>2020-09-27T08:49:24.860Z</time>
      </trkpt>
      <trkpt lat="65.2249" lon="21.29113">
        <ele>62.39423</ele>
        <time>2020-09-27T08:49:26.859Z</time>
      </trkpt>
      <trkpt lat="65.2248" lon="21.29097">
        <ele>62.345557</ele>
        <time>2020-09-27T08:49:28.861Z</time>
      </trkpt>
      <trkpt lat="65.22472" lon="21.29082">
        <ele>62.300583</ele>
        <time>2020-09-27T08:49:30.850Z</time>
      </trkpt>
      <trkpt lat="65.22464" lon="21.29067">
        <ele>62.255716</ele>
        <time>2020-09-27T08:49:32.878Z</time>
      </trkpt>
      <trkpt lat="65.22456" lon="21.2905">
        <ele>62.210721</ele>
        <time>2020-09-27T08:49:34.879Z</time>
      </trkpt>
      <trkpt lat="65.22447" lon="21.29033">
        <ele>62.163549</ele>
        <time>2020-09-27T08:49:36.848Z</time>
      </trkpt>
      <trkpt lat="65.22439" lon="21.29016">
        <ele>62.118523</ele>
        <time>2020-09-27T08:49:38.876Z</time>
      </trkpt>
      <trkpt lat="65.22432" lon="21.29001">
        <ele>62.076446</ele>
        <time>2020-09-27T08:49:40.880Z</time>
      </trkpt>
      <trkpt lat="65.22424" lon="21.28986">
        <ele>62.035153</ele>
        <time>2020-09-27T08:49:42.847Z</time>
      </trkpt>
      <trkpt lat="65.22418" lon="21.28972">
        <ele>61.996008</ele>
        <time>2020-09-27T08:49:44.850Z</time>
      </trkpt>
      <trkpt lat="65.22411" lon="21.28957">
        <ele>61.957613</ele>
        <time>2020-09-27T08:49:46.851Z</time>
      </trkpt>
      <trkpt lat="65.22402" lon="21.28936">
        <ele>61.9041</ele>
        <time>2020-09-27T08:49:49.847Z</time>
      </trkpt>
      <trkpt lat="65.22394" lon="21.28915">
        <ele>61.852231</ele>
        <time>2020-09-27T08:49:52.879Z</time>
      </trkpt>
      <trkpt lat="65.22386" lon="21.28896">
        <ele>61.803951</ele>
        <time>2020-09-27T08:49:55.863Z</time>
      </trkpt>
      <trkpt lat="65.22378" lon="21.28877">
        <ele>61.75712</ele>
        <time>2020-09-27T08:49:58.860Z</time>
      </trkpt>
      <trkpt lat="65.22372" lon="21.2886">
        <ele>61.716547</ele>
        <time>2020-09-27T08:50:01.850Z</time>
      </trkpt>
      <trkpt lat="65.22365" lon="21.28844">
        <ele>62.173814</ele>
        <time>2020-09-27T08:50:04.866Z</time>
      </trkpt>
      <trkpt lat="65.22358" lon="21.28827">
        <ele>62.760803</ele>
        <time>2020-09-27T08:50:07.894Z</time>
      </trkpt>
      <trkpt lat="65.22352" lon="21.2881">
        <ele>63.307215</ele>
        <time>2020-09-27T08:50:10.858Z</time>
      </trkpt>
      <trkpt lat="65.22345" lon="21.2879">
        <ele>63.998994</ele>
        <time>2020-09-27T08:50:14.862Z</time>
      </trkpt>
      <trkpt lat="65.22338" lon="21.28768">
        <ele>64.662455</ele>
        <time>2020-09-27T08:50:18.858Z</time>
      </trkpt>
      <trkpt lat="65.22331" lon="21.28746">
        <ele>65.343067</ele>
        <time>2020-09-27T08:50:22.861Z</time>
      </trkpt>
      <trkpt lat="65.22325" lon="21.2873">
        <ele>65.88752</ele>
        <time>2020-09-27T08:50:25.859Z</time>
      </trkpt>
      <trkpt lat="65.2232" lon="21.28713">
        <ele>66.437713</ele>
        <time>2020-09-27T08:50:28.849Z</time>
      </trkpt>
      <trkpt lat="65.22313" lon="21.28689">
        <ele>67.150002</ele>
        <time>2020-09-27T08:50:32.891Z</time>
      </trkpt>
      <trkpt lat="65.22307" lon="21.28671">
        <ele>67.708396</ele>
        <time>2020-09-27T08:50:35.891Z</time>
      </trkpt>
      <trkpt lat="65.22302" lon="21.2865">
        <ele>68.299632</ele>
        <time>2020-09-27T08:50:38.865Z</time>
      </trkpt>
      <trkpt lat="65.22298" lon="21.28631">
        <ele>68.863347</ele>
        <time>2020-09-27T08:50:41.870Z</time>
      </trkpt>
      <trkpt lat="65.22293" lon="21.28612">
        <ele>69.416266</ele>
        <time>2020-09-27T08:50:44.878Z</time>
      </trkpt>
      <trkpt lat="65.22287" lon="21.28593">
        <ele>69.991871</ele>
        <time>2020-09-27T08:50:47.891Z</time>
      </trkpt>
      <trkpt lat="65.22281" lon="21.28569">
        <ele>70.692564</ele>
        <time>2020-09-27T08:50:51.841Z</time>
      </trkpt>
      <trkpt lat="65.22275" lon="21.28544">
        <ele>71.407751</ele>
        <time>2020-09-27T08:50:55.862Z</time>
      </trkpt>
      <trkpt lat="65.2227" lon="21.28523">
        <ele>72.002344</ele>
        <time>2020-09-27T08:50:58.859Z</time>
      </trkpt>
      <trkpt lat="65.22265" lon="21.28502">
        <ele>72.375775</ele>
        <time>2020-09-27T08:51:01.906Z</time>
      </trkpt>
      <trkpt lat="65.2226" lon="21.28483">
        <ele>72.278899</ele>
        <time>2020-09-27T08:51:04.849Z</time>
      </trkpt>
      <trkpt lat="65.22256" lon="21.28462">
        <ele>72.178962</ele>
        <time>2020-09-27T08:51:07.844Z</time>
      </trkpt>
      <trkpt lat="65.22251" lon="21.28441">
        <ele>72.071089</ele>
        <time>2020-09-27T08:51:10.880Z</time>
      </trkpt>
      <trkpt lat="65.22245" lon="21.28419">
        <ele>71.961869</ele>
        <time>2020-09-27T08:51:13.884Z</time>
      </trkpt>
      <trkpt lat="65.22239" lon="21.28399">
        <ele>71.858072</ele>
        <time>2020-09-27T08:51:16.887Z</time>
      </trkpt>
      <trkpt lat="65.22233" lon="21.28375">
        <ele>71.735783</ele>
        <time>2020-09-27T08:51:19.851Z</time>
      </trkpt>
      <trkpt lat="65.22227" lon="21.28349">
        <ele>71.606557</ele>
        <time>2020-09-27T08:51:22.857Z</time>
      </trkpt>
      <trkpt lat="65.2222" lon="21.28324">
        <ele>71.479125</ele>
        <time>2020-09-27T08:51:25.878Z</time>
      </trkpt>
      <trkpt lat="65.22213" lon="21.28297">
        <ele>71.346804</ele>
        <time>2020-09-27T08:51:28.859Z</time>
      </trkpt>
      <trkpt lat="65.22209" lon="21.28277">
        <ele>71.250026</ele>
        <time>2020-09-27T08:51:30.851Z</time>
      </trkpt>
      <trkpt lat="65.22205" lon="21.28257">
        <ele>71.154536</ele>
        <time>2020-09-27T08:51:32.857Z</time>
      </trkpt>
      <trkpt lat="65.22201" lon="21.28237">
        <ele>71.059609</ele>
        <time>2020-09-27T08:51:34.892Z</time>
      </trkpt>
      <trkpt lat="65.22197" lon="21.28217">
        <ele>70.962757</ele>
        <time>2020-09-27T08:51:36.858Z</time>
      </trkpt>
      <trkpt lat="65.22193" lon="21.28195">
        <ele>70.863507</ele>
        <time>2020-09-27T08:51:38.890Z</time>
      </trkpt>
      <trkpt lat="65.2219" lon="21.28173">
        <ele>70.761923</ele>
        <time>2020-09-27T08:51:40.866Z</time>
      </trkpt>
      <trkpt lat="65.22186" lon="21.28152">
        <ele>70.665082</ele>
        <time>2020-09-27T08:51:42.858Z</time>
      </trkpt>
      <trkpt lat="65.22183" lon="21.28131">
        <ele>70.569915</ele>
        <time>2020-09-27T08:51:44.875Z</time>
      </trkpt>
      <trkpt lat="65.22179" lon="21.28111">
        <ele>70.389456</ele>
        <time>2020-09-27T08:51:46.858Z</time>
      </trkpt>
      <trkpt lat="65.22176" lon="21.28091">
        <ele>70.208689</ele>
        <time>2020-09-27T08:51:48.856Z</time>
      </trkpt>
      <trkpt lat="65.22173" lon="21.2807">
        <ele>70.020296</ele>
        <time>2020-09-27T08:51:50.857Z</time>
      </trkpt>
      <trkpt lat="65.2217" lon="21.28049">
        <ele>69.835472</ele>
        <time>2020-09-27T08:51:52.878Z</time>
      </trkpt>
      <trkpt lat="65.22167" lon="21.28028">
        <ele>69.655858</ele>
        <time>2020-09-27T08:51:54.862Z</time>
      </trkpt>
      <trkpt lat="65.22162" lon="21.27998">
        <ele>69.384366</ele>
        <time>2020-09-27T08:51:57.866Z</time>
      </trkpt>
      <trkpt lat="65.2216" lon="21.27977">
        <ele>69.202175</ele>
        <time>2020-09-27T08:51:59.879Z</time>
      </trkpt>
      <trkpt lat="65.22157" lon="21.27956">
        <ele>69.02406</ele>
        <time>2020-09-27T08:52:01.852Z</time>
      </trkpt>
      <trkpt lat="65.22154" lon="21.27926">
        <ele>68.766743</ele>
        <time>2020-09-27T08:52:04.848Z</time>
      </trkpt>
      <trkpt lat="65.22151" lon="21.27905">
        <ele>68.585121</ele>
        <time>2020-09-27T08:52:06.866Z</time>
      </trkpt>
      <trkpt lat="65.22149" lon="21.27884">
        <ele>68.404596</ele>
        <time>2020-09-27T08:52:08.880Z</time>
      </trkpt>
      <trkpt lat="65.22145" lon="21.27854">
        <ele>68.140315</ele>
        <time>2020-09-27T08:52:11.890Z</time>
      </trkpt>
      <trkpt lat="65.22141" lon="21.27825">
        <ele>67.886774</ele>
        <time>2020-09-27T08:52:14.847Z</time>
      </trkpt>
      <trkpt lat="65.22137" lon="21.27795">
        <ele>67.624315</ele>
        <time>2020-09-27T08:52:17.858Z</time>
      </trkpt>
      <trkpt lat="65.22133" lon="21.27765">
        <ele>67.356279</ele>
        <time>2020-09-27T08:52:20.879Z</time>
      </trkpt>
      <trkpt lat="65.22129" lon="21.27736">
        <ele>67.107314</ele>
        <time>2020-09-27T08:52:23.876Z</time>
      </trkpt>
      <trkpt lat="65.22125" lon="21.2771">
        <ele>66.964659</ele>
        <time>2020-09-27T08:52:26.854Z</time>
      </trkpt>
      <trkpt lat="65.22122" lon="21.27682">
        <ele>66.905161</ele>
        <time>2020-09-27T08:52:29.854Z</time>
      </trkpt>
      <trkpt lat="65.22118" lon="21.27653">
        <ele>66.844818</ele>
        <time>2020-09-27T08:52:32.852Z</time>
      </trkpt>
      <trkpt lat="65.22115" lon="21.27626">
        <ele>66.785319</ele>
        <time>2020-09-27T08:52:35.858Z</time>
      </trkpt>
      <trkpt lat="65.22111" lon="21.276">
        <ele>66.728583</ele>
        <time>2020-09-27T08:52:38.854Z</time>
      </trkpt>
      <trkpt lat="65.22107" lon="21.27571">
        <ele>66.667091</ele>
        <time>2020-09-27T08:52:41.861Z</time>
      </trkpt>
      <trkpt lat="65.22103" lon="21.27542">
        <ele>66.604964</ele>
        <time>2020-09-27T08:52:44.870Z</time>
      </trkpt>
      <trkpt lat="65.22099" lon="21.27514">
        <ele>66.544446</ele>
        <time>2020-09-27T08:52:47.856Z</time>
      </trkpt>
      <trkpt lat="65.22096" lon="21.27486">
        <ele>66.484947</ele>
        <time>2020-09-27T08:52:50.892Z</time>
      </trkpt>
      <trkpt lat="65.22093" lon="21.27457">
        <ele>66.425029</ele>
        <time>2020-09-27T08:52:53.846Z</time>
      </trkpt>
      <trkpt lat="65.22089" lon="21.27429">
        <ele>66.363877</ele>
        <time>2020-09-27T08:52:56.851Z</time>
      </trkpt>
      <trkpt lat="65.22086" lon="21.27399">
        <ele>66.300649</ele>
        <time>2020-09-27T08:52:59.862Z</time>
      </trkpt>
      <trkpt lat="65.22082" lon="21.27369">
        <ele>66.23711</ele>
        <time>2020-09-27T08:53:02.866Z</time>
      </trkpt>
      <trkpt lat="65.22077" lon="21.27339">
        <ele>66.171241</ele>
        <time>2020-09-27T08:53:05.850Z</time>
      </trkpt>
      <trkpt lat="65.22074" lon="21.27317">
        <ele>66.122799</ele>
        <time>2020-09-27T08:53:07.866Z</time>
      </trkpt>
      <trkpt lat="65.2207" lon="21.27295">
        <ele>65.996319</ele>
        <time>2020-09-27T08:53:09.855Z</time>
      </trkpt>
      <trkpt lat="65.22068" lon="21.27273">
        <ele>65.854599</ele>
        <time>2020-09-27T08:53:11.866Z</time>
      </trkpt>
      <trkpt lat="65.22065" lon="21.27249">
        <ele>65.698155</ele>
        <time>2020-09-27T08:53:13.864Z</time>
      </trkpt>
      <trkpt lat="65.22061" lon="21.27224">
        <ele>65.541711</ele>
        <time>2020-09-27T08:53:15.855Z</time>
      </trkpt>
      <trkpt lat="65.22058" lon="21.27199">
        <ele>65.378231</ele>
        <time>2020-09-27T08:53:17.839Z</time>
      </trkpt>
      <trkpt lat="65.22055" lon="21.27173">
        <ele>65.217099</ele>
        <time>2020-09-27T08:53:19.902Z</time>
      </trkpt>
      <trkpt lat="65.22052" lon="21.27148">
        <ele>65.058475</ele>
        <time>2020-09-27T08:53:21.883Z</time>
      </trkpt>
      <trkpt lat="65.22049" lon="21.27124">
        <ele>64.903609</ele>
        <time>2020-09-27T08:53:23.862Z</time>
      </trkpt>
      <trkpt lat="65.22046" lon="21.27101">
        <ele>64.753588</ele>
        <time>2020-09-27T08:53:25.875Z</time>
      </trkpt>
      <trkpt lat="65.22042" lon="21.27078">
        <ele>64.603568</ele>
        <time>2020-09-27T08:53:27.851Z</time>
      </trkpt>
      <trkpt lat="65.22039" lon="21.27055">
        <ele>64.45865</ele>
        <time>2020-09-27T08:53:29.883Z</time>
      </trkpt>
      <trkpt lat="65.22036" lon="21.27033">
        <ele>64.314898</ele>
        <time>2020-09-27T08:53:31.842Z</time>
      </trkpt>
      <trkpt lat="65.22034" lon="21.2701">
        <ele>64.170652</ele>
        <time>2020-09-27T08:53:33.868Z</time>
      </trkpt>
      <trkpt lat="65.22031" lon="21.26988">
        <ele>64.030101</ele>
        <time>2020-09-27T08:53:35.860Z</time>
      </trkpt>
      <trkpt lat="65.22028" lon="21.26966">
        <ele>63.89072</ele>
        <time>2020-09-27T08:53:37.869Z</time>
      </trkpt>
      <trkpt lat="65.22025" lon="21.26945">
        <ele>63.756006</ele>
        <time>2020-09-27T08:53:39.862Z</time>
      </trkpt>
      <trkpt lat="65.22023" lon="21.26924">
        <ele>63.623906</ele>
        <time>2020-09-27T08:53:41.865Z</time>
      </trkpt>
      <trkpt lat="65.2202" lon="21.26903">
        <ele>63.504359</ele>
        <time>2020-09-27T08:53:43.848Z</time>
      </trkpt>
      <trkpt lat="65.22017" lon="21.26882">
        <ele>63.836436</ele>
        <time>2020-09-27T08:53:45.852Z</time>
      </trkpt>
      <trkpt lat="65.22014" lon="21.26852">
        <ele>64.308595</ele>
        <time>2020-09-27T08:53:48.866Z</time>
      </trkpt>
      <trkpt lat="65.2201" lon="21.26824">
        <ele>64.758088</ele>
        <time>2020-09-27T08:53:51.837Z</time>
      </trkpt>
      <trkpt lat="65.22007" lon="21.26795">
        <ele>65.210898</ele>
        <time>2020-09-27T08:53:54.883Z</time>
      </trkpt>
      <trkpt lat="65.22003" lon="21.26768">
        <ele>65.636307</ele>
        <time>2020-09-27T08:53:57.857Z</time>
      </trkpt>
      <trkpt lat="65.22" lon="21.2674">
        <ele>66.062541</ele>
        <time>2020-09-27T08:54:00.866Z</time>
      </trkpt>
      <trkpt lat="65.21996" lon="21.26713">
        <ele>66.492267</ele>
        <time>2020-09-27T08:54:03.855Z</time>
      </trkpt>
      <trkpt lat="65.21992" lon="21.26686">
        <ele>66.923324</ele>
        <time>2020-09-27T08:54:06.862Z</time>
      </trkpt>
      <trkpt lat="65.21989" lon="21.26658">
        <ele>67.359235</ele>
        <time>2020-09-27T08:54:09.893Z</time>
      </trkpt>
      <trkpt lat="65.21985" lon="21.26631">
        <ele>67.787523</ele>
        <time>2020-09-27T08:54:12.857Z</time>
      </trkpt>
      <trkpt lat="65.21982" lon="21.26604">
        <ele>68.21006</ele>
        <time>2020-09-27T08:54:15.857Z</time>
      </trkpt>
      <trkpt lat="65.21979" lon="21.26577">
        <ele>68.634851</ele>
        <time>2020-09-27T08:54:18.842Z</time>
      </trkpt>
      <trkpt lat="65.21975" lon="21.2655">
        <ele>69.058827</ele>
        <time>2020-09-27T08:54:21.861Z</time>
      </trkpt>
      <trkpt lat="65.21972" lon="21.26523">
        <ele>69.487957</ele>
        <time>2020-09-27T08:54:24.852Z</time>
      </trkpt>
      <trkpt lat="65.21969" lon="21.26493">
        <ele>69.947552</ele>
        <time>2020-09-27T08:54:27.865Z</time>
      </trkpt>
      <trkpt lat="65.21965" lon="21.26464">
        <ele>70.03748</ele>
        <time>2020-09-27T08:54:30.863Z</time>
      </trkpt>
      <trkpt lat="65.21961" lon="21.26434">
        <ele>70.125684</ele>
        <time>2020-09-27T08:54:33.865Z</time>
      </trkpt>
      <trkpt lat="65.21957" lon="21.26405">
        <ele>70.211892</ele>
        <time>2020-09-27T08:54:36.856Z</time>
      </trkpt>
      <trkpt lat="65.21954" lon="21.26374">
        <ele>70.298971</ele>
        <time>2020-09-27T08:54:39.860Z</time>
      </trkpt>
      <trkpt lat="65.21951" lon="21.26354">
        <ele>70.359145</ele>
        <time>2020-09-27T08:54:41.842Z</time>
      </trkpt>
      <trkpt lat="65.21948" lon="21.26332">
        <ele>70.422568</ele>
        <time>2020-09-27T08:54:43.897Z</time>
      </trkpt>
      <trkpt lat="65.21946" lon="21.26312">
        <ele>70.482212</ele>
        <time>2020-09-27T08:54:45.855Z</time>
      </trkpt>
      <trkpt lat="65.21942" lon="21.26282">
        <ele>70.570369</ele>
        <time>2020-09-27T08:54:48.886Z</time>
      </trkpt>
      <trkpt lat="65.21938" lon="21.26251">
        <ele>70.65951</ele>
        <time>2020-09-27T08:54:51.878Z</time>
      </trkpt>
      <trkpt lat="65.21936" lon="21.26229">
        <ele>70.722473</ele>
        <time>2020-09-27T08:54:53.872Z</time>
      </trkpt>
      <trkpt lat="65.21933" lon="21.26207">
        <ele>70.78713</ele>
        <time>2020-09-27T08:54:55.855Z</time>
      </trkpt>
      <trkpt lat="65.2193" lon="21.26184">
        <ele>70.854221</ele>
        <time>2020-09-27T08:54:57.875Z</time>
      </trkpt>
      <trkpt lat="65.21927" lon="21.26162">
        <ele>70.91906</ele>
        <time>2020-09-27T08:54:59.897Z</time>
      </trkpt>
      <trkpt lat="65.21925" lon="21.2614">
        <ele>70.983018</ele>
        <time>2020-09-27T08:55:01.844Z</time>
      </trkpt>
      <trkpt lat="65.21922" lon="21.26117">
        <ele>71.049504</ele>
        <time>2020-09-27T08:55:03.859Z</time>
      </trkpt>
      <trkpt lat="65.21919" lon="21.26094">
        <ele>71.115459</ele>
        <time>2020-09-27T08:55:05.850Z</time>
      </trkpt>
      <trkpt lat="65.21916" lon="21.26072">
        <ele>71.262744</ele>
        <time>2020-09-27T08:55:07.856Z</time>
      </trkpt>
      <trkpt lat="65.21913" lon="21.26049">
        <ele>71.508674</ele>
        <time>2020-09-27T08:55:09.884Z</time>
      </trkpt>
      <trkpt lat="65.2191" lon="21.26028">
        <ele>71.733745</ele>
        <time>2020-09-27T08:55:11.876Z</time>
      </trkpt>
      <trkpt lat="65.21906" lon="21.25997">
        <ele>72.061202</ele>
        <time>2020-09-27T08:55:14.875Z</time>
      </trkpt>
      <trkpt lat="65.21903" lon="21.25977">
        <ele>72.285364</ele>
        <time>2020-09-27T08:55:16.899Z</time>
      </trkpt>
      <trkpt lat="65.21899" lon="21.25947">
        <ele>72.611309</ele>
        <time>2020-09-27T08:55:19.860Z</time>
      </trkpt>
      <trkpt lat="65.21895" lon="21.25917">
        <ele>72.927217</ele>
        <time>2020-09-27T08:55:22.849Z</time>
      </trkpt>
      <trkpt lat="65.21891" lon="21.25889">
        <ele>73.237711</ele>
        <time>2020-09-27T08:55:25.863Z</time>
      </trkpt>
      <trkpt lat="65.21888" lon="21.25861">
        <ele>73.534728</ele>
        <time>2020-09-27T08:55:28.856Z</time>
      </trkpt>
      <trkpt lat="65.21884" lon="21.25834">
        <ele>73.833325</ele>
        <time>2020-09-27T08:55:31.894Z</time>
      </trkpt>
      <trkpt lat="65.2188" lon="21.25808">
        <ele>74.112637</ele>
        <time>2020-09-27T08:55:34.857Z</time>
      </trkpt>
      <trkpt lat="65.21877" lon="21.25783">
        <ele>74.384681</ele>
        <time>2020-09-27T08:55:37.858Z</time>
      </trkpt>
      <trkpt lat="65.21873" lon="21.25759">
        <ele>74.647983</ele>
        <time>2020-09-27T08:55:40.850Z</time>
      </trkpt>
      <trkpt lat="65.21869" lon="21.25737">
        <ele>74.894769</ele>
        <time>2020-09-27T08:55:43.884Z</time>
      </trkpt>
      <trkpt lat="65.21865" lon="21.25715">
        <ele>75.143491</ele>
        <time>2020-09-27T08:55:46.863Z</time>
      </trkpt>
      <trkpt lat="65.21861" lon="21.25694">
        <ele>75.380815</ele>
        <time>2020-09-27T08:55:49.858Z</time>
      </trkpt>
      <trkpt lat="65.21857" lon="21.25667">
        <ele>75.645898</ele>
        <time>2020-09-27T08:55:53.853Z</time>
      </trkpt>
      <trkpt lat="65.21853" lon="21.25642">
        <ele>75.860077</ele>
        <time>2020-09-27T08:55:57.857Z</time>
      </trkpt>
      <trkpt lat="65.21849" lon="21.25619">
        <ele>76.068355</ele>
        <time>2020-09-27T08:56:01.870Z</time>
      </trkpt>
      <trkpt lat="65.21845" lon="21.25597">
        <ele>76.258164</ele>
        <time>2020-09-27T08:56:05.854Z</time>
      </trkpt>
      <trkpt lat="65.21841" lon="21.25576">
        <ele>76.443052</ele>
        <time>2020-09-27T08:56:09.874Z</time>
      </trkpt>
      <trkpt lat="65.21837" lon="21.25554">
        <ele>76.631492</ele>
        <time>2020-09-27T08:56:13.864Z</time>
      </trkpt>
      <trkpt lat="65.21834" lon="21.25533">
        <ele>76.812441</ele>
        <time>2020-09-27T08:56:17.871Z</time>
      </trkpt>
      <trkpt lat="65.2183" lon="21.25512">
        <ele>76.99506</ele>
        <time>2020-09-27T08:56:21.862Z</time>
      </trkpt>
      <trkpt lat="65.21826" lon="21.25491">
        <ele>77.180578</ele>
        <time>2020-09-27T08:56:25.875Z</time>
      </trkpt>
      <trkpt lat="65.21821" lon="21.2547">
        <ele>77.373172</ele>
        <time>2020-09-27T08:56:29.872Z</time>
      </trkpt>
      <trkpt lat="65.21817" lon="21.2545">
        <ele>77.548214</ele>
        <time>2020-09-27T08:56:33.852Z</time>
      </trkpt>
      <trkpt lat="65.21813" lon="21.25426">
        <ele>77.760444</ele>
        <time>2020-09-27T08:56:38.862Z</time>
      </trkpt>
      <trkpt lat="65.21808" lon="21.25405">
        <ele>77.944018</ele>
        <time>2020-09-27T08:56:42.856Z</time>
      </trkpt>
      <trkpt lat="65.21804" lon="21.25384">
        <ele>78.13236</ele>
        <time>2020-09-27T08:56:46.844Z</time>
      </trkpt>
      <trkpt lat="65.21799" lon="21.25362">
        <ele>78.329749</ele>
        <time>2020-09-27T08:56:50.866Z</time>
      </trkpt>
      <trkpt lat="65.21795" lon="21.25342">
        <ele>78.510322</ele>
        <time>2020-09-27T08:56:54.868Z</time>
      </trkpt>
      <trkpt lat="65.2179" lon="21.25318">
        <ele>78.724825</ele>
        <time>2020-09-27T08:56:59.866Z</time>
      </trkpt>
      <trkpt lat="65.21786" lon="21.25297">
        <ele>78.907555</ele>
        <time>2020-09-27T08:57:03.851Z</time>
      </trkpt>
      <trkpt lat="65.21782" lon="21.25276">
        <ele>79.08906</ele>
        <time>2020-09-27T08:57:07.838Z</time>
      </trkpt>
      <trkpt lat="65.21777" lon="21.25255">
        <ele>79.269585</ele>
        <time>2020-09-27T08:57:11.869Z</time>
      </trkpt>
      <trkpt lat="65.21771" lon="21.25231">
        <ele>79.474939</ele>
        <time>2020-09-27T08:57:15.877Z</time>
      </trkpt>
      <trkpt lat="65.21766" lon="21.25209">
        <ele>79.66844</ele>
        <time>2020-09-27T08:57:19.883Z</time>
      </trkpt>
      <trkpt lat="65.21761" lon="21.25186">
        <ele>79.86041</ele>
        <time>2020-09-27T08:57:23.862Z</time>
      </trkpt>
      <trkpt lat="65.21756" lon="21.25167">
        <ele>80.036214</ele>
        <time>2020-09-27T08:57:27.847Z</time>
      </trkpt>
      <trkpt lat="65.21752" lon="21.25145">
        <ele>80.218314</ele>
        <time>2020-09-27T08:57:31.852Z</time>
      </trkpt>
      <trkpt lat="65.21747" lon="21.25121">
        <ele>80.417042</ele>
        <time>2020-09-27T08:57:35.862Z</time>
      </trkpt>
      <trkpt lat="65.21742" lon="21.25094">
        <ele>80.634738</ele>
        <time>2020-09-27T08:57:39.891Z</time>
      </trkpt>
      <trkpt lat="65.21738" lon="21.25074">
        <ele>80.805838</ele>
        <time>2020-09-27T08:57:42.882Z</time>
      </trkpt>
      <trkpt lat="65.21733" lon="21.25053">
        <ele>80.988923</ele>
        <time>2020-09-27T08:57:45.857Z</time>
      </trkpt>
      <trkpt lat="65.21728" lon="21.25033">
        <ele>81.159728</ele>
        <time>2020-09-27T08:57:48.855Z</time>
      </trkpt>
      <trkpt lat="65.21723" lon="21.25007">
        <ele>81.372493</ele>
        <time>2020-09-27T08:57:52.845Z</time>
      </trkpt>
      <trkpt lat="65.21719" lon="21.24988">
        <ele>81.533109</ele>
        <time>2020-09-27T08:57:55.866Z</time>
      </trkpt>
      <trkpt lat="65.21715" lon="21.24968">
        <ele>81.695679</ele>
        <time>2020-09-27T08:57:58.863Z</time>
      </trkpt>
      <trkpt lat="65.21711" lon="21.24949">
        <ele>81.862773</ele>
        <time>2020-09-27T08:58:01.863Z</time>
      </trkpt>
      <trkpt lat="65.21706" lon="21.24929">
        <ele>82.032033</ele>
        <time>2020-09-27T08:58:04.876Z</time>
      </trkpt>
      <trkpt lat="65.21702" lon="21.24909">
        <ele>82.198094</ele>
        <time>2020-09-27T08:58:07.913Z</time>
      </trkpt>
      <trkpt lat="65.21697" lon="21.24888">
        <ele>82.304001</ele>
        <time>2020-09-27T08:58:10.870Z</time>
      </trkpt>
      <trkpt lat="65.21694" lon="21.24867">
        <ele>82.391744</ele>
        <time>2020-09-27T08:58:13.865Z</time>
      </trkpt>
      <trkpt lat="65.21688" lon="21.24845">
        <ele>82.492614</ele>
        <time>2020-09-27T08:58:16.848Z</time>
      </trkpt>
      <trkpt lat="65.21683" lon="21.24821">
        <ele>82.598225</ele>
        <time>2020-09-27T08:58:19.855Z</time>
      </trkpt>
      <trkpt lat="65.21678" lon="21.248">
        <ele>82.694661</ele>
        <time>2020-09-27T08:58:22.857Z</time>
      </trkpt>
      <trkpt lat="65.21674" lon="21.24778">
        <ele>82.788508</ele>
        <time>2020-09-27T08:58:25.871Z</time>
      </trkpt>
      <trkpt lat="65.21669" lon="21.24755">
        <ele>82.884996</ele>
        <time>2020-09-27T08:58:28.849Z</time>
      </trkpt>
      <trkpt lat="65.21665" lon="21.24735">
        <ele>82.974017</ele>
        <time>2020-09-27T08:58:31.862Z</time>
      </trkpt>
      <trkpt lat="65.21661" lon="21.24713">
        <ele>83.067643</ele>
        <time>2020-09-27T08:58:34.859Z</time>
      </trkpt>
      <trkpt lat="65.21656" lon="21.24691">
        <ele>83.166148</ele>
        <time>2020-09-27T08:58:37.883Z</time>
      </trkpt>
      <trkpt lat="65.21651" lon="21.24668">
        <ele>83.263806</ele>
        <time>2020-09-27T08:58:40.871Z</time>
      </trkpt>
      <trkpt lat="65.21646" lon="21.24647">
        <ele>83.359725</ele>
        <time>2020-09-27T08:58:43.859Z</time>
      </trkpt>
      <trkpt lat="65.21642" lon="21.24625">
        <ele>83.454054</ele>
        <time>2020-09-27T08:58:46.842Z</time>
      </trkpt>
      <trkpt lat="65.21637" lon="21.24604">
        <ele>83.549011</ele>
        <time>2020-09-27T08:58:49.865Z</time>
      </trkpt>
      <trkpt lat="65.21631" lon="21.24581">
        <ele>83.650555</ele>
        <time>2020-09-27T08:58:52.851Z</time>
      </trkpt>
      <trkpt lat="65.21626" lon="21.24556">
        <ele>83.760034</ele>
        <time>2020-09-27T08:58:55.863Z</time>
      </trkpt>
      <trkpt lat="65.2162" lon="21.2453">
        <ele>83.873923</ele>
        <time>2020-09-27T08:58:58.865Z</time>
      </trkpt>
      <trkpt lat="65.21614" lon="21.24506">
        <ele>83.770904</ele>
        <time>2020-09-27T08:59:01.851Z</time>
      </trkpt>
      <trkpt lat="65.21609" lon="21.24481">
        <ele>83.609354</ele>
        <time>2020-09-27T08:59:04.879Z</time>
      </trkpt>
      <trkpt lat="65.21604" lon="21.24458">
        <ele>83.460254</ele>
        <time>2020-09-27T08:59:07.875Z</time>
      </trkpt>
      <trkpt lat="65.21599" lon="21.24436">
        <ele>83.313683</ele>
        <time>2020-09-27T08:59:10.883Z</time>
      </trkpt>
      <trkpt lat="65.21594" lon="21.24415">
        <ele>83.171058</ele>
        <time>2020-09-27T08:59:13.859Z</time>
      </trkpt>
      <trkpt lat="65.21589" lon="21.24394">
        <ele>83.035935</ele>
        <time>2020-09-27T08:59:16.856Z</time>
      </trkpt>
      <trkpt lat="65.21584" lon="21.24373">
        <ele>82.897301</ele>
        <time>2020-09-27T08:59:19.862Z</time>
      </trkpt>
      <trkpt lat="65.2158" lon="21.24354">
        <ele>82.769231</ele>
        <time>2020-09-27T08:59:22.897Z</time>
      </trkpt>
      <trkpt lat="65.21575" lon="21.24335">
        <ele>82.639593</ele>
        <time>2020-09-27T08:59:25.843Z</time>
      </trkpt>
      <trkpt lat="65.2157" lon="21.24316">
        <ele>82.513758</ele>
        <time>2020-09-27T08:59:28.853Z</time>
      </trkpt>
      <trkpt lat="65.21566" lon="21.24291">
        <ele>82.355093</ele>
        <time>2020-09-27T08:59:32.859Z</time>
      </trkpt>
      <trkpt lat="65.2156" lon="21.24267">
        <ele>82.199584</ele>
        <time>2020-09-27T08:59:36.877Z</time>
      </trkpt>
      <trkpt lat="65.21555" lon="21.24244">
        <ele>82.049157</ele>
        <time>2020-09-27T08:59:40.849Z</time>
      </trkpt>
      <trkpt lat="65.2155" lon="21.24222">
        <ele>81.904419</ele>
        <time>2020-09-27T08:59:44.863Z</time>
      </trkpt>
      <trkpt lat="65.21546" lon="21.24203">
        <ele>81.776348</ele>
        <time>2020-09-27T08:59:48.861Z</time>
      </trkpt>
      <trkpt lat="65.21542" lon="21.24183">
        <ele>81.645705</ele>
        <time>2020-09-27T08:59:52.899Z</time>
      </trkpt>
      <trkpt lat="65.21537" lon="21.24163">
        <ele>81.515578</ele>
        <time>2020-09-27T08:59:56.863Z</time>
      </trkpt>
      <trkpt lat="65.21533" lon="21.24143">
        <ele>81.503657</ele>
        <time>2020-09-27T09:00:00.861Z</time>
      </trkpt>
      <trkpt lat="65.21529" lon="21.24122">
        <ele>81.883336</ele>
        <time>2020-09-27T09:00:04.950Z</time>
      </trkpt>
      <trkpt lat="65.21524" lon="21.24102">
        <ele>82.274347</ele>
        <time>2020-09-27T09:00:08.881Z</time>
      </trkpt>
      <trkpt lat="65.21519" lon="21.24081">
        <ele>82.661966</ele>
        <time>2020-09-27T09:00:12.851Z</time>
      </trkpt>
      <trkpt lat="65.21515" lon="21.24061">
        <ele>83.041647</ele>
        <time>2020-09-27T09:00:16.882Z</time>
      </trkpt>
      <trkpt lat="65.21511" lon="21.24042">
        <ele>83.403593</ele>
        <time>2020-09-27T09:00:20.863Z</time>
      </trkpt>
      <trkpt lat="65.21506" lon="21.2402">
        <ele>83.812192</ele>
        <time>2020-09-27T09:00:25.852Z</time>
      </trkpt>
      <trkpt lat="65.21502" lon="21.23999">
        <ele>84.218007</ele>
        <time>2020-09-27T09:00:30.882Z</time>
      </trkpt>
      <trkpt lat="65.21497" lon="21.23976">
        <ele>84.652591</ele>
        <time>2020-09-27T09:00:35.858Z</time>
      </trkpt>
      <trkpt lat="65.21492" lon="21.23954">
        <ele>85.070687</ele>
        <time>2020-09-27T09:00:40.852Z</time>
      </trkpt>
      <trkpt lat="65.21487" lon="21.23932">
        <ele>85.498923</ele>
        <time>2020-09-27T09:00:45.869Z</time>
      </trkpt>
      <trkpt lat="65.21482" lon="21.2391">
        <ele>85.918878</ele>
        <time>2020-09-27T09:00:50.880Z</time>
      </trkpt>
      <trkpt lat="65.21477" lon="21.23888">
        <ele>86.335867</ele>
        <time>2020-09-27T09:00:55.864Z</time>
      </trkpt>
      <trkpt lat="65.21472" lon="21.23866">
        <ele>86.755824</ele>
        <time>2020-09-27T09:01:00.863Z</time>
      </trkpt>
      <trkpt lat="65.21467" lon="21.23844">
        <ele>87.174715</ele>
        <time>2020-09-27T09:01:05.872Z</time>
      </trkpt>
      <trkpt lat="65.21462" lon="21.23822">
        <ele>87.58241</ele>
        <time>2020-09-27T09:01:10.844Z</time>
      </trkpt>
      <trkpt lat="65.21457" lon="21.238">
        <ele>88.007694</ele>
        <time>2020-09-27T09:01:15.859Z</time>
      </trkpt>
      <trkpt lat="65.21453" lon="21.23778">
        <ele>88.422815</ele>
        <time>2020-09-27T09:01:20.892Z</time>
      </trkpt>
      <trkpt lat="65.21448" lon="21.23759">
        <ele>88.923933</ele>
        <time>2020-09-27T09:01:24.862Z</time>
      </trkpt>
      <trkpt lat="65.21444" lon="21.23736">
        <ele>89.656372</ele>
        <time>2020-09-27T09:01:29.860Z</time>
      </trkpt>
      <trkpt lat="65.21439" lon="21.23712">
        <ele>90.436334</ele>
        <time>2020-09-27T09:01:34.867Z</time>
      </trkpt>
      <trkpt lat="65.21435" lon="21.2369">
        <ele>91.175063</ele>
        <time>2020-09-27T09:01:39.885Z</time>
      </trkpt>
      <trkpt lat="65.2143" lon="21.23668">
        <ele>91.907091</ele>
        <time>2020-09-27T09:01:44.850Z</time>
      </trkpt>
      <trkpt lat="65.21425" lon="21.23647">
        <ele>92.604682</ele>
        <time>2020-09-27T09:01:49.855Z</time>
      </trkpt>
      <trkpt lat="65.2142" lon="21.23626">
        <ele>93.325253</ele>
        <time>2020-09-27T09:01:54.879Z</time>
      </trkpt>
      <trkpt lat="65.21415" lon="21.23604">
        <ele>94.059016</ele>
        <time>2020-09-27T09:01:59.864Z</time>
      </trkpt>
      <trkpt lat="65.21411" lon="21.23581">
        <ele>94.794289</ele>
        <time>2020-09-27T09:02:04.854Z</time>
      </trkpt>
      <trkpt lat="65.21406" lon="21.23558">
        <ele>95.576484</ele>
        <time>2020-09-27T09:02:09.859Z</time>
      </trkpt>
      <trkpt lat="65.21401" lon="21.23539">
        <ele>96.214526</ele>
        <time>2020-09-27T09:02:13.883Z</time>
      </trkpt>
      <trkpt lat="65.21396" lon="21.23517">
        <ele>96.971775</ele>
        <time>2020-09-27T09:02:18.855Z</time>
      </trkpt>
      <trkpt lat="65.21392" lon="21.23495">
        <ele>97.685715</ele>
        <time>2020-09-27T09:02:23.853Z</time>
      </trkpt>
      <trkpt lat="65.21387" lon="21.23474">
        <ele>98.39977</ele>
        <time>2020-09-27T09:02:28.862Z</time>
      </trkpt>
      <trkpt lat="65.21382" lon="21.23452">
        <ele>99.134388</ele>
        <time>2020-09-27T09:02:33.847Z</time>
      </trkpt>
      <trkpt lat="65.21378" lon="21.23429">
        <ele>99.885986</ele>
        <time>2020-09-27T09:02:38.868Z</time>
      </trkpt>
      <trkpt lat="65.21373" lon="21.23409">
        <ele>100.563849</ele>
        <time>2020-09-27T09:02:43.850Z</time>
      </trkpt>
      <trkpt lat="65.21368" lon="21.23386">
        <ele>101.324429</ele>
        <time>2020-09-27T09:02:48.858Z</time>
      </trkpt>
      <trkpt lat="65.21363" lon="21.23364">
        <ele>102.098306</ele>
        <time>2020-09-27T09:02:53.894Z</time>
      </trkpt>
      <trkpt lat="65.21359" lon="21.23344">
        <ele>102.794956</ele>
        <time>2020-09-27T09:02:58.852Z</time>
      </trkpt>
      <trkpt lat="65.21354" lon="21.2332">
        <ele>103.596852</ele>
        <time>2020-09-27T09:03:03.863Z</time>
      </trkpt>
      <trkpt lat="65.2135" lon="21.23297">
        <ele>104.375383</ele>
        <time>2020-09-27T09:03:08.869Z</time>
      </trkpt>
      <trkpt lat="65.21345" lon="21.23276">
        <ele>105.118382</ele>
        <time>2020-09-27T09:03:13.898Z</time>
      </trkpt>
      <trkpt lat="65.21341" lon="21.23254">
        <ele>105.857317</ele>
        <time>2020-09-27T09:03:18.863Z</time>
      </trkpt>
      <trkpt lat="65.21336" lon="21.23231">
        <ele>106.65478</ele>
        <time>2020-09-27T09:03:23.847Z</time>
      </trkpt>
      <trkpt lat="65.21332" lon="21.23211">
        <ele>107.331297</ele>
        <time>2020-09-27T09:03:28.876Z</time>
      </trkpt>
      <trkpt lat="65.21329" lon="21.23188">
        <ele>108.082278</ele>
        <time>2020-09-27T09:03:33.872Z</time>
      </trkpt>
      <trkpt lat="65.21324" lon="21.23165">
        <ele>108.8816</ele>
        <time>2020-09-27T09:03:38.848Z</time>
      </trkpt>
      <trkpt lat="65.21319" lon="21.23146">
        <ele>109.537665</ele>
        <time>2020-09-27T09:03:42.856Z</time>
      </trkpt>
      <trkpt lat="65.21313" lon="21.23126">
        <ele>110.320972</ele>
        <time>2020-09-27T09:03:47.858Z</time>
      </trkpt>
      <trkpt lat="65.21308" lon="21.23104">
        <ele>111.07558</ele>
        <time>2020-09-27T09:03:52.863Z</time>
      </trkpt>
      <trkpt lat="65.21303" lon="21.23081">
        <ele>111.879589</ele>
        <time>2020-09-27T09:03:57.857Z</time>
      </trkpt>
      <trkpt lat="65.21297" lon="21.23059">
        <ele>112.673681</ele>
        <time>2020-09-27T09:04:02.879Z</time>
      </trkpt>
      <trkpt lat="65.21293" lon="21.23039">
        <ele>113.34512</ele>
        <time>2020-09-27T09:04:06.884Z</time>
      </trkpt>
      <trkpt lat="65.21289" lon="21.23019">
        <ele>114.032922</ele>
        <time>2020-09-27T09:04:10.847Z</time>
      </trkpt>
      <trkpt lat="65.21284" lon="21.22996">
        <ele>114.733733</ele>
        <time>2020-09-27T09:04:15.849Z</time>
      </trkpt>
      <trkpt lat="65.21279" lon="21.22974">
        <ele>115.238335</ele>
        <time>2020-09-27T09:04:20.858Z</time>
      </trkpt>
      <trkpt lat="65.21274" lon="21.22951">
        <ele>115.757298</ele>
        <time>2020-09-27T09:04:25.904Z</time>
      </trkpt>
      <trkpt lat="65.2127" lon="21.2293">
        <ele>116.241012</ele>
        <time>2020-09-27T09:04:30.868Z</time>
      </trkpt>
      <trkpt lat="65.21266" lon="21.2291">
        <ele>116.707495</ele>
        <time>2020-09-27T09:04:35.860Z</time>
      </trkpt>
      <trkpt lat="65.2126" lon="21.22892">
        <ele>117.151943</ele>
        <time>2020-09-27T09:04:39.860Z</time>
      </trkpt>
      <trkpt lat="65.21255" lon="21.22869">
        <ele>117.674245</ele>
        <time>2020-09-27T09:04:44.880Z</time>
      </trkpt>
      <trkpt lat="65.2125" lon="21.22847">
        <ele>118.19403</ele>
        <time>2020-09-27T09:04:49.852Z</time>
      </trkpt>
      <trkpt lat="65.21246" lon="21.22826">
        <ele>118.66881</ele>
        <time>2020-09-27T09:04:54.871Z</time>
      </trkpt>
      <trkpt lat="65.21241" lon="21.22805">
        <ele>119.173082</ele>
        <time>2020-09-27T09:04:59.860Z</time>
      </trkpt>
      <trkpt lat="65.21237" lon="21.22784">
        <ele>119.642644</ele>
        <time>2020-09-27T09:05:04.860Z</time>
      </trkpt>
      <trkpt lat="65.21233" lon="21.22763">
        <ele>120.11554</ele>
        <time>2020-09-27T09:05:09.860Z</time>
      </trkpt>
      <trkpt lat="65.21229" lon="21.22739">
        <ele>120.659083</ele>
        <time>2020-09-27T09:05:14.849Z</time>
      </trkpt>
      <trkpt lat="65.21224" lon="21.22716">
        <ele>121.180937</ele>
        <time>2020-09-27T09:05:19.863Z</time>
      </trkpt>
      <trkpt lat="65.21219" lon="21.22693">
        <ele>121.707102</ele>
        <time>2020-09-27T09:05:24.884Z</time>
      </trkpt>
      <trkpt lat="65.21213" lon="21.2267">
        <ele>122.244542</ele>
        <time>2020-09-27T09:05:29.876Z</time>
      </trkpt>
      <trkpt lat="65.21208" lon="21.22651">
        <ele>122.715941</ele>
        <time>2020-09-27T09:05:34.848Z</time>
      </trkpt>
      <trkpt lat="65.21204" lon="21.22629">
        <ele>123.220179</ele>
        <time>2020-09-27T09:05:39.844Z</time>
      </trkpt>
      <trkpt lat="65.212" lon="21.22608">
        <ele>123.486598</ele>
        <time>2020-09-27T09:05:44.857Z</time>
      </trkpt>
      <trkpt lat="65.21195" lon="21.22585">
        <ele>123.743687</ele>
        <time>2020-09-27T09:05:49.881Z</time>
      </trkpt>
      <trkpt lat="65.2119" lon="21.22562">
        <ele>123.995872</ele>
        <time>2020-09-27T09:05:54.858Z</time>
      </trkpt>
      <trkpt lat="65.21185" lon="21.2254">
        <ele>124.246907</ele>
        <time>2020-09-27T09:05:59.874Z</time>
      </trkpt>
      <trkpt lat="65.2118" lon="21.22517">
        <ele>124.503998</ele>
        <time>2020-09-27T09:06:04.861Z</time>
      </trkpt>
      <trkpt lat="65.21175" lon="21.22494">
        <ele>124.760277</ele>
        <time>2020-09-27T09:06:09.850Z</time>
      </trkpt>
      <trkpt lat="65.21171" lon="21.22474">
        <ele>124.970888</ele>
        <time>2020-09-27T09:06:13.880Z</time>
      </trkpt>
      <trkpt lat="65.21166" lon="21.22453">
        <ele>125.209607</ele>
        <time>2020-09-27T09:06:18.903Z</time>
      </trkpt>
      <trkpt lat="65.21162" lon="21.22431">
        <ele>125.45815</ele>
        <time>2020-09-27T09:06:23.864Z</time>
      </trkpt>
      <trkpt lat="65.21157" lon="21.22411">
        <ele>125.68421</ele>
        <time>2020-09-27T09:06:27.863Z</time>
      </trkpt>
      <trkpt lat="65.21152" lon="21.22392">
        <ele>125.901988</ele>
        <time>2020-09-27T09:06:31.894Z</time>
      </trkpt>
      <trkpt lat="65.21148" lon="21.22372">
        <ele>126.122994</ele>
        <time>2020-09-27T09:06:35.859Z</time>
      </trkpt>
      <trkpt lat="65.21143" lon="21.2235">
        <ele>126.364571</ele>
        <time>2020-09-27T09:06:39.865Z</time>
      </trkpt>
      <trkpt lat="65.21138" lon="21.2233">
        <ele>126.591499</ele>
        <time>2020-09-27T09:06:43.854Z</time>
      </trkpt>
      <trkpt lat="65.21134" lon="21.2231">
        <ele>126.819324</ele>
        <time>2020-09-27T09:06:47.895Z</time>
      </trkpt>
      <trkpt lat="65.21128" lon="21.22288">
        <ele>127.071226</ele>
        <time>2020-09-27T09:06:51.857Z</time>
      </trkpt>
      <trkpt lat="65.21124" lon="21.22266">
        <ele>127.311745</ele>
        <time>2020-09-27T09:06:55.865Z</time>
      </trkpt>
      <trkpt lat="65.2112" lon="21.22242">
        <ele>127.556753</ele>
        <time>2020-09-27T09:06:59.876Z</time>
      </trkpt>
      <trkpt lat="65.21114" lon="21.2222">
        <ele>127.737649</ele>
        <time>2020-09-27T09:07:03.866Z</time>
      </trkpt>
      <trkpt lat="65.21109" lon="21.22195">
        <ele>127.932984</ele>
        <time>2020-09-27T09:07:07.861Z</time>
      </trkpt>
      <trkpt lat="65.21103" lon="21.22171">
        <ele>128.124539</ele>
        <time>2020-09-27T09:07:11.883Z</time>
      </trkpt>
      <trkpt lat="65.21098" lon="21.22148">
        <ele>128.305436</ele>
        <time>2020-09-27T09:07:15.869Z</time>
      </trkpt>
      <trkpt lat="65.21093" lon="21.22127">
        <ele>128.473763</ele>
        <time>2020-09-27T09:07:19.866Z</time>
      </trkpt>
      <trkpt lat="65.21088" lon="21.22105">
        <ele>128.647124</ele>
        <time>2020-09-27T09:07:23.862Z</time>
      </trkpt>
      <trkpt lat="65.21083" lon="21.22083">
        <ele>128.826795</ele>
        <time>2020-09-27T09:07:27.884Z</time>
      </trkpt>
      <trkpt lat="65.21078" lon="21.2206">
        <ele>129.004881</ele>
        <time>2020-09-27T09:07:31.898Z</time>
      </trkpt>
      <trkpt lat="65.21073" lon="21.22038">
        <ele>129.189674</ele>
        <time>2020-09-27T09:07:35.859Z</time>
      </trkpt>
      <trkpt lat="65.21068" lon="21.22016">
        <ele>129.362655</ele>
        <time>2020-09-27T09:07:39.854Z</time>
      </trkpt>
      <trkpt lat="65.21063" lon="21.21992">
        <ele>129.547765</ele>
        <time>2020-09-27T09:07:44.863Z</time>
      </trkpt>
      <trkpt lat="65.21059" lon="21.2197">
        <ele>129.713942</ele>
        <time>2020-09-27T09:07:48.879Z</time>
      </trkpt>
      <trkpt lat="65.21054" lon="21.21949">
        <ele>129.88344</ele>
        <time>2020-09-27T09:07:52.860Z</time>
      </trkpt>
      <trkpt lat="65.2105" lon="21.21927">
        <ele>130.052493</ele>
        <time>2020-09-27T09:07:56.871Z</time>
      </trkpt>
      <trkpt lat="65.21045" lon="21.21905">
        <ele>130.226299</ele>
        <time>2020-09-27T09:08:00.870Z</time>
      </trkpt>
      <trkpt lat="65.2104" lon="21.21883">
        <ele>130.406394</ele>
        <time>2020-09-27T09:08:04.877Z</time>
      </trkpt>
      <trkpt lat="65.21035" lon="21.2186">
        <ele>130.737438</ele>
        <time>2020-09-27T09:08:08.859Z</time>
      </trkpt>
      <trkpt lat="65.2103" lon="21.21839">
        <ele>131.432833</ele>
        <time>2020-09-27T09:08:12.882Z</time>
      </trkpt>
      <trkpt lat="65.21026" lon="21.21818">
        <ele>132.123942</ele>
        <time>2020-09-27T09:08:16.866Z</time>
      </trkpt>
      <trkpt lat="65.21021" lon="21.21797">
        <ele>132.806116</ele>
        <time>2020-09-27T09:08:20.859Z</time>
      </trkpt>
      <trkpt lat="65.21017" lon="21.21775">
        <ele>133.52138</ele>
        <time>2020-09-27T09:08:24.867Z</time>
      </trkpt>
      <trkpt lat="65.21013" lon="21.21755">
        <ele>134.184626</ele>
        <time>2020-09-27T09:08:28.874Z</time>
      </trkpt>
      <trkpt lat="65.21008" lon="21.21734">
        <ele>134.866381</ele>
        <time>2020-09-27T09:08:32.876Z</time>
      </trkpt>
      <trkpt lat="65.21004" lon="21.21712">
        <ele>135.577454</ele>
        <time>2020-09-27T09:08:36.869Z</time>
      </trkpt>
      <trkpt lat="65.21001" lon="21.21691">
        <ele>136.252939</ele>
        <time>2020-09-27T09:08:40.867Z</time>
      </trkpt>
      <trkpt lat="65.20996" lon="21.2167">
        <ele>136.947985</ele>
        <time>2020-09-27T09:08:44.874Z</time>
      </trkpt>
      <trkpt lat="65.20991" lon="21.21651">
        <ele>137.61284</ele>
        <time>2020-09-27T09:08:48.880Z</time>
      </trkpt>
      <trkpt lat="65.20987" lon="21.21632">
        <ele>138.254062</ele>
        <time>2020-09-27T09:08:52.884Z</time>
      </trkpt>
      <trkpt lat="65.20982" lon="21.21612">
        <ele>138.897705</ele>
        <time>2020-09-27T09:08:56.863Z</time>
      </trkpt>
      <trkpt lat="65.20977" lon="21.21591">
        <ele>139.628823</ele>
        <time>2020-09-27T09:09:00.858Z</time>
      </trkpt>
      <trkpt lat="65.20972" lon="21.21571">
        <ele>140.32138</ele>
        <time>2020-09-27T09:09:04.861Z</time>
      </trkpt>
      <trkpt lat="65.20968" lon="21.21551">
        <ele>140.987253</ele>
        <time>2020-09-27T09:09:08.870Z</time>
      </trkpt>
      <trkpt lat="65.20963" lon="21.2153">
        <ele>141.682662</ele>
        <time>2020-09-27T09:09:12.852Z</time>
      </trkpt>
      <trkpt lat="65.20959" lon="21.21506">
        <ele>142.415197</ele>
        <time>2020-09-27T09:09:16.902Z</time>
      </trkpt>
      <trkpt lat="65.20955" lon="21.21484">
        <ele>143.144141</ele>
        <time>2020-09-27T09:09:20.850Z</time>
      </trkpt>
      <trkpt lat="65.2095" lon="21.21462">
        <ele>142.887209</ele>
        <time>2020-09-27T09:09:24.849Z</time>
      </trkpt>
      <trkpt lat="65.20946" lon="21.2144">
        <ele>142.629128</ele>
        <time>2020-09-27T09:09:28.866Z</time>
      </trkpt>
      <trkpt lat="65.20941" lon="21.21417">
        <ele>142.353199</ele>
        <time>2020-09-27T09:09:32.883Z</time>
      </trkpt>
      <trkpt lat="65.20936" lon="21.21397">
        <ele>142.102796</ele>
        <time>2020-09-27T09:09:36.863Z</time>
      </trkpt>
      <trkpt lat="65.20932" lon="21.21376">
        <ele>141.84982</ele>
        <time>2020-09-27T09:09:40.852Z</time>
      </trkpt>
      <trkpt lat="65.20927" lon="21.21354">
        <ele>141.577956</ele>
        <time>2020-09-27T09:09:44.858Z</time>
      </trkpt>
      <trkpt lat="65.20922" lon="21.21334">
        <ele>141.330383</ele>
        <time>2020-09-27T09:09:48.883Z</time>
      </trkpt>
      <trkpt lat="65.20917" lon="21.21314">
        <ele>141.077085</ele>
        <time>2020-09-27T09:09:52.887Z</time>
      </trkpt>
      <trkpt lat="65.20913" lon="21.21293">
        <ele>140.82605</ele>
        <time>2020-09-27T09:09:56.873Z</time>
      </trkpt>
      <trkpt lat="65.20908" lon="21.2127">
        <ele>140.541706</ele>
        <time>2020-09-27T09:10:00.876Z</time>
      </trkpt>
      <trkpt lat="65.20903" lon="21.21251">
        <ele>140.310754</ele>
        <time>2020-09-27T09:10:03.880Z</time>
      </trkpt>
      <trkpt lat="65.20898" lon="21.21232">
        <ele>140.069745</ele>
        <time>2020-09-27T09:10:06.864Z</time>
      </trkpt>
      <trkpt lat="65.20894" lon="21.21212">
        <ele>139.824898</ele>
        <time>2020-09-27T09:10:09.852Z</time>
      </trkpt>
      <trkpt lat="65.20889" lon="21.21191">
        <ele>139.574776</ele>
        <time>2020-09-27T09:10:12.890Z</time>
      </trkpt>
      <trkpt lat="65.20884" lon="21.2117">
        <ele>139.313999</ele>
        <time>2020-09-27T09:10:15.869Z</time>
      </trkpt>
      <trkpt lat="65.2088" lon="21.21148">
        <ele>139.05395</ele>
        <time>2020-09-27T09:10:18.850Z</time>
      </trkpt>
      <trkpt lat="65.20875" lon="21.21127">
        <ele>138.788464</ele>
        <time>2020-09-27T09:10:21.880Z</time>
      </trkpt>
      <trkpt lat="65.20871" lon="21.21104">
        <ele>138.51736</ele>
        <time>2020-09-27T09:10:24.864Z</time>
      </trkpt>
      <trkpt lat="65.20866" lon="21.21083">
        <ele>138.216714</ele>
        <time>2020-09-27T09:10:27.859Z</time>
      </trkpt>
      <trkpt lat="65.20861" lon="21.21063">
        <ele>137.928753</ele>
        <time>2020-09-27T09:10:30.853Z</time>
      </trkpt>
      <trkpt lat="65.20857" lon="21.21041">
        <ele>137.622931</ele>
        <time>2020-09-27T09:10:33.872Z</time>
      </trkpt>
      <trkpt lat="65.20852" lon="21.21019">
        <ele>137.312413</ele>
        <time>2020-09-27T09:10:36.864Z</time>
      </trkpt>
      <trkpt lat="65.20847" lon="21.20997">
        <ele>136.99435</ele>
        <time>2020-09-27T09:10:39.861Z</time>
      </trkpt>
      <trkpt lat="65.20841" lon="21.20973">
        <ele>136.659966</ele>
        <time>2020-09-27T09:10:42.859Z</time>
      </trkpt>
      <trkpt lat="65.20836" lon="21.2095">
        <ele>136.327351</ele>
        <time>2020-09-27T09:10:45.855Z</time>
      </trkpt>
      <trkpt lat="65.20831" lon="21.20926">
        <ele>135.996403</ele>
        <time>2020-09-27T09:10:48.864Z</time>
      </trkpt>
      <trkpt lat="65.20825" lon="21.20902">
        <ele>135.655832</ele>
        <time>2020-09-27T09:10:51.849Z</time>
      </trkpt>
      <trkpt lat="65.20819" lon="21.20876">
        <ele>135.291217</ele>
        <time>2020-09-27T09:10:54.882Z</time>
      </trkpt>
      <trkpt lat="65.20814" lon="21.20851">
        <ele>134.929909</ele>
        <time>2020-09-27T09:10:57.860Z</time>
      </trkpt>
      <trkpt lat="65.20807" lon="21.20826">
        <ele>134.565704</ele>
        <time>2020-09-27T09:11:00.882Z</time>
      </trkpt>
      <trkpt lat="65.20801" lon="21.20799">
        <ele>134.192146</ele>
        <time>2020-09-27T09:11:03.858Z</time>
      </trkpt>
      <trkpt lat="65.20795" lon="21.20772">
        <ele>133.807326</ele>
        <time>2020-09-27T09:11:06.883Z</time>
      </trkpt>
      <trkpt lat="65.20789" lon="21.20745">
        <ele>133.418931</ele>
        <time>2020-09-27T09:11:09.878Z</time>
      </trkpt>
      <trkpt lat="65.20784" lon="21.20717">
        <ele>133.288824</ele>
        <time>2020-09-27T09:11:12.878Z</time>
      </trkpt>
      <trkpt lat="65.20778" lon="21.2069">
        <ele>133.60496</ele>
        <time>2020-09-27T09:11:15.877Z</time>
      </trkpt>
      <trkpt lat="65.20772" lon="21.20662">
        <ele>133.924479</ele>
        <time>2020-09-27T09:11:18.913Z</time>
      </trkpt>
      <trkpt lat="65.20766" lon="21.20636">
        <ele>134.231665</ele>
        <time>2020-09-27T09:11:21.867Z</time>
      </trkpt>
      <trkpt lat="65.20761" lon="21.2061">
        <ele>134.534484</ele>
        <time>2020-09-27T09:11:24.876Z</time>
      </trkpt>
      <trkpt lat="65.20755" lon="21.20583">
        <ele>134.851312</ele>
        <time>2020-09-27T09:11:27.873Z</time>
      </trkpt>
      <trkpt lat="65.20748" lon="21.20556">
        <ele>135.180167</ele>
        <time>2020-09-27T09:11:30.856Z</time>
      </trkpt>
      <trkpt lat="65.20742" lon="21.20527">
        <ele>135.507179</ele>
        <time>2020-09-27T09:11:33.859Z</time>
      </trkpt>
      <trkpt lat="65.20739" lon="21.20508">
        <ele>135.731006</ele>
        <time>2020-09-27T09:11:35.869Z</time>
      </trkpt>
      <trkpt lat="65.20733" lon="21.20479">
        <ele>136.058136</ele>
        <time>2020-09-27T09:11:38.877Z</time>
      </trkpt>
      <trkpt lat="65.20726" lon="21.20452">
        <ele>136.383713</ele>
        <time>2020-09-27T09:11:41.854Z</time>
      </trkpt>
      <trkpt lat="65.2072" lon="21.20425">
        <ele>136.699143</ele>
        <time>2020-09-27T09:11:44.905Z</time>
      </trkpt>
      <trkpt lat="65.20716" lon="21.20406">
        <ele>136.921295</ele>
        <time>2020-09-27T09:11:46.876Z</time>
      </trkpt>
      <trkpt lat="65.20712" lon="21.20387">
        <ele>137.142676</ele>
        <time>2020-09-27T09:11:48.869Z</time>
      </trkpt>
      <trkpt lat="65.20706" lon="21.2036">
        <ele>137.458818</ele>
        <time>2020-09-27T09:11:51.903Z</time>
      </trkpt>
      <trkpt lat="65.207" lon="21.20333">
        <ele>137.752478</ele>
        <time>2020-09-27T09:11:54.884Z</time>
      </trkpt>
      <trkpt lat="65.20694" lon="21.20308">
        <ele>138.007126</ele>
        <time>2020-09-27T09:11:57.858Z</time>
      </trkpt>
      <trkpt lat="65.20689" lon="21.20284">
        <ele>138.253565</ele>
        <time>2020-09-27T09:12:00.872Z</time>
      </trkpt>
      <trkpt lat="65.20683" lon="21.20258">
        <ele>138.512427</ele>
        <time>2020-09-27T09:12:03.869Z</time>
      </trkpt>
      <trkpt lat="65.20678" lon="21.20232">
        <ele>138.768104</ele>
        <time>2020-09-27T09:12:06.854Z</time>
      </trkpt>
      <trkpt lat="65.20673" lon="21.20207">
        <ele>139.020285</ele>
        <time>2020-09-27T09:12:09.894Z</time>
      </trkpt>
      <trkpt lat="65.20668" lon="21.20181">
        <ele>139.274158</ele>
        <time>2020-09-27T09:12:12.880Z</time>
      </trkpt>
      <trkpt lat="65.20663" lon="21.20155">
        <ele>139.524101</ele>
        <time>2020-09-27T09:12:15.868Z</time>
      </trkpt>
      <trkpt lat="65.20657" lon="21.2013">
        <ele>139.77687</ele>
        <time>2020-09-27T09:12:18.867Z</time>
      </trkpt>
      <trkpt lat="65.20652" lon="21.20106">
        <ele>140.014847</ele>
        <time>2020-09-27T09:12:21.878Z</time>
      </trkpt>
      <trkpt lat="65.20647" lon="21.20082">
        <ele>140.253617</ele>
        <time>2020-09-27T09:12:24.876Z</time>
      </trkpt>
      <trkpt lat="65.20642" lon="21.20058">
        <ele>140.494149</ele>
        <time>2020-09-27T09:12:27.869Z</time>
      </trkpt>
      <trkpt lat="65.20637" lon="21.20035">
        <ele>140.732518</ele>
        <time>2020-09-27T09:12:30.905Z</time>
      </trkpt>
      <trkpt lat="65.20631" lon="21.20011">
        <ele>140.978881</ele>
        <time>2020-09-27T09:12:33.879Z</time>
      </trkpt>
      <trkpt lat="65.20626" lon="21.19988">
        <ele>141.208585</ele>
        <time>2020-09-27T09:12:36.859Z</time>
      </trkpt>
      <trkpt lat="65.2062" lon="21.19966">
        <ele>141.435456</ele>
        <time>2020-09-27T09:12:39.864Z</time>
      </trkpt>
      <trkpt lat="65.20616" lon="21.19945">
        <ele>142.018844</ele>
        <time>2020-09-27T09:12:42.905Z</time>
      </trkpt>
      <trkpt lat="65.20611" lon="21.19924">
        <ele>142.58271</ele>
        <time>2020-09-27T09:12:45.860Z</time>
      </trkpt>
      <trkpt lat="65.20607" lon="21.19904">
        <ele>143.155337</ele>
        <time>2020-09-27T09:12:48.901Z</time>
      </trkpt>
      <trkpt lat="65.20602" lon="21.19878">
        <ele>143.84568</ele>
        <time>2020-09-27T09:12:52.866Z</time>
      </trkpt>
      <trkpt lat="65.20597" lon="21.19854">
        <ele>144.491765</ele>
        <time>2020-09-27T09:12:56.880Z</time>
      </trkpt>
      <trkpt lat="65.20592" lon="21.19831">
        <ele>145.151122</ele>
        <time>2020-09-27T09:13:00.902Z</time>
      </trkpt>
      <trkpt lat="65.20587" lon="21.19808">
        <ele>145.783551</ele>
        <time>2020-09-27T09:13:04.850Z</time>
      </trkpt>
      <trkpt lat="65.20582" lon="21.19785">
        <ele>146.419859</ele>
        <time>2020-09-27T09:13:08.862Z</time>
      </trkpt>
      <trkpt lat="65.20577" lon="21.1976">
        <ele>147.10764</ele>
        <time>2020-09-27T09:13:12.877Z</time>
      </trkpt>
      <trkpt lat="65.20571" lon="21.19736">
        <ele>147.773836</ele>
        <time>2020-09-27T09:13:16.850Z</time>
      </trkpt>
      <trkpt lat="65.20566" lon="21.19711">
        <ele>148.448002</ele>
        <time>2020-09-27T09:13:20.860Z</time>
      </trkpt>
      <trkpt lat="65.20561" lon="21.19687">
        <ele>149.128332</ele>
        <time>2020-09-27T09:13:24.866Z</time>
      </trkpt>
      <trkpt lat="65.20555" lon="21.19662">
        <ele>149.828694</ele>
        <time>2020-09-27T09:13:28.850Z</time>
      </trkpt>
      <trkpt lat="65.20549" lon="21.19638">
        <ele>150.503191</ele>
        <time>2020-09-27T09:13:32.875Z</time>
      </trkpt>
      <trkpt lat="65.20543" lon="21.19615">
        <ele>151.172622</ele>
        <time>2020-09-27T09:13:36.870Z</time>
      </trkpt>
      <trkpt lat="65.20539" lon="21.19592">
        <ele>151.798497</ele>
        <time>2020-09-27T09:13:40.858Z</time>
      </trkpt>
      <trkpt lat="65.20535" lon="21.19568">
        <ele>152.023505</ele>
        <time>2020-09-27T09:13:44.869Z</time>
      </trkpt>
      <trkpt lat="65.2053" lon="21.19545">
        <ele>152.086542</ele>
        <time>2020-09-27T09:13:48.877Z</time>
      </trkpt>
      <trkpt lat="65.20525" lon="21.1952">
        <ele>152.150645</ele>
        <time>2020-09-27T09:13:52.859Z</time>
      </trkpt>
      <trkpt lat="65.2052" lon="21.195">
        <ele>152.207911</ele>
        <time>2020-09-27T09:13:56.860Z</time>
      </trkpt>
      <trkpt lat="65.20515" lon="21.19476">
        <ele>152.270189</ele>
        <time>2020-09-27T09:14:00.848Z</time>
      </trkpt>
      <trkpt lat="65.2051" lon="21.19453">
        <ele>152.332164</ele>
        <time>2020-09-27T09:14:04.885Z</time>
      </trkpt>
      <trkpt lat="65.20505" lon="21.19428">
        <ele>152.398926</ele>
        <time>2020-09-27T09:14:08.857Z</time>
      </trkpt>
      <trkpt lat="65.205" lon="21.19403">
        <ele>152.464589</ele>
        <time>2020-09-27T09:14:12.870Z</time>
      </trkpt>
      <trkpt lat="65.20495" lon="21.19383">
        <ele>152.516111</ele>
        <time>2020-09-27T09:14:15.857Z</time>
      </trkpt>
      <trkpt lat="65.20491" lon="21.19364">
        <ele>152.56892</ele>
        <time>2020-09-27T09:14:18.894Z</time>
      </trkpt>
      <trkpt lat="65.20487" lon="21.19345">
        <ele>152.620443</ele>
        <time>2020-09-27T09:14:21.881Z</time>
      </trkpt>
      <trkpt lat="65.20481" lon="21.1932">
        <ele>152.686352</ele>
        <time>2020-09-27T09:14:25.870Z</time>
      </trkpt>
      <trkpt lat="65.20476" lon="21.19297">
        <ele>152.748745</ele>
        <time>2020-09-27T09:14:29.872Z</time>
      </trkpt>
      <trkpt lat="65.2047" lon="21.19272">
        <ele>152.814912</ele>
        <time>2020-09-27T09:14:33.860Z</time>
      </trkpt>
      <trkpt lat="65.20466" lon="21.19252">
        <ele>152.868549</ele>
        <time>2020-09-27T09:14:36.869Z</time>
      </trkpt>
      <trkpt lat="65.20462" lon="21.19233">
        <ele>152.920668</ele>
        <time>2020-09-27T09:14:39.909Z</time>
      </trkpt>
      <trkpt lat="65.20456" lon="21.19209">
        <ele>152.983629</ele>
        <time>2020-09-27T09:14:43.877Z</time>
      </trkpt>
      <trkpt lat="65.20452" lon="21.19185">
        <ele>153.041081</ele>
        <time>2020-09-27T09:14:47.867Z</time>
      </trkpt>
      <trkpt lat="65.20446" lon="21.19162">
        <ele>153.099523</ele>
        <time>2020-09-27T09:14:51.863Z</time>
      </trkpt>
      <trkpt lat="65.20441" lon="21.19141">
        <ele>153.149461</ele>
        <time>2020-09-27T09:14:54.854Z</time>
      </trkpt>
      <trkpt lat="65.20437" lon="21.19121">
        <ele>153.19771</ele>
        <time>2020-09-27T09:14:57.876Z</time>
      </trkpt>
      <trkpt lat="65.20432" lon="21.19101">
        <ele>153.246875</ele>
        <time>2020-09-27T09:15:00.875Z</time>
      </trkpt>
      <trkpt lat="65.20428" lon="21.19081">
        <ele>153.293296</ele>
        <time>2020-09-27T09:15:03.891Z</time>
      </trkpt>
      <trkpt lat="65.20423" lon="21.19061">
        <ele>153.340283</ele>
        <time>2020-09-27T09:15:06.856Z</time>
      </trkpt>
      <trkpt lat="65.20419" lon="21.1904">
        <ele>153.390151</ele>
        <time>2020-09-27T09:15:09.863Z</time>
      </trkpt>
      <trkpt lat="65.20414" lon="21.1902">
        <ele>153.439625</ele>
        <time>2020-09-27T09:15:12.877Z</time>
      </trkpt>
      <trkpt lat="65.2041" lon="21.19">
        <ele>153.485772</ele>
        <time>2020-09-27T09:15:15.884Z</time>
      </trkpt>
      <trkpt lat="65.20406" lon="21.18982">
        <ele>153.531305</ele>
        <time>2020-09-27T09:15:18.879Z</time>
      </trkpt>
      <trkpt lat="65.204" lon="21.1896">
        <ele>153.584998</ele>
        <time>2020-09-27T09:15:22.858Z</time>
      </trkpt>
      <trkpt lat="65.20395" lon="21.18938">
        <ele>153.637701</ele>
        <time>2020-09-27T09:15:26.848Z</time>
      </trkpt>
      <trkpt lat="65.20391" lon="21.18917">
        <ele>153.687872</ele>
        <time>2020-09-27T09:15:30.883Z</time>
      </trkpt>
      <trkpt lat="65.20386" lon="21.18896">
        <ele>153.738279</ele>
        <time>2020-09-27T09:15:34.879Z</time>
      </trkpt>
      <trkpt lat="65.20381" lon="21.18875">
        <ele>153.790624</ele>
        <time>2020-09-27T09:15:38.862Z</time>
      </trkpt>
      <trkpt lat="65.20376" lon="21.18855">
        <ele>153.838928</ele>
        <time>2020-09-27T09:15:42.875Z</time>
      </trkpt>
      <trkpt lat="65.20371" lon="21.18834">
        <ele>153.890106</ele>
        <time>2020-09-27T09:15:46.894Z</time>
      </trkpt>
      <trkpt lat="65.20367" lon="21.18812">
        <ele>154.455583</ele>
        <time>2020-09-27T09:15:50.899Z</time>
      </trkpt>
      <trkpt lat="65.20363" lon="21.1879">
        <ele>155.285107</ele>
        <time>2020-09-27T09:15:54.868Z</time>
      </trkpt>
      <trkpt lat="65.20358" lon="21.18769">
        <ele>156.06517</ele>
        <time>2020-09-27T09:15:58.874Z</time>
      </trkpt>
      <trkpt lat="65.20354" lon="21.18749">
        <ele>156.851832</ele>
        <time>2020-09-27T09:16:02.907Z</time>
      </trkpt>
      <trkpt lat="65.2035" lon="21.18727">
        <ele>157.657863</ele>
        <time>2020-09-27T09:16:06.876Z</time>
      </trkpt>
      <trkpt lat="65.20345" lon="21.18707">
        <ele>158.416086</ele>
        <time>2020-09-27T09:16:10.858Z</time>
      </trkpt>
      <trkpt lat="65.20342" lon="21.18687">
        <ele>159.173305</ele>
        <time>2020-09-27T09:16:14.874Z</time>
      </trkpt>
      <trkpt lat="65.20337" lon="21.18667">
        <ele>159.946228</ele>
        <time>2020-09-27T09:16:18.894Z</time>
      </trkpt>
      <trkpt lat="65.20333" lon="21.18648">
        <ele>160.674817</ele>
        <time>2020-09-27T09:16:22.885Z</time>
      </trkpt>
      <trkpt lat="65.20329" lon="21.18628">
        <ele>161.408158</ele>
        <time>2020-09-27T09:16:26.870Z</time>
      </trkpt>
      <trkpt lat="65.20325" lon="21.18609">
        <ele>162.165306</ele>
        <time>2020-09-27T09:16:30.857Z</time>
      </trkpt>
      <trkpt lat="65.2032" lon="21.18585">
        <ele>163.067301</ele>
        <time>2020-09-27T09:16:35.862Z</time>
      </trkpt>
      <trkpt lat="65.20315" lon="21.18563">
        <ele>163.914104</ele>
        <time>2020-09-27T09:16:40.903Z</time>
      </trkpt>
      <trkpt lat="65.20311" lon="21.18542">
        <ele>164.680556</ele>
        <time>2020-09-27T09:16:44.874Z</time>
      </trkpt>
      <trkpt lat="65.20307" lon="21.18522">
        <ele>165.437708</ele>
        <time>2020-09-27T09:16:48.864Z</time>
      </trkpt>
      <trkpt lat="65.20301" lon="21.18503">
        <ele>166.2173</ele>
        <time>2020-09-27T09:16:52.878Z</time>
      </trkpt>
      <trkpt lat="65.20297" lon="21.18482">
        <ele>167.000433</ele>
        <time>2020-09-27T09:16:56.860Z</time>
      </trkpt>
      <trkpt lat="65.20293" lon="21.18461">
        <ele>167.80043</ele>
        <time>2020-09-27T09:17:00.858Z</time>
      </trkpt>
      <trkpt lat="65.20288" lon="21.18437">
        <ele>168.493028</ele>
        <time>2020-09-27T09:17:05.867Z</time>
      </trkpt>
      <trkpt lat="65.20284" lon="21.18416">
        <ele>168.610038</ele>
        <time>2020-09-27T09:17:09.879Z</time>
      </trkpt>
      <trkpt lat="65.2028" lon="21.18395">
        <ele>168.729575</ele>
        <time>2020-09-27T09:17:13.935Z</time>
      </trkpt>
      <trkpt lat="65.20277" lon="21.18374">
        <ele>168.844171</ele>
        <time>2020-09-27T09:17:17.876Z</time>
      </trkpt>
      <trkpt lat="65.20273" lon="21.18355">
        <ele>168.958829</ele>
        <time>2020-09-27T09:17:21.859Z</time>
      </trkpt>
      <trkpt lat="65.20271" lon="21.18331">
        <ele>169.084517</ele>
        <time>2020-09-27T09:17:25.876Z</time>
      </trkpt>
      <trkpt lat="65.20267" lon="21.18306">
        <ele>169.21943</ele>
        <time>2020-09-27T09:17:30.899Z</time>
      </trkpt>
      <trkpt lat="65.20264" lon="21.18281">
        <ele>169.357901</ele>
        <time>2020-09-27T09:17:35.861Z</time>
      </trkpt>
      <trkpt lat="65.20261" lon="21.18258">
        <ele>169.479084</ele>
        <time>2020-09-27T09:17:39.866Z</time>
      </trkpt>
      <trkpt lat="65.20258" lon="21.18236">
        <ele>169.600733</ele>
        <time>2020-09-27T09:17:43.876Z</time>
      </trkpt>
      <trkpt lat="65.20255" lon="21.18213">
        <ele>169.724248</ele>
        <time>2020-09-27T09:17:47.855Z</time>
      </trkpt>
      <trkpt lat="65.20253" lon="21.18188">
        <ele>169.856616</ele>
        <time>2020-09-27T09:17:51.864Z</time>
      </trkpt>
      <trkpt lat="65.20252" lon="21.18166">
        <ele>169.970815</ele>
        <time>2020-09-27T09:17:54.883Z</time>
      </trkpt>
      <trkpt lat="65.2025" lon="21.18145">
        <ele>170.085357</ele>
        <time>2020-09-27T09:17:57.875Z</time>
      </trkpt>
      <trkpt lat="65.20248" lon="21.18122">
        <ele>170.20648</ele>
        <time>2020-09-27T09:18:00.877Z</time>
      </trkpt>
      <trkpt lat="65.20247" lon="21.18098">
        <ele>170.329704</ele>
        <time>2020-09-27T09:18:03.895Z</time>
      </trkpt>
      <trkpt lat="65.20246" lon="21.18075">
        <ele>170.450242</ele>
        <time>2020-09-27T09:18:06.867Z</time>
      </trkpt>
      <trkpt lat="65.20246" lon="21.18053">
        <ele>170.565733</ele>
        <time>2020-09-27T09:18:09.871Z</time>
      </trkpt>
      <trkpt lat="65.20244" lon="21.1803">
        <ele>170.65199</ele>
        <time>2020-09-27T09:18:12.887Z</time>
      </trkpt>
      <trkpt lat="65.20243" lon="21.18007">
        <ele>170.247797</ele>
        <time>2020-09-27T09:18:15.870Z</time>
      </trkpt>
      <trkpt lat="65.20242" lon="21.17981">
        <ele>169.814864</ele>
        <time>2020-09-27T09:18:18.861Z</time>
      </trkpt>
      <trkpt lat="65.20243" lon="21.17955">
        <ele>169.36162</ele>
        <time>2020-09-27T09:18:21.899Z</time>
      </trkpt>
      <trkpt lat="65.20243" lon="21.17927">
        <ele>168.89349</ele>
        <time>2020-09-27T09:18:24.867Z</time>
      </trkpt>
      <trkpt lat="65.20244" lon="21.179">
        <ele>168.428191</ele>
        <time>2020-09-27T09:18:27.883Z</time>
      </trkpt>
      <trkpt lat="65.20245" lon="21.17875">
        <ele>168.015012</ele>
        <time>2020-09-27T09:18:30.870Z</time>
      </trkpt>
      <trkpt lat="65.20246" lon="21.1785">
        <ele>167.592234</ele>
        <time>2020-09-27T09:18:33.880Z</time>
      </trkpt>
      <trkpt lat="65.20247" lon="21.17827">
        <ele>167.185092</ele>
        <time>2020-09-27T09:18:36.847Z</time>
      </trkpt>
      <trkpt lat="65.20247" lon="21.17802">
        <ele>166.774697</ele>
        <time>2020-09-27T09:18:39.877Z</time>
      </trkpt>
      <trkpt lat="65.20248" lon="21.17777">
        <ele>166.351919</ele>
        <time>2020-09-27T09:18:42.886Z</time>
      </trkpt>
      <trkpt lat="65.20248" lon="21.17754">
        <ele>165.952831</ele>
        <time>2020-09-27T09:18:45.883Z</time>
      </trkpt>
      <trkpt lat="65.20249" lon="21.17732">
        <ele>165.574477</ele>
        <time>2020-09-27T09:18:48.874Z</time>
      </trkpt>
      <trkpt lat="65.2025" lon="21.17708">
        <ele>165.170709</ele>
        <time>2020-09-27T09:18:51.866Z</time>
      </trkpt>
      <trkpt lat="65.2025" lon="21.17684">
        <ele>164.765637</ele>
        <time>2020-09-27T09:18:54.905Z</time>
      </trkpt>
      <trkpt lat="65.20251" lon="21.17658">
        <ele>164.328001</ele>
        <time>2020-09-27T09:18:57.876Z</time>
      </trkpt>
      <trkpt lat="65.20251" lon="21.17633">
        <ele>163.901839</ele>
        <time>2020-09-27T09:19:00.874Z</time>
      </trkpt>
      <trkpt lat="65.20252" lon="21.17608">
        <ele>163.47789</ele>
        <time>2020-09-27T09:19:03.875Z</time>
      </trkpt>
      <trkpt lat="65.20253" lon="21.17582">
        <ele>163.427799</ele>
        <time>2020-09-27T09:19:06.855Z</time>
      </trkpt>
      <trkpt lat="65.20253" lon="21.17557">
        <ele>163.454159</ele>
        <time>2020-09-27T09:19:09.860Z</time>
      </trkpt>
      <trkpt lat="65.20253" lon="21.1753">
        <ele>163.48084</ele>
        <time>2020-09-27T09:19:12.870Z</time>
      </trkpt>
      <trkpt lat="65.20253" lon="21.17504">
        <ele>163.507204</ele>
        <time>2020-09-27T09:19:15.900Z</time>
      </trkpt>
      <trkpt lat="65.20253" lon="21.17477">
        <ele>163.535309</ele>
        <time>2020-09-27T09:19:18.863Z</time>
      </trkpt>
      <trkpt lat="65.20252" lon="21.1745">
        <ele>163.562593</ele>
        <time>2020-09-27T09:19:21.865Z</time>
      </trkpt>
      <trkpt lat="65.20251" lon="21.17422">
        <ele>163.59091</ele>
        <time>2020-09-27T09:19:24.860Z</time>
      </trkpt>
      <trkpt lat="65.2025" lon="21.17394">
        <ele>163.619509</ele>
        <time>2020-09-27T09:19:27.882Z</time>
      </trkpt>
      <trkpt lat="65.20249" lon="21.17367">
        <ele>163.647462</ele>
        <time>2020-09-27T09:19:30.886Z</time>
      </trkpt>
      <trkpt lat="65.20249" lon="21.17339">
        <ele>163.675516</ele>
        <time>2020-09-27T09:19:33.857Z</time>
      </trkpt>
      <trkpt lat="65.20247" lon="21.17312">
        <ele>163.70381</ele>
        <time>2020-09-27T09:19:36.859Z</time>
      </trkpt>
      <trkpt lat="65.20246" lon="21.17284">
        <ele>163.731902</ele>
        <time>2020-09-27T09:19:39.855Z</time>
      </trkpt>
      <trkpt lat="65.20245" lon="21.17257">
        <ele>163.76004</ele>
        <time>2020-09-27T09:19:42.886Z</time>
      </trkpt>
      <trkpt lat="65.20243" lon="21.17231">
        <ele>163.786684</ele>
        <time>2020-09-27T09:19:45.870Z</time>
      </trkpt>
      <trkpt lat="65.20241" lon="21.17205">
        <ele>163.813744</ele>
        <time>2020-09-27T09:19:48.871Z</time>
      </trkpt>
      <trkpt lat="65.20239" lon="21.1718">
        <ele>163.839619</ele>
        <time>2020-09-27T09:19:51.861Z</time>
      </trkpt>
      <trkpt lat="65.20237" lon="21.17156">
        <ele>164.009377</ele>
        <time>2020-09-27T09:19:54.865Z</time>
      </trkpt>
      <trkpt lat="65.20235" lon="21.1713">
        <ele>164.20383</ele>
        <time>2020-09-27T09:19:57.885Z</time>
      </trkpt>
      <trkpt lat="65.20232" lon="21.17103">
        <ele>164.412082</ele>
        <time>2020-09-27T09:20:00.901Z</time>
      </trkpt>
      <trkpt lat="65.2023" lon="21.17076">
        <ele>164.624592</ele>
        <time>2020-09-27T09:20:03.856Z</time>
      </trkpt>
      <trkpt lat="65.20227" lon="21.17048">
        <ele>164.837795</ele>
        <time>2020-09-27T09:20:06.864Z</time>
      </trkpt>
      <trkpt lat="65.20225" lon="21.1702">
        <ele>165.055097</ele>
        <time>2020-09-27T09:20:09.852Z</time>
      </trkpt>
      <trkpt lat="65.20223" lon="21.1699">
        <ele>165.284155</ele>
        <time>2020-09-27T09:20:12.878Z</time>
      </trkpt>
      <trkpt lat="65.2022" lon="21.16959">
        <ele>165.521286</ele>
        <time>2020-09-27T09:20:15.911Z</time>
      </trkpt>
      <trkpt lat="65.20218" lon="21.16929">
        <ele>165.749605</ele>
        <time>2020-09-27T09:20:18.883Z</time>
      </trkpt>
      <trkpt lat="65.20215" lon="21.16898">
        <ele>165.987129</ele>
        <time>2020-09-27T09:20:21.861Z</time>
      </trkpt>
      <trkpt lat="65.20212" lon="21.16868">
        <ele>166.216257</ele>
        <time>2020-09-27T09:20:24.900Z</time>
      </trkpt>
      <trkpt lat="65.2021" lon="21.16841">
        <ele>166.430967</ele>
        <time>2020-09-27T09:20:27.860Z</time>
      </trkpt>
      <trkpt lat="65.20206" lon="21.16814">
        <ele>166.641353</ele>
        <time>2020-09-27T09:20:30.857Z</time>
      </trkpt>
      <trkpt lat="65.20203" lon="21.16787">
        <ele>166.848879</ele>
        <time>2020-09-27T09:20:33.863Z</time>
      </trkpt>
      <trkpt lat="65.202" lon="21.1676">
        <ele>167.05904</ele>
        <time>2020-09-27T09:20:36.864Z</time>
      </trkpt>
      <trkpt lat="65.20198" lon="21.16734">
        <ele>167.14238</ele>
        <time>2020-09-27T09:20:39.865Z</time>
      </trkpt>
      <trkpt lat="65.20196" lon="21.16709">
        <ele>167.217239</ele>
        <time>2020-09-27T09:20:42.894Z</time>
      </trkpt>
      <trkpt lat="65.20193" lon="21.16683">
        <ele>167.29629</ele>
        <time>2020-09-27T09:20:45.854Z</time>
      </trkpt>
      <trkpt lat="65.2019" lon="21.16657">
        <ele>167.375119</ele>
        <time>2020-09-27T09:20:48.900Z</time>
      </trkpt>
      <trkpt lat="65.20187" lon="21.16628">
        <ele>167.462132</ele>
        <time>2020-09-27T09:20:51.869Z</time>
      </trkpt>
      <trkpt lat="65.20184" lon="21.166">
        <ele>167.5484</ele>
        <time>2020-09-27T09:20:54.875Z</time>
      </trkpt>
      <trkpt lat="65.20181" lon="21.16571">
        <ele>167.63535</ele>
        <time>2020-09-27T09:20:57.900Z</time>
      </trkpt>
      <trkpt lat="65.20178" lon="21.16541">
        <ele>167.725556</ele>
        <time>2020-09-27T09:21:00.868Z</time>
      </trkpt>
      <trkpt lat="65.20175" lon="21.16512">
        <ele>167.813927</ele>
        <time>2020-09-27T09:21:03.861Z</time>
      </trkpt>
      <trkpt lat="65.20172" lon="21.16482">
        <ele>167.902584</ele>
        <time>2020-09-27T09:21:06.856Z</time>
      </trkpt>
      <trkpt lat="65.20169" lon="21.16452">
        <ele>167.99235</ele>
        <time>2020-09-27T09:21:09.868Z</time>
      </trkpt>
      <trkpt lat="65.20167" lon="21.16431">
        <ele>168.056462</ele>
        <time>2020-09-27T09:21:11.882Z</time>
      </trkpt>
      <trkpt lat="65.20165" lon="21.1641">
        <ele>168.119408</ele>
        <time>2020-09-27T09:21:13.857Z</time>
      </trkpt>
      <trkpt lat="65.20163" lon="21.1638">
        <ele>168.211178</ele>
        <time>2020-09-27T09:21:16.860Z</time>
      </trkpt>
      <trkpt lat="65.20159" lon="21.16349">
        <ele>168.304152</ele>
        <time>2020-09-27T09:21:19.911Z</time>
      </trkpt>
      <trkpt lat="65.20156" lon="21.16318">
        <ele>168.251669</ele>
        <time>2020-09-27T09:21:22.880Z</time>
      </trkpt>
      <trkpt lat="65.20155" lon="21.16297">
        <ele>168.185277</ele>
        <time>2020-09-27T09:21:24.878Z</time>
      </trkpt>
      <trkpt lat="65.20153" lon="21.16275">
        <ele>168.118599</ele>
        <time>2020-09-27T09:21:26.874Z</time>
      </trkpt>
      <trkpt lat="65.2015" lon="21.16245">
        <ele>168.022048</ele>
        <time>2020-09-27T09:21:29.865Z</time>
      </trkpt>
      <trkpt lat="65.20146" lon="21.16214">
        <ele>167.924964</ele>
        <time>2020-09-27T09:21:32.895Z</time>
      </trkpt>
      <trkpt lat="65.20142" lon="21.16184">
        <ele>167.828934</ele>
        <time>2020-09-27T09:21:35.863Z</time>
      </trkpt>
      <trkpt lat="65.20139" lon="21.16154">
        <ele>167.735866</ele>
        <time>2020-09-27T09:21:38.908Z</time>
      </trkpt>
      <trkpt lat="65.20135" lon="21.16125">
        <ele>167.643176</ele>
        <time>2020-09-27T09:21:41.880Z</time>
      </trkpt>
      <trkpt lat="65.20132" lon="21.16095">
        <ele>167.547385</ele>
        <time>2020-09-27T09:21:44.866Z</time>
      </trkpt>
      <trkpt lat="65.2013" lon="21.16073">
        <ele>167.481152</ele>
        <time>2020-09-27T09:21:46.861Z</time>
      </trkpt>
      <trkpt lat="65.20128" lon="21.16051">
        <ele>167.412384</ele>
        <time>2020-09-27T09:21:48.901Z</time>
      </trkpt>
      <trkpt lat="65.20127" lon="21.16029">
        <ele>167.342262</ele>
        <time>2020-09-27T09:21:50.861Z</time>
      </trkpt>
      <trkpt lat="65.20125" lon="21.16007">
        <ele>167.274019</ele>
        <time>2020-09-27T09:21:52.876Z</time>
      </trkpt>
      <trkpt lat="65.20123" lon="21.15985">
        <ele>167.205539</ele>
        <time>2020-09-27T09:21:54.864Z</time>
      </trkpt>
      <trkpt lat="65.20121" lon="21.15963">
        <ele>167.136465</ele>
        <time>2020-09-27T09:21:56.912Z</time>
      </trkpt>
      <trkpt lat="65.20119" lon="21.1594">
        <ele>167.065162</ele>
        <time>2020-09-27T09:21:58.856Z</time>
      </trkpt>
      <trkpt lat="65.20117" lon="21.15916">
        <ele>166.929615</ele>
        <time>2020-09-27T09:22:00.876Z</time>
      </trkpt>
      <trkpt lat="65.20115" lon="21.15894">
        <ele>166.690699</ele>
        <time>2020-09-27T09:22:02.866Z</time>
      </trkpt>
      <trkpt lat="65.20113" lon="21.15873">
        <ele>166.462623</ele>
        <time>2020-09-27T09:22:04.916Z</time>
      </trkpt>
      <trkpt lat="65.20109" lon="21.15844">
        <ele>166.140647</ele>
        <time>2020-09-27T09:22:07.866Z</time>
      </trkpt>
      <trkpt lat="65.20106" lon="21.15814">
        <ele>165.80863</ele>
        <time>2020-09-27T09:22:10.861Z</time>
      </trkpt>
      <trkpt lat="65.20105" lon="21.15792">
        <ele>165.571226</ele>
        <time>2020-09-27T09:22:12.858Z</time>
      </trkpt>
      <trkpt lat="65.20103" lon="21.1577">
        <ele>165.332816</ele>
        <time>2020-09-27T09:22:14.854Z</time>
      </trkpt>
      <trkpt lat="65.201" lon="21.15747">
        <ele>165.076554</ele>
        <time>2020-09-27T09:22:16.868Z</time>
      </trkpt>
      <trkpt lat="65.20098" lon="21.15721">
        <ele>164.79817</ele>
        <time>2020-09-27T09:22:18.880Z</time>
      </trkpt>
      <trkpt lat="65.20096" lon="21.15695">
        <ele>164.514049</ele>
        <time>2020-09-27T09:22:20.871Z</time>
      </trkpt>
      <trkpt lat="65.20093" lon="21.15668">
        <ele>164.22506</ele>
        <time>2020-09-27T09:22:22.856Z</time>
      </trkpt>
      <trkpt lat="65.2009" lon="21.15641">
        <ele>163.921833</ele>
        <time>2020-09-27T09:22:24.852Z</time>
      </trkpt>
      <trkpt lat="65.20087" lon="21.15612">
        <ele>163.613695</ele>
        <time>2020-09-27T09:22:26.912Z</time>
      </trkpt>
      <trkpt lat="65.20084" lon="21.15583">
        <ele>163.294433</ele>
        <time>2020-09-27T09:22:28.868Z</time>
      </trkpt>
      <trkpt lat="65.20081" lon="21.15554">
        <ele>162.972291</ele>
        <time>2020-09-27T09:22:30.858Z</time>
      </trkpt>
      <trkpt lat="65.20077" lon="21.15523">
        <ele>162.636144</ele>
        <time>2020-09-27T09:22:32.868Z</time>
      </trkpt>
      <trkpt lat="65.20074" lon="21.15492">
        <ele>162.341771</ele>
        <time>2020-09-27T09:22:34.874Z</time>
      </trkpt>
      <trkpt lat="65.20071" lon="21.15461">
        <ele>162.095165</ele>
        <time>2020-09-27T09:22:36.899Z</time>
      </trkpt>
      <trkpt lat="65.20069" lon="21.15429">
        <ele>161.84709</ele>
        <time>2020-09-27T09:22:38.884Z</time>
      </trkpt>
      <trkpt lat="65.20066" lon="21.15398">
        <ele>161.597498</ele>
        <time>2020-09-27T09:22:40.871Z</time>
      </trkpt>
      <trkpt lat="65.20063" lon="21.15367">
        <ele>161.352078</ele>
        <time>2020-09-27T09:22:42.943Z</time>
      </trkpt>
      <trkpt lat="65.2006" lon="21.15336">
        <ele>161.110063</ele>
        <time>2020-09-27T09:22:44.886Z</time>
      </trkpt>
      <trkpt lat="65.20057" lon="21.15309">
        <ele>160.888009</ele>
        <time>2020-09-27T09:22:46.859Z</time>
      </trkpt>
      <trkpt lat="65.20055" lon="21.15281">
        <ele>160.671346</ele>
        <time>2020-09-27T09:22:48.879Z</time>
      </trkpt>
      <trkpt lat="65.20052" lon="21.15254">
        <ele>160.456261</ele>
        <time>2020-09-27T09:22:50.889Z</time>
      </trkpt>
      <trkpt lat="65.2005" lon="21.15229">
        <ele>160.251006</ele>
        <time>2020-09-27T09:22:52.860Z</time>
      </trkpt>
      <trkpt lat="65.20047" lon="21.15204">
        <ele>160.05165</ele>
        <time>2020-09-27T09:22:54.870Z</time>
      </trkpt>
      <trkpt lat="65.20044" lon="21.15179">
        <ele>159.853575</ele>
        <time>2020-09-27T09:22:56.897Z</time>
      </trkpt>
      <trkpt lat="65.20042" lon="21.15155">
        <ele>159.664897</ele>
        <time>2020-09-27T09:22:58.899Z</time>
      </trkpt>
      <trkpt lat="65.20039" lon="21.15131">
        <ele>159.472458</ele>
        <time>2020-09-27T09:23:00.856Z</time>
      </trkpt>
      <trkpt lat="65.20036" lon="21.15109">
        <ele>159.287776</ele>
        <time>2020-09-27T09:23:02.858Z</time>
      </trkpt>
      <trkpt lat="65.20034" lon="21.15086">
        <ele>159.146039</ele>
        <time>2020-09-27T09:23:04.883Z</time>
      </trkpt>
      <trkpt lat="65.20031" lon="21.15063">
        <ele>159.158593</ele>
        <time>2020-09-27T09:23:06.854Z</time>
      </trkpt>
      <trkpt lat="65.20029" lon="21.1504">
        <ele>159.171148</ele>
        <time>2020-09-27T09:23:08.881Z</time>
      </trkpt>
      <trkpt lat="65.20026" lon="21.15017">
        <ele>159.183817</ele>
        <time>2020-09-27T09:23:10.857Z</time>
      </trkpt>
      <trkpt lat="65.20024" lon="21.14995">
        <ele>159.196403</ele>
        <time>2020-09-27T09:23:12.869Z</time>
      </trkpt>
      <trkpt lat="65.20022" lon="21.14971">
        <ele>159.209486</ele>
        <time>2020-09-27T09:23:14.872Z</time>
      </trkpt>
      <trkpt lat="65.20019" lon="21.14947">
        <ele>159.222665</ele>
        <time>2020-09-27T09:23:16.851Z</time>
      </trkpt>
      <trkpt lat="65.20017" lon="21.14923">
        <ele>159.235614</ele>
        <time>2020-09-27T09:23:18.865Z</time>
      </trkpt>
      <trkpt lat="65.20015" lon="21.149">
        <ele>159.248481</ele>
        <time>2020-09-27T09:23:20.869Z</time>
      </trkpt>
      <trkpt lat="65.20012" lon="21.14877">
        <ele>159.26108</ele>
        <time>2020-09-27T09:23:22.907Z</time>
      </trkpt>
      <trkpt lat="65.2001" lon="21.14854">
        <ele>159.273683</ele>
        <time>2020-09-27T09:23:24.873Z</time>
      </trkpt>
      <trkpt lat="65.20008" lon="21.14831">
        <ele>159.286313</ele>
        <time>2020-09-27T09:23:26.935Z</time>
      </trkpt>
      <trkpt lat="65.20006" lon="21.14808">
        <ele>159.299106</ele>
        <time>2020-09-27T09:23:28.911Z</time>
      </trkpt>
      <trkpt lat="65.20003" lon="21.14783">
        <ele>159.312606</ele>
        <time>2020-09-27T09:23:30.874Z</time>
      </trkpt>
      <trkpt lat="65.2" lon="21.14759">
        <ele>159.326132</ele>
        <time>2020-09-27T09:23:32.883Z</time>
      </trkpt>
      <trkpt lat="65.19997" lon="21.14735">
        <ele>159.339573</ele>
        <time>2020-09-27T09:23:34.883Z</time>
      </trkpt>
      <trkpt lat="65.19995" lon="21.1471">
        <ele>159.353571</ele>
        <time>2020-09-27T09:23:36.903Z</time>
      </trkpt>
      <trkpt lat="65.19992" lon="21.14684">
        <ele>159.3676</ele>
        <time>2020-09-27T09:23:38.868Z</time>
      </trkpt>
      <trkpt lat="65.19989" lon="21.14659">
        <ele>159.369202</ele>
        <time>2020-09-27T09:23:40.893Z</time>
      </trkpt>
      <trkpt lat="65.19987" lon="21.14632">
        <ele>159.362408</ele>
        <time>2020-09-27T09:23:42.859Z</time>
      </trkpt>
      <trkpt lat="65.19984" lon="21.14604">
        <ele>159.355324</ele>
        <time>2020-09-27T09:23:44.852Z</time>
      </trkpt>
      <trkpt lat="65.19982" lon="21.14578">
        <ele>159.348658</ele>
        <time>2020-09-27T09:23:46.876Z</time>
      </trkpt>
      <trkpt lat="65.19979" lon="21.14552">
        <ele>159.342092</ele>
        <time>2020-09-27T09:23:48.868Z</time>
      </trkpt>
      <trkpt lat="65.19977" lon="21.14526">
        <ele>159.335668</ele>
        <time>2020-09-27T09:23:50.862Z</time>
      </trkpt>
      <trkpt lat="65.19974" lon="21.145">
        <ele>159.329175</ele>
        <time>2020-09-27T09:23:52.870Z</time>
      </trkpt>
      <trkpt lat="65.19972" lon="21.14474">
        <ele>159.322645</ele>
        <time>2020-09-27T09:23:54.899Z</time>
      </trkpt>
      <trkpt lat="65.19969" lon="21.14449">
        <ele>159.316186</ele>
        <time>2020-09-27T09:23:56.876Z</time>
      </trkpt>
      <trkpt lat="65.19967" lon="21.14423">
        <ele>159.309824</ele>
        <time>2020-09-27T09:23:58.858Z</time>
      </trkpt>
      <trkpt lat="65.19965" lon="21.14398">
        <ele>159.303533</ele>
        <time>2020-09-27T09:24:00.876Z</time>
      </trkpt>
      <trkpt lat="65.19962" lon="21.14375">
        <ele>159.297682</ele>
        <time>2020-09-27T09:24:02.884Z</time>
      </trkpt>
      <trkpt lat="65.1996" lon="21.14351">
        <ele>159.291625</ele>
        <time>2020-09-27T09:24:04.861Z</time>
      </trkpt>
      <trkpt lat="65.19957" lon="21.14328">
        <ele>159.285859</ele>
        <time>2020-09-27T09:24:06.907Z</time>
      </trkpt>
      <trkpt lat="65.19954" lon="21.14306">
        <ele>159.280119</ele>
        <time>2020-09-27T09:24:08.867Z</time>
      </trkpt>
      <trkpt lat="65.19952" lon="21.14284">
        <ele>159.27452</ele>
        <time>2020-09-27T09:24:10.865Z</time>
      </trkpt>
      <trkpt lat="65.19949" lon="21.14262">
        <ele>159.268929</ele>
        <time>2020-09-27T09:24:12.865Z</time>
      </trkpt>
      <trkpt lat="65.19947" lon="21.14239">
        <ele>159.321691</ele>
        <time>2020-09-27T09:24:14.869Z</time>
      </trkpt>
      <trkpt lat="65.19945" lon="21.14217">
        <ele>159.386332</ele>
        <time>2020-09-27T09:24:16.854Z</time>
      </trkpt>
      <trkpt lat="65.19943" lon="21.14195">
        <ele>159.449714</ele>
        <time>2020-09-27T09:24:18.870Z</time>
      </trkpt>
      <trkpt lat="65.1994" lon="21.14173">
        <ele>159.512936</ele>
        <time>2020-09-27T09:24:20.875Z</time>
      </trkpt>
      <trkpt lat="65.19938" lon="21.14152">
        <ele>159.57338</ele>
        <time>2020-09-27T09:24:22.924Z</time>
      </trkpt>
      <trkpt lat="65.19935" lon="21.14121">
        <ele>159.66356</ele>
        <time>2020-09-27T09:24:25.861Z</time>
      </trkpt>
      <trkpt lat="65.19933" lon="21.141">
        <ele>159.724142</ele>
        <time>2020-09-27T09:24:27.857Z</time>
      </trkpt>
      <trkpt lat="65.19932" lon="21.14078">
        <ele>159.788101</ele>
        <time>2020-09-27T09:24:29.863Z</time>
      </trkpt>
      <trkpt lat="65.1993" lon="21.14056">
        <ele>159.850895</ele>
        <time>2020-09-27T09:24:31.858Z</time>
      </trkpt>
      <trkpt lat="65.19928" lon="21.14035">
        <ele>159.912041</ele>
        <time>2020-09-27T09:24:33.857Z</time>
      </trkpt>
      <trkpt lat="65.19926" lon="21.14013">
        <ele>159.97456</ele>
        <time>2020-09-27T09:24:35.897Z</time>
      </trkpt>
      <trkpt lat="65.19923" lon="21.13991">
        <ele>160.038928</ele>
        <time>2020-09-27T09:24:37.863Z</time>
      </trkpt>
      <trkpt lat="65.19921" lon="21.13969">
        <ele>160.104936</ele>
        <time>2020-09-27T09:24:39.869Z</time>
      </trkpt>
      <trkpt lat="65.19918" lon="21.13945">
        <ele>160.174389</ele>
        <time>2020-09-27T09:24:41.856Z</time>
      </trkpt>
      <trkpt lat="65.19915" lon="21.13921">
        <ele>160.242648</ele>
        <time>2020-09-27T09:24:43.902Z</time>
      </trkpt>
      <trkpt lat="65.19913" lon="21.13898">
        <ele>160.311995</ele>
        <time>2020-09-27T09:24:45.881Z</time>
      </trkpt>
      <trkpt lat="65.19911" lon="21.13874">
        <ele>160.380713</ele>
        <time>2020-09-27T09:24:47.858Z</time>
      </trkpt>
      <trkpt lat="65.19908" lon="21.1385">
        <ele>160.45044</ele>
        <time>2020-09-27T09:24:49.879Z</time>
      </trkpt>
      <trkpt lat="65.19905" lon="21.13826">
        <ele>160.427089</ele>
        <time>2020-09-27T09:24:51.916Z</time>
      </trkpt>
      <trkpt lat="65.19903" lon="21.13801">
        <ele>160.345752</ele>
        <time>2020-09-27T09:24:53.869Z</time>
      </trkpt>
      <trkpt lat="65.19901" lon="21.13777">
        <ele>160.267499</ele>
        <time>2020-09-27T09:24:55.866Z</time>
      </trkpt>
      <trkpt lat="65.19899" lon="21.13753">
        <ele>160.188202</ele>
        <time>2020-09-27T09:24:57.833Z</time>
      </trkpt>
      <trkpt lat="65.19897" lon="21.13728">
        <ele>160.105868</ele>
        <time>2020-09-27T09:24:59.864Z</time>
      </trkpt>
      <trkpt lat="65.19894" lon="21.13702">
        <ele>160.01924</ele>
        <time>2020-09-27T09:25:01.856Z</time>
      </trkpt>
      <trkpt lat="65.19891" lon="21.13676">
        <ele>159.934096</ele>
        <time>2020-09-27T09:25:03.862Z</time>
      </trkpt>
      <trkpt lat="65.19888" lon="21.13652">
        <ele>159.854419</ele>
        <time>2020-09-27T09:25:05.834Z</time>
      </trkpt>
      <trkpt lat="65.19886" lon="21.13629">
        <ele>159.776793</ele>
        <time>2020-09-27T09:25:07.879Z</time>
      </trkpt>
      <trkpt lat="65.19884" lon="21.13606">
        <ele>159.701983</ele>
        <time>2020-09-27T09:25:09.862Z</time>
      </trkpt>
      <trkpt lat="65.19882" lon="21.13584">
        <ele>159.629546</ele>
        <time>2020-09-27T09:25:11.872Z</time>
      </trkpt>
      <trkpt lat="65.1988" lon="21.13562">
        <ele>159.558419</ele>
        <time>2020-09-27T09:25:13.863Z</time>
      </trkpt>
      <trkpt lat="65.19878" lon="21.13541">
        <ele>159.48785</ele>
        <time>2020-09-27T09:25:15.852Z</time>
      </trkpt>
      <trkpt lat="65.19875" lon="21.1352">
        <ele>159.417449</ele>
        <time>2020-09-27T09:25:17.858Z</time>
      </trkpt>
      <trkpt lat="65.19873" lon="21.13498">
        <ele>159.345765</ele>
        <time>2020-09-27T09:25:19.889Z</time>
      </trkpt>
      <trkpt lat="65.19871" lon="21.13476">
        <ele>159.272229</ele>
        <time>2020-09-27T09:25:21.876Z</time>
      </trkpt>
      <trkpt lat="65.19869" lon="21.13452">
        <ele>159.194451</ele>
        <time>2020-09-27T09:25:23.898Z</time>
      </trkpt>
      <trkpt lat="65.19867" lon="21.13429">
        <ele>159.117764</ele>
        <time>2020-09-27T09:25:25.863Z</time>
      </trkpt>
      <trkpt lat="65.19865" lon="21.13405">
        <ele>159.185154</ele>
        <time>2020-09-27T09:25:27.849Z</time>
      </trkpt>
      <trkpt lat="65.19862" lon="21.1338">
        <ele>159.297477</ele>
        <time>2020-09-27T09:25:29.868Z</time>
      </trkpt>
      <trkpt lat="65.1986" lon="21.13356">
        <ele>159.409706</ele>
        <time>2020-09-27T09:25:31.859Z</time>
      </trkpt>
      <trkpt lat="65.19857" lon="21.13332">
        <ele>159.519779</ele>
        <time>2020-09-27T09:25:33.853Z</time>
      </trkpt>
      <trkpt lat="65.19855" lon="21.13309">
        <ele>159.627276</ele>
        <time>2020-09-27T09:25:35.872Z</time>
      </trkpt>
      <trkpt lat="65.19852" lon="21.13285">
        <ele>159.73414</ele>
        <time>2020-09-27T09:25:37.855Z</time>
      </trkpt>
      <trkpt lat="65.1985" lon="21.13261">
        <ele>159.845595</ele>
        <time>2020-09-27T09:25:39.883Z</time>
      </trkpt>
      <trkpt lat="65.19848" lon="21.13237">
        <ele>159.955504</ele>
        <time>2020-09-27T09:25:41.861Z</time>
      </trkpt>
      <trkpt lat="65.19846" lon="21.13212">
        <ele>160.068236</ele>
        <time>2020-09-27T09:25:43.863Z</time>
      </trkpt>
      <trkpt lat="65.19844" lon="21.13188">
        <ele>160.178793</ele>
        <time>2020-09-27T09:25:45.877Z</time>
      </trkpt>
      <trkpt lat="65.19841" lon="21.13163">
        <ele>160.291747</ele>
        <time>2020-09-27T09:25:47.897Z</time>
      </trkpt>
      <trkpt lat="65.19839" lon="21.13138">
        <ele>160.407101</ele>
        <time>2020-09-27T09:25:49.849Z</time>
      </trkpt>
      <trkpt lat="65.19837" lon="21.13113">
        <ele>160.521922</ele>
        <time>2020-09-27T09:25:51.880Z</time>
      </trkpt>
      <trkpt lat="65.19834" lon="21.13089">
        <ele>160.629903</ele>
        <time>2020-09-27T09:25:53.859Z</time>
      </trkpt>
      <trkpt lat="65.19832" lon="21.13066">
        <ele>160.737203</ele>
        <time>2020-09-27T09:25:55.864Z</time>
      </trkpt>
      <trkpt lat="65.19829" lon="21.13042">
        <ele>160.84779</ele>
        <time>2020-09-27T09:25:57.871Z</time>
      </trkpt>
      <trkpt lat="65.19827" lon="21.13018">
        <ele>160.960297</ele>
        <time>2020-09-27T09:25:59.856Z</time>
      </trkpt>
      <trkpt lat="65.19824" lon="21.12993">
        <ele>161.065143</ele>
        <time>2020-09-27T09:26:01.875Z</time>
      </trkpt>
      <trkpt lat="65.19821" lon="21.12969">
        <ele>161.165263</ele>
        <time>2020-09-27T09:26:03.876Z</time>
      </trkpt>
      <trkpt lat="65.19817" lon="21.12944">
        <ele>161.267208</ele>
        <time>2020-09-27T09:26:05.865Z</time>
      </trkpt>
      <trkpt lat="65.19815" lon="21.12918">
        <ele>161.368946</ele>
        <time>2020-09-27T09:26:07.872Z</time>
      </trkpt>
      <trkpt lat="65.19812" lon="21.12893">
        <ele>161.468051</ele>
        <time>2020-09-27T09:26:09.857Z</time>
      </trkpt>
      <trkpt lat="65.1981" lon="21.12869">
        <ele>161.564861</ele>
        <time>2020-09-27T09:26:11.862Z</time>
      </trkpt>
      <trkpt lat="65.19807" lon="21.12845">
        <ele>161.659657</ele>
        <time>2020-09-27T09:26:13.879Z</time>
      </trkpt>
      <trkpt lat="65.19805" lon="21.12821">
        <ele>161.757802</ele>
        <time>2020-09-27T09:26:15.884Z</time>
      </trkpt>
      <trkpt lat="65.19803" lon="21.12795">
        <ele>161.860876</ele>
        <time>2020-09-27T09:26:17.860Z</time>
      </trkpt>
      <trkpt lat="65.19801" lon="21.12768">
        <ele>161.966806</ele>
        <time>2020-09-27T09:26:19.868Z</time>
      </trkpt>
      <trkpt lat="65.19798" lon="21.1274">
        <ele>162.075608</ele>
        <time>2020-09-27T09:26:21.878Z</time>
      </trkpt>
      <trkpt lat="65.19795" lon="21.12712">
        <ele>162.189909</ele>
        <time>2020-09-27T09:26:23.866Z</time>
      </trkpt>
      <trkpt lat="65.19792" lon="21.12682">
        <ele>162.309331</ele>
        <time>2020-09-27T09:26:25.906Z</time>
      </trkpt>
      <trkpt lat="65.19789" lon="21.12652">
        <ele>162.429747</ele>
        <time>2020-09-27T09:26:27.868Z</time>
      </trkpt>
      <trkpt lat="65.19786" lon="21.12622">
        <ele>162.547494</ele>
        <time>2020-09-27T09:26:29.863Z</time>
      </trkpt>
      <trkpt lat="65.19783" lon="21.12593">
        <ele>162.663518</ele>
        <time>2020-09-27T09:26:31.859Z</time>
      </trkpt>
      <trkpt lat="65.1978" lon="21.12566">
        <ele>162.427037</ele>
        <time>2020-09-27T09:26:33.847Z</time>
      </trkpt>
      <trkpt lat="65.19777" lon="21.12538">
        <ele>162.14345</ele>
        <time>2020-09-27T09:26:35.869Z</time>
      </trkpt>
      <trkpt lat="65.19775" lon="21.1251">
        <ele>161.855951</ele>
        <time>2020-09-27T09:26:37.867Z</time>
      </trkpt>
      <trkpt lat="65.19774" lon="21.12483">
        <ele>161.580269</ele>
        <time>2020-09-27T09:26:39.883Z</time>
      </trkpt>
      <trkpt lat="65.19771" lon="21.12457">
        <ele>161.316828</ele>
        <time>2020-09-27T09:26:41.870Z</time>
      </trkpt>
      <trkpt lat="65.19768" lon="21.12432">
        <ele>161.052629</ele>
        <time>2020-09-27T09:26:43.893Z</time>
      </trkpt>
      <trkpt lat="65.19765" lon="21.12405">
        <ele>160.773588</ele>
        <time>2020-09-27T09:26:45.879Z</time>
      </trkpt>
      <trkpt lat="65.19762" lon="21.12377">
        <ele>160.484815</ele>
        <time>2020-09-27T09:26:47.859Z</time>
      </trkpt>
      <trkpt lat="65.19759" lon="21.12349">
        <ele>160.189597</ele>
        <time>2020-09-27T09:26:49.852Z</time>
      </trkpt>
      <trkpt lat="65.19756" lon="21.12321">
        <ele>159.897899</ele>
        <time>2020-09-27T09:26:51.878Z</time>
      </trkpt>
      <trkpt lat="65.19753" lon="21.12293">
        <ele>159.612047</ele>
        <time>2020-09-27T09:26:53.890Z</time>
      </trkpt>
      <trkpt lat="65.19751" lon="21.12267">
        <ele>159.339314</ele>
        <time>2020-09-27T09:26:55.860Z</time>
      </trkpt>
      <trkpt lat="65.19748" lon="21.12239">
        <ele>159.055187</ele>
        <time>2020-09-27T09:26:57.887Z</time>
      </trkpt>
      <trkpt lat="65.19745" lon="21.12211">
        <ele>158.763655</ele>
        <time>2020-09-27T09:26:59.871Z</time>
      </trkpt>
      <trkpt lat="65.19742" lon="21.12183">
        <ele>158.470006</ele>
        <time>2020-09-27T09:27:01.877Z</time>
      </trkpt>
      <trkpt lat="65.19739" lon="21.12155">
        <ele>158.160983</ele>
        <time>2020-09-27T09:27:03.861Z</time>
      </trkpt>
      <trkpt lat="65.19736" lon="21.12128">
        <ele>157.849251</ele>
        <time>2020-09-27T09:27:05.861Z</time>
      </trkpt>
      <trkpt lat="65.19733" lon="21.12101">
        <ele>157.543946</ele>
        <time>2020-09-27T09:27:07.911Z</time>
      </trkpt>
      <trkpt lat="65.19731" lon="21.12074">
        <ele>157.240189</ele>
        <time>2020-09-27T09:27:09.870Z</time>
      </trkpt>
      <trkpt lat="65.19728" lon="21.12048">
        <ele>156.937686</ele>
        <time>2020-09-27T09:27:11.886Z</time>
      </trkpt>
      <trkpt lat="65.19724" lon="21.12021">
        <ele>156.631635</ele>
        <time>2020-09-27T09:27:13.867Z</time>
      </trkpt>
      <trkpt lat="65.19721" lon="21.11995">
        <ele>156.328063</ele>
        <time>2020-09-27T09:27:15.904Z</time>
      </trkpt>
      <trkpt lat="65.19718" lon="21.11969">
        <ele>156.026573</ele>
        <time>2020-09-27T09:27:17.849Z</time>
      </trkpt>
      <trkpt lat="65.19716" lon="21.11942">
        <ele>155.726733</ele>
        <time>2020-09-27T09:27:19.879Z</time>
      </trkpt>
      <trkpt lat="65.19713" lon="21.11916">
        <ele>155.428965</ele>
        <time>2020-09-27T09:27:21.864Z</time>
      </trkpt>
      <trkpt lat="65.1971" lon="21.11891">
        <ele>155.141308</ele>
        <time>2020-09-27T09:27:23.859Z</time>
      </trkpt>
      <trkpt lat="65.19708" lon="21.11865">
        <ele>154.853915</ele>
        <time>2020-09-27T09:27:25.851Z</time>
      </trkpt>
      <trkpt lat="65.19706" lon="21.1184">
        <ele>154.562132</ele>
        <time>2020-09-27T09:27:27.889Z</time>
      </trkpt>
      <trkpt lat="65.19703" lon="21.11814">
        <ele>154.272034</ele>
        <time>2020-09-27T09:27:29.878Z</time>
      </trkpt>
      <trkpt lat="65.19701" lon="21.11788">
        <ele>153.981365</ele>
        <time>2020-09-27T09:27:31.899Z</time>
      </trkpt>
      <trkpt lat="65.19699" lon="21.11761">
        <ele>153.678126</ele>
        <time>2020-09-27T09:27:33.874Z</time>
      </trkpt>
      <trkpt lat="65.19697" lon="21.11734">
        <ele>153.387798</ele>
        <time>2020-09-27T09:27:35.875Z</time>
      </trkpt>
      <trkpt lat="65.19694" lon="21.11707">
        <ele>153.100949</ele>
        <time>2020-09-27T09:27:37.874Z</time>
      </trkpt>
      <trkpt lat="65.19691" lon="21.11681">
        <ele>152.82238</ele>
        <time>2020-09-27T09:27:39.876Z</time>
      </trkpt>
      <trkpt lat="65.19689" lon="21.11655">
        <ele>152.54939</ele>
        <time>2020-09-27T09:27:41.866Z</time>
      </trkpt>
      <trkpt lat="65.19686" lon="21.1163">
        <ele>152.2773</ele>
        <time>2020-09-27T09:27:43.865Z</time>
      </trkpt>
      <trkpt lat="65.19684" lon="21.11604">
        <ele>152.002758</ele>
        <time>2020-09-27T09:27:45.876Z</time>
      </trkpt>
      <trkpt lat="65.19681" lon="21.11576">
        <ele>151.708424</ele>
        <time>2020-09-27T09:27:47.871Z</time>
      </trkpt>
      <trkpt lat="65.19678" lon="21.11548">
        <ele>151.406049</ele>
        <time>2020-09-27T09:27:49.897Z</time>
      </trkpt>
      <trkpt lat="65.19675" lon="21.11518">
        <ele>151.097076</ele>
        <time>2020-09-27T09:27:51.862Z</time>
      </trkpt>
      <trkpt lat="65.19672" lon="21.1149">
        <ele>150.796137</ele>
        <time>2020-09-27T09:27:53.878Z</time>
      </trkpt>
      <trkpt lat="65.19669" lon="21.11463">
        <ele>150.506965</ele>
        <time>2020-09-27T09:27:55.910Z</time>
      </trkpt>
      <trkpt lat="65.19666" lon="21.11437">
        <ele>150.229671</ele>
        <time>2020-09-27T09:27:57.889Z</time>
      </trkpt>
      <trkpt lat="65.19664" lon="21.11411">
        <ele>149.950124</ele>
        <time>2020-09-27T09:27:59.881Z</time>
      </trkpt>
      <trkpt lat="65.19661" lon="21.11385">
        <ele>149.675581</ele>
        <time>2020-09-27T09:28:01.870Z</time>
      </trkpt>
      <trkpt lat="65.19659" lon="21.11358">
        <ele>149.393668</ele>
        <time>2020-09-27T09:28:03.893Z</time>
      </trkpt>
      <trkpt lat="65.19656" lon="21.11333">
        <ele>149.223715</ele>
        <time>2020-09-27T09:28:05.870Z</time>
      </trkpt>
      <trkpt lat="65.19653" lon="21.11307">
        <ele>149.341362</ele>
        <time>2020-09-27T09:28:07.893Z</time>
      </trkpt>
      <trkpt lat="65.1965" lon="21.11283">
        <ele>149.456349</ele>
        <time>2020-09-27T09:28:09.876Z</time>
      </trkpt>
      <trkpt lat="65.19648" lon="21.11257">
        <ele>149.574687</ele>
        <time>2020-09-27T09:28:11.888Z</time>
      </trkpt>
      <trkpt lat="65.19645" lon="21.11232">
        <ele>149.692056</ele>
        <time>2020-09-27T09:28:13.888Z</time>
      </trkpt>
      <trkpt lat="65.19643" lon="21.11206">
        <ele>149.808987</ele>
        <time>2020-09-27T09:28:15.878Z</time>
      </trkpt>
      <trkpt lat="65.1964" lon="21.1118">
        <ele>149.927696</ele>
        <time>2020-09-27T09:28:17.857Z</time>
      </trkpt>
      <trkpt lat="65.19638" lon="21.11155">
        <ele>150.044731</ele>
        <time>2020-09-27T09:28:19.862Z</time>
      </trkpt>
      <trkpt lat="65.19635" lon="21.11129">
        <ele>150.163769</ele>
        <time>2020-09-27T09:28:21.856Z</time>
      </trkpt>
      <trkpt lat="65.19632" lon="21.11104">
        <ele>150.279935</ele>
        <time>2020-09-27T09:28:23.864Z</time>
      </trkpt>
      <trkpt lat="65.19629" lon="21.11079">
        <ele>150.395072</ele>
        <time>2020-09-27T09:28:25.911Z</time>
      </trkpt>
      <trkpt lat="65.19627" lon="21.11054">
        <ele>150.511413</ele>
        <time>2020-09-27T09:28:27.865Z</time>
      </trkpt>
      <trkpt lat="65.19624" lon="21.11029">
        <ele>150.629496</ele>
        <time>2020-09-27T09:28:29.876Z</time>
      </trkpt>
      <trkpt lat="65.19622" lon="21.11004">
        <ele>150.744014</ele>
        <time>2020-09-27T09:28:31.884Z</time>
      </trkpt>
      <trkpt lat="65.1962" lon="21.10979">
        <ele>150.858317</ele>
        <time>2020-09-27T09:28:33.887Z</time>
      </trkpt>
      <trkpt lat="65.19618" lon="21.10955">
        <ele>150.96849</ele>
        <time>2020-09-27T09:28:35.869Z</time>
      </trkpt>
      <trkpt lat="65.19615" lon="21.10931">
        <ele>151.078313</ele>
        <time>2020-09-27T09:28:37.902Z</time>
      </trkpt>
      <trkpt lat="65.19613" lon="21.10908">
        <ele>151.226257</ele>
        <time>2020-09-27T09:28:39.866Z</time>
      </trkpt>
      <trkpt lat="65.19611" lon="21.10887">
        <ele>151.390086</ele>
        <time>2020-09-27T09:28:41.869Z</time>
      </trkpt>
      <trkpt lat="65.19609" lon="21.10865">
        <ele>151.55361</ele>
        <time>2020-09-27T09:28:43.939Z</time>
      </trkpt>
      <trkpt lat="65.19607" lon="21.10843">
        <ele>151.720678</ele>
        <time>2020-09-27T09:28:45.883Z</time>
      </trkpt>
      <trkpt lat="65.19605" lon="21.10821">
        <ele>151.884121</ele>
        <time>2020-09-27T09:28:47.896Z</time>
      </trkpt>
      <trkpt lat="65.19602" lon="21.10791">
        <ele>152.113556</ele>
        <time>2020-09-27T09:28:50.859Z</time>
      </trkpt>
      <trkpt lat="65.19599" lon="21.10761">
        <ele>152.342565</ele>
        <time>2020-09-27T09:28:53.858Z</time>
      </trkpt>
      <trkpt lat="65.19596" lon="21.1073">
        <ele>152.573319</ele>
        <time>2020-09-27T09:28:56.881Z</time>
      </trkpt>
      <trkpt lat="65.19593" lon="21.10703">
        <ele>152.779448</ele>
        <time>2020-09-27T09:28:59.870Z</time>
      </trkpt>
      <trkpt lat="65.19591" lon="21.10676">
        <ele>152.983416</ele>
        <time>2020-09-27T09:29:02.901Z</time>
      </trkpt>
      <trkpt lat="65.19588" lon="21.10651">
        <ele>153.177466</ele>
        <time>2020-09-27T09:29:05.910Z</time>
      </trkpt>
      <trkpt lat="65.19585" lon="21.10625">
        <ele>153.379593</ele>
        <time>2020-09-27T09:29:08.889Z</time>
      </trkpt>
      <trkpt lat="65.19582" lon="21.10599">
        <ele>153.578649</ele>
        <time>2020-09-27T09:29:11.866Z</time>
      </trkpt>
      <trkpt lat="65.19579" lon="21.10572">
        <ele>153.780034</ele>
        <time>2020-09-27T09:29:14.856Z</time>
      </trkpt>
      <trkpt lat="65.19576" lon="21.10547">
        <ele>153.973644</ele>
        <time>2020-09-27T09:29:17.890Z</time>
      </trkpt>
      <trkpt lat="65.19574" lon="21.10521">
        <ele>154.173296</ele>
        <time>2020-09-27T09:29:20.897Z</time>
      </trkpt>
      <trkpt lat="65.19571" lon="21.10494">
        <ele>154.400746</ele>
        <time>2020-09-27T09:29:23.860Z</time>
      </trkpt>
      <trkpt lat="65.19568" lon="21.10467">
        <ele>154.662503</ele>
        <time>2020-09-27T09:29:26.893Z</time>
      </trkpt>
      <trkpt lat="65.19564" lon="21.10439">
        <ele>154.932212</ele>
        <time>2020-09-27T09:29:29.855Z</time>
      </trkpt>
      <trkpt lat="65.19562" lon="21.1041">
        <ele>155.20146</ele>
        <time>2020-09-27T09:29:32.879Z</time>
      </trkpt>
      <trkpt lat="65.1956" lon="21.10381">
        <ele>155.471171</ele>
        <time>2020-09-27T09:29:35.883Z</time>
      </trkpt>
      <trkpt lat="65.19557" lon="21.10352">
        <ele>155.745853</ele>
        <time>2020-09-27T09:29:38.877Z</time>
      </trkpt>
      <trkpt lat="65.19556" lon="21.10331">
        <ele>155.943268</ele>
        <time>2020-09-27T09:29:40.917Z</time>
      </trkpt>
      <trkpt lat="65.19554" lon="21.1031">
        <ele>156.145196</ele>
        <time>2020-09-27T09:29:42.871Z</time>
      </trkpt>
      <trkpt lat="65.19552" lon="21.10288">
        <ele>156.348081</ele>
        <time>2020-09-27T09:29:44.869Z</time>
      </trkpt>
      <trkpt lat="65.19549" lon="21.10266">
        <ele>156.564414</ele>
        <time>2020-09-27T09:29:46.890Z</time>
      </trkpt>
      <trkpt lat="65.19547" lon="21.10242">
        <ele>156.790297</ele>
        <time>2020-09-27T09:29:48.873Z</time>
      </trkpt>
      <trkpt lat="65.19545" lon="21.10217">
        <ele>157.025664</ele>
        <time>2020-09-27T09:29:50.868Z</time>
      </trkpt>
      <trkpt lat="65.19542" lon="21.10191">
        <ele>157.266017</ele>
        <time>2020-09-27T09:29:52.890Z</time>
      </trkpt>
      <trkpt lat="65.1954" lon="21.10165">
        <ele>157.512679</ele>
        <time>2020-09-27T09:29:54.862Z</time>
      </trkpt>
      <trkpt lat="65.19537" lon="21.1014">
        <ele>157.756274</ele>
        <time>2020-09-27T09:29:56.881Z</time>
      </trkpt>
      <trkpt lat="65.19535" lon="21.10115">
        <ele>157.991359</ele>
        <time>2020-09-27T09:29:58.857Z</time>
      </trkpt>
      <trkpt lat="65.19532" lon="21.1009">
        <ele>158.226266</ele>
        <time>2020-09-27T09:30:00.901Z</time>
      </trkpt>
      <trkpt lat="65.1953" lon="21.10065">
        <ele>158.296765</ele>
        <time>2020-09-27T09:30:02.867Z</time>
      </trkpt>
      <trkpt lat="65.19528" lon="21.1004">
        <ele>158.356673</ele>
        <time>2020-09-27T09:30:04.860Z</time>
      </trkpt>
      <trkpt lat="65.19526" lon="21.10015">
        <ele>158.418079</ele>
        <time>2020-09-27T09:30:06.879Z</time>
      </trkpt>
      <trkpt lat="65.19523" lon="21.0999">
        <ele>158.478796</ele>
        <time>2020-09-27T09:30:08.907Z</time>
      </trkpt>
      <trkpt lat="65.19521" lon="21.09964">
        <ele>158.540448</ele>
        <time>2020-09-27T09:30:10.895Z</time>
      </trkpt>
      <trkpt lat="65.19519" lon="21.0994">
        <ele>158.599785</ele>
        <time>2020-09-27T09:30:12.894Z</time>
      </trkpt>
      <trkpt lat="65.19516" lon="21.09916">
        <ele>158.657547</ele>
        <time>2020-09-27T09:30:14.876Z</time>
      </trkpt>
      <trkpt lat="65.19513" lon="21.09891">
        <ele>158.719084</ele>
        <time>2020-09-27T09:30:16.870Z</time>
      </trkpt>
      <trkpt lat="65.1951" lon="21.09866">
        <ele>158.780604</ele>
        <time>2020-09-27T09:30:18.855Z</time>
      </trkpt>
      <trkpt lat="65.19507" lon="21.09843">
        <ele>158.836761</ele>
        <time>2020-09-27T09:30:20.880Z</time>
      </trkpt>
      <trkpt lat="65.19504" lon="21.09822">
        <ele>158.889116</ele>
        <time>2020-09-27T09:30:22.881Z</time>
      </trkpt>
      <trkpt lat="65.195" lon="21.09794">
        <ele>158.957641</ele>
        <time>2020-09-27T09:30:25.879Z</time>
      </trkpt>
      <trkpt lat="65.19496" lon="21.09768">
        <ele>159.022772</ele>
        <time>2020-09-27T09:30:28.863Z</time>
      </trkpt>
      <trkpt lat="65.19492" lon="21.09744">
        <ele>159.082726</ele>
        <time>2020-09-27T09:30:31.898Z</time>
      </trkpt>
      <trkpt lat="65.19489" lon="21.09722">
        <ele>159.140695</ele>
        <time>2020-09-27T09:30:34.867Z</time>
      </trkpt>
      <trkpt lat="65.19485" lon="21.09697">
        <ele>159.201406</ele>
        <time>2020-09-27T09:30:37.886Z</time>
      </trkpt>
      <trkpt lat="65.19481" lon="21.09672">
        <ele>159.122069</ele>
        <time>2020-09-27T09:30:40.907Z</time>
      </trkpt>
      <trkpt lat="65.19478" lon="21.09645">
        <ele>158.532262</ele>
        <time>2020-09-27T09:30:43.863Z</time>
      </trkpt>
      <trkpt lat="65.19473" lon="21.09618">
        <ele>157.908563</ele>
        <time>2020-09-27T09:30:46.911Z</time>
      </trkpt>
      <trkpt lat="65.19468" lon="21.0959">
        <ele>157.275434</ele>
        <time>2020-09-27T09:30:49.857Z</time>
      </trkpt>
      <trkpt lat="65.19464" lon="21.09564">
        <ele>156.681504</ele>
        <time>2020-09-27T09:30:52.861Z</time>
      </trkpt>
      <trkpt lat="65.19459" lon="21.0954">
        <ele>156.110692</ele>
        <time>2020-09-27T09:30:55.862Z</time>
      </trkpt>
      <trkpt lat="65.19454" lon="21.09515">
        <ele>155.527457</ele>
        <time>2020-09-27T09:30:58.897Z</time>
      </trkpt>
      <trkpt lat="65.19448" lon="21.0949">
        <ele>154.929908</ele>
        <time>2020-09-27T09:31:01.860Z</time>
      </trkpt>
      <trkpt lat="65.19443" lon="21.09464">
        <ele>154.307548</ele>
        <time>2020-09-27T09:31:04.861Z</time>
      </trkpt>
      <trkpt lat="65.19438" lon="21.09445">
        <ele>153.852165</ele>
        <time>2020-09-27T09:31:06.876Z</time>
      </trkpt>
      <trkpt lat="65.19432" lon="21.09416">
        <ele>153.173252</ele>
        <time>2020-09-27T09:31:09.878Z</time>
      </trkpt>
      <trkpt lat="65.19427" lon="21.09397">
        <ele>152.692171</ele>
        <time>2020-09-27T09:31:11.880Z</time>
      </trkpt>
      <trkpt lat="65.19423" lon="21.09378">
        <ele>152.234403</ele>
        <time>2020-09-27T09:31:13.859Z</time>
      </trkpt>
      <trkpt lat="65.19418" lon="21.0936">
        <ele>151.776853</ele>
        <time>2020-09-27T09:31:15.877Z</time>
      </trkpt>
      <trkpt lat="65.19413" lon="21.0934">
        <ele>151.290637</ele>
        <time>2020-09-27T09:31:17.859Z</time>
      </trkpt>
      <trkpt lat="65.19408" lon="21.0932">
        <ele>150.815102</ele>
        <time>2020-09-27T09:31:19.859Z</time>
      </trkpt>
      <trkpt lat="65.19404" lon="21.093">
        <ele>150.335848</ele>
        <time>2020-09-27T09:31:21.885Z</time>
      </trkpt>
      <trkpt lat="65.19398" lon="21.0928">
        <ele>150.013104</ele>
        <time>2020-09-27T09:31:23.856Z</time>
      </trkpt>
      <trkpt lat="65.19394" lon="21.09259">
        <ele>149.768596</ele>
        <time>2020-09-27T09:31:25.881Z</time>
      </trkpt>
      <trkpt lat="65.1939" lon="21.09239">
        <ele>149.53213</ele>
        <time>2020-09-27T09:31:27.906Z</time>
      </trkpt>
      <trkpt lat="65.19384" lon="21.09218">
        <ele>149.28388</ele>
        <time>2020-09-27T09:31:29.856Z</time>
      </trkpt>
      <trkpt lat="65.19379" lon="21.09196">
        <ele>149.01534</ele>
        <time>2020-09-27T09:31:31.918Z</time>
      </trkpt>
      <trkpt lat="65.19373" lon="21.09173">
        <ele>148.739277</ele>
        <time>2020-09-27T09:31:33.855Z</time>
      </trkpt>
      <trkpt lat="65.19368" lon="21.0915">
        <ele>148.461921</ele>
        <time>2020-09-27T09:31:35.863Z</time>
      </trkpt>
      <trkpt lat="65.19362" lon="21.09127">
        <ele>148.177797</ele>
        <time>2020-09-27T09:31:37.857Z</time>
      </trkpt>
      <trkpt lat="65.19357" lon="21.09102">
        <ele>147.886629</ele>
        <time>2020-09-27T09:31:39.879Z</time>
      </trkpt>
      <trkpt lat="65.19351" lon="21.09077">
        <ele>147.589498</ele>
        <time>2020-09-27T09:31:41.865Z</time>
      </trkpt>
      <trkpt lat="65.19345" lon="21.09053">
        <ele>147.299605</ele>
        <time>2020-09-27T09:31:43.859Z</time>
      </trkpt>
      <trkpt lat="65.19339" lon="21.0903">
        <ele>147.018545</ele>
        <time>2020-09-27T09:31:45.875Z</time>
      </trkpt>
      <trkpt lat="65.19334" lon="21.09008">
        <ele>146.75028</ele>
        <time>2020-09-27T09:31:47.869Z</time>
      </trkpt>
      <trkpt lat="65.19328" lon="21.08986">
        <ele>146.484349</ele>
        <time>2020-09-27T09:31:49.866Z</time>
      </trkpt>
      <trkpt lat="65.19323" lon="21.08965">
        <ele>146.22775</ele>
        <time>2020-09-27T09:31:51.870Z</time>
      </trkpt>
      <trkpt lat="65.19318" lon="21.08946">
        <ele>145.989593</ele>
        <time>2020-09-27T09:31:53.886Z</time>
      </trkpt>
      <trkpt lat="65.19314" lon="21.08924">
        <ele>145.73729</ele>
        <time>2020-09-27T09:31:55.863Z</time>
      </trkpt>
      <trkpt lat="65.19309" lon="21.08903">
        <ele>145.747064</ele>
        <time>2020-09-27T09:31:57.855Z</time>
      </trkpt>
      <trkpt lat="65.19304" lon="21.08883">
        <ele>145.780702</ele>
        <time>2020-09-27T09:31:59.889Z</time>
      </trkpt>
      <trkpt lat="65.19299" lon="21.08863">
        <ele>145.813914</ele>
        <time>2020-09-27T09:32:01.874Z</time>
      </trkpt>
      <trkpt lat="65.19295" lon="21.08843">
        <ele>145.846081</ele>
        <time>2020-09-27T09:32:03.883Z</time>
      </trkpt>
      <trkpt lat="65.1929" lon="21.08823">
        <ele>145.879168</ele>
        <time>2020-09-27T09:32:05.865Z</time>
      </trkpt>
      <trkpt lat="65.19285" lon="21.08805">
        <ele>145.910242</ele>
        <time>2020-09-27T09:32:07.884Z</time>
      </trkpt>
      <trkpt lat="65.19281" lon="21.08786">
        <ele>145.941788</ele>
        <time>2020-09-27T09:32:09.871Z</time>
      </trkpt>
      <trkpt lat="65.19276" lon="21.08767">
        <ele>145.973705</ele>
        <time>2020-09-27T09:32:11.862Z</time>
      </trkpt>
      <trkpt lat="65.19271" lon="21.08747">
        <ele>146.007442</ele>
        <time>2020-09-27T09:32:13.867Z</time>
      </trkpt>
      <trkpt lat="65.19266" lon="21.08727">
        <ele>146.041301</ele>
        <time>2020-09-27T09:32:15.858Z</time>
      </trkpt>
      <trkpt lat="65.19261" lon="21.08706">
        <ele>146.074779</ele>
        <time>2020-09-27T09:32:17.873Z</time>
      </trkpt>
      <trkpt lat="65.19257" lon="21.08686">
        <ele>146.10829</ele>
        <time>2020-09-27T09:32:19.870Z</time>
      </trkpt>
      <trkpt lat="65.19252" lon="21.08666">
        <ele>146.14155</ele>
        <time>2020-09-27T09:32:21.904Z</time>
      </trkpt>
      <trkpt lat="65.19247" lon="21.08646">
        <ele>146.173212</ele>
        <time>2020-09-27T09:32:23.890Z</time>
      </trkpt>
      <trkpt lat="65.19242" lon="21.08628">
        <ele>146.204993</ele>
        <time>2020-09-27T09:32:25.869Z</time>
      </trkpt>
      <trkpt lat="65.19238" lon="21.08608">
        <ele>146.237831</ele>
        <time>2020-09-27T09:32:27.874Z</time>
      </trkpt>
      <trkpt lat="65.19233" lon="21.08589">
        <ele>146.269953</ele>
        <time>2020-09-27T09:32:29.878Z</time>
      </trkpt>
      <trkpt lat="65.19229" lon="21.08569">
        <ele>146.301549</ele>
        <time>2020-09-27T09:32:31.890Z</time>
      </trkpt>
      <trkpt lat="65.19224" lon="21.08549">
        <ele>146.340918</ele>
        <time>2020-09-27T09:32:33.876Z</time>
      </trkpt>
      <trkpt lat="65.1922" lon="21.08529">
        <ele>146.566094</ele>
        <time>2020-09-27T09:32:35.872Z</time>
      </trkpt>
      <trkpt lat="65.19216" lon="21.0851">
        <ele>146.788595</ele>
        <time>2020-09-27T09:32:37.870Z</time>
      </trkpt>
      <trkpt lat="65.19212" lon="21.0849">
        <ele>147.007306</ele>
        <time>2020-09-27T09:32:39.858Z</time>
      </trkpt>
      <trkpt lat="65.19207" lon="21.08471">
        <ele>147.230136</ele>
        <time>2020-09-27T09:32:41.899Z</time>
      </trkpt>
      <trkpt lat="65.19203" lon="21.08452">
        <ele>147.455604</ele>
        <time>2020-09-27T09:32:43.855Z</time>
      </trkpt>
      <trkpt lat="65.19198" lon="21.08433">
        <ele>147.675482</ele>
        <time>2020-09-27T09:32:45.876Z</time>
      </trkpt>
      <trkpt lat="65.19194" lon="21.08414">
        <ele>147.893068</ele>
        <time>2020-09-27T09:32:47.855Z</time>
      </trkpt>
      <trkpt lat="65.19188" lon="21.08386">
        <ele>148.208115</ele>
        <time>2020-09-27T09:32:50.861Z</time>
      </trkpt>
      <trkpt lat="65.19182" lon="21.0836">
        <ele>148.50864</ele>
        <time>2020-09-27T09:32:53.862Z</time>
      </trkpt>
      <trkpt lat="65.19176" lon="21.08335">
        <ele>148.80417</ele>
        <time>2020-09-27T09:32:56.875Z</time>
      </trkpt>
      <trkpt lat="65.1917" lon="21.08308">
        <ele>149.11309</ele>
        <time>2020-09-27T09:32:59.868Z</time>
      </trkpt>
      <trkpt lat="65.19164" lon="21.08282">
        <ele>149.410673</ele>
        <time>2020-09-27T09:33:02.860Z</time>
      </trkpt>
      <trkpt lat="65.19158" lon="21.08255">
        <ele>149.711799</ele>
        <time>2020-09-27T09:33:05.868Z</time>
      </trkpt>
      <trkpt lat="65.19153" lon="21.08229">
        <ele>150.014015</ele>
        <time>2020-09-27T09:33:08.879Z</time>
      </trkpt>
      <trkpt lat="65.19146" lon="21.08202">
        <ele>150.324845</ele>
        <time>2020-09-27T09:33:11.875Z</time>
      </trkpt>
      <trkpt lat="65.1914" lon="21.08174">
        <ele>150.645977</ele>
        <time>2020-09-27T09:33:14.866Z</time>
      </trkpt>
      <trkpt lat="65.19135" lon="21.08156">
        <ele>150.580074</ele>
        <time>2020-09-27T09:33:16.883Z</time>
      </trkpt>
      <trkpt lat="65.19131" lon="21.08137">
        <ele>150.476901</ele>
        <time>2020-09-27T09:33:18.869Z</time>
      </trkpt>
      <trkpt lat="65.19126" lon="21.08118">
        <ele>150.37244</ele>
        <time>2020-09-27T09:33:20.891Z</time>
      </trkpt>
      <trkpt lat="65.19121" lon="21.08099">
        <ele>150.267158</ele>
        <time>2020-09-27T09:33:22.857Z</time>
      </trkpt>
      <trkpt lat="65.19117" lon="21.08079">
        <ele>150.158568</ele>
        <time>2020-09-27T09:33:24.879Z</time>
      </trkpt>
      <trkpt lat="65.19112" lon="21.08058">
        <ele>150.044536</ele>
        <time>2020-09-27T09:33:26.873Z</time>
      </trkpt>
      <trkpt lat="65.19106" lon="21.08038">
        <ele>149.927178</ele>
        <time>2020-09-27T09:33:28.880Z</time>
      </trkpt>
      <trkpt lat="65.19101" lon="21.08016">
        <ele>149.809285</ele>
        <time>2020-09-27T09:33:30.907Z</time>
      </trkpt>
      <trkpt lat="65.19096" lon="21.07993">
        <ele>149.686059</ele>
        <time>2020-09-27T09:33:32.862Z</time>
      </trkpt>
      <trkpt lat="65.19091" lon="21.07969">
        <ele>149.555752</ele>
        <time>2020-09-27T09:33:34.875Z</time>
      </trkpt>
      <trkpt lat="65.19085" lon="21.07944">
        <ele>149.420475</ele>
        <time>2020-09-27T09:33:36.864Z</time>
      </trkpt>
      <trkpt lat="65.1908" lon="21.07919">
        <ele>149.285497</ele>
        <time>2020-09-27T09:33:38.870Z</time>
      </trkpt>
      <trkpt lat="65.19074" lon="21.07894">
        <ele>149.148018</ele>
        <time>2020-09-27T09:33:40.894Z</time>
      </trkpt>
      <trkpt lat="65.19068" lon="21.0787">
        <ele>149.01384</ele>
        <time>2020-09-27T09:33:42.871Z</time>
      </trkpt>
      <trkpt lat="65.19062" lon="21.07846">
        <ele>148.880237</ele>
        <time>2020-09-27T09:33:44.882Z</time>
      </trkpt>
      <trkpt lat="65.19056" lon="21.07822">
        <ele>148.746702</ele>
        <time>2020-09-27T09:33:46.902Z</time>
      </trkpt>
      <trkpt lat="65.1905" lon="21.07797">
        <ele>148.605002</ele>
        <time>2020-09-27T09:33:48.869Z</time>
      </trkpt>
      <trkpt lat="65.19044" lon="21.07772">
        <ele>148.41697</ele>
        <time>2020-09-27T09:33:50.907Z</time>
      </trkpt>
      <trkpt lat="65.19038" lon="21.07748">
        <ele>148.233913</ele>
        <time>2020-09-27T09:33:52.902Z</time>
      </trkpt>
      <trkpt lat="65.19033" lon="21.07724">
        <ele>148.060528</ele>
        <time>2020-09-27T09:33:54.887Z</time>
      </trkpt>
      <trkpt lat="65.19028" lon="21.077">
        <ele>147.882038</ele>
        <time>2020-09-27T09:33:56.878Z</time>
      </trkpt>
      <trkpt lat="65.19022" lon="21.07676">
        <ele>147.701808</ele>
        <time>2020-09-27T09:33:58.892Z</time>
      </trkpt>
      <trkpt lat="65.19017" lon="21.07652">
        <ele>147.520262</ele>
        <time>2020-09-27T09:34:00.880Z</time>
      </trkpt>
      <trkpt lat="65.19011" lon="21.07628">
        <ele>147.334864</ele>
        <time>2020-09-27T09:34:02.921Z</time>
      </trkpt>
      <trkpt lat="65.19005" lon="21.07604">
        <ele>147.150256</ele>
        <time>2020-09-27T09:34:04.875Z</time>
      </trkpt>
      <trkpt lat="65.18999" lon="21.07579">
        <ele>146.967956</ele>
        <time>2020-09-27T09:34:06.852Z</time>
      </trkpt>
      <trkpt lat="65.18994" lon="21.07556">
        <ele>146.792928</ele>
        <time>2020-09-27T09:34:08.861Z</time>
      </trkpt>
      <trkpt lat="65.18989" lon="21.07533">
        <ele>146.623444</ele>
        <time>2020-09-27T09:34:10.883Z</time>
      </trkpt>
      <trkpt lat="65.18984" lon="21.0751">
        <ele>146.453353</ele>
        <time>2020-09-27T09:34:12.860Z</time>
      </trkpt>
      <trkpt lat="65.18979" lon="21.07487">
        <ele>146.282437</ele>
        <time>2020-09-27T09:34:14.906Z</time>
      </trkpt>
      <trkpt lat="65.18973" lon="21.07465">
        <ele>146.11075</ele>
        <time>2020-09-27T09:34:16.881Z</time>
      </trkpt>
      <trkpt lat="65.18968" lon="21.07443">
        <ele>145.940506</ele>
        <time>2020-09-27T09:34:18.850Z</time>
      </trkpt>
      <trkpt lat="65.18962" lon="21.0742">
        <ele>145.818117</ele>
        <time>2020-09-27T09:34:20.895Z</time>
      </trkpt>
      <trkpt lat="65.18957" lon="21.07398">
        <ele>145.879856</ele>
        <time>2020-09-27T09:34:22.895Z</time>
      </trkpt>
      <trkpt lat="65.18951" lon="21.07376">
        <ele>145.943118</ele>
        <time>2020-09-27T09:34:24.863Z</time>
      </trkpt>
      <trkpt lat="65.18946" lon="21.07353">
        <ele>146.006526</ele>
        <time>2020-09-27T09:34:26.869Z</time>
      </trkpt>
      <trkpt lat="65.18941" lon="21.0733">
        <ele>146.070001</ele>
        <time>2020-09-27T09:34:28.888Z</time>
      </trkpt>
      <trkpt lat="65.18935" lon="21.07306">
        <ele>146.135092</ele>
        <time>2020-09-27T09:34:30.902Z</time>
      </trkpt>
      <trkpt lat="65.18929" lon="21.07283">
        <ele>146.200543</ele>
        <time>2020-09-27T09:34:32.880Z</time>
      </trkpt>
      <trkpt lat="65.18924" lon="21.0726">
        <ele>146.263533</ele>
        <time>2020-09-27T09:34:34.864Z</time>
      </trkpt>
      <trkpt lat="65.18919" lon="21.07238">
        <ele>146.326307</ele>
        <time>2020-09-27T09:34:36.861Z</time>
      </trkpt>
      <trkpt lat="65.18913" lon="21.07215">
        <ele>146.389782</ele>
        <time>2020-09-27T09:34:38.868Z</time>
      </trkpt>
      <trkpt lat="65.18909" lon="21.07192">
        <ele>146.451272</ele>
        <time>2020-09-27T09:34:40.867Z</time>
      </trkpt>
      <trkpt lat="65.18904" lon="21.07168">
        <ele>146.516348</ele>
        <time>2020-09-27T09:34:42.897Z</time>
      </trkpt>
      <trkpt lat="65.18898" lon="21.07143">
        <ele>146.582941</ele>
        <time>2020-09-27T09:34:44.877Z</time>
      </trkpt>
      <trkpt lat="65.18893" lon="21.0712">
        <ele>146.646628</ele>
        <time>2020-09-27T09:34:46.869Z</time>
      </trkpt>
      <trkpt lat="65.18887" lon="21.07097">
        <ele>146.71154</ele>
        <time>2020-09-27T09:34:48.906Z</time>
      </trkpt>
      <trkpt lat="65.18882" lon="21.07076">
        <ele>146.77306</ele>
        <time>2020-09-27T09:34:50.872Z</time>
      </trkpt>
      <trkpt lat="65.18876" lon="21.07054">
        <ele>146.832756</ele>
        <time>2020-09-27T09:34:52.867Z</time>
      </trkpt>
      <trkpt lat="65.18871" lon="21.07033">
        <ele>146.842018</ele>
        <time>2020-09-27T09:34:54.856Z</time>
      </trkpt>
      <trkpt lat="65.18866" lon="21.07013">
        <ele>146.841186</ele>
        <time>2020-09-27T09:34:56.868Z</time>
      </trkpt>
      <trkpt lat="65.18861" lon="21.06991">
        <ele>146.840329</ele>
        <time>2020-09-27T09:34:58.880Z</time>
      </trkpt>
      <trkpt lat="65.18856" lon="21.06968">
        <ele>146.83942</ele>
        <time>2020-09-27T09:35:00.876Z</time>
      </trkpt>
      <trkpt lat="65.1885" lon="21.06947">
        <ele>146.838553</ele>
        <time>2020-09-27T09:35:02.853Z</time>
      </trkpt>
      <trkpt lat="65.18845" lon="21.06927">
        <ele>146.837702</ele>
        <time>2020-09-27T09:35:04.880Z</time>
      </trkpt>
      <trkpt lat="65.18839" lon="21.06907">
        <ele>146.836868</ele>
        <time>2020-09-27T09:35:06.890Z</time>
      </trkpt>
      <trkpt lat="65.18833" lon="21.06888">
        <ele>146.836065</ele>
        <time>2020-09-27T09:35:08.896Z</time>
      </trkpt>
      <trkpt lat="65.18828" lon="21.0687">
        <ele>146.835259</ele>
        <time>2020-09-27T09:35:10.855Z</time>
      </trkpt>
      <trkpt lat="65.18822" lon="21.06851">
        <ele>146.834424</ele>
        <time>2020-09-27T09:35:12.868Z</time>
      </trkpt>
      <trkpt lat="65.18816" lon="21.06831">
        <ele>146.83357</ele>
        <time>2020-09-27T09:35:14.888Z</time>
      </trkpt>
      <trkpt lat="65.1881" lon="21.06812">
        <ele>146.832755</ele>
        <time>2020-09-27T09:35:16.865Z</time>
      </trkpt>
      <trkpt lat="65.18804" lon="21.06792">
        <ele>146.831908</ele>
        <time>2020-09-27T09:35:18.864Z</time>
      </trkpt>
      <trkpt lat="65.18798" lon="21.06772">
        <ele>146.831062</ele>
        <time>2020-09-27T09:35:20.885Z</time>
      </trkpt>
      <trkpt lat="65.18792" lon="21.06754">
        <ele>146.830232</ele>
        <time>2020-09-27T09:35:22.863Z</time>
      </trkpt>
      <trkpt lat="65.18786" lon="21.06734">
        <ele>146.829349</ele>
        <time>2020-09-27T09:35:24.869Z</time>
      </trkpt>
      <trkpt lat="65.18779" lon="21.06714">
        <ele>146.828482</ele>
        <time>2020-09-27T09:35:26.874Z</time>
      </trkpt>
      <trkpt lat="65.18773" lon="21.06694">
        <ele>146.809667</ele>
        <time>2020-09-27T09:35:28.900Z</time>
      </trkpt>
      <trkpt lat="65.18766" lon="21.06673">
        <ele>146.711262</ele>
        <time>2020-09-27T09:35:30.858Z</time>
      </trkpt>
      <trkpt lat="65.1876" lon="21.06653">
        <ele>146.615492</ele>
        <time>2020-09-27T09:35:32.866Z</time>
      </trkpt>
      <trkpt lat="65.18753" lon="21.06633">
        <ele>146.518831</ele>
        <time>2020-09-27T09:35:34.867Z</time>
      </trkpt>
      <trkpt lat="65.18746" lon="21.06613">
        <ele>146.423101</ele>
        <time>2020-09-27T09:35:36.866Z</time>
      </trkpt>
      <trkpt lat="65.18739" lon="21.06595">
        <ele>146.329103</ele>
        <time>2020-09-27T09:35:38.872Z</time>
      </trkpt>
      <trkpt lat="65.18732" lon="21.06575">
        <ele>146.229608</ele>
        <time>2020-09-27T09:35:40.887Z</time>
      </trkpt>
      <trkpt lat="65.18725" lon="21.06555">
        <ele>146.129216</ele>
        <time>2020-09-27T09:35:42.851Z</time>
      </trkpt>
      <trkpt lat="65.18718" lon="21.06536">
        <ele>146.035114</ele>
        <time>2020-09-27T09:35:44.900Z</time>
      </trkpt>
      <trkpt lat="65.18711" lon="21.06519">
        <ele>145.943282</ele>
        <time>2020-09-27T09:35:46.900Z</time>
      </trkpt>
      <trkpt lat="65.18703" lon="21.06501">
        <ele>145.847869</ele>
        <time>2020-09-27T09:35:48.947Z</time>
      </trkpt>
      <trkpt lat="65.18696" lon="21.06483">
        <ele>145.751458</ele>
        <time>2020-09-27T09:35:50.862Z</time>
      </trkpt>
      <trkpt lat="65.18688" lon="21.06463">
        <ele>145.649566</ele>
        <time>2020-09-27T09:35:52.911Z</time>
      </trkpt>
      <trkpt lat="65.1868" lon="21.06444">
        <ele>145.551135</ele>
        <time>2020-09-27T09:35:54.867Z</time>
      </trkpt>
      <trkpt lat="65.18673" lon="21.06426">
        <ele>145.454086</ele>
        <time>2020-09-27T09:35:56.870Z</time>
      </trkpt>
      <trkpt lat="65.18666" lon="21.06406">
        <ele>145.357744</ele>
        <time>2020-09-27T09:35:58.897Z</time>
      </trkpt>
      <trkpt lat="65.18659" lon="21.06387">
        <ele>145.262584</ele>
        <time>2020-09-27T09:36:00.860Z</time>
      </trkpt>
      <trkpt lat="65.18652" lon="21.06369">
        <ele>145.199803</ele>
        <time>2020-09-27T09:36:02.877Z</time>
      </trkpt>
      <trkpt lat="65.18644" lon="21.0635">
        <ele>145.177329</ele>
        <time>2020-09-27T09:36:04.871Z</time>
      </trkpt>
      <trkpt lat="65.18637" lon="21.06332">
        <ele>145.155486</ele>
        <time>2020-09-27T09:36:06.880Z</time>
      </trkpt>
      <trkpt lat="65.1863" lon="21.06315">
        <ele>145.133373</ele>
        <time>2020-09-27T09:36:08.852Z</time>
      </trkpt>
      <trkpt lat="65.18623" lon="21.06297">
        <ele>145.111903</ele>
        <time>2020-09-27T09:36:10.896Z</time>
      </trkpt>
      <trkpt lat="65.18616" lon="21.0628">
        <ele>145.091054</ele>
        <time>2020-09-27T09:36:12.878Z</time>
      </trkpt>
      <trkpt lat="65.18609" lon="21.06262">
        <ele>145.070269</ele>
        <time>2020-09-27T09:36:14.868Z</time>
      </trkpt>
      <trkpt lat="65.18602" lon="21.06246">
        <ele>145.049906</ele>
        <time>2020-09-27T09:36:16.880Z</time>
      </trkpt>
      <trkpt lat="65.18596" lon="21.06229">
        <ele>145.02974</ele>
        <time>2020-09-27T09:36:18.876Z</time>
      </trkpt>
      <trkpt lat="65.18589" lon="21.06213">
        <ele>145.009941</ele>
        <time>2020-09-27T09:36:20.886Z</time>
      </trkpt>
      <trkpt lat="65.18582" lon="21.06197">
        <ele>144.990268</ele>
        <time>2020-09-27T09:36:22.875Z</time>
      </trkpt>
      <trkpt lat="65.18576" lon="21.06179">
        <ele>144.970117</ele>
        <time>2020-09-27T09:36:24.872Z</time>
      </trkpt>
      <trkpt lat="65.18569" lon="21.06162">
        <ele>144.949485</ele>
        <time>2020-09-27T09:36:26.888Z</time>
      </trkpt>
      <trkpt lat="65.18562" lon="21.06144">
        <ele>144.927695</ele>
        <time>2020-09-27T09:36:28.859Z</time>
      </trkpt>
      <trkpt lat="65.18555" lon="21.06126">
        <ele>144.905515</ele>
        <time>2020-09-27T09:36:30.862Z</time>
      </trkpt>
      <trkpt lat="65.18548" lon="21.06108">
        <ele>144.884351</ele>
        <time>2020-09-27T09:36:32.856Z</time>
      </trkpt>
      <trkpt lat="65.18541" lon="21.06089">
        <ele>144.862067</ele>
        <time>2020-09-27T09:36:34.879Z</time>
      </trkpt>
      <trkpt lat="65.18533" lon="21.06071">
        <ele>144.839303</ele>
        <time>2020-09-27T09:36:36.869Z</time>
      </trkpt>
      <trkpt lat="65.18525" lon="21.06051">
        <ele>144.916641</ele>
        <time>2020-09-27T09:36:38.879Z</time>
      </trkpt>
      <trkpt lat="65.18517" lon="21.06031">
        <ele>145.027868</ele>
        <time>2020-09-27T09:36:40.865Z</time>
      </trkpt>
      <trkpt lat="65.18509" lon="21.06011">
        <ele>145.140705</ele>
        <time>2020-09-27T09:36:42.871Z</time>
      </trkpt>
      <trkpt lat="65.18501" lon="21.05989">
        <ele>145.251995</ele>
        <time>2020-09-27T09:36:44.878Z</time>
      </trkpt>
      <trkpt lat="65.18493" lon="21.05969">
        <ele>145.366556</ele>
        <time>2020-09-27T09:36:46.855Z</time>
      </trkpt>
      <trkpt lat="65.18485" lon="21.05948">
        <ele>145.480541</ele>
        <time>2020-09-27T09:36:48.867Z</time>
      </trkpt>
      <trkpt lat="65.18477" lon="21.05927">
        <ele>145.594042</ele>
        <time>2020-09-27T09:36:50.858Z</time>
      </trkpt>
      <trkpt lat="65.18469" lon="21.05906">
        <ele>145.703854</ele>
        <time>2020-09-27T09:36:52.874Z</time>
      </trkpt>
      <trkpt lat="65.18462" lon="21.05886">
        <ele>145.80811</ele>
        <time>2020-09-27T09:36:54.866Z</time>
      </trkpt>
      <trkpt lat="65.18455" lon="21.05868">
        <ele>145.904744</ele>
        <time>2020-09-27T09:36:56.867Z</time>
      </trkpt>
      <trkpt lat="65.18449" lon="21.05851">
        <ele>145.99249</ele>
        <time>2020-09-27T09:36:58.895Z</time>
      </trkpt>
      <trkpt lat="65.18442" lon="21.05828">
        <ele>146.110911</ele>
        <time>2020-09-27T09:37:01.882Z</time>
      </trkpt>
      <trkpt lat="65.18435" lon="21.05806">
        <ele>146.222005</ele>
        <time>2020-09-27T09:37:04.861Z</time>
      </trkpt>
      <trkpt lat="65.18428" lon="21.05785">
        <ele>146.324166</ele>
        <time>2020-09-27T09:37:07.872Z</time>
      </trkpt>
      <trkpt lat="65.18422" lon="21.05764">
        <ele>146.423273</ele>
        <time>2020-09-27T09:37:10.911Z</time>
      </trkpt>
      <trkpt lat="65.18417" lon="21.05746">
        <ele>146.509768</ele>
        <time>2020-09-27T09:37:13.891Z</time>
      </trkpt>
      <trkpt lat="65.18412" lon="21.05728">
        <ele>146.753271</ele>
        <time>2020-09-27T09:37:16.910Z</time>
      </trkpt>
      <trkpt lat="65.18408" lon="21.0571">
        <ele>147.102055</ele>
        <time>2020-09-27T09:37:19.859Z</time>
      </trkpt>
      <trkpt lat="65.18402" lon="21.05687">
        <ele>147.55062</ele>
        <time>2020-09-27T09:37:23.882Z</time>
      </trkpt>
      <trkpt lat="65.18396" lon="21.05664">
        <ele>147.983351</ele>
        <time>2020-09-27T09:37:27.880Z</time>
      </trkpt>
      <trkpt lat="65.1839" lon="21.05643">
        <ele>148.39824</ele>
        <time>2020-09-27T09:37:31.872Z</time>
      </trkpt>
      <trkpt lat="65.18384" lon="21.05623">
        <ele>148.790359</ele>
        <time>2020-09-27T09:37:35.872Z</time>
      </trkpt>
      <trkpt lat="65.18379" lon="21.05603">
        <ele>149.165441</ele>
        <time>2020-09-27T09:37:39.915Z</time>
      </trkpt>
      <trkpt lat="65.18373" lon="21.05581">
        <ele>149.585125</ele>
        <time>2020-09-27T09:37:44.866Z</time>
      </trkpt>
      <trkpt lat="65.18368" lon="21.05561">
        <ele>149.96828</ele>
        <time>2020-09-27T09:37:48.900Z</time>
      </trkpt>
      <trkpt lat="65.18363" lon="21.0554">
        <ele>150.369936</ele>
        <time>2020-09-27T09:37:52.918Z</time>
      </trkpt>
      <trkpt lat="65.18358" lon="21.05519">
        <ele>150.762746</ele>
        <time>2020-09-27T09:37:56.869Z</time>
      </trkpt>
      <trkpt lat="65.18352" lon="21.05497">
        <ele>151.1803</ele>
        <time>2020-09-27T09:38:01.872Z</time>
      </trkpt>
      <trkpt lat="65.18346" lon="21.05475">
        <ele>151.611106</ele>
        <time>2020-09-27T09:38:06.876Z</time>
      </trkpt>
      <trkpt lat="65.1834" lon="21.05453">
        <ele>152.035546</ele>
        <time>2020-09-27T09:38:11.869Z</time>
      </trkpt>
      <trkpt lat="65.18335" lon="21.05435">
        <ele>152.390519</ele>
        <time>2020-09-27T09:38:15.891Z</time>
      </trkpt>
      <trkpt lat="65.1833" lon="21.05417">
        <ele>152.756085</ele>
        <time>2020-09-27T09:38:19.860Z</time>
      </trkpt>
      <trkpt lat="65.18325" lon="21.05398">
        <ele>153.116615</ele>
        <time>2020-09-27T09:38:23.858Z</time>
      </trkpt>
      <trkpt lat="65.1832" lon="21.05379">
        <ele>153.486737</ele>
        <time>2020-09-27T09:38:27.879Z</time>
      </trkpt>
      <trkpt lat="65.18314" lon="21.05359">
        <ele>153.784668</ele>
        <time>2020-09-27T09:38:31.866Z</time>
      </trkpt>
      <trkpt lat="65.18308" lon="21.0534">
        <ele>154.082719</ele>
        <time>2020-09-27T09:38:35.884Z</time>
      </trkpt>
      <trkpt lat="65.18302" lon="21.05322">
        <ele>154.371289</ele>
        <time>2020-09-27T09:38:39.874Z</time>
      </trkpt>
      <trkpt lat="65.18297" lon="21.05304">
        <ele>154.637024</ele>
        <time>2020-09-27T09:38:43.909Z</time>
      </trkpt>
      <trkpt lat="65.18291" lon="21.05286">
        <ele>154.917759</ele>
        <time>2020-09-27T09:38:47.893Z</time>
      </trkpt>
      <trkpt lat="65.18285" lon="21.05268">
        <ele>155.201229</ele>
        <time>2020-09-27T09:38:51.881Z</time>
      </trkpt>
      <trkpt lat="65.18279" lon="21.05251">
        <ele>155.486581</ele>
        <time>2020-09-27T09:38:55.903Z</time>
      </trkpt>
      <trkpt lat="65.18272" lon="21.05233">
        <ele>155.773051</ele>
        <time>2020-09-27T09:38:59.863Z</time>
      </trkpt>
      <trkpt lat="65.18265" lon="21.05216">
        <ele>156.061504</ele>
        <time>2020-09-27T09:39:03.876Z</time>
      </trkpt>
      <trkpt lat="65.18258" lon="21.052">
        <ele>156.357862</ele>
        <time>2020-09-27T09:39:07.870Z</time>
      </trkpt>
      <trkpt lat="65.18251" lon="21.05184">
        <ele>156.652466</ele>
        <time>2020-09-27T09:39:11.881Z</time>
      </trkpt>
      <trkpt lat="65.18243" lon="21.05167">
        <ele>156.965315</ele>
        <time>2020-09-27T09:39:15.885Z</time>
      </trkpt>
      <trkpt lat="65.18235" lon="21.05153">
        <ele>157.24782</ele>
        <time>2020-09-27T09:39:19.868Z</time>
      </trkpt>
      <trkpt lat="65.18227" lon="21.05137">
        <ele>157.558043</ele>
        <time>2020-09-27T09:39:23.869Z</time>
      </trkpt>
      <trkpt lat="65.18218" lon="21.05122">
        <ele>157.871859</ele>
        <time>2020-09-27T09:39:27.894Z</time>
      </trkpt>
      <trkpt lat="65.18211" lon="21.05109">
        <ele>158.145901</ele>
        <time>2020-09-27T09:39:31.897Z</time>
      </trkpt>
      <trkpt lat="65.18203" lon="21.05095">
        <ele>158.443396</ele>
        <time>2020-09-27T09:39:35.877Z</time>
      </trkpt>
      <trkpt lat="65.18194" lon="21.05081">
        <ele>158.750556</ele>
        <time>2020-09-27T09:39:39.888Z</time>
      </trkpt>
      <trkpt lat="65.18184" lon="21.05068">
        <ele>159.083391</ele>
        <time>2020-09-27T09:39:43.875Z</time>
      </trkpt>
      <trkpt lat="65.18174" lon="21.05056">
        <ele>159.404058</ele>
        <time>2020-09-27T09:39:47.864Z</time>
      </trkpt>
      <trkpt lat="65.18166" lon="21.05042">
        <ele>159.698526</ele>
        <time>2020-09-27T09:39:51.856Z</time>
      </trkpt>
      <trkpt lat="65.18156" lon="21.0503">
        <ele>160.024061</ele>
        <time>2020-09-27T09:39:55.923Z</time>
      </trkpt>
      <trkpt lat="65.18147" lon="21.0502">
        <ele>160.317566</ele>
        <time>2020-09-27T09:39:59.903Z</time>
      </trkpt>
      <trkpt lat="65.18138" lon="21.0501">
        <ele>160.612091</ele>
        <time>2020-09-27T09:40:03.895Z</time>
      </trkpt>
      <trkpt lat="65.18129" lon="21.04998">
        <ele>160.911074</ele>
        <time>2020-09-27T09:40:07.867Z</time>
      </trkpt>
      <trkpt lat="65.18119" lon="21.0499">
        <ele>161.200384</ele>
        <time>2020-09-27T09:40:11.864Z</time>
      </trkpt>
      <trkpt lat="65.18109" lon="21.04982">
        <ele>161.511312</ele>
        <time>2020-09-27T09:40:15.876Z</time>
      </trkpt>
      <trkpt lat="65.181" lon="21.04974">
        <ele>161.794131</ele>
        <time>2020-09-27T09:40:19.875Z</time>
      </trkpt>
      <trkpt lat="65.18091" lon="21.04966">
        <ele>162.083849</ele>
        <time>2020-09-27T09:40:23.885Z</time>
      </trkpt>
      <trkpt lat="65.18081" lon="21.04958">
        <ele>162.374817</ele>
        <time>2020-09-27T09:40:27.867Z</time>
      </trkpt>
      <trkpt lat="65.18072" lon="21.04948">
        <ele>162.672629</ele>
        <time>2020-09-27T09:40:31.879Z</time>
      </trkpt>
      <trkpt lat="65.18062" lon="21.0494">
        <ele>162.979986</ele>
        <time>2020-09-27T09:40:35.868Z</time>
      </trkpt>
      <trkpt lat="65.18052" lon="21.04934">
        <ele>163.26346</ele>
        <time>2020-09-27T09:40:39.895Z</time>
      </trkpt>
      <trkpt lat="65.18043" lon="21.04927">
        <ele>163.545295</ele>
        <time>2020-09-27T09:40:43.873Z</time>
      </trkpt>
      <trkpt lat="65.18034" lon="21.04922">
        <ele>163.806239</ele>
        <time>2020-09-27T09:40:47.864Z</time>
      </trkpt>
      <trkpt lat="65.18025" lon="21.04916">
        <ele>164.092624</ele>
        <time>2020-09-27T09:40:51.863Z</time>
      </trkpt>
      <trkpt lat="65.18015" lon="21.04909">
        <ele>164.458689</ele>
        <time>2020-09-27T09:40:56.890Z</time>
      </trkpt>
      <trkpt lat="65.18006" lon="21.04903">
        <ele>164.78654</ele>
        <time>2020-09-27T09:41:00.879Z</time>
      </trkpt>
      <trkpt lat="65.17996" lon="21.04897">
        <ele>165.129181</ele>
        <time>2020-09-27T09:41:04.878Z</time>
      </trkpt>
      <trkpt lat="65.17987" lon="21.04892">
        <ele>165.45961</ele>
        <time>2020-09-27T09:41:08.884Z</time>
      </trkpt>
      <trkpt lat="65.17977" lon="21.04887">
        <ele>165.787949</ele>
        <time>2020-09-27T09:41:12.897Z</time>
      </trkpt>
      <trkpt lat="65.17968" lon="21.04882">
        <ele>166.103738</ele>
        <time>2020-09-27T09:41:16.905Z</time>
      </trkpt>
      <trkpt lat="65.17958" lon="21.04877">
        <ele>166.458304</ele>
        <time>2020-09-27T09:41:20.886Z</time>
      </trkpt>
      <trkpt lat="65.17948" lon="21.04871">
        <ele>166.819769</ele>
        <time>2020-09-27T09:41:24.908Z</time>
      </trkpt>
      <trkpt lat="65.17938" lon="21.04865">
        <ele>167.186005</ele>
        <time>2020-09-27T09:41:28.887Z</time>
      </trkpt>
      <trkpt lat="65.17928" lon="21.04858">
        <ele>167.530247</ele>
        <time>2020-09-27T09:41:32.916Z</time>
      </trkpt>
      <trkpt lat="65.17919" lon="21.04851">
        <ele>167.872466</ele>
        <time>2020-09-27T09:41:36.861Z</time>
      </trkpt>
      <trkpt lat="65.17908" lon="21.04842">
        <ele>168.244848</ele>
        <time>2020-09-27T09:41:40.905Z</time>
      </trkpt>
      <trkpt lat="65.17898" lon="21.04833">
        <ele>168.640891</ele>
        <time>2020-09-27T09:41:44.858Z</time>
      </trkpt>
      <trkpt lat="65.17888" lon="21.04822">
        <ele>169.008302</ele>
        <time>2020-09-27T09:41:48.882Z</time>
      </trkpt>
      <trkpt lat="65.17878" lon="21.0481">
        <ele>169.384649</ele>
        <time>2020-09-27T09:41:52.874Z</time>
      </trkpt>
      <trkpt lat="65.17868" lon="21.04798">
        <ele>169.773878</ele>
        <time>2020-09-27T09:41:56.890Z</time>
      </trkpt>
      <trkpt lat="65.17858" lon="21.04785">
        <ele>170.168611</ele>
        <time>2020-09-27T09:42:00.870Z</time>
      </trkpt>
      <trkpt lat="65.17849" lon="21.04775">
        <ele>170.255994</ele>
        <time>2020-09-27T09:42:03.861Z</time>
      </trkpt>
      <trkpt lat="65.17841" lon="21.04763">
        <ele>170.300347</ele>
        <time>2020-09-27T09:42:06.862Z</time>
      </trkpt>
      <trkpt lat="65.17832" lon="21.04752">
        <ele>170.346509</ele>
        <time>2020-09-27T09:42:09.871Z</time>
      </trkpt>
      <trkpt lat="65.17824" lon="21.04742">
        <ele>170.389519</ele>
        <time>2020-09-27T09:42:12.886Z</time>
      </trkpt>
      <trkpt lat="65.17816" lon="21.04731">
        <ele>170.432777</ele>
        <time>2020-09-27T09:42:15.900Z</time>
      </trkpt>
      <trkpt lat="65.17807" lon="21.0472">
        <ele>170.477349</ele>
        <time>2020-09-27T09:42:18.885Z</time>
      </trkpt>
      <trkpt lat="65.17798" lon="21.04707">
        <ele>170.530068</ele>
        <time>2020-09-27T09:42:22.877Z</time>
      </trkpt>
      <trkpt lat="65.17788" lon="21.04695">
        <ele>170.580869</ele>
        <time>2020-09-27T09:42:26.899Z</time>
      </trkpt>
      <trkpt lat="65.17778" lon="21.04683">
        <ele>170.632317</ele>
        <time>2020-09-27T09:42:30.857Z</time>
      </trkpt>
      <trkpt lat="65.17768" lon="21.04671">
        <ele>170.682526</ele>
        <time>2020-09-27T09:42:34.869Z</time>
      </trkpt>
      <trkpt lat="65.17758" lon="21.0466">
        <ele>170.73536</ele>
        <time>2020-09-27T09:42:38.907Z</time>
      </trkpt>
      <trkpt lat="65.17748" lon="21.04652">
        <ele>170.784251</ele>
        <time>2020-09-27T09:42:42.898Z</time>
      </trkpt>
      <trkpt lat="65.17738" lon="21.04644">
        <ele>170.832891</ele>
        <time>2020-09-27T09:42:46.866Z</time>
      </trkpt>
      <trkpt lat="65.17728" lon="21.04637">
        <ele>170.880973</ele>
        <time>2020-09-27T09:42:50.878Z</time>
      </trkpt>
      <trkpt lat="65.17718" lon="21.04631">
        <ele>170.929672</ele>
        <time>2020-09-27T09:42:54.880Z</time>
      </trkpt>
      <trkpt lat="65.17707" lon="21.04626">
        <ele>170.9811</ele>
        <time>2020-09-27T09:42:58.906Z</time>
      </trkpt>
      <trkpt lat="65.17696" lon="21.04622">
        <ele>171.032817</ele>
        <time>2020-09-27T09:43:02.933Z</time>
      </trkpt>
      <trkpt lat="65.17687" lon="21.0462">
        <ele>171.020532</ele>
        <time>2020-09-27T09:43:05.894Z</time>
      </trkpt>
      <trkpt lat="65.17677" lon="21.04618">
        <ele>170.96221</ele>
        <time>2020-09-27T09:43:08.860Z</time>
      </trkpt>
      <trkpt lat="65.17667" lon="21.04617">
        <ele>170.902697</ele>
        <time>2020-09-27T09:43:11.866Z</time>
      </trkpt>
      <trkpt lat="65.17658" lon="21.04614">
        <ele>170.844698</ele>
        <time>2020-09-27T09:43:14.870Z</time>
      </trkpt>
      <trkpt lat="65.17646" lon="21.04614">
        <ele>170.771179</ele>
        <time>2020-09-27T09:43:18.879Z</time>
      </trkpt>
      <trkpt lat="65.17636" lon="21.04614">
        <ele>170.706857</ele>
        <time>2020-09-27T09:43:21.919Z</time>
      </trkpt>
      <trkpt lat="65.17624" lon="21.04612">
        <ele>170.637515</ele>
        <time>2020-09-27T09:43:24.868Z</time>
      </trkpt>
      <trkpt lat="65.17613" lon="21.04612">
        <ele>170.568287</ele>
        <time>2020-09-27T09:43:27.913Z</time>
      </trkpt>
      <trkpt lat="65.17602" lon="21.04614">
        <ele>170.502596</ele>
        <time>2020-09-27T09:43:30.859Z</time>
      </trkpt>
      <trkpt lat="65.17591" lon="21.04615">
        <ele>170.435174</ele>
        <time>2020-09-27T09:43:33.864Z</time>
      </trkpt>
      <trkpt lat="65.1758" lon="21.04615">
        <ele>170.366554</ele>
        <time>2020-09-27T09:43:36.868Z</time>
      </trkpt>
      <trkpt lat="65.17569" lon="21.04616">
        <ele>170.298541</ele>
        <time>2020-09-27T09:43:39.859Z</time>
      </trkpt>
      <trkpt lat="65.17558" lon="21.04616">
        <ele>170.231769</ele>
        <time>2020-09-27T09:43:42.897Z</time>
      </trkpt>
      <trkpt lat="65.17546" lon="21.04617">
        <ele>170.159475</ele>
        <time>2020-09-27T09:43:45.863Z</time>
      </trkpt>
      <trkpt lat="65.17535" lon="21.04617">
        <ele>170.090253</ele>
        <time>2020-09-27T09:43:48.920Z</time>
      </trkpt>
      <trkpt lat="65.17524" lon="21.04616">
        <ele>170.025308</ele>
        <time>2020-09-27T09:43:51.874Z</time>
      </trkpt>
      <trkpt lat="65.17514" lon="21.04616">
        <ele>169.963425</ele>
        <time>2020-09-27T09:43:54.920Z</time>
      </trkpt>
      <trkpt lat="65.17504" lon="21.04612">
        <ele>170.192845</ele>
        <time>2020-09-27T09:43:57.872Z</time>
      </trkpt>
      <trkpt lat="65.17493" lon="21.04609">
        <ele>170.50015</ele>
        <time>2020-09-27T09:44:00.906Z</time>
      </trkpt>
      <trkpt lat="65.17482" lon="21.04603">
        <ele>170.819474</ele>
        <time>2020-09-27T09:44:03.870Z</time>
      </trkpt>
      <trkpt lat="65.17472" lon="21.04597">
        <ele>171.120214</ele>
        <time>2020-09-27T09:44:06.858Z</time>
      </trkpt>
      <trkpt lat="65.17461" lon="21.0459">
        <ele>171.432256</ele>
        <time>2020-09-27T09:44:09.906Z</time>
      </trkpt>
      <trkpt lat="65.17451" lon="21.04583">
        <ele>171.747979</ele>
        <time>2020-09-27T09:44:12.880Z</time>
      </trkpt>
      <trkpt lat="65.17441" lon="21.04576">
        <ele>172.038411</ele>
        <time>2020-09-27T09:44:15.921Z</time>
      </trkpt>
      <trkpt lat="65.17431" lon="21.04569">
        <ele>172.328218</ele>
        <time>2020-09-27T09:44:18.877Z</time>
      </trkpt>
      <trkpt lat="65.17422" lon="21.0456">
        <ele>172.597965</ele>
        <time>2020-09-27T09:44:21.870Z</time>
      </trkpt>
      <trkpt lat="65.17413" lon="21.04552">
        <ele>172.87433</ele>
        <time>2020-09-27T09:44:24.890Z</time>
      </trkpt>
      <trkpt lat="65.17404" lon="21.04542">
        <ele>173.153316</ele>
        <time>2020-09-27T09:44:27.878Z</time>
      </trkpt>
      <trkpt lat="65.17396" lon="21.04531">
        <ele>173.428837</ele>
        <time>2020-09-27T09:44:30.862Z</time>
      </trkpt>
      <trkpt lat="65.17387" lon="21.04519">
        <ele>173.717955</ele>
        <time>2020-09-27T09:44:33.894Z</time>
      </trkpt>
      <trkpt lat="65.17379" lon="21.04507">
        <ele>173.990642</ele>
        <time>2020-09-27T09:44:36.872Z</time>
      </trkpt>
      <trkpt lat="65.17371" lon="21.04495">
        <ele>174.259649</ele>
        <time>2020-09-27T09:44:39.872Z</time>
      </trkpt>
      <trkpt lat="65.17362" lon="21.04481">
        <ele>174.55813</ele>
        <time>2020-09-27T09:44:42.883Z</time>
      </trkpt>
      <trkpt lat="65.17354" lon="21.04469">
        <ele>174.842369</ele>
        <time>2020-09-27T09:44:45.869Z</time>
      </trkpt>
      <trkpt lat="65.17344" lon="21.04457">
        <ele>175.122149</ele>
        <time>2020-09-27T09:44:48.921Z</time>
      </trkpt>
      <trkpt lat="65.17336" lon="21.04445">
        <ele>175.343894</ele>
        <time>2020-09-27T09:44:51.888Z</time>
      </trkpt>
      <trkpt lat="65.17327" lon="21.04433">
        <ele>175.561362</ele>
        <time>2020-09-27T09:44:54.920Z</time>
      </trkpt>
      <trkpt lat="65.17318" lon="21.04423">
        <ele>175.784413</ele>
        <time>2020-09-27T09:44:57.878Z</time>
      </trkpt>
      <trkpt lat="65.17309" lon="21.04414">
        <ele>176.00378</ele>
        <time>2020-09-27T09:45:00.861Z</time>
      </trkpt>
      <trkpt lat="65.173" lon="21.04405">
        <ele>176.218893</ele>
        <time>2020-09-27T09:45:03.878Z</time>
      </trkpt>
      <trkpt lat="65.17291" lon="21.04396">
        <ele>176.42295</ele>
        <time>2020-09-27T09:45:06.898Z</time>
      </trkpt>
      <trkpt lat="65.17282" lon="21.04388">
        <ele>176.635156</ele>
        <time>2020-09-27T09:45:09.874Z</time>
      </trkpt>
      <trkpt lat="65.17274" lon="21.04381">
        <ele>176.838647</ele>
        <time>2020-09-27T09:45:12.887Z</time>
      </trkpt>
      <trkpt lat="65.17265" lon="21.04375">
        <ele>177.037652</ele>
        <time>2020-09-27T09:45:15.882Z</time>
      </trkpt>
      <trkpt lat="65.17256" lon="21.04369">
        <ele>177.236917</ele>
        <time>2020-09-27T09:45:18.873Z</time>
      </trkpt>
      <trkpt lat="65.17245" lon="21.04362">
        <ele>177.498042</ele>
        <time>2020-09-27T09:45:22.895Z</time>
      </trkpt>
      <trkpt lat="65.17236" lon="21.04358">
        <ele>177.705009</ele>
        <time>2020-09-27T09:45:25.879Z</time>
      </trkpt>
      <trkpt lat="65.17226" lon="21.04354">
        <ele>177.916127</ele>
        <time>2020-09-27T09:45:28.861Z</time>
      </trkpt>
      <trkpt lat="65.17217" lon="21.0435">
        <ele>178.123941</ele>
        <time>2020-09-27T09:45:31.883Z</time>
      </trkpt>
      <trkpt lat="65.17208" lon="21.04347">
        <ele>178.331193</ele>
        <time>2020-09-27T09:45:34.862Z</time>
      </trkpt>
      <trkpt lat="65.17198" lon="21.04344">
        <ele>178.537947</ele>
        <time>2020-09-27T09:45:37.898Z</time>
      </trkpt>
      <trkpt lat="65.17189" lon="21.04341">
        <ele>178.746669</ele>
        <time>2020-09-27T09:45:40.921Z</time>
      </trkpt>
      <trkpt lat="65.1718" lon="21.0434">
        <ele>178.947996</ele>
        <time>2020-09-27T09:45:43.886Z</time>
      </trkpt>
      <trkpt lat="65.1717" lon="21.04338">
        <ele>178.991547</ele>
        <time>2020-09-27T09:45:46.877Z</time>
      </trkpt>
      <trkpt lat="65.17161" lon="21.04337">
        <ele>178.925413</ele>
        <time>2020-09-27T09:45:49.880Z</time>
      </trkpt>
      <trkpt lat="65.17151" lon="21.04336">
        <ele>178.856506</ele>
        <time>2020-09-27T09:45:52.888Z</time>
      </trkpt>
      <trkpt lat="65.17142" lon="21.04337">
        <ele>178.786142</ele>
        <time>2020-09-27T09:45:55.879Z</time>
      </trkpt>
      <trkpt lat="65.17132" lon="21.04339">
        <ele>178.714755</ele>
        <time>2020-09-27T09:45:58.911Z</time>
      </trkpt>
      <trkpt lat="65.17122" lon="21.04341">
        <ele>178.641345</ele>
        <time>2020-09-27T09:46:01.879Z</time>
      </trkpt>
      <trkpt lat="65.17112" lon="21.04343">
        <ele>178.570519</ele>
        <time>2020-09-27T09:46:04.872Z</time>
      </trkpt>
      <trkpt lat="65.17103" lon="21.04348">
        <ele>178.502583</ele>
        <time>2020-09-27T09:46:07.873Z</time>
      </trkpt>
      <trkpt lat="65.17093" lon="21.04352">
        <ele>178.433222</ele>
        <time>2020-09-27T09:46:10.871Z</time>
      </trkpt>
      <trkpt lat="65.17083" lon="21.04357">
        <ele>178.35899</ele>
        <time>2020-09-27T09:46:13.887Z</time>
      </trkpt>
      <trkpt lat="65.17073" lon="21.04363">
        <ele>178.284126</ele>
        <time>2020-09-27T09:46:16.881Z</time>
      </trkpt>
      <trkpt lat="65.17063" lon="21.04369">
        <ele>178.207003</ele>
        <time>2020-09-27T09:46:19.862Z</time>
      </trkpt>
      <trkpt lat="65.17053" lon="21.04375">
        <ele>178.130806</ele>
        <time>2020-09-27T09:46:22.891Z</time>
      </trkpt>
      <trkpt lat="65.17043" lon="21.04381">
        <ele>178.057856</ele>
        <time>2020-09-27T09:46:25.867Z</time>
      </trkpt>
      <trkpt lat="65.17034" lon="21.04387">
        <ele>177.986172</ele>
        <time>2020-09-27T09:46:28.878Z</time>
      </trkpt>
      <trkpt lat="65.17024" lon="21.04394">
        <ele>177.915966</ele>
        <time>2020-09-27T09:46:31.870Z</time>
      </trkpt>
      <trkpt lat="65.17015" lon="21.04399">
        <ele>177.844213</ele>
        <time>2020-09-27T09:46:34.878Z</time>
      </trkpt>
      <trkpt lat="65.17005" lon="21.04406">
        <ele>177.769817</ele>
        <time>2020-09-27T09:46:37.875Z</time>
      </trkpt>
      <trkpt lat="65.16994" lon="21.04412">
        <ele>177.683783</ele>
        <time>2020-09-27T09:46:40.902Z</time>
      </trkpt>
      <trkpt lat="65.16984" lon="21.04417">
        <ele>177.583268</ele>
        <time>2020-09-27T09:46:43.890Z</time>
      </trkpt>
      <trkpt lat="65.16973" lon="21.04422">
        <ele>177.48233</ele>
        <time>2020-09-27T09:46:46.879Z</time>
      </trkpt>
      <trkpt lat="65.16961" lon="21.04426">
        <ele>177.375081</ele>
        <time>2020-09-27T09:46:49.867Z</time>
      </trkpt>
      <trkpt lat="65.16948" lon="21.04432">
        <ele>177.255269</ele>
        <time>2020-09-27T09:46:52.859Z</time>
      </trkpt>
      <trkpt lat="65.16939" lon="21.04435">
        <ele>177.172575</ele>
        <time>2020-09-27T09:46:54.918Z</time>
      </trkpt>
      <trkpt lat="65.16929" lon="21.04437">
        <ele>177.089215</ele>
        <time>2020-09-27T09:46:56.873Z</time>
      </trkpt>
      <trkpt lat="65.1692" lon="21.0444">
        <ele>177.0004</ele>
        <time>2020-09-27T09:46:58.865Z</time>
      </trkpt>
      <trkpt lat="65.1691" lon="21.04442">
        <ele>176.910843</ele>
        <time>2020-09-27T09:47:00.868Z</time>
      </trkpt>
      <trkpt lat="65.16899" lon="21.04444">
        <ele>176.818661</ele>
        <time>2020-09-27T09:47:02.922Z</time>
      </trkpt>
      <trkpt lat="65.16889" lon="21.04446">
        <ele>176.724741</ele>
        <time>2020-09-27T09:47:04.882Z</time>
      </trkpt>
      <trkpt lat="65.16878" lon="21.04448">
        <ele>176.62807</ele>
        <time>2020-09-27T09:47:06.909Z</time>
      </trkpt>
      <trkpt lat="65.16867" lon="21.04449">
        <ele>176.529658</ele>
        <time>2020-09-27T09:47:08.899Z</time>
      </trkpt>
      <trkpt lat="65.16857" lon="21.04451">
        <ele>176.434057</ele>
        <time>2020-09-27T09:47:10.869Z</time>
      </trkpt>
      <trkpt lat="65.16846" lon="21.04453">
        <ele>176.33559</ele>
        <time>2020-09-27T09:47:12.865Z</time>
      </trkpt>
      <trkpt lat="65.16835" lon="21.04455">
        <ele>176.238823</ele>
        <time>2020-09-27T09:47:14.899Z</time>
      </trkpt>
      <trkpt lat="65.16825" lon="21.04456">
        <ele>176.142358</ele>
        <time>2020-09-27T09:47:16.878Z</time>
      </trkpt>
      <trkpt lat="65.16814" lon="21.04458">
        <ele>176.194816</ele>
        <time>2020-09-27T09:47:18.875Z</time>
      </trkpt>
      <trkpt lat="65.16803" lon="21.0446">
        <ele>176.320917</ele>
        <time>2020-09-27T09:47:20.874Z</time>
      </trkpt>
      <trkpt lat="65.16792" lon="21.04462">
        <ele>176.444817</ele>
        <time>2020-09-27T09:47:22.865Z</time>
      </trkpt>
      <trkpt lat="65.16782" lon="21.04464">
        <ele>176.564206</ele>
        <time>2020-09-27T09:47:24.875Z</time>
      </trkpt>
      <trkpt lat="65.16771" lon="21.04465">
        <ele>176.67985</ele>
        <time>2020-09-27T09:47:26.861Z</time>
      </trkpt>
      <trkpt lat="65.16761" lon="21.04468">
        <ele>176.794642</ele>
        <time>2020-09-27T09:47:28.876Z</time>
      </trkpt>
      <trkpt lat="65.16752" lon="21.0447">
        <ele>176.906272</ele>
        <time>2020-09-27T09:47:30.870Z</time>
      </trkpt>
      <trkpt lat="65.16742" lon="21.04471">
        <ele>177.014948</ele>
        <time>2020-09-27T09:47:32.884Z</time>
      </trkpt>
      <trkpt lat="65.16729" lon="21.04474">
        <ele>177.168549</ele>
        <time>2020-09-27T09:47:35.866Z</time>
      </trkpt>
      <trkpt lat="65.16716" lon="21.04475">
        <ele>177.318486</ele>
        <time>2020-09-27T09:47:38.868Z</time>
      </trkpt>
      <trkpt lat="65.16702" lon="21.04477">
        <ele>177.47073</ele>
        <time>2020-09-27T09:47:41.878Z</time>
      </trkpt>
      <trkpt lat="65.16693" lon="21.04476">
        <ele>177.573633</ele>
        <time>2020-09-27T09:47:43.874Z</time>
      </trkpt>
      <trkpt lat="65.16684" lon="21.04476">
        <ele>177.681106</ele>
        <time>2020-09-27T09:47:45.895Z</time>
      </trkpt>
      <trkpt lat="65.16671" lon="21.04476">
        <ele>177.831995</ele>
        <time>2020-09-27T09:47:48.865Z</time>
      </trkpt>
      <trkpt lat="65.16657" lon="21.04474">
        <ele>177.986636</ele>
        <time>2020-09-27T09:47:51.881Z</time>
      </trkpt>
      <trkpt lat="65.16648" lon="21.04471">
        <ele>178.091646</ele>
        <time>2020-09-27T09:47:53.891Z</time>
      </trkpt>
      <trkpt lat="65.16639" lon="21.04467">
        <ele>178.155973</ele>
        <time>2020-09-27T09:47:55.882Z</time>
      </trkpt>
      <trkpt lat="65.1663" lon="21.04463">
        <ele>178.117698</ele>
        <time>2020-09-27T09:47:57.897Z</time>
      </trkpt>
      <trkpt lat="65.16621" lon="21.04459">
        <ele>178.077876</ele>
        <time>2020-09-27T09:47:59.865Z</time>
      </trkpt>
      <trkpt lat="65.16612" lon="21.04454">
        <ele>178.039422</ele>
        <time>2020-09-27T09:48:01.916Z</time>
      </trkpt>
      <trkpt lat="65.16599" lon="21.04446">
        <ele>177.984413</ele>
        <time>2020-09-27T09:48:04.899Z</time>
      </trkpt>
      <trkpt lat="65.16587" lon="21.04437">
        <ele>177.92986</ele>
        <time>2020-09-27T09:48:07.882Z</time>
      </trkpt>
      <trkpt lat="65.16574" lon="21.04427">
        <ele>177.875051</ele>
        <time>2020-09-27T09:48:10.877Z</time>
      </trkpt>
      <trkpt lat="65.16562" lon="21.04415">
        <ele>177.821184</ele>
        <time>2020-09-27T09:48:13.870Z</time>
      </trkpt>
      <trkpt lat="65.1655" lon="21.04403">
        <ele>177.767067</ele>
        <time>2020-09-27T09:48:16.922Z</time>
      </trkpt>
      <trkpt lat="65.16539" lon="21.04391">
        <ele>177.714071</ele>
        <time>2020-09-27T09:48:19.868Z</time>
      </trkpt>
      <trkpt lat="65.16526" lon="21.04379">
        <ele>177.65808</ele>
        <time>2020-09-27T09:48:22.898Z</time>
      </trkpt>
      <trkpt lat="65.16514" lon="21.04366">
        <ele>177.60244</ele>
        <time>2020-09-27T09:48:25.924Z</time>
      </trkpt>
      <trkpt lat="65.16505" lon="21.04357">
        <ele>177.562153</ele>
        <time>2020-09-27T09:48:27.866Z</time>
      </trkpt>
      <trkpt lat="65.16496" lon="21.04348">
        <ele>177.520643</ele>
        <time>2020-09-27T09:48:29.878Z</time>
      </trkpt>
      <trkpt lat="65.16486" lon="21.04339">
        <ele>177.47635</ele>
        <time>2020-09-27T09:48:31.869Z</time>
      </trkpt>
      <trkpt lat="65.16476" lon="21.04329">
        <ele>177.430765</ele>
        <time>2020-09-27T09:48:33.902Z</time>
      </trkpt>
      <trkpt lat="65.16465" lon="21.04318">
        <ele>177.117719</ele>
        <time>2020-09-27T09:48:35.875Z</time>
      </trkpt>
      <trkpt lat="65.16454" lon="21.04308">
        <ele>176.677248</ele>
        <time>2020-09-27T09:48:37.866Z</time>
      </trkpt>
      <trkpt lat="65.16442" lon="21.04298">
        <ele>176.23107</ele>
        <time>2020-09-27T09:48:39.907Z</time>
      </trkpt>
      <trkpt lat="65.1643" lon="21.04287">
        <ele>175.772343</ele>
        <time>2020-09-27T09:48:41.883Z</time>
      </trkpt>
      <trkpt lat="65.16418" lon="21.04276">
        <ele>175.306925</ele>
        <time>2020-09-27T09:48:43.880Z</time>
      </trkpt>
      <trkpt lat="65.16406" lon="21.04264">
        <ele>174.83152</ele>
        <time>2020-09-27T09:48:45.874Z</time>
      </trkpt>
      <trkpt lat="65.16393" lon="21.04252">
        <ele>174.338316</ele>
        <time>2020-09-27T09:48:47.886Z</time>
      </trkpt>
      <trkpt lat="65.1638" lon="21.04239">
        <ele>173.827316</ele>
        <time>2020-09-27T09:48:49.872Z</time>
      </trkpt>
      <trkpt lat="65.16366" lon="21.04227">
        <ele>173.295742</ele>
        <time>2020-09-27T09:48:51.879Z</time>
      </trkpt>
      <trkpt lat="65.16351" lon="21.04214">
        <ele>172.747936</ele>
        <time>2020-09-27T09:48:53.880Z</time>
      </trkpt>
      <trkpt lat="65.16337" lon="21.042">
        <ele>172.1741</ele>
        <time>2020-09-27T09:48:55.866Z</time>
      </trkpt>
      <trkpt lat="65.16321" lon="21.04185">
        <ele>171.584104</ele>
        <time>2020-09-27T09:48:57.869Z</time>
      </trkpt>
      <trkpt lat="65.16306" lon="21.04171">
        <ele>170.979681</ele>
        <time>2020-09-27T09:48:59.886Z</time>
      </trkpt>
      <trkpt lat="65.1629" lon="21.04155">
        <ele>170.352955</ele>
        <time>2020-09-27T09:49:01.905Z</time>
      </trkpt>
      <trkpt lat="65.16274" lon="21.04139">
        <ele>169.697571</ele>
        <time>2020-09-27T09:49:03.915Z</time>
      </trkpt>
      <trkpt lat="65.16257" lon="21.04124">
        <ele>169.029534</ele>
        <time>2020-09-27T09:49:05.886Z</time>
      </trkpt>
      <trkpt lat="65.16248" lon="21.04116">
        <ele>168.688314</ele>
        <time>2020-09-27T09:49:06.878Z</time>
      </trkpt>
      <trkpt lat="65.1624" lon="21.04108">
        <ele>168.343075</ele>
        <time>2020-09-27T09:49:07.896Z</time>
      </trkpt>
      <trkpt lat="65.16231" lon="21.041">
        <ele>167.994369</ele>
        <time>2020-09-27T09:49:08.857Z</time>
      </trkpt>
      <trkpt lat="65.16222" lon="21.04092">
        <ele>167.64511</ele>
        <time>2020-09-27T09:49:09.870Z</time>
      </trkpt>
      <trkpt lat="65.16213" lon="21.04084">
        <ele>167.291832</ele>
        <time>2020-09-27T09:49:10.870Z</time>
      </trkpt>
      <trkpt lat="65.16204" lon="21.04076">
        <ele>166.934534</ele>
        <time>2020-09-27T09:49:11.878Z</time>
      </trkpt>
      <trkpt lat="65.16195" lon="21.04067">
        <ele>166.57209</ele>
        <time>2020-09-27T09:49:12.906Z</time>
      </trkpt>
      <trkpt lat="65.16186" lon="21.04058">
        <ele>166.20673</ele>
        <time>2020-09-27T09:49:13.875Z</time>
      </trkpt>
      <trkpt lat="65.16177" lon="21.0405">
        <ele>165.841965</ele>
        <time>2020-09-27T09:49:14.883Z</time>
      </trkpt>
      <trkpt lat="65.16168" lon="21.04041">
        <ele>165.474928</ele>
        <time>2020-09-27T09:49:15.888Z</time>
      </trkpt>
      <trkpt lat="65.16158" lon="21.04032">
        <ele>165.111912</ele>
        <time>2020-09-27T09:49:16.886Z</time>
      </trkpt>
      <trkpt lat="65.16149" lon="21.04023">
        <ele>164.750573</ele>
        <time>2020-09-27T09:49:17.892Z</time>
      </trkpt>
      <trkpt lat="65.16141" lon="21.04014">
        <ele>164.397609</ele>
        <time>2020-09-27T09:49:18.895Z</time>
      </trkpt>
      <trkpt lat="65.16132" lon="21.04005">
        <ele>164.113927</ele>
        <time>2020-09-27T09:49:19.887Z</time>
      </trkpt>
      <trkpt lat="65.16123" lon="21.03996">
        <ele>163.85956</ele>
        <time>2020-09-27T09:49:20.876Z</time>
      </trkpt>
      <trkpt lat="65.16115" lon="21.03987">
        <ele>163.604741</ele>
        <time>2020-09-27T09:49:21.867Z</time>
      </trkpt>
      <trkpt lat="65.16106" lon="21.03978">
        <ele>163.352941</ele>
        <time>2020-09-27T09:49:22.870Z</time>
      </trkpt>
      <trkpt lat="65.16098" lon="21.03968">
        <ele>163.109377</ele>
        <time>2020-09-27T09:49:23.880Z</time>
      </trkpt>
      <trkpt lat="65.16082" lon="21.0395">
        <ele>162.63241</ele>
        <time>2020-09-27T09:49:25.875Z</time>
      </trkpt>
      <trkpt lat="65.16065" lon="21.03933">
        <ele>162.151397</ele>
        <time>2020-09-27T09:49:27.871Z</time>
      </trkpt>
      <trkpt lat="65.16057" lon="21.03924">
        <ele>161.907753</ele>
        <time>2020-09-27T09:49:28.907Z</time>
      </trkpt>
      <trkpt lat="65.16049" lon="21.03915">
        <ele>161.65875</ele>
        <time>2020-09-27T09:49:29.885Z</time>
      </trkpt>
      <trkpt lat="65.1604" lon="21.03906">
        <ele>161.402084</ele>
        <time>2020-09-27T09:49:30.873Z</time>
      </trkpt>
      <trkpt lat="65.16031" lon="21.03896">
        <ele>161.149802</ele>
        <time>2020-09-27T09:49:31.940Z</time>
      </trkpt>
      <trkpt lat="65.16023" lon="21.03887">
        <ele>160.899883</ele>
        <time>2020-09-27T09:49:32.878Z</time>
      </trkpt>
      <trkpt lat="65.16015" lon="21.03878">
        <ele>160.653787</ele>
        <time>2020-09-27T09:49:33.862Z</time>
      </trkpt>
      <trkpt lat="65.15998" lon="21.03861">
        <ele>160.17813</ele>
        <time>2020-09-27T09:49:35.882Z</time>
      </trkpt>
      <trkpt lat="65.15983" lon="21.03845">
        <ele>159.718831</ele>
        <time>2020-09-27T09:49:37.870Z</time>
      </trkpt>
      <trkpt lat="65.15968" lon="21.03829">
        <ele>159.353152</ele>
        <time>2020-09-27T09:49:39.908Z</time>
      </trkpt>
      <trkpt lat="65.15953" lon="21.03813">
        <ele>159.098735</ele>
        <time>2020-09-27T09:49:41.868Z</time>
      </trkpt>
      <trkpt lat="65.15939" lon="21.03798">
        <ele>158.845797</ele>
        <time>2020-09-27T09:49:43.902Z</time>
      </trkpt>
      <trkpt lat="65.15925" lon="21.03784">
        <ele>158.600147</ele>
        <time>2020-09-27T09:49:45.873Z</time>
      </trkpt>
      <trkpt lat="65.15912" lon="21.03769">
        <ele>158.359835</ele>
        <time>2020-09-27T09:49:47.871Z</time>
      </trkpt>
      <trkpt lat="65.15898" lon="21.03754">
        <ele>158.112511</ele>
        <time>2020-09-27T09:49:49.879Z</time>
      </trkpt>
      <trkpt lat="65.15884" lon="21.03738">
        <ele>157.860246</ele>
        <time>2020-09-27T09:49:51.861Z</time>
      </trkpt>
      <trkpt lat="65.15869" lon="21.03722">
        <ele>157.606473</ele>
        <time>2020-09-27T09:49:53.866Z</time>
      </trkpt>
      <trkpt lat="65.15855" lon="21.03706">
        <ele>157.346028</ele>
        <time>2020-09-27T09:49:55.910Z</time>
      </trkpt>
      <trkpt lat="65.1584" lon="21.03689">
        <ele>157.088489</ele>
        <time>2020-09-27T09:49:57.862Z</time>
      </trkpt>
      <trkpt lat="65.15826" lon="21.03673">
        <ele>156.833297</ele>
        <time>2020-09-27T09:49:59.883Z</time>
      </trkpt>
      <trkpt lat="65.15812" lon="21.03658">
        <ele>156.57749</ele>
        <time>2020-09-27T09:50:01.875Z</time>
      </trkpt>
      <trkpt lat="65.15798" lon="21.03641">
        <ele>156.338636</ele>
        <time>2020-09-27T09:50:03.868Z</time>
      </trkpt>
      <trkpt lat="65.15784" lon="21.03625">
        <ele>156.101641</ele>
        <time>2020-09-27T09:50:05.869Z</time>
      </trkpt>
      <trkpt lat="65.15769" lon="21.0361">
        <ele>155.854994</ele>
        <time>2020-09-27T09:50:07.879Z</time>
      </trkpt>
      <trkpt lat="65.15754" lon="21.03594">
        <ele>155.611545</ele>
        <time>2020-09-27T09:50:09.871Z</time>
      </trkpt>
      <trkpt lat="65.1574" lon="21.0358">
        <ele>155.378857</ele>
        <time>2020-09-27T09:50:11.869Z</time>
      </trkpt>
      <trkpt lat="65.15726" lon="21.03565">
        <ele>155.150061</ele>
        <time>2020-09-27T09:50:13.904Z</time>
      </trkpt>
      <trkpt lat="65.15713" lon="21.0355">
        <ele>154.922831</ele>
        <time>2020-09-27T09:50:15.880Z</time>
      </trkpt>
      <trkpt lat="65.15699" lon="21.03535">
        <ele>154.691866</ele>
        <time>2020-09-27T09:50:17.890Z</time>
      </trkpt>
      <trkpt lat="65.15686" lon="21.0352">
        <ele>154.468276</ele>
        <time>2020-09-27T09:50:19.879Z</time>
      </trkpt>
      <trkpt lat="65.15671" lon="21.03506">
        <ele>154.232239</ele>
        <time>2020-09-27T09:50:21.861Z</time>
      </trkpt>
      <trkpt lat="65.15658" lon="21.0349">
        <ele>154.006449</ele>
        <time>2020-09-27T09:50:23.869Z</time>
      </trkpt>
      <trkpt lat="65.15644" lon="21.03475">
        <ele>153.677509</ele>
        <time>2020-09-27T09:50:25.907Z</time>
      </trkpt>
      <trkpt lat="65.1563" lon="21.0346">
        <ele>153.039209</ele>
        <time>2020-09-27T09:50:27.871Z</time>
      </trkpt>
      <trkpt lat="65.15616" lon="21.03444">
        <ele>152.398703</ele>
        <time>2020-09-27T09:50:29.888Z</time>
      </trkpt>
      <trkpt lat="65.15602" lon="21.03429">
        <ele>151.755916</ele>
        <time>2020-09-27T09:50:31.886Z</time>
      </trkpt>
      <trkpt lat="65.15587" lon="21.03413">
        <ele>151.105604</ele>
        <time>2020-09-27T09:50:33.876Z</time>
      </trkpt>
      <trkpt lat="65.15573" lon="21.03398">
        <ele>150.460242</ele>
        <time>2020-09-27T09:50:35.878Z</time>
      </trkpt>
      <trkpt lat="65.15559" lon="21.03384">
        <ele>149.812636</ele>
        <time>2020-09-27T09:50:37.882Z</time>
      </trkpt>
      <trkpt lat="65.15543" lon="21.03373">
        <ele>149.149116</ele>
        <time>2020-09-27T09:50:39.918Z</time>
      </trkpt>
      <trkpt lat="65.15528" lon="21.03363">
        <ele>148.486601</ele>
        <time>2020-09-27T09:50:41.871Z</time>
      </trkpt>
      <trkpt lat="65.15512" lon="21.03354">
        <ele>147.801141</ele>
        <time>2020-09-27T09:50:43.888Z</time>
      </trkpt>
      <trkpt lat="65.15495" lon="21.03348">
        <ele>147.113336</ele>
        <time>2020-09-27T09:50:45.870Z</time>
      </trkpt>
      <trkpt lat="65.15479" lon="21.03343">
        <ele>146.429692</ele>
        <time>2020-09-27T09:50:47.927Z</time>
      </trkpt>
      <trkpt lat="65.15462" lon="21.03341">
        <ele>145.733903</ele>
        <time>2020-09-27T09:50:49.882Z</time>
      </trkpt>
      <trkpt lat="65.15445" lon="21.0334">
        <ele>145.022851</ele>
        <time>2020-09-27T09:50:51.875Z</time>
      </trkpt>
      <trkpt lat="65.15428" lon="21.03343">
        <ele>144.289618</ele>
        <time>2020-09-27T09:50:53.865Z</time>
      </trkpt>
      <trkpt lat="65.15409" lon="21.03347">
        <ele>143.529939</ele>
        <time>2020-09-27T09:50:55.876Z</time>
      </trkpt>
      <trkpt lat="65.154" lon="21.03349">
        <ele>143.145958</ele>
        <time>2020-09-27T09:50:56.878Z</time>
      </trkpt>
      <trkpt lat="65.15391" lon="21.03351">
        <ele>142.773319</ele>
        <time>2020-09-27T09:50:57.863Z</time>
      </trkpt>
      <trkpt lat="65.15382" lon="21.03354">
        <ele>142.383311</ele>
        <time>2020-09-27T09:50:58.880Z</time>
      </trkpt>
      <trkpt lat="65.15373" lon="21.03357">
        <ele>141.997426</ele>
        <time>2020-09-27T09:50:59.871Z</time>
      </trkpt>
      <trkpt lat="65.15364" lon="21.0336">
        <ele>141.616111</ele>
        <time>2020-09-27T09:51:00.880Z</time>
      </trkpt>
      <trkpt lat="65.15355" lon="21.03362">
        <ele>141.239731</ele>
        <time>2020-09-27T09:51:01.916Z</time>
      </trkpt>
      <trkpt lat="65.15337" lon="21.03367">
        <ele>140.50684</ele>
        <time>2020-09-27T09:51:03.870Z</time>
      </trkpt>
      <trkpt lat="65.15319" lon="21.03372">
        <ele>139.757433</ele>
        <time>2020-09-27T09:51:05.893Z</time>
      </trkpt>
      <trkpt lat="65.15301" lon="21.03375">
        <ele>139.011529</ele>
        <time>2020-09-27T09:51:07.871Z</time>
      </trkpt>
      <trkpt lat="65.15284" lon="21.03373">
        <ele>138.459278</ele>
        <time>2020-09-27T09:51:09.873Z</time>
      </trkpt>
      <trkpt lat="65.15275" lon="21.03369">
        <ele>138.192997</ele>
        <time>2020-09-27T09:51:10.912Z</time>
      </trkpt>
      <trkpt lat="65.15266" lon="21.03365">
        <ele>137.927379</ele>
        <time>2020-09-27T09:51:11.874Z</time>
      </trkpt>
      <trkpt lat="65.15257" lon="21.0336">
        <ele>137.664366</ele>
        <time>2020-09-27T09:51:12.862Z</time>
      </trkpt>
      <trkpt lat="65.15248" lon="21.03355">
        <ele>137.397152</ele>
        <time>2020-09-27T09:51:13.872Z</time>
      </trkpt>
      <trkpt lat="65.15239" lon="21.03349">
        <ele>137.128625</ele>
        <time>2020-09-27T09:51:14.869Z</time>
      </trkpt>
      <trkpt lat="65.1523" lon="21.03342">
        <ele>136.855857</ele>
        <time>2020-09-27T09:51:15.862Z</time>
      </trkpt>
      <trkpt lat="65.15222" lon="21.03334">
        <ele>136.586041</ele>
        <time>2020-09-27T09:51:16.882Z</time>
      </trkpt>
      <trkpt lat="65.15214" lon="21.03325">
        <ele>136.322168</ele>
        <time>2020-09-27T09:51:17.906Z</time>
      </trkpt>
      <trkpt lat="65.15205" lon="21.03314">
        <ele>136.050258</ele>
        <time>2020-09-27T09:51:18.885Z</time>
      </trkpt>
      <trkpt lat="65.15197" lon="21.03302">
        <ele>135.776515</ele>
        <time>2020-09-27T09:51:19.878Z</time>
      </trkpt>
      <trkpt lat="65.1519" lon="21.0329">
        <ele>135.508956</ele>
        <time>2020-09-27T09:51:20.881Z</time>
      </trkpt>
      <trkpt lat="65.15183" lon="21.03276">
        <ele>135.240346</ele>
        <time>2020-09-27T09:51:21.882Z</time>
      </trkpt>
      <trkpt lat="65.15176" lon="21.03262">
        <ele>134.969164</ele>
        <time>2020-09-27T09:51:22.872Z</time>
      </trkpt>
      <trkpt lat="65.15169" lon="21.03246">
        <ele>134.694864</ele>
        <time>2020-09-27T09:51:23.881Z</time>
      </trkpt>
      <trkpt lat="65.15162" lon="21.03231">
        <ele>134.416753</ele>
        <time>2020-09-27T09:51:24.886Z</time>
      </trkpt>
      <trkpt lat="65.15155" lon="21.03214">
        <ele>134.133848</ele>
        <time>2020-09-27T09:51:25.879Z</time>
      </trkpt>
      <trkpt lat="65.15149" lon="21.03197">
        <ele>133.846021</ele>
        <time>2020-09-27T09:51:26.895Z</time>
      </trkpt>
      <trkpt lat="65.15142" lon="21.0318">
        <ele>133.555171</ele>
        <time>2020-09-27T09:51:27.899Z</time>
      </trkpt>
      <trkpt lat="65.15136" lon="21.03162">
        <ele>133.250934</ele>
        <time>2020-09-27T09:51:28.870Z</time>
      </trkpt>
      <trkpt lat="65.15129" lon="21.03144">
        <ele>132.943762</ele>
        <time>2020-09-27T09:51:29.867Z</time>
      </trkpt>
      <trkpt lat="65.15123" lon="21.03126">
        <ele>132.64741</ele>
        <time>2020-09-27T09:51:30.878Z</time>
      </trkpt>
      <trkpt lat="65.15117" lon="21.03108">
        <ele>132.355883</ele>
        <time>2020-09-27T09:51:31.873Z</time>
      </trkpt>
      <trkpt lat="65.15111" lon="21.0309">
        <ele>132.060247</ele>
        <time>2020-09-27T09:51:32.876Z</time>
      </trkpt>
      <trkpt lat="65.15106" lon="21.03072">
        <ele>131.761714</ele>
        <time>2020-09-27T09:51:33.899Z</time>
      </trkpt>
      <trkpt lat="65.15099" lon="21.03054">
        <ele>131.459391</ele>
        <time>2020-09-27T09:51:34.890Z</time>
      </trkpt>
      <trkpt lat="65.15093" lon="21.03035">
        <ele>131.151972</ele>
        <time>2020-09-27T09:51:35.880Z</time>
      </trkpt>
      <trkpt lat="65.15087" lon="21.03016">
        <ele>130.833765</ele>
        <time>2020-09-27T09:51:36.874Z</time>
      </trkpt>
      <trkpt lat="65.15081" lon="21.02997">
        <ele>130.519606</ele>
        <time>2020-09-27T09:51:37.867Z</time>
      </trkpt>
      <trkpt lat="65.15074" lon="21.02978">
        <ele>130.206452</ele>
        <time>2020-09-27T09:51:38.866Z</time>
      </trkpt>
      <trkpt lat="65.15068" lon="21.02959">
        <ele>129.887394</ele>
        <time>2020-09-27T09:51:39.910Z</time>
      </trkpt>
      <trkpt lat="65.15061" lon="21.0294">
        <ele>129.569329</ele>
        <time>2020-09-27T09:51:40.872Z</time>
      </trkpt>
      <trkpt lat="65.15054" lon="21.02922">
        <ele>129.246958</ele>
        <time>2020-09-27T09:51:41.860Z</time>
      </trkpt>
      <trkpt lat="65.15046" lon="21.02905">
        <ele>128.928356</ele>
        <time>2020-09-27T09:51:42.868Z</time>
      </trkpt>
      <trkpt lat="65.15039" lon="21.02889">
        <ele>128.616674</ele>
        <time>2020-09-27T09:51:43.870Z</time>
      </trkpt>
      <trkpt lat="65.15031" lon="21.02874">
        <ele>128.312614</ele>
        <time>2020-09-27T09:51:44.883Z</time>
      </trkpt>
      <trkpt lat="65.15023" lon="21.02861">
        <ele>128.046161</ele>
        <time>2020-09-27T09:51:45.882Z</time>
      </trkpt>
      <trkpt lat="65.15015" lon="21.0285">
        <ele>127.861603</ele>
        <time>2020-09-27T09:51:46.887Z</time>
      </trkpt>
      <trkpt lat="65.15006" lon="21.0284">
        <ele>127.677926</ele>
        <time>2020-09-27T09:51:47.871Z</time>
      </trkpt>
      <trkpt lat="65.1499" lon="21.02824">
        <ele>127.331206</ele>
        <time>2020-09-27T09:51:49.889Z</time>
      </trkpt>
      <trkpt lat="65.14981" lon="21.02818">
        <ele>127.153845</ele>
        <time>2020-09-27T09:51:50.865Z</time>
      </trkpt>
      <trkpt lat="65.14964" lon="21.02808">
        <ele>126.818639</ele>
        <time>2020-09-27T09:51:52.878Z</time>
      </trkpt>
      <trkpt lat="65.14949" lon="21.02799">
        <ele>126.510357</ele>
        <time>2020-09-27T09:51:54.919Z</time>
      </trkpt>
      <trkpt lat="65.14934" lon="21.02795">
        <ele>126.22769</ele>
        <time>2020-09-27T09:51:56.888Z</time>
      </trkpt>
      <trkpt lat="65.14921" lon="21.02793">
        <ele>125.95836</ele>
        <time>2020-09-27T09:51:58.883Z</time>
      </trkpt>
      <trkpt lat="65.14908" lon="21.02791">
        <ele>125.704822</ele>
        <time>2020-09-27T09:52:00.866Z</time>
      </trkpt>
      <trkpt lat="65.14895" lon="21.02793">
        <ele>125.462638</ele>
        <time>2020-09-27T09:52:02.881Z</time>
      </trkpt>
      <trkpt lat="65.14883" lon="21.02797">
        <ele>125.225133</ele>
        <time>2020-09-27T09:52:04.901Z</time>
      </trkpt>
      <trkpt lat="65.14871" lon="21.02802">
        <ele>124.99169</ele>
        <time>2020-09-27T09:52:06.862Z</time>
      </trkpt>
      <trkpt lat="65.14859" lon="21.02807">
        <ele>124.74879</ele>
        <time>2020-09-27T09:52:08.882Z</time>
      </trkpt>
      <trkpt lat="65.14846" lon="21.0281">
        <ele>124.350838</ele>
        <time>2020-09-27T09:52:10.885Z</time>
      </trkpt>
      <trkpt lat="65.14832" lon="21.02814">
        <ele>123.787333</ele>
        <time>2020-09-27T09:52:12.868Z</time>
      </trkpt>
      <trkpt lat="65.14817" lon="21.0282">
        <ele>123.18428</ele>
        <time>2020-09-27T09:52:14.869Z</time>
      </trkpt>
      <trkpt lat="65.14802" lon="21.02824">
        <ele>122.540024</ele>
        <time>2020-09-27T09:52:16.870Z</time>
      </trkpt>
      <trkpt lat="65.14784" lon="21.02829">
        <ele>121.809711</ele>
        <time>2020-09-27T09:52:18.863Z</time>
      </trkpt>
      <trkpt lat="65.14774" lon="21.0283">
        <ele>121.413625</ele>
        <time>2020-09-27T09:52:19.876Z</time>
      </trkpt>
      <trkpt lat="65.14764" lon="21.0283">
        <ele>120.997681</ele>
        <time>2020-09-27T09:52:20.869Z</time>
      </trkpt>
      <trkpt lat="65.14753" lon="21.02829">
        <ele>120.561135</ele>
        <time>2020-09-27T09:52:21.870Z</time>
      </trkpt>
      <trkpt lat="65.14742" lon="21.02828">
        <ele>120.116002</ele>
        <time>2020-09-27T09:52:22.880Z</time>
      </trkpt>
      <trkpt lat="65.14731" lon="21.02826">
        <ele>119.670325</ele>
        <time>2020-09-27T09:52:23.870Z</time>
      </trkpt>
      <trkpt lat="65.14721" lon="21.02823">
        <ele>119.231364</ele>
        <time>2020-09-27T09:52:24.877Z</time>
      </trkpt>
      <trkpt lat="65.1471" lon="21.02819">
        <ele>118.785913</ele>
        <time>2020-09-27T09:52:25.865Z</time>
      </trkpt>
      <trkpt lat="65.14699" lon="21.02814">
        <ele>118.337887</ele>
        <time>2020-09-27T09:52:26.884Z</time>
      </trkpt>
      <trkpt lat="65.14688" lon="21.02809">
        <ele>117.894733</ele>
        <time>2020-09-27T09:52:27.893Z</time>
      </trkpt>
      <trkpt lat="65.14678" lon="21.02802">
        <ele>117.451428</ele>
        <time>2020-09-27T09:52:28.869Z</time>
      </trkpt>
      <trkpt lat="65.14668" lon="21.02795">
        <ele>117.233873</ele>
        <time>2020-09-27T09:52:29.863Z</time>
      </trkpt>
      <trkpt lat="65.14658" lon="21.02789">
        <ele>117.169787</ele>
        <time>2020-09-27T09:52:30.896Z</time>
      </trkpt>
      <trkpt lat="65.14648" lon="21.02783">
        <ele>117.10817</ele>
        <time>2020-09-27T09:52:31.897Z</time>
      </trkpt>
      <trkpt lat="65.14639" lon="21.02777">
        <ele>117.048951</ele>
        <time>2020-09-27T09:52:32.864Z</time>
      </trkpt>
      <trkpt lat="65.1463" lon="21.02772">
        <ele>116.991267</ele>
        <time>2020-09-27T09:52:33.888Z</time>
      </trkpt>
      <trkpt lat="65.14621" lon="21.02767">
        <ele>116.934915</ele>
        <time>2020-09-27T09:52:34.891Z</time>
      </trkpt>
      <trkpt lat="65.14605" lon="21.02756">
        <ele>116.833216</ele>
        <time>2020-09-27T09:52:36.863Z</time>
      </trkpt>
      <trkpt lat="65.14592" lon="21.02747">
        <ele>116.743961</ele>
        <time>2020-09-27T09:52:38.865Z</time>
      </trkpt>
      <trkpt lat="65.1458" lon="21.02739">
        <ele>116.668986</ele>
        <time>2020-09-27T09:52:40.878Z</time>
      </trkpt>
      <trkpt lat="65.1457" lon="21.02732">
        <ele>116.604633</ele>
        <time>2020-09-27T09:52:42.901Z</time>
      </trkpt>
      <trkpt lat="65.1456" lon="21.02726">
        <ele>116.54248</ele>
        <time>2020-09-27T09:52:44.868Z</time>
      </trkpt>
      <trkpt lat="65.14551" lon="21.0272">
        <ele>116.485055</ele>
        <time>2020-09-27T09:52:46.883Z</time>
      </trkpt>
      <trkpt lat="65.14539" lon="21.02711">
        <ele>116.402717</ele>
        <time>2020-09-27T09:52:49.947Z</time>
      </trkpt>
      <trkpt lat="65.14526" lon="21.02702">
        <ele>116.322832</ele>
        <time>2020-09-27T09:52:52.899Z</time>
      </trkpt>
      <trkpt lat="65.14514" lon="21.02694">
        <ele>116.243392</ele>
        <time>2020-09-27T09:52:55.877Z</time>
      </trkpt>
      <trkpt lat="65.14502" lon="21.02686">
        <ele>116.166098</ele>
        <time>2020-09-27T09:52:58.923Z</time>
      </trkpt>
      <trkpt lat="65.1449" lon="21.02678">
        <ele>116.19051</ele>
        <time>2020-09-27T09:53:01.880Z</time>
      </trkpt>
      <trkpt lat="65.14478" lon="21.0267">
        <ele>116.232349</ele>
        <time>2020-09-27T09:53:04.880Z</time>
      </trkpt>
      <trkpt lat="65.14464" lon="21.02662">
        <ele>116.276418</ele>
        <time>2020-09-27T09:53:07.867Z</time>
      </trkpt>
      <trkpt lat="65.14455" lon="21.02656">
        <ele>116.306764</ele>
        <time>2020-09-27T09:53:09.884Z</time>
      </trkpt>
      <trkpt lat="65.14446" lon="21.0265">
        <ele>116.337039</ele>
        <time>2020-09-27T09:53:11.926Z</time>
      </trkpt>
      <trkpt lat="65.14437" lon="21.02643">
        <ele>116.36839</ele>
        <time>2020-09-27T09:53:13.888Z</time>
      </trkpt>
      <trkpt lat="65.14428" lon="21.02637">
        <ele>116.400726</ele>
        <time>2020-09-27T09:53:15.873Z</time>
      </trkpt>
      <trkpt lat="65.14417" lon="21.0263">
        <ele>116.436591</ele>
        <time>2020-09-27T09:53:17.872Z</time>
      </trkpt>
      <trkpt lat="65.14406" lon="21.02623">
        <ele>116.473088</ele>
        <time>2020-09-27T09:53:19.864Z</time>
      </trkpt>
      <trkpt lat="65.14395" lon="21.02616">
        <ele>116.512339</ele>
        <time>2020-09-27T09:53:21.874Z</time>
      </trkpt>
      <trkpt lat="65.14382" lon="21.02608">
        <ele>116.554347</ele>
        <time>2020-09-27T09:53:23.918Z</time>
      </trkpt>
      <trkpt lat="65.14369" lon="21.02601">
        <ele>116.597736</ele>
        <time>2020-09-27T09:53:25.863Z</time>
      </trkpt>
      <trkpt lat="65.14355" lon="21.02592">
        <ele>116.646314</ele>
        <time>2020-09-27T09:53:27.879Z</time>
      </trkpt>
      <trkpt lat="65.1434" lon="21.02583">
        <ele>116.695446</ele>
        <time>2020-09-27T09:53:29.907Z</time>
      </trkpt>
      <trkpt lat="65.14325" lon="21.02573">
        <ele>116.668655</ele>
        <time>2020-09-27T09:53:31.872Z</time>
      </trkpt>
      <trkpt lat="65.1431" lon="21.02562">
        <ele>116.063294</ele>
        <time>2020-09-27T09:53:33.897Z</time>
      </trkpt>
      <trkpt lat="65.14293" lon="21.02552">
        <ele>115.386446</ele>
        <time>2020-09-27T09:53:35.884Z</time>
      </trkpt>
      <trkpt lat="65.14284" lon="21.02546">
        <ele>115.035421</ele>
        <time>2020-09-27T09:53:36.887Z</time>
      </trkpt>
      <trkpt lat="65.14275" lon="21.02541">
        <ele>114.687722</ele>
        <time>2020-09-27T09:53:37.886Z</time>
      </trkpt>
      <trkpt lat="65.14266" lon="21.02535">
        <ele>114.319874</ele>
        <time>2020-09-27T09:53:38.898Z</time>
      </trkpt>
      <trkpt lat="65.14256" lon="21.0253">
        <ele>113.952025</ele>
        <time>2020-09-27T09:53:39.863Z</time>
      </trkpt>
      <trkpt lat="65.14247" lon="21.02524">
        <ele>113.580861</ele>
        <time>2020-09-27T09:53:40.872Z</time>
      </trkpt>
      <trkpt lat="65.14238" lon="21.02518">
        <ele>113.208901</ele>
        <time>2020-09-27T09:53:41.883Z</time>
      </trkpt>
      <trkpt lat="65.14228" lon="21.02513">
        <ele>112.844351</ele>
        <time>2020-09-27T09:53:42.864Z</time>
      </trkpt>
      <trkpt lat="65.1422" lon="21.02506">
        <ele>112.496944</ele>
        <time>2020-09-27T09:53:43.859Z</time>
      </trkpt>
      <trkpt lat="65.14203" lon="21.02495">
        <ele>111.834704</ele>
        <time>2020-09-27T09:53:45.888Z</time>
      </trkpt>
      <trkpt lat="65.14188" lon="21.02484">
        <ele>111.220646</ele>
        <time>2020-09-27T09:53:47.874Z</time>
      </trkpt>
      <trkpt lat="65.14174" lon="21.02475">
        <ele>110.664322</ele>
        <time>2020-09-27T09:53:49.881Z</time>
      </trkpt>
      <trkpt lat="65.1416" lon="21.02466">
        <ele>110.113606</ele>
        <time>2020-09-27T09:53:51.864Z</time>
      </trkpt>
      <trkpt lat="65.14147" lon="21.02457">
        <ele>109.88424</ele>
        <time>2020-09-27T09:53:53.879Z</time>
      </trkpt>
      <trkpt lat="65.14134" lon="21.02449">
        <ele>109.948926</ele>
        <time>2020-09-27T09:53:55.919Z</time>
      </trkpt>
      <trkpt lat="65.14121" lon="21.02441">
        <ele>110.010757</ele>
        <time>2020-09-27T09:53:57.882Z</time>
      </trkpt>
      <trkpt lat="65.14109" lon="21.02434">
        <ele>110.070094</ele>
        <time>2020-09-27T09:53:59.883Z</time>
      </trkpt>
      <trkpt lat="65.14098" lon="21.02427">
        <ele>110.126674</ele>
        <time>2020-09-27T09:54:01.905Z</time>
      </trkpt>
      <trkpt lat="65.14086" lon="21.0242">
        <ele>110.184456</ele>
        <time>2020-09-27T09:54:03.864Z</time>
      </trkpt>
      <trkpt lat="65.14075" lon="21.02413">
        <ele>110.243225</ele>
        <time>2020-09-27T09:54:05.875Z</time>
      </trkpt>
      <trkpt lat="65.14064" lon="21.02406">
        <ele>110.297831</ele>
        <time>2020-09-27T09:54:07.881Z</time>
      </trkpt>
      <trkpt lat="65.14054" lon="21.024">
        <ele>110.348956</ele>
        <time>2020-09-27T09:54:09.890Z</time>
      </trkpt>
      <trkpt lat="65.14044" lon="21.02394">
        <ele>110.39686</ele>
        <time>2020-09-27T09:54:11.871Z</time>
      </trkpt>
      <trkpt lat="65.14034" lon="21.02389">
        <ele>110.445042</ele>
        <time>2020-09-27T09:54:13.880Z</time>
      </trkpt>
      <trkpt lat="65.14025" lon="21.02383">
        <ele>110.490503</ele>
        <time>2020-09-27T09:54:15.868Z</time>
      </trkpt>
      <trkpt lat="65.14016" lon="21.02378">
        <ele>110.53384</ele>
        <time>2020-09-27T09:54:17.908Z</time>
      </trkpt>
      <trkpt lat="65.14005" lon="21.02369">
        <ele>110.593772</ele>
        <time>2020-09-27T09:54:20.866Z</time>
      </trkpt>
      <trkpt lat="65.13994" lon="21.02361">
        <ele>110.649694</ele>
        <time>2020-09-27T09:54:23.891Z</time>
      </trkpt>
      <trkpt lat="65.13982" lon="21.02355">
        <ele>110.707851</ele>
        <time>2020-09-27T09:54:26.860Z</time>
      </trkpt>
      <trkpt lat="65.13971" lon="21.02348">
        <ele>110.858369</ele>
        <time>2020-09-27T09:54:29.883Z</time>
      </trkpt>
      <trkpt lat="65.1396" lon="21.0234">
        <ele>111.037579</ele>
        <time>2020-09-27T09:54:32.878Z</time>
      </trkpt>
      <trkpt lat="65.13949" lon="21.02332">
        <ele>111.214757</ele>
        <time>2020-09-27T09:54:35.877Z</time>
      </trkpt>
      <trkpt lat="65.13937" lon="21.02325">
        <ele>111.406379</ele>
        <time>2020-09-27T09:54:38.875Z</time>
      </trkpt>
      <trkpt lat="65.13924" lon="21.02318">
        <ele>111.608527</ele>
        <time>2020-09-27T09:54:41.872Z</time>
      </trkpt>
      <trkpt lat="65.13915" lon="21.02312">
        <ele>111.749529</ele>
        <time>2020-09-27T09:54:43.876Z</time>
      </trkpt>
      <trkpt lat="65.13906" lon="21.02305">
        <ele>111.896833</ele>
        <time>2020-09-27T09:54:45.863Z</time>
      </trkpt>
      <trkpt lat="65.13896" lon="21.02299">
        <ele>112.052521</ele>
        <time>2020-09-27T09:54:47.867Z</time>
      </trkpt>
      <trkpt lat="65.13887" lon="21.02292">
        <ele>112.208736</ele>
        <time>2020-09-27T09:54:49.874Z</time>
      </trkpt>
      <trkpt lat="65.13877" lon="21.02286">
        <ele>112.36692</ele>
        <time>2020-09-27T09:54:51.869Z</time>
      </trkpt>
      <trkpt lat="65.13867" lon="21.0228">
        <ele>112.524447</ele>
        <time>2020-09-27T09:54:53.873Z</time>
      </trkpt>
      <trkpt lat="65.13857" lon="21.02273">
        <ele>112.685132</ele>
        <time>2020-09-27T09:54:55.860Z</time>
      </trkpt>
      <trkpt lat="65.13847" lon="21.02267">
        <ele>112.847822</ele>
        <time>2020-09-27T09:54:57.866Z</time>
      </trkpt>
      <trkpt lat="65.13837" lon="21.02261">
        <ele>113.009168</ele>
        <time>2020-09-27T09:54:59.881Z</time>
      </trkpt>
      <trkpt lat="65.13826" lon="21.02254">
        <ele>113.17801</ele>
        <time>2020-09-27T09:55:01.876Z</time>
      </trkpt>
      <trkpt lat="65.13815" lon="21.02247">
        <ele>113.357648</ele>
        <time>2020-09-27T09:55:03.868Z</time>
      </trkpt>
      <trkpt lat="65.13803" lon="21.02238">
        <ele>113.48239</ele>
        <time>2020-09-27T09:55:05.902Z</time>
      </trkpt>
      <trkpt lat="65.13791" lon="21.02229">
        <ele>113.373412</ele>
        <time>2020-09-27T09:55:07.898Z</time>
      </trkpt>
      <trkpt lat="65.13779" lon="21.02218">
        <ele>113.263716</ele>
        <time>2020-09-27T09:55:09.883Z</time>
      </trkpt>
      <trkpt lat="65.13767" lon="21.02205">
        <ele>113.154279</ele>
        <time>2020-09-27T09:55:11.870Z</time>
      </trkpt>
      <trkpt lat="65.13755" lon="21.0219">
        <ele>113.042443</ele>
        <time>2020-09-27T09:55:13.886Z</time>
      </trkpt>
      <trkpt lat="65.13744" lon="21.02173">
        <ele>112.930924</ele>
        <time>2020-09-27T09:55:15.881Z</time>
      </trkpt>
      <trkpt lat="65.13734" lon="21.02155">
        <ele>112.827899</ele>
        <time>2020-09-27T09:55:17.861Z</time>
      </trkpt>
      <trkpt lat="65.13725" lon="21.02139">
        <ele>112.731901</ele>
        <time>2020-09-27T09:55:19.887Z</time>
      </trkpt>
      <trkpt lat="65.13718" lon="21.02123">
        <ele>112.646895</ele>
        <time>2020-09-27T09:55:21.947Z</time>
      </trkpt>
      <trkpt lat="65.13711" lon="21.02108">
        <ele>112.568598</ele>
        <time>2020-09-27T09:55:23.875Z</time>
      </trkpt>
      <trkpt lat="65.137" lon="21.02089">
        <ele>112.45634</ele>
        <time>2020-09-27T09:55:26.867Z</time>
      </trkpt>
      <trkpt lat="65.1369" lon="21.02069">
        <ele>112.348696</ele>
        <time>2020-09-27T09:55:29.886Z</time>
      </trkpt>
      <trkpt lat="65.13681" lon="21.02051">
        <ele>112.245464</ele>
        <time>2020-09-27T09:55:32.902Z</time>
      </trkpt>
      <trkpt lat="65.13671" lon="21.02033">
        <ele>112.140454</ele>
        <time>2020-09-27T09:55:35.873Z</time>
      </trkpt>
      <trkpt lat="65.13664" lon="21.02019">
        <ele>112.062736</ele>
        <time>2020-09-27T09:55:37.867Z</time>
      </trkpt>
      <trkpt lat="65.13657" lon="21.02003">
        <ele>111.953348</ele>
        <time>2020-09-27T09:55:39.990Z</time>
      </trkpt>
      <trkpt lat="65.13649" lon="21.01985">
        <ele>111.659067</ele>
        <time>2020-09-27T09:55:41.868Z</time>
      </trkpt>
      <trkpt lat="65.13641" lon="21.01967">
        <ele>111.355017</ele>
        <time>2020-09-27T09:55:43.863Z</time>
      </trkpt>
      <trkpt lat="65.13632" lon="21.01949">
        <ele>111.030361</ele>
        <time>2020-09-27T09:55:45.872Z</time>
      </trkpt>
      <trkpt lat="65.13623" lon="21.01929">
        <ele>110.696581</ele>
        <time>2020-09-27T09:55:47.916Z</time>
      </trkpt>
      <trkpt lat="65.13614" lon="21.01908">
        <ele>110.337907</ele>
        <time>2020-09-27T09:55:49.886Z</time>
      </trkpt>
      <trkpt lat="65.13604" lon="21.01886">
        <ele>109.966467</ele>
        <time>2020-09-27T09:55:51.862Z</time>
      </trkpt>
      <trkpt lat="65.13594" lon="21.01862">
        <ele>109.58015</ele>
        <time>2020-09-27T09:55:53.884Z</time>
      </trkpt>
      <trkpt lat="65.13584" lon="21.01838">
        <ele>109.178734</ele>
        <time>2020-09-27T09:55:55.889Z</time>
      </trkpt>
      <trkpt lat="65.13573" lon="21.01813">
        <ele>108.770328</ele>
        <time>2020-09-27T09:55:57.893Z</time>
      </trkpt>
      <trkpt lat="65.13563" lon="21.01789">
        <ele>108.36766</ele>
        <time>2020-09-27T09:55:59.901Z</time>
      </trkpt>
      <trkpt lat="65.13553" lon="21.01765">
        <ele>107.971684</ele>
        <time>2020-09-27T09:56:01.933Z</time>
      </trkpt>
      <trkpt lat="65.13543" lon="21.0174">
        <ele>107.569897</ele>
        <time>2020-09-27T09:56:03.911Z</time>
      </trkpt>
      <trkpt lat="65.13533" lon="21.01717">
        <ele>107.191886</ele>
        <time>2020-09-27T09:56:05.878Z</time>
      </trkpt>
      <trkpt lat="65.13523" lon="21.01693">
        <ele>106.921862</ele>
        <time>2020-09-27T09:56:07.898Z</time>
      </trkpt>
      <trkpt lat="65.13514" lon="21.01671">
        <ele>106.751659</ele>
        <time>2020-09-27T09:56:09.883Z</time>
      </trkpt>
      <trkpt lat="65.13505" lon="21.01649">
        <ele>106.585846</ele>
        <time>2020-09-27T09:56:11.869Z</time>
      </trkpt>
      <trkpt lat="65.13496" lon="21.01628">
        <ele>106.419239</ele>
        <time>2020-09-27T09:56:13.876Z</time>
      </trkpt>
      <trkpt lat="65.13487" lon="21.01607">
        <ele>106.257678</ele>
        <time>2020-09-27T09:56:15.889Z</time>
      </trkpt>
      <trkpt lat="65.13478" lon="21.01587">
        <ele>106.102509</ele>
        <time>2020-09-27T09:56:17.868Z</time>
      </trkpt>
      <trkpt lat="65.1347" lon="21.01568">
        <ele>105.955699</ele>
        <time>2020-09-27T09:56:19.899Z</time>
      </trkpt>
      <trkpt lat="65.13463" lon="21.0155">
        <ele>105.816614</ele>
        <time>2020-09-27T09:56:21.903Z</time>
      </trkpt>
      <trkpt lat="65.13455" lon="21.01534">
        <ele>105.681874</ele>
        <time>2020-09-27T09:56:23.869Z</time>
      </trkpt>
      <trkpt lat="65.13448" lon="21.01518">
        <ele>105.557391</ele>
        <time>2020-09-27T09:56:25.873Z</time>
      </trkpt>
      <trkpt lat="65.13439" lon="21.01495">
        <ele>105.388816</ele>
        <time>2020-09-27T09:56:28.868Z</time>
      </trkpt>
      <trkpt lat="65.1343" lon="21.01477">
        <ele>105.236844</ele>
        <time>2020-09-27T09:56:31.881Z</time>
      </trkpt>
      <trkpt lat="65.13423" lon="21.01461">
        <ele>105.109928</ele>
        <time>2020-09-27T09:56:34.872Z</time>
      </trkpt>
      <trkpt lat="65.13414" lon="21.01446">
        <ele>104.973277</ele>
        <time>2020-09-27T09:56:37.881Z</time>
      </trkpt>
      <trkpt lat="65.13404" lon="21.01439">
        <ele>104.835345</ele>
        <time>2020-09-27T09:56:40.917Z</time>
      </trkpt>
      <trkpt lat="65.13394" lon="21.01442">
        <ele>104.704</ele>
        <time>2020-09-27T09:56:43.870Z</time>
      </trkpt>
      <trkpt lat="65.1339" lon="21.01467">
        <ele>104.626371</ele>
        <time>2020-09-27T09:56:47.886Z</time>
      </trkpt>
      <trkpt lat="65.13395" lon="21.01487">
        <ele>104.561562</ele>
        <time>2020-09-27T09:56:51.908Z</time>
      </trkpt>
      <trkpt lat="65.13403" lon="21.01502">
        <ele>104.496894</ele>
        <time>2020-09-27T09:56:55.898Z</time>
      </trkpt>
      <trkpt lat="65.13411" lon="21.01513">
        <ele>104.437042</ele>
        <time>2020-09-27T09:57:00.877Z</time>
      </trkpt>
      <trkpt lat="65.13419" lon="21.01526">
        <ele>104.375338</ele>
        <time>2020-09-27T09:57:27.880Z</time>
      </trkpt>
      <trkpt lat="65.13394" lon="21.01471">
        <ele>104.1559</ele>
        <time>2020-09-27T10:25:38.377Z</time>
      </trkpt>
      <trkpt lat="65.134" lon="21.01429">
        <ele>104.033623</ele>
        <time>2020-09-27T10:25:45.386Z</time>
      </trkpt>
      <trkpt lat="65.13396" lon="21.01402">
        <ele>103.958989</ele>
        <time>2020-09-27T10:25:49.374Z</time>
      </trkpt>
      <trkpt lat="65.13388" lon="21.01381">
        <ele>103.882021</ele>
        <time>2020-09-27T10:25:53.359Z</time>
      </trkpt>
      <trkpt lat="65.13381" lon="21.01363">
        <ele>103.813995</ele>
        <time>2020-09-27T10:25:57.359Z</time>
      </trkpt>
      <trkpt lat="65.13375" lon="21.01347">
        <ele>103.75509</ele>
        <time>2020-09-27T10:26:00.376Z</time>
      </trkpt>
      <trkpt lat="65.13366" lon="21.01328">
        <ele>103.679338</ele>
        <time>2020-09-27T10:26:04.371Z</time>
      </trkpt>
      <trkpt lat="65.1336" lon="21.01313">
        <ele>103.620721</ele>
        <time>2020-09-27T10:26:07.406Z</time>
      </trkpt>
      <trkpt lat="65.13353" lon="21.01298">
        <ele>103.559173</ele>
        <time>2020-09-27T10:26:10.364Z</time>
      </trkpt>
      <trkpt lat="65.13345" lon="21.01282">
        <ele>103.578508</ele>
        <time>2020-09-27T10:26:13.390Z</time>
      </trkpt>
      <trkpt lat="65.13336" lon="21.0127">
        <ele>103.641214</ele>
        <time>2020-09-27T10:26:16.415Z</time>
      </trkpt>
      <trkpt lat="65.13326" lon="21.01259">
        <ele>103.70378</ele>
        <time>2020-09-27T10:26:19.379Z</time>
      </trkpt>
      <trkpt lat="65.13317" lon="21.01248">
        <ele>103.767732</ele>
        <time>2020-09-27T10:26:22.367Z</time>
      </trkpt>
      <trkpt lat="65.13305" lon="21.01238">
        <ele>103.84014</ele>
        <time>2020-09-27T10:26:25.409Z</time>
      </trkpt>
      <trkpt lat="65.13294" lon="21.01232">
        <ele>103.910033</ele>
        <time>2020-09-27T10:26:28.375Z</time>
      </trkpt>
      <trkpt lat="65.13282" lon="21.01225">
        <ele>103.980383</ele>
        <time>2020-09-27T10:26:31.382Z</time>
      </trkpt>
      <trkpt lat="65.13272" lon="21.01218">
        <ele>104.046799</ele>
        <time>2020-09-27T10:26:34.387Z</time>
      </trkpt>
      <trkpt lat="65.1326" lon="21.01212">
        <ele>104.11779</ele>
        <time>2020-09-27T10:26:37.368Z</time>
      </trkpt>
      <trkpt lat="65.13249" lon="21.01208">
        <ele>104.18487</ele>
        <time>2020-09-27T10:26:40.383Z</time>
      </trkpt>
      <trkpt lat="65.13238" lon="21.01209">
        <ele>104.253243</ele>
        <time>2020-09-27T10:26:43.369Z</time>
      </trkpt>
      <trkpt lat="65.13225" lon="21.01214">
        <ele>104.3295</ele>
        <time>2020-09-27T10:26:46.363Z</time>
      </trkpt>
      <trkpt lat="65.13213" lon="21.01221">
        <ele>104.405117</ele>
        <time>2020-09-27T10:26:49.371Z</time>
      </trkpt>
      <trkpt lat="65.13201" lon="21.01231">
        <ele>104.481144</ele>
        <time>2020-09-27T10:26:52.375Z</time>
      </trkpt>
      <trkpt lat="65.13189" lon="21.01238">
        <ele>104.556762</ele>
        <time>2020-09-27T10:26:55.359Z</time>
      </trkpt>
      <trkpt lat="65.13176" lon="21.01245">
        <ele>104.633253</ele>
        <time>2020-09-27T10:26:58.378Z</time>
      </trkpt>
      <trkpt lat="65.13163" lon="21.01253">
        <ele>104.705005</ele>
        <time>2020-09-27T10:27:01.367Z</time>
      </trkpt>
      <trkpt lat="65.1315" lon="21.01261">
        <ele>104.779619</ele>
        <time>2020-09-27T10:27:04.387Z</time>
      </trkpt>
      <trkpt lat="65.13142" lon="21.01267">
        <ele>104.830196</ele>
        <time>2020-09-27T10:27:06.387Z</time>
      </trkpt>
      <trkpt lat="65.13132" lon="21.01272">
        <ele>104.882865</ele>
        <time>2020-09-27T10:27:08.375Z</time>
      </trkpt>
      <trkpt lat="65.13124" lon="21.01278">
        <ele>104.934163</ele>
        <time>2020-09-27T10:27:10.368Z</time>
      </trkpt>
      <trkpt lat="65.13114" lon="21.01284">
        <ele>104.988023</ele>
        <time>2020-09-27T10:27:12.377Z</time>
      </trkpt>
      <trkpt lat="65.13105" lon="21.01288">
        <ele>105.038099</ele>
        <time>2020-09-27T10:27:14.371Z</time>
      </trkpt>
      <trkpt lat="65.13094" lon="21.01295">
        <ele>105.104808</ele>
        <time>2020-09-27T10:27:17.383Z</time>
      </trkpt>
      <trkpt lat="65.13083" lon="21.01302">
        <ele>105.166809</ele>
        <time>2020-09-27T10:27:20.380Z</time>
      </trkpt>
      <trkpt lat="65.13074" lon="21.01308">
        <ele>105.219258</ele>
        <time>2020-09-27T10:27:23.371Z</time>
      </trkpt>
      <trkpt lat="65.13064" lon="21.01313">
        <ele>105.273331</ele>
        <time>2020-09-27T10:27:26.407Z</time>
      </trkpt>
      <trkpt lat="65.13055" lon="21.01318">
        <ele>105.325348</ele>
        <time>2020-09-27T10:27:29.366Z</time>
      </trkpt>
      <trkpt lat="65.13044" lon="21.01325">
        <ele>105.390485</ele>
        <time>2020-09-27T10:27:33.358Z</time>
      </trkpt>
      <trkpt lat="65.13032" lon="21.01333">
        <ele>105.456631</ele>
        <time>2020-09-27T10:27:37.367Z</time>
      </trkpt>
      <trkpt lat="65.13023" lon="21.01339">
        <ele>105.508188</ele>
        <time>2020-09-27T10:27:40.406Z</time>
      </trkpt>
      <trkpt lat="65.13014" lon="21.01345">
        <ele>105.560745</ele>
        <time>2020-09-27T10:27:43.364Z</time>
      </trkpt>
      <trkpt lat="65.13005" lon="21.01351">
        <ele>105.617691</ele>
        <time>2020-09-27T10:27:46.400Z</time>
      </trkpt>
      <trkpt lat="65.12995" lon="21.01357">
        <ele>105.816523</ele>
        <time>2020-09-27T10:27:49.367Z</time>
      </trkpt>
      <trkpt lat="65.12985" lon="21.01363">
        <ele>106.018832</ele>
        <time>2020-09-27T10:27:52.382Z</time>
      </trkpt>
      <trkpt lat="65.12974" lon="21.01369">
        <ele>106.222405</ele>
        <time>2020-09-27T10:27:55.390Z</time>
      </trkpt>
      <trkpt lat="65.12964" lon="21.01375">
        <ele>106.424516</ele>
        <time>2020-09-27T10:27:58.387Z</time>
      </trkpt>
      <trkpt lat="65.12953" lon="21.01382">
        <ele>106.629274</ele>
        <time>2020-09-27T10:28:01.375Z</time>
      </trkpt>
      <trkpt lat="65.12943" lon="21.01388">
        <ele>106.837311</ele>
        <time>2020-09-27T10:28:04.418Z</time>
      </trkpt>
      <trkpt lat="65.12932" lon="21.01394">
        <ele>107.03947</ele>
        <time>2020-09-27T10:28:07.375Z</time>
      </trkpt>
      <trkpt lat="65.12922" lon="21.01399">
        <ele>107.233855</ele>
        <time>2020-09-27T10:28:10.366Z</time>
      </trkpt>
      <trkpt lat="65.12912" lon="21.01405">
        <ele>107.431487</ele>
        <time>2020-09-27T10:28:13.368Z</time>
      </trkpt>
      <trkpt lat="65.12902" lon="21.01412">
        <ele>107.645849</ele>
        <time>2020-09-27T10:28:16.366Z</time>
      </trkpt>
      <trkpt lat="65.12893" lon="21.01417">
        <ele>107.817417</ele>
        <time>2020-09-27T10:28:18.354Z</time>
      </trkpt>
      <trkpt lat="65.12884" lon="21.01422">
        <ele>107.992142</ele>
        <time>2020-09-27T10:28:20.396Z</time>
      </trkpt>
      <trkpt lat="65.12874" lon="21.01428">
        <ele>108.175911</ele>
        <time>2020-09-27T10:28:22.412Z</time>
      </trkpt>
      <trkpt lat="65.12865" lon="21.01433">
        <ele>108.358602</ele>
        <time>2020-09-27T10:28:24.375Z</time>
      </trkpt>
      <trkpt lat="65.12856" lon="21.0144">
        <ele>108.548698</ele>
        <time>2020-09-27T10:28:26.384Z</time>
      </trkpt>
      <trkpt lat="65.12846" lon="21.01446">
        <ele>108.740622</ele>
        <time>2020-09-27T10:28:28.370Z</time>
      </trkpt>
      <trkpt lat="65.12836" lon="21.01452">
        <ele>108.927398</ele>
        <time>2020-09-27T10:28:30.411Z</time>
      </trkpt>
      <trkpt lat="65.12827" lon="21.01459">
        <ele>108.977027</ele>
        <time>2020-09-27T10:28:32.358Z</time>
      </trkpt>
      <trkpt lat="65.12817" lon="21.01466">
        <ele>108.848031</ele>
        <time>2020-09-27T10:28:34.397Z</time>
      </trkpt>
      <trkpt lat="65.12807" lon="21.01472">
        <ele>108.716476</ele>
        <time>2020-09-27T10:28:36.366Z</time>
      </trkpt>
      <trkpt lat="65.12797" lon="21.01478">
        <ele>108.591117</ele>
        <time>2020-09-27T10:28:38.383Z</time>
      </trkpt>
      <trkpt lat="65.12788" lon="21.01483">
        <ele>108.471375</ele>
        <time>2020-09-27T10:28:40.352Z</time>
      </trkpt>
      <trkpt lat="65.12778" lon="21.0149">
        <ele>108.34675</ele>
        <time>2020-09-27T10:28:42.387Z</time>
      </trkpt>
      <trkpt lat="65.12768" lon="21.01496">
        <ele>108.222349</ele>
        <time>2020-09-27T10:28:44.375Z</time>
      </trkpt>
      <trkpt lat="65.12759" lon="21.01502">
        <ele>108.098208</ele>
        <time>2020-09-27T10:28:46.402Z</time>
      </trkpt>
      <trkpt lat="65.12749" lon="21.01507">
        <ele>107.977125</ele>
        <time>2020-09-27T10:28:48.372Z</time>
      </trkpt>
      <trkpt lat="65.1274" lon="21.01513">
        <ele>107.856364</ele>
        <time>2020-09-27T10:28:50.377Z</time>
      </trkpt>
      <trkpt lat="65.12731" lon="21.01518">
        <ele>107.738299</ele>
        <time>2020-09-27T10:28:52.374Z</time>
      </trkpt>
      <trkpt lat="65.12722" lon="21.01524">
        <ele>107.621447</ele>
        <time>2020-09-27T10:28:54.363Z</time>
      </trkpt>
      <trkpt lat="65.12713" lon="21.0153">
        <ele>107.499338</ele>
        <time>2020-09-27T10:28:56.392Z</time>
      </trkpt>
      <trkpt lat="65.12703" lon="21.01535">
        <ele>107.375926</ele>
        <time>2020-09-27T10:28:58.365Z</time>
      </trkpt>
      <trkpt lat="65.12694" lon="21.01541">
        <ele>107.258656</ele>
        <time>2020-09-27T10:29:00.383Z</time>
      </trkpt>
      <trkpt lat="65.12684" lon="21.01547">
        <ele>107.134255</ele>
        <time>2020-09-27T10:29:02.398Z</time>
      </trkpt>
      <trkpt lat="65.12675" lon="21.01553">
        <ele>107.0112</ele>
        <time>2020-09-27T10:29:04.386Z</time>
      </trkpt>
      <trkpt lat="65.12666" lon="21.01559">
        <ele>106.893135</ele>
        <time>2020-09-27T10:29:06.369Z</time>
      </trkpt>
      <trkpt lat="65.12656" lon="21.01564">
        <ele>106.775492</ele>
        <time>2020-09-27T10:29:08.410Z</time>
      </trkpt>
      <trkpt lat="65.12647" lon="21.0157">
        <ele>106.730463</ele>
        <time>2020-09-27T10:29:10.358Z</time>
      </trkpt>
      <trkpt lat="65.12637" lon="21.01576">
        <ele>106.685339</ele>
        <time>2020-09-27T10:29:12.383Z</time>
      </trkpt>
      <trkpt lat="65.12628" lon="21.01582">
        <ele>106.640262</ele>
        <time>2020-09-27T10:29:14.385Z</time>
      </trkpt>
      <trkpt lat="65.12618" lon="21.01588">
        <ele>106.597042</ele>
        <time>2020-09-27T10:29:16.370Z</time>
      </trkpt>
      <trkpt lat="65.12609" lon="21.01593">
        <ele>106.553917</ele>
        <time>2020-09-27T10:29:18.435Z</time>
      </trkpt>
      <trkpt lat="65.126" lon="21.01598">
        <ele>106.510529</ele>
        <time>2020-09-27T10:29:20.388Z</time>
      </trkpt>
      <trkpt lat="65.1259" lon="21.01604">
        <ele>106.466168</ele>
        <time>2020-09-27T10:29:22.361Z</time>
      </trkpt>
      <trkpt lat="65.12581" lon="21.01609">
        <ele>106.423179</ele>
        <time>2020-09-27T10:29:24.364Z</time>
      </trkpt>
      <trkpt lat="65.12572" lon="21.01614">
        <ele>106.381248</ele>
        <time>2020-09-27T10:29:26.376Z</time>
      </trkpt>
      <trkpt lat="65.12564" lon="21.01619">
        <ele>106.34042</ele>
        <time>2020-09-27T10:29:28.392Z</time>
      </trkpt>
      <trkpt lat="65.12551" lon="21.01626">
        <ele>106.280977</ele>
        <time>2020-09-27T10:29:31.378Z</time>
      </trkpt>
      <trkpt lat="65.12538" lon="21.01635">
        <ele>106.221383</ele>
        <time>2020-09-27T10:29:34.378Z</time>
      </trkpt>
      <trkpt lat="65.12526" lon="21.01644">
        <ele>106.163535</ele>
        <time>2020-09-27T10:29:37.385Z</time>
      </trkpt>
      <trkpt lat="65.12515" lon="21.01651">
        <ele>106.109473</ele>
        <time>2020-09-27T10:29:40.405Z</time>
      </trkpt>
      <trkpt lat="65.12503" lon="21.01659">
        <ele>106.054566</ele>
        <time>2020-09-27T10:29:43.374Z</time>
      </trkpt>
      <trkpt lat="65.12492" lon="21.01666">
        <ele>106.00192</ele>
        <time>2020-09-27T10:29:46.368Z</time>
      </trkpt>
      <trkpt lat="65.12482" lon="21.01672">
        <ele>105.984181</ele>
        <time>2020-09-27T10:29:49.378Z</time>
      </trkpt>
      <trkpt lat="65.12472" lon="21.01678">
        <ele>106.159781</ele>
        <time>2020-09-27T10:29:52.416Z</time>
      </trkpt>
      <trkpt lat="65.12462" lon="21.01684">
        <ele>106.3373</ele>
        <time>2020-09-27T10:29:55.376Z</time>
      </trkpt>
      <trkpt lat="65.12453" lon="21.01692">
        <ele>106.521017</ele>
        <time>2020-09-27T10:29:58.409Z</time>
      </trkpt>
      <trkpt lat="65.12443" lon="21.01699">
        <ele>106.704699</ele>
        <time>2020-09-27T10:30:01.362Z</time>
      </trkpt>
      <trkpt lat="65.12432" lon="21.01705">
        <ele>106.89506</ele>
        <time>2020-09-27T10:30:04.375Z</time>
      </trkpt>
      <trkpt lat="65.12422" lon="21.01713">
        <ele>107.084797</ele>
        <time>2020-09-27T10:30:07.395Z</time>
      </trkpt>
      <trkpt lat="65.12413" lon="21.01721">
        <ele>107.267526</ele>
        <time>2020-09-27T10:30:10.369Z</time>
      </trkpt>
      <trkpt lat="65.12403" lon="21.0173">
        <ele>107.456135</ele>
        <time>2020-09-27T10:30:13.396Z</time>
      </trkpt>
      <trkpt lat="65.12393" lon="21.01738">
        <ele>107.646157</ele>
        <time>2020-09-27T10:30:16.373Z</time>
      </trkpt>
      <trkpt lat="65.12382" lon="21.01747">
        <ele>107.843915</ele>
        <time>2020-09-27T10:30:19.366Z</time>
      </trkpt>
      <trkpt lat="65.12372" lon="21.01757">
        <ele>108.036931</ele>
        <time>2020-09-27T10:30:22.412Z</time>
      </trkpt>
      <trkpt lat="65.12362" lon="21.01768">
        <ele>108.241088</ele>
        <time>2020-09-27T10:30:25.385Z</time>
      </trkpt>
      <trkpt lat="65.12351" lon="21.01779">
        <ele>108.449307</ele>
        <time>2020-09-27T10:30:28.375Z</time>
      </trkpt>
      <trkpt lat="65.12339" lon="21.0179">
        <ele>108.673585</ele>
        <time>2020-09-27T10:30:31.372Z</time>
      </trkpt>
      <trkpt lat="65.12327" lon="21.01802">
        <ele>108.90806</ele>
        <time>2020-09-27T10:30:34.385Z</time>
      </trkpt>
      <trkpt lat="65.12319" lon="21.0181">
        <ele>109.069819</ele>
        <time>2020-09-27T10:30:36.367Z</time>
      </trkpt>
      <trkpt lat="65.1231" lon="21.01818">
        <ele>109.24422</ele>
        <time>2020-09-27T10:30:38.375Z</time>
      </trkpt>
      <trkpt lat="65.12302" lon="21.01827">
        <ele>109.441096</ele>
        <time>2020-09-27T10:30:40.359Z</time>
      </trkpt>
      <trkpt lat="65.12293" lon="21.01836">
        <ele>109.634164</ele>
        <time>2020-09-27T10:30:42.371Z</time>
      </trkpt>
      <trkpt lat="65.12284" lon="21.01844">
        <ele>109.831025</ele>
        <time>2020-09-27T10:30:44.386Z</time>
      </trkpt>
      <trkpt lat="65.12275" lon="21.01852">
        <ele>110.025</ele>
        <time>2020-09-27T10:30:46.368Z</time>
      </trkpt>
      <trkpt lat="65.12267" lon="21.0186">
        <ele>110.218974</ele>
        <time>2020-09-27T10:30:48.371Z</time>
      </trkpt>
      <trkpt lat="65.12258" lon="21.01869">
        <ele>110.412385</ele>
        <time>2020-09-27T10:30:50.395Z</time>
      </trkpt>
      <trkpt lat="65.12249" lon="21.01878">
        <ele>110.609081</ele>
        <time>2020-09-27T10:30:52.409Z</time>
      </trkpt>
      <trkpt lat="65.12241" lon="21.01887">
        <ele>110.801297</ele>
        <time>2020-09-27T10:30:54.368Z</time>
      </trkpt>
      <trkpt lat="65.12232" lon="21.01897">
        <ele>110.993867</ele>
        <time>2020-09-27T10:30:56.398Z</time>
      </trkpt>
      <trkpt lat="65.12224" lon="21.01906">
        <ele>111.187972</ele>
        <time>2020-09-27T10:30:58.390Z</time>
      </trkpt>
      <trkpt lat="65.12215" lon="21.01915">
        <ele>111.382367</ele>
        <time>2020-09-27T10:31:00.398Z</time>
      </trkpt>
      <trkpt lat="65.12207" lon="21.01924">
        <ele>111.571642</ele>
        <time>2020-09-27T10:31:02.375Z</time>
      </trkpt>
      <trkpt lat="65.12199" lon="21.01933">
        <ele>111.759377</ele>
        <time>2020-09-27T10:31:04.372Z</time>
      </trkpt>
      <trkpt lat="65.12187" lon="21.01944">
        <ele>112.020018</ele>
        <time>2020-09-27T10:31:07.381Z</time>
      </trkpt>
      <trkpt lat="65.12178" lon="21.01952">
        <ele>112.208547</ele>
        <time>2020-09-27T10:31:09.379Z</time>
      </trkpt>
      <trkpt lat="65.1217" lon="21.01961">
        <ele>112.399717</ele>
        <time>2020-09-27T10:31:11.376Z</time>
      </trkpt>
      <trkpt lat="65.12161" lon="21.01969">
        <ele>112.593423</ele>
        <time>2020-09-27T10:31:13.369Z</time>
      </trkpt>
      <trkpt lat="65.12152" lon="21.01976">
        <ele>112.788774</ele>
        <time>2020-09-27T10:31:15.376Z</time>
      </trkpt>
      <trkpt lat="65.1214" lon="21.01988">
        <ele>112.841939</ele>
        <time>2020-09-27T10:31:18.377Z</time>
      </trkpt>
      <trkpt lat="65.12127" lon="21.02">
        <ele>112.77438</ele>
        <time>2020-09-27T10:31:21.377Z</time>
      </trkpt>
      <trkpt lat="65.12118" lon="21.02008">
        <ele>112.727297</ele>
        <time>2020-09-27T10:31:23.410Z</time>
      </trkpt>
      <trkpt lat="65.1211" lon="21.02016">
        <ele>112.681287</ele>
        <time>2020-09-27T10:31:25.372Z</time>
      </trkpt>
      <trkpt lat="65.12101" lon="21.02024">
        <ele>112.634667</ele>
        <time>2020-09-27T10:31:27.367Z</time>
      </trkpt>
      <trkpt lat="65.12092" lon="21.02032">
        <ele>112.587121</ele>
        <time>2020-09-27T10:31:29.377Z</time>
      </trkpt>
      <trkpt lat="65.12083" lon="21.02041">
        <ele>112.540954</ele>
        <time>2020-09-27T10:31:31.378Z</time>
      </trkpt>
      <trkpt lat="65.12075" lon="21.0205">
        <ele>112.495447</ele>
        <time>2020-09-27T10:31:33.369Z</time>
      </trkpt>
      <trkpt lat="65.12066" lon="21.02059">
        <ele>112.449681</ele>
        <time>2020-09-27T10:31:35.403Z</time>
      </trkpt>
      <trkpt lat="65.12058" lon="21.02069">
        <ele>112.402578</ele>
        <time>2020-09-27T10:31:37.393Z</time>
      </trkpt>
      <trkpt lat="65.12049" lon="21.02078">
        <ele>112.356248</ele>
        <time>2020-09-27T10:31:39.432Z</time>
      </trkpt>
      <trkpt lat="65.12041" lon="21.02088">
        <ele>112.31089</ele>
        <time>2020-09-27T10:31:41.374Z</time>
      </trkpt>
      <trkpt lat="65.12033" lon="21.02098">
        <ele>112.264589</ele>
        <time>2020-09-27T10:31:43.390Z</time>
      </trkpt>
      <trkpt lat="65.12024" lon="21.02107">
        <ele>112.217884</ele>
        <time>2020-09-27T10:31:45.373Z</time>
      </trkpt>
      <trkpt lat="65.12015" lon="21.02116">
        <ele>112.171388</ele>
        <time>2020-09-27T10:31:47.375Z</time>
      </trkpt>
      <trkpt lat="65.12007" lon="21.02124">
        <ele>112.127069</ele>
        <time>2020-09-27T10:31:49.378Z</time>
      </trkpt>
      <trkpt lat="65.11999" lon="21.02131">
        <ele>112.081984</ele>
        <time>2020-09-27T10:31:51.372Z</time>
      </trkpt>
      <trkpt lat="65.11991" lon="21.02141">
        <ele>112.037652</ele>
        <time>2020-09-27T10:31:53.365Z</time>
      </trkpt>
      <trkpt lat="65.11982" lon="21.02149">
        <ele>111.996346</ele>
        <time>2020-09-27T10:31:55.391Z</time>
      </trkpt>
      <trkpt lat="65.11974" lon="21.02157">
        <ele>112.014477</ele>
        <time>2020-09-27T10:31:57.383Z</time>
      </trkpt>
      <trkpt lat="65.11962" lon="21.0217">
        <ele>112.041311</ele>
        <time>2020-09-27T10:32:00.395Z</time>
      </trkpt>
      <trkpt lat="65.11949" lon="21.02181">
        <ele>112.068268</ele>
        <time>2020-09-27T10:32:03.385Z</time>
      </trkpt>
      <trkpt lat="65.11937" lon="21.02194">
        <ele>112.094785</ele>
        <time>2020-09-27T10:32:06.407Z</time>
      </trkpt>
      <trkpt lat="65.11925" lon="21.02206">
        <ele>112.121249</ele>
        <time>2020-09-27T10:32:09.395Z</time>
      </trkpt>
      <trkpt lat="65.11913" lon="21.02218">
        <ele>112.146927</ele>
        <time>2020-09-27T10:32:12.385Z</time>
      </trkpt>
      <trkpt lat="65.11902" lon="21.0223">
        <ele>112.172318</ele>
        <time>2020-09-27T10:32:15.393Z</time>
      </trkpt>
      <trkpt lat="65.1189" lon="21.02241">
        <ele>112.196809</ele>
        <time>2020-09-27T10:32:18.422Z</time>
      </trkpt>
      <trkpt lat="65.11879" lon="21.02252">
        <ele>112.221645</ele>
        <time>2020-09-27T10:32:21.386Z</time>
      </trkpt>
      <trkpt lat="65.11869" lon="21.02264">
        <ele>112.244704</ele>
        <time>2020-09-27T10:32:24.382Z</time>
      </trkpt>
      <trkpt lat="65.11858" lon="21.02274">
        <ele>112.266984</ele>
        <time>2020-09-27T10:32:27.375Z</time>
      </trkpt>
      <trkpt lat="65.11848" lon="21.02285">
        <ele>112.290628</ele>
        <time>2020-09-27T10:32:30.381Z</time>
      </trkpt>
      <trkpt lat="65.11837" lon="21.02296">
        <ele>112.313479</ele>
        <time>2020-09-27T10:32:33.395Z</time>
      </trkpt>
      <trkpt lat="65.11828" lon="21.02306">
        <ele>112.334031</ele>
        <time>2020-09-27T10:32:36.367Z</time>
      </trkpt>
      <trkpt lat="65.11819" lon="21.02317">
        <ele>112.354407</ele>
        <time>2020-09-27T10:32:39.398Z</time>
      </trkpt>
      <trkpt lat="65.1181" lon="21.02327">
        <ele>112.72399</ele>
        <time>2020-09-27T10:32:42.379Z</time>
      </trkpt>
      <trkpt lat="65.11801" lon="21.02336">
        <ele>113.144726</ele>
        <time>2020-09-27T10:32:45.384Z</time>
      </trkpt>
      <trkpt lat="65.11792" lon="21.02346">
        <ele>113.585786</ele>
        <time>2020-09-27T10:32:48.368Z</time>
      </trkpt>
      <trkpt lat="65.11782" lon="21.02358">
        <ele>114.061476</ele>
        <time>2020-09-27T10:32:51.368Z</time>
      </trkpt>
      <trkpt lat="65.11773" lon="21.02369">
        <ele>114.510937</ele>
        <time>2020-09-27T10:32:54.390Z</time>
      </trkpt>
      <trkpt lat="65.11764" lon="21.02379">
        <ele>114.933677</ele>
        <time>2020-09-27T10:32:57.373Z</time>
      </trkpt>
      <trkpt lat="65.11755" lon="21.02388">
        <ele>115.36786</ele>
        <time>2020-09-27T10:33:00.382Z</time>
      </trkpt>
      <trkpt lat="65.11746" lon="21.02398">
        <ele>115.800086</ele>
        <time>2020-09-27T10:33:03.363Z</time>
      </trkpt>
      <trkpt lat="65.11738" lon="21.02409">
        <ele>116.19587</ele>
        <time>2020-09-27T10:33:06.396Z</time>
      </trkpt>
      <trkpt lat="65.11728" lon="21.02423">
        <ele>116.698032</ele>
        <time>2020-09-27T10:33:10.367Z</time>
      </trkpt>
      <trkpt lat="65.1172" lon="21.02435">
        <ele>117.117152</ele>
        <time>2020-09-27T10:33:13.367Z</time>
      </trkpt>
      <trkpt lat="65.11712" lon="21.0245">
        <ele>117.551354</ele>
        <time>2020-09-27T10:33:16.375Z</time>
      </trkpt>
      <trkpt lat="65.11704" lon="21.02467">
        <ele>118.018176</ele>
        <time>2020-09-27T10:33:19.371Z</time>
      </trkpt>
      <trkpt lat="65.11696" lon="21.02484">
        <ele>118.493934</ele>
        <time>2020-09-27T10:33:22.373Z</time>
      </trkpt>
      <trkpt lat="65.11687" lon="21.02504">
        <ele>119.018625</ele>
        <time>2020-09-27T10:33:25.374Z</time>
      </trkpt>
      <trkpt lat="65.11678" lon="21.02523">
        <ele>119.552106</ele>
        <time>2020-09-27T10:33:28.368Z</time>
      </trkpt>
      <trkpt lat="65.11669" lon="21.02544">
        <ele>120.112296</ele>
        <time>2020-09-27T10:33:31.378Z</time>
      </trkpt>
      <trkpt lat="65.11658" lon="21.02563">
        <ele>120.02783</ele>
        <time>2020-09-27T10:33:34.366Z</time>
      </trkpt>
      <trkpt lat="65.11649" lon="21.02583">
        <ele>119.856968</ele>
        <time>2020-09-27T10:33:37.387Z</time>
      </trkpt>
      <trkpt lat="65.11639" lon="21.02604">
        <ele>119.67935</ele>
        <time>2020-09-27T10:33:40.371Z</time>
      </trkpt>
      <trkpt lat="65.11629" lon="21.02625">
        <ele>119.505227</ele>
        <time>2020-09-27T10:33:43.391Z</time>
      </trkpt>
      <trkpt lat="65.1162" lon="21.02648">
        <ele>119.331525</ele>
        <time>2020-09-27T10:33:46.384Z</time>
      </trkpt>
      <trkpt lat="65.1161" lon="21.02669">
        <ele>119.150568</ele>
        <time>2020-09-27T10:33:49.396Z</time>
      </trkpt>
      <trkpt lat="65.11603" lon="21.02684">
        <ele>119.021099</ele>
        <time>2020-09-27T10:33:51.382Z</time>
      </trkpt>
      <trkpt lat="65.11595" lon="21.02699">
        <ele>118.884945</ele>
        <time>2020-09-27T10:33:53.377Z</time>
      </trkpt>
      <trkpt lat="65.11588" lon="21.02715">
        <ele>118.752945</ele>
        <time>2020-09-27T10:33:55.375Z</time>
      </trkpt>
      <trkpt lat="65.11581" lon="21.02731">
        <ele>118.622093</ele>
        <time>2020-09-27T10:33:57.378Z</time>
      </trkpt>
      <trkpt lat="65.11574" lon="21.02747">
        <ele>118.490067</ele>
        <time>2020-09-27T10:33:59.369Z</time>
      </trkpt>
      <trkpt lat="65.11566" lon="21.02764">
        <ele>118.356318</ele>
        <time>2020-09-27T10:34:01.389Z</time>
      </trkpt>
      <trkpt lat="65.11559" lon="21.0278">
        <ele>118.219839</ele>
        <time>2020-09-27T10:34:03.376Z</time>
      </trkpt>
      <trkpt lat="65.11551" lon="21.02797">
        <ele>118.082209</ele>
        <time>2020-09-27T10:34:05.377Z</time>
      </trkpt>
      <trkpt lat="65.11544" lon="21.02814">
        <ele>117.943204</ele>
        <time>2020-09-27T10:34:07.388Z</time>
      </trkpt>
      <trkpt lat="65.11536" lon="21.02832">
        <ele>117.796428</ele>
        <time>2020-09-27T10:34:09.401Z</time>
      </trkpt>
      <trkpt lat="65.11528" lon="21.0285">
        <ele>117.342554</ele>
        <time>2020-09-27T10:34:11.365Z</time>
      </trkpt>
      <trkpt lat="65.1152" lon="21.02868">
        <ele>116.822024</ele>
        <time>2020-09-27T10:34:13.368Z</time>
      </trkpt>
      <trkpt lat="65.11512" lon="21.02886">
        <ele>116.283873</ele>
        <time>2020-09-27T10:34:15.372Z</time>
      </trkpt>
      <trkpt lat="65.11503" lon="21.02905">
        <ele>115.709838</ele>
        <time>2020-09-27T10:34:17.366Z</time>
      </trkpt>
      <trkpt lat="65.11493" lon="21.02926">
        <ele>115.105532</ele>
        <time>2020-09-27T10:34:19.427Z</time>
      </trkpt>
      <trkpt lat="65.11484" lon="21.02947">
        <ele>114.508133</ele>
        <time>2020-09-27T10:34:21.410Z</time>
      </trkpt>
      <trkpt lat="65.11474" lon="21.02968">
        <ele>113.871808</ele>
        <time>2020-09-27T10:34:23.365Z</time>
      </trkpt>
      <trkpt lat="65.11464" lon="21.02991">
        <ele>113.234047</ele>
        <time>2020-09-27T10:34:25.370Z</time>
      </trkpt>
      <trkpt lat="65.11454" lon="21.03014">
        <ele>112.573985</ele>
        <time>2020-09-27T10:34:27.384Z</time>
      </trkpt>
      <trkpt lat="65.11444" lon="21.03037">
        <ele>111.919393</ele>
        <time>2020-09-27T10:34:29.366Z</time>
      </trkpt>
      <trkpt lat="65.11434" lon="21.0306">
        <ele>111.266779</ele>
        <time>2020-09-27T10:34:31.363Z</time>
      </trkpt>
      <trkpt lat="65.11424" lon="21.03083">
        <ele>110.616208</ele>
        <time>2020-09-27T10:34:33.362Z</time>
      </trkpt>
      <trkpt lat="65.11414" lon="21.03105">
        <ele>109.979838</ele>
        <time>2020-09-27T10:34:35.387Z</time>
      </trkpt>
      <trkpt lat="65.11404" lon="21.03126">
        <ele>109.361089</ele>
        <time>2020-09-27T10:34:37.366Z</time>
      </trkpt>
      <trkpt lat="65.11395" lon="21.03148">
        <ele>109.145351</ele>
        <time>2020-09-27T10:34:39.412Z</time>
      </trkpt>
      <trkpt lat="65.11386" lon="21.03169">
        <ele>108.956777</ele>
        <time>2020-09-27T10:34:41.379Z</time>
      </trkpt>
      <trkpt lat="65.11377" lon="21.03189">
        <ele>108.77037</ele>
        <time>2020-09-27T10:34:43.451Z</time>
      </trkpt>
      <trkpt lat="65.11368" lon="21.0321">
        <ele>108.583249</ele>
        <time>2020-09-27T10:34:45.368Z</time>
      </trkpt>
      <trkpt lat="65.11358" lon="21.0323">
        <ele>108.394874</ele>
        <time>2020-09-27T10:34:47.394Z</time>
      </trkpt>
      <trkpt lat="65.11349" lon="21.0325">
        <ele>108.206918</ele>
        <time>2020-09-27T10:34:49.394Z</time>
      </trkpt>
      <trkpt lat="65.1134" lon="21.0327">
        <ele>108.027362</ele>
        <time>2020-09-27T10:34:51.376Z</time>
      </trkpt>
      <trkpt lat="65.11332" lon="21.03289">
        <ele>107.855704</ele>
        <time>2020-09-27T10:34:53.365Z</time>
      </trkpt>
      <trkpt lat="65.11324" lon="21.03307">
        <ele>107.693748</ele>
        <time>2020-09-27T10:34:55.368Z</time>
      </trkpt>
      <trkpt lat="65.11316" lon="21.03323">
        <ele>107.54335</ele>
        <time>2020-09-27T10:34:57.399Z</time>
      </trkpt>
      <trkpt lat="65.11309" lon="21.03338">
        <ele>107.397081</ele>
        <time>2020-09-27T10:34:59.379Z</time>
      </trkpt>
      <trkpt lat="65.11302" lon="21.03354">
        <ele>107.254832</ele>
        <time>2020-09-27T10:35:01.379Z</time>
      </trkpt>
      <trkpt lat="65.11295" lon="21.03369">
        <ele>107.11518</ele>
        <time>2020-09-27T10:35:03.371Z</time>
      </trkpt>
      <trkpt lat="65.11288" lon="21.03384">
        <ele>106.976531</ele>
        <time>2020-09-27T10:35:05.413Z</time>
      </trkpt>
      <trkpt lat="65.11278" lon="21.03405">
        <ele>106.780157</ele>
        <time>2020-09-27T10:35:08.419Z</time>
      </trkpt>
      <trkpt lat="65.11269" lon="21.03426">
        <ele>106.703972</ele>
        <time>2020-09-27T10:35:11.367Z</time>
      </trkpt>
      <trkpt lat="65.1126" lon="21.03447">
        <ele>106.827324</ele>
        <time>2020-09-27T10:35:14.394Z</time>
      </trkpt>
      <trkpt lat="65.1125" lon="21.03469">
        <ele>106.954115</ele>
        <time>2020-09-27T10:35:17.377Z</time>
      </trkpt>
      <trkpt lat="65.1124" lon="21.03491">
        <ele>107.083983</ele>
        <time>2020-09-27T10:35:20.370Z</time>
      </trkpt>
      <trkpt lat="65.11234" lon="21.03505">
        <ele>107.172272</ele>
        <time>2020-09-27T10:35:22.369Z</time>
      </trkpt>
      <trkpt lat="65.11227" lon="21.0352">
        <ele>107.261637</ele>
        <time>2020-09-27T10:35:24.370Z</time>
      </trkpt>
      <trkpt lat="65.1122" lon="21.03536">
        <ele>107.350925</ele>
        <time>2020-09-27T10:35:26.404Z</time>
      </trkpt>
      <trkpt lat="65.1121" lon="21.03558">
        <ele>107.48219</ele>
        <time>2020-09-27T10:35:29.370Z</time>
      </trkpt>
      <trkpt lat="65.11204" lon="21.03574">
        <ele>107.573502</ele>
        <time>2020-09-27T10:35:31.367Z</time>
      </trkpt>
      <trkpt lat="65.11197" lon="21.03589">
        <ele>107.663808</ele>
        <time>2020-09-27T10:35:33.374Z</time>
      </trkpt>
      <trkpt lat="65.1119" lon="21.03605">
        <ele>107.757189</ele>
        <time>2020-09-27T10:35:35.378Z</time>
      </trkpt>
      <trkpt lat="65.11183" lon="21.03622">
        <ele>107.8517</ele>
        <time>2020-09-27T10:35:37.394Z</time>
      </trkpt>
      <trkpt lat="65.11176" lon="21.03639">
        <ele>107.948802</ele>
        <time>2020-09-27T10:35:39.409Z</time>
      </trkpt>
      <trkpt lat="65.11169" lon="21.03655">
        <ele>108.042606</ele>
        <time>2020-09-27T10:35:41.390Z</time>
      </trkpt>
      <trkpt lat="65.11162" lon="21.0367">
        <ele>108.131654</ele>
        <time>2020-09-27T10:35:43.395Z</time>
      </trkpt>
      <trkpt lat="65.11155" lon="21.03684">
        <ele>108.21922</ele>
        <time>2020-09-27T10:35:45.390Z</time>
      </trkpt>
      <trkpt lat="65.11149" lon="21.03698">
        <ele>108.306337</ele>
        <time>2020-09-27T10:35:47.366Z</time>
      </trkpt>
      <trkpt lat="65.11142" lon="21.03713">
        <ele>108.393263</ele>
        <time>2020-09-27T10:35:49.388Z</time>
      </trkpt>
      <trkpt lat="65.11134" lon="21.03729">
        <ele>108.333192</ele>
        <time>2020-09-27T10:35:51.412Z</time>
      </trkpt>
      <trkpt lat="65.11127" lon="21.03744">
        <ele>108.27554</ele>
        <time>2020-09-27T10:35:53.368Z</time>
      </trkpt>
      <trkpt lat="65.11121" lon="21.03759">
        <ele>108.22087</ele>
        <time>2020-09-27T10:35:55.366Z</time>
      </trkpt>
      <trkpt lat="65.11114" lon="21.03775">
        <ele>108.162959</ele>
        <time>2020-09-27T10:35:57.362Z</time>
      </trkpt>
      <trkpt lat="65.11107" lon="21.03791">
        <ele>108.104945</ele>
        <time>2020-09-27T10:35:59.382Z</time>
      </trkpt>
      <trkpt lat="65.111" lon="21.03805">
        <ele>108.049445</ele>
        <time>2020-09-27T10:36:01.406Z</time>
      </trkpt>
      <trkpt lat="65.11091" lon="21.03827">
        <ele>107.971028</ele>
        <time>2020-09-27T10:36:04.380Z</time>
      </trkpt>
      <trkpt lat="65.11081" lon="21.03849">
        <ele>107.890164</ele>
        <time>2020-09-27T10:36:07.382Z</time>
      </trkpt>
      <trkpt lat="65.11075" lon="21.03864">
        <ele>107.834969</ele>
        <time>2020-09-27T10:36:09.391Z</time>
      </trkpt>
      <trkpt lat="65.11068" lon="21.0388">
        <ele>107.777491</ele>
        <time>2020-09-27T10:36:11.404Z</time>
      </trkpt>
      <trkpt lat="65.11061" lon="21.03895">
        <ele>107.72028</ele>
        <time>2020-09-27T10:36:13.382Z</time>
      </trkpt>
      <trkpt lat="65.11054" lon="21.03911">
        <ele>107.662623</ele>
        <time>2020-09-27T10:36:15.370Z</time>
      </trkpt>
      <trkpt lat="65.11047" lon="21.03926">
        <ele>107.605486</ele>
        <time>2020-09-27T10:36:17.373Z</time>
      </trkpt>
      <trkpt lat="65.1104" lon="21.03941">
        <ele>107.549583</ele>
        <time>2020-09-27T10:36:19.384Z</time>
      </trkpt>
      <trkpt lat="65.11031" lon="21.03963">
        <ele>107.470731</ele>
        <time>2020-09-27T10:36:22.418Z</time>
      </trkpt>
      <trkpt lat="65.11022" lon="21.03984">
        <ele>107.392141</ele>
        <time>2020-09-27T10:36:25.377Z</time>
      </trkpt>
      <trkpt lat="65.11012" lon="21.04005">
        <ele>107.312046</ele>
        <time>2020-09-27T10:36:28.377Z</time>
      </trkpt>
      <trkpt lat="65.11005" lon="21.04019">
        <ele>107.323006</ele>
        <time>2020-09-27T10:36:30.375Z</time>
      </trkpt>
      <trkpt lat="65.10998" lon="21.04035">
        <ele>107.340828</ele>
        <time>2020-09-27T10:36:32.371Z</time>
      </trkpt>
      <trkpt lat="65.10992" lon="21.04049">
        <ele>107.358314</ele>
        <time>2020-09-27T10:36:34.365Z</time>
      </trkpt>
      <trkpt lat="65.10982" lon="21.04072">
        <ele>107.383931</ele>
        <time>2020-09-27T10:36:37.359Z</time>
      </trkpt>
      <trkpt lat="65.10973" lon="21.04094">
        <ele>107.409836</ele>
        <time>2020-09-27T10:36:40.376Z</time>
      </trkpt>
      <trkpt lat="65.10966" lon="21.0411">
        <ele>107.427659</ele>
        <time>2020-09-27T10:36:42.383Z</time>
      </trkpt>
      <trkpt lat="65.1096" lon="21.04125">
        <ele>107.445649</ele>
        <time>2020-09-27T10:36:44.372Z</time>
      </trkpt>
      <trkpt lat="65.10953" lon="21.04139">
        <ele>107.463079</ele>
        <time>2020-09-27T10:36:46.373Z</time>
      </trkpt>
      <trkpt lat="65.10946" lon="21.04155">
        <ele>107.481153</ele>
        <time>2020-09-27T10:36:48.410Z</time>
      </trkpt>
      <trkpt lat="65.10939" lon="21.0417">
        <ele>107.499396</ele>
        <time>2020-09-27T10:36:50.426Z</time>
      </trkpt>
      <trkpt lat="65.10932" lon="21.04186">
        <ele>107.518058</ele>
        <time>2020-09-27T10:36:52.393Z</time>
      </trkpt>
      <trkpt lat="65.10925" lon="21.04202">
        <ele>107.537112</ele>
        <time>2020-09-27T10:36:54.410Z</time>
      </trkpt>
      <trkpt lat="65.10918" lon="21.04217">
        <ele>107.555804</ele>
        <time>2020-09-27T10:36:56.367Z</time>
      </trkpt>
      <trkpt lat="65.10911" lon="21.04233">
        <ele>107.574693</ele>
        <time>2020-09-27T10:36:58.392Z</time>
      </trkpt>
      <trkpt lat="65.10904" lon="21.04249">
        <ele>107.593692</ele>
        <time>2020-09-27T10:37:00.394Z</time>
      </trkpt>
      <trkpt lat="65.10896" lon="21.04266">
        <ele>107.613027</ele>
        <time>2020-09-27T10:37:02.375Z</time>
      </trkpt>
      <trkpt lat="65.1089" lon="21.04281">
        <ele>107.631073</ele>
        <time>2020-09-27T10:37:04.399Z</time>
      </trkpt>
      <trkpt lat="65.10883" lon="21.04295">
        <ele>107.649276</ele>
        <time>2020-09-27T10:37:06.387Z</time>
      </trkpt>
      <trkpt lat="65.10876" lon="21.0431">
        <ele>107.813064</ele>
        <time>2020-09-27T10:37:08.427Z</time>
      </trkpt>
      <trkpt lat="65.10869" lon="21.04325">
        <ele>108.037181</ele>
        <time>2020-09-27T10:37:10.414Z</time>
      </trkpt>
      <trkpt lat="65.10863" lon="21.0434">
        <ele>108.259875</ele>
        <time>2020-09-27T10:37:12.364Z</time>
      </trkpt>
      <trkpt lat="65.10853" lon="21.0436">
        <ele>108.570887</ele>
        <time>2020-09-27T10:37:15.400Z</time>
      </trkpt>
      <trkpt lat="65.10845" lon="21.04381">
        <ele>108.868359</ele>
        <time>2020-09-27T10:37:18.388Z</time>
      </trkpt>
      <trkpt lat="65.10836" lon="21.044">
        <ele>109.158298</ele>
        <time>2020-09-27T10:37:21.399Z</time>
      </trkpt>
      <trkpt lat="65.10827" lon="21.04418">
        <ele>109.438852</ele>
        <time>2020-09-27T10:37:24.388Z</time>
      </trkpt>
      <trkpt lat="65.1082" lon="21.04435">
        <ele>109.699284</ele>
        <time>2020-09-27T10:37:27.376Z</time>
      </trkpt>
      <trkpt lat="65.10813" lon="21.04451">
        <ele>109.93941</ele>
        <time>2020-09-27T10:37:30.430Z</time>
      </trkpt>
      <trkpt lat="65.10804" lon="21.04471">
        <ele>110.228313</ele>
        <time>2020-09-27T10:37:34.395Z</time>
      </trkpt>
      <trkpt lat="65.10798" lon="21.04486">
        <ele>110.449231</ele>
        <time>2020-09-27T10:37:37.394Z</time>
      </trkpt>
      <trkpt lat="65.10791" lon="21.04501">
        <ele>110.671777</ele>
        <time>2020-09-27T10:37:40.373Z</time>
      </trkpt>
      <trkpt lat="65.10785" lon="21.04516">
        <ele>110.897676</ele>
        <time>2020-09-27T10:37:43.369Z</time>
      </trkpt>
      <trkpt lat="65.10777" lon="21.04534">
        <ele>111.168423</ele>
        <time>2020-09-27T10:37:47.370Z</time>
      </trkpt>
      <trkpt lat="65.10768" lon="21.04552">
        <ele>111.440577</ele>
        <time>2020-09-27T10:37:51.389Z</time>
      </trkpt>
      <trkpt lat="65.1076" lon="21.0457">
        <ele>111.71557</ele>
        <time>2020-09-27T10:37:55.372Z</time>
      </trkpt>
      <trkpt lat="65.10753" lon="21.04587">
        <ele>111.963527</ele>
        <time>2020-09-27T10:37:59.359Z</time>
      </trkpt>
      <trkpt lat="65.10746" lon="21.04605">
        <ele>112.333726</ele>
        <time>2020-09-27T10:38:03.402Z</time>
      </trkpt>
      <trkpt lat="65.10739" lon="21.04622">
        <ele>112.772571</ele>
        <time>2020-09-27T10:38:07.374Z</time>
      </trkpt>
      <trkpt lat="65.10732" lon="21.04641">
        <ele>113.255215</ele>
        <time>2020-09-27T10:38:11.394Z</time>
      </trkpt>
      <trkpt lat="65.10723" lon="21.04658">
        <ele>113.754589</ele>
        <time>2020-09-27T10:38:15.398Z</time>
      </trkpt>
      <trkpt lat="65.10715" lon="21.04675">
        <ele>114.220638</ele>
        <time>2020-09-27T10:38:19.390Z</time>
      </trkpt>
      <trkpt lat="65.10707" lon="21.04692">
        <ele>114.687717</ele>
        <time>2020-09-27T10:38:23.374Z</time>
      </trkpt>
      <trkpt lat="65.107" lon="21.04709">
        <ele>115.130516</ele>
        <time>2020-09-27T10:38:27.397Z</time>
      </trkpt>
      <trkpt lat="65.10693" lon="21.04724">
        <ele>115.552249</ele>
        <time>2020-09-27T10:38:31.381Z</time>
      </trkpt>
      <trkpt lat="65.10685" lon="21.04741">
        <ele>116.014619</ele>
        <time>2020-09-27T10:38:35.386Z</time>
      </trkpt>
      <trkpt lat="65.10678" lon="21.04756">
        <ele>116.440845</ele>
        <time>2020-09-27T10:38:39.378Z</time>
      </trkpt>
      <trkpt lat="65.10671" lon="21.04773">
        <ele>116.886859</ele>
        <time>2020-09-27T10:38:43.376Z</time>
      </trkpt>
      <trkpt lat="65.10663" lon="21.0479">
        <ele>117.337968</ele>
        <time>2020-09-27T10:38:47.388Z</time>
      </trkpt>
      <trkpt lat="65.10657" lon="21.04807">
        <ele>117.774374</ele>
        <time>2020-09-27T10:38:51.369Z</time>
      </trkpt>
      <trkpt lat="65.10649" lon="21.04823">
        <ele>118.212112</ele>
        <time>2020-09-27T10:38:55.369Z</time>
      </trkpt>
      <trkpt lat="65.10642" lon="21.04838">
        <ele>118.655717</ele>
        <time>2020-09-27T10:38:59.407Z</time>
      </trkpt>
      <trkpt lat="65.10634" lon="21.04854">
        <ele>119.105732</ele>
        <time>2020-09-27T10:39:03.371Z</time>
      </trkpt>
      <trkpt lat="65.10626" lon="21.04871">
        <ele>119.554982</ele>
        <time>2020-09-27T10:39:07.370Z</time>
      </trkpt>
      <trkpt lat="65.10618" lon="21.04884">
        <ele>120.000936</ele>
        <time>2020-09-27T10:39:11.387Z</time>
      </trkpt>
      <trkpt lat="65.1061" lon="21.04894">
        <ele>120.656758</ele>
        <time>2020-09-27T10:39:15.370Z</time>
      </trkpt>
      <trkpt lat="65.10601" lon="21.04904">
        <ele>121.341313</ele>
        <time>2020-09-27T10:39:19.387Z</time>
      </trkpt>
      <trkpt lat="65.10592" lon="21.04914">
        <ele>122.029572</ele>
        <time>2020-09-27T10:39:23.368Z</time>
      </trkpt>
      <trkpt lat="65.10583" lon="21.04922">
        <ele>122.688394</ele>
        <time>2020-09-27T10:39:27.373Z</time>
      </trkpt>
      <trkpt lat="65.10574" lon="21.04929">
        <ele>123.374876</ele>
        <time>2020-09-27T10:39:31.378Z</time>
      </trkpt>
      <trkpt lat="65.10564" lon="21.04937">
        <ele>124.1224</ele>
        <time>2020-09-27T10:39:35.391Z</time>
      </trkpt>
      <trkpt lat="65.10553" lon="21.04944">
        <ele>124.886177</ele>
        <time>2020-09-27T10:39:39.423Z</time>
      </trkpt>
      <trkpt lat="65.10543" lon="21.04949">
        <ele>125.611878</ele>
        <time>2020-09-27T10:39:43.371Z</time>
      </trkpt>
      <trkpt lat="65.10532" lon="21.04955">
        <ele>126.39795</ele>
        <time>2020-09-27T10:39:47.382Z</time>
      </trkpt>
      <trkpt lat="65.10523" lon="21.04962">
        <ele>127.086128</ele>
        <time>2020-09-27T10:39:50.387Z</time>
      </trkpt>
      <trkpt lat="65.10514" lon="21.04967">
        <ele>127.740004</ele>
        <time>2020-09-27T10:39:53.365Z</time>
      </trkpt>
      <trkpt lat="65.10505" lon="21.04976">
        <ele>128.387919</ele>
        <time>2020-09-27T10:39:56.367Z</time>
      </trkpt>
      <trkpt lat="65.10497" lon="21.04983">
        <ele>129.030547</ele>
        <time>2020-09-27T10:39:59.377Z</time>
      </trkpt>
      <trkpt lat="65.10488" lon="21.0499">
        <ele>129.667224</ele>
        <time>2020-09-27T10:40:02.374Z</time>
      </trkpt>
      <trkpt lat="65.10477" lon="21.04998">
        <ele>130.472906</ele>
        <time>2020-09-27T10:40:06.413Z</time>
      </trkpt>
      <trkpt lat="65.10468" lon="21.05004">
        <ele>131.153828</ele>
        <time>2020-09-27T10:40:09.375Z</time>
      </trkpt>
      <trkpt lat="65.10458" lon="21.0501">
        <ele>131.822779</ele>
        <time>2020-09-27T10:40:12.377Z</time>
      </trkpt>
      <trkpt lat="65.10448" lon="21.05018">
        <ele>132.583574</ele>
        <time>2020-09-27T10:40:15.407Z</time>
      </trkpt>
      <trkpt lat="65.10436" lon="21.05026">
        <ele>132.330642</ele>
        <time>2020-09-27T10:40:18.373Z</time>
      </trkpt>
      <trkpt lat="65.10427" lon="21.05032">
        <ele>132.136938</ele>
        <time>2020-09-27T10:40:20.387Z</time>
      </trkpt>
      <trkpt lat="65.10417" lon="21.0504">
        <ele>131.925822</ele>
        <time>2020-09-27T10:40:22.380Z</time>
      </trkpt>
      <trkpt lat="65.10407" lon="21.05047">
        <ele>131.711649</ele>
        <time>2020-09-27T10:40:24.373Z</time>
      </trkpt>
      <trkpt lat="65.10398" lon="21.05055">
        <ele>131.499993</ele>
        <time>2020-09-27T10:40:26.391Z</time>
      </trkpt>
      <trkpt lat="65.10387" lon="21.05063">
        <ele>131.28045</ele>
        <time>2020-09-27T10:40:28.375Z</time>
      </trkpt>
      <trkpt lat="65.10377" lon="21.05069">
        <ele>131.053375</ele>
        <time>2020-09-27T10:40:30.395Z</time>
      </trkpt>
      <trkpt lat="65.10366" lon="21.05077">
        <ele>130.820395</ele>
        <time>2020-09-27T10:40:32.360Z</time>
      </trkpt>
      <trkpt lat="65.10355" lon="21.05085">
        <ele>130.585719</ele>
        <time>2020-09-27T10:40:34.381Z</time>
      </trkpt>
      <trkpt lat="65.10345" lon="21.05091">
        <ele>130.362423</ele>
        <time>2020-09-27T10:40:36.388Z</time>
      </trkpt>
      <trkpt lat="65.10333" lon="21.05101">
        <ele>130.108654</ele>
        <time>2020-09-27T10:40:38.372Z</time>
      </trkpt>
      <trkpt lat="65.10323" lon="21.05111">
        <ele>129.878987</ele>
        <time>2020-09-27T10:40:40.381Z</time>
      </trkpt>
      <trkpt lat="65.10313" lon="21.05118">
        <ele>129.653509</ele>
        <time>2020-09-27T10:40:42.372Z</time>
      </trkpt>
      <trkpt lat="65.10302" lon="21.05125">
        <ele>129.432668</ele>
        <time>2020-09-27T10:40:44.371Z</time>
      </trkpt>
      <trkpt lat="65.10292" lon="21.05131">
        <ele>129.213112</ele>
        <time>2020-09-27T10:40:46.386Z</time>
      </trkpt>
      <trkpt lat="65.10281" lon="21.05137">
        <ele>128.988695</ele>
        <time>2020-09-27T10:40:48.378Z</time>
      </trkpt>
      <trkpt lat="65.10271" lon="21.05144">
        <ele>128.45698</ele>
        <time>2020-09-27T10:40:50.382Z</time>
      </trkpt>
      <trkpt lat="65.1026" lon="21.05151">
        <ele>127.575466</ele>
        <time>2020-09-27T10:40:52.406Z</time>
      </trkpt>
      <trkpt lat="65.10249" lon="21.05157">
        <ele>126.70783</ele>
        <time>2020-09-27T10:40:54.373Z</time>
      </trkpt>
      <trkpt lat="65.10239" lon="21.05163">
        <ele>125.858512</ele>
        <time>2020-09-27T10:40:56.401Z</time>
      </trkpt>
      <trkpt lat="65.10228" lon="21.0517">
        <ele>125.007553</ele>
        <time>2020-09-27T10:40:58.375Z</time>
      </trkpt>
      <trkpt lat="65.10218" lon="21.05177">
        <ele>124.178643</ele>
        <time>2020-09-27T10:41:00.366Z</time>
      </trkpt>
      <trkpt lat="65.10207" lon="21.05185">
        <ele>123.307388</ele>
        <time>2020-09-27T10:41:02.394Z</time>
      </trkpt>
      <trkpt lat="65.10197" lon="21.05195">
        <ele>122.404418</ele>
        <time>2020-09-27T10:41:04.368Z</time>
      </trkpt>
      <trkpt lat="65.10186" lon="21.05206">
        <ele>121.52409</ele>
        <time>2020-09-27T10:41:06.362Z</time>
      </trkpt>
      <trkpt lat="65.10176" lon="21.05217">
        <ele>120.652711</ele>
        <time>2020-09-27T10:41:08.405Z</time>
      </trkpt>
      <trkpt lat="65.10166" lon="21.05228">
        <ele>119.779949</ele>
        <time>2020-09-27T10:41:10.394Z</time>
      </trkpt>
      <trkpt lat="65.10156" lon="21.0524">
        <ele>118.917619</ele>
        <time>2020-09-27T10:41:12.375Z</time>
      </trkpt>
      <trkpt lat="65.10146" lon="21.05255">
        <ele>117.988318</ele>
        <time>2020-09-27T10:41:14.375Z</time>
      </trkpt>
      <trkpt lat="65.10136" lon="21.05273">
        <ele>117.010273</ele>
        <time>2020-09-27T10:41:16.389Z</time>
      </trkpt>
      <trkpt lat="65.10126" lon="21.05292">
        <ele>115.991601</ele>
        <time>2020-09-27T10:41:18.385Z</time>
      </trkpt>
      <trkpt lat="65.10116" lon="21.05312">
        <ele>114.929939</ele>
        <time>2020-09-27T10:41:20.395Z</time>
      </trkpt>
      <trkpt lat="65.10105" lon="21.05335">
        <ele>114.246458</ele>
        <time>2020-09-27T10:41:22.379Z</time>
      </trkpt>
      <trkpt lat="65.10095" lon="21.05357">
        <ele>113.651405</ele>
        <time>2020-09-27T10:41:24.396Z</time>
      </trkpt>
      <trkpt lat="65.10084" lon="21.05381">
        <ele>113.016155</ele>
        <time>2020-09-27T10:41:26.382Z</time>
      </trkpt>
      <trkpt lat="65.10074" lon="21.05403">
        <ele>112.436054</ele>
        <time>2020-09-27T10:41:28.379Z</time>
      </trkpt>
      <trkpt lat="65.10064" lon="21.05425">
        <ele>111.889715</ele>
        <time>2020-09-27T10:41:30.382Z</time>
      </trkpt>
      <trkpt lat="65.10056" lon="21.05445">
        <ele>111.392554</ele>
        <time>2020-09-27T10:41:32.377Z</time>
      </trkpt>
      <trkpt lat="65.10047" lon="21.05466">
        <ele>110.856462</ele>
        <time>2020-09-27T10:41:34.405Z</time>
      </trkpt>
      <trkpt lat="65.10039" lon="21.05488">
        <ele>110.319837</ele>
        <time>2020-09-27T10:41:36.376Z</time>
      </trkpt>
      <trkpt lat="65.1003" lon="21.0551">
        <ele>109.799701</ele>
        <time>2020-09-27T10:41:38.394Z</time>
      </trkpt>
      <trkpt lat="65.10022" lon="21.05533">
        <ele>109.247572</ele>
        <time>2020-09-27T10:41:40.390Z</time>
      </trkpt>
      <trkpt lat="65.10014" lon="21.05556">
        <ele>108.713083</ele>
        <time>2020-09-27T10:41:42.387Z</time>
      </trkpt>
      <trkpt lat="65.10006" lon="21.05578">
        <ele>108.201806</ele>
        <time>2020-09-27T10:41:44.366Z</time>
      </trkpt>
      <trkpt lat="65.09998" lon="21.05598">
        <ele>107.70952</ele>
        <time>2020-09-27T10:41:46.376Z</time>
      </trkpt>
      <trkpt lat="65.09991" lon="21.05617">
        <ele>107.246916</ele>
        <time>2020-09-27T10:41:48.377Z</time>
      </trkpt>
      <trkpt lat="65.09984" lon="21.05637">
        <ele>107.091415</ele>
        <time>2020-09-27T10:41:50.366Z</time>
      </trkpt>
      <trkpt lat="65.09977" lon="21.05654">
        <ele>107.029692</ele>
        <time>2020-09-27T10:41:52.391Z</time>
      </trkpt>
      <trkpt lat="65.09971" lon="21.05672">
        <ele>106.965325</ele>
        <time>2020-09-27T10:41:54.375Z</time>
      </trkpt>
      <trkpt lat="65.09963" lon="21.05692">
        <ele>106.894761</ele>
        <time>2020-09-27T10:41:56.392Z</time>
      </trkpt>
      <trkpt lat="65.09956" lon="21.05713">
        <ele>106.822514</ele>
        <time>2020-09-27T10:41:58.390Z</time>
      </trkpt>
      <trkpt lat="65.09949" lon="21.05734">
        <ele>106.748426</ele>
        <time>2020-09-27T10:42:00.372Z</time>
      </trkpt>
      <trkpt lat="65.09941" lon="21.05754">
        <ele>106.674477</ele>
        <time>2020-09-27T10:42:02.403Z</time>
      </trkpt>
      <trkpt lat="65.09934" lon="21.05774">
        <ele>106.603028</ele>
        <time>2020-09-27T10:42:04.409Z</time>
      </trkpt>
      <trkpt lat="65.09927" lon="21.05793">
        <ele>106.53183</ele>
        <time>2020-09-27T10:42:06.398Z</time>
      </trkpt>
      <trkpt lat="65.09919" lon="21.05812">
        <ele>106.462046</ele>
        <time>2020-09-27T10:42:08.377Z</time>
      </trkpt>
      <trkpt lat="65.09912" lon="21.05831">
        <ele>106.394091</ele>
        <time>2020-09-27T10:42:10.376Z</time>
      </trkpt>
      <trkpt lat="65.09905" lon="21.05849">
        <ele>106.326969</ele>
        <time>2020-09-27T10:42:12.392Z</time>
      </trkpt>
      <trkpt lat="65.09898" lon="21.05867">
        <ele>106.261275</ele>
        <time>2020-09-27T10:42:14.410Z</time>
      </trkpt>
      <trkpt lat="65.09891" lon="21.05884">
        <ele>106.198478</ele>
        <time>2020-09-27T10:42:16.360Z</time>
      </trkpt>
      <trkpt lat="65.09884" lon="21.05901">
        <ele>106.133957</ele>
        <time>2020-09-27T10:42:18.396Z</time>
      </trkpt>
      <trkpt lat="65.09878" lon="21.05918">
        <ele>106.070765</ele>
        <time>2020-09-27T10:42:20.393Z</time>
      </trkpt>
      <trkpt lat="65.09871" lon="21.05934">
        <ele>106.010169</ele>
        <time>2020-09-27T10:42:22.364Z</time>
      </trkpt>
      <trkpt lat="65.09865" lon="21.0595">
        <ele>105.999007</ele>
        <time>2020-09-27T10:42:24.373Z</time>
      </trkpt>
      <trkpt lat="65.09859" lon="21.05968">
        <ele>106.013292</ele>
        <time>2020-09-27T10:42:26.363Z</time>
      </trkpt>
      <trkpt lat="65.09853" lon="21.05985">
        <ele>106.027718</ele>
        <time>2020-09-27T10:42:28.424Z</time>
      </trkpt>
      <trkpt lat="65.09846" lon="21.06003">
        <ele>106.042195</ele>
        <time>2020-09-27T10:42:30.383Z</time>
      </trkpt>
      <trkpt lat="65.09839" lon="21.06021">
        <ele>106.057204</ele>
        <time>2020-09-27T10:42:32.386Z</time>
      </trkpt>
      <trkpt lat="65.09833" lon="21.06039">
        <ele>106.072207</ele>
        <time>2020-09-27T10:42:34.398Z</time>
      </trkpt>
      <trkpt lat="65.09826" lon="21.06056">
        <ele>106.086976</ele>
        <time>2020-09-27T10:42:36.374Z</time>
      </trkpt>
      <trkpt lat="65.0982" lon="21.06074">
        <ele>106.102032</ele>
        <time>2020-09-27T10:42:38.390Z</time>
      </trkpt>
      <trkpt lat="65.09813" lon="21.06091">
        <ele>106.116818</ele>
        <time>2020-09-27T10:42:40.389Z</time>
      </trkpt>
      <trkpt lat="65.09807" lon="21.06109">
        <ele>106.131149</ele>
        <time>2020-09-27T10:42:42.377Z</time>
      </trkpt>
      <trkpt lat="65.09801" lon="21.06126">
        <ele>106.145151</ele>
        <time>2020-09-27T10:42:44.406Z</time>
      </trkpt>
      <trkpt lat="65.09794" lon="21.06142">
        <ele>106.158867</ele>
        <time>2020-09-27T10:42:46.398Z</time>
      </trkpt>
      <trkpt lat="65.09785" lon="21.06165">
        <ele>106.178643</ele>
        <time>2020-09-27T10:42:49.406Z</time>
      </trkpt>
      <trkpt lat="65.09776" lon="21.06188">
        <ele>106.198428</ele>
        <time>2020-09-27T10:42:52.373Z</time>
      </trkpt>
      <trkpt lat="65.09768" lon="21.06212">
        <ele>106.218194</ele>
        <time>2020-09-27T10:42:55.368Z</time>
      </trkpt>
      <trkpt lat="65.09759" lon="21.06235">
        <ele>106.237631</ele>
        <time>2020-09-27T10:42:58.379Z</time>
      </trkpt>
      <trkpt lat="65.0975" lon="21.06257">
        <ele>106.256688</ele>
        <time>2020-09-27T10:43:01.399Z</time>
      </trkpt>
      <trkpt lat="65.09742" lon="21.0628">
        <ele>106.479277</ele>
        <time>2020-09-27T10:43:04.377Z</time>
      </trkpt>
      <trkpt lat="65.09733" lon="21.06303">
        <ele>106.716044</ele>
        <time>2020-09-27T10:43:07.371Z</time>
      </trkpt>
      <trkpt lat="65.09726" lon="21.06326">
        <ele>106.945559</ele>
        <time>2020-09-27T10:43:10.370Z</time>
      </trkpt>
      <trkpt lat="65.09718" lon="21.06349">
        <ele>107.178292</ele>
        <time>2020-09-27T10:43:13.363Z</time>
      </trkpt>
      <trkpt lat="65.09711" lon="21.06375">
        <ele>107.415363</ele>
        <time>2020-09-27T10:43:16.399Z</time>
      </trkpt>
      <trkpt lat="65.09705" lon="21.064">
        <ele>107.651232</ele>
        <time>2020-09-27T10:43:19.434Z</time>
      </trkpt>
      <trkpt lat="65.09699" lon="21.06426">
        <ele>107.879379</ele>
        <time>2020-09-27T10:43:22.370Z</time>
      </trkpt>
      <trkpt lat="65.09694" lon="21.06453">
        <ele>108.111746</ele>
        <time>2020-09-27T10:43:25.386Z</time>
      </trkpt>
      <trkpt lat="65.0969" lon="21.06482">
        <ele>108.347557</ele>
        <time>2020-09-27T10:43:28.375Z</time>
      </trkpt>
      <trkpt lat="65.09686" lon="21.0651">
        <ele>108.57638</ele>
        <time>2020-09-27T10:43:31.364Z</time>
      </trkpt>
      <trkpt lat="65.09684" lon="21.06538">
        <ele>108.807773</ele>
        <time>2020-09-27T10:43:34.382Z</time>
      </trkpt>
      <trkpt lat="65.09681" lon="21.06567">
        <ele>109.041816</ele>
        <time>2020-09-27T10:43:37.373Z</time>
      </trkpt>
      <trkpt lat="65.09679" lon="21.06596">
        <ele>109.27355</ele>
        <time>2020-09-27T10:43:40.372Z</time>
      </trkpt>
      <trkpt lat="65.09677" lon="21.06626">
        <ele>109.507465</ele>
        <time>2020-09-27T10:43:43.376Z</time>
      </trkpt>
      <trkpt lat="65.09675" lon="21.06655">
        <ele>109.83303</ele>
        <time>2020-09-27T10:43:46.375Z</time>
      </trkpt>
      <trkpt lat="65.09674" lon="21.06685">
        <ele>110.248827</ele>
        <time>2020-09-27T10:43:49.403Z</time>
      </trkpt>
      <trkpt lat="65.09672" lon="21.06713">
        <ele>110.642416</ele>
        <time>2020-09-27T10:43:52.367Z</time>
      </trkpt>
      <trkpt lat="65.09669" lon="21.06739">
        <ele>111.005432</ele>
        <time>2020-09-27T10:43:55.365Z</time>
      </trkpt>
      <trkpt lat="65.09668" lon="21.06764">
        <ele>111.355863</ele>
        <time>2020-09-27T10:43:58.407Z</time>
      </trkpt>
      <trkpt lat="65.09666" lon="21.06788">
        <ele>111.684355</ele>
        <time>2020-09-27T10:44:01.385Z</time>
      </trkpt>
      <trkpt lat="65.09665" lon="21.06809">
        <ele>111.985657</ele>
        <time>2020-09-27T10:44:04.371Z</time>
      </trkpt>
      <trkpt lat="65.09662" lon="21.06836">
        <ele>112.36551</ele>
        <time>2020-09-27T10:44:08.406Z</time>
      </trkpt>
      <trkpt lat="65.09661" lon="21.06864">
        <ele>112.749061</ele>
        <time>2020-09-27T10:44:12.373Z</time>
      </trkpt>
      <trkpt lat="65.09659" lon="21.06891">
        <ele>113.119797</ele>
        <time>2020-09-27T10:44:16.385Z</time>
      </trkpt>
      <trkpt lat="65.09658" lon="21.06912">
        <ele>113.41361</ele>
        <time>2020-09-27T10:44:19.387Z</time>
      </trkpt>
      <trkpt lat="65.09657" lon="21.06934">
        <ele>113.726312</ele>
        <time>2020-09-27T10:44:22.415Z</time>
      </trkpt>
      <trkpt lat="65.09655" lon="21.06957">
        <ele>114.038484</ele>
        <time>2020-09-27T10:44:25.367Z</time>
      </trkpt>
      <trkpt lat="65.09654" lon="21.0698">
        <ele>114.361535</ele>
        <time>2020-09-27T10:44:28.408Z</time>
      </trkpt>
      <trkpt lat="65.09652" lon="21.07001">
        <ele>114.656884</ele>
        <time>2020-09-27T10:44:31.391Z</time>
      </trkpt>
      <trkpt lat="65.09651" lon="21.07023">
        <ele>114.96598</ele>
        <time>2020-09-27T10:44:34.415Z</time>
      </trkpt>
      <trkpt lat="65.09649" lon="21.07048">
        <ele>115.314901</ele>
        <time>2020-09-27T10:44:37.397Z</time>
      </trkpt>
      <trkpt lat="65.09648" lon="21.07074">
        <ele>115.391909</ele>
        <time>2020-09-27T10:44:40.373Z</time>
      </trkpt>
      <trkpt lat="65.09645" lon="21.07102">
        <ele>115.186336</ele>
        <time>2020-09-27T10:44:43.364Z</time>
      </trkpt>
      <trkpt lat="65.09643" lon="21.07131">
        <ele>114.965435</ele>
        <time>2020-09-27T10:44:46.367Z</time>
      </trkpt>
      <trkpt lat="65.09642" lon="21.07161">
        <ele>114.743936</ele>
        <time>2020-09-27T10:44:49.375Z</time>
      </trkpt>
      <trkpt lat="65.0964" lon="21.07191">
        <ele>114.511896</ele>
        <time>2020-09-27T10:44:52.397Z</time>
      </trkpt>
      <trkpt lat="65.09638" lon="21.07222">
        <ele>114.282296</ele>
        <time>2020-09-27T10:44:55.370Z</time>
      </trkpt>
      <trkpt lat="65.09637" lon="21.07253">
        <ele>114.052168</ele>
        <time>2020-09-27T10:44:58.379Z</time>
      </trkpt>
      <trkpt lat="65.09635" lon="21.07274">
        <ele>113.891148</ele>
        <time>2020-09-27T10:45:00.371Z</time>
      </trkpt>
      <trkpt lat="65.09634" lon="21.07295">
        <ele>113.732323</ele>
        <time>2020-09-27T10:45:02.386Z</time>
      </trkpt>
      <trkpt lat="65.09632" lon="21.07317">
        <ele>113.572464</ele>
        <time>2020-09-27T10:45:04.371Z</time>
      </trkpt>
      <trkpt lat="65.0963" lon="21.07338">
        <ele>113.414797</ele>
        <time>2020-09-27T10:45:06.371Z</time>
      </trkpt>
      <trkpt lat="65.09628" lon="21.07368">
        <ele>113.183102</ele>
        <time>2020-09-27T10:45:09.403Z</time>
      </trkpt>
      <trkpt lat="65.09624" lon="21.07398">
        <ele>112.952047</ele>
        <time>2020-09-27T10:45:12.405Z</time>
      </trkpt>
      <trkpt lat="65.0962" lon="21.07428">
        <ele>112.718652</ele>
        <time>2020-09-27T10:45:15.374Z</time>
      </trkpt>
      <trkpt lat="65.09615" lon="21.07457">
        <ele>112.49003</ele>
        <time>2020-09-27T10:45:18.382Z</time>
      </trkpt>
      <trkpt lat="65.0961" lon="21.07485">
        <ele>112.276763</ele>
        <time>2020-09-27T10:45:21.375Z</time>
      </trkpt>
      <trkpt lat="65.09604" lon="21.07512">
        <ele>112.10432</ele>
        <time>2020-09-27T10:45:24.393Z</time>
      </trkpt>
      <trkpt lat="65.09597" lon="21.0754">
        <ele>111.929035</ele>
        <time>2020-09-27T10:45:27.371Z</time>
      </trkpt>
      <trkpt lat="65.09593" lon="21.07559">
        <ele>111.811494</ele>
        <time>2020-09-27T10:45:29.400Z</time>
      </trkpt>
      <trkpt lat="65.09588" lon="21.07578">
        <ele>111.692869</ele>
        <time>2020-09-27T10:45:31.377Z</time>
      </trkpt>
      <trkpt lat="65.09584" lon="21.07598">
        <ele>111.571689</ele>
        <time>2020-09-27T10:45:33.378Z</time>
      </trkpt>
      <trkpt lat="65.09579" lon="21.07617">
        <ele>111.449094</ele>
        <time>2020-09-27T10:45:35.436Z</time>
      </trkpt>
      <trkpt lat="65.09574" lon="21.07636">
        <ele>111.326586</ele>
        <time>2020-09-27T10:45:37.379Z</time>
      </trkpt>
      <trkpt lat="65.09569" lon="21.07655">
        <ele>111.205221</ele>
        <time>2020-09-27T10:45:39.391Z</time>
      </trkpt>
      <trkpt lat="65.09564" lon="21.07674">
        <ele>111.084113</ele>
        <time>2020-09-27T10:45:41.363Z</time>
      </trkpt>
      <trkpt lat="65.0956" lon="21.07694">
        <ele>110.959136</ele>
        <time>2020-09-27T10:45:43.381Z</time>
      </trkpt>
      <trkpt lat="65.09555" lon="21.07713">
        <ele>110.835221</ele>
        <time>2020-09-27T10:45:45.383Z</time>
      </trkpt>
      <trkpt lat="65.0955" lon="21.07733">
        <ele>110.709423</ele>
        <time>2020-09-27T10:45:47.394Z</time>
      </trkpt>
      <trkpt lat="65.09545" lon="21.07754">
        <ele>110.578394</ele>
        <time>2020-09-27T10:45:49.385Z</time>
      </trkpt>
      <trkpt lat="65.0954" lon="21.07775">
        <ele>110.445423</ele>
        <time>2020-09-27T10:45:51.380Z</time>
      </trkpt>
      <trkpt lat="65.09535" lon="21.07795">
        <ele>110.318374</ele>
        <time>2020-09-27T10:45:53.385Z</time>
      </trkpt>
      <trkpt lat="65.0953" lon="21.07815">
        <ele>110.194178</ele>
        <time>2020-09-27T10:45:55.370Z</time>
      </trkpt>
      <trkpt lat="65.09526" lon="21.07833">
        <ele>110.074603</ele>
        <time>2020-09-27T10:45:57.386Z</time>
      </trkpt>
      <trkpt lat="65.09519" lon="21.07861">
        <ele>110.01737</ele>
        <time>2020-09-27T10:46:00.381Z</time>
      </trkpt>
      <trkpt lat="65.09514" lon="21.07886">
        <ele>110.086652</ele>
        <time>2020-09-27T10:46:03.379Z</time>
      </trkpt>
      <trkpt lat="65.09508" lon="21.0791">
        <ele>110.153928</ele>
        <time>2020-09-27T10:46:06.368Z</time>
      </trkpt>
      <trkpt lat="65.09503" lon="21.07935">
        <ele>110.222401</ele>
        <time>2020-09-27T10:46:09.372Z</time>
      </trkpt>
      <trkpt lat="65.09497" lon="21.0796">
        <ele>110.291466</ele>
        <time>2020-09-27T10:46:12.389Z</time>
      </trkpt>
      <trkpt lat="65.09492" lon="21.07984">
        <ele>110.359647</ele>
        <time>2020-09-27T10:46:15.421Z</time>
      </trkpt>
      <trkpt lat="65.09486" lon="21.08007">
        <ele>110.425382</ele>
        <time>2020-09-27T10:46:18.386Z</time>
      </trkpt>
      <trkpt lat="65.0948" lon="21.08029">
        <ele>110.487818</ele>
        <time>2020-09-27T10:46:21.392Z</time>
      </trkpt>
      <trkpt lat="65.09474" lon="21.08051">
        <ele>110.552623</ele>
        <time>2020-09-27T10:46:24.386Z</time>
      </trkpt>
      <trkpt lat="65.09469" lon="21.08074">
        <ele>110.617465</ele>
        <time>2020-09-27T10:46:27.375Z</time>
      </trkpt>
      <trkpt lat="65.09463" lon="21.08097">
        <ele>110.682812</ele>
        <time>2020-09-27T10:46:30.397Z</time>
      </trkpt>
      <trkpt lat="65.09457" lon="21.0812">
        <ele>110.748966</ele>
        <time>2020-09-27T10:46:33.386Z</time>
      </trkpt>
      <trkpt lat="65.09451" lon="21.08142">
        <ele>110.811693</ele>
        <time>2020-09-27T10:46:36.376Z</time>
      </trkpt>
      <trkpt lat="65.09446" lon="21.08163">
        <ele>110.873179</ele>
        <time>2020-09-27T10:46:39.382Z</time>
      </trkpt>
      <trkpt lat="65.0944" lon="21.08186">
        <ele>110.936307</ele>
        <time>2020-09-27T10:46:42.387Z</time>
      </trkpt>
      <trkpt lat="65.09435" lon="21.08208">
        <ele>110.997944</ele>
        <time>2020-09-27T10:46:45.367Z</time>
      </trkpt>
      <trkpt lat="65.09429" lon="21.08229">
        <ele>111.003631</ele>
        <time>2020-09-27T10:46:48.426Z</time>
      </trkpt>
      <trkpt lat="65.09424" lon="21.08251">
        <ele>110.954597</ele>
        <time>2020-09-27T10:46:51.398Z</time>
      </trkpt>
      <trkpt lat="65.09418" lon="21.08273">
        <ele>110.906745</ele>
        <time>2020-09-27T10:46:54.396Z</time>
      </trkpt>
      <trkpt lat="65.09412" lon="21.08296">
        <ele>110.85698</ele>
        <time>2020-09-27T10:46:57.395Z</time>
      </trkpt>
      <trkpt lat="65.09407" lon="21.08319">
        <ele>110.807066</ele>
        <time>2020-09-27T10:47:00.418Z</time>
      </trkpt>
      <trkpt lat="65.09402" lon="21.08343">
        <ele>110.755572</ele>
        <time>2020-09-27T10:47:03.371Z</time>
      </trkpt>
      <trkpt lat="65.09396" lon="21.08368">
        <ele>110.703032</ele>
        <time>2020-09-27T10:47:06.403Z</time>
      </trkpt>
      <trkpt lat="65.0939" lon="21.08393">
        <ele>110.648575</ele>
        <time>2020-09-27T10:47:09.377Z</time>
      </trkpt>
      <trkpt lat="65.09385" lon="21.08417">
        <ele>110.595869</ele>
        <time>2020-09-27T10:47:12.381Z</time>
      </trkpt>
      <trkpt lat="65.09378" lon="21.08444">
        <ele>110.53799</ele>
        <time>2020-09-27T10:47:15.372Z</time>
      </trkpt>
      <trkpt lat="65.09372" lon="21.08469">
        <ele>110.482657</ele>
        <time>2020-09-27T10:47:18.381Z</time>
      </trkpt>
      <trkpt lat="65.09365" lon="21.08494">
        <ele>110.427332</ele>
        <time>2020-09-27T10:47:21.370Z</time>
      </trkpt>
      <trkpt lat="65.09359" lon="21.0852">
        <ele>110.370167</ele>
        <time>2020-09-27T10:47:24.367Z</time>
      </trkpt>
      <trkpt lat="65.09353" lon="21.08546">
        <ele>110.314395</ele>
        <time>2020-09-27T10:47:27.360Z</time>
      </trkpt>
      <trkpt lat="65.09346" lon="21.08572">
        <ele>110.258133</ele>
        <time>2020-09-27T10:47:30.375Z</time>
      </trkpt>
      <trkpt lat="65.09339" lon="21.08598">
        <ele>110.26023</ele>
        <time>2020-09-27T10:47:33.370Z</time>
      </trkpt>
      <trkpt lat="65.09333" lon="21.08624">
        <ele>110.349932</ele>
        <time>2020-09-27T10:47:36.367Z</time>
      </trkpt>
      <trkpt lat="65.09328" lon="21.08642">
        <ele>110.41239</ele>
        <time>2020-09-27T10:47:38.390Z</time>
      </trkpt>
      <trkpt lat="65.09322" lon="21.0867">
        <ele>110.50359</ele>
        <time>2020-09-27T10:47:41.370Z</time>
      </trkpt>
      <trkpt lat="65.09315" lon="21.08696">
        <ele>110.592075</ele>
        <time>2020-09-27T10:47:44.370Z</time>
      </trkpt>
      <trkpt lat="65.09309" lon="21.08722">
        <ele>110.679542</ele>
        <time>2020-09-27T10:47:47.377Z</time>
      </trkpt>
      <trkpt lat="65.09303" lon="21.08748">
        <ele>110.767297</ele>
        <time>2020-09-27T10:47:50.380Z</time>
      </trkpt>
      <trkpt lat="65.09297" lon="21.08774">
        <ele>110.853248</ele>
        <time>2020-09-27T10:47:53.374Z</time>
      </trkpt>
      <trkpt lat="65.0929" lon="21.088">
        <ele>110.944926</ele>
        <time>2020-09-27T10:47:56.412Z</time>
      </trkpt>
      <trkpt lat="65.09283" lon="21.08827">
        <ele>111.034289</ele>
        <time>2020-09-27T10:47:59.412Z</time>
      </trkpt>
      <trkpt lat="65.09278" lon="21.08846">
        <ele>111.100325</ele>
        <time>2020-09-27T10:48:01.401Z</time>
      </trkpt>
      <trkpt lat="65.09273" lon="21.08865">
        <ele>111.166712</ele>
        <time>2020-09-27T10:48:03.420Z</time>
      </trkpt>
      <trkpt lat="65.09266" lon="21.08882">
        <ele>111.23302</ele>
        <time>2020-09-27T10:48:05.371Z</time>
      </trkpt>
      <trkpt lat="65.0926" lon="21.089">
        <ele>111.29955</ele>
        <time>2020-09-27T10:48:07.385Z</time>
      </trkpt>
      <trkpt lat="65.09254" lon="21.08916">
        <ele>111.364752</ele>
        <time>2020-09-27T10:48:09.424Z</time>
      </trkpt>
      <trkpt lat="65.09247" lon="21.08932">
        <ele>111.429383</ele>
        <time>2020-09-27T10:48:11.396Z</time>
      </trkpt>
      <trkpt lat="65.0924" lon="21.08947">
        <ele>111.422239</ele>
        <time>2020-09-27T10:48:13.383Z</time>
      </trkpt>
      <trkpt lat="65.09233" lon="21.08963">
        <ele>111.295064</ele>
        <time>2020-09-27T10:48:15.385Z</time>
      </trkpt>
      <trkpt lat="65.09226" lon="21.08978">
        <ele>111.170548</ele>
        <time>2020-09-27T10:48:17.370Z</time>
      </trkpt>
      <trkpt lat="65.09218" lon="21.08993">
        <ele>111.044242</ele>
        <time>2020-09-27T10:48:19.402Z</time>
      </trkpt>
      <trkpt lat="65.09211" lon="21.09008">
        <ele>110.923743</ele>
        <time>2020-09-27T10:48:21.400Z</time>
      </trkpt>
      <trkpt lat="65.09204" lon="21.09023">
        <ele>110.795479</ele>
        <time>2020-09-27T10:48:23.383Z</time>
      </trkpt>
      <trkpt lat="65.09196" lon="21.0904">
        <ele>110.657179</ele>
        <time>2020-09-27T10:48:25.402Z</time>
      </trkpt>
      <trkpt lat="65.09189" lon="21.09057">
        <ele>110.523993</ele>
        <time>2020-09-27T10:48:27.405Z</time>
      </trkpt>
      <trkpt lat="65.09181" lon="21.09073">
        <ele>110.387605</ele>
        <time>2020-09-27T10:48:29.389Z</time>
      </trkpt>
      <trkpt lat="65.09173" lon="21.09089">
        <ele>110.256669</ele>
        <time>2020-09-27T10:48:31.377Z</time>
      </trkpt>
      <trkpt lat="65.09166" lon="21.09104">
        <ele>110.128472</ele>
        <time>2020-09-27T10:48:33.377Z</time>
      </trkpt>
      <trkpt lat="65.09158" lon="21.0912">
        <ele>109.996533</ele>
        <time>2020-09-27T10:48:35.415Z</time>
      </trkpt>
      <trkpt lat="65.0915" lon="21.09136">
        <ele>109.864877</ele>
        <time>2020-09-27T10:48:37.374Z</time>
      </trkpt>
      <trkpt lat="65.09142" lon="21.09151">
        <ele>109.727222</ele>
        <time>2020-09-27T10:48:39.389Z</time>
      </trkpt>
      <trkpt lat="65.09134" lon="21.09166">
        <ele>109.593612</ele>
        <time>2020-09-27T10:48:41.418Z</time>
      </trkpt>
      <trkpt lat="65.09126" lon="21.09182">
        <ele>109.460674</ele>
        <time>2020-09-27T10:48:43.388Z</time>
      </trkpt>
      <trkpt lat="65.09118" lon="21.09197">
        <ele>109.328383</ele>
        <time>2020-09-27T10:48:45.382Z</time>
      </trkpt>
      <trkpt lat="65.0911" lon="21.09213">
        <ele>109.199131</ele>
        <time>2020-09-27T10:48:47.371Z</time>
      </trkpt>
      <trkpt lat="65.09103" lon="21.09228">
        <ele>109.046039</ele>
        <time>2020-09-27T10:48:49.397Z</time>
      </trkpt>
      <trkpt lat="65.09095" lon="21.09242">
        <ele>108.867891</ele>
        <time>2020-09-27T10:48:51.395Z</time>
      </trkpt>
      <trkpt lat="65.09088" lon="21.09258">
        <ele>108.690566</ele>
        <time>2020-09-27T10:48:53.383Z</time>
      </trkpt>
      <trkpt lat="65.0908" lon="21.09272">
        <ele>108.514793</ele>
        <time>2020-09-27T10:48:55.369Z</time>
      </trkpt>
      <trkpt lat="65.09073" lon="21.09289">
        <ele>108.324746</ele>
        <time>2020-09-27T10:48:57.387Z</time>
      </trkpt>
      <trkpt lat="65.09065" lon="21.09305">
        <ele>108.134651</ele>
        <time>2020-09-27T10:48:59.406Z</time>
      </trkpt>
      <trkpt lat="65.09057" lon="21.0932">
        <ele>107.947493</ele>
        <time>2020-09-27T10:49:01.383Z</time>
      </trkpt>
      <trkpt lat="65.09049" lon="21.09335">
        <ele>107.764612</ele>
        <time>2020-09-27T10:49:03.391Z</time>
      </trkpt>
      <trkpt lat="65.09041" lon="21.0935">
        <ele>107.576021</ele>
        <time>2020-09-27T10:49:05.389Z</time>
      </trkpt>
      <trkpt lat="65.09033" lon="21.09365">
        <ele>107.392178</ele>
        <time>2020-09-27T10:49:07.384Z</time>
      </trkpt>
      <trkpt lat="65.09025" lon="21.09379">
        <ele>107.214945</ele>
        <time>2020-09-27T10:49:09.396Z</time>
      </trkpt>
      <trkpt lat="65.09018" lon="21.09395">
        <ele>107.036112</ele>
        <time>2020-09-27T10:49:11.370Z</time>
      </trkpt>
      <trkpt lat="65.09011" lon="21.0941">
        <ele>106.862159</ele>
        <time>2020-09-27T10:49:13.396Z</time>
      </trkpt>
      <trkpt lat="65.09003" lon="21.09426">
        <ele>106.682123</ele>
        <time>2020-09-27T10:49:15.380Z</time>
      </trkpt>
      <trkpt lat="65.08996" lon="21.09442">
        <ele>106.499155</ele>
        <time>2020-09-27T10:49:17.373Z</time>
      </trkpt>
      <trkpt lat="65.08988" lon="21.09457">
        <ele>106.315281</ele>
        <time>2020-09-27T10:49:19.415Z</time>
      </trkpt>
      <trkpt lat="65.0898" lon="21.09473">
        <ele>106.130325</ele>
        <time>2020-09-27T10:49:21.395Z</time>
      </trkpt>
      <trkpt lat="65.08972" lon="21.09488">
        <ele>105.942215</ele>
        <time>2020-09-27T10:49:23.413Z</time>
      </trkpt>
      <trkpt lat="65.08964" lon="21.09504">
        <ele>106.026591</ele>
        <time>2020-09-27T10:49:25.370Z</time>
      </trkpt>
      <trkpt lat="65.08956" lon="21.0952">
        <ele>106.280247</ele>
        <time>2020-09-27T10:49:27.400Z</time>
      </trkpt>
      <trkpt lat="65.08947" lon="21.09536">
        <ele>106.531354</ele>
        <time>2020-09-27T10:49:29.378Z</time>
      </trkpt>
      <trkpt lat="65.0894" lon="21.09551">
        <ele>106.766341</ele>
        <time>2020-09-27T10:49:31.385Z</time>
      </trkpt>
      <trkpt lat="65.08933" lon="21.09565">
        <ele>106.980427</ele>
        <time>2020-09-27T10:49:33.386Z</time>
      </trkpt>
      <trkpt lat="65.08922" lon="21.09585">
        <ele>107.295952</ele>
        <time>2020-09-27T10:49:36.371Z</time>
      </trkpt>
      <trkpt lat="65.08912" lon="21.09605">
        <ele>107.60956</ele>
        <time>2020-09-27T10:49:39.382Z</time>
      </trkpt>
      <trkpt lat="65.08902" lon="21.09625">
        <ele>107.928037</ele>
        <time>2020-09-27T10:49:42.370Z</time>
      </trkpt>
      <trkpt lat="65.08892" lon="21.09644">
        <ele>108.219358</ele>
        <time>2020-09-27T10:49:45.415Z</time>
      </trkpt>
      <trkpt lat="65.08883" lon="21.09663">
        <ele>108.510137</ele>
        <time>2020-09-27T10:49:48.382Z</time>
      </trkpt>
      <trkpt lat="65.08874" lon="21.0968">
        <ele>108.770627</ele>
        <time>2020-09-27T10:49:51.403Z</time>
      </trkpt>
      <trkpt lat="65.08867" lon="21.09696">
        <ele>109.012059</ele>
        <time>2020-09-27T10:49:54.412Z</time>
      </trkpt>
      <trkpt lat="65.08859" lon="21.0971">
        <ele>109.239029</ele>
        <time>2020-09-27T10:49:57.390Z</time>
      </trkpt>
      <trkpt lat="65.08852" lon="21.09724">
        <ele>109.456857</ele>
        <time>2020-09-27T10:50:00.373Z</time>
      </trkpt>
      <trkpt lat="65.08845" lon="21.09739">
        <ele>109.683039</ele>
        <time>2020-09-27T10:50:03.415Z</time>
      </trkpt>
      <trkpt lat="65.08837" lon="21.09755">
        <ele>109.926016</ele>
        <time>2020-09-27T10:50:06.372Z</time>
      </trkpt>
      <trkpt lat="65.0883" lon="21.0977">
        <ele>110.140424</ele>
        <time>2020-09-27T10:50:09.408Z</time>
      </trkpt>
      <trkpt lat="65.08823" lon="21.09785">
        <ele>110.247582</ele>
        <time>2020-09-27T10:50:12.378Z</time>
      </trkpt>
      <trkpt lat="65.08815" lon="21.098">
        <ele>110.358904</ele>
        <time>2020-09-27T10:50:15.391Z</time>
      </trkpt>
      <trkpt lat="65.08807" lon="21.09817">
        <ele>110.477137</ele>
        <time>2020-09-27T10:50:18.393Z</time>
      </trkpt>
      <trkpt lat="65.088" lon="21.09832">
        <ele>110.586624</ele>
        <time>2020-09-27T10:50:21.406Z</time>
      </trkpt>
      <trkpt lat="65.08792" lon="21.09846">
        <ele>110.697261</ele>
        <time>2020-09-27T10:50:24.418Z</time>
      </trkpt>
      <trkpt lat="65.08784" lon="21.09861">
        <ele>110.809968</ele>
        <time>2020-09-27T10:50:27.376Z</time>
      </trkpt>
      <trkpt lat="65.08776" lon="21.09876">
        <ele>110.926472</ele>
        <time>2020-09-27T10:50:30.387Z</time>
      </trkpt>
      <trkpt lat="65.08767" lon="21.09891">
        <ele>111.043907</ele>
        <time>2020-09-27T10:50:33.409Z</time>
      </trkpt>
      <trkpt lat="65.08759" lon="21.09906">
        <ele>111.159834</ele>
        <time>2020-09-27T10:50:36.379Z</time>
      </trkpt>
      <trkpt lat="65.08751" lon="21.09921">
        <ele>111.280822</ele>
        <time>2020-09-27T10:50:39.411Z</time>
      </trkpt>
      <trkpt lat="65.08742" lon="21.09936">
        <ele>111.404402</ele>
        <time>2020-09-27T10:50:42.368Z</time>
      </trkpt>
      <trkpt lat="65.08733" lon="21.09952">
        <ele>111.525908</ele>
        <time>2020-09-27T10:50:45.407Z</time>
      </trkpt>
      <trkpt lat="65.08724" lon="21.09969">
        <ele>111.652407</ele>
        <time>2020-09-27T10:50:48.361Z</time>
      </trkpt>
      <trkpt lat="65.08715" lon="21.09986">
        <ele>111.781232</ele>
        <time>2020-09-27T10:50:51.406Z</time>
      </trkpt>
      <trkpt lat="65.08705" lon="21.1">
        <ele>111.91278</ele>
        <time>2020-09-27T10:50:54.377Z</time>
      </trkpt>
      <trkpt lat="65.08695" lon="21.10015">
        <ele>112.051379</ele>
        <time>2020-09-27T10:50:57.387Z</time>
      </trkpt>
      <trkpt lat="65.08684" lon="21.10031">
        <ele>112.20932</ele>
        <time>2020-09-27T10:51:00.391Z</time>
      </trkpt>
      <trkpt lat="65.08673" lon="21.10048">
        <ele>112.394858</ele>
        <time>2020-09-27T10:51:03.378Z</time>
      </trkpt>
      <trkpt lat="65.08664" lon="21.10065">
        <ele>112.573808</ele>
        <time>2020-09-27T10:51:06.383Z</time>
      </trkpt>
      <trkpt lat="65.08654" lon="21.10081">
        <ele>112.745926</ele>
        <time>2020-09-27T10:51:09.377Z</time>
      </trkpt>
      <trkpt lat="65.08645" lon="21.10097">
        <ele>112.915187</ele>
        <time>2020-09-27T10:51:12.378Z</time>
      </trkpt>
      <trkpt lat="65.08635" lon="21.10115">
        <ele>113.100246</ele>
        <time>2020-09-27T10:51:15.375Z</time>
      </trkpt>
      <trkpt lat="65.08623" lon="21.10132">
        <ele>113.295495</ele>
        <time>2020-09-27T10:51:18.403Z</time>
      </trkpt>
      <trkpt lat="65.08616" lon="21.10145">
        <ele>113.428845</ele>
        <time>2020-09-27T10:51:20.379Z</time>
      </trkpt>
      <trkpt lat="65.08606" lon="21.10164">
        <ele>113.619272</ele>
        <time>2020-09-27T10:51:23.367Z</time>
      </trkpt>
      <trkpt lat="65.08595" lon="21.10182">
        <ele>113.8136</ele>
        <time>2020-09-27T10:51:26.404Z</time>
      </trkpt>
      <trkpt lat="65.08584" lon="21.10201">
        <ele>114.005653</ele>
        <time>2020-09-27T10:51:29.425Z</time>
      </trkpt>
      <trkpt lat="65.08574" lon="21.10218">
        <ele>114.197097</ele>
        <time>2020-09-27T10:51:32.397Z</time>
      </trkpt>
      <trkpt lat="65.08563" lon="21.10236">
        <ele>114.388427</ele>
        <time>2020-09-27T10:51:35.389Z</time>
      </trkpt>
      <trkpt lat="65.08552" lon="21.10254">
        <ele>114.582392</ele>
        <time>2020-09-27T10:51:38.384Z</time>
      </trkpt>
      <trkpt lat="65.08541" lon="21.10273">
        <ele>114.778268</ele>
        <time>2020-09-27T10:51:41.433Z</time>
      </trkpt>
      <trkpt lat="65.08534" lon="21.10286">
        <ele>114.625939</ele>
        <time>2020-09-27T10:51:43.382Z</time>
      </trkpt>
      <trkpt lat="65.08526" lon="21.10299">
        <ele>114.471594</ele>
        <time>2020-09-27T10:51:45.382Z</time>
      </trkpt>
      <trkpt lat="65.08519" lon="21.10312">
        <ele>114.324835</ele>
        <time>2020-09-27T10:51:47.377Z</time>
      </trkpt>
      <trkpt lat="65.08511" lon="21.10325">
        <ele>114.169076</ele>
        <time>2020-09-27T10:51:49.377Z</time>
      </trkpt>
      <trkpt lat="65.08503" lon="21.10338">
        <ele>114.010474</ele>
        <time>2020-09-27T10:51:51.391Z</time>
      </trkpt>
      <trkpt lat="65.08495" lon="21.10351">
        <ele>113.852993</ele>
        <time>2020-09-27T10:51:53.372Z</time>
      </trkpt>
      <trkpt lat="65.08487" lon="21.10365">
        <ele>113.694574</ele>
        <time>2020-09-27T10:51:55.379Z</time>
      </trkpt>
      <trkpt lat="65.0848" lon="21.10378">
        <ele>113.54282</ele>
        <time>2020-09-27T10:51:57.376Z</time>
      </trkpt>
      <trkpt lat="65.08472" lon="21.10391">
        <ele>113.388244</ele>
        <time>2020-09-27T10:51:59.373Z</time>
      </trkpt>
      <trkpt lat="65.08464" lon="21.10403">
        <ele>113.234368</ele>
        <time>2020-09-27T10:52:01.387Z</time>
      </trkpt>
      <trkpt lat="65.08456" lon="21.10416">
        <ele>113.08033</ele>
        <time>2020-09-27T10:52:03.367Z</time>
      </trkpt>
      <trkpt lat="65.08448" lon="21.10429">
        <ele>112.921727</ele>
        <time>2020-09-27T10:52:05.392Z</time>
      </trkpt>
      <trkpt lat="65.0844" lon="21.10442">
        <ele>112.7662</ele>
        <time>2020-09-27T10:52:07.427Z</time>
      </trkpt>
      <trkpt lat="65.08432" lon="21.10455">
        <ele>112.605865</ele>
        <time>2020-09-27T10:52:09.381Z</time>
      </trkpt>
      <trkpt lat="65.08423" lon="21.1047">
        <ele>112.427185</ele>
        <time>2020-09-27T10:52:11.395Z</time>
      </trkpt>
      <trkpt lat="65.08415" lon="21.10486">
        <ele>112.254186</ele>
        <time>2020-09-27T10:52:13.408Z</time>
      </trkpt>
      <trkpt lat="65.08406" lon="21.105">
        <ele>112.086504</ele>
        <time>2020-09-27T10:52:15.385Z</time>
      </trkpt>
      <trkpt lat="65.08398" lon="21.10514">
        <ele>111.919743</ele>
        <time>2020-09-27T10:52:17.391Z</time>
      </trkpt>
      <trkpt lat="65.08389" lon="21.10528">
        <ele>111.741285</ele>
        <time>2020-09-27T10:52:19.402Z</time>
      </trkpt>
      <trkpt lat="65.0838" lon="21.10543">
        <ele>111.558525</ele>
        <time>2020-09-27T10:52:21.385Z</time>
      </trkpt>
      <trkpt lat="65.08372" lon="21.10557">
        <ele>111.382824</ele>
        <time>2020-09-27T10:52:23.398Z</time>
      </trkpt>
      <trkpt lat="65.08363" lon="21.10571">
        <ele>111.203289</ele>
        <time>2020-09-27T10:52:25.390Z</time>
      </trkpt>
      <trkpt lat="65.08354" lon="21.10585">
        <ele>111.018696</ele>
        <time>2020-09-27T10:52:27.379Z</time>
      </trkpt>
      <trkpt lat="65.08345" lon="21.10599">
        <ele>110.832924</ele>
        <time>2020-09-27T10:52:29.425Z</time>
      </trkpt>
      <trkpt lat="65.08335" lon="21.10614">
        <ele>110.638909</ele>
        <time>2020-09-27T10:52:31.383Z</time>
      </trkpt>
      <trkpt lat="65.08326" lon="21.10629">
        <ele>110.448918</ele>
        <time>2020-09-27T10:52:33.373Z</time>
      </trkpt>
      <trkpt lat="65.08317" lon="21.10644">
        <ele>110.258324</ele>
        <time>2020-09-27T10:52:35.417Z</time>
      </trkpt>
      <trkpt lat="65.08308" lon="21.10658">
        <ele>110.072008</ele>
        <time>2020-09-27T10:52:37.385Z</time>
      </trkpt>
      <trkpt lat="65.08299" lon="21.10674">
        <ele>109.882439</ele>
        <time>2020-09-27T10:52:39.398Z</time>
      </trkpt>
      <trkpt lat="65.0829" lon="21.1069">
        <ele>109.696438</ele>
        <time>2020-09-27T10:52:41.470Z</time>
      </trkpt>
      <trkpt lat="65.08281" lon="21.10706">
        <ele>109.507682</ele>
        <time>2020-09-27T10:52:43.387Z</time>
      </trkpt>
      <trkpt lat="65.08272" lon="21.1072">
        <ele>109.324737</ele>
        <time>2020-09-27T10:52:45.409Z</time>
      </trkpt>
      <trkpt lat="65.08263" lon="21.10735">
        <ele>109.137128</ele>
        <time>2020-09-27T10:52:47.389Z</time>
      </trkpt>
      <trkpt lat="65.08254" lon="21.10751">
        <ele>108.946468</ele>
        <time>2020-09-27T10:52:49.413Z</time>
      </trkpt>
      <trkpt lat="65.08246" lon="21.10767">
        <ele>108.754536</ele>
        <time>2020-09-27T10:52:51.384Z</time>
      </trkpt>
      <trkpt lat="65.08237" lon="21.10783">
        <ele>108.519787</ele>
        <time>2020-09-27T10:52:53.402Z</time>
      </trkpt>
      <trkpt lat="65.08227" lon="21.108">
        <ele>108.281969</ele>
        <time>2020-09-27T10:52:55.379Z</time>
      </trkpt>
      <trkpt lat="65.08218" lon="21.10816">
        <ele>108.045561</ele>
        <time>2020-09-27T10:52:57.403Z</time>
      </trkpt>
      <trkpt lat="65.08208" lon="21.10832">
        <ele>107.805123</ele>
        <time>2020-09-27T10:52:59.378Z</time>
      </trkpt>
      <trkpt lat="65.08199" lon="21.10848">
        <ele>107.564886</ele>
        <time>2020-09-27T10:53:01.396Z</time>
      </trkpt>
      <trkpt lat="65.08189" lon="21.10863">
        <ele>107.331642</ele>
        <time>2020-09-27T10:53:03.390Z</time>
      </trkpt>
      <trkpt lat="65.0818" lon="21.10879">
        <ele>107.099051</ele>
        <time>2020-09-27T10:53:05.409Z</time>
      </trkpt>
      <trkpt lat="65.08171" lon="21.10895">
        <ele>106.866567</ele>
        <time>2020-09-27T10:53:07.406Z</time>
      </trkpt>
      <trkpt lat="65.08161" lon="21.10912">
        <ele>106.623167</ele>
        <time>2020-09-27T10:53:09.394Z</time>
      </trkpt>
      <trkpt lat="65.08152" lon="21.10928">
        <ele>106.381522</ele>
        <time>2020-09-27T10:53:11.394Z</time>
      </trkpt>
      <trkpt lat="65.08142" lon="21.10944">
        <ele>106.137442</ele>
        <time>2020-09-27T10:53:13.407Z</time>
      </trkpt>
      <trkpt lat="65.08132" lon="21.1096">
        <ele>105.897203</ele>
        <time>2020-09-27T10:53:15.385Z</time>
      </trkpt>
      <trkpt lat="65.08123" lon="21.10977">
        <ele>105.65559</ele>
        <time>2020-09-27T10:53:17.376Z</time>
      </trkpt>
      <trkpt lat="65.08113" lon="21.10994">
        <ele>105.41406</ele>
        <time>2020-09-27T10:53:19.406Z</time>
      </trkpt>
      <trkpt lat="65.08104" lon="21.1101">
        <ele>105.175486</ele>
        <time>2020-09-27T10:53:21.372Z</time>
      </trkpt>
      <trkpt lat="65.08094" lon="21.11025">
        <ele>104.974627</ele>
        <time>2020-09-27T10:53:23.382Z</time>
      </trkpt>
      <trkpt lat="65.08085" lon="21.11041">
        <ele>104.785819</ele>
        <time>2020-09-27T10:53:25.386Z</time>
      </trkpt>
      <trkpt lat="65.08075" lon="21.11057">
        <ele>104.599367</ele>
        <time>2020-09-27T10:53:27.392Z</time>
      </trkpt>
      <trkpt lat="65.08065" lon="21.11073">
        <ele>104.410428</ele>
        <time>2020-09-27T10:53:29.396Z</time>
      </trkpt>
      <trkpt lat="65.08056" lon="21.11088">
        <ele>104.225514</ele>
        <time>2020-09-27T10:53:31.379Z</time>
      </trkpt>
      <trkpt lat="65.08046" lon="21.11104">
        <ele>104.036963</ele>
        <time>2020-09-27T10:53:33.403Z</time>
      </trkpt>
      <trkpt lat="65.08036" lon="21.11121">
        <ele>103.841571</ele>
        <time>2020-09-27T10:53:35.389Z</time>
      </trkpt>
      <trkpt lat="65.08026" lon="21.11137">
        <ele>103.646178</ele>
        <time>2020-09-27T10:53:37.385Z</time>
      </trkpt>
      <trkpt lat="65.08016" lon="21.11153">
        <ele>103.45211</ele>
        <time>2020-09-27T10:53:39.374Z</time>
      </trkpt>
      <trkpt lat="65.08007" lon="21.1117">
        <ele>103.256875</ele>
        <time>2020-09-27T10:53:41.431Z</time>
      </trkpt>
      <trkpt lat="65.07996" lon="21.11186">
        <ele>103.060532</ele>
        <time>2020-09-27T10:53:43.367Z</time>
      </trkpt>
      <trkpt lat="65.07986" lon="21.11202">
        <ele>102.866662</ele>
        <time>2020-09-27T10:53:45.376Z</time>
      </trkpt>
      <trkpt lat="65.07977" lon="21.11219">
        <ele>102.676651</ele>
        <time>2020-09-27T10:53:47.419Z</time>
      </trkpt>
      <trkpt lat="65.07967" lon="21.11235">
        <ele>102.48324</ele>
        <time>2020-09-27T10:53:49.406Z</time>
      </trkpt>
      <trkpt lat="65.07958" lon="21.11252">
        <ele>102.293515</ele>
        <time>2020-09-27T10:53:51.376Z</time>
      </trkpt>
      <trkpt lat="65.07948" lon="21.11267">
        <ele>102.160565</ele>
        <time>2020-09-27T10:53:53.379Z</time>
      </trkpt>
      <trkpt lat="65.07938" lon="21.11284">
        <ele>102.059465</ele>
        <time>2020-09-27T10:53:55.385Z</time>
      </trkpt>
      <trkpt lat="65.07928" lon="21.11301">
        <ele>101.956695</ele>
        <time>2020-09-27T10:53:57.373Z</time>
      </trkpt>
      <trkpt lat="65.07919" lon="21.11317">
        <ele>101.857098</ele>
        <time>2020-09-27T10:53:59.373Z</time>
      </trkpt>
      <trkpt lat="65.07909" lon="21.11333">
        <ele>101.757616</ele>
        <time>2020-09-27T10:54:01.408Z</time>
      </trkpt>
      <trkpt lat="65.07899" lon="21.11349">
        <ele>101.658222</ele>
        <time>2020-09-27T10:54:03.418Z</time>
      </trkpt>
      <trkpt lat="65.0789" lon="21.11365">
        <ele>101.558625</ele>
        <time>2020-09-27T10:54:05.393Z</time>
      </trkpt>
      <trkpt lat="65.0788" lon="21.11382">
        <ele>101.458138</ele>
        <time>2020-09-27T10:54:07.381Z</time>
      </trkpt>
      <trkpt lat="65.0787" lon="21.11398">
        <ele>101.358399</ele>
        <time>2020-09-27T10:54:09.429Z</time>
      </trkpt>
      <trkpt lat="65.07861" lon="21.11414">
        <ele>101.260377</ele>
        <time>2020-09-27T10:54:11.382Z</time>
      </trkpt>
      <trkpt lat="65.07851" lon="21.1143">
        <ele>101.163716</ele>
        <time>2020-09-27T10:54:13.394Z</time>
      </trkpt>
      <trkpt lat="65.07842" lon="21.11447">
        <ele>101.066672</ele>
        <time>2020-09-27T10:54:15.373Z</time>
      </trkpt>
      <trkpt lat="65.07833" lon="21.11463">
        <ele>100.968915</ele>
        <time>2020-09-27T10:54:17.374Z</time>
      </trkpt>
      <trkpt lat="65.07823" lon="21.11479">
        <ele>100.871301</ele>
        <time>2020-09-27T10:54:19.434Z</time>
      </trkpt>
      <trkpt lat="65.07814" lon="21.11495">
        <ele>100.771907</ele>
        <time>2020-09-27T10:54:21.408Z</time>
      </trkpt>
      <trkpt lat="65.07804" lon="21.11511">
        <ele>100.661186</ele>
        <time>2020-09-27T10:54:23.389Z</time>
      </trkpt>
      <trkpt lat="65.07795" lon="21.11527">
        <ele>100.535225</ele>
        <time>2020-09-27T10:54:25.375Z</time>
      </trkpt>
      <trkpt lat="65.07785" lon="21.11544">
        <ele>100.401798</ele>
        <time>2020-09-27T10:54:27.403Z</time>
      </trkpt>
      <trkpt lat="65.07775" lon="21.11561">
        <ele>100.269763</ele>
        <time>2020-09-27T10:54:29.388Z</time>
      </trkpt>
      <trkpt lat="65.07766" lon="21.11578">
        <ele>100.136895</ele>
        <time>2020-09-27T10:54:31.415Z</time>
      </trkpt>
      <trkpt lat="65.07756" lon="21.11594">
        <ele>100.002511</ele>
        <time>2020-09-27T10:54:33.389Z</time>
      </trkpt>
      <trkpt lat="65.07746" lon="21.1161">
        <ele>99.870931</ele>
        <time>2020-09-27T10:54:35.378Z</time>
      </trkpt>
      <trkpt lat="65.07737" lon="21.11626">
        <ele>99.741203</ele>
        <time>2020-09-27T10:54:37.412Z</time>
      </trkpt>
      <trkpt lat="65.07727" lon="21.11642">
        <ele>99.609892</ele>
        <time>2020-09-27T10:54:39.390Z</time>
      </trkpt>
      <trkpt lat="65.07717" lon="21.11658">
        <ele>99.480294</ele>
        <time>2020-09-27T10:54:41.390Z</time>
      </trkpt>
      <trkpt lat="65.07708" lon="21.11674">
        <ele>99.349893</ele>
        <time>2020-09-27T10:54:43.399Z</time>
      </trkpt>
      <trkpt lat="65.07698" lon="21.11689">
        <ele>99.222481</ele>
        <time>2020-09-27T10:54:45.387Z</time>
      </trkpt>
      <trkpt lat="65.07689" lon="21.11705">
        <ele>99.098039</ele>
        <time>2020-09-27T10:54:47.397Z</time>
      </trkpt>
      <trkpt lat="65.07681" lon="21.11721">
        <ele>98.975324</ele>
        <time>2020-09-27T10:54:49.373Z</time>
      </trkpt>
      <trkpt lat="65.07672" lon="21.11736">
        <ele>98.853342</ele>
        <time>2020-09-27T10:54:51.386Z</time>
      </trkpt>
      <trkpt lat="65.07663" lon="21.11751">
        <ele>98.731359</ele>
        <time>2020-09-27T10:54:53.394Z</time>
      </trkpt>
      <trkpt lat="65.07653" lon="21.11765">
        <ele>98.672478</ele>
        <time>2020-09-27T10:54:55.391Z</time>
      </trkpt>
      <trkpt lat="65.07645" lon="21.11779">
        <ele>98.627818</ele>
        <time>2020-09-27T10:54:57.374Z</time>
      </trkpt>
      <trkpt lat="65.07636" lon="21.11795">
        <ele>98.582211</ele>
        <time>2020-09-27T10:54:59.386Z</time>
      </trkpt>
      <trkpt lat="65.07627" lon="21.1181">
        <ele>98.536164</ele>
        <time>2020-09-27T10:55:01.402Z</time>
      </trkpt>
      <trkpt lat="65.07617" lon="21.11825">
        <ele>98.489394</ele>
        <time>2020-09-27T10:55:03.368Z</time>
      </trkpt>
      <trkpt lat="65.07608" lon="21.1184">
        <ele>98.442804</ele>
        <time>2020-09-27T10:55:05.389Z</time>
      </trkpt>
      <trkpt lat="65.07599" lon="21.11856">
        <ele>98.395295</ele>
        <time>2020-09-27T10:55:07.370Z</time>
      </trkpt>
      <trkpt lat="65.0759" lon="21.11871">
        <ele>98.34911</ele>
        <time>2020-09-27T10:55:09.397Z</time>
      </trkpt>
      <trkpt lat="65.07581" lon="21.11886">
        <ele>98.302783</ele>
        <time>2020-09-27T10:55:11.377Z</time>
      </trkpt>
      <trkpt lat="65.07571" lon="21.11901">
        <ele>98.255753</ele>
        <time>2020-09-27T10:55:13.380Z</time>
      </trkpt>
      <trkpt lat="65.07562" lon="21.11917">
        <ele>98.209189</ele>
        <time>2020-09-27T10:55:15.411Z</time>
      </trkpt>
      <trkpt lat="65.07553" lon="21.11932">
        <ele>98.163446</ele>
        <time>2020-09-27T10:55:17.387Z</time>
      </trkpt>
      <trkpt lat="65.07545" lon="21.11947">
        <ele>98.118949</ele>
        <time>2020-09-27T10:55:19.382Z</time>
      </trkpt>
      <trkpt lat="65.07536" lon="21.11962">
        <ele>98.07466</ele>
        <time>2020-09-27T10:55:21.377Z</time>
      </trkpt>
      <trkpt lat="65.07527" lon="21.11977">
        <ele>98.029798</ele>
        <time>2020-09-27T10:55:23.384Z</time>
      </trkpt>
      <trkpt lat="65.07519" lon="21.11992">
        <ele>97.984293</ele>
        <time>2020-09-27T10:55:25.409Z</time>
      </trkpt>
      <trkpt lat="65.07509" lon="21.12007">
        <ele>97.889436</ele>
        <time>2020-09-27T10:55:27.373Z</time>
      </trkpt>
      <trkpt lat="65.075" lon="21.12022">
        <ele>97.749805</ele>
        <time>2020-09-27T10:55:29.407Z</time>
      </trkpt>
      <trkpt lat="65.07491" lon="21.12036">
        <ele>97.610475</ele>
        <time>2020-09-27T10:55:31.384Z</time>
      </trkpt>
      <trkpt lat="65.07482" lon="21.12051">
        <ele>97.472915</ele>
        <time>2020-09-27T10:55:33.377Z</time>
      </trkpt>
      <trkpt lat="65.07473" lon="21.12067">
        <ele>97.332064</ele>
        <time>2020-09-27T10:55:35.388Z</time>
      </trkpt>
      <trkpt lat="65.07464" lon="21.12081">
        <ele>97.192734</ele>
        <time>2020-09-27T10:55:37.419Z</time>
      </trkpt>
      <trkpt lat="65.07455" lon="21.12097">
        <ele>97.055582</ele>
        <time>2020-09-27T10:55:39.376Z</time>
      </trkpt>
      <trkpt lat="65.07446" lon="21.12111">
        <ele>96.916098</ele>
        <time>2020-09-27T10:55:41.409Z</time>
      </trkpt>
      <trkpt lat="65.07437" lon="21.12127">
        <ele>96.774628</ele>
        <time>2020-09-27T10:55:43.375Z</time>
      </trkpt>
      <trkpt lat="65.07428" lon="21.12142">
        <ele>96.63723</ele>
        <time>2020-09-27T10:55:45.382Z</time>
      </trkpt>
      <trkpt lat="65.07419" lon="21.12158">
        <ele>96.495448</ele>
        <time>2020-09-27T10:55:47.376Z</time>
      </trkpt>
      <trkpt lat="65.0741" lon="21.12173">
        <ele>96.355314</ele>
        <time>2020-09-27T10:55:49.401Z</time>
      </trkpt>
      <trkpt lat="65.07401" lon="21.12188">
        <ele>96.212392</ele>
        <time>2020-09-27T10:55:51.401Z</time>
      </trkpt>
      <trkpt lat="65.07391" lon="21.12204">
        <ele>96.068732</ele>
        <time>2020-09-27T10:55:53.373Z</time>
      </trkpt>
      <trkpt lat="65.07382" lon="21.12219">
        <ele>95.926233</ele>
        <time>2020-09-27T10:55:55.383Z</time>
      </trkpt>
      <trkpt lat="65.07373" lon="21.12235">
        <ele>95.78075</ele>
        <time>2020-09-27T10:55:57.385Z</time>
      </trkpt>
      <trkpt lat="65.07363" lon="21.1225">
        <ele>95.644877</ele>
        <time>2020-09-27T10:55:59.385Z</time>
      </trkpt>
      <trkpt lat="65.07354" lon="21.12266">
        <ele>95.52117</ele>
        <time>2020-09-27T10:56:01.397Z</time>
      </trkpt>
      <trkpt lat="65.07344" lon="21.12282">
        <ele>95.398422</ele>
        <time>2020-09-27T10:56:03.413Z</time>
      </trkpt>
      <trkpt lat="65.07335" lon="21.12298">
        <ele>95.273214</ele>
        <time>2020-09-27T10:56:05.426Z</time>
      </trkpt>
      <trkpt lat="65.07326" lon="21.12315">
        <ele>95.1494</ele>
        <time>2020-09-27T10:56:07.424Z</time>
      </trkpt>
      <trkpt lat="65.07316" lon="21.1233">
        <ele>95.025176</ele>
        <time>2020-09-27T10:56:09.385Z</time>
      </trkpt>
      <trkpt lat="65.07307" lon="21.12346">
        <ele>94.903557</ele>
        <time>2020-09-27T10:56:11.375Z</time>
      </trkpt>
      <trkpt lat="65.07297" lon="21.12362">
        <ele>94.777835</ele>
        <time>2020-09-27T10:56:13.408Z</time>
      </trkpt>
      <trkpt lat="65.07288" lon="21.12377">
        <ele>94.653871</ele>
        <time>2020-09-27T10:56:15.383Z</time>
      </trkpt>
      <trkpt lat="65.07278" lon="21.12393">
        <ele>94.531038</ele>
        <time>2020-09-27T10:56:17.391Z</time>
      </trkpt>
      <trkpt lat="65.07269" lon="21.12409">
        <ele>94.405938</ele>
        <time>2020-09-27T10:56:19.379Z</time>
      </trkpt>
      <trkpt lat="65.07259" lon="21.12425">
        <ele>94.278143</ele>
        <time>2020-09-27T10:56:21.411Z</time>
      </trkpt>
      <trkpt lat="65.07249" lon="21.12442">
        <ele>94.149479</ele>
        <time>2020-09-27T10:56:23.378Z</time>
      </trkpt>
      <trkpt lat="65.07239" lon="21.12458">
        <ele>94.017184</ele>
        <time>2020-09-27T10:56:25.369Z</time>
      </trkpt>
      <trkpt lat="65.07229" lon="21.12475">
        <ele>93.885641</ele>
        <time>2020-09-27T10:56:27.377Z</time>
      </trkpt>
      <trkpt lat="65.07219" lon="21.12492">
        <ele>93.764065</ele>
        <time>2020-09-27T10:56:29.415Z</time>
      </trkpt>
      <trkpt lat="65.07209" lon="21.12508">
        <ele>93.721566</ele>
        <time>2020-09-27T10:56:31.374Z</time>
      </trkpt>
      <trkpt lat="65.07199" lon="21.12526">
        <ele>93.678761</ele>
        <time>2020-09-27T10:56:33.394Z</time>
      </trkpt>
      <trkpt lat="65.07189" lon="21.12542">
        <ele>93.637007</ele>
        <time>2020-09-27T10:56:35.388Z</time>
      </trkpt>
      <trkpt lat="65.0718" lon="21.12559">
        <ele>93.594623</ele>
        <time>2020-09-27T10:56:37.372Z</time>
      </trkpt>
      <trkpt lat="65.0717" lon="21.12574">
        <ele>93.552918</ele>
        <time>2020-09-27T10:56:39.385Z</time>
      </trkpt>
      <trkpt lat="65.0716" lon="21.12591">
        <ele>93.511756</ele>
        <time>2020-09-27T10:56:41.436Z</time>
      </trkpt>
      <trkpt lat="65.07151" lon="21.12607">
        <ele>93.471576</ele>
        <time>2020-09-27T10:56:43.389Z</time>
      </trkpt>
      <trkpt lat="65.07141" lon="21.12623">
        <ele>93.430161</ele>
        <time>2020-09-27T10:56:45.381Z</time>
      </trkpt>
      <trkpt lat="65.07132" lon="21.12638">
        <ele>93.388951</ele>
        <time>2020-09-27T10:56:47.405Z</time>
      </trkpt>
      <trkpt lat="65.07122" lon="21.12654">
        <ele>93.347163</ele>
        <time>2020-09-27T10:56:49.382Z</time>
      </trkpt>
      <trkpt lat="65.07113" lon="21.1267">
        <ele>93.306829</ele>
        <time>2020-09-27T10:56:51.379Z</time>
      </trkpt>
      <trkpt lat="65.07104" lon="21.12686">
        <ele>93.267392</ele>
        <time>2020-09-27T10:56:53.382Z</time>
      </trkpt>
      <trkpt lat="65.07094" lon="21.12701">
        <ele>93.228041</ele>
        <time>2020-09-27T10:56:55.389Z</time>
      </trkpt>
      <trkpt lat="65.07085" lon="21.12717">
        <ele>93.188145</ele>
        <time>2020-09-27T10:56:57.401Z</time>
      </trkpt>
      <trkpt lat="65.07076" lon="21.12733">
        <ele>93.148221</ele>
        <time>2020-09-27T10:56:59.389Z</time>
      </trkpt>
      <trkpt lat="65.07067" lon="21.12748">
        <ele>93.158034</ele>
        <time>2020-09-27T10:57:01.386Z</time>
      </trkpt>
      <trkpt lat="65.07058" lon="21.12762">
        <ele>93.188384</ele>
        <time>2020-09-27T10:57:03.398Z</time>
      </trkpt>
      <trkpt lat="65.07049" lon="21.12777">
        <ele>93.218641</ele>
        <time>2020-09-27T10:57:05.380Z</time>
      </trkpt>
      <trkpt lat="65.07039" lon="21.12792">
        <ele>93.250077</ele>
        <time>2020-09-27T10:57:07.398Z</time>
      </trkpt>
      <trkpt lat="65.0703" lon="21.12807">
        <ele>93.280855</ele>
        <time>2020-09-27T10:57:09.395Z</time>
      </trkpt>
      <trkpt lat="65.07021" lon="21.12822">
        <ele>93.311339</ele>
        <time>2020-09-27T10:57:11.372Z</time>
      </trkpt>
      <trkpt lat="65.07012" lon="21.12837">
        <ele>93.342184</ele>
        <time>2020-09-27T10:57:13.407Z</time>
      </trkpt>
      <trkpt lat="65.07003" lon="21.12853">
        <ele>93.373819</ele>
        <time>2020-09-27T10:57:15.397Z</time>
      </trkpt>
      <trkpt lat="65.06994" lon="21.12869">
        <ele>93.404799</ele>
        <time>2020-09-27T10:57:17.404Z</time>
      </trkpt>
      <trkpt lat="65.06985" lon="21.12884">
        <ele>93.435246</ele>
        <time>2020-09-27T10:57:19.407Z</time>
      </trkpt>
      <trkpt lat="65.06976" lon="21.12899">
        <ele>93.465572</ele>
        <time>2020-09-27T10:57:21.428Z</time>
      </trkpt>
      <trkpt lat="65.06967" lon="21.12914">
        <ele>93.495134</ele>
        <time>2020-09-27T10:57:23.382Z</time>
      </trkpt>
      <trkpt lat="65.06958" lon="21.12927">
        <ele>93.525131</ele>
        <time>2020-09-27T10:57:25.384Z</time>
      </trkpt>
      <trkpt lat="65.06949" lon="21.12942">
        <ele>93.555975</ele>
        <time>2020-09-27T10:57:27.392Z</time>
      </trkpt>
      <trkpt lat="65.0694" lon="21.12956">
        <ele>93.586755</ele>
        <time>2020-09-27T10:57:29.409Z</time>
      </trkpt>
      <trkpt lat="65.06931" lon="21.12972">
        <ele>93.617217</ele>
        <time>2020-09-27T10:57:31.374Z</time>
      </trkpt>
      <trkpt lat="65.06922" lon="21.12987">
        <ele>93.531832</ele>
        <time>2020-09-27T10:57:33.399Z</time>
      </trkpt>
      <trkpt lat="65.06913" lon="21.13003">
        <ele>93.288686</ele>
        <time>2020-09-27T10:57:35.371Z</time>
      </trkpt>
      <trkpt lat="65.06904" lon="21.13018">
        <ele>93.035972</ele>
        <time>2020-09-27T10:57:37.376Z</time>
      </trkpt>
      <trkpt lat="65.06895" lon="21.13034">
        <ele>92.783812</ele>
        <time>2020-09-27T10:57:39.379Z</time>
      </trkpt>
      <trkpt lat="65.06886" lon="21.13049">
        <ele>92.539331</ele>
        <time>2020-09-27T10:57:41.401Z</time>
      </trkpt>
      <trkpt lat="65.06878" lon="21.13064">
        <ele>92.303764</ele>
        <time>2020-09-27T10:57:43.371Z</time>
      </trkpt>
      <trkpt lat="65.06869" lon="21.13079">
        <ele>92.062581</ele>
        <time>2020-09-27T10:57:45.406Z</time>
      </trkpt>
      <trkpt lat="65.0686" lon="21.13093">
        <ele>91.819759</ele>
        <time>2020-09-27T10:57:47.374Z</time>
      </trkpt>
      <trkpt lat="65.06851" lon="21.13108">
        <ele>91.570883</ele>
        <time>2020-09-27T10:57:49.394Z</time>
      </trkpt>
      <trkpt lat="65.06842" lon="21.13124">
        <ele>91.316697</ele>
        <time>2020-09-27T10:57:51.382Z</time>
      </trkpt>
      <trkpt lat="65.06832" lon="21.13139">
        <ele>91.057472</ele>
        <time>2020-09-27T10:57:53.371Z</time>
      </trkpt>
      <trkpt lat="65.06823" lon="21.13154">
        <ele>90.801166</ele>
        <time>2020-09-27T10:57:55.386Z</time>
      </trkpt>
      <trkpt lat="65.06813" lon="21.13169">
        <ele>90.549118</ele>
        <time>2020-09-27T10:57:57.422Z</time>
      </trkpt>
      <trkpt lat="65.06804" lon="21.13183">
        <ele>90.298317</ele>
        <time>2020-09-27T10:57:59.372Z</time>
      </trkpt>
      <trkpt lat="65.06795" lon="21.13197">
        <ele>90.051285</ele>
        <time>2020-09-27T10:58:01.408Z</time>
      </trkpt>
      <trkpt lat="65.06785" lon="21.13211">
        <ele>89.806429</ele>
        <time>2020-09-27T10:58:03.373Z</time>
      </trkpt>
      <trkpt lat="65.06776" lon="21.13223">
        <ele>89.613788</ele>
        <time>2020-09-27T10:58:05.376Z</time>
      </trkpt>
      <trkpt lat="65.06766" lon="21.13235">
        <ele>89.733866</ele>
        <time>2020-09-27T10:58:07.382Z</time>
      </trkpt>
      <trkpt lat="65.06756" lon="21.13247">
        <ele>89.853864</ele>
        <time>2020-09-27T10:58:09.410Z</time>
      </trkpt>
      <trkpt lat="65.06746" lon="21.13258">
        <ele>89.968413</ele>
        <time>2020-09-27T10:58:11.387Z</time>
      </trkpt>
      <trkpt lat="65.06737" lon="21.13268">
        <ele>90.079854</ele>
        <time>2020-09-27T10:58:13.401Z</time>
      </trkpt>
      <trkpt lat="65.06727" lon="21.13278">
        <ele>90.187475</ele>
        <time>2020-09-27T10:58:15.373Z</time>
      </trkpt>
      <trkpt lat="65.06718" lon="21.13287">
        <ele>90.295726</ele>
        <time>2020-09-27T10:58:17.365Z</time>
      </trkpt>
      <trkpt lat="65.06709" lon="21.13295">
        <ele>90.40315</ele>
        <time>2020-09-27T10:58:19.422Z</time>
      </trkpt>
      <trkpt lat="65.06699" lon="21.13304">
        <ele>90.511707</ele>
        <time>2020-09-27T10:58:21.371Z</time>
      </trkpt>
      <trkpt lat="65.0669" lon="21.13313">
        <ele>90.618444</ele>
        <time>2020-09-27T10:58:23.405Z</time>
      </trkpt>
      <trkpt lat="65.06681" lon="21.13321">
        <ele>90.722854</ele>
        <time>2020-09-27T10:58:25.375Z</time>
      </trkpt>
      <trkpt lat="65.06672" lon="21.13329">
        <ele>90.827104</ele>
        <time>2020-09-27T10:58:27.424Z</time>
      </trkpt>
      <trkpt lat="65.06663" lon="21.13337">
        <ele>90.930351</ele>
        <time>2020-09-27T10:58:29.380Z</time>
      </trkpt>
      <trkpt lat="65.06654" lon="21.13345">
        <ele>91.033829</ele>
        <time>2020-09-27T10:58:31.398Z</time>
      </trkpt>
      <trkpt lat="65.06644" lon="21.13352">
        <ele>91.137458</ele>
        <time>2020-09-27T10:58:33.398Z</time>
      </trkpt>
      <trkpt lat="65.06635" lon="21.13359">
        <ele>91.243688</ele>
        <time>2020-09-27T10:58:35.374Z</time>
      </trkpt>
      <trkpt lat="65.06625" lon="21.13366">
        <ele>91.351411</ele>
        <time>2020-09-27T10:58:37.395Z</time>
      </trkpt>
      <trkpt lat="65.06616" lon="21.13373">
        <ele>91.455927</ele>
        <time>2020-09-27T10:58:39.379Z</time>
      </trkpt>
      <trkpt lat="65.06607" lon="21.1338">
        <ele>91.60399</ele>
        <time>2020-09-27T10:58:41.393Z</time>
      </trkpt>
      <trkpt lat="65.06598" lon="21.13387">
        <ele>91.836556</ele>
        <time>2020-09-27T10:58:43.375Z</time>
      </trkpt>
      <trkpt lat="65.06589" lon="21.13394">
        <ele>92.057261</ele>
        <time>2020-09-27T10:58:45.375Z</time>
      </trkpt>
      <trkpt lat="65.0658" lon="21.134">
        <ele>92.283347</ele>
        <time>2020-09-27T10:58:47.375Z</time>
      </trkpt>
      <trkpt lat="65.06572" lon="21.13407">
        <ele>92.50741</ele>
        <time>2020-09-27T10:58:49.390Z</time>
      </trkpt>
      <trkpt lat="65.06563" lon="21.13413">
        <ele>92.735244</ele>
        <time>2020-09-27T10:58:51.392Z</time>
      </trkpt>
      <trkpt lat="65.06553" lon="21.13419">
        <ele>92.96832</ele>
        <time>2020-09-27T10:58:53.390Z</time>
      </trkpt>
      <trkpt lat="65.06544" lon="21.13426">
        <ele>93.201109</ele>
        <time>2020-09-27T10:58:55.397Z</time>
      </trkpt>
      <trkpt lat="65.06535" lon="21.13432">
        <ele>93.435955</ele>
        <time>2020-09-27T10:58:57.381Z</time>
      </trkpt>
      <trkpt lat="65.06526" lon="21.13439">
        <ele>93.673152</ele>
        <time>2020-09-27T10:58:59.406Z</time>
      </trkpt>
      <trkpt lat="65.06516" lon="21.13446">
        <ele>93.91066</ele>
        <time>2020-09-27T10:59:01.378Z</time>
      </trkpt>
      <trkpt lat="65.06507" lon="21.13453">
        <ele>94.142297</ele>
        <time>2020-09-27T10:59:03.406Z</time>
      </trkpt>
      <trkpt lat="65.06498" lon="21.13459">
        <ele>94.373632</ele>
        <time>2020-09-27T10:59:05.392Z</time>
      </trkpt>
      <trkpt lat="65.06489" lon="21.13465">
        <ele>94.598563</ele>
        <time>2020-09-27T10:59:07.403Z</time>
      </trkpt>
      <trkpt lat="65.0648" lon="21.13471">
        <ele>94.832334</ele>
        <time>2020-09-27T10:59:09.376Z</time>
      </trkpt>
      <trkpt lat="65.06471" lon="21.13477">
        <ele>95.05203</ele>
        <time>2020-09-27T10:59:11.376Z</time>
      </trkpt>
      <trkpt lat="65.06459" lon="21.13486">
        <ele>95.365872</ele>
        <time>2020-09-27T10:59:14.425Z</time>
      </trkpt>
      <trkpt lat="65.06446" lon="21.13495">
        <ele>95.687518</ele>
        <time>2020-09-27T10:59:17.375Z</time>
      </trkpt>
      <trkpt lat="65.06434" lon="21.13504">
        <ele>95.897146</ele>
        <time>2020-09-27T10:59:20.384Z</time>
      </trkpt>
      <trkpt lat="65.06422" lon="21.13512">
        <ele>95.897444</ele>
        <time>2020-09-27T10:59:23.433Z</time>
      </trkpt>
      <trkpt lat="65.06411" lon="21.1352">
        <ele>95.897732</ele>
        <time>2020-09-27T10:59:26.407Z</time>
      </trkpt>
      <trkpt lat="65.064" lon="21.13528">
        <ele>95.898014</ele>
        <time>2020-09-27T10:59:29.378Z</time>
      </trkpt>
      <trkpt lat="65.06388" lon="21.13536">
        <ele>95.898313</ele>
        <time>2020-09-27T10:59:32.373Z</time>
      </trkpt>
      <trkpt lat="65.06375" lon="21.13546">
        <ele>95.898631</ele>
        <time>2020-09-27T10:59:35.387Z</time>
      </trkpt>
      <trkpt lat="65.06366" lon="21.13552">
        <ele>95.898857</ele>
        <time>2020-09-27T10:59:37.368Z</time>
      </trkpt>
      <trkpt lat="65.06357" lon="21.13557">
        <ele>95.899085</ele>
        <time>2020-09-27T10:59:39.378Z</time>
      </trkpt>
      <trkpt lat="65.06348" lon="21.13564">
        <ele>95.899309</ele>
        <time>2020-09-27T10:59:41.396Z</time>
      </trkpt>
      <trkpt lat="65.06339" lon="21.13571">
        <ele>95.899537</ele>
        <time>2020-09-27T10:59:43.402Z</time>
      </trkpt>
      <trkpt lat="65.0633" lon="21.13577">
        <ele>95.899765</ele>
        <time>2020-09-27T10:59:45.398Z</time>
      </trkpt>
      <trkpt lat="65.06322" lon="21.13584">
        <ele>95.899986</ele>
        <time>2020-09-27T10:59:47.389Z</time>
      </trkpt>
      <trkpt lat="65.06309" lon="21.13593">
        <ele>95.900304</ele>
        <time>2020-09-27T10:59:50.387Z</time>
      </trkpt>
      <trkpt lat="65.063" lon="21.136">
        <ele>95.900529</ele>
        <time>2020-09-27T10:59:52.386Z</time>
      </trkpt>
      <trkpt lat="65.06292" lon="21.13607">
        <ele>95.900749</ele>
        <time>2020-09-27T10:59:54.382Z</time>
      </trkpt>
      <trkpt lat="65.06283" lon="21.13613">
        <ele>95.900965</ele>
        <time>2020-09-27T10:59:56.387Z</time>
      </trkpt>
      <trkpt lat="65.06274" lon="21.1362">
        <ele>95.901187</ele>
        <time>2020-09-27T10:59:58.406Z</time>
      </trkpt>
      <trkpt lat="65.06262" lon="21.13628">
        <ele>95.885475</ele>
        <time>2020-09-27T11:00:01.381Z</time>
      </trkpt>
      <trkpt lat="65.0625" lon="21.13637">
        <ele>95.839706</ele>
        <time>2020-09-27T11:00:04.406Z</time>
      </trkpt>
      <trkpt lat="65.06238" lon="21.13645">
        <ele>95.795371</ele>
        <time>2020-09-27T11:00:07.383Z</time>
      </trkpt>
      <trkpt lat="65.06227" lon="21.13653">
        <ele>95.752814</ele>
        <time>2020-09-27T11:00:10.409Z</time>
      </trkpt>
      <trkpt lat="65.06216" lon="21.13662">
        <ele>95.711984</ele>
        <time>2020-09-27T11:00:13.410Z</time>
      </trkpt>
      <trkpt lat="65.06205" lon="21.13669">
        <ele>95.671732</ele>
        <time>2020-09-27T11:00:16.402Z</time>
      </trkpt>
      <trkpt lat="65.06194" lon="21.13676">
        <ele>95.628984</ele>
        <time>2020-09-27T11:00:19.393Z</time>
      </trkpt>
      <trkpt lat="65.06182" lon="21.13684">
        <ele>95.585562</ele>
        <time>2020-09-27T11:00:22.401Z</time>
      </trkpt>
      <trkpt lat="65.06171" lon="21.13693">
        <ele>95.540531</ele>
        <time>2020-09-27T11:00:25.397Z</time>
      </trkpt>
      <trkpt lat="65.06158" lon="21.13701">
        <ele>95.491891</ele>
        <time>2020-09-27T11:00:28.382Z</time>
      </trkpt>
      <trkpt lat="65.06149" lon="21.13708">
        <ele>95.458291</ele>
        <time>2020-09-27T11:00:30.392Z</time>
      </trkpt>
      <trkpt lat="65.0614" lon="21.13714">
        <ele>95.423561</ele>
        <time>2020-09-27T11:00:32.396Z</time>
      </trkpt>
      <trkpt lat="65.0613" lon="21.13721">
        <ele>95.388032</ele>
        <time>2020-09-27T11:00:34.384Z</time>
      </trkpt>
      <trkpt lat="65.06121" lon="21.13728">
        <ele>95.352206</ele>
        <time>2020-09-27T11:00:36.406Z</time>
      </trkpt>
      <trkpt lat="65.06111" lon="21.13735">
        <ele>95.315341</ele>
        <time>2020-09-27T11:00:38.393Z</time>
      </trkpt>
      <trkpt lat="65.06101" lon="21.13742">
        <ele>95.278308</ele>
        <time>2020-09-27T11:00:40.412Z</time>
      </trkpt>
      <trkpt lat="65.06091" lon="21.13749">
        <ele>95.202763</ele>
        <time>2020-09-27T11:00:42.414Z</time>
      </trkpt>
      <trkpt lat="65.06081" lon="21.13757">
        <ele>95.001277</ele>
        <time>2020-09-27T11:00:44.416Z</time>
      </trkpt>
      <trkpt lat="65.06072" lon="21.13764">
        <ele>94.805935</ele>
        <time>2020-09-27T11:00:46.407Z</time>
      </trkpt>
      <trkpt lat="65.06062" lon="21.1377">
        <ele>94.615211</ele>
        <time>2020-09-27T11:00:48.368Z</time>
      </trkpt>
      <trkpt lat="65.06053" lon="21.13777">
        <ele>94.42957</ele>
        <time>2020-09-27T11:00:50.368Z</time>
      </trkpt>
      <trkpt lat="65.06044" lon="21.13784">
        <ele>94.253125</ele>
        <time>2020-09-27T11:00:52.403Z</time>
      </trkpt>
      <trkpt lat="65.06036" lon="21.1379">
        <ele>94.079502</ele>
        <time>2020-09-27T11:00:54.425Z</time>
      </trkpt>
      <trkpt lat="65.06027" lon="21.13796">
        <ele>93.905879</ele>
        <time>2020-09-27T11:00:56.409Z</time>
      </trkpt>
      <trkpt lat="65.06018" lon="21.13802">
        <ele>93.727402</ele>
        <time>2020-09-27T11:00:58.398Z</time>
      </trkpt>
      <trkpt lat="65.06009" lon="21.13808">
        <ele>93.547921</ele>
        <time>2020-09-27T11:01:00.412Z</time>
      </trkpt>
      <trkpt lat="65.06" lon="21.13814">
        <ele>93.360901</ele>
        <time>2020-09-27T11:01:02.406Z</time>
      </trkpt>
      <trkpt lat="65.0599" lon="21.13821">
        <ele>93.171332</ele>
        <time>2020-09-27T11:01:04.385Z</time>
      </trkpt>
      <trkpt lat="65.05981" lon="21.13828">
        <ele>92.979441</ele>
        <time>2020-09-27T11:01:06.402Z</time>
      </trkpt>
      <trkpt lat="65.05971" lon="21.13835">
        <ele>92.786638</ele>
        <time>2020-09-27T11:01:08.379Z</time>
      </trkpt>
      <trkpt lat="65.05962" lon="21.13841">
        <ele>92.595687</ele>
        <time>2020-09-27T11:01:10.401Z</time>
      </trkpt>
      <trkpt lat="65.05952" lon="21.13848">
        <ele>92.404272</ele>
        <time>2020-09-27T11:01:12.426Z</time>
      </trkpt>
      <trkpt lat="65.05943" lon="21.13855">
        <ele>92.221313</ele>
        <time>2020-09-27T11:01:14.384Z</time>
      </trkpt>
      <trkpt lat="65.05935" lon="21.13862">
        <ele>92.045118</ele>
        <time>2020-09-27T11:01:16.380Z</time>
      </trkpt>
      <trkpt lat="65.05926" lon="21.13868">
        <ele>91.871494</ele>
        <time>2020-09-27T11:01:18.391Z</time>
      </trkpt>
      <trkpt lat="65.05917" lon="21.13874">
        <ele>91.77201</ele>
        <time>2020-09-27T11:01:20.412Z</time>
      </trkpt>
      <trkpt lat="65.05908" lon="21.13881">
        <ele>91.756281</ele>
        <time>2020-09-27T11:01:22.377Z</time>
      </trkpt>
      <trkpt lat="65.059" lon="21.13888">
        <ele>91.74021</ele>
        <time>2020-09-27T11:01:24.405Z</time>
      </trkpt>
      <trkpt lat="65.05891" lon="21.13895">
        <ele>91.724186</ele>
        <time>2020-09-27T11:01:26.387Z</time>
      </trkpt>
      <trkpt lat="65.05882" lon="21.13902">
        <ele>91.70862</ele>
        <time>2020-09-27T11:01:28.385Z</time>
      </trkpt>
      <trkpt lat="65.05869" lon="21.1391">
        <ele>91.686265</ele>
        <time>2020-09-27T11:01:31.383Z</time>
      </trkpt>
      <trkpt lat="65.05857" lon="21.13919">
        <ele>91.663462</ele>
        <time>2020-09-27T11:01:34.387Z</time>
      </trkpt>
      <trkpt lat="65.05848" lon="21.13925">
        <ele>91.647672</ele>
        <time>2020-09-27T11:01:36.399Z</time>
      </trkpt>
      <trkpt lat="65.05835" lon="21.13935">
        <ele>91.62499</ele>
        <time>2020-09-27T11:01:39.368Z</time>
      </trkpt>
      <trkpt lat="65.05826" lon="21.13941">
        <ele>91.609445</ele>
        <time>2020-09-27T11:01:41.425Z</time>
      </trkpt>
      <trkpt lat="65.05814" lon="21.1395">
        <ele>91.587051</ele>
        <time>2020-09-27T11:01:44.399Z</time>
      </trkpt>
      <trkpt lat="65.05802" lon="21.13959">
        <ele>91.566038</ele>
        <time>2020-09-27T11:01:47.399Z</time>
      </trkpt>
      <trkpt lat="65.0579" lon="21.13966">
        <ele>91.545026</ele>
        <time>2020-09-27T11:01:50.394Z</time>
      </trkpt>
      <trkpt lat="65.05778" lon="21.13974">
        <ele>91.523938</ele>
        <time>2020-09-27T11:01:53.393Z</time>
      </trkpt>
      <trkpt lat="65.05767" lon="21.13983">
        <ele>91.503445</ele>
        <time>2020-09-27T11:01:56.369Z</time>
      </trkpt>
      <trkpt lat="65.05755" lon="21.1399">
        <ele>91.482869</ele>
        <time>2020-09-27T11:01:59.386Z</time>
      </trkpt>
      <trkpt lat="65.05743" lon="21.13998">
        <ele>91.574717</ele>
        <time>2020-09-27T11:02:02.370Z</time>
      </trkpt>
      <trkpt lat="65.05732" lon="21.14007">
        <ele>91.778184</ele>
        <time>2020-09-27T11:02:05.384Z</time>
      </trkpt>
      <trkpt lat="65.05721" lon="21.14014">
        <ele>91.968837</ele>
        <time>2020-09-27T11:02:08.446Z</time>
      </trkpt>
      <trkpt lat="65.0571" lon="21.14024">
        <ele>92.156285</ele>
        <time>2020-09-27T11:02:11.405Z</time>
      </trkpt>
      <trkpt lat="65.057" lon="21.14033">
        <ele>92.347609</ele>
        <time>2020-09-27T11:02:14.401Z</time>
      </trkpt>
      <trkpt lat="65.05689" lon="21.14041">
        <ele>92.537221</ele>
        <time>2020-09-27T11:02:17.407Z</time>
      </trkpt>
      <trkpt lat="65.05678" lon="21.14048">
        <ele>92.720014</ele>
        <time>2020-09-27T11:02:20.390Z</time>
      </trkpt>
      <trkpt lat="65.05667" lon="21.14055">
        <ele>92.909821</ele>
        <time>2020-09-27T11:02:23.395Z</time>
      </trkpt>
      <trkpt lat="65.05656" lon="21.14062">
        <ele>93.100662</ele>
        <time>2020-09-27T11:02:26.377Z</time>
      </trkpt>
      <trkpt lat="65.05645" lon="21.14071">
        <ele>93.291692</ele>
        <time>2020-09-27T11:02:29.382Z</time>
      </trkpt>
      <trkpt lat="65.05635" lon="21.14078">
        <ele>93.477512</ele>
        <time>2020-09-27T11:02:32.386Z</time>
      </trkpt>
      <trkpt lat="65.05624" lon="21.14087">
        <ele>93.662611</ele>
        <time>2020-09-27T11:02:35.378Z</time>
      </trkpt>
      <trkpt lat="65.05614" lon="21.14095">
        <ele>93.844768</ele>
        <time>2020-09-27T11:02:38.385Z</time>
      </trkpt>
      <trkpt lat="65.05604" lon="21.14102">
        <ele>94.027562</ele>
        <time>2020-09-27T11:02:41.388Z</time>
      </trkpt>
      <trkpt lat="65.05592" lon="21.1411">
        <ele>94.220779</ele>
        <time>2020-09-27T11:02:44.395Z</time>
      </trkpt>
      <trkpt lat="65.05581" lon="21.14118">
        <ele>94.418</ele>
        <time>2020-09-27T11:02:47.398Z</time>
      </trkpt>
      <trkpt lat="65.0557" lon="21.14126">
        <ele>94.41688</ele>
        <time>2020-09-27T11:02:50.389Z</time>
      </trkpt>
      <trkpt lat="65.05558" lon="21.14135">
        <ele>94.322237</ele>
        <time>2020-09-27T11:02:53.389Z</time>
      </trkpt>
      <trkpt lat="65.05546" lon="21.14143">
        <ele>94.220692</ele>
        <time>2020-09-27T11:02:56.417Z</time>
      </trkpt>
      <trkpt lat="65.05533" lon="21.14152">
        <ele>94.115621</ele>
        <time>2020-09-27T11:02:59.391Z</time>
      </trkpt>
      <trkpt lat="65.05524" lon="21.14158">
        <ele>94.039372</ele>
        <time>2020-09-27T11:03:01.378Z</time>
      </trkpt>
      <trkpt lat="65.05514" lon="21.14164">
        <ele>93.958955</ele>
        <time>2020-09-27T11:03:03.406Z</time>
      </trkpt>
      <trkpt lat="65.05505" lon="21.1417">
        <ele>93.883379</ele>
        <time>2020-09-27T11:03:05.390Z</time>
      </trkpt>
      <trkpt lat="65.05496" lon="21.14175">
        <ele>93.808926</ele>
        <time>2020-09-27T11:03:07.387Z</time>
      </trkpt>
      <trkpt lat="65.05485" lon="21.14181">
        <ele>93.72117</ele>
        <time>2020-09-27T11:03:09.385Z</time>
      </trkpt>
      <trkpt lat="65.05474" lon="21.14187">
        <ele>93.628859</ele>
        <time>2020-09-27T11:03:11.389Z</time>
      </trkpt>
      <trkpt lat="65.05462" lon="21.14191">
        <ele>93.531962</ele>
        <time>2020-09-27T11:03:13.401Z</time>
      </trkpt>
      <trkpt lat="65.05449" lon="21.14195">
        <ele>93.435443</ele>
        <time>2020-09-27T11:03:15.390Z</time>
      </trkpt>
      <trkpt lat="65.05437" lon="21.14199">
        <ele>93.334782</ele>
        <time>2020-09-27T11:03:17.390Z</time>
      </trkpt>
      <trkpt lat="65.05425" lon="21.14204">
        <ele>93.236421</ele>
        <time>2020-09-27T11:03:19.378Z</time>
      </trkpt>
      <trkpt lat="65.05413" lon="21.14206">
        <ele>93.144409</ele>
        <time>2020-09-27T11:03:21.388Z</time>
      </trkpt>
      <trkpt lat="65.05401" lon="21.14208">
        <ele>93.067288</ele>
        <time>2020-09-27T11:03:23.392Z</time>
      </trkpt>
      <trkpt lat="65.05391" lon="21.14209">
        <ele>93.246389</ele>
        <time>2020-09-27T11:03:25.394Z</time>
      </trkpt>
      <trkpt lat="65.0538" lon="21.1421">
        <ele>93.428679</ele>
        <time>2020-09-27T11:03:27.409Z</time>
      </trkpt>
      <trkpt lat="65.05369" lon="21.14211">
        <ele>93.612679</ele>
        <time>2020-09-27T11:03:29.390Z</time>
      </trkpt>
      <trkpt lat="65.05358" lon="21.14211">
        <ele>93.784937</ele>
        <time>2020-09-27T11:03:31.388Z</time>
      </trkpt>
      <trkpt lat="65.05348" lon="21.14211">
        <ele>93.9605</ele>
        <time>2020-09-27T11:03:33.393Z</time>
      </trkpt>
      <trkpt lat="65.05337" lon="21.14213">
        <ele>94.1396</ele>
        <time>2020-09-27T11:03:35.403Z</time>
      </trkpt>
      <trkpt lat="65.05326" lon="21.14215">
        <ele>94.314376</ele>
        <time>2020-09-27T11:03:37.414Z</time>
      </trkpt>
      <trkpt lat="65.05316" lon="21.14217">
        <ele>94.492036</ele>
        <time>2020-09-27T11:03:39.379Z</time>
      </trkpt>
      <trkpt lat="65.05306" lon="21.14217">
        <ele>94.652742</ele>
        <time>2020-09-27T11:03:41.394Z</time>
      </trkpt>
      <trkpt lat="65.05295" lon="21.14219">
        <ele>94.8285</ele>
        <time>2020-09-27T11:03:43.388Z</time>
      </trkpt>
      <trkpt lat="65.05285" lon="21.14221">
        <ele>95.002962</ele>
        <time>2020-09-27T11:03:45.393Z</time>
      </trkpt>
      <trkpt lat="65.05273" lon="21.14223">
        <ele>95.190926</ele>
        <time>2020-09-27T11:03:47.390Z</time>
      </trkpt>
      <trkpt lat="65.05263" lon="21.14224">
        <ele>95.366572</ele>
        <time>2020-09-27T11:03:49.424Z</time>
      </trkpt>
      <trkpt lat="65.05252" lon="21.14225">
        <ele>95.548889</ele>
        <time>2020-09-27T11:03:51.415Z</time>
      </trkpt>
      <trkpt lat="65.05241" lon="21.14225">
        <ele>95.734385</ele>
        <time>2020-09-27T11:03:53.402Z</time>
      </trkpt>
      <trkpt lat="65.05229" lon="21.14226">
        <ele>95.919944</ele>
        <time>2020-09-27T11:03:55.386Z</time>
      </trkpt>
      <trkpt lat="65.05218" lon="21.14226">
        <ele>95.901897</ele>
        <time>2020-09-27T11:03:57.407Z</time>
      </trkpt>
      <trkpt lat="65.05207" lon="21.14227">
        <ele>95.550224</ele>
        <time>2020-09-27T11:03:59.386Z</time>
      </trkpt>
      <trkpt lat="65.05195" lon="21.14228">
        <ele>95.183053</ele>
        <time>2020-09-27T11:04:01.407Z</time>
      </trkpt>
      <trkpt lat="65.05184" lon="21.1423">
        <ele>94.823983</ele>
        <time>2020-09-27T11:04:03.417Z</time>
      </trkpt>
      <trkpt lat="65.05173" lon="21.14233">
        <ele>94.463803</ele>
        <time>2020-09-27T11:04:05.376Z</time>
      </trkpt>
      <trkpt lat="65.05162" lon="21.14236">
        <ele>94.122795</ele>
        <time>2020-09-27T11:04:07.381Z</time>
      </trkpt>
      <trkpt lat="65.05152" lon="21.14237">
        <ele>93.812283</ele>
        <time>2020-09-27T11:04:09.396Z</time>
      </trkpt>
      <trkpt lat="65.05142" lon="21.14238">
        <ele>93.495652</ele>
        <time>2020-09-27T11:04:11.382Z</time>
      </trkpt>
      <trkpt lat="65.05133" lon="21.14238">
        <ele>93.194956</ele>
        <time>2020-09-27T11:04:13.406Z</time>
      </trkpt>
      <trkpt lat="65.0512" lon="21.14239">
        <ele>92.777048</ele>
        <time>2020-09-27T11:04:16.378Z</time>
      </trkpt>
      <trkpt lat="65.0511" lon="21.1424">
        <ele>92.482464</ele>
        <time>2020-09-27T11:04:18.377Z</time>
      </trkpt>
      <trkpt lat="65.05101" lon="21.14241">
        <ele>92.178524</ele>
        <time>2020-09-27T11:04:20.390Z</time>
      </trkpt>
      <trkpt lat="65.05091" lon="21.14241">
        <ele>91.871526</ele>
        <time>2020-09-27T11:04:22.395Z</time>
      </trkpt>
      <trkpt lat="65.05081" lon="21.14241">
        <ele>91.554987</ele>
        <time>2020-09-27T11:04:24.383Z</time>
      </trkpt>
      <trkpt lat="65.05071" lon="21.14242">
        <ele>91.232094</ele>
        <time>2020-09-27T11:04:26.397Z</time>
      </trkpt>
      <trkpt lat="65.05061" lon="21.14243">
        <ele>90.90873</ele>
        <time>2020-09-27T11:04:28.378Z</time>
      </trkpt>
      <trkpt lat="65.05049" lon="21.14245">
        <ele>90.55269</ele>
        <time>2020-09-27T11:04:30.389Z</time>
      </trkpt>
      <trkpt lat="65.05038" lon="21.14248">
        <ele>90.144897</ele>
        <time>2020-09-27T11:04:32.405Z</time>
      </trkpt>
      <trkpt lat="65.05026" lon="21.1425">
        <ele>89.688785</ele>
        <time>2020-09-27T11:04:34.393Z</time>
      </trkpt>
      <trkpt lat="65.05014" lon="21.14252">
        <ele>89.24422</ele>
        <time>2020-09-27T11:04:36.383Z</time>
      </trkpt>
      <trkpt lat="65.05002" lon="21.14254">
        <ele>88.779824</ele>
        <time>2020-09-27T11:04:38.384Z</time>
      </trkpt>
      <trkpt lat="65.0499" lon="21.14256">
        <ele>88.315294</ele>
        <time>2020-09-27T11:04:40.398Z</time>
      </trkpt>
      <trkpt lat="65.04978" lon="21.14258">
        <ele>87.848071</ele>
        <time>2020-09-27T11:04:42.390Z</time>
      </trkpt>
      <trkpt lat="65.04966" lon="21.14259">
        <ele>87.361344</ele>
        <time>2020-09-27T11:04:44.424Z</time>
      </trkpt>
      <trkpt lat="65.04953" lon="21.14261">
        <ele>86.859439</ele>
        <time>2020-09-27T11:04:46.373Z</time>
      </trkpt>
      <trkpt lat="65.04939" lon="21.14262">
        <ele>86.326484</ele>
        <time>2020-09-27T11:04:48.416Z</time>
      </trkpt>
      <trkpt lat="65.04926" lon="21.14264">
        <ele>85.828201</ele>
        <time>2020-09-27T11:04:50.398Z</time>
      </trkpt>
      <trkpt lat="65.04913" lon="21.14266">
        <ele>85.329427</ele>
        <time>2020-09-27T11:04:52.387Z</time>
      </trkpt>
      <trkpt lat="65.049" lon="21.14269">
        <ele>84.818361</ele>
        <time>2020-09-27T11:04:54.396Z</time>
      </trkpt>
      <trkpt lat="65.04887" lon="21.1427">
        <ele>84.304669</ele>
        <time>2020-09-27T11:04:56.408Z</time>
      </trkpt>
      <trkpt lat="65.04874" lon="21.14273">
        <ele>83.813227</ele>
        <time>2020-09-27T11:04:58.376Z</time>
      </trkpt>
      <trkpt lat="65.04861" lon="21.14274">
        <ele>83.396188</ele>
        <time>2020-09-27T11:05:00.386Z</time>
      </trkpt>
      <trkpt lat="65.04849" lon="21.14276">
        <ele>83.335537</ele>
        <time>2020-09-27T11:05:02.385Z</time>
      </trkpt>
      <trkpt lat="65.04836" lon="21.14277">
        <ele>83.275447</ele>
        <time>2020-09-27T11:05:04.388Z</time>
      </trkpt>
      <trkpt lat="65.04823" lon="21.14277">
        <ele>83.215397</ele>
        <time>2020-09-27T11:05:06.392Z</time>
      </trkpt>
      <trkpt lat="65.04811" lon="21.14278">
        <ele>83.153886</ele>
        <time>2020-09-27T11:05:08.393Z</time>
      </trkpt>
      <trkpt lat="65.04798" lon="21.1428">
        <ele>83.093682</ele>
        <time>2020-09-27T11:05:10.382Z</time>
      </trkpt>
      <trkpt lat="65.04786" lon="21.14282">
        <ele>83.036372</ele>
        <time>2020-09-27T11:05:12.378Z</time>
      </trkpt>
      <trkpt lat="65.04774" lon="21.14283">
        <ele>82.977702</ele>
        <time>2020-09-27T11:05:14.377Z</time>
      </trkpt>
      <trkpt lat="65.04762" lon="21.14285">
        <ele>82.919954</ele>
        <time>2020-09-27T11:05:16.396Z</time>
      </trkpt>
      <trkpt lat="65.04749" lon="21.14287">
        <ele>82.861651</ele>
        <time>2020-09-27T11:05:18.392Z</time>
      </trkpt>
      <trkpt lat="65.04738" lon="21.14288">
        <ele>82.806338</ele>
        <time>2020-09-27T11:05:20.370Z</time>
      </trkpt>
      <trkpt lat="65.04726" lon="21.14289">
        <ele>82.751984</ele>
        <time>2020-09-27T11:05:22.392Z</time>
      </trkpt>
      <trkpt lat="65.04715" lon="21.1429">
        <ele>82.697631</ele>
        <time>2020-09-27T11:05:24.386Z</time>
      </trkpt>
      <trkpt lat="65.04704" lon="21.14291">
        <ele>82.644197</ele>
        <time>2020-09-27T11:05:26.401Z</time>
      </trkpt>
      <trkpt lat="65.04693" lon="21.14293">
        <ele>82.590717</ele>
        <time>2020-09-27T11:05:28.395Z</time>
      </trkpt>
      <trkpt lat="65.04682" lon="21.14294">
        <ele>82.562428</ele>
        <time>2020-09-27T11:05:30.376Z</time>
      </trkpt>
      <trkpt lat="65.04671" lon="21.14296">
        <ele>82.637352</ele>
        <time>2020-09-27T11:05:32.402Z</time>
      </trkpt>
      <trkpt lat="65.04661" lon="21.14297">
        <ele>82.708055</ele>
        <time>2020-09-27T11:05:34.375Z</time>
      </trkpt>
      <trkpt lat="65.04651" lon="21.14298">
        <ele>82.781443</ele>
        <time>2020-09-27T11:05:36.398Z</time>
      </trkpt>
      <trkpt lat="65.0464" lon="21.14298">
        <ele>82.856219</ele>
        <time>2020-09-27T11:05:38.414Z</time>
      </trkpt>
      <trkpt lat="65.04629" lon="21.14299">
        <ele>82.932558</ele>
        <time>2020-09-27T11:05:40.377Z</time>
      </trkpt>
      <trkpt lat="65.04618" lon="21.14301">
        <ele>83.011667</ele>
        <time>2020-09-27T11:05:42.390Z</time>
      </trkpt>
      <trkpt lat="65.04607" lon="21.14302">
        <ele>83.089319</ele>
        <time>2020-09-27T11:05:44.407Z</time>
      </trkpt>
      <trkpt lat="65.04596" lon="21.14303">
        <ele>83.164165</ele>
        <time>2020-09-27T11:05:46.378Z</time>
      </trkpt>
      <trkpt lat="65.04585" lon="21.14305">
        <ele>83.240524</ele>
        <time>2020-09-27T11:05:48.408Z</time>
      </trkpt>
      <trkpt lat="65.04574" lon="21.14307">
        <ele>83.319735</ele>
        <time>2020-09-27T11:05:50.404Z</time>
      </trkpt>
      <trkpt lat="65.04562" lon="21.14308">
        <ele>83.399495</ele>
        <time>2020-09-27T11:05:52.388Z</time>
      </trkpt>
      <trkpt lat="65.04551" lon="21.1431">
        <ele>83.477986</ele>
        <time>2020-09-27T11:05:54.375Z</time>
      </trkpt>
      <trkpt lat="65.0454" lon="21.14311">
        <ele>83.556301</ele>
        <time>2020-09-27T11:05:56.404Z</time>
      </trkpt>
      <trkpt lat="65.04529" lon="21.14313">
        <ele>83.635394</ele>
        <time>2020-09-27T11:05:58.433Z</time>
      </trkpt>
      <trkpt lat="65.04517" lon="21.14315">
        <ele>83.713957</ele>
        <time>2020-09-27T11:06:00.398Z</time>
      </trkpt>
      <trkpt lat="65.04506" lon="21.14318">
        <ele>83.793357</ele>
        <time>2020-09-27T11:06:02.387Z</time>
      </trkpt>
      <trkpt lat="65.04495" lon="21.14321">
        <ele>83.964449</ele>
        <time>2020-09-27T11:06:04.405Z</time>
      </trkpt>
      <trkpt lat="65.04484" lon="21.14324">
        <ele>84.145725</ele>
        <time>2020-09-27T11:06:06.372Z</time>
      </trkpt>
      <trkpt lat="65.04474" lon="21.14325">
        <ele>84.321666</ele>
        <time>2020-09-27T11:06:08.407Z</time>
      </trkpt>
      <trkpt lat="65.04463" lon="21.14327">
        <ele>84.499033</ele>
        <time>2020-09-27T11:06:10.385Z</time>
      </trkpt>
      <trkpt lat="65.04453" lon="21.14327">
        <ele>84.669482</ele>
        <time>2020-09-27T11:06:12.370Z</time>
      </trkpt>
      <trkpt lat="65.04444" lon="21.14328">
        <ele>84.8332</ele>
        <time>2020-09-27T11:06:14.396Z</time>
      </trkpt>
      <trkpt lat="65.04434" lon="21.14329">
        <ele>84.991995</ele>
        <time>2020-09-27T11:06:16.398Z</time>
      </trkpt>
      <trkpt lat="65.04425" lon="21.1433">
        <ele>85.152739</ele>
        <time>2020-09-27T11:06:18.393Z</time>
      </trkpt>
      <trkpt lat="65.04415" lon="21.14332">
        <ele>85.31831</ele>
        <time>2020-09-27T11:06:20.389Z</time>
      </trkpt>
      <trkpt lat="65.04406" lon="21.14332">
        <ele>85.473616</ele>
        <time>2020-09-27T11:06:22.418Z</time>
      </trkpt>
      <trkpt lat="65.04396" lon="21.14331">
        <ele>85.637404</ele>
        <time>2020-09-27T11:06:24.384Z</time>
      </trkpt>
      <trkpt lat="65.04386" lon="21.1433">
        <ele>85.808297</ele>
        <time>2020-09-27T11:06:26.370Z</time>
      </trkpt>
      <trkpt lat="65.04376" lon="21.14328">
        <ele>85.967307</ele>
        <time>2020-09-27T11:06:28.386Z</time>
      </trkpt>
      <trkpt lat="65.04367" lon="21.14327">
        <ele>86.119361</ele>
        <time>2020-09-27T11:06:30.374Z</time>
      </trkpt>
      <trkpt lat="65.04355" lon="21.14323">
        <ele>86.33887</ele>
        <time>2020-09-27T11:06:33.405Z</time>
      </trkpt>
      <trkpt lat="65.04342" lon="21.14318">
        <ele>86.561314</ele>
        <time>2020-09-27T11:06:36.392Z</time>
      </trkpt>
      <trkpt lat="65.04329" lon="21.14312">
        <ele>86.782984</ele>
        <time>2020-09-27T11:06:39.394Z</time>
      </trkpt>
      <trkpt lat="65.04315" lon="21.14305">
        <ele>86.785085</ele>
        <time>2020-09-27T11:06:42.386Z</time>
      </trkpt>
      <trkpt lat="65.04306" lon="21.143">
        <ele>86.734346</ele>
        <time>2020-09-27T11:06:44.426Z</time>
      </trkpt>
      <trkpt lat="65.04298" lon="21.14297">
        <ele>86.684985</ele>
        <time>2020-09-27T11:06:46.391Z</time>
      </trkpt>
      <trkpt lat="65.04288" lon="21.14293">
        <ele>86.633908</ele>
        <time>2020-09-27T11:06:48.385Z</time>
      </trkpt>
      <trkpt lat="65.04279" lon="21.14287">
        <ele>86.58166</ele>
        <time>2020-09-27T11:06:50.380Z</time>
      </trkpt>
      <trkpt lat="65.0427" lon="21.14283">
        <ele>86.53063</ele>
        <time>2020-09-27T11:06:52.407Z</time>
      </trkpt>
      <trkpt lat="65.04261" lon="21.14278">
        <ele>86.478283</ele>
        <time>2020-09-27T11:06:54.372Z</time>
      </trkpt>
      <trkpt lat="65.04251" lon="21.14273">
        <ele>86.424375</ele>
        <time>2020-09-27T11:06:56.415Z</time>
      </trkpt>
      <trkpt lat="65.04242" lon="21.14266">
        <ele>86.370374</ele>
        <time>2020-09-27T11:06:58.384Z</time>
      </trkpt>
      <trkpt lat="65.04232" lon="21.1426">
        <ele>86.3134</ele>
        <time>2020-09-27T11:07:00.389Z</time>
      </trkpt>
      <trkpt lat="65.04221" lon="21.14254">
        <ele>86.252847</ele>
        <time>2020-09-27T11:07:02.375Z</time>
      </trkpt>
      <trkpt lat="65.0421" lon="21.14249">
        <ele>86.191305</ele>
        <time>2020-09-27T11:07:04.395Z</time>
      </trkpt>
      <trkpt lat="65.04199" lon="21.14244">
        <ele>86.130214</ele>
        <time>2020-09-27T11:07:06.421Z</time>
      </trkpt>
      <trkpt lat="65.04188" lon="21.14239">
        <ele>86.07029</ele>
        <time>2020-09-27T11:07:08.387Z</time>
      </trkpt>
      <trkpt lat="65.04178" lon="21.14235">
        <ele>86.009614</ele>
        <time>2020-09-27T11:07:10.390Z</time>
      </trkpt>
      <trkpt lat="65.04167" lon="21.1423">
        <ele>85.949151</ele>
        <time>2020-09-27T11:07:12.445Z</time>
      </trkpt>
      <trkpt lat="65.04157" lon="21.14225">
        <ele>85.891921</ele>
        <time>2020-09-27T11:07:14.391Z</time>
      </trkpt>
      <trkpt lat="65.04146" lon="21.14221">
        <ele>85.810094</ele>
        <time>2020-09-27T11:07:16.408Z</time>
      </trkpt>
      <trkpt lat="65.04135" lon="21.14218">
        <ele>85.678735</ele>
        <time>2020-09-27T11:07:18.387Z</time>
      </trkpt>
      <trkpt lat="65.04123" lon="21.14215">
        <ele>85.535927</ele>
        <time>2020-09-27T11:07:20.399Z</time>
      </trkpt>
      <trkpt lat="65.04111" lon="21.14212">
        <ele>85.388428</ele>
        <time>2020-09-27T11:07:22.369Z</time>
      </trkpt>
      <trkpt lat="65.04099" lon="21.1421">
        <ele>85.243685</ele>
        <time>2020-09-27T11:07:24.386Z</time>
      </trkpt>
      <trkpt lat="65.04088" lon="21.14209">
        <ele>85.105191</ele>
        <time>2020-09-27T11:07:26.398Z</time>
      </trkpt>
      <trkpt lat="65.04076" lon="21.14209">
        <ele>84.964349</ele>
        <time>2020-09-27T11:07:28.390Z</time>
      </trkpt>
      <trkpt lat="65.04064" lon="21.14209">
        <ele>84.825914</ele>
        <time>2020-09-27T11:07:30.383Z</time>
      </trkpt>
      <trkpt lat="65.04053" lon="21.14211">
        <ele>84.690929</ele>
        <time>2020-09-27T11:07:32.405Z</time>
      </trkpt>
      <trkpt lat="65.04042" lon="21.14213">
        <ele>84.557906</ele>
        <time>2020-09-27T11:07:34.395Z</time>
      </trkpt>
      <trkpt lat="65.04031" lon="21.14217">
        <ele>84.421915</ele>
        <time>2020-09-27T11:07:36.387Z</time>
      </trkpt>
      <trkpt lat="65.0402" lon="21.14221">
        <ele>84.286355</ele>
        <time>2020-09-27T11:07:38.427Z</time>
      </trkpt>
      <trkpt lat="65.04009" lon="21.14227">
        <ele>84.148667</ele>
        <time>2020-09-27T11:07:40.390Z</time>
      </trkpt>
      <trkpt lat="65.03998" lon="21.14233">
        <ele>84.010782</ele>
        <time>2020-09-27T11:07:42.377Z</time>
      </trkpt>
      <trkpt lat="65.03987" lon="21.14241">
        <ele>83.872853</ele>
        <time>2020-09-27T11:07:44.400Z</time>
      </trkpt>
      <trkpt lat="65.03976" lon="21.14248">
        <ele>83.740114</ele>
        <time>2020-09-27T11:07:46.389Z</time>
      </trkpt>
      <trkpt lat="65.03967" lon="21.14254">
        <ele>83.587784</ele>
        <time>2020-09-27T11:07:48.389Z</time>
      </trkpt>
      <trkpt lat="65.03958" lon="21.14262">
        <ele>83.414441</ele>
        <time>2020-09-27T11:07:50.429Z</time>
      </trkpt>
      <trkpt lat="65.03946" lon="21.14273">
        <ele>83.163826</ele>
        <time>2020-09-27T11:07:53.384Z</time>
      </trkpt>
      <trkpt lat="65.03937" lon="21.14282">
        <ele>82.992746</ele>
        <time>2020-09-27T11:07:55.382Z</time>
      </trkpt>
      <trkpt lat="65.03926" lon="21.14295">
        <ele>82.744936</ele>
        <time>2020-09-27T11:07:58.387Z</time>
      </trkpt>
      <trkpt lat="65.03918" lon="21.14305">
        <ele>82.575298</ele>
        <time>2020-09-27T11:08:00.371Z</time>
      </trkpt>
      <trkpt lat="65.03909" lon="21.14314">
        <ele>82.405315</ele>
        <time>2020-09-27T11:08:02.384Z</time>
      </trkpt>
      <trkpt lat="65.03898" lon="21.1433">
        <ele>82.157121</ele>
        <time>2020-09-27T11:08:05.386Z</time>
      </trkpt>
      <trkpt lat="65.0389" lon="21.14341">
        <ele>81.9857</ele>
        <time>2020-09-27T11:08:07.389Z</time>
      </trkpt>
      <trkpt lat="65.03883" lon="21.14352">
        <ele>81.812207</ele>
        <time>2020-09-27T11:08:09.393Z</time>
      </trkpt>
      <trkpt lat="65.03871" lon="21.14368">
        <ele>81.561574</ele>
        <time>2020-09-27T11:08:12.375Z</time>
      </trkpt>
      <trkpt lat="65.03863" lon="21.1438">
        <ele>81.382005</ele>
        <time>2020-09-27T11:08:14.406Z</time>
      </trkpt>
      <trkpt lat="65.03855" lon="21.14392">
        <ele>81.202851</ele>
        <time>2020-09-27T11:08:16.385Z</time>
      </trkpt>
      <trkpt lat="65.03847" lon="21.14403">
        <ele>81.029804</ele>
        <time>2020-09-27T11:08:18.387Z</time>
      </trkpt>
      <trkpt lat="65.03839" lon="21.14414">
        <ele>80.855533</ele>
        <time>2020-09-27T11:08:20.403Z</time>
      </trkpt>
      <trkpt lat="65.03831" lon="21.14426">
        <ele>80.678406</ele>
        <time>2020-09-27T11:08:22.403Z</time>
      </trkpt>
      <trkpt lat="65.03823" lon="21.14437">
        <ele>80.500842</ele>
        <time>2020-09-27T11:08:24.376Z</time>
      </trkpt>
      <trkpt lat="65.03815" lon="21.14449">
        <ele>80.315604</ele>
        <time>2020-09-27T11:08:26.391Z</time>
      </trkpt>
      <trkpt lat="65.03806" lon="21.14461">
        <ele>80.191566</ele>
        <time>2020-09-27T11:08:28.397Z</time>
      </trkpt>
      <trkpt lat="65.03798" lon="21.14473">
        <ele>80.081093</ele>
        <time>2020-09-27T11:08:30.387Z</time>
      </trkpt>
      <trkpt lat="65.0379" lon="21.14487">
        <ele>79.96716</ele>
        <time>2020-09-27T11:08:32.388Z</time>
      </trkpt>
      <trkpt lat="65.03782" lon="21.14501">
        <ele>79.853955</ele>
        <time>2020-09-27T11:08:34.387Z</time>
      </trkpt>
      <trkpt lat="65.03775" lon="21.14514">
        <ele>79.742853</ele>
        <time>2020-09-27T11:08:36.380Z</time>
      </trkpt>
      <trkpt lat="65.03767" lon="21.14528">
        <ele>79.631494</ele>
        <time>2020-09-27T11:08:38.378Z</time>
      </trkpt>
      <trkpt lat="65.0376" lon="21.14543">
        <ele>79.521198</ele>
        <time>2020-09-27T11:08:40.395Z</time>
      </trkpt>
      <trkpt lat="65.0375" lon="21.14565">
        <ele>79.365547</ele>
        <time>2020-09-27T11:08:43.377Z</time>
      </trkpt>
      <trkpt lat="65.03741" lon="21.14587">
        <ele>79.211409</ele>
        <time>2020-09-27T11:08:46.406Z</time>
      </trkpt>
      <trkpt lat="65.03731" lon="21.14609">
        <ele>79.05541</ele>
        <time>2020-09-27T11:08:49.414Z</time>
      </trkpt>
      <trkpt lat="65.03722" lon="21.14631">
        <ele>78.902355</ele>
        <time>2020-09-27T11:08:52.389Z</time>
      </trkpt>
      <trkpt lat="65.03713" lon="21.14655">
        <ele>78.746243</ele>
        <time>2020-09-27T11:08:55.407Z</time>
      </trkpt>
      <trkpt lat="65.03704" lon="21.14678">
        <ele>78.592448</ele>
        <time>2020-09-27T11:08:58.401Z</time>
      </trkpt>
      <trkpt lat="65.03696" lon="21.14701">
        <ele>78.442401</ele>
        <time>2020-09-27T11:09:01.378Z</time>
      </trkpt>
      <trkpt lat="65.03687" lon="21.14724">
        <ele>78.293824</ele>
        <time>2020-09-27T11:09:04.385Z</time>
      </trkpt>
      <trkpt lat="65.03679" lon="21.14745">
        <ele>78.30144</ele>
        <time>2020-09-27T11:09:07.378Z</time>
      </trkpt>
      <trkpt lat="65.03671" lon="21.14769">
        <ele>78.626793</ele>
        <time>2020-09-27T11:09:10.396Z</time>
      </trkpt>
      <trkpt lat="65.03663" lon="21.14792">
        <ele>78.951118</ele>
        <time>2020-09-27T11:09:13.375Z</time>
      </trkpt>
      <trkpt lat="65.03656" lon="21.14816">
        <ele>79.275514</ele>
        <time>2020-09-27T11:09:16.379Z</time>
      </trkpt>
      <trkpt lat="65.03647" lon="21.14838">
        <ele>79.611895</ele>
        <time>2020-09-27T11:09:19.432Z</time>
      </trkpt>
      <trkpt lat="65.03639" lon="21.1486">
        <ele>79.920468</ele>
        <time>2020-09-27T11:09:22.408Z</time>
      </trkpt>
      <trkpt lat="65.03631" lon="21.14881">
        <ele>80.214234</ele>
        <time>2020-09-27T11:09:25.403Z</time>
      </trkpt>
      <trkpt lat="65.03624" lon="21.14902">
        <ele>80.517846</ele>
        <time>2020-09-27T11:09:28.378Z</time>
      </trkpt>
      <trkpt lat="65.03616" lon="21.14924">
        <ele>80.82976</ele>
        <time>2020-09-27T11:09:31.386Z</time>
      </trkpt>
      <trkpt lat="65.03608" lon="21.14946">
        <ele>81.144949</ele>
        <time>2020-09-27T11:09:34.376Z</time>
      </trkpt>
      <trkpt lat="65.036" lon="21.14966">
        <ele>81.436295</ele>
        <time>2020-09-27T11:09:37.395Z</time>
      </trkpt>
      <trkpt lat="65.03593" lon="21.14987">
        <ele>81.728359</ele>
        <time>2020-09-27T11:09:40.373Z</time>
      </trkpt>
      <trkpt lat="65.03586" lon="21.15006">
        <ele>82.004918</ele>
        <time>2020-09-27T11:09:43.373Z</time>
      </trkpt>
      <trkpt lat="65.03579" lon="21.15024">
        <ele>82.268721</ele>
        <time>2020-09-27T11:09:46.372Z</time>
      </trkpt>
      <trkpt lat="65.03571" lon="21.15042">
        <ele>82.54355</ele>
        <time>2020-09-27T11:09:49.379Z</time>
      </trkpt>
      <trkpt lat="65.03565" lon="21.15059">
        <ele>82.791083</ele>
        <time>2020-09-27T11:09:52.407Z</time>
      </trkpt>
      <trkpt lat="65.03558" lon="21.15078">
        <ele>83.036908</ele>
        <time>2020-09-27T11:09:55.405Z</time>
      </trkpt>
      <trkpt lat="65.03551" lon="21.15096">
        <ele>83.271637</ele>
        <time>2020-09-27T11:09:58.388Z</time>
      </trkpt>
      <trkpt lat="65.03543" lon="21.15116">
        <ele>83.525754</ele>
        <time>2020-09-27T11:10:01.405Z</time>
      </trkpt>
      <trkpt lat="65.03535" lon="21.15135">
        <ele>83.781249</ele>
        <time>2020-09-27T11:10:04.392Z</time>
      </trkpt>
      <trkpt lat="65.03527" lon="21.15154">
        <ele>84.046328</ele>
        <time>2020-09-27T11:10:07.388Z</time>
      </trkpt>
      <trkpt lat="65.03519" lon="21.15172">
        <ele>84.296921</ele>
        <time>2020-09-27T11:10:10.409Z</time>
      </trkpt>
      <trkpt lat="65.03511" lon="21.15189">
        <ele>84.534358</ele>
        <time>2020-09-27T11:10:13.396Z</time>
      </trkpt>
      <trkpt lat="65.03504" lon="21.15205">
        <ele>84.765121</ele>
        <time>2020-09-27T11:10:16.402Z</time>
      </trkpt>
      <trkpt lat="65.03496" lon="21.1522">
        <ele>84.99331</ele>
        <time>2020-09-27T11:10:19.380Z</time>
      </trkpt>
      <trkpt lat="65.03487" lon="21.15238">
        <ele>85.247342</ele>
        <time>2020-09-27T11:10:22.393Z</time>
      </trkpt>
      <trkpt lat="65.03479" lon="21.15255">
        <ele>85.497358</ele>
        <time>2020-09-27T11:10:25.390Z</time>
      </trkpt>
      <trkpt lat="65.03471" lon="21.15273">
        <ele>85.756686</ele>
        <time>2020-09-27T11:10:28.413Z</time>
      </trkpt>
      <trkpt lat="65.03462" lon="21.15291">
        <ele>86.023025</ele>
        <time>2020-09-27T11:10:31.411Z</time>
      </trkpt>
      <trkpt lat="65.03453" lon="21.15311">
        <ele>86.30191</ele>
        <time>2020-09-27T11:10:34.373Z</time>
      </trkpt>
      <trkpt lat="65.03442" lon="21.15332">
        <ele>86.605429</ele>
        <time>2020-09-27T11:10:37.378Z</time>
      </trkpt>
      <trkpt lat="65.03435" lon="21.15346">
        <ele>86.824123</ele>
        <time>2020-09-27T11:10:39.395Z</time>
      </trkpt>
      <trkpt lat="65.03427" lon="21.15361">
        <ele>86.854168</ele>
        <time>2020-09-27T11:10:41.399Z</time>
      </trkpt>
      <trkpt lat="65.03419" lon="21.15376">
        <ele>86.805203</ele>
        <time>2020-09-27T11:10:43.375Z</time>
      </trkpt>
      <trkpt lat="65.0341" lon="21.15391">
        <ele>86.755121</ele>
        <time>2020-09-27T11:10:45.391Z</time>
      </trkpt>
      <trkpt lat="65.03402" lon="21.15405">
        <ele>86.71028</ele>
        <time>2020-09-27T11:10:47.391Z</time>
      </trkpt>
      <trkpt lat="65.03394" lon="21.15419">
        <ele>86.66544</ele>
        <time>2020-09-27T11:10:49.406Z</time>
      </trkpt>
      <trkpt lat="65.03384" lon="21.15437">
        <ele>86.604814</ele>
        <time>2020-09-27T11:10:52.395Z</time>
      </trkpt>
      <trkpt lat="65.03373" lon="21.15452">
        <ele>86.547268</ele>
        <time>2020-09-27T11:10:55.430Z</time>
      </trkpt>
      <trkpt lat="65.03362" lon="21.15468">
        <ele>86.489226</ele>
        <time>2020-09-27T11:10:58.382Z</time>
      </trkpt>
      <trkpt lat="65.03352" lon="21.15483">
        <ele>86.430395</ele>
        <time>2020-09-27T11:11:01.412Z</time>
      </trkpt>
      <trkpt lat="65.0334" lon="21.15498">
        <ele>86.369804</ele>
        <time>2020-09-27T11:11:04.385Z</time>
      </trkpt>
      <trkpt lat="65.03328" lon="21.15512">
        <ele>86.306921</ele>
        <time>2020-09-27T11:11:07.383Z</time>
      </trkpt>
      <trkpt lat="65.03315" lon="21.15525">
        <ele>86.244434</ele>
        <time>2020-09-27T11:11:10.446Z</time>
      </trkpt>
      <trkpt lat="65.03307" lon="21.15532">
        <ele>86.202861</ele>
        <time>2020-09-27T11:11:12.403Z</time>
      </trkpt>
      <trkpt lat="65.03294" lon="21.1554">
        <ele>86.141106</ele>
        <time>2020-09-27T11:11:15.382Z</time>
      </trkpt>
      <trkpt lat="65.03285" lon="21.15544">
        <ele>86.099459</ele>
        <time>2020-09-27T11:11:17.374Z</time>
      </trkpt>
      <trkpt lat="65.03272" lon="21.15547">
        <ele>85.940927</ele>
        <time>2020-09-27T11:11:20.402Z</time>
      </trkpt>
      <trkpt lat="65.03259" lon="21.15546">
        <ele>85.541617</ele>
        <time>2020-09-27T11:11:23.415Z</time>
      </trkpt>
      <trkpt lat="65.03246" lon="21.15544">
        <ele>85.144928</ele>
        <time>2020-09-27T11:11:26.410Z</time>
      </trkpt>
      <trkpt lat="65.03233" lon="21.15541">
        <ele>84.74059</ele>
        <time>2020-09-27T11:11:29.392Z</time>
      </trkpt>
      <trkpt lat="65.0322" lon="21.15536">
        <ele>84.349023</ele>
        <time>2020-09-27T11:11:32.404Z</time>
      </trkpt>
      <trkpt lat="65.03207" lon="21.15531">
        <ele>83.950622</ele>
        <time>2020-09-27T11:11:35.375Z</time>
      </trkpt>
      <trkpt lat="65.03194" lon="21.15525">
        <ele>83.555876</ele>
        <time>2020-09-27T11:11:38.410Z</time>
      </trkpt>
      <trkpt lat="65.03182" lon="21.15518">
        <ele>83.172245</ele>
        <time>2020-09-27T11:11:41.383Z</time>
      </trkpt>
      <trkpt lat="65.03173" lon="21.15513">
        <ele>82.893903</ele>
        <time>2020-09-27T11:11:43.396Z</time>
      </trkpt>
      <trkpt lat="65.03164" lon="21.15508">
        <ele>82.614967</ele>
        <time>2020-09-27T11:11:45.387Z</time>
      </trkpt>
      <trkpt lat="65.03156" lon="21.15501">
        <ele>82.336291</ele>
        <time>2020-09-27T11:11:47.378Z</time>
      </trkpt>
      <trkpt lat="65.03147" lon="21.15493">
        <ele>82.043464</ele>
        <time>2020-09-27T11:11:49.410Z</time>
      </trkpt>
      <trkpt lat="65.03138" lon="21.15484">
        <ele>81.743067</ele>
        <time>2020-09-27T11:11:51.398Z</time>
      </trkpt>
      <trkpt lat="65.03129" lon="21.15474">
        <ele>81.453389</ele>
        <time>2020-09-27T11:11:53.414Z</time>
      </trkpt>
      <trkpt lat="65.0312" lon="21.15465">
        <ele>81.162102</ele>
        <time>2020-09-27T11:11:55.374Z</time>
      </trkpt>
      <trkpt lat="65.03112" lon="21.15456">
        <ele>80.884352</ele>
        <time>2020-09-27T11:11:57.384Z</time>
      </trkpt>
      <trkpt lat="65.03103" lon="21.15448">
        <ele>80.599122</ele>
        <time>2020-09-27T11:11:59.391Z</time>
      </trkpt>
      <trkpt lat="65.03095" lon="21.15439">
        <ele>80.886405</ele>
        <time>2020-09-27T11:12:01.383Z</time>
      </trkpt>
      <trkpt lat="65.03087" lon="21.15428">
        <ele>81.244412</ele>
        <time>2020-09-27T11:12:03.395Z</time>
      </trkpt>
      <trkpt lat="65.03079" lon="21.15417">
        <ele>81.596274</ele>
        <time>2020-09-27T11:12:05.396Z</time>
      </trkpt>
      <trkpt lat="65.03071" lon="21.15406">
        <ele>81.931268</ele>
        <time>2020-09-27T11:12:07.399Z</time>
      </trkpt>
      <trkpt lat="65.03061" lon="21.1539">
        <ele>82.392995</ele>
        <time>2020-09-27T11:12:10.404Z</time>
      </trkpt>
      <trkpt lat="65.03051" lon="21.15375">
        <ele>82.812775</ele>
        <time>2020-09-27T11:12:13.403Z</time>
      </trkpt>
      <trkpt lat="65.03042" lon="21.15362">
        <ele>83.208095</ele>
        <time>2020-09-27T11:12:16.382Z</time>
      </trkpt>
      <trkpt lat="65.03034" lon="21.1535">
        <ele>83.567992</ele>
        <time>2020-09-27T11:12:19.383Z</time>
      </trkpt>
      <trkpt lat="65.03025" lon="21.15339">
        <ele>83.953175</ele>
        <time>2020-09-27T11:12:22.392Z</time>
      </trkpt>
      <trkpt lat="65.03016" lon="21.15327">
        <ele>84.329275</ele>
        <time>2020-09-27T11:12:25.421Z</time>
      </trkpt>
      <trkpt lat="65.03008" lon="21.15315">
        <ele>84.68841</ele>
        <time>2020-09-27T11:12:28.395Z</time>
      </trkpt>
      <trkpt lat="65.02998" lon="21.15303">
        <ele>85.08774</ele>
        <time>2020-09-27T11:12:31.388Z</time>
      </trkpt>
      <trkpt lat="65.02989" lon="21.1529">
        <ele>85.49789</ele>
        <time>2020-09-27T11:12:34.378Z</time>
      </trkpt>
      <trkpt lat="65.02978" lon="21.15282">
        <ele>85.91437</ele>
        <time>2020-09-27T11:12:37.375Z</time>
      </trkpt>
      <trkpt lat="65.02967" lon="21.15272">
        <ele>86.354076</ele>
        <time>2020-09-27T11:12:40.382Z</time>
      </trkpt>
      <trkpt lat="65.02955" lon="21.15266">
        <ele>86.809115</ele>
        <time>2020-09-27T11:12:43.383Z</time>
      </trkpt>
      <trkpt lat="65.02943" lon="21.15263">
        <ele>87.286608</ele>
        <time>2020-09-27T11:12:46.385Z</time>
      </trkpt>
      <trkpt lat="65.0293" lon="21.15262">
        <ele>87.846158</ele>
        <time>2020-09-27T11:12:49.413Z</time>
      </trkpt>
      <trkpt lat="65.02917" lon="21.15261">
        <ele>88.411412</ele>
        <time>2020-09-27T11:12:52.430Z</time>
      </trkpt>
      <trkpt lat="65.02904" lon="21.15259">
        <ele>88.969148</ele>
        <time>2020-09-27T11:12:55.392Z</time>
      </trkpt>
      <trkpt lat="65.02892" lon="21.15261">
        <ele>89.504167</ele>
        <time>2020-09-27T11:12:58.398Z</time>
      </trkpt>
      <trkpt lat="65.0288" lon="21.15261">
        <ele>90.01677</ele>
        <time>2020-09-27T11:13:01.405Z</time>
      </trkpt>
      <trkpt lat="65.02868" lon="21.1526">
        <ele>90.547025</ele>
        <time>2020-09-27T11:13:04.392Z</time>
      </trkpt>
      <trkpt lat="65.02856" lon="21.1526">
        <ele>91.099105</ele>
        <time>2020-09-27T11:13:07.396Z</time>
      </trkpt>
      <trkpt lat="65.02843" lon="21.15259">
        <ele>91.646838</ele>
        <time>2020-09-27T11:13:10.410Z</time>
      </trkpt>
      <trkpt lat="65.0283" lon="21.15261">
        <ele>92.222319</ele>
        <time>2020-09-27T11:13:13.383Z</time>
      </trkpt>
      <trkpt lat="65.02817" lon="21.15262">
        <ele>92.805035</ele>
        <time>2020-09-27T11:13:16.387Z</time>
      </trkpt>
      <trkpt lat="65.02804" lon="21.15263">
        <ele>93.340054</ele>
        <time>2020-09-27T11:13:19.402Z</time>
      </trkpt>
      <trkpt lat="65.02792" lon="21.15263">
        <ele>93.892068</ele>
        <time>2020-09-27T11:13:22.384Z</time>
      </trkpt>
      <trkpt lat="65.02779" lon="21.15266">
        <ele>94.476287</ele>
        <time>2020-09-27T11:13:25.416Z</time>
      </trkpt>
      <trkpt lat="65.0277" lon="21.15266">
        <ele>94.866233</ele>
        <time>2020-09-27T11:13:27.376Z</time>
      </trkpt>
      <trkpt lat="65.02761" lon="21.15267">
        <ele>95.070016</ele>
        <time>2020-09-27T11:13:29.391Z</time>
      </trkpt>
      <trkpt lat="65.02748" lon="21.15267">
        <ele>94.432243</ele>
        <time>2020-09-27T11:13:32.402Z</time>
      </trkpt>
      <trkpt lat="65.02735" lon="21.15267">
        <ele>93.784579</ele>
        <time>2020-09-27T11:13:35.384Z</time>
      </trkpt>
      <trkpt lat="65.02722" lon="21.15268">
        <ele>93.146861</ele>
        <time>2020-09-27T11:13:38.395Z</time>
      </trkpt>
      <trkpt lat="65.02709" lon="21.15269">
        <ele>92.518712</ele>
        <time>2020-09-27T11:13:41.431Z</time>
      </trkpt>
      <trkpt lat="65.02697" lon="21.1527">
        <ele>91.88044</ele>
        <time>2020-09-27T11:13:44.380Z</time>
      </trkpt>
      <trkpt lat="65.02684" lon="21.1527">
        <ele>91.232704</ele>
        <time>2020-09-27T11:13:47.385Z</time>
      </trkpt>
      <trkpt lat="65.02674" lon="21.15272">
        <ele>90.762324</ele>
        <time>2020-09-27T11:13:49.375Z</time>
      </trkpt>
      <trkpt lat="65.02664" lon="21.15274">
        <ele>90.261139</ele>
        <time>2020-09-27T11:13:51.378Z</time>
      </trkpt>
      <trkpt lat="65.02654" lon="21.15276">
        <ele>89.752356</ele>
        <time>2020-09-27T11:13:53.380Z</time>
      </trkpt>
      <trkpt lat="65.02644" lon="21.15277">
        <ele>89.243674</ele>
        <time>2020-09-27T11:13:55.390Z</time>
      </trkpt>
      <trkpt lat="65.02634" lon="21.15278">
        <ele>88.74006</ele>
        <time>2020-09-27T11:13:57.405Z</time>
      </trkpt>
      <trkpt lat="65.02624" lon="21.15279">
        <ele>88.236143</ele>
        <time>2020-09-27T11:13:59.390Z</time>
      </trkpt>
      <trkpt lat="65.02613" lon="21.15281">
        <ele>87.721283</ele>
        <time>2020-09-27T11:14:01.389Z</time>
      </trkpt>
      <trkpt lat="65.02603" lon="21.15282">
        <ele>87.222646</ele>
        <time>2020-09-27T11:14:03.383Z</time>
      </trkpt>
      <trkpt lat="65.02593" lon="21.15283">
        <ele>86.723704</ele>
        <time>2020-09-27T11:14:05.385Z</time>
      </trkpt>
      <trkpt lat="65.02583" lon="21.15284">
        <ele>86.22009</ele>
        <time>2020-09-27T11:14:07.386Z</time>
      </trkpt>
      <trkpt lat="65.02574" lon="21.15287">
        <ele>86.070791</ele>
        <time>2020-09-27T11:14:09.426Z</time>
      </trkpt>
      <trkpt lat="65.02564" lon="21.15288">
        <ele>85.926928</ele>
        <time>2020-09-27T11:14:11.393Z</time>
      </trkpt>
      <trkpt lat="65.02554" lon="21.15289">
        <ele>85.778827</ele>
        <time>2020-09-27T11:14:13.399Z</time>
      </trkpt>
      <trkpt lat="65.02544" lon="21.1529">
        <ele>85.629274</ele>
        <time>2020-09-27T11:14:15.446Z</time>
      </trkpt>
      <trkpt lat="65.02534" lon="21.15291">
        <ele>85.479739</ele>
        <time>2020-09-27T11:14:17.391Z</time>
      </trkpt>
      <trkpt lat="65.02524" lon="21.15291">
        <ele>85.327178</ele>
        <time>2020-09-27T11:14:19.423Z</time>
      </trkpt>
      <trkpt lat="65.02514" lon="21.15292">
        <ele>85.176112</ele>
        <time>2020-09-27T11:14:21.374Z</time>
      </trkpt>
      <trkpt lat="65.02504" lon="21.15293">
        <ele>85.026591</ele>
        <time>2020-09-27T11:14:23.382Z</time>
      </trkpt>
      <trkpt lat="65.02494" lon="21.15293">
        <ele>84.883015</ele>
        <time>2020-09-27T11:14:25.416Z</time>
      </trkpt>
      <trkpt lat="65.02485" lon="21.15295">
        <ele>84.748227</ele>
        <time>2020-09-27T11:14:27.390Z</time>
      </trkpt>
      <trkpt lat="65.02476" lon="21.15296">
        <ele>84.611907</ele>
        <time>2020-09-27T11:14:29.393Z</time>
      </trkpt>
      <trkpt lat="65.02463" lon="21.15297">
        <ele>84.417449</ele>
        <time>2020-09-27T11:14:32.397Z</time>
      </trkpt>
      <trkpt lat="65.0245" lon="21.15298">
        <ele>84.226001</ele>
        <time>2020-09-27T11:14:35.406Z</time>
      </trkpt>
      <trkpt lat="65.02438" lon="21.15298">
        <ele>84.04811</ele>
        <time>2020-09-27T11:14:38.408Z</time>
      </trkpt>
      <trkpt lat="65.02427" lon="21.15299">
        <ele>83.879132</ele>
        <time>2020-09-27T11:14:41.407Z</time>
      </trkpt>
      <trkpt lat="65.02416" lon="21.153">
        <ele>83.717444</ele>
        <time>2020-09-27T11:14:44.413Z</time>
      </trkpt>
      <trkpt lat="65.02406" lon="21.15302">
        <ele>83.561726</ele>
        <time>2020-09-27T11:14:47.387Z</time>
      </trkpt>
      <trkpt lat="65.02396" lon="21.15302">
        <ele>83.554769</ele>
        <time>2020-09-27T11:14:50.392Z</time>
      </trkpt>
      <trkpt lat="65.02387" lon="21.15303">
        <ele>83.595378</ele>
        <time>2020-09-27T11:14:53.394Z</time>
      </trkpt>
      <trkpt lat="65.02378" lon="21.15304">
        <ele>83.634294</ele>
        <time>2020-09-27T11:14:56.405Z</time>
      </trkpt>
      <trkpt lat="65.02368" lon="21.15306">
        <ele>83.674993</ele>
        <time>2020-09-27T11:14:59.407Z</time>
      </trkpt>
      <trkpt lat="65.02358" lon="21.15306">
        <ele>83.718157</ele>
        <time>2020-09-27T11:15:02.379Z</time>
      </trkpt>
      <trkpt lat="65.02348" lon="21.15307">
        <ele>83.759182</ele>
        <time>2020-09-27T11:15:05.375Z</time>
      </trkpt>
      <trkpt lat="65.02338" lon="21.15308">
        <ele>83.805369</ele>
        <time>2020-09-27T11:15:08.401Z</time>
      </trkpt>
      <trkpt lat="65.02326" lon="21.1531">
        <ele>83.856276</ele>
        <time>2020-09-27T11:15:11.393Z</time>
      </trkpt>
      <trkpt lat="65.02313" lon="21.15312">
        <ele>83.912332</ele>
        <time>2020-09-27T11:15:14.382Z</time>
      </trkpt>
      <trkpt lat="65.02304" lon="21.15312">
        <ele>83.951207</ele>
        <time>2020-09-27T11:15:16.422Z</time>
      </trkpt>
      <trkpt lat="65.02294" lon="21.15312">
        <ele>83.992646</ele>
        <time>2020-09-27T11:15:18.402Z</time>
      </trkpt>
      <trkpt lat="65.02284" lon="21.15312">
        <ele>84.034083</ele>
        <time>2020-09-27T11:15:20.426Z</time>
      </trkpt>
      <trkpt lat="65.02274" lon="21.15312">
        <ele>84.07553</ele>
        <time>2020-09-27T11:15:22.405Z</time>
      </trkpt>
      <trkpt lat="65.02265" lon="21.15313">
        <ele>84.117398</ele>
        <time>2020-09-27T11:15:24.425Z</time>
      </trkpt>
      <trkpt lat="65.02255" lon="21.15314">
        <ele>84.158456</ele>
        <time>2020-09-27T11:15:26.382Z</time>
      </trkpt>
      <trkpt lat="65.02246" lon="21.15314">
        <ele>84.199054</ele>
        <time>2020-09-27T11:15:28.387Z</time>
      </trkpt>
      <trkpt lat="65.02236" lon="21.15315">
        <ele>84.240516</ele>
        <time>2020-09-27T11:15:30.396Z</time>
      </trkpt>
      <trkpt lat="65.02226" lon="21.15316">
        <ele>84.282863</ele>
        <time>2020-09-27T11:15:32.409Z</time>
      </trkpt>
      <trkpt lat="65.02216" lon="21.15317">
        <ele>84.371237</ele>
        <time>2020-09-27T11:15:34.428Z</time>
      </trkpt>
      <trkpt lat="65.02207" lon="21.15318">
        <ele>84.472452</ele>
        <time>2020-09-27T11:15:36.423Z</time>
      </trkpt>
      <trkpt lat="65.02198" lon="21.15318">
        <ele>84.571565</ele>
        <time>2020-09-27T11:15:38.392Z</time>
      </trkpt>
      <trkpt lat="65.02188" lon="21.15319">
        <ele>84.674953</ele>
        <time>2020-09-27T11:15:40.408Z</time>
      </trkpt>
      <trkpt lat="65.02179" lon="21.1532">
        <ele>84.777294</ele>
        <time>2020-09-27T11:15:42.386Z</time>
      </trkpt>
      <trkpt lat="65.02169" lon="21.15319">
        <ele>84.881748</ele>
        <time>2020-09-27T11:15:44.387Z</time>
      </trkpt>
      <trkpt lat="65.02159" lon="21.15319">
        <ele>84.986178</ele>
        <time>2020-09-27T11:15:46.396Z</time>
      </trkpt>
      <trkpt lat="65.0215" lon="21.1532">
        <ele>85.089555</ele>
        <time>2020-09-27T11:15:48.399Z</time>
      </trkpt>
      <trkpt lat="65.0214" lon="21.1532">
        <ele>85.188627</ele>
        <time>2020-09-27T11:15:50.406Z</time>
      </trkpt>
      <trkpt lat="65.02131" lon="21.15321">
        <ele>85.28769</ele>
        <time>2020-09-27T11:15:52.422Z</time>
      </trkpt>
      <trkpt lat="65.02122" lon="21.15322">
        <ele>85.385812</ele>
        <time>2020-09-27T11:15:54.387Z</time>
      </trkpt>
      <trkpt lat="65.02109" lon="21.15322">
        <ele>85.522557</ele>
        <time>2020-09-27T11:15:57.411Z</time>
      </trkpt>
      <trkpt lat="65.02098" lon="21.15323">
        <ele>85.642072</ele>
        <time>2020-09-27T11:16:00.404Z</time>
      </trkpt>
      <trkpt lat="65.02087" lon="21.15325">
        <ele>85.763143</ele>
        <time>2020-09-27T11:16:03.379Z</time>
      </trkpt>
      <trkpt lat="65.02076" lon="21.15326">
        <ele>85.878446</ele>
        <time>2020-09-27T11:16:06.407Z</time>
      </trkpt>
      <trkpt lat="65.02066" lon="21.15328">
        <ele>85.995921</ele>
        <time>2020-09-27T11:16:09.413Z</time>
      </trkpt>
      <trkpt lat="65.02055" lon="21.15328">
        <ele>86.111173</ele>
        <time>2020-09-27T11:16:12.398Z</time>
      </trkpt>
      <trkpt lat="65.02044" lon="21.1533">
        <ele>86.224449</ele>
        <time>2020-09-27T11:16:15.415Z</time>
      </trkpt>
      <trkpt lat="65.02034" lon="21.15331">
        <ele>86.274503</ele>
        <time>2020-09-27T11:16:18.436Z</time>
      </trkpt>
      <trkpt lat="65.02023" lon="21.15332">
        <ele>86.320032</ele>
        <time>2020-09-27T11:16:21.414Z</time>
      </trkpt>
      <trkpt lat="65.02013" lon="21.15333">
        <ele>86.364242</ele>
        <time>2020-09-27T11:16:24.399Z</time>
      </trkpt>
      <trkpt lat="65.02003" lon="21.15335">
        <ele>86.410198</ele>
        <time>2020-09-27T11:16:27.406Z</time>
      </trkpt>
      <trkpt lat="65.01992" lon="21.15335">
        <ele>86.456989</ele>
        <time>2020-09-27T11:16:30.390Z</time>
      </trkpt>
      <trkpt lat="65.01981" lon="21.15336">
        <ele>86.50421</ele>
        <time>2020-09-27T11:16:33.433Z</time>
      </trkpt>
      <trkpt lat="65.01971" lon="21.15336">
        <ele>86.550116</ele>
        <time>2020-09-27T11:16:36.404Z</time>
      </trkpt>
      <trkpt lat="65.0196" lon="21.15337">
        <ele>86.598234</ele>
        <time>2020-09-27T11:16:39.410Z</time>
      </trkpt>
      <trkpt lat="65.01949" lon="21.15338">
        <ele>86.64419</ele>
        <time>2020-09-27T11:16:42.394Z</time>
      </trkpt>
      <trkpt lat="65.01938" lon="21.15338">
        <ele>86.693155</ele>
        <time>2020-09-27T11:16:45.415Z</time>
      </trkpt>
      <trkpt lat="65.01927" lon="21.15339">
        <ele>86.74259</ele>
        <time>2020-09-27T11:16:48.392Z</time>
      </trkpt>
      <trkpt lat="65.01916" lon="21.15339">
        <ele>86.789805</ele>
        <time>2020-09-27T11:16:51.382Z</time>
      </trkpt>
      <trkpt lat="65.01906" lon="21.1534">
        <ele>86.834435</ele>
        <time>2020-09-27T11:16:54.400Z</time>
      </trkpt>
      <trkpt lat="65.01895" lon="21.1534">
        <ele>86.880776</ele>
        <time>2020-09-27T11:16:57.403Z</time>
      </trkpt>
      <trkpt lat="65.01885" lon="21.15342">
        <ele>86.926296</ele>
        <time>2020-09-27T11:17:00.404Z</time>
      </trkpt>
      <trkpt lat="65.01874" lon="21.15343">
        <ele>86.973615</ele>
        <time>2020-09-27T11:17:03.403Z</time>
      </trkpt>
      <trkpt lat="65.01863" lon="21.15344">
        <ele>87.018438</ele>
        <time>2020-09-27T11:17:06.396Z</time>
      </trkpt>
      <trkpt lat="65.01852" lon="21.15345">
        <ele>87.037333</ele>
        <time>2020-09-27T11:17:09.420Z</time>
      </trkpt>
      <trkpt lat="65.01841" lon="21.15345">
        <ele>87.057129</ele>
        <time>2020-09-27T11:17:12.405Z</time>
      </trkpt>
      <trkpt lat="65.0183" lon="21.15346">
        <ele>87.078023</ele>
        <time>2020-09-27T11:17:15.393Z</time>
      </trkpt>
      <trkpt lat="65.01818" lon="21.15348">
        <ele>87.099502</ele>
        <time>2020-09-27T11:17:18.393Z</time>
      </trkpt>
      <trkpt lat="65.01805" lon="21.15349">
        <ele>87.1224</ele>
        <time>2020-09-27T11:17:21.381Z</time>
      </trkpt>
      <trkpt lat="65.01793" lon="21.1535">
        <ele>87.144936</ele>
        <time>2020-09-27T11:17:24.405Z</time>
      </trkpt>
      <trkpt lat="65.01781" lon="21.1535">
        <ele>87.16746</ele>
        <time>2020-09-27T11:17:27.386Z</time>
      </trkpt>
      <trkpt lat="65.01768" lon="21.1535">
        <ele>87.18998</ele>
        <time>2020-09-27T11:17:30.387Z</time>
      </trkpt>
      <trkpt lat="65.01759" lon="21.15351">
        <ele>87.206325</ele>
        <time>2020-09-27T11:17:32.426Z</time>
      </trkpt>
      <trkpt lat="65.0175" lon="21.15351">
        <ele>87.223401</ele>
        <time>2020-09-27T11:17:34.375Z</time>
      </trkpt>
      <trkpt lat="65.01741" lon="21.15351">
        <ele>87.239927</ele>
        <time>2020-09-27T11:17:36.388Z</time>
      </trkpt>
      <trkpt lat="65.01731" lon="21.15351">
        <ele>87.257364</ele>
        <time>2020-09-27T11:17:38.423Z</time>
      </trkpt>
      <trkpt lat="65.01721" lon="21.1535">
        <ele>87.275545</ele>
        <time>2020-09-27T11:17:40.406Z</time>
      </trkpt>
      <trkpt lat="65.01711" lon="21.15348">
        <ele>87.293198</ele>
        <time>2020-09-27T11:17:42.392Z</time>
      </trkpt>
      <trkpt lat="65.01701" lon="21.15346">
        <ele>87.311412</ele>
        <time>2020-09-27T11:17:44.386Z</time>
      </trkpt>
      <trkpt lat="65.01691" lon="21.15346">
        <ele>87.3303</ele>
        <time>2020-09-27T11:17:46.378Z</time>
      </trkpt>
      <trkpt lat="65.0168" lon="21.15345">
        <ele>87.316621</ele>
        <time>2020-09-27T11:17:48.426Z</time>
      </trkpt>
      <trkpt lat="65.0167" lon="21.15343">
        <ele>87.253385</ele>
        <time>2020-09-27T11:17:50.416Z</time>
      </trkpt>
      <trkpt lat="65.01659" lon="21.15341">
        <ele>87.190723</ele>
        <time>2020-09-27T11:17:52.406Z</time>
      </trkpt>
      <trkpt lat="65.01648" lon="21.15339">
        <ele>87.126854</ele>
        <time>2020-09-27T11:17:54.384Z</time>
      </trkpt>
      <trkpt lat="65.01638" lon="21.15337">
        <ele>87.064127</ele>
        <time>2020-09-27T11:17:56.411Z</time>
      </trkpt>
      <trkpt lat="65.01627" lon="21.15333">
        <ele>87.00039</ele>
        <time>2020-09-27T11:17:58.421Z</time>
      </trkpt>
      <trkpt lat="65.01617" lon="21.15329">
        <ele>86.937753</ele>
        <time>2020-09-27T11:18:00.377Z</time>
      </trkpt>
      <trkpt lat="65.01607" lon="21.15326">
        <ele>86.876291</ele>
        <time>2020-09-27T11:18:02.425Z</time>
      </trkpt>
      <trkpt lat="65.01597" lon="21.15321">
        <ele>86.815692</ele>
        <time>2020-09-27T11:18:04.423Z</time>
      </trkpt>
      <trkpt lat="65.01587" lon="21.15317">
        <ele>86.757525</ele>
        <time>2020-09-27T11:18:06.383Z</time>
      </trkpt>
      <trkpt lat="65.01578" lon="21.15313">
        <ele>86.703815</ele>
        <time>2020-09-27T11:18:08.410Z</time>
      </trkpt>
      <trkpt lat="65.01569" lon="21.1531">
        <ele>86.650815</ele>
        <time>2020-09-27T11:18:10.396Z</time>
      </trkpt>
      <trkpt lat="65.01557" lon="21.15305">
        <ele>86.574898</ele>
        <time>2020-09-27T11:18:13.389Z</time>
      </trkpt>
      <trkpt lat="65.01544" lon="21.153">
        <ele>86.500196</ele>
        <time>2020-09-27T11:18:16.409Z</time>
      </trkpt>
      <trkpt lat="65.01532" lon="21.15295">
        <ele>86.422854</ele>
        <time>2020-09-27T11:18:19.378Z</time>
      </trkpt>
      <trkpt lat="65.01518" lon="21.15289">
        <ele>86.342991</ele>
        <time>2020-09-27T11:18:22.406Z</time>
      </trkpt>
      <trkpt lat="65.01509" lon="21.15285">
        <ele>86.286265</ele>
        <time>2020-09-27T11:18:24.388Z</time>
      </trkpt>
      <trkpt lat="65.01499" lon="21.1528">
        <ele>86.174607</ele>
        <time>2020-09-27T11:18:26.388Z</time>
      </trkpt>
      <trkpt lat="65.01487" lon="21.15277">
        <ele>86.036452</ele>
        <time>2020-09-27T11:18:28.415Z</time>
      </trkpt>
      <trkpt lat="65.01475" lon="21.15272">
        <ele>85.889137</ele>
        <time>2020-09-27T11:18:30.415Z</time>
      </trkpt>
      <trkpt lat="65.01463" lon="21.15266">
        <ele>85.740286</ele>
        <time>2020-09-27T11:18:32.398Z</time>
      </trkpt>
      <trkpt lat="65.0145" lon="21.1526">
        <ele>85.585951</ele>
        <time>2020-09-27T11:18:34.420Z</time>
      </trkpt>
      <trkpt lat="65.01437" lon="21.15254">
        <ele>85.42671</ele>
        <time>2020-09-27T11:18:36.400Z</time>
      </trkpt>
      <trkpt lat="65.01424" lon="21.15248">
        <ele>85.266961</ele>
        <time>2020-09-27T11:18:38.422Z</time>
      </trkpt>
      <trkpt lat="65.01411" lon="21.15243">
        <ele>85.107212</ele>
        <time>2020-09-27T11:18:40.384Z</time>
      </trkpt>
      <trkpt lat="65.01398" lon="21.15237">
        <ele>84.9451</ele>
        <time>2020-09-27T11:18:42.393Z</time>
      </trkpt>
      <trkpt lat="65.01385" lon="21.15231">
        <ele>84.782622</ele>
        <time>2020-09-27T11:18:44.384Z</time>
      </trkpt>
      <trkpt lat="65.01371" lon="21.15226">
        <ele>84.62178</ele>
        <time>2020-09-27T11:18:46.403Z</time>
      </trkpt>
      <trkpt lat="65.01358" lon="21.1522">
        <ele>84.464483</ele>
        <time>2020-09-27T11:18:48.394Z</time>
      </trkpt>
      <trkpt lat="65.01346" lon="21.15215">
        <ele>84.307533</ele>
        <time>2020-09-27T11:18:50.393Z</time>
      </trkpt>
      <trkpt lat="65.01333" lon="21.15209">
        <ele>84.152991</ele>
        <time>2020-09-27T11:18:52.391Z</time>
      </trkpt>
      <trkpt lat="65.01321" lon="21.15203">
        <ele>84.091697</ele>
        <time>2020-09-27T11:18:54.386Z</time>
      </trkpt>
      <trkpt lat="65.01309" lon="21.15198">
        <ele>84.062095</ele>
        <time>2020-09-27T11:18:56.417Z</time>
      </trkpt>
      <trkpt lat="65.01297" lon="21.15194">
        <ele>84.033949</ele>
        <time>2020-09-27T11:18:58.412Z</time>
      </trkpt>
      <trkpt lat="65.01287" lon="21.15189">
        <ele>84.00744</ele>
        <time>2020-09-27T11:19:00.389Z</time>
      </trkpt>
      <trkpt lat="65.01277" lon="21.15183">
        <ele>83.982682</ele>
        <time>2020-09-27T11:19:02.413Z</time>
      </trkpt>
      <trkpt lat="65.01268" lon="21.15179">
        <ele>83.960588</ele>
        <time>2020-09-27T11:19:04.425Z</time>
      </trkpt>
      <trkpt lat="65.01259" lon="21.15174">
        <ele>83.937889</ele>
        <time>2020-09-27T11:19:06.410Z</time>
      </trkpt>
      <trkpt lat="65.01249" lon="21.1517">
        <ele>83.913203</ele>
        <time>2020-09-27T11:19:08.433Z</time>
      </trkpt>
      <trkpt lat="65.01238" lon="21.15166">
        <ele>83.886614</ele>
        <time>2020-09-27T11:19:10.394Z</time>
      </trkpt>
      <trkpt lat="65.01227" lon="21.15162">
        <ele>83.860455</ele>
        <time>2020-09-27T11:19:12.409Z</time>
      </trkpt>
      <trkpt lat="65.01217" lon="21.15157">
        <ele>83.834261</ele>
        <time>2020-09-27T11:19:14.409Z</time>
      </trkpt>
      <trkpt lat="65.01206" lon="21.15152">
        <ele>83.807951</ele>
        <time>2020-09-27T11:19:16.407Z</time>
      </trkpt>
      <trkpt lat="65.01195" lon="21.15148">
        <ele>83.781313</ele>
        <time>2020-09-27T11:19:18.385Z</time>
      </trkpt>
      <trkpt lat="65.01184" lon="21.15142">
        <ele>83.753014</ele>
        <time>2020-09-27T11:19:20.394Z</time>
      </trkpt>
      <trkpt lat="65.01172" lon="21.15138">
        <ele>83.724471</ele>
        <time>2020-09-27T11:19:22.401Z</time>
      </trkpt>
      <trkpt lat="65.01161" lon="21.15133">
        <ele>83.696547</ele>
        <time>2020-09-27T11:19:24.409Z</time>
      </trkpt>
      <trkpt lat="65.01149" lon="21.15128">
        <ele>83.623631</ele>
        <time>2020-09-27T11:19:26.387Z</time>
      </trkpt>
      <trkpt lat="65.01137" lon="21.15122">
        <ele>83.452168</ele>
        <time>2020-09-27T11:19:28.385Z</time>
      </trkpt>
      <trkpt lat="65.01124" lon="21.15116">
        <ele>83.277935</ele>
        <time>2020-09-27T11:19:30.387Z</time>
      </trkpt>
      <trkpt lat="65.01111" lon="21.15109">
        <ele>83.102028</ele>
        <time>2020-09-27T11:19:32.410Z</time>
      </trkpt>
      <trkpt lat="65.01099" lon="21.15102">
        <ele>82.927072</ele>
        <time>2020-09-27T11:19:34.413Z</time>
      </trkpt>
      <trkpt lat="65.01086" lon="21.15094">
        <ele>82.747456</ele>
        <time>2020-09-27T11:19:36.394Z</time>
      </trkpt>
      <trkpt lat="65.01073" lon="21.15087">
        <ele>82.570683</ele>
        <time>2020-09-27T11:19:38.423Z</time>
      </trkpt>
      <trkpt lat="65.01061" lon="21.15079">
        <ele>82.392816</ele>
        <time>2020-09-27T11:19:40.377Z</time>
      </trkpt>
      <trkpt lat="65.01048" lon="21.1507">
        <ele>82.206753</ele>
        <time>2020-09-27T11:19:42.395Z</time>
      </trkpt>
      <trkpt lat="65.01034" lon="21.15059">
        <ele>82.014114</ele>
        <time>2020-09-27T11:19:44.430Z</time>
      </trkpt>
      <trkpt lat="65.0102" lon="21.15047">
        <ele>81.816951</ele>
        <time>2020-09-27T11:19:46.394Z</time>
      </trkpt>
      <trkpt lat="65.01006" lon="21.15034">
        <ele>81.612659</ele>
        <time>2020-09-27T11:19:48.385Z</time>
      </trkpt>
      <trkpt lat="65.00992" lon="21.1502">
        <ele>81.402435</ele>
        <time>2020-09-27T11:19:50.419Z</time>
      </trkpt>
      <trkpt lat="65.00977" lon="21.15005">
        <ele>81.121842</ele>
        <time>2020-09-27T11:19:52.418Z</time>
      </trkpt>
      <trkpt lat="65.00962" lon="21.1499">
        <ele>80.648522</ele>
        <time>2020-09-27T11:19:54.399Z</time>
      </trkpt>
      <trkpt lat="65.00946" lon="21.14975">
        <ele>80.17627</ele>
        <time>2020-09-27T11:19:56.403Z</time>
      </trkpt>
      <trkpt lat="65.00931" lon="21.14958">
        <ele>79.706277</ele>
        <time>2020-09-27T11:19:58.402Z</time>
      </trkpt>
      <trkpt lat="65.00916" lon="21.14944">
        <ele>79.24614</ele>
        <time>2020-09-27T11:20:00.397Z</time>
      </trkpt>
      <trkpt lat="65.00902" lon="21.1493">
        <ele>78.801291</ele>
        <time>2020-09-27T11:20:02.419Z</time>
      </trkpt>
      <trkpt lat="65.00888" lon="21.14915">
        <ele>78.365099</ele>
        <time>2020-09-27T11:20:04.408Z</time>
      </trkpt>
      <trkpt lat="65.00874" lon="21.149">
        <ele>77.941072</ele>
        <time>2020-09-27T11:20:06.386Z</time>
      </trkpt>
      <trkpt lat="65.00861" lon="21.14887">
        <ele>77.535726</ele>
        <time>2020-09-27T11:20:08.398Z</time>
      </trkpt>
      <trkpt lat="65.00848" lon="21.14875">
        <ele>77.138785</ele>
        <time>2020-09-27T11:20:10.418Z</time>
      </trkpt>
      <trkpt lat="65.00834" lon="21.14864">
        <ele>76.738199</ele>
        <time>2020-09-27T11:20:12.405Z</time>
      </trkpt>
      <trkpt lat="65.00821" lon="21.14853">
        <ele>76.340771</ele>
        <time>2020-09-27T11:20:14.431Z</time>
      </trkpt>
      <trkpt lat="65.00808" lon="21.14844">
        <ele>76.07183</ele>
        <time>2020-09-27T11:20:16.393Z</time>
      </trkpt>
      <trkpt lat="65.00795" lon="21.14835">
        <ele>75.932339</ele>
        <time>2020-09-27T11:20:18.403Z</time>
      </trkpt>
      <trkpt lat="65.00783" lon="21.14827">
        <ele>75.796382</ele>
        <time>2020-09-27T11:20:20.390Z</time>
      </trkpt>
      <trkpt lat="65.0077" lon="21.14819">
        <ele>75.662037</ele>
        <time>2020-09-27T11:20:22.406Z</time>
      </trkpt>
      <trkpt lat="65.00759" lon="21.14811">
        <ele>75.532341</ele>
        <time>2020-09-27T11:20:24.393Z</time>
      </trkpt>
      <trkpt lat="65.00747" lon="21.14804">
        <ele>75.401847</ele>
        <time>2020-09-27T11:20:26.394Z</time>
      </trkpt>
      <trkpt lat="65.00735" lon="21.14797">
        <ele>75.278137</ele>
        <time>2020-09-27T11:20:28.398Z</time>
      </trkpt>
      <trkpt lat="65.00724" lon="21.1479">
        <ele>75.158182</ele>
        <time>2020-09-27T11:20:30.401Z</time>
      </trkpt>
      <trkpt lat="65.00713" lon="21.14784">
        <ele>75.031894</ele>
        <time>2020-09-27T11:20:32.402Z</time>
      </trkpt>
      <trkpt lat="65.00701" lon="21.14778">
        <ele>74.911776</ele>
        <time>2020-09-27T11:20:34.385Z</time>
      </trkpt>
      <trkpt lat="65.00691" lon="21.14771">
        <ele>74.79576</ele>
        <time>2020-09-27T11:20:36.410Z</time>
      </trkpt>
      <trkpt lat="65.0068" lon="21.14765">
        <ele>74.681126</ele>
        <time>2020-09-27T11:20:38.387Z</time>
      </trkpt>
      <trkpt lat="65.0067" lon="21.14759">
        <ele>74.568289</ele>
        <time>2020-09-27T11:20:40.391Z</time>
      </trkpt>
      <trkpt lat="65.0066" lon="21.14753">
        <ele>74.456368</ele>
        <time>2020-09-27T11:20:42.399Z</time>
      </trkpt>
      <trkpt lat="65.00649" lon="21.14747">
        <ele>74.345066</ele>
        <time>2020-09-27T11:20:44.383Z</time>
      </trkpt>
      <trkpt lat="65.00639" lon="21.14742">
        <ele>74.241155</ele>
        <time>2020-09-27T11:20:46.406Z</time>
      </trkpt>
      <trkpt lat="65.0063" lon="21.14737">
        <ele>74.163268</ele>
        <time>2020-09-27T11:20:48.433Z</time>
      </trkpt>
      <trkpt lat="65.0062" lon="21.14731">
        <ele>74.087937</ele>
        <time>2020-09-27T11:20:50.382Z</time>
      </trkpt>
      <trkpt lat="65.0061" lon="21.14726">
        <ele>74.008311</ele>
        <time>2020-09-27T11:20:52.397Z</time>
      </trkpt>
      <trkpt lat="65.006" lon="21.1472">
        <ele>73.928178</ele>
        <time>2020-09-27T11:20:54.413Z</time>
      </trkpt>
      <trkpt lat="65.00589" lon="21.14714">
        <ele>73.845045</ele>
        <time>2020-09-27T11:20:56.392Z</time>
      </trkpt>
      <trkpt lat="65.00578" lon="21.1471">
        <ele>73.757227</ele>
        <time>2020-09-27T11:20:58.396Z</time>
      </trkpt>
      <trkpt lat="65.00567" lon="21.14703">
        <ele>73.665834</ele>
        <time>2020-09-27T11:21:00.405Z</time>
      </trkpt>
      <trkpt lat="65.00555" lon="21.14696">
        <ele>73.573997</ele>
        <time>2020-09-27T11:21:02.421Z</time>
      </trkpt>
      <trkpt lat="65.00543" lon="21.1469">
        <ele>73.478677</ele>
        <time>2020-09-27T11:21:04.405Z</time>
      </trkpt>
      <trkpt lat="65.00531" lon="21.14685">
        <ele>73.382102</ele>
        <time>2020-09-27T11:21:06.386Z</time>
      </trkpt>
      <trkpt lat="65.00518" lon="21.1468">
        <ele>73.286692</ele>
        <time>2020-09-27T11:21:08.433Z</time>
      </trkpt>
      <trkpt lat="65.00507" lon="21.14675">
        <ele>73.197634</ele>
        <time>2020-09-27T11:21:10.430Z</time>
      </trkpt>
      <trkpt lat="65.00496" lon="21.1467">
        <ele>73.111966</ele>
        <time>2020-09-27T11:21:12.411Z</time>
      </trkpt>
      <trkpt lat="65.00485" lon="21.14665">
        <ele>73.026924</ele>
        <time>2020-09-27T11:21:14.402Z</time>
      </trkpt>
      <trkpt lat="65.00475" lon="21.14661">
        <ele>72.943452</ele>
        <time>2020-09-27T11:21:16.378Z</time>
      </trkpt>
      <trkpt lat="65.00464" lon="21.14658">
        <ele>72.863267</ele>
        <time>2020-09-27T11:21:18.407Z</time>
      </trkpt>
      <trkpt lat="65.00454" lon="21.14655">
        <ele>72.527409</ele>
        <time>2020-09-27T11:21:20.405Z</time>
      </trkpt>
      <trkpt lat="65.00443" lon="21.14653">
        <ele>72.180856</ele>
        <time>2020-09-27T11:21:22.386Z</time>
      </trkpt>
      <trkpt lat="65.00433" lon="21.14652">
        <ele>71.83154</ele>
        <time>2020-09-27T11:21:24.435Z</time>
      </trkpt>
      <trkpt lat="65.00421" lon="21.14651">
        <ele>71.466287</ele>
        <time>2020-09-27T11:21:26.399Z</time>
      </trkpt>
      <trkpt lat="65.0041" lon="21.1465">
        <ele>71.10012</ele>
        <time>2020-09-27T11:21:28.376Z</time>
      </trkpt>
      <trkpt lat="65.00399" lon="21.14646">
        <ele>70.737807</ele>
        <time>2020-09-27T11:21:30.390Z</time>
      </trkpt>
      <trkpt lat="65.00387" lon="21.14643">
        <ele>70.351217</ele>
        <time>2020-09-27T11:21:32.414Z</time>
      </trkpt>
      <trkpt lat="65.00375" lon="21.1464">
        <ele>69.950941</ele>
        <time>2020-09-27T11:21:34.407Z</time>
      </trkpt>
      <trkpt lat="65.00363" lon="21.14637">
        <ele>69.544743</ele>
        <time>2020-09-27T11:21:36.431Z</time>
      </trkpt>
      <trkpt lat="65.0035" lon="21.14634">
        <ele>69.135299</ele>
        <time>2020-09-27T11:21:38.408Z</time>
      </trkpt>
      <trkpt lat="65.00337" lon="21.14631">
        <ele>68.709224</ele>
        <time>2020-09-27T11:21:40.427Z</time>
      </trkpt>
      <trkpt lat="65.00324" lon="21.14629">
        <ele>68.277506</ele>
        <time>2020-09-27T11:21:42.472Z</time>
      </trkpt>
      <trkpt lat="65.00311" lon="21.14625">
        <ele>67.830253</ele>
        <time>2020-09-27T11:21:44.425Z</time>
      </trkpt>
      <trkpt lat="65.00296" lon="21.14622">
        <ele>67.362104</ele>
        <time>2020-09-27T11:21:46.381Z</time>
      </trkpt>
      <trkpt lat="65.00281" lon="21.14618">
        <ele>66.914851</ele>
        <time>2020-09-27T11:21:48.427Z</time>
      </trkpt>
      <trkpt lat="65.00266" lon="21.14615">
        <ele>66.59347</ele>
        <time>2020-09-27T11:21:50.384Z</time>
      </trkpt>
      <trkpt lat="65.00251" lon="21.14612">
        <ele>66.268359</ele>
        <time>2020-09-27T11:21:52.397Z</time>
      </trkpt>
      <trkpt lat="65.00236" lon="21.14612">
        <ele>65.952316</ele>
        <time>2020-09-27T11:21:54.454Z</time>
      </trkpt>
      <trkpt lat="65.00221" lon="21.14614">
        <ele>65.637652</ele>
        <time>2020-09-27T11:21:56.392Z</time>
      </trkpt>
      <trkpt lat="65.00206" lon="21.1462">
        <ele>65.321036</ele>
        <time>2020-09-27T11:21:58.389Z</time>
      </trkpt>
      <trkpt lat="65.00192" lon="21.1463">
        <ele>65.024597</ele>
        <time>2020-09-27T11:22:00.394Z</time>
      </trkpt>
      <trkpt lat="65.0018" lon="21.14642">
        <ele>64.732283</ele>
        <time>2020-09-27T11:22:02.391Z</time>
      </trkpt>
      <trkpt lat="65.00168" lon="21.14657">
        <ele>64.455235</ele>
        <time>2020-09-27T11:22:04.384Z</time>
      </trkpt>
      <trkpt lat="65.00157" lon="21.14673">
        <ele>64.187291</ele>
        <time>2020-09-27T11:22:06.384Z</time>
      </trkpt>
      <trkpt lat="65.00147" lon="21.1469">
        <ele>63.921216</ele>
        <time>2020-09-27T11:22:08.392Z</time>
      </trkpt>
      <trkpt lat="65.00137" lon="21.14707">
        <ele>63.660192</ele>
        <time>2020-09-27T11:22:10.412Z</time>
      </trkpt>
      <trkpt lat="65.00126" lon="21.14724">
        <ele>63.396865</ele>
        <time>2020-09-27T11:22:12.371Z</time>
      </trkpt>
      <trkpt lat="65.00116" lon="21.14741">
        <ele>63.242083</ele>
        <time>2020-09-27T11:22:14.386Z</time>
      </trkpt>
      <trkpt lat="65.00106" lon="21.14758">
        <ele>63.366116</ele>
        <time>2020-09-27T11:22:16.394Z</time>
      </trkpt>
      <trkpt lat="65.00098" lon="21.14773">
        <ele>63.478323</ele>
        <time>2020-09-27T11:22:18.400Z</time>
      </trkpt>
      <trkpt lat="65.00088" lon="21.14788">
        <ele>63.592257</ele>
        <time>2020-09-27T11:22:20.428Z</time>
      </trkpt>
      <trkpt lat="65.00079" lon="21.14803">
        <ele>63.70125</ele>
        <time>2020-09-27T11:22:22.395Z</time>
      </trkpt>
      <trkpt lat="65.00071" lon="21.14817">
        <ele>63.810134</ele>
        <time>2020-09-27T11:22:24.431Z</time>
      </trkpt>
      <trkpt lat="65.00062" lon="21.14831">
        <ele>63.917207</ele>
        <time>2020-09-27T11:22:26.414Z</time>
      </trkpt>
      <trkpt lat="65.00053" lon="21.14845">
        <ele>64.021878</ele>
        <time>2020-09-27T11:22:28.389Z</time>
      </trkpt>
      <trkpt lat="65.00045" lon="21.14858">
        <ele>64.123903</ele>
        <time>2020-09-27T11:22:30.395Z</time>
      </trkpt>
      <trkpt lat="65.00037" lon="21.14871">
        <ele>64.223283</ele>
        <time>2020-09-27T11:22:32.419Z</time>
      </trkpt>
      <trkpt lat="65.00029" lon="21.14885">
        <ele>64.321731</ele>
        <time>2020-09-27T11:22:34.388Z</time>
      </trkpt>
      <trkpt lat="65.00022" lon="21.14897">
        <ele>64.414051</ele>
        <time>2020-09-27T11:22:36.399Z</time>
      </trkpt>
      <trkpt lat="65.00014" lon="21.14909">
        <ele>64.507063</ele>
        <time>2020-09-27T11:22:38.396Z</time>
      </trkpt>
      <trkpt lat="65.00003" lon="21.14927">
        <ele>64.641655</ele>
        <time>2020-09-27T11:22:41.412Z</time>
      </trkpt>
      <trkpt lat="64.99995" lon="21.14938">
        <ele>64.734341</ele>
        <time>2020-09-27T11:22:43.446Z</time>
      </trkpt>
      <trkpt lat="64.99987" lon="21.14951">
        <ele>64.831685</ele>
        <time>2020-09-27T11:22:45.384Z</time>
      </trkpt>
      <trkpt lat="64.99979" lon="21.14964">
        <ele>64.933532</ele>
        <time>2020-09-27T11:22:47.405Z</time>
      </trkpt>
      <trkpt lat="64.99971" lon="21.14976">
        <ele>65.032345</ele>
        <time>2020-09-27T11:22:49.404Z</time>
      </trkpt>
      <trkpt lat="64.99963" lon="21.14989">
        <ele>65.01024</ele>
        <time>2020-09-27T11:22:51.386Z</time>
      </trkpt>
      <trkpt lat="64.99955" lon="21.15001">
        <ele>64.986562</ele>
        <time>2020-09-27T11:22:53.396Z</time>
      </trkpt>
      <trkpt lat="64.99947" lon="21.15013">
        <ele>64.963263</ele>
        <time>2020-09-27T11:22:55.397Z</time>
      </trkpt>
      <trkpt lat="64.99939" lon="21.15026">
        <ele>64.939264</ele>
        <time>2020-09-27T11:22:57.378Z</time>
      </trkpt>
      <trkpt lat="64.99931" lon="21.15038">
        <ele>64.91587</ele>
        <time>2020-09-27T11:22:59.412Z</time>
      </trkpt>
      <trkpt lat="64.99923" lon="21.15051">
        <ele>64.892603</ele>
        <time>2020-09-27T11:23:01.410Z</time>
      </trkpt>
      <trkpt lat="64.99915" lon="21.15064">
        <ele>64.86918</ele>
        <time>2020-09-27T11:23:03.386Z</time>
      </trkpt>
      <trkpt lat="64.99907" lon="21.15077">
        <ele>64.845211</ele>
        <time>2020-09-27T11:23:05.388Z</time>
      </trkpt>
      <trkpt lat="64.99899" lon="21.1509">
        <ele>64.821096</ele>
        <time>2020-09-27T11:23:07.406Z</time>
      </trkpt>
      <trkpt lat="64.99891" lon="21.15103">
        <ele>64.796424</ele>
        <time>2020-09-27T11:23:09.396Z</time>
      </trkpt>
      <trkpt lat="64.99882" lon="21.15116">
        <ele>64.771162</ele>
        <time>2020-09-27T11:23:11.401Z</time>
      </trkpt>
      <trkpt lat="64.99874" lon="21.1513">
        <ele>64.745878</ele>
        <time>2020-09-27T11:23:13.387Z</time>
      </trkpt>
      <trkpt lat="64.99865" lon="21.15143">
        <ele>64.720446</ele>
        <time>2020-09-27T11:23:15.399Z</time>
      </trkpt>
      <trkpt lat="64.99856" lon="21.15157">
        <ele>64.693876</ele>
        <time>2020-09-27T11:23:17.386Z</time>
      </trkpt>
      <trkpt lat="64.99847" lon="21.15172">
        <ele>64.666137</ele>
        <time>2020-09-27T11:23:19.423Z</time>
      </trkpt>
      <trkpt lat="64.99838" lon="21.15187">
        <ele>64.638338</ele>
        <time>2020-09-27T11:23:21.387Z</time>
      </trkpt>
      <trkpt lat="64.99829" lon="21.15202">
        <ele>64.610945</ele>
        <time>2020-09-27T11:23:23.377Z</time>
      </trkpt>
      <trkpt lat="64.99819" lon="21.15216">
        <ele>64.597028</ele>
        <time>2020-09-27T11:23:25.384Z</time>
      </trkpt>
      <trkpt lat="64.9981" lon="21.15231">
        <ele>64.632775</ele>
        <time>2020-09-27T11:23:27.393Z</time>
      </trkpt>
      <trkpt lat="64.99801" lon="21.15246">
        <ele>64.668516</ele>
        <time>2020-09-27T11:23:29.413Z</time>
      </trkpt>
      <trkpt lat="64.99792" lon="21.1526">
        <ele>64.703262</ele>
        <time>2020-09-27T11:23:31.401Z</time>
      </trkpt>
      <trkpt lat="64.99783" lon="21.15275">
        <ele>64.739384</ele>
        <time>2020-09-27T11:23:33.392Z</time>
      </trkpt>
      <trkpt lat="64.99774" lon="21.15288">
        <ele>64.774565</ele>
        <time>2020-09-27T11:23:35.392Z</time>
      </trkpt>
      <trkpt lat="64.99765" lon="21.15303">
        <ele>64.809777</ele>
        <time>2020-09-27T11:23:37.426Z</time>
      </trkpt>
      <trkpt lat="64.99756" lon="21.15318">
        <ele>64.844384</ele>
        <time>2020-09-27T11:23:39.394Z</time>
      </trkpt>
      <trkpt lat="64.99747" lon="21.15333">
        <ele>64.879071</ele>
        <time>2020-09-27T11:23:41.427Z</time>
      </trkpt>
      <trkpt lat="64.99739" lon="21.15349">
        <ele>64.914408</ele>
        <time>2020-09-27T11:23:43.398Z</time>
      </trkpt>
      <trkpt lat="64.99731" lon="21.15366">
        <ele>64.94884</ele>
        <time>2020-09-27T11:23:45.397Z</time>
      </trkpt>
      <trkpt lat="64.99723" lon="21.15383">
        <ele>64.983329</ele>
        <time>2020-09-27T11:23:47.378Z</time>
      </trkpt>
      <trkpt lat="64.99715" lon="21.154">
        <ele>65.017542</ele>
        <time>2020-09-27T11:23:49.385Z</time>
      </trkpt>
      <trkpt lat="64.99708" lon="21.1542">
        <ele>65.052579</ele>
        <time>2020-09-27T11:23:51.410Z</time>
      </trkpt>
      <trkpt lat="64.99701" lon="21.15439">
        <ele>65.087949</ele>
        <time>2020-09-27T11:23:53.389Z</time>
      </trkpt>
      <trkpt lat="64.99693" lon="21.15459">
        <ele>65.12413</ele>
        <time>2020-09-27T11:23:55.410Z</time>
      </trkpt>
      <trkpt lat="64.99687" lon="21.15478">
        <ele>65.157924</ele>
        <time>2020-09-27T11:23:57.409Z</time>
      </trkpt>
      <trkpt lat="64.9968" lon="21.15497">
        <ele>65.142737</ele>
        <time>2020-09-27T11:23:59.457Z</time>
      </trkpt>
      <trkpt lat="64.99674" lon="21.15516">
        <ele>65.099029</ele>
        <time>2020-09-27T11:24:01.388Z</time>
      </trkpt>
      <trkpt lat="64.99667" lon="21.15534">
        <ele>65.05473</ele>
        <time>2020-09-27T11:24:03.423Z</time>
      </trkpt>
      <trkpt lat="64.9966" lon="21.15553">
        <ele>65.01091</ele>
        <time>2020-09-27T11:24:05.418Z</time>
      </trkpt>
      <trkpt lat="64.99654" lon="21.15572">
        <ele>64.96692</ele>
        <time>2020-09-27T11:24:07.417Z</time>
      </trkpt>
      <trkpt lat="64.99647" lon="21.15591">
        <ele>64.923631</ele>
        <time>2020-09-27T11:24:09.394Z</time>
      </trkpt>
      <trkpt lat="64.99641" lon="21.1561">
        <ele>64.880628</ele>
        <time>2020-09-27T11:24:11.391Z</time>
      </trkpt>
      <trkpt lat="64.99634" lon="21.15628">
        <ele>64.838583</ele>
        <time>2020-09-27T11:24:13.386Z</time>
      </trkpt>
      <trkpt lat="64.99628" lon="21.15646">
        <ele>64.795717</ele>
        <time>2020-09-27T11:24:15.407Z</time>
      </trkpt>
      <trkpt lat="64.99622" lon="21.15664">
        <ele>64.754217</ele>
        <time>2020-09-27T11:24:17.421Z</time>
      </trkpt>
      <trkpt lat="64.99615" lon="21.15682">
        <ele>64.711897</ele>
        <time>2020-09-27T11:24:19.429Z</time>
      </trkpt>
      <trkpt lat="64.99609" lon="21.157">
        <ele>64.670639</ele>
        <time>2020-09-27T11:24:21.390Z</time>
      </trkpt>
      <trkpt lat="64.99603" lon="21.15718">
        <ele>64.630231</ele>
        <time>2020-09-27T11:24:23.382Z</time>
      </trkpt>
      <trkpt lat="64.99597" lon="21.15735">
        <ele>64.589</ele>
        <time>2020-09-27T11:24:25.394Z</time>
      </trkpt>
      <trkpt lat="64.9959" lon="21.15752">
        <ele>64.548316</ele>
        <time>2020-09-27T11:24:27.396Z</time>
      </trkpt>
      <trkpt lat="64.99584" lon="21.15769">
        <ele>64.508718</ele>
        <time>2020-09-27T11:24:29.435Z</time>
      </trkpt>
      <trkpt lat="64.99578" lon="21.15784">
        <ele>64.47031</ele>
        <time>2020-09-27T11:24:31.438Z</time>
      </trkpt>
      <trkpt lat="64.99569" lon="21.15808">
        <ele>64.413602</ele>
        <time>2020-09-27T11:24:34.389Z</time>
      </trkpt>
      <trkpt lat="64.99562" lon="21.15823">
        <ele>64.437825</ele>
        <time>2020-09-27T11:24:36.398Z</time>
      </trkpt>
      <trkpt lat="64.99552" lon="21.15845">
        <ele>64.48357</ele>
        <time>2020-09-27T11:24:39.389Z</time>
      </trkpt>
      <trkpt lat="64.99543" lon="21.15867">
        <ele>64.528964</ele>
        <time>2020-09-27T11:24:42.384Z</time>
      </trkpt>
      <trkpt lat="64.99532" lon="21.15887">
        <ele>64.575255</ele>
        <time>2020-09-27T11:24:45.411Z</time>
      </trkpt>
      <trkpt lat="64.99525" lon="21.159">
        <ele>64.607187</ele>
        <time>2020-09-27T11:24:47.406Z</time>
      </trkpt>
      <trkpt lat="64.99517" lon="21.15915">
        <ele>64.640991</ele>
        <time>2020-09-27T11:24:49.391Z</time>
      </trkpt>
      <trkpt lat="64.9951" lon="21.15929">
        <ele>64.672833</ele>
        <time>2020-09-27T11:24:51.386Z</time>
      </trkpt>
      <trkpt lat="64.99502" lon="21.15942">
        <ele>64.704431</ele>
        <time>2020-09-27T11:24:53.404Z</time>
      </trkpt>
      <trkpt lat="64.99495" lon="21.15955">
        <ele>64.736474</ele>
        <time>2020-09-27T11:24:55.390Z</time>
      </trkpt>
      <trkpt lat="64.99487" lon="21.15968">
        <ele>64.768602</ele>
        <time>2020-09-27T11:24:57.387Z</time>
      </trkpt>
      <trkpt lat="64.99479" lon="21.15981">
        <ele>64.800754</ele>
        <time>2020-09-27T11:24:59.429Z</time>
      </trkpt>
      <trkpt lat="64.99472" lon="21.15994">
        <ele>64.832064</ele>
        <time>2020-09-27T11:25:01.391Z</time>
      </trkpt>
      <trkpt lat="64.99465" lon="21.16007">
        <ele>64.863374</ele>
        <time>2020-09-27T11:25:03.418Z</time>
      </trkpt>
      <trkpt lat="64.99457" lon="21.1602">
        <ele>64.894238</ele>
        <time>2020-09-27T11:25:05.384Z</time>
      </trkpt>
      <trkpt lat="64.99447" lon="21.16039">
        <ele>64.939731</ele>
        <time>2020-09-27T11:25:08.385Z</time>
      </trkpt>
      <trkpt lat="64.99437" lon="21.16057">
        <ele>64.98255</ele>
        <time>2020-09-27T11:25:11.415Z</time>
      </trkpt>
      <trkpt lat="64.99427" lon="21.16075">
        <ele>65.043964</ele>
        <time>2020-09-27T11:25:14.387Z</time>
      </trkpt>
      <trkpt lat="64.99416" lon="21.16094">
        <ele>65.364176</ele>
        <time>2020-09-27T11:25:17.454Z</time>
      </trkpt>
      <trkpt lat="64.99406" lon="21.16112">
        <ele>65.676396</ele>
        <time>2020-09-27T11:25:20.393Z</time>
      </trkpt>
      <trkpt lat="64.99396" lon="21.1613">
        <ele>65.989556</ele>
        <time>2020-09-27T11:25:23.406Z</time>
      </trkpt>
      <trkpt lat="64.99386" lon="21.16148">
        <ele>66.289982</ele>
        <time>2020-09-27T11:25:26.388Z</time>
      </trkpt>
      <trkpt lat="64.99376" lon="21.16163">
        <ele>66.58531</ele>
        <time>2020-09-27T11:25:29.417Z</time>
      </trkpt>
      <trkpt lat="64.99365" lon="21.16176">
        <ele>66.889019</ele>
        <time>2020-09-27T11:25:32.420Z</time>
      </trkpt>
      <trkpt lat="64.99353" lon="21.16187">
        <ele>67.198373</ele>
        <time>2020-09-27T11:25:35.427Z</time>
      </trkpt>
      <trkpt lat="64.99341" lon="21.16197">
        <ele>67.502832</ele>
        <time>2020-09-27T11:25:38.400Z</time>
      </trkpt>
      <trkpt lat="64.99329" lon="21.16209">
        <ele>67.829201</ele>
        <time>2020-09-27T11:25:41.393Z</time>
      </trkpt>
      <trkpt lat="64.99319" lon="21.16217">
        <ele>68.068532</ele>
        <time>2020-09-27T11:25:43.383Z</time>
      </trkpt>
      <trkpt lat="64.9931" lon="21.16225">
        <ele>68.315099</ele>
        <time>2020-09-27T11:25:45.403Z</time>
      </trkpt>
      <trkpt lat="64.99301" lon="21.16233">
        <ele>68.556372</ele>
        <time>2020-09-27T11:25:47.404Z</time>
      </trkpt>
      <trkpt lat="64.99292" lon="21.1624">
        <ele>68.78936</ele>
        <time>2020-09-27T11:25:49.432Z</time>
      </trkpt>
      <trkpt lat="64.99279" lon="21.1625">
        <ele>69.114528</ele>
        <time>2020-09-27T11:25:52.391Z</time>
      </trkpt>
      <trkpt lat="64.9927" lon="21.16257">
        <ele>69.341959</ele>
        <time>2020-09-27T11:25:54.395Z</time>
      </trkpt>
      <trkpt lat="64.99261" lon="21.16263">
        <ele>69.293686</ele>
        <time>2020-09-27T11:25:56.409Z</time>
      </trkpt>
      <trkpt lat="64.99252" lon="21.16269">
        <ele>69.11686</ele>
        <time>2020-09-27T11:25:58.404Z</time>
      </trkpt>
      <trkpt lat="64.99243" lon="21.16276">
        <ele>68.934616</ele>
        <time>2020-09-27T11:26:00.426Z</time>
      </trkpt>
      <trkpt lat="64.99234" lon="21.16283">
        <ele>68.747315</ele>
        <time>2020-09-27T11:26:02.405Z</time>
      </trkpt>
      <trkpt lat="64.99224" lon="21.1629">
        <ele>68.552787</ele>
        <time>2020-09-27T11:26:04.451Z</time>
      </trkpt>
      <trkpt lat="64.99215" lon="21.16298">
        <ele>68.366267</ele>
        <time>2020-09-27T11:26:06.425Z</time>
      </trkpt>
      <trkpt lat="64.99205" lon="21.16306">
        <ele>68.170259</ele>
        <time>2020-09-27T11:26:08.409Z</time>
      </trkpt>
      <trkpt lat="64.99194" lon="21.16313">
        <ele>67.959582</ele>
        <time>2020-09-27T11:26:10.403Z</time>
      </trkpt>
      <trkpt lat="64.99183" lon="21.16322">
        <ele>67.740708</ele>
        <time>2020-09-27T11:26:12.419Z</time>
      </trkpt>
      <trkpt lat="64.99172" lon="21.1633">
        <ele>67.510739</ele>
        <time>2020-09-27T11:26:14.412Z</time>
      </trkpt>
      <trkpt lat="64.99159" lon="21.16339">
        <ele>67.26956</ele>
        <time>2020-09-27T11:26:16.412Z</time>
      </trkpt>
      <trkpt lat="64.99147" lon="21.1635">
        <ele>67.0189</ele>
        <time>2020-09-27T11:26:18.387Z</time>
      </trkpt>
      <trkpt lat="64.99133" lon="21.1636">
        <ele>66.743015</ele>
        <time>2020-09-27T11:26:20.415Z</time>
      </trkpt>
      <trkpt lat="64.99119" lon="21.16369">
        <ele>66.470561</ele>
        <time>2020-09-27T11:26:22.403Z</time>
      </trkpt>
      <trkpt lat="64.99105" lon="21.16379">
        <ele>66.195148</ele>
        <time>2020-09-27T11:26:24.394Z</time>
      </trkpt>
      <trkpt lat="64.99091" lon="21.1639">
        <ele>65.96011</ele>
        <time>2020-09-27T11:26:26.437Z</time>
      </trkpt>
      <trkpt lat="64.99077" lon="21.16399">
        <ele>65.827253</ele>
        <time>2020-09-27T11:26:28.393Z</time>
      </trkpt>
      <trkpt lat="64.99063" lon="21.1641">
        <ele>65.690231</ele>
        <time>2020-09-27T11:26:30.403Z</time>
      </trkpt>
      <trkpt lat="64.99048" lon="21.16421">
        <ele>65.551233</ele>
        <time>2020-09-27T11:26:32.407Z</time>
      </trkpt>
      <trkpt lat="64.99034" lon="21.16431">
        <ele>65.410716</ele>
        <time>2020-09-27T11:26:34.382Z</time>
      </trkpt>
      <trkpt lat="64.99019" lon="21.16442">
        <ele>65.272472</ele>
        <time>2020-09-27T11:26:36.405Z</time>
      </trkpt>
      <trkpt lat="64.99005" lon="21.16452">
        <ele>65.137654</ele>
        <time>2020-09-27T11:26:38.397Z</time>
      </trkpt>
      <trkpt lat="64.98991" lon="21.16463">
        <ele>65.004987</ele>
        <time>2020-09-27T11:26:40.408Z</time>
      </trkpt>
      <trkpt lat="64.98978" lon="21.16472">
        <ele>64.88212</ele>
        <time>2020-09-27T11:26:42.426Z</time>
      </trkpt>
      <trkpt lat="64.98966" lon="21.16481">
        <ele>64.767246</ele>
        <time>2020-09-27T11:26:44.385Z</time>
      </trkpt>
      <trkpt lat="64.98955" lon="21.1649">
        <ele>64.652653</ele>
        <time>2020-09-27T11:26:46.383Z</time>
      </trkpt>
      <trkpt lat="64.98943" lon="21.16499">
        <ele>64.539288</ele>
        <time>2020-09-27T11:26:48.414Z</time>
      </trkpt>
      <trkpt lat="64.98932" lon="21.16507">
        <ele>64.432313</ele>
        <time>2020-09-27T11:26:50.394Z</time>
      </trkpt>
      <trkpt lat="64.98921" lon="21.16516">
        <ele>64.31115</ele>
        <time>2020-09-27T11:26:52.402Z</time>
      </trkpt>
      <trkpt lat="64.98911" lon="21.16525">
        <ele>64.14962</ele>
        <time>2020-09-27T11:26:54.394Z</time>
      </trkpt>
      <trkpt lat="64.98901" lon="21.16535">
        <ele>63.995546</ele>
        <time>2020-09-27T11:26:56.403Z</time>
      </trkpt>
      <trkpt lat="64.98892" lon="21.16545">
        <ele>63.840974</ele>
        <time>2020-09-27T11:26:58.425Z</time>
      </trkpt>
      <trkpt lat="64.98883" lon="21.16556">
        <ele>63.699008</ele>
        <time>2020-09-27T11:27:00.382Z</time>
      </trkpt>
      <trkpt lat="64.98876" lon="21.16568">
        <ele>63.563803</ele>
        <time>2020-09-27T11:27:02.395Z</time>
      </trkpt>
      <trkpt lat="64.98865" lon="21.16585">
        <ele>63.369997</ele>
        <time>2020-09-27T11:27:05.404Z</time>
      </trkpt>
      <trkpt lat="64.98854" lon="21.16604">
        <ele>63.175281</ele>
        <time>2020-09-27T11:27:08.411Z</time>
      </trkpt>
      <trkpt lat="64.98844" lon="21.16623">
        <ele>62.97746</ele>
        <time>2020-09-27T11:27:11.394Z</time>
      </trkpt>
      <trkpt lat="64.98833" lon="21.16643">
        <ele>62.777323</ele>
        <time>2020-09-27T11:27:14.407Z</time>
      </trkpt>
      <trkpt lat="64.98823" lon="21.16662">
        <ele>62.579819</ele>
        <time>2020-09-27T11:27:17.385Z</time>
      </trkpt>
      <trkpt lat="64.98812" lon="21.16681">
        <ele>62.385439</ele>
        <time>2020-09-27T11:27:20.404Z</time>
      </trkpt>
      <trkpt lat="64.98802" lon="21.16699">
        <ele>62.190985</ele>
        <time>2020-09-27T11:27:23.390Z</time>
      </trkpt>
      <trkpt lat="64.98791" lon="21.16717">
        <ele>61.994719</ele>
        <time>2020-09-27T11:27:26.409Z</time>
      </trkpt>
      <trkpt lat="64.9878" lon="21.16735">
        <ele>61.800338</ele>
        <time>2020-09-27T11:27:29.404Z</time>
      </trkpt>
      <trkpt lat="64.98773" lon="21.16748">
        <ele>61.685931</ele>
        <time>2020-09-27T11:27:31.388Z</time>
      </trkpt>
      <trkpt lat="64.98765" lon="21.16761">
        <ele>61.644609</ele>
        <time>2020-09-27T11:27:33.392Z</time>
      </trkpt>
      <trkpt lat="64.98758" lon="21.16774">
        <ele>61.602944</ele>
        <time>2020-09-27T11:27:35.416Z</time>
      </trkpt>
      <trkpt lat="64.98751" lon="21.16788">
        <ele>61.561745</ele>
        <time>2020-09-27T11:27:37.426Z</time>
      </trkpt>
      <trkpt lat="64.98743" lon="21.16802">
        <ele>61.517568</ele>
        <time>2020-09-27T11:27:39.406Z</time>
      </trkpt>
      <trkpt lat="64.98735" lon="21.16815">
        <ele>61.474365</ele>
        <time>2020-09-27T11:27:41.405Z</time>
      </trkpt>
      <trkpt lat="64.98727" lon="21.16827">
        <ele>61.433045</ele>
        <time>2020-09-27T11:27:43.381Z</time>
      </trkpt>
      <trkpt lat="64.9872" lon="21.1684">
        <ele>61.392754</ele>
        <time>2020-09-27T11:27:45.395Z</time>
      </trkpt>
      <trkpt lat="64.98712" lon="21.16855">
        <ele>61.349328</ele>
        <time>2020-09-27T11:27:47.422Z</time>
      </trkpt>
      <trkpt lat="64.98704" lon="21.16869">
        <ele>61.305097</ele>
        <time>2020-09-27T11:27:49.387Z</time>
      </trkpt>
      <trkpt lat="64.98696" lon="21.16884">
        <ele>61.259463</ele>
        <time>2020-09-27T11:27:51.422Z</time>
      </trkpt>
      <trkpt lat="64.98688" lon="21.16898">
        <ele>61.214042</ele>
        <time>2020-09-27T11:27:53.387Z</time>
      </trkpt>
      <trkpt lat="64.9868" lon="21.16913">
        <ele>61.16826</ele>
        <time>2020-09-27T11:27:55.399Z</time>
      </trkpt>
      <trkpt lat="64.98672" lon="21.16927">
        <ele>61.123061</ele>
        <time>2020-09-27T11:27:57.394Z</time>
      </trkpt>
      <trkpt lat="64.98664" lon="21.16941">
        <ele>61.078693</ele>
        <time>2020-09-27T11:27:59.414Z</time>
      </trkpt>
      <trkpt lat="64.98656" lon="21.16955">
        <ele>61.034212</ele>
        <time>2020-09-27T11:28:01.447Z</time>
      </trkpt>
      <trkpt lat="64.98648" lon="21.16969">
        <ele>60.989955</ele>
        <time>2020-09-27T11:28:03.390Z</time>
      </trkpt>
      <trkpt lat="64.9864" lon="21.16983">
        <ele>60.945587</ele>
        <time>2020-09-27T11:28:05.398Z</time>
      </trkpt>
      <trkpt lat="64.98632" lon="21.16998">
        <ele>60.902136</ele>
        <time>2020-09-27T11:28:07.406Z</time>
      </trkpt>
      <trkpt lat="64.98625" lon="21.17012">
        <ele>60.737859</ele>
        <time>2020-09-27T11:28:09.387Z</time>
      </trkpt>
      <trkpt lat="64.98617" lon="21.17026">
        <ele>60.549877</ele>
        <time>2020-09-27T11:28:11.403Z</time>
      </trkpt>
      <trkpt lat="64.9861" lon="21.1704">
        <ele>60.357114</ele>
        <time>2020-09-27T11:28:13.387Z</time>
      </trkpt>
      <trkpt lat="64.98602" lon="21.17054">
        <ele>60.162248</ele>
        <time>2020-09-27T11:28:15.409Z</time>
      </trkpt>
      <trkpt lat="64.98594" lon="21.17069">
        <ele>59.960481</ele>
        <time>2020-09-27T11:28:17.397Z</time>
      </trkpt>
      <trkpt lat="64.98587" lon="21.17083">
        <ele>59.758764</ele>
        <time>2020-09-27T11:28:19.409Z</time>
      </trkpt>
      <trkpt lat="64.98578" lon="21.17097">
        <ele>59.553251</ele>
        <time>2020-09-27T11:28:21.406Z</time>
      </trkpt>
      <trkpt lat="64.9857" lon="21.17111">
        <ele>59.347606</ele>
        <time>2020-09-27T11:28:23.388Z</time>
      </trkpt>
      <trkpt lat="64.98562" lon="21.17125">
        <ele>59.148986</ele>
        <time>2020-09-27T11:28:25.415Z</time>
      </trkpt>
      <trkpt lat="64.98554" lon="21.17139">
        <ele>58.95173</ele>
        <time>2020-09-27T11:28:27.411Z</time>
      </trkpt>
      <trkpt lat="64.98546" lon="21.17152">
        <ele>58.756614</ele>
        <time>2020-09-27T11:28:29.389Z</time>
      </trkpt>
      <trkpt lat="64.98538" lon="21.17165">
        <ele>58.560578</ele>
        <time>2020-09-27T11:28:31.417Z</time>
      </trkpt>
      <trkpt lat="64.9853" lon="21.17176">
        <ele>58.368677</ele>
        <time>2020-09-27T11:28:33.382Z</time>
      </trkpt>
      <trkpt lat="64.98522" lon="21.17187">
        <ele>58.17622</ele>
        <time>2020-09-27T11:28:35.435Z</time>
      </trkpt>
      <trkpt lat="64.98513" lon="21.17196">
        <ele>57.98328</ele>
        <time>2020-09-27T11:28:37.427Z</time>
      </trkpt>
      <trkpt lat="64.98504" lon="21.17205">
        <ele>57.789021</ele>
        <time>2020-09-27T11:28:39.398Z</time>
      </trkpt>
      <trkpt lat="64.98495" lon="21.17213">
        <ele>57.596964</ele>
        <time>2020-09-27T11:28:41.418Z</time>
      </trkpt>
      <trkpt lat="64.98486" lon="21.17221">
        <ele>57.396299</ele>
        <time>2020-09-27T11:28:43.439Z</time>
      </trkpt>
      <trkpt lat="64.98476" lon="21.17229">
        <ele>57.198022</ele>
        <time>2020-09-27T11:28:45.393Z</time>
      </trkpt>
      <trkpt lat="64.98466" lon="21.17237">
        <ele>57.00561</ele>
        <time>2020-09-27T11:28:47.407Z</time>
      </trkpt>
      <trkpt lat="64.98455" lon="21.17245">
        <ele>56.798125</ele>
        <time>2020-09-27T11:28:49.386Z</time>
      </trkpt>
      <trkpt lat="64.98444" lon="21.17253">
        <ele>56.583925</ele>
        <time>2020-09-27T11:28:51.405Z</time>
      </trkpt>
      <trkpt lat="64.98433" lon="21.17261">
        <ele>56.372153</ele>
        <time>2020-09-27T11:28:53.397Z</time>
      </trkpt>
      <trkpt lat="64.98422" lon="21.1727">
        <ele>56.153169</ele>
        <time>2020-09-27T11:28:55.399Z</time>
      </trkpt>
      <trkpt lat="64.9841" lon="21.17278">
        <ele>55.924996</ele>
        <time>2020-09-27T11:28:57.391Z</time>
      </trkpt>
      <trkpt lat="64.98398" lon="21.17287">
        <ele>55.699193</ele>
        <time>2020-09-27T11:28:59.410Z</time>
      </trkpt>
      <trkpt lat="64.98385" lon="21.17296">
        <ele>55.453893</ele>
        <time>2020-09-27T11:29:01.405Z</time>
      </trkpt>
      <trkpt lat="64.98372" lon="21.17306">
        <ele>55.205902</ele>
        <time>2020-09-27T11:29:03.406Z</time>
      </trkpt>
      <trkpt lat="64.98358" lon="21.17317">
        <ele>54.944811</ele>
        <time>2020-09-27T11:29:05.426Z</time>
      </trkpt>
      <trkpt lat="64.98345" lon="21.17327">
        <ele>54.680483</ele>
        <time>2020-09-27T11:29:07.414Z</time>
      </trkpt>
      <trkpt lat="64.98331" lon="21.17337">
        <ele>54.417076</ele>
        <time>2020-09-27T11:29:09.415Z</time>
      </trkpt>
      <trkpt lat="64.98317" lon="21.17348">
        <ele>54.15124</ele>
        <time>2020-09-27T11:29:11.409Z</time>
      </trkpt>
      <trkpt lat="64.98303" lon="21.17358">
        <ele>54.040392</ele>
        <time>2020-09-27T11:29:13.414Z</time>
      </trkpt>
      <trkpt lat="64.9829" lon="21.17366">
        <ele>54.198181</ele>
        <time>2020-09-27T11:29:15.402Z</time>
      </trkpt>
      <trkpt lat="64.98277" lon="21.17376">
        <ele>54.352673</ele>
        <time>2020-09-27T11:29:17.390Z</time>
      </trkpt>
      <trkpt lat="64.98264" lon="21.17385">
        <ele>54.506365</ele>
        <time>2020-09-27T11:29:19.439Z</time>
      </trkpt>
      <trkpt lat="64.98252" lon="21.17395">
        <ele>54.655915</ele>
        <time>2020-09-27T11:29:21.394Z</time>
      </trkpt>
      <trkpt lat="64.9824" lon="21.17402">
        <ele>54.79809</ele>
        <time>2020-09-27T11:29:23.390Z</time>
      </trkpt>
      <trkpt lat="64.98228" lon="21.1741">
        <ele>54.937625</ele>
        <time>2020-09-27T11:29:25.416Z</time>
      </trkpt>
      <trkpt lat="64.98216" lon="21.17419">
        <ele>55.079767</ele>
        <time>2020-09-27T11:29:27.391Z</time>
      </trkpt>
      <trkpt lat="64.98205" lon="21.17428">
        <ele>55.21442</ele>
        <time>2020-09-27T11:29:29.393Z</time>
      </trkpt>
      <trkpt lat="64.98194" lon="21.17437">
        <ele>55.351543</ele>
        <time>2020-09-27T11:29:31.431Z</time>
      </trkpt>
      <trkpt lat="64.98182" lon="21.17445">
        <ele>55.491356</ele>
        <time>2020-09-27T11:29:33.384Z</time>
      </trkpt>
      <trkpt lat="64.9817" lon="21.17454">
        <ele>55.632403</ele>
        <time>2020-09-27T11:29:35.390Z</time>
      </trkpt>
      <trkpt lat="64.98159" lon="21.17462">
        <ele>55.769471</ele>
        <time>2020-09-27T11:29:37.402Z</time>
      </trkpt>
      <trkpt lat="64.98147" lon="21.1747">
        <ele>55.905306</ele>
        <time>2020-09-27T11:29:39.404Z</time>
      </trkpt>
      <trkpt lat="64.98136" lon="21.17478">
        <ele>56.03857</ele>
        <time>2020-09-27T11:29:41.384Z</time>
      </trkpt>
      <trkpt lat="64.98125" lon="21.17486">
        <ele>55.922022</ele>
        <time>2020-09-27T11:29:43.401Z</time>
      </trkpt>
      <trkpt lat="64.98115" lon="21.17494">
        <ele>55.80685</ele>
        <time>2020-09-27T11:29:45.383Z</time>
      </trkpt>
      <trkpt lat="64.98104" lon="21.17502">
        <ele>55.693984</ele>
        <time>2020-09-27T11:29:47.410Z</time>
      </trkpt>
      <trkpt lat="64.98094" lon="21.1751">
        <ele>55.579712</ele>
        <time>2020-09-27T11:29:49.375Z</time>
      </trkpt>
      <trkpt lat="64.98084" lon="21.17518">
        <ele>55.470084</ele>
        <time>2020-09-27T11:29:51.398Z</time>
      </trkpt>
      <trkpt lat="64.98074" lon="21.17526">
        <ele>55.361157</ele>
        <time>2020-09-27T11:29:53.390Z</time>
      </trkpt>
      <trkpt lat="64.98065" lon="21.17534">
        <ele>55.25603</ele>
        <time>2020-09-27T11:29:55.405Z</time>
      </trkpt>
      <trkpt lat="64.98055" lon="21.17541">
        <ele>55.149195</ele>
        <time>2020-09-27T11:29:57.396Z</time>
      </trkpt>
      <trkpt lat="64.98045" lon="21.17549">
        <ele>55.038158</ele>
        <time>2020-09-27T11:29:59.385Z</time>
      </trkpt>
      <trkpt lat="64.98035" lon="21.17557">
        <ele>54.929793</ele>
        <time>2020-09-27T11:30:01.425Z</time>
      </trkpt>
      <trkpt lat="64.98024" lon="21.17565">
        <ele>54.813551</ele>
        <time>2020-09-27T11:30:03.410Z</time>
      </trkpt>
      <trkpt lat="64.98014" lon="21.17573">
        <ele>54.700685</ele>
        <time>2020-09-27T11:30:05.393Z</time>
      </trkpt>
      <trkpt lat="64.98003" lon="21.17581">
        <ele>54.587104</ele>
        <time>2020-09-27T11:30:07.380Z</time>
      </trkpt>
      <trkpt lat="64.97993" lon="21.17589">
        <ele>54.475772</ele>
        <time>2020-09-27T11:30:09.408Z</time>
      </trkpt>
      <trkpt lat="64.97983" lon="21.17597">
        <ele>54.36164</ele>
        <time>2020-09-27T11:30:11.433Z</time>
      </trkpt>
      <trkpt lat="64.97973" lon="21.17606">
        <ele>54.253253</ele>
        <time>2020-09-27T11:30:13.398Z</time>
      </trkpt>
      <trkpt lat="64.97964" lon="21.17613">
        <ele>54.151194</ele>
        <time>2020-09-27T11:30:15.392Z</time>
      </trkpt>
      <trkpt lat="64.97954" lon="21.1762">
        <ele>54.05167</ele>
        <time>2020-09-27T11:30:17.386Z</time>
      </trkpt>
      <trkpt lat="64.97944" lon="21.17628">
        <ele>53.948846</ele>
        <time>2020-09-27T11:30:19.435Z</time>
      </trkpt>
      <trkpt lat="64.97934" lon="21.17636">
        <ele>53.845089</ele>
        <time>2020-09-27T11:30:21.411Z</time>
      </trkpt>
      <trkpt lat="64.97924" lon="21.17643">
        <ele>53.742938</ele>
        <time>2020-09-27T11:30:23.435Z</time>
      </trkpt>
      <trkpt lat="64.97914" lon="21.17651">
        <ele>53.639594</ele>
        <time>2020-09-27T11:30:25.405Z</time>
      </trkpt>
      <trkpt lat="64.97904" lon="21.17659">
        <ele>53.539814</ele>
        <time>2020-09-27T11:30:27.396Z</time>
      </trkpt>
      <trkpt lat="64.97895" lon="21.17667">
        <ele>53.43898</ele>
        <time>2020-09-27T11:30:29.409Z</time>
      </trkpt>
      <trkpt lat="64.97885" lon="21.17674">
        <ele>53.336281</ele>
        <time>2020-09-27T11:30:31.429Z</time>
      </trkpt>
      <trkpt lat="64.97874" lon="21.17682">
        <ele>53.231591</ele>
        <time>2020-09-27T11:30:33.401Z</time>
      </trkpt>
      <trkpt lat="64.97864" lon="21.1769">
        <ele>53.124217</ele>
        <time>2020-09-27T11:30:35.389Z</time>
      </trkpt>
      <trkpt lat="64.97853" lon="21.17697">
        <ele>53.014728</ele>
        <time>2020-09-27T11:30:37.413Z</time>
      </trkpt>
      <trkpt lat="64.97843" lon="21.17704">
        <ele>52.908989</ele>
        <time>2020-09-27T11:30:39.422Z</time>
      </trkpt>
      <trkpt lat="64.97832" lon="21.17711">
        <ele>52.80279</ele>
        <time>2020-09-27T11:30:41.410Z</time>
      </trkpt>
      <trkpt lat="64.97822" lon="21.17719">
        <ele>52.69623</ele>
        <time>2020-09-27T11:30:43.396Z</time>
      </trkpt>
      <trkpt lat="64.97812" lon="21.17725">
        <ele>52.592387</ele>
        <time>2020-09-27T11:30:45.389Z</time>
      </trkpt>
      <trkpt lat="64.97802" lon="21.17732">
        <ele>52.491928</ele>
        <time>2020-09-27T11:30:47.395Z</time>
      </trkpt>
      <trkpt lat="64.97792" lon="21.17741">
        <ele>52.41825</ele>
        <time>2020-09-27T11:30:49.390Z</time>
      </trkpt>
      <trkpt lat="64.97781" lon="21.17749">
        <ele>52.46595</ele>
        <time>2020-09-27T11:30:51.401Z</time>
      </trkpt>
      <trkpt lat="64.9777" lon="21.17755">
        <ele>52.513857</ele>
        <time>2020-09-27T11:30:53.388Z</time>
      </trkpt>
      <trkpt lat="64.97758" lon="21.17763">
        <ele>52.565709</ele>
        <time>2020-09-27T11:30:55.418Z</time>
      </trkpt>
      <trkpt lat="64.97748" lon="21.17769">
        <ele>52.613061</ele>
        <time>2020-09-27T11:30:57.386Z</time>
      </trkpt>
      <trkpt lat="64.97737" lon="21.17775">
        <ele>52.660228</ele>
        <time>2020-09-27T11:30:59.408Z</time>
      </trkpt>
      <trkpt lat="64.97726" lon="21.17782">
        <ele>52.70758</ele>
        <time>2020-09-27T11:31:01.410Z</time>
      </trkpt>
      <trkpt lat="64.97715" lon="21.17788">
        <ele>52.754988</ele>
        <time>2020-09-27T11:31:03.412Z</time>
      </trkpt>
      <trkpt lat="64.97704" lon="21.17794">
        <ele>52.80394</ele>
        <time>2020-09-27T11:31:05.414Z</time>
      </trkpt>
      <trkpt lat="64.97693" lon="21.17801">
        <ele>52.853768</ele>
        <time>2020-09-27T11:31:07.462Z</time>
      </trkpt>
      <trkpt lat="64.97681" lon="21.17808">
        <ele>52.904289</ele>
        <time>2020-09-27T11:31:09.440Z</time>
      </trkpt>
      <trkpt lat="64.9767" lon="21.17816">
        <ele>52.954762</ele>
        <time>2020-09-27T11:31:11.397Z</time>
      </trkpt>
      <trkpt lat="64.97659" lon="21.17823">
        <ele>53.005283</ele>
        <time>2020-09-27T11:31:13.392Z</time>
      </trkpt>
      <trkpt lat="64.97647" lon="21.1783">
        <ele>53.055202</ele>
        <time>2020-09-27T11:31:15.407Z</time>
      </trkpt>
      <trkpt lat="64.97636" lon="21.17836">
        <ele>53.103067</ele>
        <time>2020-09-27T11:31:17.376Z</time>
      </trkpt>
      <trkpt lat="64.97627" lon="21.17843">
        <ele>53.146622</ele>
        <time>2020-09-27T11:31:19.440Z</time>
      </trkpt>
      <trkpt lat="64.97617" lon="21.17849">
        <ele>53.138569</ele>
        <time>2020-09-27T11:31:21.412Z</time>
      </trkpt>
      <trkpt lat="64.97607" lon="21.17855">
        <ele>53.024283</ele>
        <time>2020-09-27T11:31:23.390Z</time>
      </trkpt>
      <trkpt lat="64.97597" lon="21.17861">
        <ele>52.912299</ele>
        <time>2020-09-27T11:31:25.407Z</time>
      </trkpt>
      <trkpt lat="64.97587" lon="21.17867">
        <ele>52.795588</ele>
        <time>2020-09-27T11:31:27.386Z</time>
      </trkpt>
      <trkpt lat="64.97577" lon="21.17874">
        <ele>52.676327</ele>
        <time>2020-09-27T11:31:29.390Z</time>
      </trkpt>
      <trkpt lat="64.97567" lon="21.17881">
        <ele>52.55398</ele>
        <time>2020-09-27T11:31:31.416Z</time>
      </trkpt>
      <trkpt lat="64.97556" lon="21.17887">
        <ele>52.43117</ele>
        <time>2020-09-27T11:31:33.389Z</time>
      </trkpt>
      <trkpt lat="64.97545" lon="21.17893">
        <ele>52.308138</ele>
        <time>2020-09-27T11:31:35.431Z</time>
      </trkpt>
      <trkpt lat="64.97534" lon="21.17901">
        <ele>52.17686</ele>
        <time>2020-09-27T11:31:37.392Z</time>
      </trkpt>
      <trkpt lat="64.97523" lon="21.17907">
        <ele>52.047454</ele>
        <time>2020-09-27T11:31:39.406Z</time>
      </trkpt>
      <trkpt lat="64.97511" lon="21.17911">
        <ele>51.911834</ele>
        <time>2020-09-27T11:31:41.414Z</time>
      </trkpt>
      <trkpt lat="64.97499" lon="21.17915">
        <ele>51.77306</ele>
        <time>2020-09-27T11:31:43.406Z</time>
      </trkpt>
      <trkpt lat="64.97486" lon="21.17918">
        <ele>51.630094</ele>
        <time>2020-09-27T11:31:45.389Z</time>
      </trkpt>
      <trkpt lat="64.97473" lon="21.17919">
        <ele>51.483334</ele>
        <time>2020-09-27T11:31:47.401Z</time>
      </trkpt>
      <trkpt lat="64.9746" lon="21.17919">
        <ele>51.332213</ele>
        <time>2020-09-27T11:31:49.418Z</time>
      </trkpt>
      <trkpt lat="64.97446" lon="21.1792">
        <ele>51.178836</ele>
        <time>2020-09-27T11:31:51.401Z</time>
      </trkpt>
      <trkpt lat="64.97433" lon="21.1792">
        <ele>50.821249</ele>
        <time>2020-09-27T11:31:53.386Z</time>
      </trkpt>
      <trkpt lat="64.9742" lon="21.1792">
        <ele>50.405992</ele>
        <time>2020-09-27T11:31:55.398Z</time>
      </trkpt>
      <trkpt lat="64.97407" lon="21.1792">
        <ele>50.006212</ele>
        <time>2020-09-27T11:31:57.427Z</time>
      </trkpt>
      <trkpt lat="64.97394" lon="21.17921">
        <ele>49.609472</ele>
        <time>2020-09-27T11:31:59.419Z</time>
      </trkpt>
      <trkpt lat="64.97381" lon="21.17921">
        <ele>49.218989</ele>
        <time>2020-09-27T11:32:01.397Z</time>
      </trkpt>
      <trkpt lat="64.97369" lon="21.1792">
        <ele>48.825391</ele>
        <time>2020-09-27T11:32:03.394Z</time>
      </trkpt>
      <trkpt lat="64.97356" lon="21.1792">
        <ele>48.437946</ele>
        <time>2020-09-27T11:32:05.416Z</time>
      </trkpt>
      <trkpt lat="64.97344" lon="21.17919">
        <ele>48.062975</ele>
        <time>2020-09-27T11:32:07.412Z</time>
      </trkpt>
      <trkpt lat="64.97332" lon="21.1792">
        <ele>47.681772</ele>
        <time>2020-09-27T11:32:09.410Z</time>
      </trkpt>
      <trkpt lat="64.97319" lon="21.1792">
        <ele>47.300605</ele>
        <time>2020-09-27T11:32:11.395Z</time>
      </trkpt>
      <trkpt lat="64.97307" lon="21.17919">
        <ele>46.919293</ele>
        <time>2020-09-27T11:32:13.438Z</time>
      </trkpt>
      <trkpt lat="64.97295" lon="21.17918">
        <ele>46.528722</ele>
        <time>2020-09-27T11:32:15.411Z</time>
      </trkpt>
      <trkpt lat="64.97282" lon="21.17918">
        <ele>46.144435</ele>
        <time>2020-09-27T11:32:17.411Z</time>
      </trkpt>
      <trkpt lat="64.9727" lon="21.17918">
        <ele>45.766358</ele>
        <time>2020-09-27T11:32:19.382Z</time>
      </trkpt>
      <trkpt lat="64.97258" lon="21.17918">
        <ele>45.489026</ele>
        <time>2020-09-27T11:32:21.387Z</time>
      </trkpt>
      <trkpt lat="64.97246" lon="21.17917">
        <ele>45.317699</ele>
        <time>2020-09-27T11:32:23.408Z</time>
      </trkpt>
      <trkpt lat="64.97234" lon="21.17918">
        <ele>45.142054</ele>
        <time>2020-09-27T11:32:25.397Z</time>
      </trkpt>
      <trkpt lat="64.97222" lon="21.17917">
        <ele>44.966403</ele>
        <time>2020-09-27T11:32:27.402Z</time>
      </trkpt>
      <trkpt lat="64.9721" lon="21.17917">
        <ele>44.793624</ele>
        <time>2020-09-27T11:32:29.425Z</time>
      </trkpt>
      <trkpt lat="64.97198" lon="21.17916">
        <ele>44.622233</ele>
        <time>2020-09-27T11:32:31.398Z</time>
      </trkpt>
      <trkpt lat="64.97186" lon="21.17916">
        <ele>44.448022</ele>
        <time>2020-09-27T11:32:33.391Z</time>
      </trkpt>
      <trkpt lat="64.97173" lon="21.17916">
        <ele>44.270937</ele>
        <time>2020-09-27T11:32:35.415Z</time>
      </trkpt>
      <trkpt lat="64.97161" lon="21.17915">
        <ele>44.098088</ele>
        <time>2020-09-27T11:32:37.397Z</time>
      </trkpt>
      <trkpt lat="64.9715" lon="21.17914">
        <ele>43.932389</ele>
        <time>2020-09-27T11:32:39.442Z</time>
      </trkpt>
      <trkpt lat="64.97138" lon="21.17912">
        <ele>43.769449</ele>
        <time>2020-09-27T11:32:41.391Z</time>
      </trkpt>
      <trkpt lat="64.97127" lon="21.17911">
        <ele>43.60375</ele>
        <time>2020-09-27T11:32:43.427Z</time>
      </trkpt>
      <trkpt lat="64.97115" lon="21.1791">
        <ele>43.433736</ele>
        <time>2020-09-27T11:32:45.408Z</time>
      </trkpt>
      <trkpt lat="64.97103" lon="21.1791">
        <ele>43.263814</ele>
        <time>2020-09-27T11:32:47.421Z</time>
      </trkpt>
      <trkpt lat="64.97092" lon="21.17911">
        <ele>43.099686</ele>
        <time>2020-09-27T11:32:49.395Z</time>
      </trkpt>
      <trkpt lat="64.9708" lon="21.17911">
        <ele>42.999614</ele>
        <time>2020-09-27T11:32:51.395Z</time>
      </trkpt>
      <trkpt lat="64.97068" lon="21.17911">
        <ele>43.047774</ele>
        <time>2020-09-27T11:32:53.408Z</time>
      </trkpt>
      <trkpt lat="64.97056" lon="21.17909">
        <ele>43.095568</ele>
        <time>2020-09-27T11:32:55.398Z</time>
      </trkpt>
      <trkpt lat="64.97044" lon="21.17908">
        <ele>43.145778</ele>
        <time>2020-09-27T11:32:57.413Z</time>
      </trkpt>
      <trkpt lat="64.97031" lon="21.17908">
        <ele>43.197164</ele>
        <time>2020-09-27T11:32:59.388Z</time>
      </trkpt>
      <trkpt lat="64.97019" lon="21.17908">
        <ele>43.247737</ele>
        <time>2020-09-27T11:33:01.412Z</time>
      </trkpt>
      <trkpt lat="64.97006" lon="21.17907">
        <ele>43.297913</ele>
        <time>2020-09-27T11:33:03.389Z</time>
      </trkpt>
      <trkpt lat="64.96994" lon="21.17908">
        <ele>43.348491</ele>
        <time>2020-09-27T11:33:05.389Z</time>
      </trkpt>
      <trkpt lat="64.96982" lon="21.17907">
        <ele>43.397852</ele>
        <time>2020-09-27T11:33:07.430Z</time>
      </trkpt>
      <trkpt lat="64.9697" lon="21.17907">
        <ele>43.44681</ele>
        <time>2020-09-27T11:33:09.418Z</time>
      </trkpt>
      <trkpt lat="64.96957" lon="21.17906">
        <ele>43.496993</ele>
        <time>2020-09-27T11:33:11.393Z</time>
      </trkpt>
      <trkpt lat="64.96944" lon="21.17907">
        <ele>43.548783</ele>
        <time>2020-09-27T11:33:13.392Z</time>
      </trkpt>
      <trkpt lat="64.96932" lon="21.17906">
        <ele>43.599771</ele>
        <time>2020-09-27T11:33:15.414Z</time>
      </trkpt>
      <trkpt lat="64.96919" lon="21.17906">
        <ele>43.65237</ele>
        <time>2020-09-27T11:33:17.385Z</time>
      </trkpt>
      <trkpt lat="64.96905" lon="21.17905">
        <ele>43.706591</ele>
        <time>2020-09-27T11:33:19.408Z</time>
      </trkpt>
      <trkpt lat="64.96892" lon="21.17904">
        <ele>43.777929</ele>
        <time>2020-09-27T11:33:21.443Z</time>
      </trkpt>
      <trkpt lat="64.96878" lon="21.17904">
        <ele>43.850903</ele>
        <time>2020-09-27T11:33:23.399Z</time>
      </trkpt>
      <trkpt lat="64.96864" lon="21.17902">
        <ele>43.926573</ele>
        <time>2020-09-27T11:33:25.411Z</time>
      </trkpt>
      <trkpt lat="64.9685" lon="21.17901">
        <ele>44.000625</ele>
        <time>2020-09-27T11:33:27.403Z</time>
      </trkpt>
      <trkpt lat="64.96836" lon="21.179">
        <ele>44.071046</ele>
        <time>2020-09-27T11:33:29.426Z</time>
      </trkpt>
      <trkpt lat="64.96823" lon="21.17896">
        <ele>44.140722</ele>
        <time>2020-09-27T11:33:31.417Z</time>
      </trkpt>
      <trkpt lat="64.96811" lon="21.17893">
        <ele>44.205698</ele>
        <time>2020-09-27T11:33:33.415Z</time>
      </trkpt>
      <trkpt lat="64.96799" lon="21.17889">
        <ele>44.271723</ele>
        <time>2020-09-27T11:33:35.415Z</time>
      </trkpt>
      <trkpt lat="64.96786" lon="21.17885">
        <ele>44.336972</ele>
        <time>2020-09-27T11:33:37.391Z</time>
      </trkpt>
      <trkpt lat="64.96774" lon="21.17881">
        <ele>44.40145</ele>
        <time>2020-09-27T11:33:39.406Z</time>
      </trkpt>
      <trkpt lat="64.96763" lon="21.17879">
        <ele>44.463603</ele>
        <time>2020-09-27T11:33:41.390Z</time>
      </trkpt>
      <trkpt lat="64.96751" lon="21.17876">
        <ele>44.525148</ele>
        <time>2020-09-27T11:33:43.391Z</time>
      </trkpt>
      <trkpt lat="64.96739" lon="21.17875">
        <ele>44.586068</ele>
        <time>2020-09-27T11:33:45.423Z</time>
      </trkpt>
      <trkpt lat="64.96729" lon="21.17872">
        <ele>44.641273</ele>
        <time>2020-09-27T11:33:47.382Z</time>
      </trkpt>
      <trkpt lat="64.96719" lon="21.17869">
        <ele>44.812913</ele>
        <time>2020-09-27T11:33:49.395Z</time>
      </trkpt>
      <trkpt lat="64.9671" lon="21.17866">
        <ele>45.046743</ele>
        <time>2020-09-27T11:33:51.419Z</time>
      </trkpt>
      <trkpt lat="64.96698" lon="21.17862">
        <ele>45.363018</ele>
        <time>2020-09-27T11:33:54.401Z</time>
      </trkpt>
      <trkpt lat="64.96687" lon="21.17858">
        <ele>45.648609</ele>
        <time>2020-09-27T11:33:57.404Z</time>
      </trkpt>
      <trkpt lat="64.96676" lon="21.17854">
        <ele>45.914251</ele>
        <time>2020-09-27T11:34:00.394Z</time>
      </trkpt>
      <trkpt lat="64.96665" lon="21.17849">
        <ele>46.196036</ele>
        <time>2020-09-27T11:34:03.398Z</time>
      </trkpt>
      <trkpt lat="64.96655" lon="21.17846">
        <ele>46.473039</ele>
        <time>2020-09-27T11:34:06.435Z</time>
      </trkpt>
      <trkpt lat="64.96645" lon="21.17844">
        <ele>46.731068</ele>
        <time>2020-09-27T11:34:09.409Z</time>
      </trkpt>
      <trkpt lat="64.96635" lon="21.17842">
        <ele>46.983679</ele>
        <time>2020-09-27T11:34:12.435Z</time>
      </trkpt>
      <trkpt lat="64.96625" lon="21.17839">
        <ele>47.225527</ele>
        <time>2020-09-27T11:34:15.393Z</time>
      </trkpt>
      <trkpt lat="64.96614" lon="21.17835">
        <ele>47.51698</ele>
        <time>2020-09-27T11:34:19.394Z</time>
      </trkpt>
      <trkpt lat="64.96603" lon="21.17832">
        <ele>47.803602</ele>
        <time>2020-09-27T11:34:23.393Z</time>
      </trkpt>
      <trkpt lat="64.96591" lon="21.1783">
        <ele>48.09183</ele>
        <time>2020-09-27T11:34:27.395Z</time>
      </trkpt>
      <trkpt lat="64.9658" lon="21.17826">
        <ele>48.377914</ele>
        <time>2020-09-27T11:34:31.393Z</time>
      </trkpt>
      <trkpt lat="64.96569" lon="21.17821">
        <ele>48.666109</ele>
        <time>2020-09-27T11:34:35.406Z</time>
      </trkpt>
      <trkpt lat="64.96559" lon="21.17818">
        <ele>48.924551</ele>
        <time>2020-09-27T11:34:39.388Z</time>
      </trkpt>
      <trkpt lat="64.96549" lon="21.1781">
        <ele>49.208066</ele>
        <time>2020-09-27T11:34:44.433Z</time>
      </trkpt>
      <trkpt lat="64.9654" lon="21.17824">
        <ele>49.080164</ele>
        <time>2020-09-27T12:03:57.252Z</time>
      </trkpt>
      <trkpt lat="64.9653" lon="21.1782">
        <ele>48.919143</ele>
        <time>2020-09-27T12:06:20.308Z</time>
      </trkpt>
      <trkpt lat="64.9652" lon="21.17815">
        <ele>48.746435</ele>
        <time>2020-09-27T12:06:25.272Z</time>
      </trkpt>
      <trkpt lat="64.96511" lon="21.1781">
        <ele>48.585975</ele>
        <time>2020-09-27T12:06:29.241Z</time>
      </trkpt>
      <trkpt lat="64.965" lon="21.17807">
        <ele>48.393267</ele>
        <time>2020-09-27T12:06:33.244Z</time>
      </trkpt>
      <trkpt lat="64.9649" lon="21.17803">
        <ele>48.226779</ele>
        <time>2020-09-27T12:06:36.290Z</time>
      </trkpt>
      <trkpt lat="64.96479" lon="21.178">
        <ele>48.044411</ele>
        <time>2020-09-27T12:06:39.250Z</time>
      </trkpt>
      <trkpt lat="64.96467" lon="21.17797">
        <ele>47.839403</ele>
        <time>2020-09-27T12:06:42.238Z</time>
      </trkpt>
      <trkpt lat="64.96458" lon="21.17794">
        <ele>47.685598</ele>
        <time>2020-09-27T12:06:44.232Z</time>
      </trkpt>
      <trkpt lat="64.96445" lon="21.17789">
        <ele>47.463328</ele>
        <time>2020-09-27T12:06:47.271Z</time>
      </trkpt>
      <trkpt lat="64.96436" lon="21.17788">
        <ele>47.310691</ele>
        <time>2020-09-27T12:06:49.255Z</time>
      </trkpt>
      <trkpt lat="64.96423" lon="21.17785">
        <ele>47.091204</ele>
        <time>2020-09-27T12:06:52.241Z</time>
      </trkpt>
      <trkpt lat="64.9641" lon="21.17782">
        <ele>46.863222</ele>
        <time>2020-09-27T12:06:55.255Z</time>
      </trkpt>
      <trkpt lat="64.96401" lon="21.1778">
        <ele>46.705277</ele>
        <time>2020-09-27T12:06:57.242Z</time>
      </trkpt>
      <trkpt lat="64.96388" lon="21.17777">
        <ele>46.485719</ele>
        <time>2020-09-27T12:07:00.247Z</time>
      </trkpt>
      <trkpt lat="64.96374" lon="21.17776">
        <ele>46.260351</ele>
        <time>2020-09-27T12:07:03.309Z</time>
      </trkpt>
      <trkpt lat="64.96362" lon="21.17772">
        <ele>46.144349</ele>
        <time>2020-09-27T12:07:06.257Z</time>
      </trkpt>
      <trkpt lat="64.96349" lon="21.17769">
        <ele>46.07052</ele>
        <time>2020-09-27T12:07:09.258Z</time>
      </trkpt>
      <trkpt lat="64.96336" lon="21.17765">
        <ele>45.996434</ele>
        <time>2020-09-27T12:07:12.249Z</time>
      </trkpt>
      <trkpt lat="64.96324" lon="21.17759">
        <ele>45.928626</ele>
        <time>2020-09-27T12:07:15.259Z</time>
      </trkpt>
      <trkpt lat="64.96312" lon="21.17755">
        <ele>45.857424</ele>
        <time>2020-09-27T12:07:18.266Z</time>
      </trkpt>
      <trkpt lat="64.963" lon="21.17753">
        <ele>45.787135</ele>
        <time>2020-09-27T12:07:21.283Z</time>
      </trkpt>
      <trkpt lat="64.96287" lon="21.1775">
        <ele>45.717343</ele>
        <time>2020-09-27T12:07:24.242Z</time>
      </trkpt>
      <trkpt lat="64.96275" lon="21.17747">
        <ele>45.647576</ele>
        <time>2020-09-27T12:07:27.261Z</time>
      </trkpt>
      <trkpt lat="64.96263" lon="21.17744">
        <ele>45.575445</ele>
        <time>2020-09-27T12:07:30.245Z</time>
      </trkpt>
      <trkpt lat="64.96253" lon="21.17741">
        <ele>45.519932</ele>
        <time>2020-09-27T12:07:32.243Z</time>
      </trkpt>
      <trkpt lat="64.96243" lon="21.17738">
        <ele>45.464814</ele>
        <time>2020-09-27T12:07:34.245Z</time>
      </trkpt>
      <trkpt lat="64.96233" lon="21.17734">
        <ele>45.403716</ele>
        <time>2020-09-27T12:07:36.275Z</time>
      </trkpt>
      <trkpt lat="64.96219" lon="21.17733">
        <ele>45.32739</ele>
        <time>2020-09-27T12:07:39.254Z</time>
      </trkpt>
      <trkpt lat="64.9621" lon="21.17732">
        <ele>45.274332</ele>
        <time>2020-09-27T12:07:41.250Z</time>
      </trkpt>
      <trkpt lat="64.96197" lon="21.1773">
        <ele>45.200818</ele>
        <time>2020-09-27T12:07:44.245Z</time>
      </trkpt>
      <trkpt lat="64.96184" lon="21.17726">
        <ele>45.116246</ele>
        <time>2020-09-27T12:07:47.278Z</time>
      </trkpt>
      <trkpt lat="64.96172" lon="21.17722">
        <ele>45.02991</ele>
        <time>2020-09-27T12:07:50.248Z</time>
      </trkpt>
      <trkpt lat="64.9616" lon="21.17722">
        <ele>44.942913</ele>
        <time>2020-09-27T12:07:53.245Z</time>
      </trkpt>
      <trkpt lat="64.96152" lon="21.17729">
        <ele>44.87834</ele>
        <time>2020-09-27T12:07:55.254Z</time>
      </trkpt>
      <trkpt lat="64.96144" lon="21.17741">
        <ele>44.81282</ele>
        <time>2020-09-27T12:07:57.256Z</time>
      </trkpt>
      <trkpt lat="64.96138" lon="21.1776">
        <ele>44.741699</ele>
        <time>2020-09-27T12:07:59.273Z</time>
      </trkpt>
      <trkpt lat="64.96134" lon="21.17783">
        <ele>44.666867</ele>
        <time>2020-09-27T12:08:01.257Z</time>
      </trkpt>
      <trkpt lat="64.96129" lon="21.17804">
        <ele>44.593298</ele>
        <time>2020-09-27T12:08:03.272Z</time>
      </trkpt>
      <trkpt lat="64.96125" lon="21.17825">
        <ele>44.523472</ele>
        <time>2020-09-27T12:08:05.269Z</time>
      </trkpt>
      <trkpt lat="64.9612" lon="21.17846">
        <ele>44.453608</ele>
        <time>2020-09-27T12:08:07.236Z</time>
      </trkpt>
      <trkpt lat="64.96116" lon="21.17868">
        <ele>44.380473</ele>
        <time>2020-09-27T12:08:09.239Z</time>
      </trkpt>
      <trkpt lat="64.96111" lon="21.1789">
        <ele>44.305773</ele>
        <time>2020-09-27T12:08:11.247Z</time>
      </trkpt>
      <trkpt lat="64.96107" lon="21.17912">
        <ele>44.233484</ele>
        <time>2020-09-27T12:08:13.254Z</time>
      </trkpt>
      <trkpt lat="64.96103" lon="21.17932">
        <ele>44.165663</ele>
        <time>2020-09-27T12:08:15.252Z</time>
      </trkpt>
      <trkpt lat="64.96099" lon="21.17953">
        <ele>44.098105</ele>
        <time>2020-09-27T12:08:17.262Z</time>
      </trkpt>
      <trkpt lat="64.96095" lon="21.17972">
        <ele>44.031477</ele>
        <time>2020-09-27T12:08:19.247Z</time>
      </trkpt>
      <trkpt lat="64.96091" lon="21.17992">
        <ele>43.964634</ele>
        <time>2020-09-27T12:08:21.263Z</time>
      </trkpt>
      <trkpt lat="64.96087" lon="21.18012">
        <ele>43.898599</ele>
        <time>2020-09-27T12:08:23.271Z</time>
      </trkpt>
      <trkpt lat="64.96082" lon="21.18032">
        <ele>43.879313</ele>
        <time>2020-09-27T12:08:25.259Z</time>
      </trkpt>
      <trkpt lat="64.96078" lon="21.18051">
        <ele>43.869328</ele>
        <time>2020-09-27T12:08:27.241Z</time>
      </trkpt>
      <trkpt lat="64.96074" lon="21.18071">
        <ele>43.859133</ele>
        <time>2020-09-27T12:08:29.288Z</time>
      </trkpt>
      <trkpt lat="64.96069" lon="21.18091">
        <ele>43.84847</ele>
        <time>2020-09-27T12:08:31.246Z</time>
      </trkpt>
      <trkpt lat="64.96065" lon="21.18112">
        <ele>43.837724</ele>
        <time>2020-09-27T12:08:33.241Z</time>
      </trkpt>
      <trkpt lat="64.9606" lon="21.18132">
        <ele>43.827098</ele>
        <time>2020-09-27T12:08:35.259Z</time>
      </trkpt>
      <trkpt lat="64.96055" lon="21.18151">
        <ele>43.816876</ele>
        <time>2020-09-27T12:08:37.285Z</time>
      </trkpt>
      <trkpt lat="64.96051" lon="21.18172">
        <ele>43.805926</ele>
        <time>2020-09-27T12:08:39.239Z</time>
      </trkpt>
      <trkpt lat="64.96046" lon="21.18193">
        <ele>43.794764</ele>
        <time>2020-09-27T12:08:41.245Z</time>
      </trkpt>
      <trkpt lat="64.96042" lon="21.18216">
        <ele>43.783268</ele>
        <time>2020-09-27T12:08:43.259Z</time>
      </trkpt>
      <trkpt lat="64.96038" lon="21.18238">
        <ele>43.772032</ele>
        <time>2020-09-27T12:08:45.251Z</time>
      </trkpt>
      <trkpt lat="64.96033" lon="21.18261">
        <ele>43.760231</ele>
        <time>2020-09-27T12:08:47.289Z</time>
      </trkpt>
      <trkpt lat="64.96028" lon="21.18284">
        <ele>43.748097</ele>
        <time>2020-09-27T12:08:49.238Z</time>
      </trkpt>
      <trkpt lat="64.96023" lon="21.18306">
        <ele>43.736434</ele>
        <time>2020-09-27T12:08:51.261Z</time>
      </trkpt>
      <trkpt lat="64.96018" lon="21.18327">
        <ele>43.725578</ele>
        <time>2020-09-27T12:08:53.243Z</time>
      </trkpt>
      <trkpt lat="64.96014" lon="21.18348">
        <ele>43.714761</ele>
        <time>2020-09-27T12:08:55.272Z</time>
      </trkpt>
      <trkpt lat="64.9601" lon="21.18369">
        <ele>43.703897</ele>
        <time>2020-09-27T12:08:57.265Z</time>
      </trkpt>
      <trkpt lat="64.96006" lon="21.18391">
        <ele>43.692907</ele>
        <time>2020-09-27T12:08:59.258Z</time>
      </trkpt>
      <trkpt lat="64.96001" lon="21.18412">
        <ele>43.710754</ele>
        <time>2020-09-27T12:09:01.261Z</time>
      </trkpt>
      <trkpt lat="64.95996" lon="21.18433">
        <ele>43.733352</ele>
        <time>2020-09-27T12:09:03.241Z</time>
      </trkpt>
      <trkpt lat="64.95991" lon="21.18455">
        <ele>43.756609</ele>
        <time>2020-09-27T12:09:05.280Z</time>
      </trkpt>
      <trkpt lat="64.95987" lon="21.18476">
        <ele>43.779477</ele>
        <time>2020-09-27T12:09:07.244Z</time>
      </trkpt>
      <trkpt lat="64.95983" lon="21.18498">
        <ele>43.802056</ele>
        <time>2020-09-27T12:09:09.288Z</time>
      </trkpt>
      <trkpt lat="64.95979" lon="21.1852">
        <ele>43.82515</ele>
        <time>2020-09-27T12:09:11.242Z</time>
      </trkpt>
      <trkpt lat="64.95975" lon="21.18543">
        <ele>43.847652</ele>
        <time>2020-09-27T12:09:13.255Z</time>
      </trkpt>
      <trkpt lat="64.95973" lon="21.18564">
        <ele>43.868682</ele>
        <time>2020-09-27T12:09:15.260Z</time>
      </trkpt>
      <trkpt lat="64.95971" lon="21.18585">
        <ele>43.889085</ele>
        <time>2020-09-27T12:09:17.253Z</time>
      </trkpt>
      <trkpt lat="64.95969" lon="21.18606">
        <ele>43.910041</ele>
        <time>2020-09-27T12:09:19.287Z</time>
      </trkpt>
      <trkpt lat="64.95967" lon="21.18629">
        <ele>43.931431</ele>
        <time>2020-09-27T12:09:21.262Z</time>
      </trkpt>
      <trkpt lat="64.95965" lon="21.18651">
        <ele>43.952916</ele>
        <time>2020-09-27T12:09:23.268Z</time>
      </trkpt>
      <trkpt lat="64.95964" lon="21.18673">
        <ele>43.973891</ele>
        <time>2020-09-27T12:09:25.249Z</time>
      </trkpt>
      <trkpt lat="64.95963" lon="21.18694">
        <ele>43.994554</ele>
        <time>2020-09-27T12:09:27.242Z</time>
      </trkpt>
      <trkpt lat="64.95961" lon="21.18717">
        <ele>44.01625</ele>
        <time>2020-09-27T12:09:29.277Z</time>
      </trkpt>
      <trkpt lat="64.95958" lon="21.18739">
        <ele>44.038732</ele>
        <time>2020-09-27T12:09:31.240Z</time>
      </trkpt>
      <trkpt lat="64.9595" lon="21.18754">
        <ele>44.060758</ele>
        <time>2020-09-27T12:09:33.284Z</time>
      </trkpt>
      <trkpt lat="64.95942" lon="21.18765">
        <ele>44.081798</ele>
        <time>2020-09-27T12:09:35.244Z</time>
      </trkpt>
      <trkpt lat="64.95931" lon="21.18779">
        <ele>44.241661</ele>
        <time>2020-09-27T12:09:38.285Z</time>
      </trkpt>
      <trkpt lat="64.95921" lon="21.18798">
        <ele>44.510089</ele>
        <time>2020-09-27T12:09:41.298Z</time>
      </trkpt>
      <trkpt lat="64.95912" lon="21.18821">
        <ele>44.783858</ele>
        <time>2020-09-27T12:09:44.261Z</time>
      </trkpt>
      <trkpt lat="64.95905" lon="21.18846">
        <ele>45.041714</ele>
        <time>2020-09-27T12:09:47.254Z</time>
      </trkpt>
      <trkpt lat="64.95899" lon="21.18871">
        <ele>45.293593</ele>
        <time>2020-09-27T12:09:50.251Z</time>
      </trkpt>
      <trkpt lat="64.95893" lon="21.18895">
        <ele>45.539699</ele>
        <time>2020-09-27T12:09:53.283Z</time>
      </trkpt>
      <trkpt lat="64.95888" lon="21.1892">
        <ele>45.781245</ele>
        <time>2020-09-27T12:09:56.247Z</time>
      </trkpt>
      <trkpt lat="64.95883" lon="21.18946">
        <ele>46.034069</ele>
        <time>2020-09-27T12:09:59.243Z</time>
      </trkpt>
      <trkpt lat="64.95877" lon="21.18972">
        <ele>46.292311</ele>
        <time>2020-09-27T12:10:02.246Z</time>
      </trkpt>
      <trkpt lat="64.9587" lon="21.18999">
        <ele>46.562266</ele>
        <time>2020-09-27T12:10:05.242Z</time>
      </trkpt>
      <trkpt lat="64.95864" lon="21.19025">
        <ele>46.825877</ele>
        <time>2020-09-27T12:10:08.317Z</time>
      </trkpt>
      <trkpt lat="64.95857" lon="21.19051">
        <ele>47.089778</ele>
        <time>2020-09-27T12:10:11.281Z</time>
      </trkpt>
      <trkpt lat="64.95851" lon="21.19076">
        <ele>47.348015</ele>
        <time>2020-09-27T12:10:14.237Z</time>
      </trkpt>
      <trkpt lat="64.95845" lon="21.19101">
        <ele>47.597665</ele>
        <time>2020-09-27T12:10:17.242Z</time>
      </trkpt>
      <trkpt lat="64.9584" lon="21.19124">
        <ele>47.825628</ele>
        <time>2020-09-27T12:10:20.238Z</time>
      </trkpt>
      <trkpt lat="64.95835" lon="21.19145">
        <ele>48.108127</ele>
        <time>2020-09-27T12:10:23.244Z</time>
      </trkpt>
      <trkpt lat="64.95831" lon="21.19165">
        <ele>48.380368</ele>
        <time>2020-09-27T12:10:26.270Z</time>
      </trkpt>
      <trkpt lat="64.95826" lon="21.19187">
        <ele>48.666281</ele>
        <time>2020-09-27T12:10:29.262Z</time>
      </trkpt>
      <trkpt lat="64.95821" lon="21.19208">
        <ele>48.956633</ele>
        <time>2020-09-27T12:10:32.263Z</time>
      </trkpt>
      <trkpt lat="64.95816" lon="21.19229">
        <ele>49.241515</ele>
        <time>2020-09-27T12:10:35.248Z</time>
      </trkpt>
      <trkpt lat="64.95811" lon="21.19249">
        <ele>49.514149</ele>
        <time>2020-09-27T12:10:38.273Z</time>
      </trkpt>
      <trkpt lat="64.95806" lon="21.19269">
        <ele>49.78131</ele>
        <time>2020-09-27T12:10:41.279Z</time>
      </trkpt>
      <trkpt lat="64.958" lon="21.19289">
        <ele>50.068748</ele>
        <time>2020-09-27T12:10:44.238Z</time>
      </trkpt>
      <trkpt lat="64.95795" lon="21.19309">
        <ele>50.350718</ele>
        <time>2020-09-27T12:10:47.273Z</time>
      </trkpt>
      <trkpt lat="64.95788" lon="21.19332">
        <ele>50.667762</ele>
        <time>2020-09-27T12:10:50.267Z</time>
      </trkpt>
      <trkpt lat="64.95783" lon="21.1935">
        <ele>50.934274</ele>
        <time>2020-09-27T12:10:53.262Z</time>
      </trkpt>
      <trkpt lat="64.95774" lon="21.19355">
        <ele>51.187328</ele>
        <time>2020-09-27T12:10:56.298Z</time>
      </trkpt>
      <trkpt lat="64.95765" lon="21.19344">
        <ele>51.463654</ele>
        <time>2020-09-27T12:10:59.235Z</time>
      </trkpt>
      <trkpt lat="64.95758" lon="21.1933">
        <ele>51.71955</ele>
        <time>2020-09-27T12:11:02.247Z</time>
      </trkpt>
      <trkpt lat="64.95749" lon="21.1932">
        <ele>51.993849</ele>
        <time>2020-09-27T12:11:06.280Z</time>
      </trkpt>
      <trkpt lat="64.9574" lon="21.19306">
        <ele>52.295907</ele>
        <time>2020-09-27T12:11:11.250Z</time>
      </trkpt>
      <trkpt lat="64.95732" lon="21.19293">
        <ele>52.560911</ele>
        <time>2020-09-27T12:11:15.254Z</time>
      </trkpt>
      <trkpt lat="64.95724" lon="21.19281">
        <ele>52.827056</ele>
        <time>2020-09-27T12:11:19.238Z</time>
      </trkpt>
      <trkpt lat="64.95716" lon="21.19271">
        <ele>52.960175</ele>
        <time>2020-09-27T12:11:23.245Z</time>
      </trkpt>
      <trkpt lat="64.95707" lon="21.19258">
        <ele>53.102119</ele>
        <time>2020-09-27T12:11:27.280Z</time>
      </trkpt>
      <trkpt lat="64.95698" lon="21.19245">
        <ele>53.24606</ele>
        <time>2020-09-27T12:11:31.260Z</time>
      </trkpt>
      <trkpt lat="64.95689" lon="21.19234">
        <ele>53.392328</ele>
        <time>2020-09-27T12:11:35.251Z</time>
      </trkpt>
      <trkpt lat="64.9568" lon="21.1922">
        <ele>53.547033</ele>
        <time>2020-09-27T12:11:39.248Z</time>
      </trkpt>
      <trkpt lat="64.9567" lon="21.19205">
        <ele>53.711048</ele>
        <time>2020-09-27T12:11:43.270Z</time>
      </trkpt>
      <trkpt lat="64.95661" lon="21.19195">
        <ele>53.842115</ele>
        <time>2020-09-27T12:11:46.251Z</time>
      </trkpt>
      <trkpt lat="64.95651" lon="21.1919">
        <ele>53.993639</ele>
        <time>2020-09-27T12:11:50.233Z</time>
      </trkpt>
      <trkpt lat="64.95641" lon="21.19204">
        <ele>54.150285</ele>
        <time>2020-09-27T12:11:53.235Z</time>
      </trkpt>
      <trkpt lat="64.95634" lon="21.19226">
        <ele>54.313599</ele>
        <time>2020-09-27T12:11:56.252Z</time>
      </trkpt>
      <trkpt lat="64.95628" lon="21.19251">
        <ele>54.488289</ele>
        <time>2020-09-27T12:11:59.252Z</time>
      </trkpt>
      <trkpt lat="64.9562" lon="21.19278">
        <ele>54.684381</ele>
        <time>2020-09-27T12:12:02.262Z</time>
      </trkpt>
      <trkpt lat="64.95614" lon="21.19299">
        <ele>54.833671</ele>
        <time>2020-09-27T12:12:04.247Z</time>
      </trkpt>
      <trkpt lat="64.95608" lon="21.19321">
        <ele>54.988981</ele>
        <time>2020-09-27T12:12:06.256Z</time>
      </trkpt>
      <trkpt lat="64.95603" lon="21.19344">
        <ele>55.141108</ele>
        <time>2020-09-27T12:12:08.250Z</time>
      </trkpt>
      <trkpt lat="64.95597" lon="21.19366">
        <ele>55.295409</ele>
        <time>2020-09-27T12:12:10.247Z</time>
      </trkpt>
      <trkpt lat="64.95591" lon="21.19388">
        <ele>54.98668</ele>
        <time>2020-09-27T12:12:12.244Z</time>
      </trkpt>
      <trkpt lat="64.95585" lon="21.1941">
        <ele>54.452028</ele>
        <time>2020-09-27T12:12:14.262Z</time>
      </trkpt>
      <trkpt lat="64.95579" lon="21.19434">
        <ele>53.89128</ele>
        <time>2020-09-27T12:12:16.269Z</time>
      </trkpt>
      <trkpt lat="64.95573" lon="21.19458">
        <ele>53.303246</ele>
        <time>2020-09-27T12:12:18.281Z</time>
      </trkpt>
      <trkpt lat="64.95566" lon="21.19483">
        <ele>52.713642</ele>
        <time>2020-09-27T12:12:20.254Z</time>
      </trkpt>
      <trkpt lat="64.95559" lon="21.19507">
        <ele>52.136946</ele>
        <time>2020-09-27T12:12:22.272Z</time>
      </trkpt>
      <trkpt lat="64.95553" lon="21.19532">
        <ele>51.546105</ele>
        <time>2020-09-27T12:12:24.277Z</time>
      </trkpt>
      <trkpt lat="64.95546" lon="21.19558">
        <ele>50.913625</ele>
        <time>2020-09-27T12:12:26.232Z</time>
      </trkpt>
      <trkpt lat="64.95539" lon="21.19584">
        <ele>50.277302</ele>
        <time>2020-09-27T12:12:28.251Z</time>
      </trkpt>
      <trkpt lat="64.95531" lon="21.1961">
        <ele>49.635492</ele>
        <time>2020-09-27T12:12:30.241Z</time>
      </trkpt>
      <trkpt lat="64.95523" lon="21.19635">
        <ele>48.973738</ele>
        <time>2020-09-27T12:12:32.256Z</time>
      </trkpt>
      <trkpt lat="64.95514" lon="21.19658">
        <ele>48.353568</ele>
        <time>2020-09-27T12:12:34.248Z</time>
      </trkpt>
      <trkpt lat="64.95501" lon="21.19677">
        <ele>47.646613</ele>
        <time>2020-09-27T12:12:36.258Z</time>
      </trkpt>
      <trkpt lat="64.95487" lon="21.19693">
        <ele>46.863195</ele>
        <time>2020-09-27T12:12:38.264Z</time>
      </trkpt>
      <trkpt lat="64.95471" lon="21.19703">
        <ele>46.075072</ele>
        <time>2020-09-27T12:12:40.243Z</time>
      </trkpt>
      <trkpt lat="64.95455" lon="21.19712">
        <ele>45.245706</ele>
        <time>2020-09-27T12:12:42.247Z</time>
      </trkpt>
      <trkpt lat="64.9544" lon="21.19727">
        <ele>44.410658</ele>
        <time>2020-09-27T12:12:44.248Z</time>
      </trkpt>
      <trkpt lat="64.95426" lon="21.19747">
        <ele>43.598111</ele>
        <time>2020-09-27T12:12:46.254Z</time>
      </trkpt>
      <trkpt lat="64.95413" lon="21.19775">
        <ele>42.714242</ele>
        <time>2020-09-27T12:12:48.251Z</time>
      </trkpt>
      <trkpt lat="64.95407" lon="21.19791">
        <ele>42.25968</ele>
        <time>2020-09-27T12:12:49.262Z</time>
      </trkpt>
      <trkpt lat="64.95401" lon="21.19808">
        <ele>41.794787</ele>
        <time>2020-09-27T12:12:50.254Z</time>
      </trkpt>
      <trkpt lat="64.95396" lon="21.19828">
        <ele>41.307262</ele>
        <time>2020-09-27T12:12:51.265Z</time>
      </trkpt>
      <trkpt lat="64.95391" lon="21.19848">
        <ele>40.818782</ele>
        <time>2020-09-27T12:12:52.250Z</time>
      </trkpt>
      <trkpt lat="64.95387" lon="21.19868">
        <ele>40.340661</ele>
        <time>2020-09-27T12:12:53.250Z</time>
      </trkpt>
      <trkpt lat="64.95382" lon="21.19886">
        <ele>39.884151</ele>
        <time>2020-09-27T12:12:54.243Z</time>
      </trkpt>
      <trkpt lat="64.95371" lon="21.19917">
        <ele>39.044594</ele>
        <time>2020-09-27T12:12:56.249Z</time>
      </trkpt>
      <trkpt lat="64.95365" lon="21.1995">
        <ele>38.281401</ele>
        <time>2020-09-27T12:12:58.272Z</time>
      </trkpt>
      <trkpt lat="64.9536" lon="21.19983">
        <ele>37.765979</ele>
        <time>2020-09-27T12:13:00.243Z</time>
      </trkpt>
      <trkpt lat="64.95354" lon="21.20007">
        <ele>38.000733</ele>
        <time>2020-09-27T12:13:02.261Z</time>
      </trkpt>
      <trkpt lat="64.95351" lon="21.20032">
        <ele>38.22716</ele>
        <time>2020-09-27T12:13:05.250Z</time>
      </trkpt>
      <trkpt lat="64.95346" lon="21.20051">
        <ele>38.412298</ele>
        <time>2020-09-27T12:13:08.239Z</time>
      </trkpt>
      <trkpt lat="64.95338" lon="21.20071">
        <ele>38.647002</ele>
        <time>2020-09-27T12:13:12.246Z</time>
      </trkpt>
      <trkpt lat="64.95329" lon="21.20088">
        <ele>38.859279</ele>
        <time>2020-09-27T12:13:15.246Z</time>
      </trkpt>
      <trkpt lat="64.9532" lon="21.20104">
        <ele>39.080256</ele>
        <time>2020-09-27T12:13:18.298Z</time>
      </trkpt>
      <trkpt lat="64.95312" lon="21.20118">
        <ele>39.291028</ele>
        <time>2020-09-27T12:13:21.249Z</time>
      </trkpt>
      <trkpt lat="64.95303" lon="21.20134">
        <ele>39.510912</ele>
        <time>2020-09-27T12:13:24.261Z</time>
      </trkpt>
      <trkpt lat="64.95294" lon="21.2015">
        <ele>39.730207</ele>
        <time>2020-09-27T12:13:27.250Z</time>
      </trkpt>
      <trkpt lat="64.95286" lon="21.20166">
        <ele>39.941726</ele>
        <time>2020-09-27T12:13:30.280Z</time>
      </trkpt>
      <trkpt lat="64.95278" lon="21.20182">
        <ele>40.154005</ele>
        <time>2020-09-27T12:13:33.232Z</time>
      </trkpt>
      <trkpt lat="64.95271" lon="21.20197">
        <ele>40.340899</ele>
        <time>2020-09-27T12:13:36.251Z</time>
      </trkpt>
      <trkpt lat="64.9526" lon="21.20195">
        <ele>40.55133</ele>
        <time>2020-09-27T12:13:40.269Z</time>
      </trkpt>
      <trkpt lat="64.95254" lon="21.20176">
        <ele>40.754906</ele>
        <time>2020-09-27T12:13:43.264Z</time>
      </trkpt>
      <trkpt lat="64.95247" lon="21.20156">
        <ele>40.971123</ele>
        <time>2020-09-27T12:13:46.249Z</time>
      </trkpt>
      <trkpt lat="64.95239" lon="21.20135">
        <ele>41.205394</ele>
        <time>2020-09-27T12:13:49.265Z</time>
      </trkpt>
      <trkpt lat="64.9523" lon="21.20114">
        <ele>41.386344</ele>
        <time>2020-09-27T12:13:52.305Z</time>
      </trkpt>
      <trkpt lat="64.95221" lon="21.20094">
        <ele>41.548368</ele>
        <time>2020-09-27T12:13:55.289Z</time>
      </trkpt>
      <trkpt lat="64.95214" lon="21.20075">
        <ele>41.699647</ele>
        <time>2020-09-27T12:13:58.268Z</time>
      </trkpt>
      <trkpt lat="64.95206" lon="21.20055">
        <ele>41.8483</ele>
        <time>2020-09-27T12:14:01.268Z</time>
      </trkpt>
      <trkpt lat="64.95198" lon="21.20035">
        <ele>42.005051</ele>
        <time>2020-09-27T12:14:04.246Z</time>
      </trkpt>
      <trkpt lat="64.95189" lon="21.20013">
        <ele>42.168678</ele>
        <time>2020-09-27T12:14:07.302Z</time>
      </trkpt>
      <trkpt lat="64.9518" lon="21.19993">
        <ele>42.332429</ele>
        <time>2020-09-27T12:14:10.249Z</time>
      </trkpt>
      <trkpt lat="64.95175" lon="21.19977">
        <ele>42.451043</ele>
        <time>2020-09-27T12:14:12.254Z</time>
      </trkpt>
      <trkpt lat="64.9517" lon="21.19958">
        <ele>42.570696</ele>
        <time>2020-09-27T12:14:14.249Z</time>
      </trkpt>
      <trkpt lat="64.95165" lon="21.19935">
        <ele>42.719813</ele>
        <time>2020-09-27T12:14:17.283Z</time>
      </trkpt>
      <trkpt lat="64.95161" lon="21.19909">
        <ele>42.874335</ele>
        <time>2020-09-27T12:14:21.276Z</time>
      </trkpt>
      <trkpt lat="64.95157" lon="21.19884">
        <ele>43.020193</ele>
        <time>2020-09-27T12:14:25.237Z</time>
      </trkpt>
      <trkpt lat="64.95155" lon="21.19858">
        <ele>43.168543</ele>
        <time>2020-09-27T12:14:29.247Z</time>
      </trkpt>
      <trkpt lat="64.95153" lon="21.19834">
        <ele>43.303147</ele>
        <time>2020-09-27T12:14:33.241Z</time>
      </trkpt>
      <trkpt lat="64.9515" lon="21.19811">
        <ele>43.440348</ele>
        <time>2020-09-27T12:14:37.266Z</time>
      </trkpt>
      <trkpt lat="64.95144" lon="21.1979">
        <ele>43.581504</ele>
        <time>2020-09-27T12:14:42.272Z</time>
      </trkpt>
      <trkpt lat="64.95134" lon="21.19787">
        <ele>43.739264</ele>
        <time>2020-09-27T12:14:45.261Z</time>
      </trkpt>
      <trkpt lat="64.95125" lon="21.19787">
        <ele>43.92486</ele>
        <time>2020-09-27T12:14:48.277Z</time>
      </trkpt>
      <trkpt lat="64.95114" lon="21.19784">
        <ele>44.134828</ele>
        <time>2020-09-27T12:14:52.243Z</time>
      </trkpt>
      <trkpt lat="64.95103" lon="21.19783">
        <ele>44.345561</ele>
        <time>2020-09-27T12:14:56.242Z</time>
      </trkpt>
      <trkpt lat="64.95091" lon="21.1978">
        <ele>44.566318</ele>
        <time>2020-09-27T12:15:00.241Z</time>
      </trkpt>
      <trkpt lat="64.95081" lon="21.19781">
        <ele>44.767222</ele>
        <time>2020-09-27T12:15:04.288Z</time>
      </trkpt>
      <trkpt lat="64.9507" lon="21.1978">
        <ele>44.966218</ele>
        <time>2020-09-27T12:15:08.231Z</time>
      </trkpt>
      <trkpt lat="64.9506" lon="21.19781">
        <ele>45.170954</ele>
        <time>2020-09-27T12:15:12.277Z</time>
      </trkpt>
      <trkpt lat="64.95048" lon="21.19784">
        <ele>45.402721</ele>
        <time>2020-09-27T12:15:16.263Z</time>
      </trkpt>
      <trkpt lat="64.95038" lon="21.1979">
        <ele>45.599937</ele>
        <time>2020-09-27T12:15:19.245Z</time>
      </trkpt>
      <trkpt lat="64.95029" lon="21.19798">
        <ele>45.779779</ele>
        <time>2020-09-27T12:15:22.292Z</time>
      </trkpt>
      <trkpt lat="64.95019" lon="21.19807">
        <ele>45.984249</ele>
        <time>2020-09-27T12:15:25.243Z</time>
      </trkpt>
      <trkpt lat="64.95008" lon="21.19816">
        <ele>46.195899</ele>
        <time>2020-09-27T12:15:28.245Z</time>
      </trkpt>
      <trkpt lat="64.94996" lon="21.19828">
        <ele>46.44253</ele>
        <time>2020-09-27T12:15:31.250Z</time>
      </trkpt>
      <trkpt lat="64.94984" lon="21.19838">
        <ele>46.6925</ele>
        <time>2020-09-27T12:15:34.263Z</time>
      </trkpt>
      <trkpt lat="64.94976" lon="21.19846">
        <ele>46.866401</ele>
        <time>2020-09-27T12:15:36.260Z</time>
      </trkpt>
      <trkpt lat="64.94963" lon="21.19858">
        <ele>47.046497</ele>
        <time>2020-09-27T12:15:39.244Z</time>
      </trkpt>
      <trkpt lat="64.94955" lon="21.19864">
        <ele>46.903495</ele>
        <time>2020-09-27T12:15:41.271Z</time>
      </trkpt>
      <trkpt lat="64.94946" lon="21.19871">
        <ele>46.752651</ele>
        <time>2020-09-27T12:15:43.256Z</time>
      </trkpt>
      <trkpt lat="64.94937" lon="21.1988">
        <ele>46.593936</ele>
        <time>2020-09-27T12:15:45.256Z</time>
      </trkpt>
      <trkpt lat="64.94926" lon="21.19891">
        <ele>46.418508</ele>
        <time>2020-09-27T12:15:47.279Z</time>
      </trkpt>
      <trkpt lat="64.94915" lon="21.19903">
        <ele>46.221269</ele>
        <time>2020-09-27T12:15:49.266Z</time>
      </trkpt>
      <trkpt lat="64.94902" lon="21.19916">
        <ele>46.000959</ele>
        <time>2020-09-27T12:15:51.261Z</time>
      </trkpt>
      <trkpt lat="64.9489" lon="21.19932">
        <ele>45.769949</ele>
        <time>2020-09-27T12:15:53.249Z</time>
      </trkpt>
      <trkpt lat="64.94877" lon="21.19948">
        <ele>45.536907</ele>
        <time>2020-09-27T12:15:55.266Z</time>
      </trkpt>
      <trkpt lat="64.94864" lon="21.19963">
        <ele>45.311772</ele>
        <time>2020-09-27T12:15:57.264Z</time>
      </trkpt>
      <trkpt lat="64.94852" lon="21.19975">
        <ele>45.105272</ele>
        <time>2020-09-27T12:15:59.251Z</time>
      </trkpt>
      <trkpt lat="64.94842" lon="21.19987">
        <ele>44.920968</ele>
        <time>2020-09-27T12:16:01.254Z</time>
      </trkpt>
      <trkpt lat="64.94832" lon="21.19996">
        <ele>44.756521</ele>
        <time>2020-09-27T12:16:03.293Z</time>
      </trkpt>
      <trkpt lat="64.94823" lon="21.20004">
        <ele>44.611554</ele>
        <time>2020-09-27T12:16:05.266Z</time>
      </trkpt>
      <trkpt lat="64.94812" lon="21.20015">
        <ele>44.422688</ele>
        <time>2020-09-27T12:16:08.240Z</time>
      </trkpt>
      <trkpt lat="64.94802" lon="21.20025">
        <ele>44.247883</ele>
        <time>2020-09-27T12:16:11.252Z</time>
      </trkpt>
      <trkpt lat="64.94792" lon="21.20036">
        <ele>44.138865</ele>
        <time>2020-09-27T12:16:14.242Z</time>
      </trkpt>
      <trkpt lat="64.94781" lon="21.20047">
        <ele>44.039912</ele>
        <time>2020-09-27T12:16:17.262Z</time>
      </trkpt>
      <trkpt lat="64.9477" lon="21.20059">
        <ele>43.936258</ele>
        <time>2020-09-27T12:16:20.241Z</time>
      </trkpt>
      <trkpt lat="64.94758" lon="21.20065">
        <ele>43.831437</ele>
        <time>2020-09-27T12:16:23.251Z</time>
      </trkpt>
      <trkpt lat="64.94746" lon="21.20068">
        <ele>43.72409</ele>
        <time>2020-09-27T12:16:26.248Z</time>
      </trkpt>
      <trkpt lat="64.94735" lon="21.20082">
        <ele>43.61728</ele>
        <time>2020-09-27T12:16:29.249Z</time>
      </trkpt>
      <trkpt lat="64.94724" lon="21.20096">
        <ele>43.51151</ele>
        <time>2020-09-27T12:16:32.273Z</time>
      </trkpt>
      <trkpt lat="64.94712" lon="21.2011">
        <ele>43.400458</ele>
        <time>2020-09-27T12:16:35.242Z</time>
      </trkpt>
      <trkpt lat="64.947" lon="21.20122">
        <ele>43.285521</ele>
        <time>2020-09-27T12:16:38.279Z</time>
      </trkpt>
      <trkpt lat="64.94691" lon="21.2013">
        <ele>43.204808</ele>
        <time>2020-09-27T12:16:40.263Z</time>
      </trkpt>
      <trkpt lat="64.94683" lon="21.20139">
        <ele>43.125946</ele>
        <time>2020-09-27T12:16:42.240Z</time>
      </trkpt>
      <trkpt lat="64.94673" lon="21.20148">
        <ele>43.041528</ele>
        <time>2020-09-27T12:16:44.246Z</time>
      </trkpt>
      <trkpt lat="64.94664" lon="21.20157">
        <ele>42.956878</ele>
        <time>2020-09-27T12:16:46.304Z</time>
      </trkpt>
      <trkpt lat="64.94655" lon="21.20166">
        <ele>42.86825</ele>
        <time>2020-09-27T12:16:48.246Z</time>
      </trkpt>
      <trkpt lat="64.94645" lon="21.20176">
        <ele>42.775931</ele>
        <time>2020-09-27T12:16:50.249Z</time>
      </trkpt>
      <trkpt lat="64.94635" lon="21.20184">
        <ele>42.683303</ele>
        <time>2020-09-27T12:16:52.236Z</time>
      </trkpt>
      <trkpt lat="64.94623" lon="21.20195">
        <ele>42.358326</ele>
        <time>2020-09-27T12:16:54.259Z</time>
      </trkpt>
      <trkpt lat="64.94612" lon="21.20205">
        <ele>42.015836</ele>
        <time>2020-09-27T12:16:56.258Z</time>
      </trkpt>
      <trkpt lat="64.94598" lon="21.20218">
        <ele>41.624975</ele>
        <time>2020-09-27T12:16:58.280Z</time>
      </trkpt>
      <trkpt lat="64.94584" lon="21.20231">
        <ele>41.229527</ele>
        <time>2020-09-27T12:17:00.264Z</time>
      </trkpt>
      <trkpt lat="64.94571" lon="21.20243">
        <ele>40.833191</ele>
        <time>2020-09-27T12:17:02.255Z</time>
      </trkpt>
      <trkpt lat="64.94557" lon="21.20256">
        <ele>40.4377</ele>
        <time>2020-09-27T12:17:04.263Z</time>
      </trkpt>
      <trkpt lat="64.94543" lon="21.20269">
        <ele>40.024316</ele>
        <time>2020-09-27T12:17:06.302Z</time>
      </trkpt>
      <trkpt lat="64.94528" lon="21.20284">
        <ele>39.598984</ele>
        <time>2020-09-27T12:17:08.242Z</time>
      </trkpt>
      <trkpt lat="64.94515" lon="21.20297">
        <ele>39.206866</ele>
        <time>2020-09-27T12:17:10.245Z</time>
      </trkpt>
      <trkpt lat="64.94501" lon="21.20307">
        <ele>38.83366</ele>
        <time>2020-09-27T12:17:12.274Z</time>
      </trkpt>
      <trkpt lat="64.94489" lon="21.20318">
        <ele>38.47738</ele>
        <time>2020-09-27T12:17:14.273Z</time>
      </trkpt>
      <trkpt lat="64.94477" lon="21.20329">
        <ele>38.12773</ele>
        <time>2020-09-27T12:17:16.353Z</time>
      </trkpt>
      <trkpt lat="64.94466" lon="21.20339">
        <ele>37.837597</ele>
        <time>2020-09-27T12:17:18.264Z</time>
      </trkpt>
      <trkpt lat="64.94456" lon="21.2035">
        <ele>37.701139</ele>
        <time>2020-09-27T12:17:20.234Z</time>
      </trkpt>
      <trkpt lat="64.94445" lon="21.2036">
        <ele>37.559632</ele>
        <time>2020-09-27T12:17:22.242Z</time>
      </trkpt>
      <trkpt lat="64.94434" lon="21.20369">
        <ele>37.418638</ele>
        <time>2020-09-27T12:17:24.253Z</time>
      </trkpt>
      <trkpt lat="64.94423" lon="21.20379">
        <ele>37.280159</ele>
        <time>2020-09-27T12:17:26.263Z</time>
      </trkpt>
      <trkpt lat="64.94413" lon="21.2039">
        <ele>37.138651</ele>
        <time>2020-09-27T12:17:28.257Z</time>
      </trkpt>
      <trkpt lat="64.94403" lon="21.204">
        <ele>37.005318</ele>
        <time>2020-09-27T12:17:30.238Z</time>
      </trkpt>
      <trkpt lat="64.94393" lon="21.2041">
        <ele>36.877232</ele>
        <time>2020-09-27T12:17:32.280Z</time>
      </trkpt>
      <trkpt lat="64.94383" lon="21.2042">
        <ele>36.752382</ele>
        <time>2020-09-27T12:17:34.244Z</time>
      </trkpt>
      <trkpt lat="64.94373" lon="21.20431">
        <ele>36.617111</ele>
        <time>2020-09-27T12:17:36.242Z</time>
      </trkpt>
      <trkpt lat="64.94362" lon="21.20441">
        <ele>36.47507</ele>
        <time>2020-09-27T12:17:38.249Z</time>
      </trkpt>
      <trkpt lat="64.94351" lon="21.20452">
        <ele>36.327777</ele>
        <time>2020-09-27T12:17:40.245Z</time>
      </trkpt>
      <trkpt lat="64.94339" lon="21.20463">
        <ele>36.172229</ele>
        <time>2020-09-27T12:17:42.234Z</time>
      </trkpt>
      <trkpt lat="64.94327" lon="21.20474">
        <ele>36.021004</ele>
        <time>2020-09-27T12:17:44.279Z</time>
      </trkpt>
      <trkpt lat="64.94315" lon="21.20485">
        <ele>35.862272</ele>
        <time>2020-09-27T12:17:46.237Z</time>
      </trkpt>
      <trkpt lat="64.94302" lon="21.20497">
        <ele>35.694184</ele>
        <time>2020-09-27T12:17:48.234Z</time>
      </trkpt>
      <trkpt lat="64.94289" lon="21.20511">
        <ele>35.325683</ele>
        <time>2020-09-27T12:17:50.243Z</time>
      </trkpt>
      <trkpt lat="64.94275" lon="21.20525">
        <ele>34.933743</ele>
        <time>2020-09-27T12:17:52.236Z</time>
      </trkpt>
      <trkpt lat="64.94262" lon="21.20539">
        <ele>34.557232</ele>
        <time>2020-09-27T12:17:54.306Z</time>
      </trkpt>
      <trkpt lat="64.9425" lon="21.20552">
        <ele>34.212375</ele>
        <time>2020-09-27T12:17:56.263Z</time>
      </trkpt>
      <trkpt lat="64.9424" lon="21.20564">
        <ele>33.913341</ele>
        <time>2020-09-27T12:17:58.281Z</time>
      </trkpt>
      <trkpt lat="64.9423" lon="21.20577">
        <ele>33.605502</ele>
        <time>2020-09-27T12:18:00.242Z</time>
      </trkpt>
      <trkpt lat="64.94219" lon="21.20591">
        <ele>33.285501</ele>
        <time>2020-09-27T12:18:02.268Z</time>
      </trkpt>
      <trkpt lat="64.9421" lon="21.20608">
        <ele>32.969105</ele>
        <time>2020-09-27T12:18:04.252Z</time>
      </trkpt>
      <trkpt lat="64.942" lon="21.20624">
        <ele>32.651604</ele>
        <time>2020-09-27T12:18:06.258Z</time>
      </trkpt>
      <trkpt lat="64.94191" lon="21.20641">
        <ele>32.340541</ele>
        <time>2020-09-27T12:18:08.258Z</time>
      </trkpt>
      <trkpt lat="64.94182" lon="21.20658">
        <ele>32.038447</ele>
        <time>2020-09-27T12:18:10.303Z</time>
      </trkpt>
      <trkpt lat="64.94172" lon="21.20674">
        <ele>31.734112</ele>
        <time>2020-09-27T12:18:12.236Z</time>
      </trkpt>
      <trkpt lat="64.94163" lon="21.2069">
        <ele>31.427786</ele>
        <time>2020-09-27T12:18:14.247Z</time>
      </trkpt>
      <trkpt lat="64.94154" lon="21.20707">
        <ele>31.120185</ele>
        <time>2020-09-27T12:18:16.282Z</time>
      </trkpt>
      <trkpt lat="64.94145" lon="21.20723">
        <ele>30.920071</ele>
        <time>2020-09-27T12:18:18.243Z</time>
      </trkpt>
      <trkpt lat="64.94137" lon="21.20739">
        <ele>30.920581</ele>
        <time>2020-09-27T12:18:20.280Z</time>
      </trkpt>
      <trkpt lat="64.94128" lon="21.20755">
        <ele>30.921079</ele>
        <time>2020-09-27T12:18:22.249Z</time>
      </trkpt>
      <trkpt lat="64.9412" lon="21.2077">
        <ele>30.921569</ele>
        <time>2020-09-27T12:18:24.263Z</time>
      </trkpt>
      <trkpt lat="64.94112" lon="21.20786">
        <ele>30.922056</ele>
        <time>2020-09-27T12:18:26.267Z</time>
      </trkpt>
      <trkpt lat="64.94104" lon="21.20801">
        <ele>30.922543</ele>
        <time>2020-09-27T12:18:28.254Z</time>
      </trkpt>
      <trkpt lat="64.94096" lon="21.20817">
        <ele>30.923029</ele>
        <time>2020-09-27T12:18:30.249Z</time>
      </trkpt>
      <trkpt lat="64.94088" lon="21.20834">
        <ele>30.923526</ele>
        <time>2020-09-27T12:18:32.271Z</time>
      </trkpt>
      <trkpt lat="64.9408" lon="21.20851">
        <ele>30.924034</ele>
        <time>2020-09-27T12:18:34.248Z</time>
      </trkpt>
      <trkpt lat="64.94071" lon="21.20867">
        <ele>30.924545</ele>
        <time>2020-09-27T12:18:36.247Z</time>
      </trkpt>
      <trkpt lat="64.94063" lon="21.20883">
        <ele>30.92505</ele>
        <time>2020-09-27T12:18:38.266Z</time>
      </trkpt>
      <trkpt lat="64.94054" lon="21.20898">
        <ele>30.925547</ele>
        <time>2020-09-27T12:18:40.241Z</time>
      </trkpt>
      <trkpt lat="64.94046" lon="21.20913">
        <ele>30.92602</ele>
        <time>2020-09-27T12:18:42.264Z</time>
      </trkpt>
      <trkpt lat="64.94039" lon="21.20928">
        <ele>30.926481</ele>
        <time>2020-09-27T12:18:44.249Z</time>
      </trkpt>
      <trkpt lat="64.94031" lon="21.20943">
        <ele>30.926942</ele>
        <time>2020-09-27T12:18:46.281Z</time>
      </trkpt>
      <trkpt lat="64.94024" lon="21.20957">
        <ele>30.927374</ele>
        <time>2020-09-27T12:18:48.254Z</time>
      </trkpt>
      <trkpt lat="64.94017" lon="21.20971">
        <ele>30.927813</ele>
        <time>2020-09-27T12:18:50.259Z</time>
      </trkpt>
      <trkpt lat="64.9401" lon="21.20985">
        <ele>30.92825</ele>
        <time>2020-09-27T12:18:52.294Z</time>
      </trkpt>
      <trkpt lat="64.94002" lon="21.20999">
        <ele>31.048744</ele>
        <time>2020-09-27T12:18:54.291Z</time>
      </trkpt>
      <trkpt lat="64.93995" lon="21.21013">
        <ele>31.184367</ele>
        <time>2020-09-27T12:18:56.246Z</time>
      </trkpt>
      <trkpt lat="64.93987" lon="21.21028">
        <ele>31.31999</ele>
        <time>2020-09-27T12:18:58.237Z</time>
      </trkpt>
      <trkpt lat="64.9398" lon="21.21042">
        <ele>31.451865</ele>
        <time>2020-09-27T12:19:00.282Z</time>
      </trkpt>
      <trkpt lat="64.93973" lon="21.21055">
        <ele>31.58707</ele>
        <time>2020-09-27T12:19:02.272Z</time>
      </trkpt>
      <trkpt lat="64.93965" lon="21.21069">
        <ele>31.722691</ele>
        <time>2020-09-27T12:19:04.242Z</time>
      </trkpt>
      <trkpt lat="64.93958" lon="21.21083">
        <ele>31.859393</ele>
        <time>2020-09-27T12:19:06.263Z</time>
      </trkpt>
      <trkpt lat="64.9395" lon="21.21097">
        <ele>31.996478</ele>
        <time>2020-09-27T12:19:08.244Z</time>
      </trkpt>
      <trkpt lat="64.93943" lon="21.2111">
        <ele>32.127562</ele>
        <time>2020-09-27T12:19:10.273Z</time>
      </trkpt>
      <trkpt lat="64.93935" lon="21.21123">
        <ele>32.263184</ele>
        <time>2020-09-27T12:19:12.273Z</time>
      </trkpt>
      <trkpt lat="64.93928" lon="21.21137">
        <ele>32.3999</ele>
        <time>2020-09-27T12:19:14.248Z</time>
      </trkpt>
      <trkpt lat="64.9392" lon="21.21151">
        <ele>32.538476</ele>
        <time>2020-09-27T12:19:16.242Z</time>
      </trkpt>
      <trkpt lat="64.93913" lon="21.21165">
        <ele>32.675931</ele>
        <time>2020-09-27T12:19:18.251Z</time>
      </trkpt>
      <trkpt lat="64.93905" lon="21.2118">
        <ele>32.815642</ele>
        <time>2020-09-27T12:19:20.253Z</time>
      </trkpt>
      <trkpt lat="64.93898" lon="21.21194">
        <ele>32.95237</ele>
        <time>2020-09-27T12:19:22.253Z</time>
      </trkpt>
      <trkpt lat="64.9389" lon="21.21209">
        <ele>33.090645</ele>
        <time>2020-09-27T12:19:24.250Z</time>
      </trkpt>
      <trkpt lat="64.93883" lon="21.21222">
        <ele>33.221753</ele>
        <time>2020-09-27T12:19:26.280Z</time>
      </trkpt>
      <trkpt lat="64.93876" lon="21.21238">
        <ele>33.35419</ele>
        <time>2020-09-27T12:19:28.252Z</time>
      </trkpt>
      <trkpt lat="64.93869" lon="21.21252">
        <ele>33.491689</ele>
        <time>2020-09-27T12:19:30.262Z</time>
      </trkpt>
      <trkpt lat="64.93862" lon="21.21267">
        <ele>33.746946</ele>
        <time>2020-09-27T12:19:32.268Z</time>
      </trkpt>
      <trkpt lat="64.93855" lon="21.21281">
        <ele>33.995561</ele>
        <time>2020-09-27T12:19:34.254Z</time>
      </trkpt>
      <trkpt lat="64.93847" lon="21.21293">
        <ele>34.242601</ele>
        <time>2020-09-27T12:19:36.289Z</time>
      </trkpt>
      <trkpt lat="64.9384" lon="21.21306">
        <ele>34.49389</ele>
        <time>2020-09-27T12:19:38.245Z</time>
      </trkpt>
      <trkpt lat="64.93833" lon="21.2132">
        <ele>34.750084</ele>
        <time>2020-09-27T12:19:40.300Z</time>
      </trkpt>
      <trkpt lat="64.93825" lon="21.21333">
        <ele>35.013754</ele>
        <time>2020-09-27T12:19:42.246Z</time>
      </trkpt>
      <trkpt lat="64.93817" lon="21.21348">
        <ele>35.28779</ele>
        <time>2020-09-27T12:19:44.263Z</time>
      </trkpt>
      <trkpt lat="64.93809" lon="21.21363">
        <ele>35.563982</ele>
        <time>2020-09-27T12:19:46.253Z</time>
      </trkpt>
      <trkpt lat="64.93801" lon="21.21378">
        <ele>35.834487</ele>
        <time>2020-09-27T12:19:48.309Z</time>
      </trkpt>
      <trkpt lat="64.93793" lon="21.21393">
        <ele>36.117818</ele>
        <time>2020-09-27T12:19:50.257Z</time>
      </trkpt>
      <trkpt lat="64.93785" lon="21.21409">
        <ele>36.407566</ele>
        <time>2020-09-27T12:19:52.247Z</time>
      </trkpt>
      <trkpt lat="64.93777" lon="21.21426">
        <ele>36.698494</ele>
        <time>2020-09-27T12:19:54.264Z</time>
      </trkpt>
      <trkpt lat="64.93769" lon="21.21441">
        <ele>36.986122</ele>
        <time>2020-09-27T12:19:56.246Z</time>
      </trkpt>
      <trkpt lat="64.9376" lon="21.21456">
        <ele>37.281027</ele>
        <time>2020-09-27T12:19:58.267Z</time>
      </trkpt>
      <trkpt lat="64.93751" lon="21.21472">
        <ele>37.584332</ele>
        <time>2020-09-27T12:20:00.247Z</time>
      </trkpt>
      <trkpt lat="64.93743" lon="21.21491">
        <ele>37.903343</ele>
        <time>2020-09-27T12:20:02.266Z</time>
      </trkpt>
      <trkpt lat="64.93733" lon="21.2151">
        <ele>38.232581</ele>
        <time>2020-09-27T12:20:04.251Z</time>
      </trkpt>
      <trkpt lat="64.93723" lon="21.21526">
        <ele>38.798082</ele>
        <time>2020-09-27T12:20:06.262Z</time>
      </trkpt>
      <trkpt lat="64.93714" lon="21.21543">
        <ele>39.512846</ele>
        <time>2020-09-27T12:20:08.240Z</time>
      </trkpt>
      <trkpt lat="64.93705" lon="21.21558">
        <ele>40.194806</ele>
        <time>2020-09-27T12:20:10.287Z</time>
      </trkpt>
      <trkpt lat="64.93697" lon="21.21572">
        <ele>40.838419</ele>
        <time>2020-09-27T12:20:12.269Z</time>
      </trkpt>
      <trkpt lat="64.9369" lon="21.21587">
        <ele>41.472099</ele>
        <time>2020-09-27T12:20:14.246Z</time>
      </trkpt>
      <trkpt lat="64.93682" lon="21.21601">
        <ele>42.04618</ele>
        <time>2020-09-27T12:20:16.267Z</time>
      </trkpt>
      <trkpt lat="64.93673" lon="21.2162">
        <ele>42.827762</ele>
        <time>2020-09-27T12:20:19.259Z</time>
      </trkpt>
      <trkpt lat="64.93665" lon="21.21637">
        <ele>43.517687</ele>
        <time>2020-09-27T12:20:22.250Z</time>
      </trkpt>
      <trkpt lat="64.93658" lon="21.21655">
        <ele>44.160921</ele>
        <time>2020-09-27T12:20:26.267Z</time>
      </trkpt>
      <trkpt lat="64.93651" lon="21.21669">
        <ele>44.756885</ele>
        <time>2020-09-27T12:20:30.242Z</time>
      </trkpt>
      <trkpt lat="64.93643" lon="21.21684">
        <ele>45.39079</ele>
        <time>2020-09-27T12:20:34.246Z</time>
      </trkpt>
      <trkpt lat="64.93636" lon="21.21698">
        <ele>45.9947</ele>
        <time>2020-09-27T12:20:38.247Z</time>
      </trkpt>
      <trkpt lat="64.93627" lon="21.21714">
        <ele>46.665162</ele>
        <time>2020-09-27T12:20:43.258Z</time>
      </trkpt>
      <trkpt lat="64.9362" lon="21.21732">
        <ele>47.345787</ele>
        <time>2020-09-27T12:20:48.246Z</time>
      </trkpt>
      <trkpt lat="64.93612" lon="21.21745">
        <ele>47.933166</ele>
        <time>2020-09-27T12:20:52.250Z</time>
      </trkpt>
      <trkpt lat="64.93606" lon="21.21759">
        <ele>48.508308</ele>
        <time>2020-09-27T12:20:56.260Z</time>
      </trkpt>
      <trkpt lat="64.93598" lon="21.21775">
        <ele>49.154392</ele>
        <time>2020-09-27T12:21:01.296Z</time>
      </trkpt>
      <trkpt lat="64.93589" lon="21.2179">
        <ele>49.802091</ele>
        <time>2020-09-27T12:21:06.259Z</time>
      </trkpt>
      <trkpt lat="64.93581" lon="21.21806">
        <ele>50.220656</ele>
        <time>2020-09-27T12:21:11.243Z</time>
      </trkpt>
      <trkpt lat="64.93574" lon="21.21818">
        <ele>50.579377</ele>
        <time>2020-09-27T12:21:15.291Z</time>
      </trkpt>
      <trkpt lat="64.93566" lon="21.21832">
        <ele>50.973733</ele>
        <time>2020-09-27T12:21:19.257Z</time>
      </trkpt>
      <trkpt lat="64.93559" lon="21.21845">
        <ele>51.333687</ele>
        <time>2020-09-27T12:21:23.261Z</time>
      </trkpt>
      <trkpt lat="64.93551" lon="21.21861">
        <ele>51.758877</ele>
        <time>2020-09-27T12:21:28.288Z</time>
      </trkpt>
      <trkpt lat="64.93544" lon="21.21876">
        <ele>52.138773</ele>
        <time>2020-09-27T12:21:32.247Z</time>
      </trkpt>
      <trkpt lat="64.93536" lon="21.21891">
        <ele>52.532494</ele>
        <time>2020-09-27T12:21:36.251Z</time>
      </trkpt>
      <trkpt lat="64.93529" lon="21.21907">
        <ele>52.928269</ele>
        <time>2020-09-27T12:21:40.249Z</time>
      </trkpt>
      <trkpt lat="64.93521" lon="21.21923">
        <ele>53.341592</ele>
        <time>2020-09-27T12:21:44.240Z</time>
      </trkpt>
      <trkpt lat="64.93513" lon="21.2194">
        <ele>53.777655</ele>
        <time>2020-09-27T12:21:48.262Z</time>
      </trkpt>
      <trkpt lat="64.93504" lon="21.21955">
        <ele>54.203432</ele>
        <time>2020-09-27T12:21:52.243Z</time>
      </trkpt>
      <trkpt lat="64.93496" lon="21.2197">
        <ele>54.617721</ele>
        <time>2020-09-27T12:21:56.272Z</time>
      </trkpt>
      <trkpt lat="64.93488" lon="21.21983">
        <ele>55.01033</ele>
        <time>2020-09-27T12:22:00.253Z</time>
      </trkpt>
      <trkpt lat="64.9348" lon="21.21998">
        <ele>55.411897</ele>
        <time>2020-09-27T12:22:04.284Z</time>
      </trkpt>
      <trkpt lat="64.93473" lon="21.22013">
        <ele>55.81278</ele>
        <time>2020-09-27T12:22:08.268Z</time>
      </trkpt>
      <trkpt lat="64.93465" lon="21.22027">
        <ele>56.181856</ele>
        <time>2020-09-27T12:22:11.267Z</time>
      </trkpt>
      <trkpt lat="64.93458" lon="21.22041">
        <ele>56.562619</ele>
        <time>2020-09-27T12:22:14.263Z</time>
      </trkpt>
      <trkpt lat="64.93449" lon="21.22055">
        <ele>56.929018</ele>
        <time>2020-09-27T12:22:17.243Z</time>
      </trkpt>
      <trkpt lat="64.93441" lon="21.2207">
        <ele>56.460268</ele>
        <time>2020-09-27T12:22:20.261Z</time>
      </trkpt>
      <trkpt lat="64.93433" lon="21.22084">
        <ele>55.986841</ele>
        <time>2020-09-27T12:22:23.260Z</time>
      </trkpt>
      <trkpt lat="64.93424" lon="21.22099">
        <ele>55.500025</ele>
        <time>2020-09-27T12:22:26.252Z</time>
      </trkpt>
      <trkpt lat="64.93416" lon="21.22115">
        <ele>55.001457</ele>
        <time>2020-09-27T12:22:29.251Z</time>
      </trkpt>
      <trkpt lat="64.93407" lon="21.22131">
        <ele>54.490969</ele>
        <time>2020-09-27T12:22:32.247Z</time>
      </trkpt>
      <trkpt lat="64.93398" lon="21.22148">
        <ele>53.981263</ele>
        <time>2020-09-27T12:22:35.282Z</time>
      </trkpt>
      <trkpt lat="64.93389" lon="21.22166">
        <ele>53.4395</ele>
        <time>2020-09-27T12:22:38.255Z</time>
      </trkpt>
      <trkpt lat="64.93379" lon="21.22187">
        <ele>52.830854</ele>
        <time>2020-09-27T12:22:41.270Z</time>
      </trkpt>
      <trkpt lat="64.93372" lon="21.22201">
        <ele>52.420368</ele>
        <time>2020-09-27T12:22:43.260Z</time>
      </trkpt>
      <trkpt lat="64.93365" lon="21.22216">
        <ele>51.98913</ele>
        <time>2020-09-27T12:22:45.251Z</time>
      </trkpt>
      <trkpt lat="64.93357" lon="21.22231">
        <ele>51.530904</ele>
        <time>2020-09-27T12:22:47.252Z</time>
      </trkpt>
      <trkpt lat="64.9335" lon="21.22246">
        <ele>51.07529</ele>
        <time>2020-09-27T12:22:49.251Z</time>
      </trkpt>
      <trkpt lat="64.93342" lon="21.22261">
        <ele>50.610153</ele>
        <time>2020-09-27T12:22:51.258Z</time>
      </trkpt>
      <trkpt lat="64.93334" lon="21.22277">
        <ele>50.137731</ele>
        <time>2020-09-27T12:22:53.248Z</time>
      </trkpt>
      <trkpt lat="64.93326" lon="21.2229">
        <ele>49.703025</ele>
        <time>2020-09-27T12:22:55.246Z</time>
      </trkpt>
      <trkpt lat="64.93318" lon="21.22303">
        <ele>49.272029</ele>
        <time>2020-09-27T12:22:57.249Z</time>
      </trkpt>
      <trkpt lat="64.93311" lon="21.22316">
        <ele>48.844727</ele>
        <time>2020-09-27T12:22:59.252Z</time>
      </trkpt>
      <trkpt lat="64.93304" lon="21.22329">
        <ele>48.737364</ele>
        <time>2020-09-27T12:23:01.246Z</time>
      </trkpt>
      <trkpt lat="64.93297" lon="21.22343">
        <ele>48.698284</ele>
        <time>2020-09-27T12:23:03.288Z</time>
      </trkpt>
      <trkpt lat="64.93289" lon="21.22356">
        <ele>48.658757</ele>
        <time>2020-09-27T12:23:05.250Z</time>
      </trkpt>
      <trkpt lat="64.93282" lon="21.2237">
        <ele>48.616849</ele>
        <time>2020-09-27T12:23:07.246Z</time>
      </trkpt>
      <trkpt lat="64.93271" lon="21.22388">
        <ele>48.560697</ele>
        <time>2020-09-27T12:23:10.261Z</time>
      </trkpt>
      <trkpt lat="64.93261" lon="21.22404">
        <ele>48.507447</ele>
        <time>2020-09-27T12:23:13.262Z</time>
      </trkpt>
      <trkpt lat="64.93251" lon="21.22418">
        <ele>48.459075</ele>
        <time>2020-09-27T12:23:16.268Z</time>
      </trkpt>
      <trkpt lat="64.93242" lon="21.2243">
        <ele>48.412924</ele>
        <time>2020-09-27T12:23:19.253Z</time>
      </trkpt>
      <trkpt lat="64.93232" lon="21.2244">
        <ele>48.367693</ele>
        <time>2020-09-27T12:23:22.265Z</time>
      </trkpt>
      <trkpt lat="64.93223" lon="21.22448">
        <ele>48.326206</ele>
        <time>2020-09-27T12:23:25.261Z</time>
      </trkpt>
      <trkpt lat="64.93213" lon="21.22452">
        <ele>48.282518</ele>
        <time>2020-09-27T12:23:28.263Z</time>
      </trkpt>
      <trkpt lat="64.93202" lon="21.22449">
        <ele>48.232686</ele>
        <time>2020-09-27T12:23:32.264Z</time>
      </trkpt>
      <trkpt lat="64.9319" lon="21.22445">
        <ele>48.183776</ele>
        <time>2020-09-27T12:23:36.262Z</time>
      </trkpt>
      <trkpt lat="64.9318" lon="21.22437">
        <ele>48.134938</ele>
        <time>2020-09-27T12:23:40.306Z</time>
      </trkpt>
      <trkpt lat="64.93169" lon="21.22429">
        <ele>48.086742</ele>
        <time>2020-09-27T12:23:44.293Z</time>
      </trkpt>
      <trkpt lat="64.9316" lon="21.22421">
        <ele>48.046475</ele>
        <time>2020-09-27T12:23:47.258Z</time>
      </trkpt>
      <trkpt lat="64.93151" lon="21.22415">
        <ele>48.004719</ele>
        <time>2020-09-27T12:23:50.289Z</time>
      </trkpt>
      <trkpt lat="64.93142" lon="21.22408">
        <ele>48.168795</ele>
        <time>2020-09-27T12:23:53.252Z</time>
      </trkpt>
      <trkpt lat="64.93133" lon="21.224">
        <ele>48.398508</ele>
        <time>2020-09-27T12:23:56.290Z</time>
      </trkpt>
      <trkpt lat="64.93122" lon="21.22392">
        <ele>48.693492</ele>
        <time>2020-09-27T12:24:00.280Z</time>
      </trkpt>
      <trkpt lat="64.93113" lon="21.22387">
        <ele>48.921307</ele>
        <time>2020-09-27T12:24:03.263Z</time>
      </trkpt>
      <trkpt lat="64.93103" lon="21.22379">
        <ele>49.192991</ele>
        <time>2020-09-27T12:24:06.252Z</time>
      </trkpt>
      <trkpt lat="64.93093" lon="21.2237">
        <ele>49.466961</ele>
        <time>2020-09-27T12:24:09.266Z</time>
      </trkpt>
      <trkpt lat="64.93084" lon="21.22361">
        <ele>49.71217</ele>
        <time>2020-09-27T12:24:12.251Z</time>
      </trkpt>
      <trkpt lat="64.93074" lon="21.22354">
        <ele>49.962995</ele>
        <time>2020-09-27T12:24:15.261Z</time>
      </trkpt>
      <trkpt lat="64.93064" lon="21.22347">
        <ele>50.221452</ele>
        <time>2020-09-27T12:24:18.269Z</time>
      </trkpt>
      <trkpt lat="64.93053" lon="21.2234">
        <ele>50.503136</ele>
        <time>2020-09-27T12:24:21.282Z</time>
      </trkpt>
      <trkpt lat="64.93043" lon="21.22332">
        <ele>50.782295</ele>
        <time>2020-09-27T12:24:24.269Z</time>
      </trkpt>
      <trkpt lat="64.93033" lon="21.22325">
        <ele>51.039144</ele>
        <time>2020-09-27T12:24:27.271Z</time>
      </trkpt>
      <trkpt lat="64.93024" lon="21.22318">
        <ele>51.287419</ele>
        <time>2020-09-27T12:24:30.256Z</time>
      </trkpt>
      <trkpt lat="64.93014" lon="21.2231">
        <ele>51.540453</ele>
        <time>2020-09-27T12:24:33.258Z</time>
      </trkpt>
      <trkpt lat="64.93003" lon="21.22304">
        <ele>51.830653</ele>
        <time>2020-09-27T12:24:36.260Z</time>
      </trkpt>
      <trkpt lat="64.92992" lon="21.22298">
        <ele>52.103524</ele>
        <time>2020-09-27T12:24:39.251Z</time>
      </trkpt>
      <trkpt lat="64.92982" lon="21.22292">
        <ele>52.360429</ele>
        <time>2020-09-27T12:24:42.262Z</time>
      </trkpt>
      <trkpt lat="64.92972" lon="21.22283">
        <ele>52.668162</ele>
        <time>2020-09-27T12:24:45.250Z</time>
      </trkpt>
      <trkpt lat="64.92963" lon="21.22276">
        <ele>53.010189</ele>
        <time>2020-09-27T12:24:48.241Z</time>
      </trkpt>
      <trkpt lat="64.92953" lon="21.22269">
        <ele>53.362571</ele>
        <time>2020-09-27T12:24:51.244Z</time>
      </trkpt>
      <trkpt lat="64.92944" lon="21.22262">
        <ele>53.7008</ele>
        <time>2020-09-27T12:24:54.253Z</time>
      </trkpt>
      <trkpt lat="64.92935" lon="21.22254">
        <ele>54.025948</ele>
        <time>2020-09-27T12:24:57.255Z</time>
      </trkpt>
      <trkpt lat="64.92924" lon="21.22244">
        <ele>54.411889</ele>
        <time>2020-09-27T12:25:01.256Z</time>
      </trkpt>
      <trkpt lat="64.92915" lon="21.22236">
        <ele>54.749861</ele>
        <time>2020-09-27T12:25:05.268Z</time>
      </trkpt>
      <trkpt lat="64.92905" lon="21.22229">
        <ele>55.114922</ele>
        <time>2020-09-27T12:25:09.246Z</time>
      </trkpt>
      <trkpt lat="64.92894" lon="21.2222">
        <ele>55.516482</ele>
        <time>2020-09-27T12:25:13.251Z</time>
      </trkpt>
      <trkpt lat="64.92885" lon="21.22213">
        <ele>55.849815</ele>
        <time>2020-09-27T12:25:17.240Z</time>
      </trkpt>
      <trkpt lat="64.92876" lon="21.22205">
        <ele>56.183041</ele>
        <time>2020-09-27T12:25:21.247Z</time>
      </trkpt>
      <trkpt lat="64.92866" lon="21.22198">
        <ele>56.518959</ele>
        <time>2020-09-27T12:25:25.261Z</time>
      </trkpt>
      <trkpt lat="64.92857" lon="21.22192">
        <ele>56.852292</ele>
        <time>2020-09-27T12:25:29.253Z</time>
      </trkpt>
      <trkpt lat="64.92848" lon="21.22183">
        <ele>57.181898</ele>
        <time>2020-09-27T12:25:33.258Z</time>
      </trkpt>
      <trkpt lat="64.9284" lon="21.22173">
        <ele>57.507004</ele>
        <time>2020-09-27T12:25:37.273Z</time>
      </trkpt>
      <trkpt lat="64.9283" lon="21.22162">
        <ele>57.866166</ele>
        <time>2020-09-27T12:25:41.244Z</time>
      </trkpt>
      <trkpt lat="64.92821" lon="21.22149">
        <ele>58.233198</ele>
        <time>2020-09-27T12:25:45.243Z</time>
      </trkpt>
      <trkpt lat="64.92813" lon="21.22136">
        <ele>58.581648</ele>
        <time>2020-09-27T12:25:49.262Z</time>
      </trkpt>
      <trkpt lat="64.92804" lon="21.2212">
        <ele>58.790835</ele>
        <time>2020-09-27T12:25:53.297Z</time>
      </trkpt>
      <trkpt lat="64.92795" lon="21.22105">
        <ele>58.940201</ele>
        <time>2020-09-27T12:25:57.252Z</time>
      </trkpt>
      <trkpt lat="64.92785" lon="21.22089">
        <ele>59.094914</ele>
        <time>2020-09-27T12:26:01.254Z</time>
      </trkpt>
      <trkpt lat="64.92776" lon="21.22074">
        <ele>59.243613</ele>
        <time>2020-09-27T12:26:05.244Z</time>
      </trkpt>
      <trkpt lat="64.92768" lon="21.22058">
        <ele>59.390783</ele>
        <time>2020-09-27T12:26:09.250Z</time>
      </trkpt>
      <trkpt lat="64.92759" lon="21.22045">
        <ele>59.529134</ele>
        <time>2020-09-27T12:26:12.259Z</time>
      </trkpt>
      <trkpt lat="64.92751" lon="21.22031">
        <ele>59.665574</ele>
        <time>2020-09-27T12:26:15.258Z</time>
      </trkpt>
      <trkpt lat="64.92741" lon="21.22017">
        <ele>59.818375</ele>
        <time>2020-09-27T12:26:18.273Z</time>
      </trkpt>
      <trkpt lat="64.9273" lon="21.22001">
        <ele>59.990134</ele>
        <time>2020-09-27T12:26:21.254Z</time>
      </trkpt>
      <trkpt lat="64.92722" lon="21.2199">
        <ele>60.114569</ele>
        <time>2020-09-27T12:26:23.261Z</time>
      </trkpt>
      <trkpt lat="64.92713" lon="21.21977">
        <ele>60.253227</ele>
        <time>2020-09-27T12:26:25.286Z</time>
      </trkpt>
      <trkpt lat="64.92705" lon="21.21963">
        <ele>60.39537</ele>
        <time>2020-09-27T12:26:27.264Z</time>
      </trkpt>
      <trkpt lat="64.92696" lon="21.2195">
        <ele>60.529407</ele>
        <time>2020-09-27T12:26:29.294Z</time>
      </trkpt>
      <trkpt lat="64.92687" lon="21.21934">
        <ele>60.678033</ele>
        <time>2020-09-27T12:26:31.259Z</time>
      </trkpt>
      <trkpt lat="64.92678" lon="21.21918">
        <ele>60.830996</ele>
        <time>2020-09-27T12:26:33.287Z</time>
      </trkpt>
      <trkpt lat="64.92669" lon="21.21904">
        <ele>60.97948</ele>
        <time>2020-09-27T12:26:35.244Z</time>
      </trkpt>
      <trkpt lat="64.9266" lon="21.21888">
        <ele>60.971552</ele>
        <time>2020-09-27T12:26:37.265Z</time>
      </trkpt>
      <trkpt lat="64.92652" lon="21.21874">
        <ele>60.413106</ele>
        <time>2020-09-27T12:26:39.259Z</time>
      </trkpt>
      <trkpt lat="64.92643" lon="21.21859">
        <ele>59.851124</ele>
        <time>2020-09-27T12:26:41.266Z</time>
      </trkpt>
      <trkpt lat="64.92633" lon="21.21844">
        <ele>59.238833</ele>
        <time>2020-09-27T12:26:43.254Z</time>
      </trkpt>
      <trkpt lat="64.92623" lon="21.21829">
        <ele>58.63694</ele>
        <time>2020-09-27T12:26:45.302Z</time>
      </trkpt>
      <trkpt lat="64.92614" lon="21.21814">
        <ele>58.057161</ele>
        <time>2020-09-27T12:26:47.253Z</time>
      </trkpt>
      <trkpt lat="64.92604" lon="21.21799">
        <ele>57.462418</ele>
        <time>2020-09-27T12:26:49.244Z</time>
      </trkpt>
      <trkpt lat="64.92594" lon="21.21786">
        <ele>56.860923</ele>
        <time>2020-09-27T12:26:51.265Z</time>
      </trkpt>
      <trkpt lat="64.92584" lon="21.21775">
        <ele>56.273498</ele>
        <time>2020-09-27T12:26:53.254Z</time>
      </trkpt>
      <trkpt lat="64.92572" lon="21.21763">
        <ele>55.637296</ele>
        <time>2020-09-27T12:26:55.253Z</time>
      </trkpt>
      <trkpt lat="64.92561" lon="21.21752">
        <ele>54.9777</ele>
        <time>2020-09-27T12:26:57.258Z</time>
      </trkpt>
      <trkpt lat="64.92549" lon="21.21744">
        <ele>54.33681</ele>
        <time>2020-09-27T12:26:59.258Z</time>
      </trkpt>
      <trkpt lat="64.92536" lon="21.21737">
        <ele>53.668767</ele>
        <time>2020-09-27T12:27:01.261Z</time>
      </trkpt>
      <trkpt lat="64.92523" lon="21.21731">
        <ele>52.962732</ele>
        <time>2020-09-27T12:27:03.248Z</time>
      </trkpt>
      <trkpt lat="64.92509" lon="21.21725">
        <ele>52.241416</ele>
        <time>2020-09-27T12:27:05.273Z</time>
      </trkpt>
      <trkpt lat="64.92495" lon="21.2172">
        <ele>51.492871</ele>
        <time>2020-09-27T12:27:07.253Z</time>
      </trkpt>
      <trkpt lat="64.92482" lon="21.21719">
        <ele>50.701828</ele>
        <time>2020-09-27T12:27:09.258Z</time>
      </trkpt>
      <trkpt lat="64.92468" lon="21.21718">
        <ele>49.905618</ele>
        <time>2020-09-27T12:27:11.259Z</time>
      </trkpt>
      <trkpt lat="64.92454" lon="21.21719">
        <ele>49.097796</ele>
        <time>2020-09-27T12:27:13.244Z</time>
      </trkpt>
      <trkpt lat="64.92441" lon="21.21721">
        <ele>48.282388</ele>
        <time>2020-09-27T12:27:15.262Z</time>
      </trkpt>
      <trkpt lat="64.92426" lon="21.21724">
        <ele>47.429986</ele>
        <time>2020-09-27T12:27:17.249Z</time>
      </trkpt>
      <trkpt lat="64.92412" lon="21.21728">
        <ele>46.581886</ele>
        <time>2020-09-27T12:27:19.294Z</time>
      </trkpt>
      <trkpt lat="64.92398" lon="21.21734">
        <ele>45.770187</ele>
        <time>2020-09-27T12:27:21.279Z</time>
      </trkpt>
      <trkpt lat="64.92386" lon="21.21743">
        <ele>45.015083</ele>
        <time>2020-09-27T12:27:23.244Z</time>
      </trkpt>
      <trkpt lat="64.92373" lon="21.21754">
        <ele>44.252401</ele>
        <time>2020-09-27T12:27:25.260Z</time>
      </trkpt>
      <trkpt lat="64.9236" lon="21.21763">
        <ele>43.424949</ele>
        <time>2020-09-27T12:27:27.262Z</time>
      </trkpt>
      <trkpt lat="64.92347" lon="21.21773">
        <ele>42.646628</ele>
        <time>2020-09-27T12:27:29.254Z</time>
      </trkpt>
      <trkpt lat="64.92334" lon="21.21783">
        <ele>41.820971</ele>
        <time>2020-09-27T12:27:31.259Z</time>
      </trkpt>
      <trkpt lat="64.9232" lon="21.21794">
        <ele>41.124221</ele>
        <time>2020-09-27T12:27:33.268Z</time>
      </trkpt>
      <trkpt lat="64.92307" lon="21.21805">
        <ele>40.741731</ele>
        <time>2020-09-27T12:27:35.269Z</time>
      </trkpt>
      <trkpt lat="64.92293" lon="21.21816">
        <ele>40.368672</ele>
        <time>2020-09-27T12:27:37.280Z</time>
      </trkpt>
      <trkpt lat="64.92281" lon="21.21826">
        <ele>40.013691</ele>
        <time>2020-09-27T12:27:39.241Z</time>
      </trkpt>
      <trkpt lat="64.92268" lon="21.21837">
        <ele>39.6503</ele>
        <time>2020-09-27T12:27:41.280Z</time>
      </trkpt>
      <trkpt lat="64.92256" lon="21.21848">
        <ele>39.302138</ele>
        <time>2020-09-27T12:27:43.306Z</time>
      </trkpt>
      <trkpt lat="64.92243" lon="21.21858">
        <ele>38.955095</ele>
        <time>2020-09-27T12:27:45.260Z</time>
      </trkpt>
      <trkpt lat="64.92231" lon="21.21867">
        <ele>38.614451</ele>
        <time>2020-09-27T12:27:47.243Z</time>
      </trkpt>
      <trkpt lat="64.9222" lon="21.21875">
        <ele>38.295526</ele>
        <time>2020-09-27T12:27:49.293Z</time>
      </trkpt>
      <trkpt lat="64.92208" lon="21.21884">
        <ele>37.964013</ele>
        <time>2020-09-27T12:27:51.247Z</time>
      </trkpt>
      <trkpt lat="64.92196" lon="21.21894">
        <ele>37.615171</ele>
        <time>2020-09-27T12:27:53.246Z</time>
      </trkpt>
      <trkpt lat="64.92184" lon="21.21905">
        <ele>37.281252</ele>
        <time>2020-09-27T12:27:55.261Z</time>
      </trkpt>
      <trkpt lat="64.92173" lon="21.21917">
        <ele>36.951402</ele>
        <time>2020-09-27T12:27:57.247Z</time>
      </trkpt>
      <trkpt lat="64.92162" lon="21.21926">
        <ele>36.636807</ele>
        <time>2020-09-27T12:27:59.270Z</time>
      </trkpt>
      <trkpt lat="64.92151" lon="21.21934">
        <ele>36.426878</ele>
        <time>2020-09-27T12:28:01.253Z</time>
      </trkpt>
      <trkpt lat="64.9214" lon="21.21944">
        <ele>36.362499</ele>
        <time>2020-09-27T12:28:03.267Z</time>
      </trkpt>
      <trkpt lat="64.9213" lon="21.21952">
        <ele>36.299955</ele>
        <time>2020-09-27T12:28:05.289Z</time>
      </trkpt>
      <trkpt lat="64.92119" lon="21.21963">
        <ele>36.233009</ele>
        <time>2020-09-27T12:28:07.263Z</time>
      </trkpt>
      <trkpt lat="64.92108" lon="21.21972">
        <ele>36.17045</ele>
        <time>2020-09-27T12:28:09.262Z</time>
      </trkpt>
      <trkpt lat="64.92098" lon="21.2198">
        <ele>36.107191</ele>
        <time>2020-09-27T12:28:11.282Z</time>
      </trkpt>
      <trkpt lat="64.92087" lon="21.21989">
        <ele>36.045326</ele>
        <time>2020-09-27T12:28:13.252Z</time>
      </trkpt>
      <trkpt lat="64.92077" lon="21.21997">
        <ele>35.984926</ele>
        <time>2020-09-27T12:28:15.252Z</time>
      </trkpt>
      <trkpt lat="64.92066" lon="21.22004">
        <ele>35.920787</ele>
        <time>2020-09-27T12:28:17.245Z</time>
      </trkpt>
      <trkpt lat="64.92056" lon="21.22012">
        <ele>35.856917</ele>
        <time>2020-09-27T12:28:19.256Z</time>
      </trkpt>
      <trkpt lat="64.92045" lon="21.2202">
        <ele>35.795962</ele>
        <time>2020-09-27T12:28:21.257Z</time>
      </trkpt>
      <trkpt lat="64.92036" lon="21.22026">
        <ele>35.73996</ele>
        <time>2020-09-27T12:28:23.287Z</time>
      </trkpt>
      <trkpt lat="64.92026" lon="21.22033">
        <ele>35.684026</ele>
        <time>2020-09-27T12:28:25.287Z</time>
      </trkpt>
      <trkpt lat="64.92016" lon="21.22041">
        <ele>35.622781</ele>
        <time>2020-09-27T12:28:27.250Z</time>
      </trkpt>
      <trkpt lat="64.92006" lon="21.22048">
        <ele>35.563222</ele>
        <time>2020-09-27T12:28:29.253Z</time>
      </trkpt>
      <trkpt lat="64.91995" lon="21.22058">
        <ele>35.496731</ele>
        <time>2020-09-27T12:28:31.271Z</time>
      </trkpt>
      <trkpt lat="64.91984" lon="21.22069">
        <ele>35.445962</ele>
        <time>2020-09-27T12:28:33.251Z</time>
      </trkpt>
      <trkpt lat="64.9197" lon="21.22079">
        <ele>35.576525</ele>
        <time>2020-09-27T12:28:35.291Z</time>
      </trkpt>
      <trkpt lat="64.91956" lon="21.22093">
        <ele>35.72682</ele>
        <time>2020-09-27T12:28:37.279Z</time>
      </trkpt>
      <trkpt lat="64.91942" lon="21.22106">
        <ele>35.866595</ele>
        <time>2020-09-27T12:28:39.258Z</time>
      </trkpt>
      <trkpt lat="64.9193" lon="21.22116">
        <ele>35.990896</ele>
        <time>2020-09-27T12:28:41.249Z</time>
      </trkpt>
      <trkpt lat="64.91918" lon="21.22126">
        <ele>36.106395</ele>
        <time>2020-09-27T12:28:43.275Z</time>
      </trkpt>
      <trkpt lat="64.91907" lon="21.22131">
        <ele>36.208545</ele>
        <time>2020-09-27T12:28:45.250Z</time>
      </trkpt>
      <trkpt lat="64.91898" lon="21.22125">
        <ele>36.298602</ele>
        <time>2020-09-27T12:28:47.272Z</time>
      </trkpt>
      <trkpt lat="64.91893" lon="21.22105">
        <ele>36.393805</ele>
        <time>2020-09-27T12:28:49.249Z</time>
      </trkpt>
      <trkpt lat="64.9189" lon="21.22082">
        <ele>36.490919</ele>
        <time>2020-09-27T12:28:51.279Z</time>
      </trkpt>
      <trkpt lat="64.91886" lon="21.2206">
        <ele>36.583821</ele>
        <time>2020-09-27T12:28:53.255Z</time>
      </trkpt>
      <trkpt lat="64.91882" lon="21.2204">
        <ele>36.671954</ele>
        <time>2020-09-27T12:28:55.249Z</time>
      </trkpt>
      <trkpt lat="64.91877" lon="21.22014">
        <ele>36.788593</ele>
        <time>2020-09-27T12:28:58.263Z</time>
      </trkpt>
      <trkpt lat="64.91872" lon="21.21992">
        <ele>36.887372</ele>
        <time>2020-09-27T12:29:01.267Z</time>
      </trkpt>
      <trkpt lat="64.91866" lon="21.21968">
        <ele>36.999291</ele>
        <time>2020-09-27T12:29:05.252Z</time>
      </trkpt>
      <trkpt lat="64.9186" lon="21.21948">
        <ele>37.09683</ele>
        <time>2020-09-27T12:29:09.248Z</time>
      </trkpt>
      <trkpt lat="64.91854" lon="21.2193">
        <ele>37.242138</ele>
        <time>2020-09-27T12:29:13.283Z</time>
      </trkpt>
      <trkpt lat="64.91847" lon="21.21918">
        <ele>37.417876</ele>
        <time>2020-09-27T12:29:17.263Z</time>
      </trkpt>
      <trkpt lat="64.91838" lon="21.21908">
        <ele>37.607012</ele>
        <time>2020-09-27T12:29:21.298Z</time>
      </trkpt>
      <trkpt lat="64.91829" lon="21.21901">
        <ele>37.78625</ele>
        <time>2020-09-27T12:29:25.304Z</time>
      </trkpt>
      <trkpt lat="64.9182" lon="21.21898">
        <ele>37.959949</ele>
        <time>2020-09-27T12:29:29.289Z</time>
      </trkpt>
      <trkpt lat="64.9181" lon="21.21893">
        <ele>38.142763</ele>
        <time>2020-09-27T12:29:33.262Z</time>
      </trkpt>
      <trkpt lat="64.91801" lon="21.21889">
        <ele>38.323388</ele>
        <time>2020-09-27T12:29:37.255Z</time>
      </trkpt>
      <trkpt lat="64.91791" lon="21.21883">
        <ele>38.522126</ele>
        <time>2020-09-27T12:29:41.265Z</time>
      </trkpt>
      <trkpt lat="64.91781" lon="21.21879">
        <ele>38.722293</ele>
        <time>2020-09-27T12:29:45.271Z</time>
      </trkpt>
      <trkpt lat="64.91769" lon="21.21875">
        <ele>38.949789</ele>
        <time>2020-09-27T12:29:49.244Z</time>
      </trkpt>
      <trkpt lat="64.9176" lon="21.21872">
        <ele>39.128428</ele>
        <time>2020-09-27T12:29:52.267Z</time>
      </trkpt>
      <trkpt lat="64.9175" lon="21.2187">
        <ele>39.30214</ele>
        <time>2020-09-27T12:29:55.282Z</time>
      </trkpt>
      <trkpt lat="64.91741" lon="21.21866">
        <ele>39.493689</ele>
        <time>2020-09-27T12:29:58.246Z</time>
      </trkpt>
      <trkpt lat="64.9173" lon="21.21862">
        <ele>39.691004</ele>
        <time>2020-09-27T12:30:01.273Z</time>
      </trkpt>
      <trkpt lat="64.9172" lon="21.21857">
        <ele>39.895149</ele>
        <time>2020-09-27T12:30:04.243Z</time>
      </trkpt>
      <trkpt lat="64.91709" lon="21.21848">
        <ele>40.117383</ele>
        <time>2020-09-27T12:30:07.279Z</time>
      </trkpt>
      <trkpt lat="64.91698" lon="21.21838">
        <ele>40.337761</ele>
        <time>2020-09-27T12:30:10.261Z</time>
      </trkpt>
      <trkpt lat="64.91687" lon="21.21823">
        <ele>40.625061</ele>
        <time>2020-09-27T12:30:13.287Z</time>
      </trkpt>
      <trkpt lat="64.91675" lon="21.21808">
        <ele>41.296728</ele>
        <time>2020-09-27T12:30:16.281Z</time>
      </trkpt>
      <trkpt lat="64.91667" lon="21.21797">
        <ele>41.778315</ele>
        <time>2020-09-27T12:30:18.267Z</time>
      </trkpt>
      <trkpt lat="64.91659" lon="21.21785">
        <ele>42.259821</ele>
        <time>2020-09-27T12:30:20.301Z</time>
      </trkpt>
      <trkpt lat="64.9165" lon="21.21775">
        <ele>42.739762</ele>
        <time>2020-09-27T12:30:22.282Z</time>
      </trkpt>
      <trkpt lat="64.91642" lon="21.21766">
        <ele>43.216596</ele>
        <time>2020-09-27T12:30:24.255Z</time>
      </trkpt>
      <trkpt lat="64.91633" lon="21.21756">
        <ele>43.696226</ele>
        <time>2020-09-27T12:30:26.239Z</time>
      </trkpt>
      <trkpt lat="64.91626" lon="21.21745">
        <ele>44.15483</ele>
        <time>2020-09-27T12:30:28.239Z</time>
      </trkpt>
      <trkpt lat="64.91615" lon="21.21732">
        <ele>44.747043</ele>
        <time>2020-09-27T12:30:31.308Z</time>
      </trkpt>
      <trkpt lat="64.91606" lon="21.21722">
        <ele>45.273164</ele>
        <time>2020-09-27T12:30:34.306Z</time>
      </trkpt>
      <trkpt lat="64.91596" lon="21.21711">
        <ele>45.809668</ele>
        <time>2020-09-27T12:30:37.247Z</time>
      </trkpt>
      <trkpt lat="64.91588" lon="21.21699">
        <ele>46.331546</ele>
        <time>2020-09-27T12:30:40.264Z</time>
      </trkpt>
      <trkpt lat="64.91579" lon="21.21686">
        <ele>46.85908</ele>
        <time>2020-09-27T12:30:43.292Z</time>
      </trkpt>
      <trkpt lat="64.91569" lon="21.21672">
        <ele>47.412675</ele>
        <time>2020-09-27T12:30:46.258Z</time>
      </trkpt>
      <trkpt lat="64.91559" lon="21.2166">
        <ele>48.00893</ele>
        <time>2020-09-27T12:30:49.265Z</time>
      </trkpt>
      <trkpt lat="64.9155" lon="21.21648">
        <ele>48.50695</ele>
        <time>2020-09-27T12:30:52.251Z</time>
      </trkpt>
      <trkpt lat="64.91541" lon="21.21636">
        <ele>49.048804</ele>
        <time>2020-09-27T12:30:56.286Z</time>
      </trkpt>
      <trkpt lat="64.91531" lon="21.21624">
        <ele>49.607854</ele>
        <time>2020-09-27T12:31:00.287Z</time>
      </trkpt>
      <trkpt lat="64.91521" lon="21.2161">
        <ele>49.723425</ele>
        <time>2020-09-27T12:31:04.250Z</time>
      </trkpt>
      <trkpt lat="64.91512" lon="21.216">
        <ele>49.767623</ele>
        <time>2020-09-27T12:31:07.262Z</time>
      </trkpt>
      <trkpt lat="64.91502" lon="21.21589">
        <ele>49.818578</ele>
        <time>2020-09-27T12:31:10.309Z</time>
      </trkpt>
      <trkpt lat="64.91491" lon="21.21575">
        <ele>49.877689</ele>
        <time>2020-09-27T12:31:13.334Z</time>
      </trkpt>
      <trkpt lat="64.91482" lon="21.21564">
        <ele>49.922061</ele>
        <time>2020-09-27T12:31:15.299Z</time>
      </trkpt>
      <trkpt lat="64.91473" lon="21.21552">
        <ele>49.972798</ele>
        <time>2020-09-27T12:31:17.253Z</time>
      </trkpt>
      <trkpt lat="64.91461" lon="21.21536">
        <ele>50.033258</ele>
        <time>2020-09-27T12:31:19.244Z</time>
      </trkpt>
      <trkpt lat="64.91448" lon="21.2152">
        <ele>50.101714</ele>
        <time>2020-09-27T12:31:21.250Z</time>
      </trkpt>
      <trkpt lat="64.91434" lon="21.21503">
        <ele>50.175386</ele>
        <time>2020-09-27T12:31:23.279Z</time>
      </trkpt>
      <trkpt lat="64.91419" lon="21.21484">
        <ele>50.254002</ele>
        <time>2020-09-27T12:31:25.255Z</time>
      </trkpt>
      <trkpt lat="64.91404" lon="21.21465">
        <ele>50.331395</ele>
        <time>2020-09-27T12:31:27.257Z</time>
      </trkpt>
      <trkpt lat="64.91391" lon="21.21449">
        <ele>50.398718</ele>
        <time>2020-09-27T12:31:29.254Z</time>
      </trkpt>
      <trkpt lat="64.9138" lon="21.21436">
        <ele>50.457375</ele>
        <time>2020-09-27T12:31:31.256Z</time>
      </trkpt>
      <trkpt lat="64.91369" lon="21.21423">
        <ele>50.595709</ele>
        <time>2020-09-27T12:31:33.313Z</time>
      </trkpt>
      <trkpt lat="64.9136" lon="21.21411">
        <ele>51.127488</ele>
        <time>2020-09-27T12:31:35.270Z</time>
      </trkpt>
      <trkpt lat="64.91351" lon="21.214">
        <ele>51.594758</ele>
        <time>2020-09-27T12:31:37.258Z</time>
      </trkpt>
      <trkpt lat="64.91342" lon="21.21391">
        <ele>52.092114</ele>
        <time>2020-09-27T12:31:40.253Z</time>
      </trkpt>
      <trkpt lat="64.91333" lon="21.21382">
        <ele>52.567927</ele>
        <time>2020-09-27T12:31:44.274Z</time>
      </trkpt>
      <trkpt lat="64.91323" lon="21.21371">
        <ele>53.118522</ele>
        <time>2020-09-27T12:31:49.262Z</time>
      </trkpt>
      <trkpt lat="64.91315" lon="21.21359">
        <ele>53.60538</ele>
        <time>2020-09-27T12:31:53.249Z</time>
      </trkpt>
      <trkpt lat="64.91306" lon="21.21347">
        <ele>54.085872</ele>
        <time>2020-09-27T12:31:57.246Z</time>
      </trkpt>
      <trkpt lat="64.91297" lon="21.21336">
        <ele>54.612772</ele>
        <time>2020-09-27T12:32:02.247Z</time>
      </trkpt>
      <trkpt lat="64.91288" lon="21.21324">
        <ele>55.117929</ele>
        <time>2020-09-27T12:32:07.251Z</time>
      </trkpt>
      <trkpt lat="64.9128" lon="21.21313">
        <ele>55.578293</ele>
        <time>2020-09-27T12:32:12.260Z</time>
      </trkpt>
      <trkpt lat="64.91271" lon="21.21302">
        <ele>56.06982</ele>
        <time>2020-09-27T12:32:18.266Z</time>
      </trkpt>
      <trkpt lat="64.91262" lon="21.21288">
        <ele>56.575724</ele>
        <time>2020-09-27T12:32:23.271Z</time>
      </trkpt>
      <trkpt lat="64.91254" lon="21.21276">
        <ele>57.060519</ele>
        <time>2020-09-27T12:32:28.267Z</time>
      </trkpt>
      <trkpt lat="64.91245" lon="21.21263">
        <ele>57.598388</ele>
        <time>2020-09-27T12:32:33.267Z</time>
      </trkpt>
      <trkpt lat="64.91236" lon="21.21248">
        <ele>58.10589</ele>
        <time>2020-09-27T12:32:38.276Z</time>
      </trkpt>
      <trkpt lat="64.91229" lon="21.21235">
        <ele>58.572302</ele>
        <time>2020-09-27T12:32:43.266Z</time>
      </trkpt>
      <trkpt lat="64.91221" lon="21.21224">
        <ele>59.021203</ele>
        <time>2020-09-27T12:32:47.249Z</time>
      </trkpt>
      <trkpt lat="64.91214" lon="21.2121">
        <ele>59.380823</ele>
        <time>2020-09-27T12:32:51.270Z</time>
      </trkpt>
      <trkpt lat="64.91206" lon="21.21194">
        <ele>59.453152</ele>
        <time>2020-09-27T12:32:55.244Z</time>
      </trkpt>
      <trkpt lat="64.91197" lon="21.21181">
        <ele>59.533636</ele>
        <time>2020-09-27T12:32:59.258Z</time>
      </trkpt>
      <trkpt lat="64.91188" lon="21.21162">
        <ele>59.619644</ele>
        <time>2020-09-27T12:33:03.253Z</time>
      </trkpt>
      <trkpt lat="64.91179" lon="21.21145">
        <ele>59.705842</ele>
        <time>2020-09-27T12:33:07.264Z</time>
      </trkpt>
      <trkpt lat="64.9117" lon="21.21128">
        <ele>59.793002</ele>
        <time>2020-09-27T12:33:11.249Z</time>
      </trkpt>
      <trkpt lat="64.91161" lon="21.21113">
        <ele>59.873637</ele>
        <time>2020-09-27T12:33:15.250Z</time>
      </trkpt>
      <trkpt lat="64.91154" lon="21.211">
        <ele>59.939264</ele>
        <time>2020-09-27T12:33:18.250Z</time>
      </trkpt>
      <trkpt lat="64.91147" lon="21.21085">
        <ele>60.006502</ele>
        <time>2020-09-27T12:33:21.287Z</time>
      </trkpt>
      <trkpt lat="64.9114" lon="21.21071">
        <ele>60.072982</ele>
        <time>2020-09-27T12:33:24.294Z</time>
      </trkpt>
      <trkpt lat="64.91131" lon="21.21053">
        <ele>60.159986</ele>
        <time>2020-09-27T12:33:28.267Z</time>
      </trkpt>
      <trkpt lat="64.91122" lon="21.21036">
        <ele>60.245806</ele>
        <time>2020-09-27T12:33:32.272Z</time>
      </trkpt>
      <trkpt lat="64.91115" lon="21.21021">
        <ele>60.316136</ele>
        <time>2020-09-27T12:33:35.248Z</time>
      </trkpt>
      <trkpt lat="64.91106" lon="21.21003">
        <ele>60.399137</ele>
        <time>2020-09-27T12:33:39.273Z</time>
      </trkpt>
      <trkpt lat="64.91099" lon="21.2099">
        <ele>60.467848</ele>
        <time>2020-09-27T12:33:42.270Z</time>
      </trkpt>
      <trkpt lat="64.91091" lon="21.20976">
        <ele>60.537692</ele>
        <time>2020-09-27T12:33:45.251Z</time>
      </trkpt>
      <trkpt lat="64.91083" lon="21.20962">
        <ele>60.614717</ele>
        <time>2020-09-27T12:33:48.244Z</time>
      </trkpt>
      <trkpt lat="64.91073" lon="21.20946">
        <ele>60.526878</ele>
        <time>2020-09-27T12:33:51.255Z</time>
      </trkpt>
      <trkpt lat="64.91062" lon="21.20931">
        <ele>59.587077</ele>
        <time>2020-09-27T12:33:54.249Z</time>
      </trkpt>
      <trkpt lat="64.9105" lon="21.20916">
        <ele>58.625008</ele>
        <time>2020-09-27T12:33:57.251Z</time>
      </trkpt>
      <trkpt lat="64.91042" lon="21.20907">
        <ele>57.958501</ele>
        <time>2020-09-27T12:33:59.294Z</time>
      </trkpt>
      <trkpt lat="64.91033" lon="21.20898">
        <ele>57.213303</ele>
        <time>2020-09-27T12:34:01.247Z</time>
      </trkpt>
      <trkpt lat="64.91021" lon="21.20887">
        <ele>56.318927</ele>
        <time>2020-09-27T12:34:03.273Z</time>
      </trkpt>
      <trkpt lat="64.91008" lon="21.20877">
        <ele>55.301692</ele>
        <time>2020-09-27T12:34:05.247Z</time>
      </trkpt>
      <trkpt lat="64.90993" lon="21.20867">
        <ele>54.183379</ele>
        <time>2020-09-27T12:34:07.258Z</time>
      </trkpt>
      <trkpt lat="64.90977" lon="21.20856">
        <ele>53.033062</ele>
        <time>2020-09-27T12:34:09.290Z</time>
      </trkpt>
      <trkpt lat="64.90963" lon="21.20847">
        <ele>51.983944</ele>
        <time>2020-09-27T12:34:11.255Z</time>
      </trkpt>
      <trkpt lat="64.90951" lon="21.2084">
        <ele>51.039597</ele>
        <time>2020-09-27T12:34:13.274Z</time>
      </trkpt>
      <trkpt lat="64.90939" lon="21.20832">
        <ele>50.192359</ele>
        <time>2020-09-27T12:34:15.262Z</time>
      </trkpt>
      <trkpt lat="64.90929" lon="21.20826">
        <ele>49.401117</ele>
        <time>2020-09-27T12:34:17.279Z</time>
      </trkpt>
      <trkpt lat="64.90919" lon="21.20819">
        <ele>48.636187</ele>
        <time>2020-09-27T12:34:19.262Z</time>
      </trkpt>
      <trkpt lat="64.90909" lon="21.20813">
        <ele>47.89619</ele>
        <time>2020-09-27T12:34:21.253Z</time>
      </trkpt>
      <trkpt lat="64.90899" lon="21.20807">
        <ele>47.344185</ele>
        <time>2020-09-27T12:34:23.287Z</time>
      </trkpt>
      <trkpt lat="64.90889" lon="21.20802">
        <ele>46.875468</ele>
        <time>2020-09-27T12:34:25.312Z</time>
      </trkpt>
      <trkpt lat="64.9088" lon="21.20796">
        <ele>46.408446</ele>
        <time>2020-09-27T12:34:27.283Z</time>
      </trkpt>
      <trkpt lat="64.9087" lon="21.20789">
        <ele>45.906153</ele>
        <time>2020-09-27T12:34:29.270Z</time>
      </trkpt>
      <trkpt lat="64.90859" lon="21.20782">
        <ele>45.402249</ele>
        <time>2020-09-27T12:34:31.263Z</time>
      </trkpt>
      <trkpt lat="64.90849" lon="21.20775">
        <ele>44.883523</ele>
        <time>2020-09-27T12:34:33.262Z</time>
      </trkpt>
      <trkpt lat="64.90837" lon="21.20768">
        <ele>44.318396</ele>
        <time>2020-09-27T12:34:35.267Z</time>
      </trkpt>
      <trkpt lat="64.90826" lon="21.20761">
        <ele>43.733851</ele>
        <time>2020-09-27T12:34:37.256Z</time>
      </trkpt>
      <trkpt lat="64.90813" lon="21.20752">
        <ele>43.112528</ele>
        <time>2020-09-27T12:34:39.297Z</time>
      </trkpt>
      <trkpt lat="64.908" lon="21.20742">
        <ele>42.44557</ele>
        <time>2020-09-27T12:34:41.270Z</time>
      </trkpt>
      <trkpt lat="64.90785" lon="21.20733">
        <ele>41.725019</ele>
        <time>2020-09-27T12:34:43.265Z</time>
      </trkpt>
      <trkpt lat="64.90769" lon="21.20722">
        <ele>40.927904</ele>
        <time>2020-09-27T12:34:45.283Z</time>
      </trkpt>
      <trkpt lat="64.90752" lon="21.20712">
        <ele>40.09809</ele>
        <time>2020-09-27T12:34:47.248Z</time>
      </trkpt>
      <trkpt lat="64.90735" lon="21.20702">
        <ele>39.283595</ele>
        <time>2020-09-27T12:34:49.253Z</time>
      </trkpt>
      <trkpt lat="64.9072" lon="21.20692">
        <ele>38.971711</ele>
        <time>2020-09-27T12:34:51.272Z</time>
      </trkpt>
      <trkpt lat="64.90705" lon="21.20683">
        <ele>38.779489</ele>
        <time>2020-09-27T12:34:53.262Z</time>
      </trkpt>
      <trkpt lat="64.9069" lon="21.20675">
        <ele>38.592888</ele>
        <time>2020-09-27T12:34:55.267Z</time>
      </trkpt>
      <trkpt lat="64.90676" lon="21.20666">
        <ele>38.404306</ele>
        <time>2020-09-27T12:34:57.254Z</time>
      </trkpt>
      <trkpt lat="64.90662" lon="21.20656">
        <ele>38.230398</ele>
        <time>2020-09-27T12:34:59.277Z</time>
      </trkpt>
      <trkpt lat="64.90648" lon="21.20647">
        <ele>38.048992</ele>
        <time>2020-09-27T12:35:01.258Z</time>
      </trkpt>
      <trkpt lat="64.90636" lon="21.20639">
        <ele>37.887315</ele>
        <time>2020-09-27T12:35:03.261Z</time>
      </trkpt>
      <trkpt lat="64.90625" lon="21.20632">
        <ele>37.743525</ele>
        <time>2020-09-27T12:35:05.256Z</time>
      </trkpt>
      <trkpt lat="64.90615" lon="21.20627">
        <ele>37.612702</ele>
        <time>2020-09-27T12:35:07.248Z</time>
      </trkpt>
      <trkpt lat="64.90605" lon="21.20621">
        <ele>37.487729</ele>
        <time>2020-09-27T12:35:09.257Z</time>
      </trkpt>
      <trkpt lat="64.90595" lon="21.20615">
        <ele>37.359942</ele>
        <time>2020-09-27T12:35:11.271Z</time>
      </trkpt>
      <trkpt lat="64.90583" lon="21.20607">
        <ele>37.20899</ele>
        <time>2020-09-27T12:35:13.261Z</time>
      </trkpt>
      <trkpt lat="64.90571" lon="21.20599">
        <ele>37.05219</ele>
        <time>2020-09-27T12:35:15.274Z</time>
      </trkpt>
      <trkpt lat="64.9056" lon="21.20591">
        <ele>36.90184</ele>
        <time>2020-09-27T12:35:17.257Z</time>
      </trkpt>
      <trkpt lat="64.90549" lon="21.20584">
        <ele>37.127848</ele>
        <time>2020-09-27T12:35:19.268Z</time>
      </trkpt>
      <trkpt lat="64.90538" lon="21.20576">
        <ele>37.385076</ele>
        <time>2020-09-27T12:35:21.260Z</time>
      </trkpt>
      <trkpt lat="64.90527" lon="21.20568">
        <ele>37.642371</ele>
        <time>2020-09-27T12:35:23.263Z</time>
      </trkpt>
      <trkpt lat="64.90516" lon="21.20561">
        <ele>37.904809</ele>
        <time>2020-09-27T12:35:25.269Z</time>
      </trkpt>
      <trkpt lat="64.90505" lon="21.20552">
        <ele>38.162705</ele>
        <time>2020-09-27T12:35:27.264Z</time>
      </trkpt>
      <trkpt lat="64.90495" lon="21.20543">
        <ele>38.425616</ele>
        <time>2020-09-27T12:35:29.257Z</time>
      </trkpt>
      <trkpt lat="64.90484" lon="21.20534">
        <ele>38.68381</ele>
        <time>2020-09-27T12:35:31.242Z</time>
      </trkpt>
      <trkpt lat="64.90474" lon="21.20524">
        <ele>38.938473</ele>
        <time>2020-09-27T12:35:33.270Z</time>
      </trkpt>
      <trkpt lat="64.90464" lon="21.20514">
        <ele>39.193875</ele>
        <time>2020-09-27T12:35:35.266Z</time>
      </trkpt>
      <trkpt lat="64.90453" lon="21.20503">
        <ele>39.45041</ele>
        <time>2020-09-27T12:35:37.274Z</time>
      </trkpt>
      <trkpt lat="64.90443" lon="21.20492">
        <ele>39.702661</ele>
        <time>2020-09-27T12:35:39.245Z</time>
      </trkpt>
      <trkpt lat="64.90434" lon="21.20481">
        <ele>39.932997</ele>
        <time>2020-09-27T12:35:41.254Z</time>
      </trkpt>
      <trkpt lat="64.90426" lon="21.2047">
        <ele>40.155463</ele>
        <time>2020-09-27T12:35:43.268Z</time>
      </trkpt>
      <trkpt lat="64.90417" lon="21.20457">
        <ele>40.402503</ele>
        <time>2020-09-27T12:35:46.294Z</time>
      </trkpt>
      <trkpt lat="64.90409" lon="21.20445">
        <ele>40.612464</ele>
        <time>2020-09-27T12:35:49.245Z</time>
      </trkpt>
      <trkpt lat="64.90401" lon="21.20433">
        <ele>40.818362</ele>
        <time>2020-09-27T12:35:52.254Z</time>
      </trkpt>
      <trkpt lat="64.90393" lon="21.2042">
        <ele>41.083084</ele>
        <time>2020-09-27T12:35:55.262Z</time>
      </trkpt>
      <trkpt lat="64.90384" lon="21.20405">
        <ele>41.565971</ele>
        <time>2020-09-27T12:35:58.282Z</time>
      </trkpt>
      <trkpt lat="64.90375" lon="21.20386">
        <ele>42.089184</ele>
        <time>2020-09-27T12:36:01.289Z</time>
      </trkpt>
      <trkpt lat="64.90367" lon="21.20369">
        <ele>42.542906</ele>
        <time>2020-09-27T12:36:03.294Z</time>
      </trkpt>
      <trkpt lat="64.90358" lon="21.20349">
        <ele>43.075405</ele>
        <time>2020-09-27T12:36:05.281Z</time>
      </trkpt>
      <trkpt lat="64.90348" lon="21.20327">
        <ele>43.696836</ele>
        <time>2020-09-27T12:36:07.270Z</time>
      </trkpt>
      <trkpt lat="64.90336" lon="21.20302">
        <ele>44.375393</ele>
        <time>2020-09-27T12:36:09.248Z</time>
      </trkpt>
      <trkpt lat="64.90325" lon="21.20276">
        <ele>45.06928</ele>
        <time>2020-09-27T12:36:11.282Z</time>
      </trkpt>
      <trkpt lat="64.90312" lon="21.20247">
        <ele>45.823526</ele>
        <time>2020-09-27T12:36:13.270Z</time>
      </trkpt>
      <trkpt lat="64.90301" lon="21.20219">
        <ele>46.537831</ele>
        <time>2020-09-27T12:36:15.247Z</time>
      </trkpt>
      <trkpt lat="64.90291" lon="21.20192">
        <ele>47.197686</ele>
        <time>2020-09-27T12:36:17.270Z</time>
      </trkpt>
      <trkpt lat="64.90281" lon="21.20163">
        <ele>47.891116</ele>
        <time>2020-09-27T12:36:19.261Z</time>
      </trkpt>
      <trkpt lat="64.9027" lon="21.20136">
        <ele>48.579859</ele>
        <time>2020-09-27T12:36:21.256Z</time>
      </trkpt>
      <trkpt lat="64.90259" lon="21.20109">
        <ele>48.702539</ele>
        <time>2020-09-27T12:36:23.303Z</time>
      </trkpt>
      <trkpt lat="64.90249" lon="21.20084">
        <ele>48.57208</ele>
        <time>2020-09-27T12:36:25.269Z</time>
      </trkpt>
      <trkpt lat="64.90241" lon="21.2006">
        <ele>48.451931</ele>
        <time>2020-09-27T12:36:27.247Z</time>
      </trkpt>
      <trkpt lat="64.90232" lon="21.20039">
        <ele>48.339302</ele>
        <time>2020-09-27T12:36:29.284Z</time>
      </trkpt>
      <trkpt lat="64.90225" lon="21.20021">
        <ele>48.248543</ele>
        <time>2020-09-27T12:36:31.265Z</time>
      </trkpt>
      <trkpt lat="64.90217" lon="21.20003">
        <ele>48.14646</ele>
        <time>2020-09-27T12:36:33.262Z</time>
      </trkpt>
      <trkpt lat="64.90204" lon="21.1998">
        <ele>47.999463</ele>
        <time>2020-09-27T12:36:35.278Z</time>
      </trkpt>
      <trkpt lat="64.90193" lon="21.19957">
        <ele>47.865616</ele>
        <time>2020-09-27T12:36:37.269Z</time>
      </trkpt>
      <trkpt lat="64.90183" lon="21.19935">
        <ele>47.739809</ele>
        <time>2020-09-27T12:36:39.280Z</time>
      </trkpt>
      <trkpt lat="64.90174" lon="21.19914">
        <ele>47.626013</ele>
        <time>2020-09-27T12:36:41.263Z</time>
      </trkpt>
      <trkpt lat="64.90166" lon="21.19896">
        <ele>47.531952</ele>
        <time>2020-09-27T12:36:43.250Z</time>
      </trkpt>
      <trkpt lat="64.9016" lon="21.19878">
        <ele>47.439737</ele>
        <time>2020-09-27T12:36:45.253Z</time>
      </trkpt>
      <trkpt lat="64.90153" lon="21.19861">
        <ele>47.351323</ele>
        <time>2020-09-27T12:36:47.273Z</time>
      </trkpt>
      <trkpt lat="64.90146" lon="21.19844">
        <ele>47.25989</ele>
        <time>2020-09-27T12:36:49.250Z</time>
      </trkpt>
      <trkpt lat="64.90139" lon="21.19825">
        <ele>47.238339</ele>
        <time>2020-09-27T12:36:51.257Z</time>
      </trkpt>
      <trkpt lat="64.90132" lon="21.19807">
        <ele>47.752385</ele>
        <time>2020-09-27T12:36:53.252Z</time>
      </trkpt>
      <trkpt lat="64.90125" lon="21.1979">
        <ele>48.254776</ele>
        <time>2020-09-27T12:36:55.244Z</time>
      </trkpt>
      <trkpt lat="64.90119" lon="21.19774">
        <ele>48.722132</ele>
        <time>2020-09-27T12:36:57.248Z</time>
      </trkpt>
      <trkpt lat="64.90111" lon="21.19755">
        <ele>49.30131</ele>
        <time>2020-09-27T12:37:00.249Z</time>
      </trkpt>
      <trkpt lat="64.90103" lon="21.19736">
        <ele>49.864744</ele>
        <time>2020-09-27T12:37:03.271Z</time>
      </trkpt>
      <trkpt lat="64.90095" lon="21.19719">
        <ele>50.433938</ele>
        <time>2020-09-27T12:37:06.258Z</time>
      </trkpt>
      <trkpt lat="64.90087" lon="21.19704">
        <ele>50.938873</ele>
        <time>2020-09-27T12:37:09.322Z</time>
      </trkpt>
      <trkpt lat="64.90079" lon="21.19685">
        <ele>51.497253</ele>
        <time>2020-09-27T12:37:13.254Z</time>
      </trkpt>
      <trkpt lat="64.90072" lon="21.19667">
        <ele>52.03366</ele>
        <time>2020-09-27T12:37:17.282Z</time>
      </trkpt>
      <trkpt lat="64.90066" lon="21.19649">
        <ele>52.541923</ele>
        <time>2020-09-27T12:37:21.249Z</time>
      </trkpt>
      <trkpt lat="64.9006" lon="21.19632">
        <ele>53.002669</ele>
        <time>2020-09-27T12:37:25.283Z</time>
      </trkpt>
      <trkpt lat="64.90053" lon="21.19614">
        <ele>53.507667</ele>
        <time>2020-09-27T12:37:29.252Z</time>
      </trkpt>
      <trkpt lat="64.90046" lon="21.19597">
        <ele>54.037436</ele>
        <time>2020-09-27T12:37:33.249Z</time>
      </trkpt>
      <trkpt lat="64.90038" lon="21.19576">
        <ele>54.621131</ele>
        <time>2020-09-27T12:37:37.256Z</time>
      </trkpt>
      <trkpt lat="64.90031" lon="21.19558">
        <ele>55.17135</ele>
        <time>2020-09-27T12:37:41.251Z</time>
      </trkpt>
      <trkpt lat="64.90024" lon="21.19542">
        <ele>55.671583</ele>
        <time>2020-09-27T12:37:44.244Z</time>
      </trkpt>
      <trkpt lat="64.90017" lon="21.19525">
        <ele>56.160085</ele>
        <time>2020-09-27T12:37:47.261Z</time>
      </trkpt>
      <trkpt lat="64.9001" lon="21.19507">
        <ele>55.63215</ele>
        <time>2020-09-27T12:37:50.274Z</time>
      </trkpt>
      <trkpt lat="64.90002" lon="21.19486">
        <ele>54.649405</ele>
        <time>2020-09-27T12:37:53.295Z</time>
      </trkpt>
      <trkpt lat="64.89996" lon="21.19471">
        <ele>53.897554</ele>
        <time>2020-09-27T12:37:55.252Z</time>
      </trkpt>
      <trkpt lat="64.89989" lon="21.19455">
        <ele>53.141402</ele>
        <time>2020-09-27T12:37:57.255Z</time>
      </trkpt>
      <trkpt lat="64.89982" lon="21.19438">
        <ele>52.283643</ele>
        <time>2020-09-27T12:37:59.262Z</time>
      </trkpt>
      <trkpt lat="64.89975" lon="21.1942">
        <ele>51.397881</ele>
        <time>2020-09-27T12:38:01.269Z</time>
      </trkpt>
      <trkpt lat="64.89966" lon="21.194">
        <ele>50.411397</ele>
        <time>2020-09-27T12:38:03.276Z</time>
      </trkpt>
      <trkpt lat="64.89958" lon="21.1938">
        <ele>49.410606</ele>
        <time>2020-09-27T12:38:05.270Z</time>
      </trkpt>
      <trkpt lat="64.89947" lon="21.19359">
        <ele>48.256443</ele>
        <time>2020-09-27T12:38:07.254Z</time>
      </trkpt>
      <trkpt lat="64.89937" lon="21.19339">
        <ele>47.168239</ele>
        <time>2020-09-27T12:38:09.247Z</time>
      </trkpt>
      <trkpt lat="64.89927" lon="21.19318">
        <ele>46.073789</ele>
        <time>2020-09-27T12:38:11.265Z</time>
      </trkpt>
      <trkpt lat="64.89917" lon="21.19301">
        <ele>45.06299</ele>
        <time>2020-09-27T12:38:13.254Z</time>
      </trkpt>
      <trkpt lat="64.89909" lon="21.19285">
        <ele>44.18229</ele>
        <time>2020-09-27T12:38:15.271Z</time>
      </trkpt>
      <trkpt lat="64.89901" lon="21.1927">
        <ele>43.325458</ele>
        <time>2020-09-27T12:38:17.256Z</time>
      </trkpt>
      <trkpt lat="64.89893" lon="21.19256">
        <ele>42.484891</ele>
        <time>2020-09-27T12:38:19.303Z</time>
      </trkpt>
      <trkpt lat="64.89885" lon="21.19242">
        <ele>41.66058</ele>
        <time>2020-09-27T12:38:21.261Z</time>
      </trkpt>
      <trkpt lat="64.89877" lon="21.19229">
        <ele>41.120698</ele>
        <time>2020-09-27T12:38:23.253Z</time>
      </trkpt>
      <trkpt lat="64.89867" lon="21.1921">
        <ele>40.505895</ele>
        <time>2020-09-27T12:38:26.266Z</time>
      </trkpt>
      <trkpt lat="64.89857" lon="21.19191">
        <ele>39.94053</ele>
        <time>2020-09-27T12:38:29.262Z</time>
      </trkpt>
      <trkpt lat="64.89848" lon="21.19175">
        <ele>39.396937</ele>
        <time>2020-09-27T12:38:32.258Z</time>
      </trkpt>
      <trkpt lat="64.89837" lon="21.19157">
        <ele>38.813387</ele>
        <time>2020-09-27T12:38:35.290Z</time>
      </trkpt>
      <trkpt lat="64.89827" lon="21.19138">
        <ele>38.197409</ele>
        <time>2020-09-27T12:38:38.273Z</time>
      </trkpt>
      <trkpt lat="64.8982" lon="21.19124">
        <ele>37.780979</ele>
        <time>2020-09-27T12:38:40.246Z</time>
      </trkpt>
      <trkpt lat="64.8981" lon="21.19105">
        <ele>37.198759</ele>
        <time>2020-09-27T12:38:43.266Z</time>
      </trkpt>
      <trkpt lat="64.89803" lon="21.19092">
        <ele>36.778644</ele>
        <time>2020-09-27T12:38:45.268Z</time>
      </trkpt>
      <trkpt lat="64.89795" lon="21.19079">
        <ele>36.352006</ele>
        <time>2020-09-27T12:38:47.252Z</time>
      </trkpt>
      <trkpt lat="64.89788" lon="21.19065">
        <ele>35.927355</ele>
        <time>2020-09-27T12:38:49.282Z</time>
      </trkpt>
      <trkpt lat="64.89781" lon="21.19051">
        <ele>35.481429</ele>
        <time>2020-09-27T12:38:51.255Z</time>
      </trkpt>
      <trkpt lat="64.89773" lon="21.19036">
        <ele>35.030421</ele>
        <time>2020-09-27T12:38:53.264Z</time>
      </trkpt>
      <trkpt lat="64.89766" lon="21.19021">
        <ele>34.580666</ele>
        <time>2020-09-27T12:38:55.324Z</time>
      </trkpt>
      <trkpt lat="64.89756" lon="21.19001">
        <ele>33.980157</ele>
        <time>2020-09-27T12:38:58.251Z</time>
      </trkpt>
      <trkpt lat="64.89747" lon="21.18985">
        <ele>33.475077</ele>
        <time>2020-09-27T12:39:01.258Z</time>
      </trkpt>
      <trkpt lat="64.8974" lon="21.18969">
        <ele>33.196862</ele>
        <time>2020-09-27T12:39:04.254Z</time>
      </trkpt>
      <trkpt lat="64.89734" lon="21.18953">
        <ele>33.453295</ele>
        <time>2020-09-27T12:39:07.303Z</time>
      </trkpt>
      <trkpt lat="64.89726" lon="21.18934">
        <ele>33.767661</ele>
        <time>2020-09-27T12:39:11.247Z</time>
      </trkpt>
      <trkpt lat="64.89718" lon="21.18916">
        <ele>34.075347</ele>
        <time>2020-09-27T12:39:15.249Z</time>
      </trkpt>
      <trkpt lat="64.8971" lon="21.18897">
        <ele>34.395309</ele>
        <time>2020-09-27T12:39:19.246Z</time>
      </trkpt>
      <trkpt lat="64.89701" lon="21.18879">
        <ele>34.715654</ele>
        <time>2020-09-27T12:39:23.269Z</time>
      </trkpt>
      <trkpt lat="64.89693" lon="21.1886">
        <ele>35.035459</ele>
        <time>2020-09-27T12:39:27.259Z</time>
      </trkpt>
      <trkpt lat="64.89685" lon="21.18841">
        <ele>35.350946</ele>
        <time>2020-09-27T12:39:31.268Z</time>
      </trkpt>
      <trkpt lat="64.89679" lon="21.18826">
        <ele>35.604599</ele>
        <time>2020-09-27T12:39:34.285Z</time>
      </trkpt>
      <trkpt lat="64.89672" lon="21.1881">
        <ele>35.868307</ele>
        <time>2020-09-27T12:39:37.262Z</time>
      </trkpt>
      <trkpt lat="64.89665" lon="21.18792">
        <ele>36.160644</ele>
        <time>2020-09-27T12:39:40.252Z</time>
      </trkpt>
      <trkpt lat="64.89657" lon="21.18771">
        <ele>36.498281</ele>
        <time>2020-09-27T12:39:43.269Z</time>
      </trkpt>
      <trkpt lat="64.89649" lon="21.1875">
        <ele>36.837178</ele>
        <time>2020-09-27T12:39:46.279Z</time>
      </trkpt>
      <trkpt lat="64.89639" lon="21.18729">
        <ele>37.193894</ele>
        <time>2020-09-27T12:39:49.255Z</time>
      </trkpt>
      <trkpt lat="64.89633" lon="21.18714">
        <ele>37.446446</ele>
        <time>2020-09-27T12:39:51.252Z</time>
      </trkpt>
      <trkpt lat="64.89624" lon="21.18694">
        <ele>37.785767</ele>
        <time>2020-09-27T12:39:54.276Z</time>
      </trkpt>
      <trkpt lat="64.89616" lon="21.18673">
        <ele>38.125972</ele>
        <time>2020-09-27T12:39:57.325Z</time>
      </trkpt>
      <trkpt lat="64.89607" lon="21.18652">
        <ele>39.842781</ele>
        <time>2020-09-27T12:40:00.273Z</time>
      </trkpt>
      <trkpt lat="64.89598" lon="21.18629">
        <ele>41.665931</ele>
        <time>2020-09-27T12:40:03.283Z</time>
      </trkpt>
      <trkpt lat="64.89589" lon="21.18607">
        <ele>43.532316</ele>
        <time>2020-09-27T12:40:06.257Z</time>
      </trkpt>
      <trkpt lat="64.8958" lon="21.18585">
        <ele>45.411154</ele>
        <time>2020-09-27T12:40:09.299Z</time>
      </trkpt>
      <trkpt lat="64.89571" lon="21.18563">
        <ele>47.267769</ele>
        <time>2020-09-27T12:40:12.267Z</time>
      </trkpt>
      <trkpt lat="64.89563" lon="21.18542">
        <ele>48.959108</ele>
        <time>2020-09-27T12:40:15.266Z</time>
      </trkpt>
      <trkpt lat="64.89556" lon="21.18525">
        <ele>50.422998</ele>
        <time>2020-09-27T12:40:18.253Z</time>
      </trkpt>
      <trkpt lat="64.89547" lon="21.18507">
        <ele>52.06705</ele>
        <time>2020-09-27T12:40:22.260Z</time>
      </trkpt>
      <trkpt lat="64.8954" lon="21.18487">
        <ele>53.683096</ele>
        <time>2020-09-27T12:40:26.253Z</time>
      </trkpt>
      <trkpt lat="64.89533" lon="21.18467">
        <ele>55.247313</ele>
        <time>2020-09-27T12:40:30.278Z</time>
      </trkpt>
      <trkpt lat="64.89525" lon="21.18449">
        <ele>56.832833</ele>
        <time>2020-09-27T12:40:34.269Z</time>
      </trkpt>
      <trkpt lat="64.89518" lon="21.18433">
        <ele>58.157245</ele>
        <time>2020-09-27T12:40:38.291Z</time>
      </trkpt>
      <trkpt lat="64.89511" lon="21.18417">
        <ele>59.529025</ele>
        <time>2020-09-27T12:40:42.256Z</time>
      </trkpt>
      <trkpt lat="64.89504" lon="21.18399">
        <ele>61.083999</ele>
        <time>2020-09-27T12:40:47.262Z</time>
      </trkpt>
      <trkpt lat="64.89497" lon="21.1838">
        <ele>62.574036</ele>
        <time>2020-09-27T12:40:53.289Z</time>
      </trkpt>
      <trkpt lat="64.8949" lon="21.18361">
        <ele>63.819701</ele>
        <time>2020-09-27T12:40:59.263Z</time>
      </trkpt>
      <trkpt lat="64.89483" lon="21.18344">
        <ele>63.938212</ele>
        <time>2020-09-27T12:41:05.274Z</time>
      </trkpt>
      <trkpt lat="64.89477" lon="21.18328">
        <ele>64.055212</ele>
        <time>2020-09-27T12:41:11.288Z</time>
      </trkpt>
      <trkpt lat="64.89469" lon="21.18312">
        <ele>64.178603</ele>
        <time>2020-09-27T12:41:17.274Z</time>
      </trkpt>
      <trkpt lat="64.89462" lon="21.18293">
        <ele>64.306958</ele>
        <time>2020-09-27T12:41:24.260Z</time>
      </trkpt>
      <trkpt lat="64.89455" lon="21.18277">
        <ele>64.42737</ele>
        <time>2020-09-27T12:41:30.268Z</time>
      </trkpt>
      <trkpt lat="64.89448" lon="21.18262">
        <ele>64.545292</ele>
        <time>2020-09-27T12:41:36.263Z</time>
      </trkpt>
      <trkpt lat="64.89441" lon="21.18248">
        <ele>64.657534</ele>
        <time>2020-09-27T12:41:41.292Z</time>
      </trkpt>
      <trkpt lat="64.89433" lon="21.18232">
        <ele>64.782767</ele>
        <time>2020-09-27T12:41:47.284Z</time>
      </trkpt>
      <trkpt lat="64.89426" lon="21.18218">
        <ele>64.896802</ele>
        <time>2020-09-27T12:41:52.264Z</time>
      </trkpt>
      <trkpt lat="64.89419" lon="21.18204">
        <ele>65.010002</ele>
        <time>2020-09-27T12:41:57.263Z</time>
      </trkpt>
      <trkpt lat="64.89411" lon="21.18185">
        <ele>65.143575</ele>
        <time>2020-09-27T12:42:02.264Z</time>
      </trkpt>
      <trkpt lat="64.89405" lon="21.18168">
        <ele>65.257241</ele>
        <time>2020-09-27T12:42:06.274Z</time>
      </trkpt>
      <trkpt lat="64.89398" lon="21.18152">
        <ele>65.381162</ele>
        <time>2020-09-27T12:42:10.264Z</time>
      </trkpt>
      <trkpt lat="64.8939" lon="21.18132">
        <ele>65.525497</ele>
        <time>2020-09-27T12:42:14.270Z</time>
      </trkpt>
      <trkpt lat="64.89383" lon="21.18116">
        <ele>65.642124</ele>
        <time>2020-09-27T12:42:17.281Z</time>
      </trkpt>
      <trkpt lat="64.89376" lon="21.181">
        <ele>65.763247</ele>
        <time>2020-09-27T12:42:20.268Z</time>
      </trkpt>
      <trkpt lat="64.89369" lon="21.18083">
        <ele>65.886486</ele>
        <time>2020-09-27T12:42:23.302Z</time>
      </trkpt>
      <trkpt lat="64.89362" lon="21.18069">
        <ele>65.937294</ele>
        <time>2020-09-27T12:42:26.262Z</time>
      </trkpt>
      <trkpt lat="64.89354" lon="21.18053">
        <ele>65.389353</ele>
        <time>2020-09-27T12:42:29.258Z</time>
      </trkpt>
      <trkpt lat="64.89344" lon="21.18035">
        <ele>64.699641</ele>
        <time>2020-09-27T12:42:32.258Z</time>
      </trkpt>
      <trkpt lat="64.89336" lon="21.18021">
        <ele>64.165034</ele>
        <time>2020-09-27T12:42:34.289Z</time>
      </trkpt>
      <trkpt lat="64.89326" lon="21.18008">
        <ele>63.56026</ele>
        <time>2020-09-27T12:42:36.277Z</time>
      </trkpt>
      <trkpt lat="64.89316" lon="21.17996">
        <ele>62.957906</ele>
        <time>2020-09-27T12:42:38.326Z</time>
      </trkpt>
      <trkpt lat="64.89306" lon="21.17987">
        <ele>62.385497</ele>
        <time>2020-09-27T12:42:40.266Z</time>
      </trkpt>
      <trkpt lat="64.89296" lon="21.17977">
        <ele>61.789724</ele>
        <time>2020-09-27T12:42:42.294Z</time>
      </trkpt>
      <trkpt lat="64.89285" lon="21.17967">
        <ele>61.17387</ele>
        <time>2020-09-27T12:42:44.277Z</time>
      </trkpt>
      <trkpt lat="64.89275" lon="21.17958">
        <ele>60.578096</ele>
        <time>2020-09-27T12:42:46.294Z</time>
      </trkpt>
      <trkpt lat="64.89264" lon="21.1795">
        <ele>59.984535</ele>
        <time>2020-09-27T12:42:48.290Z</time>
      </trkpt>
      <trkpt lat="64.89254" lon="21.17943">
        <ele>59.403389</ele>
        <time>2020-09-27T12:42:50.289Z</time>
      </trkpt>
      <trkpt lat="64.89243" lon="21.17936">
        <ele>58.804389</ele>
        <time>2020-09-27T12:42:52.251Z</time>
      </trkpt>
      <trkpt lat="64.89232" lon="21.17929">
        <ele>58.163177</ele>
        <time>2020-09-27T12:42:54.273Z</time>
      </trkpt>
      <trkpt lat="64.8922" lon="21.17921">
        <ele>57.502096</ele>
        <time>2020-09-27T12:42:56.307Z</time>
      </trkpt>
      <trkpt lat="64.8921" lon="21.17914">
        <ele>56.92217</ele>
        <time>2020-09-27T12:42:58.281Z</time>
      </trkpt>
      <trkpt lat="64.89199" lon="21.17907">
        <ele>56.344934</ele>
        <time>2020-09-27T12:43:00.283Z</time>
      </trkpt>
      <trkpt lat="64.8919" lon="21.179">
        <ele>55.909195</ele>
        <time>2020-09-27T12:43:02.256Z</time>
      </trkpt>
      <trkpt lat="64.89178" lon="21.17891">
        <ele>55.352119</ele>
        <time>2020-09-27T12:43:05.273Z</time>
      </trkpt>
      <trkpt lat="64.89158" lon="21.17887">
        <ele>54.503498</ele>
        <time>2020-09-27T12:45:20.274Z</time>
      </trkpt>
      <trkpt lat="64.89148" lon="21.1788">
        <ele>54.038428</ele>
        <time>2020-09-27T12:45:24.260Z</time>
      </trkpt>
      <trkpt lat="64.89137" lon="21.17872">
        <ele>53.540938</ele>
        <time>2020-09-27T12:45:27.264Z</time>
      </trkpt>
      <trkpt lat="64.89125" lon="21.17863">
        <ele>52.974513</ele>
        <time>2020-09-27T12:45:30.266Z</time>
      </trkpt>
      <trkpt lat="64.89112" lon="21.17856">
        <ele>52.426904</ele>
        <time>2020-09-27T12:45:33.290Z</time>
      </trkpt>
      <trkpt lat="64.891" lon="21.17849">
        <ele>51.861486</ele>
        <time>2020-09-27T12:45:36.264Z</time>
      </trkpt>
      <trkpt lat="64.89088" lon="21.17841">
        <ele>51.325171</ele>
        <time>2020-09-27T12:45:39.272Z</time>
      </trkpt>
      <trkpt lat="64.89076" lon="21.17833">
        <ele>50.769624</ele>
        <time>2020-09-27T12:45:42.269Z</time>
      </trkpt>
      <trkpt lat="64.89063" lon="21.17824">
        <ele>50.184831</ele>
        <time>2020-09-27T12:45:45.275Z</time>
      </trkpt>
      <trkpt lat="64.89054" lon="21.17819">
        <ele>49.77926</ele>
        <time>2020-09-27T12:45:47.258Z</time>
      </trkpt>
      <trkpt lat="64.89045" lon="21.17815">
        <ele>49.369428</ele>
        <time>2020-09-27T12:45:49.249Z</time>
      </trkpt>
      <trkpt lat="64.89035" lon="21.17809">
        <ele>48.926611</ele>
        <time>2020-09-27T12:45:51.272Z</time>
      </trkpt>
      <trkpt lat="64.89025" lon="21.17803">
        <ele>48.48766</ele>
        <time>2020-09-27T12:45:53.276Z</time>
      </trkpt>
      <trkpt lat="64.89015" lon="21.17797">
        <ele>48.32787</ele>
        <time>2020-09-27T12:45:55.290Z</time>
      </trkpt>
      <trkpt lat="64.89005" lon="21.1779">
        <ele>48.18413</ele>
        <time>2020-09-27T12:45:57.269Z</time>
      </trkpt>
      <trkpt lat="64.88995" lon="21.17782">
        <ele>48.027536</ele>
        <time>2020-09-27T12:45:59.257Z</time>
      </trkpt>
      <trkpt lat="64.88985" lon="21.17772">
        <ele>47.864891</ele>
        <time>2020-09-27T12:46:01.258Z</time>
      </trkpt>
      <trkpt lat="64.88976" lon="21.17764">
        <ele>47.717856</ele>
        <time>2020-09-27T12:46:03.265Z</time>
      </trkpt>
      <trkpt lat="64.88967" lon="21.17755">
        <ele>47.578057</ele>
        <time>2020-09-27T12:46:05.257Z</time>
      </trkpt>
      <trkpt lat="64.88958" lon="21.17746">
        <ele>47.437318</ele>
        <time>2020-09-27T12:46:07.287Z</time>
      </trkpt>
      <trkpt lat="64.88949" lon="21.17736">
        <ele>47.298786</ele>
        <time>2020-09-27T12:46:09.273Z</time>
      </trkpt>
      <trkpt lat="64.88941" lon="21.17725">
        <ele>47.164983</ele>
        <time>2020-09-27T12:46:11.264Z</time>
      </trkpt>
      <trkpt lat="64.88934" lon="21.17714">
        <ele>47.033361</ele>
        <time>2020-09-27T12:46:13.266Z</time>
      </trkpt>
      <trkpt lat="64.88926" lon="21.17703">
        <ele>46.899558</ele>
        <time>2020-09-27T12:46:15.261Z</time>
      </trkpt>
      <trkpt lat="64.88915" lon="21.17686">
        <ele>46.708958</ele>
        <time>2020-09-27T12:46:18.261Z</time>
      </trkpt>
      <trkpt lat="64.88905" lon="21.17669">
        <ele>46.525704</ele>
        <time>2020-09-27T12:46:21.269Z</time>
      </trkpt>
      <trkpt lat="64.88896" lon="21.17653">
        <ele>46.363632</ele>
        <time>2020-09-27T12:46:24.277Z</time>
      </trkpt>
      <trkpt lat="64.88888" lon="21.17638">
        <ele>46.216467</ele>
        <time>2020-09-27T12:46:27.267Z</time>
      </trkpt>
      <trkpt lat="64.88881" lon="21.17623">
        <ele>46.08274</ele>
        <time>2020-09-27T12:46:30.251Z</time>
      </trkpt>
      <trkpt lat="64.88874" lon="21.17603">
        <ele>45.92088</ele>
        <time>2020-09-27T12:46:34.289Z</time>
      </trkpt>
      <trkpt lat="64.88868" lon="21.17585">
        <ele>45.900548</ele>
        <time>2020-09-27T12:46:38.254Z</time>
      </trkpt>
      <trkpt lat="64.88862" lon="21.17565">
        <ele>45.996155</ele>
        <time>2020-09-27T12:46:42.268Z</time>
      </trkpt>
      <trkpt lat="64.88855" lon="21.17546">
        <ele>46.090477</ele>
        <time>2020-09-27T12:46:46.255Z</time>
      </trkpt>
      <trkpt lat="64.8885" lon="21.17526">
        <ele>46.177621</ele>
        <time>2020-09-27T12:46:50.261Z</time>
      </trkpt>
      <trkpt lat="64.88846" lon="21.17507">
        <ele>46.261451</ele>
        <time>2020-09-27T12:46:54.261Z</time>
      </trkpt>
      <trkpt lat="64.8884" lon="21.1749">
        <ele>46.345311</ele>
        <time>2020-09-27T12:46:58.245Z</time>
      </trkpt>
      <trkpt lat="64.88835" lon="21.1747">
        <ele>46.434655</ele>
        <time>2020-09-27T12:47:02.273Z</time>
      </trkpt>
      <trkpt lat="64.88829" lon="21.1745">
        <ele>46.527424</ele>
        <time>2020-09-27T12:47:06.265Z</time>
      </trkpt>
      <trkpt lat="64.88823" lon="21.17429">
        <ele>46.625106</ele>
        <time>2020-09-27T12:47:10.269Z</time>
      </trkpt>
      <trkpt lat="64.88818" lon="21.17411">
        <ele>46.711989</ele>
        <time>2020-09-27T12:47:13.262Z</time>
      </trkpt>
      <trkpt lat="64.88812" lon="21.1739">
        <ele>46.807694</ele>
        <time>2020-09-27T12:47:16.290Z</time>
      </trkpt>
      <trkpt lat="64.88806" lon="21.17367">
        <ele>46.910263</ele>
        <time>2020-09-27T12:47:19.262Z</time>
      </trkpt>
      <trkpt lat="64.88799" lon="21.17341">
        <ele>47.029991</ele>
        <time>2020-09-27T12:47:22.257Z</time>
      </trkpt>
      <trkpt lat="64.88794" lon="21.1732">
        <ele>47.12342</ele>
        <time>2020-09-27T12:47:24.249Z</time>
      </trkpt>
      <trkpt lat="64.88787" lon="21.17296">
        <ele>47.232413</ele>
        <time>2020-09-27T12:47:26.258Z</time>
      </trkpt>
      <trkpt lat="64.8878" lon="21.17271">
        <ele>47.346661</ele>
        <time>2020-09-27T12:47:28.270Z</time>
      </trkpt>
      <trkpt lat="64.88773" lon="21.17247">
        <ele>47.46091</ele>
        <time>2020-09-27T12:47:30.281Z</time>
      </trkpt>
      <trkpt lat="64.88765" lon="21.1722">
        <ele>46.942097</ele>
        <time>2020-09-27T12:47:32.267Z</time>
      </trkpt>
      <trkpt lat="64.88757" lon="21.17192">
        <ele>46.266794</ele>
        <time>2020-09-27T12:47:34.274Z</time>
      </trkpt>
      <trkpt lat="64.8875" lon="21.17164">
        <ele>45.604166</ele>
        <time>2020-09-27T12:47:36.271Z</time>
      </trkpt>
      <trkpt lat="64.88742" lon="21.17136">
        <ele>44.918554</ele>
        <time>2020-09-27T12:47:38.292Z</time>
      </trkpt>
      <trkpt lat="64.88733" lon="21.17108">
        <ele>44.222606</ele>
        <time>2020-09-27T12:47:40.254Z</time>
      </trkpt>
      <trkpt lat="64.88725" lon="21.1708">
        <ele>43.549193</ele>
        <time>2020-09-27T12:47:42.280Z</time>
      </trkpt>
      <trkpt lat="64.88717" lon="21.17052">
        <ele>42.862566</ele>
        <time>2020-09-27T12:47:44.289Z</time>
      </trkpt>
      <trkpt lat="64.8871" lon="21.17022">
        <ele>42.159093</ele>
        <time>2020-09-27T12:47:46.259Z</time>
      </trkpt>
      <trkpt lat="64.88704" lon="21.16991">
        <ele>41.478173</ele>
        <time>2020-09-27T12:47:48.291Z</time>
      </trkpt>
      <trkpt lat="64.88699" lon="21.1696">
        <ele>40.804981</ele>
        <time>2020-09-27T12:47:50.282Z</time>
      </trkpt>
      <trkpt lat="64.88695" lon="21.16929">
        <ele>40.155884</ele>
        <time>2020-09-27T12:47:52.298Z</time>
      </trkpt>
      <trkpt lat="64.88692" lon="21.16899">
        <ele>39.543133</ele>
        <time>2020-09-27T12:47:54.257Z</time>
      </trkpt>
      <trkpt lat="64.8869" lon="21.16871">
        <ele>38.965457</ele>
        <time>2020-09-27T12:47:56.262Z</time>
      </trkpt>
      <trkpt lat="64.88689" lon="21.16844">
        <ele>38.394791</ele>
        <time>2020-09-27T12:47:58.270Z</time>
      </trkpt>
      <trkpt lat="64.88689" lon="21.16818">
        <ele>37.859579</ele>
        <time>2020-09-27T12:48:00.281Z</time>
      </trkpt>
      <trkpt lat="64.88688" lon="21.16795">
        <ele>37.374854</ele>
        <time>2020-09-27T12:48:02.278Z</time>
      </trkpt>
      <trkpt lat="64.88687" lon="21.16772">
        <ele>36.884319</ele>
        <time>2020-09-27T12:48:04.301Z</time>
      </trkpt>
      <trkpt lat="64.88686" lon="21.16746">
        <ele>36.338978</ele>
        <time>2020-09-27T12:48:06.257Z</time>
      </trkpt>
      <trkpt lat="64.88685" lon="21.1672">
        <ele>35.797883</ele>
        <time>2020-09-27T12:48:08.298Z</time>
      </trkpt>
      <trkpt lat="64.88684" lon="21.16693">
        <ele>35.228643</ele>
        <time>2020-09-27T12:48:10.259Z</time>
      </trkpt>
      <trkpt lat="64.88683" lon="21.16667">
        <ele>34.676873</ele>
        <time>2020-09-27T12:48:12.271Z</time>
      </trkpt>
      <trkpt lat="64.88683" lon="21.16641">
        <ele>34.120715</ele>
        <time>2020-09-27T12:48:14.261Z</time>
      </trkpt>
      <trkpt lat="64.88682" lon="21.16614">
        <ele>33.572401</ele>
        <time>2020-09-27T12:48:16.287Z</time>
      </trkpt>
      <trkpt lat="64.88682" lon="21.16589">
        <ele>33.033361</ele>
        <time>2020-09-27T12:48:18.249Z</time>
      </trkpt>
      <trkpt lat="64.88682" lon="21.16564">
        <ele>32.507081</ele>
        <time>2020-09-27T12:48:20.302Z</time>
      </trkpt>
      <trkpt lat="64.88681" lon="21.16538">
        <ele>31.959502</ele>
        <time>2020-09-27T12:48:22.281Z</time>
      </trkpt>
      <trkpt lat="64.88681" lon="21.16511">
        <ele>31.410094</ele>
        <time>2020-09-27T12:48:24.262Z</time>
      </trkpt>
      <trkpt lat="64.88681" lon="21.16486">
        <ele>30.875428</ele>
        <time>2020-09-27T12:48:26.290Z</time>
      </trkpt>
      <trkpt lat="64.88682" lon="21.16461">
        <ele>30.353271</ele>
        <time>2020-09-27T12:48:28.283Z</time>
      </trkpt>
      <trkpt lat="64.88682" lon="21.16436">
        <ele>30.2712</ele>
        <time>2020-09-27T12:48:30.281Z</time>
      </trkpt>
      <trkpt lat="64.88681" lon="21.16412">
        <ele>30.718351</ele>
        <time>2020-09-27T12:48:32.271Z</time>
      </trkpt>
      <trkpt lat="64.8868" lon="21.16389">
        <ele>31.153689</ele>
        <time>2020-09-27T12:48:34.287Z</time>
      </trkpt>
      <trkpt lat="64.8868" lon="21.16367">
        <ele>31.563611</ele>
        <time>2020-09-27T12:48:36.272Z</time>
      </trkpt>
      <trkpt lat="64.8868" lon="21.16344">
        <ele>31.988786</ele>
        <time>2020-09-27T12:48:38.263Z</time>
      </trkpt>
      <trkpt lat="64.88679" lon="21.16322">
        <ele>32.397631</ele>
        <time>2020-09-27T12:48:40.291Z</time>
      </trkpt>
      <trkpt lat="64.88678" lon="21.16301">
        <ele>32.793053</ele>
        <time>2020-09-27T12:48:42.300Z</time>
      </trkpt>
      <trkpt lat="64.88677" lon="21.1627">
        <ele>33.377813</ele>
        <time>2020-09-27T12:48:45.261Z</time>
      </trkpt>
      <trkpt lat="64.88674" lon="21.1624">
        <ele>33.95168</ele>
        <time>2020-09-27T12:48:48.293Z</time>
      </trkpt>
      <trkpt lat="64.8867" lon="21.16213">
        <ele>34.46369</ele>
        <time>2020-09-27T12:48:51.291Z</time>
      </trkpt>
      <trkpt lat="64.88666" lon="21.16188">
        <ele>34.98324</ele>
        <time>2020-09-27T12:48:54.265Z</time>
      </trkpt>
      <trkpt lat="64.88663" lon="21.16159">
        <ele>35.522598</ele>
        <time>2020-09-27T12:48:57.311Z</time>
      </trkpt>
      <trkpt lat="64.8866" lon="21.16131">
        <ele>36.072842</ele>
        <time>2020-09-27T12:49:00.260Z</time>
      </trkpt>
      <trkpt lat="64.88658" lon="21.16104">
        <ele>36.590466</ele>
        <time>2020-09-27T12:49:03.267Z</time>
      </trkpt>
      <trkpt lat="64.88654" lon="21.16078">
        <ele>37.092295</ele>
        <time>2020-09-27T12:49:06.274Z</time>
      </trkpt>
      <trkpt lat="64.88651" lon="21.16053">
        <ele>37.564846</ele>
        <time>2020-09-27T12:49:09.328Z</time>
      </trkpt>
      <trkpt lat="64.88647" lon="21.16031">
        <ele>38.134217</ele>
        <time>2020-09-27T12:49:12.294Z</time>
      </trkpt>
      <trkpt lat="64.88643" lon="21.16004">
        <ele>39.617231</ele>
        <time>2020-09-27T12:49:16.306Z</time>
      </trkpt>
      <trkpt lat="64.8864" lon="21.15981">
        <ele>40.937921</ele>
        <time>2020-09-27T12:49:20.304Z</time>
      </trkpt>
      <trkpt lat="64.88636" lon="21.1596">
        <ele>42.179804</ele>
        <time>2020-09-27T12:49:24.274Z</time>
      </trkpt>
      <trkpt lat="64.88632" lon="21.15939">
        <ele>43.390961</ele>
        <time>2020-09-27T12:49:28.254Z</time>
      </trkpt>
      <trkpt lat="64.88629" lon="21.15917">
        <ele>44.640806</ele>
        <time>2020-09-27T12:49:32.254Z</time>
      </trkpt>
      <trkpt lat="64.88625" lon="21.15897">
        <ele>45.788337</ele>
        <time>2020-09-27T12:49:36.310Z</time>
      </trkpt>
      <trkpt lat="64.8862" lon="21.15875">
        <ele>47.14695</ele>
        <time>2020-09-27T12:49:41.287Z</time>
      </trkpt>
      <trkpt lat="64.88615" lon="21.15855">
        <ele>48.362408</ele>
        <time>2020-09-27T12:49:46.265Z</time>
      </trkpt>
      <trkpt lat="64.88608" lon="21.15836">
        <ele>49.688034</ele>
        <time>2020-09-27T12:49:51.261Z</time>
      </trkpt>
      <trkpt lat="64.88602" lon="21.15817">
        <ele>50.95927</ele>
        <time>2020-09-27T12:49:56.263Z</time>
      </trkpt>
      <trkpt lat="64.88595" lon="21.15796">
        <ele>52.347958</ele>
        <time>2020-09-27T12:50:01.263Z</time>
      </trkpt>
      <trkpt lat="64.8859" lon="21.15778">
        <ele>53.507186</ele>
        <time>2020-09-27T12:50:05.281Z</time>
      </trkpt>
      <trkpt lat="64.88585" lon="21.15758">
        <ele>54.80619</ele>
        <time>2020-09-27T12:50:10.267Z</time>
      </trkpt>
      <trkpt lat="64.88579" lon="21.15738">
        <ele>56.10936</ele>
        <time>2020-09-27T12:50:15.269Z</time>
      </trkpt>
      <trkpt lat="64.88572" lon="21.1572">
        <ele>57.360293</ele>
        <time>2020-09-27T12:50:20.284Z</time>
      </trkpt>
      <trkpt lat="64.88566" lon="21.15701">
        <ele>58.612675</ele>
        <time>2020-09-27T12:50:25.274Z</time>
      </trkpt>
      <trkpt lat="64.88561" lon="21.1568">
        <ele>59.889307</ele>
        <time>2020-09-27T12:50:30.280Z</time>
      </trkpt>
      <trkpt lat="64.88556" lon="21.1566">
        <ele>60.517724</ele>
        <time>2020-09-27T12:50:35.302Z</time>
      </trkpt>
      <trkpt lat="64.8855" lon="21.15642">
        <ele>60.492554</ele>
        <time>2020-09-27T12:50:39.268Z</time>
      </trkpt>
      <trkpt lat="64.88545" lon="21.15625">
        <ele>60.46767</ele>
        <time>2020-09-27T12:50:43.306Z</time>
      </trkpt>
      <trkpt lat="64.88539" lon="21.15602">
        <ele>60.438058</ele>
        <time>2020-09-27T12:50:48.256Z</time>
      </trkpt>
      <trkpt lat="64.88533" lon="21.15582">
        <ele>60.411708</ele>
        <time>2020-09-27T12:50:52.285Z</time>
      </trkpt>
      <trkpt lat="64.88527" lon="21.15564">
        <ele>60.385457</ele>
        <time>2020-09-27T12:50:56.263Z</time>
      </trkpt>
      <trkpt lat="64.88521" lon="21.15545">
        <ele>60.358851</ele>
        <time>2020-09-27T12:51:00.262Z</time>
      </trkpt>
      <trkpt lat="64.88514" lon="21.15525">
        <ele>60.329987</ele>
        <time>2020-09-27T12:51:04.283Z</time>
      </trkpt>
      <trkpt lat="64.88508" lon="21.15508">
        <ele>60.305889</ele>
        <time>2020-09-27T12:51:07.266Z</time>
      </trkpt>
      <trkpt lat="64.88503" lon="21.15491">
        <ele>60.281591</ele>
        <time>2020-09-27T12:51:10.277Z</time>
      </trkpt>
      <trkpt lat="64.88496" lon="21.15474">
        <ele>60.256559</ele>
        <time>2020-09-27T12:51:13.282Z</time>
      </trkpt>
      <trkpt lat="64.88491" lon="21.15456">
        <ele>60.231674</ele>
        <time>2020-09-27T12:51:16.286Z</time>
      </trkpt>
      <trkpt lat="64.88485" lon="21.15438">
        <ele>60.205963</ele>
        <time>2020-09-27T12:51:19.285Z</time>
      </trkpt>
      <trkpt lat="64.88479" lon="21.15419">
        <ele>60.180921</ele>
        <time>2020-09-27T12:51:22.285Z</time>
      </trkpt>
      <trkpt lat="64.88474" lon="21.154">
        <ele>60.154809</ele>
        <time>2020-09-27T12:51:25.280Z</time>
      </trkpt>
      <trkpt lat="64.88467" lon="21.15381">
        <ele>60.12742</ele>
        <time>2020-09-27T12:51:28.284Z</time>
      </trkpt>
      <trkpt lat="64.8846" lon="21.15361">
        <ele>60.098131</ele>
        <time>2020-09-27T12:51:31.278Z</time>
      </trkpt>
      <trkpt lat="64.88454" lon="21.15342">
        <ele>60.071792</ele>
        <time>2020-09-27T12:51:34.284Z</time>
      </trkpt>
      <trkpt lat="64.88448" lon="21.15323">
        <ele>59.972998</ele>
        <time>2020-09-27T12:51:37.267Z</time>
      </trkpt>
      <trkpt lat="64.88442" lon="21.15303">
        <ele>59.78836</ele>
        <time>2020-09-27T12:51:40.268Z</time>
      </trkpt>
      <trkpt lat="64.88437" lon="21.15285">
        <ele>59.619121</ele>
        <time>2020-09-27T12:51:43.266Z</time>
      </trkpt>
      <trkpt lat="64.88431" lon="21.15266">
        <ele>59.438135</ele>
        <time>2020-09-27T12:51:46.267Z</time>
      </trkpt>
      <trkpt lat="64.88425" lon="21.15247">
        <ele>59.253112</ele>
        <time>2020-09-27T12:51:49.265Z</time>
      </trkpt>
      <trkpt lat="64.88419" lon="21.15227">
        <ele>59.06642</ele>
        <time>2020-09-27T12:51:52.258Z</time>
      </trkpt>
      <trkpt lat="64.88413" lon="21.15207">
        <ele>58.879318</ele>
        <time>2020-09-27T12:51:55.267Z</time>
      </trkpt>
      <trkpt lat="64.88407" lon="21.15188">
        <ele>58.692415</ele>
        <time>2020-09-27T12:51:58.294Z</time>
      </trkpt>
      <trkpt lat="64.88401" lon="21.15168">
        <ele>58.502356</ele>
        <time>2020-09-27T12:52:01.255Z</time>
      </trkpt>
      <trkpt lat="64.88395" lon="21.15147">
        <ele>58.300034</ele>
        <time>2020-09-27T12:52:04.276Z</time>
      </trkpt>
      <trkpt lat="64.88389" lon="21.15127">
        <ele>58.109092</ele>
        <time>2020-09-27T12:52:07.285Z</time>
      </trkpt>
      <trkpt lat="64.88383" lon="21.15109">
        <ele>57.932944</ele>
        <time>2020-09-27T12:52:10.275Z</time>
      </trkpt>
      <trkpt lat="64.88377" lon="21.15091">
        <ele>57.757213</ele>
        <time>2020-09-27T12:52:13.284Z</time>
      </trkpt>
      <trkpt lat="64.88371" lon="21.15073">
        <ele>57.57603</ele>
        <time>2020-09-27T12:52:16.314Z</time>
      </trkpt>
      <trkpt lat="64.88364" lon="21.15055">
        <ele>57.386006</ele>
        <time>2020-09-27T12:52:19.292Z</time>
      </trkpt>
      <trkpt lat="64.88357" lon="21.15036">
        <ele>57.196099</ele>
        <time>2020-09-27T12:52:22.287Z</time>
      </trkpt>
      <trkpt lat="64.88351" lon="21.15018">
        <ele>57.009149</ele>
        <time>2020-09-27T12:52:25.253Z</time>
      </trkpt>
      <trkpt lat="64.88343" lon="21.14998">
        <ele>56.810949</ele>
        <time>2020-09-27T12:52:28.297Z</time>
      </trkpt>
      <trkpt lat="64.88338" lon="21.14978">
        <ele>56.758962</ele>
        <time>2020-09-27T12:52:31.263Z</time>
      </trkpt>
      <trkpt lat="64.88332" lon="21.14958">
        <ele>56.74704</ele>
        <time>2020-09-27T12:52:34.275Z</time>
      </trkpt>
      <trkpt lat="64.88325" lon="21.14935">
        <ele>56.733716</ele>
        <time>2020-09-27T12:52:37.261Z</time>
      </trkpt>
      <trkpt lat="64.88317" lon="21.14914">
        <ele>56.72026</ele>
        <time>2020-09-27T12:52:40.281Z</time>
      </trkpt>
      <trkpt lat="64.8831" lon="21.14894">
        <ele>56.707132</ele>
        <time>2020-09-27T12:52:43.268Z</time>
      </trkpt>
      <trkpt lat="64.88303" lon="21.14876">
        <ele>56.695157</ele>
        <time>2020-09-27T12:52:46.261Z</time>
      </trkpt>
      <trkpt lat="64.88295" lon="21.14858">
        <ele>56.682893</ele>
        <time>2020-09-27T12:52:49.270Z</time>
      </trkpt>
      <trkpt lat="64.88289" lon="21.14837">
        <ele>56.670559</ele>
        <time>2020-09-27T12:52:52.285Z</time>
      </trkpt>
      <trkpt lat="64.88283" lon="21.14815">
        <ele>56.657902</ele>
        <time>2020-09-27T12:52:55.263Z</time>
      </trkpt>
      <trkpt lat="64.88275" lon="21.14792">
        <ele>56.643626</ele>
        <time>2020-09-27T12:52:58.285Z</time>
      </trkpt>
      <trkpt lat="64.88269" lon="21.14769">
        <ele>56.630167</ele>
        <time>2020-09-27T12:53:01.276Z</time>
      </trkpt>
      <trkpt lat="64.88263" lon="21.14747">
        <ele>56.617367</ele>
        <time>2020-09-27T12:53:04.281Z</time>
      </trkpt>
      <trkpt lat="64.88258" lon="21.14724">
        <ele>56.604889</ele>
        <time>2020-09-27T12:53:07.272Z</time>
      </trkpt>
      <trkpt lat="64.88253" lon="21.14701">
        <ele>56.592497</ele>
        <time>2020-09-27T12:53:10.281Z</time>
      </trkpt>
      <trkpt lat="64.88249" lon="21.1468">
        <ele>56.580941</ele>
        <time>2020-09-27T12:53:13.273Z</time>
      </trkpt>
      <trkpt lat="64.88244" lon="21.14657">
        <ele>56.568721</ele>
        <time>2020-09-27T12:53:16.256Z</time>
      </trkpt>
      <trkpt lat="64.8824" lon="21.14635">
        <ele>56.66957</ele>
        <time>2020-09-27T12:53:19.304Z</time>
      </trkpt>
      <trkpt lat="64.88236" lon="21.14613">
        <ele>56.903624</ele>
        <time>2020-09-27T12:53:22.280Z</time>
      </trkpt>
      <trkpt lat="64.88232" lon="21.14593">
        <ele>57.133204</ele>
        <time>2020-09-27T12:53:25.264Z</time>
      </trkpt>
      <trkpt lat="64.88229" lon="21.14571">
        <ele>57.364635</ele>
        <time>2020-09-27T12:53:28.305Z</time>
      </trkpt>
      <trkpt lat="64.88225" lon="21.1455">
        <ele>57.588549</ele>
        <time>2020-09-27T12:53:31.272Z</time>
      </trkpt>
      <trkpt lat="64.88222" lon="21.14529">
        <ele>57.816862</ele>
        <time>2020-09-27T12:53:34.274Z</time>
      </trkpt>
      <trkpt lat="64.88221" lon="21.14507">
        <ele>58.039714</ele>
        <time>2020-09-27T12:53:37.250Z</time>
      </trkpt>
      <trkpt lat="64.88219" lon="21.14485">
        <ele>58.265927</ele>
        <time>2020-09-27T12:53:40.262Z</time>
      </trkpt>
      <trkpt lat="64.88218" lon="21.14463">
        <ele>58.492547</ele>
        <time>2020-09-27T12:53:43.267Z</time>
      </trkpt>
      <trkpt lat="64.88216" lon="21.1444">
        <ele>58.719368</ele>
        <time>2020-09-27T12:53:46.282Z</time>
      </trkpt>
      <trkpt lat="64.88214" lon="21.14414">
        <ele>58.989604</ele>
        <time>2020-09-27T12:53:50.304Z</time>
      </trkpt>
      <trkpt lat="64.88213" lon="21.14385">
        <ele>59.274321</ele>
        <time>2020-09-27T12:53:54.275Z</time>
      </trkpt>
      <trkpt lat="64.88212" lon="21.14359">
        <ele>59.5406</ele>
        <time>2020-09-27T12:53:58.265Z</time>
      </trkpt>
      <trkpt lat="64.88211" lon="21.14338">
        <ele>59.755638</ele>
        <time>2020-09-27T12:54:01.264Z</time>
      </trkpt>
      <trkpt lat="64.8821" lon="21.14316">
        <ele>59.979274</ele>
        <time>2020-09-27T12:54:04.268Z</time>
      </trkpt>
      <trkpt lat="64.8821" lon="21.14292">
        <ele>60.221394</ele>
        <time>2020-09-27T12:54:07.305Z</time>
      </trkpt>
      <trkpt lat="64.8821" lon="21.14267">
        <ele>60.468572</ele>
        <time>2020-09-27T12:54:10.263Z</time>
      </trkpt>
      <trkpt lat="64.88211" lon="21.14241">
        <ele>60.725629</ele>
        <time>2020-09-27T12:54:13.280Z</time>
      </trkpt>
      <trkpt lat="64.88211" lon="21.14212">
        <ele>60.503021</ele>
        <time>2020-09-27T12:54:16.275Z</time>
      </trkpt>
      <trkpt lat="64.88211" lon="21.14189">
        <ele>60.153234</ele>
        <time>2020-09-27T12:54:18.285Z</time>
      </trkpt>
      <trkpt lat="64.88211" lon="21.14164">
        <ele>59.767938</ele>
        <time>2020-09-27T12:54:20.290Z</time>
      </trkpt>
      <trkpt lat="64.8821" lon="21.1414">
        <ele>59.392636</ele>
        <time>2020-09-27T12:54:22.306Z</time>
      </trkpt>
      <trkpt lat="64.88211" lon="21.14114">
        <ele>58.994816</ele>
        <time>2020-09-27T12:54:24.292Z</time>
      </trkpt>
      <trkpt lat="64.88211" lon="21.14088">
        <ele>58.592639</ele>
        <time>2020-09-27T12:54:26.268Z</time>
      </trkpt>
      <trkpt lat="64.8821" lon="21.1406">
        <ele>58.171908</ele>
        <time>2020-09-27T12:54:28.293Z</time>
      </trkpt>
      <trkpt lat="64.8821" lon="21.14032">
        <ele>57.729651</ele>
        <time>2020-09-27T12:54:30.257Z</time>
      </trkpt>
      <trkpt lat="64.8821" lon="21.14003">
        <ele>57.279179</ele>
        <time>2020-09-27T12:54:32.265Z</time>
      </trkpt>
      <trkpt lat="64.8821" lon="21.13972">
        <ele>56.801441</ele>
        <time>2020-09-27T12:54:34.272Z</time>
      </trkpt>
      <trkpt lat="64.8821" lon="21.13941">
        <ele>56.331239</ele>
        <time>2020-09-27T12:54:36.266Z</time>
      </trkpt>
      <trkpt lat="64.8821" lon="21.13912">
        <ele>55.888938</ele>
        <time>2020-09-27T12:54:38.266Z</time>
      </trkpt>
      <trkpt lat="64.88209" lon="21.13884">
        <ele>55.457785</ele>
        <time>2020-09-27T12:54:40.265Z</time>
      </trkpt>
      <trkpt lat="64.88207" lon="21.13858">
        <ele>55.051854</ele>
        <time>2020-09-27T12:54:42.279Z</time>
      </trkpt>
      <trkpt lat="64.88204" lon="21.13834">
        <ele>54.656958</ele>
        <time>2020-09-27T12:54:44.273Z</time>
      </trkpt>
      <trkpt lat="64.882" lon="21.13812">
        <ele>54.293826</ele>
        <time>2020-09-27T12:54:46.277Z</time>
      </trkpt>
      <trkpt lat="64.88197" lon="21.13791">
        <ele>54.34457</ele>
        <time>2020-09-27T12:54:48.292Z</time>
      </trkpt>
      <trkpt lat="64.88193" lon="21.13768">
        <ele>54.406357</ele>
        <time>2020-09-27T12:54:50.249Z</time>
      </trkpt>
      <trkpt lat="64.8819" lon="21.13744">
        <ele>54.469143</ele>
        <time>2020-09-27T12:54:52.275Z</time>
      </trkpt>
      <trkpt lat="64.88186" lon="21.13717">
        <ele>54.540155</ele>
        <time>2020-09-27T12:54:54.253Z</time>
      </trkpt>
      <trkpt lat="64.88182" lon="21.13691">
        <ele>54.608809</ele>
        <time>2020-09-27T12:54:56.279Z</time>
      </trkpt>
      <trkpt lat="64.88178" lon="21.13669">
        <ele>54.668598</ele>
        <time>2020-09-27T12:54:58.261Z</time>
      </trkpt>
      <trkpt lat="64.88175" lon="21.13649">
        <ele>54.724482</ele>
        <time>2020-09-27T12:55:00.265Z</time>
      </trkpt>
      <trkpt lat="64.88171" lon="21.13628">
        <ele>54.782454</ele>
        <time>2020-09-27T12:55:02.260Z</time>
      </trkpt>
      <trkpt lat="64.88167" lon="21.13608">
        <ele>54.836984</ele>
        <time>2020-09-27T12:55:04.282Z</time>
      </trkpt>
      <trkpt lat="64.88161" lon="21.1358">
        <ele>54.914721</ele>
        <time>2020-09-27T12:55:07.304Z</time>
      </trkpt>
      <trkpt lat="64.88155" lon="21.13553">
        <ele>54.989649</ele>
        <time>2020-09-27T12:55:10.281Z</time>
      </trkpt>
      <trkpt lat="64.88149" lon="21.13528">
        <ele>55.060356</ele>
        <time>2020-09-27T12:55:13.276Z</time>
      </trkpt>
      <trkpt lat="64.88144" lon="21.13504">
        <ele>55.127615</ele>
        <time>2020-09-27T12:55:16.313Z</time>
      </trkpt>
      <trkpt lat="64.88139" lon="21.13479">
        <ele>55.196162</ele>
        <time>2020-09-27T12:55:19.260Z</time>
      </trkpt>
      <trkpt lat="64.88134" lon="21.13455">
        <ele>55.263923</ele>
        <time>2020-09-27T12:55:22.262Z</time>
      </trkpt>
      <trkpt lat="64.88129" lon="21.13435">
        <ele>55.324196</ele>
        <time>2020-09-27T12:55:25.249Z</time>
      </trkpt>
      <trkpt lat="64.88123" lon="21.13413">
        <ele>55.423835</ele>
        <time>2020-09-27T12:55:28.257Z</time>
      </trkpt>
      <trkpt lat="64.88119" lon="21.13391">
        <ele>55.542227</ele>
        <time>2020-09-27T12:55:31.295Z</time>
      </trkpt>
      <trkpt lat="64.88114" lon="21.13367">
        <ele>55.673268</ele>
        <time>2020-09-27T12:55:34.296Z</time>
      </trkpt>
      <trkpt lat="64.88109" lon="21.13344">
        <ele>55.798581</ele>
        <time>2020-09-27T12:55:37.301Z</time>
      </trkpt>
      <trkpt lat="64.88103" lon="21.13323">
        <ele>55.922466</ele>
        <time>2020-09-27T12:55:40.262Z</time>
      </trkpt>
      <trkpt lat="64.88098" lon="21.13302">
        <ele>56.043361</ele>
        <time>2020-09-27T12:55:43.270Z</time>
      </trkpt>
      <trkpt lat="64.88093" lon="21.13282">
        <ele>56.157905</ele>
        <time>2020-09-27T12:55:46.301Z</time>
      </trkpt>
      <trkpt lat="64.88088" lon="21.13261">
        <ele>56.274694</ele>
        <time>2020-09-27T12:55:49.278Z</time>
      </trkpt>
      <trkpt lat="64.88082" lon="21.13239">
        <ele>56.398478</ele>
        <time>2020-09-27T12:55:52.302Z</time>
      </trkpt>
      <trkpt lat="64.88077" lon="21.13218">
        <ele>56.517673</ele>
        <time>2020-09-27T12:55:55.299Z</time>
      </trkpt>
      <trkpt lat="64.88072" lon="21.13196">
        <ele>56.642872</ele>
        <time>2020-09-27T12:55:58.293Z</time>
      </trkpt>
      <trkpt lat="64.88066" lon="21.13171">
        <ele>56.776509</ele>
        <time>2020-09-27T12:56:01.255Z</time>
      </trkpt>
      <trkpt lat="64.88061" lon="21.13143">
        <ele>56.92873</ele>
        <time>2020-09-27T12:56:04.261Z</time>
      </trkpt>
      <trkpt lat="64.88055" lon="21.13116">
        <ele>57.080727</ele>
        <time>2020-09-27T12:56:07.266Z</time>
      </trkpt>
      <trkpt lat="64.88048" lon="21.13091">
        <ele>57.223115</ele>
        <time>2020-09-27T12:56:10.263Z</time>
      </trkpt>
      <trkpt lat="64.88042" lon="21.13067">
        <ele>57.357216</ele>
        <time>2020-09-27T12:56:13.286Z</time>
      </trkpt>
      <trkpt lat="64.88037" lon="21.13043">
        <ele>57.567447</ele>
        <time>2020-09-27T12:56:16.308Z</time>
      </trkpt>
      <trkpt lat="64.88031" lon="21.13021">
        <ele>57.845389</ele>
        <time>2020-09-27T12:56:19.308Z</time>
      </trkpt>
      <trkpt lat="64.88025" lon="21.12998">
        <ele>58.116199</ele>
        <time>2020-09-27T12:56:22.265Z</time>
      </trkpt>
      <trkpt lat="64.8802" lon="21.12977">
        <ele>58.365146</ele>
        <time>2020-09-27T12:56:25.277Z</time>
      </trkpt>
      <trkpt lat="64.88015" lon="21.12955">
        <ele>58.623955</ele>
        <time>2020-09-27T12:56:28.272Z</time>
      </trkpt>
      <trkpt lat="64.8801" lon="21.12933">
        <ele>58.889385</ele>
        <time>2020-09-27T12:56:31.292Z</time>
      </trkpt>
      <trkpt lat="64.88004" lon="21.1291">
        <ele>59.162127</ele>
        <time>2020-09-27T12:56:34.265Z</time>
      </trkpt>
      <trkpt lat="64.87999" lon="21.12889">
        <ele>59.420314</ele>
        <time>2020-09-27T12:56:37.271Z</time>
      </trkpt>
      <trkpt lat="64.87994" lon="21.12866">
        <ele>59.680299</ele>
        <time>2020-09-27T12:56:40.281Z</time>
      </trkpt>
      <trkpt lat="64.87989" lon="21.12844">
        <ele>59.937337</ele>
        <time>2020-09-27T12:56:43.292Z</time>
      </trkpt>
      <trkpt lat="64.87984" lon="21.12821">
        <ele>60.205764</ele>
        <time>2020-09-27T12:56:46.269Z</time>
      </trkpt>
      <trkpt lat="64.87979" lon="21.128">
        <ele>60.453145</ele>
        <time>2020-09-27T12:56:49.300Z</time>
      </trkpt>
      <trkpt lat="64.87974" lon="21.12779">
        <ele>60.7069</ele>
        <time>2020-09-27T12:56:52.283Z</time>
      </trkpt>
      <trkpt lat="64.87969" lon="21.12758">
        <ele>60.957279</ele>
        <time>2020-09-27T12:56:55.278Z</time>
      </trkpt>
      <trkpt lat="64.87964" lon="21.12735">
        <ele>61.216534</ele>
        <time>2020-09-27T12:56:58.286Z</time>
      </trkpt>
      <trkpt lat="64.8796" lon="21.12715">
        <ele>61.454739</ele>
        <time>2020-09-27T12:57:01.282Z</time>
      </trkpt>
      <trkpt lat="64.87955" lon="21.12697">
        <ele>61.679391</ele>
        <time>2020-09-27T12:57:04.284Z</time>
      </trkpt>
      <trkpt lat="64.87949" lon="21.12674">
        <ele>62.146807</ele>
        <time>2020-09-27T12:57:08.274Z</time>
      </trkpt>
      <trkpt lat="64.87943" lon="21.12652">
        <ele>62.745324</ele>
        <time>2020-09-27T12:57:12.302Z</time>
      </trkpt>
      <trkpt lat="64.87938" lon="21.12627">
        <ele>63.373931</ele>
        <time>2020-09-27T12:57:16.322Z</time>
      </trkpt>
      <trkpt lat="64.87933" lon="21.12603">
        <ele>63.997587</ele>
        <time>2020-09-27T12:57:20.268Z</time>
      </trkpt>
      <trkpt lat="64.87928" lon="21.1258">
        <ele>64.612617</ele>
        <time>2020-09-27T12:57:24.278Z</time>
      </trkpt>
      <trkpt lat="64.87923" lon="21.12557">
        <ele>65.203178</ele>
        <time>2020-09-27T12:57:28.256Z</time>
      </trkpt>
      <trkpt lat="64.87918" lon="21.12535">
        <ele>65.769187</ele>
        <time>2020-09-27T12:57:32.268Z</time>
      </trkpt>
      <trkpt lat="64.87913" lon="21.12514">
        <ele>66.318192</ele>
        <time>2020-09-27T12:57:36.274Z</time>
      </trkpt>
      <trkpt lat="64.87908" lon="21.12492">
        <ele>66.907951</ele>
        <time>2020-09-27T12:57:41.283Z</time>
      </trkpt>
      <trkpt lat="64.87903" lon="21.12469">
        <ele>67.511089</ele>
        <time>2020-09-27T12:57:46.272Z</time>
      </trkpt>
      <trkpt lat="64.87899" lon="21.1245">
        <ele>68.00165</ele>
        <time>2020-09-27T12:57:50.251Z</time>
      </trkpt>
      <trkpt lat="64.87894" lon="21.12432">
        <ele>68.50254</ele>
        <time>2020-09-27T12:57:55.294Z</time>
      </trkpt>
      <trkpt lat="64.87888" lon="21.12411">
        <ele>69.063245</ele>
        <time>2020-09-27T12:58:00.329Z</time>
      </trkpt>
      <trkpt lat="64.87884" lon="21.12393">
        <ele>69.557206</ele>
        <time>2020-09-27T12:58:04.268Z</time>
      </trkpt>
      <trkpt lat="64.87879" lon="21.12374">
        <ele>70.046408</ele>
        <time>2020-09-27T12:58:08.271Z</time>
      </trkpt>
      <trkpt lat="64.87874" lon="21.12355">
        <ele>70.567759</ele>
        <time>2020-09-27T12:58:12.263Z</time>
      </trkpt>
      <trkpt lat="64.8787" lon="21.12334">
        <ele>71.134116</ele>
        <time>2020-09-27T12:58:16.281Z</time>
      </trkpt>
      <trkpt lat="64.87864" lon="21.1231">
        <ele>71.541434</ele>
        <time>2020-09-27T12:58:20.278Z</time>
      </trkpt>
      <trkpt lat="64.8786" lon="21.1229">
        <ele>71.271212</ele>
        <time>2020-09-27T12:58:23.278Z</time>
      </trkpt>
      <trkpt lat="64.87855" lon="21.12267">
        <ele>70.972306</ele>
        <time>2020-09-27T12:58:26.263Z</time>
      </trkpt>
      <trkpt lat="64.8785" lon="21.12243">
        <ele>70.652808</ele>
        <time>2020-09-27T12:58:29.313Z</time>
      </trkpt>
      <trkpt lat="64.87845" lon="21.12218">
        <ele>70.317643</ele>
        <time>2020-09-27T12:58:32.260Z</time>
      </trkpt>
      <trkpt lat="64.87839" lon="21.12191">
        <ele>69.95093</ele>
        <time>2020-09-27T12:58:35.271Z</time>
      </trkpt>
      <trkpt lat="64.87835" lon="21.12172">
        <ele>69.692862</ele>
        <time>2020-09-27T12:58:37.293Z</time>
      </trkpt>
      <trkpt lat="64.8783" lon="21.12153">
        <ele>69.428503</ele>
        <time>2020-09-27T12:58:39.274Z</time>
      </trkpt>
      <trkpt lat="64.87826" lon="21.12133">
        <ele>69.160675</ele>
        <time>2020-09-27T12:58:41.271Z</time>
      </trkpt>
      <trkpt lat="64.87821" lon="21.12113">
        <ele>68.887583</ele>
        <time>2020-09-27T12:58:43.262Z</time>
      </trkpt>
      <trkpt lat="64.87817" lon="21.12093">
        <ele>68.614765</ele>
        <time>2020-09-27T12:58:45.270Z</time>
      </trkpt>
      <trkpt lat="64.87812" lon="21.12073">
        <ele>68.344069</ele>
        <time>2020-09-27T12:58:47.270Z</time>
      </trkpt>
      <trkpt lat="64.87808" lon="21.12053">
        <ele>68.071716</ele>
        <time>2020-09-27T12:58:49.257Z</time>
      </trkpt>
      <trkpt lat="64.87803" lon="21.12033">
        <ele>67.795521</ele>
        <time>2020-09-27T12:58:51.300Z</time>
      </trkpt>
      <trkpt lat="64.87798" lon="21.12013">
        <ele>67.518966</ele>
        <time>2020-09-27T12:58:53.253Z</time>
      </trkpt>
      <trkpt lat="64.87793" lon="21.11992">
        <ele>67.227088</ele>
        <time>2020-09-27T12:58:55.265Z</time>
      </trkpt>
      <trkpt lat="64.87787" lon="21.11969">
        <ele>66.911203</ele>
        <time>2020-09-27T12:58:57.297Z</time>
      </trkpt>
      <trkpt lat="64.87781" lon="21.11944">
        <ele>66.553074</ele>
        <time>2020-09-27T12:58:59.279Z</time>
      </trkpt>
      <trkpt lat="64.87773" lon="21.11915">
        <ele>65.702637</ele>
        <time>2020-09-27T12:59:01.298Z</time>
      </trkpt>
      <trkpt lat="64.87764" lon="21.11884">
        <ele>64.720732</ele>
        <time>2020-09-27T12:59:03.278Z</time>
      </trkpt>
      <trkpt lat="64.87756" lon="21.11851">
        <ele>63.71602</ele>
        <time>2020-09-27T12:59:05.345Z</time>
      </trkpt>
      <trkpt lat="64.87746" lon="21.11817">
        <ele>62.662974</ele>
        <time>2020-09-27T12:59:07.274Z</time>
      </trkpt>
      <trkpt lat="64.87736" lon="21.11782">
        <ele>61.563168</ele>
        <time>2020-09-27T12:59:09.305Z</time>
      </trkpt>
      <trkpt lat="64.87731" lon="21.11765">
        <ele>60.998412</ele>
        <time>2020-09-27T12:59:10.262Z</time>
      </trkpt>
      <trkpt lat="64.87725" lon="21.11747">
        <ele>60.427312</ele>
        <time>2020-09-27T12:59:11.304Z</time>
      </trkpt>
      <trkpt lat="64.8772" lon="21.11729">
        <ele>59.863997</ele>
        <time>2020-09-27T12:59:12.272Z</time>
      </trkpt>
      <trkpt lat="64.87714" lon="21.11712">
        <ele>59.309725</ele>
        <time>2020-09-27T12:59:13.264Z</time>
      </trkpt>
      <trkpt lat="64.87704" lon="21.11679">
        <ele>58.239264</ele>
        <time>2020-09-27T12:59:15.274Z</time>
      </trkpt>
      <trkpt lat="64.87694" lon="21.11647">
        <ele>57.217291</ele>
        <time>2020-09-27T12:59:17.258Z</time>
      </trkpt>
      <trkpt lat="64.87685" lon="21.11617">
        <ele>56.259472</ele>
        <time>2020-09-27T12:59:19.308Z</time>
      </trkpt>
      <trkpt lat="64.87677" lon="21.11589">
        <ele>55.465894</ele>
        <time>2020-09-27T12:59:21.285Z</time>
      </trkpt>
      <trkpt lat="64.87669" lon="21.11563">
        <ele>55.185707</ele>
        <time>2020-09-27T12:59:23.293Z</time>
      </trkpt>
      <trkpt lat="64.87661" lon="21.11538">
        <ele>54.926376</ele>
        <time>2020-09-27T12:59:25.252Z</time>
      </trkpt>
      <trkpt lat="64.87655" lon="21.11515">
        <ele>54.684946</ele>
        <time>2020-09-27T12:59:27.306Z</time>
      </trkpt>
      <trkpt lat="64.87649" lon="21.11492">
        <ele>54.456885</ele>
        <time>2020-09-27T12:59:29.259Z</time>
      </trkpt>
      <trkpt lat="64.87644" lon="21.1147">
        <ele>54.244883</ele>
        <time>2020-09-27T12:59:31.264Z</time>
      </trkpt>
      <trkpt lat="64.8764" lon="21.1145">
        <ele>54.049106</ele>
        <time>2020-09-27T12:59:33.266Z</time>
      </trkpt>
      <trkpt lat="64.87637" lon="21.11429">
        <ele>53.858106</ele>
        <time>2020-09-27T12:59:35.274Z</time>
      </trkpt>
      <trkpt lat="64.87633" lon="21.11408">
        <ele>53.663611</ele>
        <time>2020-09-27T12:59:37.278Z</time>
      </trkpt>
      <trkpt lat="64.87631" lon="21.11387">
        <ele>53.480835</ele>
        <time>2020-09-27T12:59:39.280Z</time>
      </trkpt>
      <trkpt lat="64.87629" lon="21.11367">
        <ele>53.298309</ele>
        <time>2020-09-27T12:59:41.270Z</time>
      </trkpt>
      <trkpt lat="64.87625" lon="21.11336">
        <ele>53.028696</ele>
        <time>2020-09-27T12:59:44.272Z</time>
      </trkpt>
      <trkpt lat="64.87623" lon="21.11307">
        <ele>52.765553</ele>
        <time>2020-09-27T12:59:47.254Z</time>
      </trkpt>
      <trkpt lat="64.87622" lon="21.11285">
        <ele>52.577427</ele>
        <time>2020-09-27T12:59:49.279Z</time>
      </trkpt>
      <trkpt lat="64.87621" lon="21.11264">
        <ele>52.39272</ele>
        <time>2020-09-27T12:59:51.282Z</time>
      </trkpt>
      <trkpt lat="64.87619" lon="21.11242">
        <ele>52.204822</ele>
        <time>2020-09-27T12:59:53.267Z</time>
      </trkpt>
      <trkpt lat="64.87618" lon="21.1122">
        <ele>52.017484</ele>
        <time>2020-09-27T12:59:55.266Z</time>
      </trkpt>
      <trkpt lat="64.87618" lon="21.1119">
        <ele>51.922965</ele>
        <time>2020-09-27T12:59:58.273Z</time>
      </trkpt>
      <trkpt lat="64.87617" lon="21.11161">
        <ele>52.056849</ele>
        <time>2020-09-27T13:00:01.285Z</time>
      </trkpt>
      <trkpt lat="64.87617" lon="21.11133">
        <ele>52.185803</ele>
        <time>2020-09-27T13:00:04.262Z</time>
      </trkpt>
      <trkpt lat="64.87617" lon="21.11103">
        <ele>52.321044</ele>
        <time>2020-09-27T13:00:07.273Z</time>
      </trkpt>
      <trkpt lat="64.87617" lon="21.11074">
        <ele>52.454036</ele>
        <time>2020-09-27T13:00:10.270Z</time>
      </trkpt>
      <trkpt lat="64.87618" lon="21.11044">
        <ele>52.593528</ele>
        <time>2020-09-27T13:00:13.262Z</time>
      </trkpt>
      <trkpt lat="64.8762" lon="21.11015">
        <ele>52.726306</ele>
        <time>2020-09-27T13:00:16.289Z</time>
      </trkpt>
      <trkpt lat="64.8762" lon="21.10985">
        <ele>52.860737</ele>
        <time>2020-09-27T13:00:19.286Z</time>
      </trkpt>
      <trkpt lat="64.87621" lon="21.10964">
        <ele>52.957745</ele>
        <time>2020-09-27T13:00:21.265Z</time>
      </trkpt>
      <trkpt lat="64.87621" lon="21.10934">
        <ele>53.095334</ele>
        <time>2020-09-27T13:00:24.269Z</time>
      </trkpt>
      <trkpt lat="64.87621" lon="21.10905">
        <ele>53.22692</ele>
        <time>2020-09-27T13:00:27.300Z</time>
      </trkpt>
      <trkpt lat="64.8762" lon="21.10874">
        <ele>53.372008</ele>
        <time>2020-09-27T13:00:30.278Z</time>
      </trkpt>
      <trkpt lat="64.8762" lon="21.10849">
        <ele>53.482121</ele>
        <time>2020-09-27T13:00:32.253Z</time>
      </trkpt>
      <trkpt lat="64.8762" lon="21.10826">
        <ele>53.590907</ele>
        <time>2020-09-27T13:00:34.288Z</time>
      </trkpt>
      <trkpt lat="64.87621" lon="21.10802">
        <ele>53.698361</ele>
        <time>2020-09-27T13:00:36.277Z</time>
      </trkpt>
      <trkpt lat="64.87622" lon="21.10779">
        <ele>53.811252</ele>
        <time>2020-09-27T13:00:38.325Z</time>
      </trkpt>
      <trkpt lat="64.87622" lon="21.10756">
        <ele>54.049755</ele>
        <time>2020-09-27T13:00:40.259Z</time>
      </trkpt>
      <trkpt lat="64.87623" lon="21.10733">
        <ele>54.280161</ele>
        <time>2020-09-27T13:00:42.304Z</time>
      </trkpt>
      <trkpt lat="64.87623" lon="21.10711">
        <ele>54.511277</ele>
        <time>2020-09-27T13:00:44.272Z</time>
      </trkpt>
      <trkpt lat="64.87623" lon="21.10679">
        <ele>54.834849</ele>
        <time>2020-09-27T13:00:47.272Z</time>
      </trkpt>
      <trkpt lat="64.87623" lon="21.10658">
        <ele>55.052665</ele>
        <time>2020-09-27T13:00:49.298Z</time>
      </trkpt>
      <trkpt lat="64.87623" lon="21.10636">
        <ele>55.277826</ele>
        <time>2020-09-27T13:00:51.268Z</time>
      </trkpt>
      <trkpt lat="64.87623" lon="21.10614">
        <ele>55.500738</ele>
        <time>2020-09-27T13:00:53.261Z</time>
      </trkpt>
      <trkpt lat="64.87622" lon="21.10593">
        <ele>55.721206</ele>
        <time>2020-09-27T13:00:55.264Z</time>
      </trkpt>
      <trkpt lat="64.87621" lon="21.10562">
        <ele>56.03612</ele>
        <time>2020-09-27T13:00:58.281Z</time>
      </trkpt>
      <trkpt lat="64.87621" lon="21.10532">
        <ele>56.349448</ele>
        <time>2020-09-27T13:01:01.274Z</time>
      </trkpt>
      <trkpt lat="64.87621" lon="21.10509">
        <ele>56.579537</ele>
        <time>2020-09-27T13:01:03.292Z</time>
      </trkpt>
      <trkpt lat="64.87621" lon="21.10487">
        <ele>56.807687</ele>
        <time>2020-09-27T13:01:05.272Z</time>
      </trkpt>
      <trkpt lat="64.87622" lon="21.10465">
        <ele>57.032848</ele>
        <time>2020-09-27T13:01:07.262Z</time>
      </trkpt>
      <trkpt lat="64.87622" lon="21.10444">
        <ele>57.256826</ele>
        <time>2020-09-27T13:01:09.313Z</time>
      </trkpt>
      <trkpt lat="64.87621" lon="21.10412">
        <ele>57.578219</ele>
        <time>2020-09-27T13:01:12.277Z</time>
      </trkpt>
      <trkpt lat="64.8762" lon="21.1039">
        <ele>57.805857</ele>
        <time>2020-09-27T13:01:14.275Z</time>
      </trkpt>
      <trkpt lat="64.87619" lon="21.10368">
        <ele>58.031981</ele>
        <time>2020-09-27T13:01:16.266Z</time>
      </trkpt>
      <trkpt lat="64.87617" lon="21.10347">
        <ele>58.020102</ele>
        <time>2020-09-27T13:01:18.287Z</time>
      </trkpt>
      <trkpt lat="64.87614" lon="21.10318">
        <ele>57.612655</ele>
        <time>2020-09-27T13:01:21.285Z</time>
      </trkpt>
      <trkpt lat="64.87612" lon="21.10297">
        <ele>57.326256</ele>
        <time>2020-09-27T13:01:23.263Z</time>
      </trkpt>
      <trkpt lat="64.87609" lon="21.10269">
        <ele>56.933108</ele>
        <time>2020-09-27T13:01:26.259Z</time>
      </trkpt>
      <trkpt lat="64.87605" lon="21.1024">
        <ele>56.539587</ele>
        <time>2020-09-27T13:01:29.257Z</time>
      </trkpt>
      <trkpt lat="64.87602" lon="21.1021">
        <ele>56.124325</ele>
        <time>2020-09-27T13:01:32.283Z</time>
      </trkpt>
      <trkpt lat="64.87601" lon="21.10189">
        <ele>55.832259</ele>
        <time>2020-09-27T13:01:34.262Z</time>
      </trkpt>
      <trkpt lat="64.87599" lon="21.10158">
        <ele>55.414904</ele>
        <time>2020-09-27T13:01:37.310Z</time>
      </trkpt>
      <trkpt lat="64.87597" lon="21.10127">
        <ele>54.992315</ele>
        <time>2020-09-27T13:01:40.302Z</time>
      </trkpt>
      <trkpt lat="64.87594" lon="21.10096">
        <ele>54.57588</ele>
        <time>2020-09-27T13:01:43.281Z</time>
      </trkpt>
      <trkpt lat="64.87592" lon="21.10075">
        <ele>54.271418</ele>
        <time>2020-09-27T13:01:45.278Z</time>
      </trkpt>
      <trkpt lat="64.87589" lon="21.10051">
        <ele>53.948418</ele>
        <time>2020-09-27T13:01:47.280Z</time>
      </trkpt>
      <trkpt lat="64.87586" lon="21.10028">
        <ele>53.624167</ele>
        <time>2020-09-27T13:01:49.263Z</time>
      </trkpt>
      <trkpt lat="64.87583" lon="21.10005">
        <ele>53.301202</ele>
        <time>2020-09-27T13:01:51.259Z</time>
      </trkpt>
      <trkpt lat="64.87581" lon="21.09982">
        <ele>52.994228</ele>
        <time>2020-09-27T13:01:53.294Z</time>
      </trkpt>
      <trkpt lat="64.8758" lon="21.09961">
        <ele>52.697787</ele>
        <time>2020-09-27T13:01:55.298Z</time>
      </trkpt>
      <trkpt lat="64.87578" lon="21.09938">
        <ele>52.423571</ele>
        <time>2020-09-27T13:01:57.301Z</time>
      </trkpt>
      <trkpt lat="64.87577" lon="21.09917">
        <ele>52.244167</ele>
        <time>2020-09-27T13:01:59.274Z</time>
      </trkpt>
      <trkpt lat="64.87574" lon="21.09888">
        <ele>51.990649</ele>
        <time>2020-09-27T13:02:02.286Z</time>
      </trkpt>
      <trkpt lat="64.87572" lon="21.0986">
        <ele>51.753717</ele>
        <time>2020-09-27T13:02:05.267Z</time>
      </trkpt>
      <trkpt lat="64.8757" lon="21.09833">
        <ele>51.517395</ele>
        <time>2020-09-27T13:02:08.260Z</time>
      </trkpt>
      <trkpt lat="64.87567" lon="21.09803">
        <ele>51.258054</ele>
        <time>2020-09-27T13:02:11.293Z</time>
      </trkpt>
      <trkpt lat="64.87563" lon="21.09773">
        <ele>50.995662</ele>
        <time>2020-09-27T13:02:14.270Z</time>
      </trkpt>
      <trkpt lat="64.87559" lon="21.09743">
        <ele>50.735493</ele>
        <time>2020-09-27T13:02:17.271Z</time>
      </trkpt>
      <trkpt lat="64.87557" lon="21.09715">
        <ele>50.494087</ele>
        <time>2020-09-27T13:02:20.260Z</time>
      </trkpt>
      <trkpt lat="64.87555" lon="21.09687">
        <ele>50.25746</ele>
        <time>2020-09-27T13:02:23.271Z</time>
      </trkpt>
      <trkpt lat="64.87554" lon="21.09666">
        <ele>50.079422</ele>
        <time>2020-09-27T13:02:25.302Z</time>
      </trkpt>
      <trkpt lat="64.87552" lon="21.09636">
        <ele>49.822529</ele>
        <time>2020-09-27T13:02:28.301Z</time>
      </trkpt>
      <trkpt lat="64.87552" lon="21.09607">
        <ele>49.576698</ele>
        <time>2020-09-27T13:02:31.269Z</time>
      </trkpt>
      <trkpt lat="64.87552" lon="21.09577">
        <ele>49.32339</ele>
        <time>2020-09-27T13:02:34.274Z</time>
      </trkpt>
      <trkpt lat="64.87551" lon="21.09555">
        <ele>49.145568</ele>
        <time>2020-09-27T13:02:36.266Z</time>
      </trkpt>
      <trkpt lat="64.87549" lon="21.09528">
        <ele>48.915059</ele>
        <time>2020-09-27T13:02:39.264Z</time>
      </trkpt>
      <trkpt lat="64.87548" lon="21.09502">
        <ele>49.209283</ele>
        <time>2020-09-27T13:02:42.264Z</time>
      </trkpt>
      <trkpt lat="64.87547" lon="21.09473">
        <ele>49.550605</ele>
        <time>2020-09-27T13:02:45.262Z</time>
      </trkpt>
      <trkpt lat="64.87547" lon="21.09451">
        <ele>49.798582</ele>
        <time>2020-09-27T13:02:47.260Z</time>
      </trkpt>
      <trkpt lat="64.87547" lon="21.09422">
        <ele>50.143009</ele>
        <time>2020-09-27T13:02:50.283Z</time>
      </trkpt>
      <trkpt lat="64.87546" lon="21.09389">
        <ele>50.526304</ele>
        <time>2020-09-27T13:02:53.289Z</time>
      </trkpt>
      <trkpt lat="64.87545" lon="21.09363">
        <ele>50.827516</ele>
        <time>2020-09-27T13:02:55.299Z</time>
      </trkpt>
      <trkpt lat="64.87543" lon="21.09337">
        <ele>51.138212</ele>
        <time>2020-09-27T13:02:57.313Z</time>
      </trkpt>
      <trkpt lat="64.87542" lon="21.09311">
        <ele>51.442009</ele>
        <time>2020-09-27T13:02:59.300Z</time>
      </trkpt>
      <trkpt lat="64.87541" lon="21.09288">
        <ele>51.710489</ele>
        <time>2020-09-27T13:03:01.276Z</time>
      </trkpt>
      <trkpt lat="64.8754" lon="21.09257">
        <ele>52.075521</ele>
        <time>2020-09-27T13:03:04.256Z</time>
      </trkpt>
      <trkpt lat="64.87538" lon="21.09228">
        <ele>52.415452</ele>
        <time>2020-09-27T13:03:07.305Z</time>
      </trkpt>
      <trkpt lat="64.87537" lon="21.09202">
        <ele>52.718774</ele>
        <time>2020-09-27T13:03:10.334Z</time>
      </trkpt>
      <trkpt lat="64.87537" lon="21.09177">
        <ele>53.001437</ele>
        <time>2020-09-27T13:03:13.282Z</time>
      </trkpt>
      <trkpt lat="64.87535" lon="21.09155">
        <ele>53.261433</ele>
        <time>2020-09-27T13:03:16.271Z</time>
      </trkpt>
      <trkpt lat="64.87533" lon="21.09133">
        <ele>53.530131</ele>
        <time>2020-09-27T13:03:20.260Z</time>
      </trkpt>
      <trkpt lat="64.8753" lon="21.09111">
        <ele>53.790403</ele>
        <time>2020-09-27T13:03:24.264Z</time>
      </trkpt>
      <trkpt lat="64.87527" lon="21.09087">
        <ele>53.813212</ele>
        <time>2020-09-27T13:03:29.270Z</time>
      </trkpt>
      <trkpt lat="64.87523" lon="21.09068">
        <ele>53.788828</ele>
        <time>2020-09-27T13:03:34.280Z</time>
      </trkpt>
      <trkpt lat="64.87517" lon="21.09048">
        <ele>53.761295</ele>
        <time>2020-09-27T13:03:40.265Z</time>
      </trkpt>
      <trkpt lat="64.87515" lon="21.09024">
        <ele>53.733006</ele>
        <time>2020-09-27T13:03:45.263Z</time>
      </trkpt>
      <trkpt lat="64.87518" lon="21.09003">
        <ele>53.708147</ele>
        <time>2020-09-27T13:03:48.293Z</time>
      </trkpt>
      <trkpt lat="64.87527" lon="21.08982">
        <ele>53.67461</ele>
        <time>2020-09-27T13:03:51.288Z</time>
      </trkpt>
      <trkpt lat="64.87536" lon="21.08961">
        <ele>53.639447</ele>
        <time>2020-09-27T13:03:54.264Z</time>
      </trkpt>
      <trkpt lat="64.87543" lon="21.08938">
        <ele>53.60777</ele>
        <time>2020-09-27T13:03:57.266Z</time>
      </trkpt>
      <trkpt lat="64.87546" lon="21.08911">
        <ele>53.576347</ele>
        <time>2020-09-27T13:04:00.292Z</time>
      </trkpt>
      <trkpt lat="64.87543" lon="21.08885">
        <ele>53.545652</ele>
        <time>2020-09-27T13:04:02.260Z</time>
      </trkpt>
      <trkpt lat="64.87535" lon="21.08853">
        <ele>53.50399</ele>
        <time>2020-09-27T13:04:04.293Z</time>
      </trkpt>
      <trkpt lat="64.87523" lon="21.08822">
        <ele>53.455241</ele>
        <time>2020-09-27T13:04:06.274Z</time>
      </trkpt>
      <trkpt lat="64.87516" lon="21.08807">
        <ele>53.430037</ele>
        <time>2020-09-27T13:04:07.259Z</time>
      </trkpt>
      <trkpt lat="64.87509" lon="21.0879">
        <ele>53.403484</ele>
        <time>2020-09-27T13:04:08.291Z</time>
      </trkpt>
      <trkpt lat="64.87502" lon="21.08773">
        <ele>53.376452</ele>
        <time>2020-09-27T13:04:09.285Z</time>
      </trkpt>
      <trkpt lat="64.87495" lon="21.08755">
        <ele>53.271055</ele>
        <time>2020-09-27T13:04:10.271Z</time>
      </trkpt>
      <trkpt lat="64.87488" lon="21.08737">
        <ele>52.760905</ele>
        <time>2020-09-27T13:04:11.271Z</time>
      </trkpt>
      <trkpt lat="64.87481" lon="21.08719">
        <ele>52.254094</ele>
        <time>2020-09-27T13:04:12.270Z</time>
      </trkpt>
      <trkpt lat="64.87474" lon="21.08702">
        <ele>51.754791</ele>
        <time>2020-09-27T13:04:13.270Z</time>
      </trkpt>
      <trkpt lat="64.87467" lon="21.08684">
        <ele>51.247212</ele>
        <time>2020-09-27T13:04:14.305Z</time>
      </trkpt>
      <trkpt lat="64.8746" lon="21.08666">
        <ele>50.753339</ele>
        <time>2020-09-27T13:04:15.300Z</time>
      </trkpt>
      <trkpt lat="64.87453" lon="21.08649">
        <ele>50.276929</ele>
        <time>2020-09-27T13:04:16.260Z</time>
      </trkpt>
      <trkpt lat="64.87447" lon="21.08633">
        <ele>49.817584</ele>
        <time>2020-09-27T13:04:17.278Z</time>
      </trkpt>
      <trkpt lat="64.87441" lon="21.08617">
        <ele>49.372803</ele>
        <time>2020-09-27T13:04:18.291Z</time>
      </trkpt>
      <trkpt lat="64.87435" lon="21.08601">
        <ele>48.92767</ele>
        <time>2020-09-27T13:04:19.279Z</time>
      </trkpt>
      <trkpt lat="64.87429" lon="21.08585">
        <ele>48.490401</ele>
        <time>2020-09-27T13:04:20.266Z</time>
      </trkpt>
      <trkpt lat="64.87417" lon="21.08556">
        <ele>47.644271</ele>
        <time>2020-09-27T13:04:22.283Z</time>
      </trkpt>
      <trkpt lat="64.87405" lon="21.08528">
        <ele>46.843131</ele>
        <time>2020-09-27T13:04:24.263Z</time>
      </trkpt>
      <trkpt lat="64.87394" lon="21.08502">
        <ele>46.05823</ele>
        <time>2020-09-27T13:04:26.293Z</time>
      </trkpt>
      <trkpt lat="64.87383" lon="21.08474">
        <ele>45.275305</ele>
        <time>2020-09-27T13:04:28.268Z</time>
      </trkpt>
      <trkpt lat="64.87373" lon="21.08443">
        <ele>44.504436</ele>
        <time>2020-09-27T13:04:30.285Z</time>
      </trkpt>
      <trkpt lat="64.87366" lon="21.08411">
        <ele>43.843741</ele>
        <time>2020-09-27T13:04:32.268Z</time>
      </trkpt>
      <trkpt lat="64.8736" lon="21.08378">
        <ele>43.198696</ele>
        <time>2020-09-27T13:04:34.294Z</time>
      </trkpt>
      <trkpt lat="64.87354" lon="21.08347">
        <ele>42.575216</ele>
        <time>2020-09-27T13:04:36.331Z</time>
      </trkpt>
      <trkpt lat="64.87349" lon="21.08317">
        <ele>41.975204</ele>
        <time>2020-09-27T13:04:38.265Z</time>
      </trkpt>
      <trkpt lat="64.87345" lon="21.08284">
        <ele>41.369278</ele>
        <time>2020-09-27T13:04:40.266Z</time>
      </trkpt>
      <trkpt lat="64.87345" lon="21.08252">
        <ele>40.786244</ele>
        <time>2020-09-27T13:04:42.265Z</time>
      </trkpt>
      <trkpt lat="64.87346" lon="21.08222">
        <ele>40.229284</ele>
        <time>2020-09-27T13:04:44.256Z</time>
      </trkpt>
      <trkpt lat="64.87348" lon="21.08194">
        <ele>39.71382</ele>
        <time>2020-09-27T13:04:46.300Z</time>
      </trkpt>
      <trkpt lat="64.87349" lon="21.08168">
        <ele>39.239447</ele>
        <time>2020-09-27T13:04:48.285Z</time>
      </trkpt>
      <trkpt lat="64.8735" lon="21.08142">
        <ele>38.778037</ele>
        <time>2020-09-27T13:04:50.279Z</time>
      </trkpt>
      <trkpt lat="64.87351" lon="21.08118">
        <ele>38.325245</ele>
        <time>2020-09-27T13:04:52.250Z</time>
      </trkpt>
      <trkpt lat="64.87352" lon="21.08092">
        <ele>37.867928</ele>
        <time>2020-09-27T13:04:54.287Z</time>
      </trkpt>
      <trkpt lat="64.87353" lon="21.08067">
        <ele>37.406518</ele>
        <time>2020-09-27T13:04:56.300Z</time>
      </trkpt>
      <trkpt lat="64.87354" lon="21.08042">
        <ele>36.940727</ele>
        <time>2020-09-27T13:04:58.279Z</time>
      </trkpt>
      <trkpt lat="64.87355" lon="21.08016">
        <ele>36.754965</ele>
        <time>2020-09-27T13:05:00.298Z</time>
      </trkpt>
      <trkpt lat="64.87356" lon="21.0799">
        <ele>36.597971</ele>
        <time>2020-09-27T13:05:02.266Z</time>
      </trkpt>
      <trkpt lat="64.87357" lon="21.07964">
        <ele>36.444944</ele>
        <time>2020-09-27T13:05:04.303Z</time>
      </trkpt>
      <trkpt lat="64.87358" lon="21.07939">
        <ele>36.293243</ele>
        <time>2020-09-27T13:05:06.281Z</time>
      </trkpt>
      <trkpt lat="64.87359" lon="21.07914">
        <ele>36.140552</ele>
        <time>2020-09-27T13:05:08.282Z</time>
      </trkpt>
      <trkpt lat="64.8736" lon="21.07889">
        <ele>35.99158</ele>
        <time>2020-09-27T13:05:10.288Z</time>
      </trkpt>
      <trkpt lat="64.8736" lon="21.07866">
        <ele>35.848134</ele>
        <time>2020-09-27T13:05:12.301Z</time>
      </trkpt>
      <trkpt lat="64.87359" lon="21.07842">
        <ele>35.706946</ele>
        <time>2020-09-27T13:05:14.266Z</time>
      </trkpt>
      <trkpt lat="64.87355" lon="21.0782">
        <ele>35.5617</ele>
        <time>2020-09-27T13:05:16.280Z</time>
      </trkpt>
      <trkpt lat="64.87349" lon="21.07801">
        <ele>35.418809</ele>
        <time>2020-09-27T13:05:18.288Z</time>
      </trkpt>
      <trkpt lat="64.87342" lon="21.07783">
        <ele>35.272167</ele>
        <time>2020-09-27T13:05:20.253Z</time>
      </trkpt>
      <trkpt lat="64.87334" lon="21.07767">
        <ele>35.125943</ele>
        <time>2020-09-27T13:05:22.277Z</time>
      </trkpt>
      <trkpt lat="64.87327" lon="21.07752">
        <ele>34.981093</ele>
        <time>2020-09-27T13:05:24.264Z</time>
      </trkpt>
      <trkpt lat="64.87319" lon="21.07734">
        <ele>34.830758</ele>
        <time>2020-09-27T13:05:26.309Z</time>
      </trkpt>
      <trkpt lat="64.87312" lon="21.07714">
        <ele>34.676452</ele>
        <time>2020-09-27T13:05:28.274Z</time>
      </trkpt>
      <trkpt lat="64.87306" lon="21.07692">
        <ele>34.517189</ele>
        <time>2020-09-27T13:05:30.258Z</time>
      </trkpt>
      <trkpt lat="64.87302" lon="21.07668">
        <ele>34.36527</ele>
        <time>2020-09-27T13:05:32.283Z</time>
      </trkpt>
      <trkpt lat="64.87301" lon="21.07644">
        <ele>34.289627</ele>
        <time>2020-09-27T13:05:34.265Z</time>
      </trkpt>
      <trkpt lat="64.87299" lon="21.0762">
        <ele>34.225908</ele>
        <time>2020-09-27T13:05:36.268Z</time>
      </trkpt>
      <trkpt lat="64.87298" lon="21.07596">
        <ele>34.161824</ele>
        <time>2020-09-27T13:05:38.267Z</time>
      </trkpt>
      <trkpt lat="64.87298" lon="21.07572">
        <ele>34.096824</ele>
        <time>2020-09-27T13:05:40.279Z</time>
      </trkpt>
      <trkpt lat="64.87297" lon="21.07549">
        <ele>34.034484</ele>
        <time>2020-09-27T13:05:42.266Z</time>
      </trkpt>
      <trkpt lat="64.87297" lon="21.07526">
        <ele>33.973246</ele>
        <time>2020-09-27T13:05:44.287Z</time>
      </trkpt>
      <trkpt lat="64.87297" lon="21.07502">
        <ele>33.909356</ele>
        <time>2020-09-27T13:05:46.264Z</time>
      </trkpt>
      <trkpt lat="64.87297" lon="21.07478">
        <ele>33.845658</ele>
        <time>2020-09-27T13:05:48.305Z</time>
      </trkpt>
      <trkpt lat="64.87296" lon="21.07454">
        <ele>33.782034</ele>
        <time>2020-09-27T13:05:50.287Z</time>
      </trkpt>
      <trkpt lat="64.87297" lon="21.0743">
        <ele>33.718098</ele>
        <time>2020-09-27T13:05:52.265Z</time>
      </trkpt>
      <trkpt lat="64.87298" lon="21.07406">
        <ele>33.654221</ele>
        <time>2020-09-27T13:05:54.268Z</time>
      </trkpt>
      <trkpt lat="64.87301" lon="21.07383">
        <ele>33.590657</ele>
        <time>2020-09-27T13:05:56.285Z</time>
      </trkpt>
      <trkpt lat="64.87305" lon="21.07359">
        <ele>33.522288</ele>
        <time>2020-09-27T13:05:58.270Z</time>
      </trkpt>
      <trkpt lat="64.8731" lon="21.07335">
        <ele>33.450691</ele>
        <time>2020-09-27T13:06:00.286Z</time>
      </trkpt>
      <trkpt lat="64.87315" lon="21.07312">
        <ele>33.379797</ele>
        <time>2020-09-27T13:06:02.288Z</time>
      </trkpt>
      <trkpt lat="64.8732" lon="21.07291">
        <ele>33.31594</ele>
        <time>2020-09-27T13:06:04.271Z</time>
      </trkpt>
      <trkpt lat="64.87326" lon="21.07271">
        <ele>33.251822</ele>
        <time>2020-09-27T13:06:06.281Z</time>
      </trkpt>
      <trkpt lat="64.87332" lon="21.07253">
        <ele>33.344128</ele>
        <time>2020-09-27T13:06:08.270Z</time>
      </trkpt>
      <trkpt lat="64.87339" lon="21.07232">
        <ele>33.69852</ele>
        <time>2020-09-27T13:06:11.262Z</time>
      </trkpt>
      <trkpt lat="64.87347" lon="21.0721">
        <ele>34.048206</ele>
        <time>2020-09-27T13:06:15.300Z</time>
      </trkpt>
      <trkpt lat="64.87353" lon="21.07191">
        <ele>34.343951</ele>
        <time>2020-09-27T13:06:19.282Z</time>
      </trkpt>
      <trkpt lat="64.8736" lon="21.07172">
        <ele>34.677809</ele>
        <time>2020-09-27T13:06:23.282Z</time>
      </trkpt>
      <trkpt lat="64.87368" lon="21.07152">
        <ele>35.020856</ele>
        <time>2020-09-27T13:06:27.283Z</time>
      </trkpt>
      <trkpt lat="64.87374" lon="21.07131">
        <ele>35.339498</ele>
        <time>2020-09-27T13:06:31.264Z</time>
      </trkpt>
      <trkpt lat="64.8738" lon="21.07109">
        <ele>35.663302</ele>
        <time>2020-09-27T13:06:35.293Z</time>
      </trkpt>
      <trkpt lat="64.87385" lon="21.07088">
        <ele>35.967003</ele>
        <time>2020-09-27T13:06:39.285Z</time>
      </trkpt>
      <trkpt lat="64.8739" lon="21.07065">
        <ele>36.28854</ele>
        <time>2020-09-27T13:06:43.279Z</time>
      </trkpt>
      <trkpt lat="64.87393" lon="21.07039">
        <ele>36.624675</ele>
        <time>2020-09-27T13:06:47.266Z</time>
      </trkpt>
      <trkpt lat="64.87396" lon="21.07014">
        <ele>36.947929</ele>
        <time>2020-09-27T13:06:51.269Z</time>
      </trkpt>
      <trkpt lat="64.87398" lon="21.06989">
        <ele>37.274718</ele>
        <time>2020-09-27T13:06:55.267Z</time>
      </trkpt>
      <trkpt lat="64.87398" lon="21.06963">
        <ele>37.600462</ele>
        <time>2020-09-27T13:06:59.319Z</time>
      </trkpt>
      <trkpt lat="64.87399" lon="21.06941">
        <ele>37.873359</ele>
        <time>2020-09-27T13:07:02.265Z</time>
      </trkpt>
      <trkpt lat="64.87399" lon="21.06918">
        <ele>38.167892</ele>
        <time>2020-09-27T13:07:05.257Z</time>
      </trkpt>
      <trkpt lat="64.87399" lon="21.06895">
        <ele>38.445573</ele>
        <time>2020-09-27T13:07:08.273Z</time>
      </trkpt>
      <trkpt lat="64.87399" lon="21.06871">
        <ele>38.618287</ele>
        <time>2020-09-27T13:07:11.282Z</time>
      </trkpt>
      <trkpt lat="64.874" lon="21.06845">
        <ele>38.738743</ele>
        <time>2020-09-27T13:07:14.272Z</time>
      </trkpt>
      <trkpt lat="64.87401" lon="21.06819">
        <ele>38.859717</ele>
        <time>2020-09-27T13:07:17.293Z</time>
      </trkpt>
      <trkpt lat="64.87401" lon="21.06793">
        <ele>38.980558</ele>
        <time>2020-09-27T13:07:20.268Z</time>
      </trkpt>
      <trkpt lat="64.87401" lon="21.06768">
        <ele>39.098586</ele>
        <time>2020-09-27T13:07:23.271Z</time>
      </trkpt>
      <trkpt lat="64.87401" lon="21.06742">
        <ele>39.217529</ele>
        <time>2020-09-27T13:07:26.277Z</time>
      </trkpt>
      <trkpt lat="64.87401" lon="21.06717">
        <ele>39.336936</ele>
        <time>2020-09-27T13:07:29.303Z</time>
      </trkpt>
      <trkpt lat="64.874" lon="21.06692">
        <ele>39.452411</ele>
        <time>2020-09-27T13:07:32.267Z</time>
      </trkpt>
      <trkpt lat="64.87399" lon="21.06668">
        <ele>39.566036</ele>
        <time>2020-09-27T13:07:35.261Z</time>
      </trkpt>
      <trkpt lat="64.87398" lon="21.06644">
        <ele>39.678075</ele>
        <time>2020-09-27T13:07:38.275Z</time>
      </trkpt>
      <trkpt lat="64.87395" lon="21.06619">
        <ele>39.794892</ele>
        <time>2020-09-27T13:07:41.262Z</time>
      </trkpt>
      <trkpt lat="64.87391" lon="21.06593">
        <ele>39.92381</ele>
        <time>2020-09-27T13:07:44.270Z</time>
      </trkpt>
      <trkpt lat="64.87387" lon="21.06568">
        <ele>40.047115</ele>
        <time>2020-09-27T13:07:47.270Z</time>
      </trkpt>
      <trkpt lat="64.87382" lon="21.06542">
        <ele>40.180147</ele>
        <time>2020-09-27T13:07:50.298Z</time>
      </trkpt>
      <trkpt lat="64.87377" lon="21.06516">
        <ele>40.31582</ele>
        <time>2020-09-27T13:07:53.308Z</time>
      </trkpt>
      <trkpt lat="64.8737" lon="21.06492">
        <ele>40.450257</ele>
        <time>2020-09-27T13:07:56.276Z</time>
      </trkpt>
      <trkpt lat="64.87363" lon="21.0647">
        <ele>40.578956</ele>
        <time>2020-09-27T13:07:59.282Z</time>
      </trkpt>
      <trkpt lat="64.87356" lon="21.06448">
        <ele>40.711088</ele>
        <time>2020-09-27T13:08:02.276Z</time>
      </trkpt>
      <trkpt lat="64.87348" lon="21.06428">
        <ele>40.839235</ele>
        <time>2020-09-27T13:08:05.271Z</time>
      </trkpt>
      <trkpt lat="64.87341" lon="21.06408">
        <ele>40.964155</ele>
        <time>2020-09-27T13:08:08.268Z</time>
      </trkpt>
      <trkpt lat="64.87334" lon="21.06388">
        <ele>41.084389</ele>
        <time>2020-09-27T13:08:11.307Z</time>
      </trkpt>
      <trkpt lat="64.87326" lon="21.06368">
        <ele>41.211881</ele>
        <time>2020-09-27T13:08:14.292Z</time>
      </trkpt>
      <trkpt lat="64.87319" lon="21.06348">
        <ele>41.336081</ele>
        <time>2020-09-27T13:08:17.262Z</time>
      </trkpt>
      <trkpt lat="64.87311" lon="21.06328">
        <ele>41.462127</ele>
        <time>2020-09-27T13:08:20.285Z</time>
      </trkpt>
      <trkpt lat="64.87304" lon="21.06308">
        <ele>41.583793</ele>
        <time>2020-09-27T13:08:23.299Z</time>
      </trkpt>
      <trkpt lat="64.87297" lon="21.06288">
        <ele>41.71019</ele>
        <time>2020-09-27T13:08:26.289Z</time>
      </trkpt>
      <trkpt lat="64.87289" lon="21.06269">
        <ele>41.834791</ele>
        <time>2020-09-27T13:08:29.297Z</time>
      </trkpt>
      <trkpt lat="64.87282" lon="21.06249">
        <ele>41.956826</ele>
        <time>2020-09-27T13:08:32.282Z</time>
      </trkpt>
      <trkpt lat="64.87275" lon="21.0623">
        <ele>42.075264</ele>
        <time>2020-09-27T13:08:35.286Z</time>
      </trkpt>
      <trkpt lat="64.87268" lon="21.06211">
        <ele>42.194774</ele>
        <time>2020-09-27T13:08:38.274Z</time>
      </trkpt>
      <trkpt lat="64.8726" lon="21.06193">
        <ele>42.316776</ele>
        <time>2020-09-27T13:08:41.277Z</time>
      </trkpt>
      <trkpt lat="64.87252" lon="21.06173">
        <ele>42.444826</ele>
        <time>2020-09-27T13:08:44.266Z</time>
      </trkpt>
      <trkpt lat="64.87244" lon="21.06154">
        <ele>42.395251</ele>
        <time>2020-09-27T13:08:47.266Z</time>
      </trkpt>
      <trkpt lat="64.87236" lon="21.06134">
        <ele>42.161945</ele>
        <time>2020-09-27T13:08:50.283Z</time>
      </trkpt>
      <trkpt lat="64.87228" lon="21.06113">
        <ele>41.902038</ele>
        <time>2020-09-27T13:08:53.272Z</time>
      </trkpt>
      <trkpt lat="64.87221" lon="21.06097">
        <ele>41.713671</ele>
        <time>2020-09-27T13:08:55.258Z</time>
      </trkpt>
      <trkpt lat="64.87215" lon="21.06079">
        <ele>41.504987</ele>
        <time>2020-09-27T13:08:57.281Z</time>
      </trkpt>
      <trkpt lat="64.87207" lon="21.06061">
        <ele>41.289528</ele>
        <time>2020-09-27T13:08:59.254Z</time>
      </trkpt>
      <trkpt lat="64.872" lon="21.06041">
        <ele>41.065651</ele>
        <time>2020-09-27T13:09:01.291Z</time>
      </trkpt>
      <trkpt lat="64.87193" lon="21.06021">
        <ele>40.842369</ele>
        <time>2020-09-27T13:09:03.291Z</time>
      </trkpt>
      <trkpt lat="64.87186" lon="21.06001">
        <ele>40.6172</ele>
        <time>2020-09-27T13:09:05.282Z</time>
      </trkpt>
      <trkpt lat="64.8718" lon="21.05979">
        <ele>40.394736</ele>
        <time>2020-09-27T13:09:07.266Z</time>
      </trkpt>
      <trkpt lat="64.87175" lon="21.05957">
        <ele>40.169856</ele>
        <time>2020-09-27T13:09:09.278Z</time>
      </trkpt>
      <trkpt lat="64.8717" lon="21.05933">
        <ele>39.938165</ele>
        <time>2020-09-27T13:09:11.263Z</time>
      </trkpt>
      <trkpt lat="64.87165" lon="21.05909">
        <ele>39.712447</ele>
        <time>2020-09-27T13:09:13.267Z</time>
      </trkpt>
      <trkpt lat="64.87161" lon="21.05885">
        <ele>39.486011</ele>
        <time>2020-09-27T13:09:15.290Z</time>
      </trkpt>
      <trkpt lat="64.87157" lon="21.05861">
        <ele>39.261069</ele>
        <time>2020-09-27T13:09:17.271Z</time>
      </trkpt>
      <trkpt lat="64.87153" lon="21.05837">
        <ele>39.036127</ele>
        <time>2020-09-27T13:09:19.286Z</time>
      </trkpt>
      <trkpt lat="64.87148" lon="21.05812">
        <ele>38.809329</ele>
        <time>2020-09-27T13:09:21.264Z</time>
      </trkpt>
      <trkpt lat="64.87145" lon="21.05788">
        <ele>38.600011</ele>
        <time>2020-09-27T13:09:23.291Z</time>
      </trkpt>
      <trkpt lat="64.87141" lon="21.05765">
        <ele>38.392133</ele>
        <time>2020-09-27T13:09:25.283Z</time>
      </trkpt>
      <trkpt lat="64.87137" lon="21.05741">
        <ele>38.189743</ele>
        <time>2020-09-27T13:09:27.291Z</time>
      </trkpt>
      <trkpt lat="64.87134" lon="21.05718">
        <ele>37.988426</ele>
        <time>2020-09-27T13:09:29.284Z</time>
      </trkpt>
      <trkpt lat="64.87131" lon="21.05695">
        <ele>37.794371</ele>
        <time>2020-09-27T13:09:31.287Z</time>
      </trkpt>
      <trkpt lat="64.87128" lon="21.05672">
        <ele>37.598922</ele>
        <time>2020-09-27T13:09:33.283Z</time>
      </trkpt>
      <trkpt lat="64.87126" lon="21.05649">
        <ele>37.409162</ele>
        <time>2020-09-27T13:09:35.267Z</time>
      </trkpt>
      <trkpt lat="64.87123" lon="21.05627">
        <ele>37.220792</ele>
        <time>2020-09-27T13:09:37.264Z</time>
      </trkpt>
      <trkpt lat="64.87121" lon="21.05605">
        <ele>37.038135</ele>
        <time>2020-09-27T13:09:39.325Z</time>
      </trkpt>
      <trkpt lat="64.87118" lon="21.05584">
        <ele>36.856741</ele>
        <time>2020-09-27T13:09:41.345Z</time>
      </trkpt>
      <trkpt lat="64.87116" lon="21.05562">
        <ele>36.676597</ele>
        <time>2020-09-27T13:09:43.268Z</time>
      </trkpt>
      <trkpt lat="64.87114" lon="21.05541">
        <ele>36.501652</ele>
        <time>2020-09-27T13:09:45.282Z</time>
      </trkpt>
      <trkpt lat="64.87111" lon="21.05511">
        <ele>36.245399</ele>
        <time>2020-09-27T13:09:48.260Z</time>
      </trkpt>
      <trkpt lat="64.87109" lon="21.0549">
        <ele>36.071246</ele>
        <time>2020-09-27T13:09:50.265Z</time>
      </trkpt>
      <trkpt lat="64.87107" lon="21.05469">
        <ele>35.897535</ele>
        <time>2020-09-27T13:09:52.290Z</time>
      </trkpt>
      <trkpt lat="64.87104" lon="21.05438">
        <ele>35.642953</ele>
        <time>2020-09-27T13:09:55.266Z</time>
      </trkpt>
      <trkpt lat="64.87101" lon="21.05408">
        <ele>35.391557</ele>
        <time>2020-09-27T13:09:58.280Z</time>
      </trkpt>
      <trkpt lat="64.87099" lon="21.05379">
        <ele>35.708785</ele>
        <time>2020-09-27T13:10:01.265Z</time>
      </trkpt>
      <trkpt lat="64.87096" lon="21.0535">
        <ele>36.019794</ele>
        <time>2020-09-27T13:10:04.285Z</time>
      </trkpt>
      <trkpt lat="64.87094" lon="21.05321">
        <ele>36.330803</ele>
        <time>2020-09-27T13:10:07.312Z</time>
      </trkpt>
      <trkpt lat="64.87091" lon="21.05293">
        <ele>36.638238</ele>
        <time>2020-09-27T13:10:10.269Z</time>
      </trkpt>
      <trkpt lat="64.87088" lon="21.05265">
        <ele>36.940957</ele>
        <time>2020-09-27T13:10:13.305Z</time>
      </trkpt>
      <trkpt lat="64.87086" lon="21.05237">
        <ele>37.247837</ele>
        <time>2020-09-27T13:10:16.264Z</time>
      </trkpt>
      <trkpt lat="64.87083" lon="21.05209">
        <ele>37.546464</ele>
        <time>2020-09-27T13:10:19.343Z</time>
      </trkpt>
      <trkpt lat="64.8708" lon="21.05182">
        <ele>37.84764</ele>
        <time>2020-09-27T13:10:22.269Z</time>
      </trkpt>
      <trkpt lat="64.87077" lon="21.05153">
        <ele>38.159325</ele>
        <time>2020-09-27T13:10:25.305Z</time>
      </trkpt>
      <trkpt lat="64.87074" lon="21.05125">
        <ele>38.472198</ele>
        <time>2020-09-27T13:10:28.284Z</time>
      </trkpt>
      <trkpt lat="64.87072" lon="21.05096">
        <ele>38.781797</ele>
        <time>2020-09-27T13:10:31.300Z</time>
      </trkpt>
      <trkpt lat="64.87069" lon="21.05067">
        <ele>39.091846</ele>
        <time>2020-09-27T13:10:34.286Z</time>
      </trkpt>
      <trkpt lat="64.87067" lon="21.05039">
        <ele>39.394056</ele>
        <time>2020-09-27T13:10:37.274Z</time>
      </trkpt>
      <trkpt lat="64.87063" lon="21.05012">
        <ele>39.689284</ele>
        <time>2020-09-27T13:10:40.301Z</time>
      </trkpt>
      <trkpt lat="64.8706" lon="21.04986">
        <ele>39.887388</ele>
        <time>2020-09-27T13:10:43.269Z</time>
      </trkpt>
      <trkpt lat="64.87057" lon="21.04962">
        <ele>39.924897</ele>
        <time>2020-09-27T13:10:46.276Z</time>
      </trkpt>
      <trkpt lat="64.87053" lon="21.04939">
        <ele>39.962555</ele>
        <time>2020-09-27T13:10:49.275Z</time>
      </trkpt>
      <trkpt lat="64.87048" lon="21.04914">
        <ele>40.002407</ele>
        <time>2020-09-27T13:10:52.281Z</time>
      </trkpt>
      <trkpt lat="64.87043" lon="21.04889">
        <ele>40.044269</ele>
        <time>2020-09-27T13:10:55.272Z</time>
      </trkpt>
      <trkpt lat="64.87038" lon="21.04866">
        <ele>40.083343</ele>
        <time>2020-09-27T13:10:58.285Z</time>
      </trkpt>
      <trkpt lat="64.87032" lon="21.04845">
        <ele>40.121046</ele>
        <time>2020-09-27T13:11:01.265Z</time>
      </trkpt>
      <trkpt lat="64.87024" lon="21.04821">
        <ele>40.167005</ele>
        <time>2020-09-27T13:11:04.301Z</time>
      </trkpt>
      <trkpt lat="64.87018" lon="21.04805">
        <ele>40.199086</ele>
        <time>2020-09-27T13:11:06.266Z</time>
      </trkpt>
      <trkpt lat="64.87011" lon="21.04788">
        <ele>40.232241</ele>
        <time>2020-09-27T13:11:08.289Z</time>
      </trkpt>
      <trkpt lat="64.87004" lon="21.04771">
        <ele>40.268182</ele>
        <time>2020-09-27T13:11:10.295Z</time>
      </trkpt>
      <trkpt lat="64.86996" lon="21.04754">
        <ele>40.305023</ele>
        <time>2020-09-27T13:11:12.289Z</time>
      </trkpt>
      <trkpt lat="64.86988" lon="21.04738">
        <ele>40.34366</ele>
        <time>2020-09-27T13:11:14.258Z</time>
      </trkpt>
      <trkpt lat="64.8698" lon="21.04721">
        <ele>40.382394</ele>
        <time>2020-09-27T13:11:16.276Z</time>
      </trkpt>
      <trkpt lat="64.8697" lon="21.04705">
        <ele>40.424477</ele>
        <time>2020-09-27T13:11:18.273Z</time>
      </trkpt>
      <trkpt lat="64.86959" lon="21.04687">
        <ele>40.471801</ele>
        <time>2020-09-27T13:11:20.267Z</time>
      </trkpt>
      <trkpt lat="64.86946" lon="21.04667">
        <ele>40.199116</ele>
        <time>2020-09-27T13:11:22.264Z</time>
      </trkpt>
      <trkpt lat="64.86932" lon="21.04643">
        <ele>39.272535</ele>
        <time>2020-09-27T13:11:24.303Z</time>
      </trkpt>
      <trkpt lat="64.86924" lon="21.0463">
        <ele>38.774889</ele>
        <time>2020-09-27T13:11:25.265Z</time>
      </trkpt>
      <trkpt lat="64.86916" lon="21.04618">
        <ele>38.277957</ele>
        <time>2020-09-27T13:11:26.278Z</time>
      </trkpt>
      <trkpt lat="64.86908" lon="21.04605">
        <ele>37.769721</ele>
        <time>2020-09-27T13:11:27.280Z</time>
      </trkpt>
      <trkpt lat="64.86901" lon="21.04592">
        <ele>37.258242</ele>
        <time>2020-09-27T13:11:28.282Z</time>
      </trkpt>
      <trkpt lat="64.86893" lon="21.04579">
        <ele>36.744159</ele>
        <time>2020-09-27T13:11:29.274Z</time>
      </trkpt>
      <trkpt lat="64.86885" lon="21.04565">
        <ele>36.216528</ele>
        <time>2020-09-27T13:11:30.306Z</time>
      </trkpt>
      <trkpt lat="64.86877" lon="21.0455">
        <ele>35.684915</ele>
        <time>2020-09-27T13:11:31.278Z</time>
      </trkpt>
      <trkpt lat="64.86869" lon="21.04535">
        <ele>35.155184</ele>
        <time>2020-09-27T13:11:32.298Z</time>
      </trkpt>
      <trkpt lat="64.86862" lon="21.04519">
        <ele>34.638765</ele>
        <time>2020-09-27T13:11:33.265Z</time>
      </trkpt>
      <trkpt lat="64.86856" lon="21.04502">
        <ele>34.130832</ele>
        <time>2020-09-27T13:11:34.303Z</time>
      </trkpt>
      <trkpt lat="64.86849" lon="21.04485">
        <ele>33.616734</ele>
        <time>2020-09-27T13:11:35.290Z</time>
      </trkpt>
      <trkpt lat="64.86843" lon="21.04468">
        <ele>33.110884</ele>
        <time>2020-09-27T13:11:36.282Z</time>
      </trkpt>
      <trkpt lat="64.86838" lon="21.0445">
        <ele>32.624002</ele>
        <time>2020-09-27T13:11:37.277Z</time>
      </trkpt>
      <trkpt lat="64.86828" lon="21.04415">
        <ele>31.685425</ele>
        <time>2020-09-27T13:11:39.289Z</time>
      </trkpt>
      <trkpt lat="64.8682" lon="21.04379">
        <ele>30.983023</ele>
        <time>2020-09-27T13:11:41.321Z</time>
      </trkpt>
      <trkpt lat="64.86813" lon="21.04344">
        <ele>30.981143</ele>
        <time>2020-09-27T13:11:43.287Z</time>
      </trkpt>
      <trkpt lat="64.86807" lon="21.04312">
        <ele>30.979434</ele>
        <time>2020-09-27T13:11:45.293Z</time>
      </trkpt>
      <trkpt lat="64.86802" lon="21.04283">
        <ele>30.977901</ele>
        <time>2020-09-27T13:11:47.279Z</time>
      </trkpt>
      <trkpt lat="64.86797" lon="21.04257">
        <ele>30.976506</ele>
        <time>2020-09-27T13:11:49.279Z</time>
      </trkpt>
      <trkpt lat="64.86793" lon="21.04234">
        <ele>30.975265</ele>
        <time>2020-09-27T13:11:51.270Z</time>
      </trkpt>
      <trkpt lat="64.86789" lon="21.04213">
        <ele>30.974163</ele>
        <time>2020-09-27T13:11:53.312Z</time>
      </trkpt>
      <trkpt lat="64.86785" lon="21.04193">
        <ele>30.973096</ele>
        <time>2020-09-27T13:11:55.307Z</time>
      </trkpt>
      <trkpt lat="64.86781" lon="21.04173">
        <ele>30.972022</ele>
        <time>2020-09-27T13:11:57.290Z</time>
      </trkpt>
      <trkpt lat="64.86778" lon="21.04153">
        <ele>30.970947</ele>
        <time>2020-09-27T13:11:59.281Z</time>
      </trkpt>
      <trkpt lat="64.86774" lon="21.04134">
        <ele>30.969908</ele>
        <time>2020-09-27T13:12:01.310Z</time>
      </trkpt>
      <trkpt lat="64.8677" lon="21.04114">
        <ele>30.968855</ele>
        <time>2020-09-27T13:12:03.267Z</time>
      </trkpt>
      <trkpt lat="64.86765" lon="21.04086">
        <ele>30.967349</ele>
        <time>2020-09-27T13:12:06.262Z</time>
      </trkpt>
      <trkpt lat="64.8676" lon="21.04058">
        <ele>30.96587</ele>
        <time>2020-09-27T13:12:09.269Z</time>
      </trkpt>
      <trkpt lat="64.86755" lon="21.0403">
        <ele>30.964386</ele>
        <time>2020-09-27T13:12:12.258Z</time>
      </trkpt>
      <trkpt lat="64.8675" lon="21.04002">
        <ele>30.962915</ele>
        <time>2020-09-27T13:12:15.269Z</time>
      </trkpt>
      <trkpt lat="64.86744" lon="21.03974">
        <ele>30.927613</ele>
        <time>2020-09-27T13:12:18.281Z</time>
      </trkpt>
      <trkpt lat="64.86738" lon="21.03946">
        <ele>30.888739</ele>
        <time>2020-09-27T13:12:21.276Z</time>
      </trkpt>
      <trkpt lat="64.86732" lon="21.03918">
        <ele>30.849644</ele>
        <time>2020-09-27T13:12:24.273Z</time>
      </trkpt>
      <trkpt lat="64.86727" lon="21.0389">
        <ele>30.811528</ele>
        <time>2020-09-27T13:12:27.267Z</time>
      </trkpt>
      <trkpt lat="64.86721" lon="21.03861">
        <ele>30.772131</ele>
        <time>2020-09-27T13:12:30.264Z</time>
      </trkpt>
      <trkpt lat="64.86718" lon="21.0384">
        <ele>30.744827</ele>
        <time>2020-09-27T13:12:32.266Z</time>
      </trkpt>
      <trkpt lat="64.86714" lon="21.03821">
        <ele>30.717962</ele>
        <time>2020-09-27T13:12:34.301Z</time>
      </trkpt>
      <trkpt lat="64.8671" lon="21.03801">
        <ele>30.690861</ele>
        <time>2020-09-27T13:12:36.288Z</time>
      </trkpt>
      <trkpt lat="64.86706" lon="21.0378">
        <ele>30.662645</ele>
        <time>2020-09-27T13:12:38.275Z</time>
      </trkpt>
      <trkpt lat="64.86702" lon="21.03759">
        <ele>30.634431</ele>
        <time>2020-09-27T13:12:40.289Z</time>
      </trkpt>
      <trkpt lat="64.86698" lon="21.03737">
        <ele>30.605528</ele>
        <time>2020-09-27T13:12:42.290Z</time>
      </trkpt>
      <trkpt lat="64.86695" lon="21.03716">
        <ele>30.577184</ele>
        <time>2020-09-27T13:12:44.276Z</time>
      </trkpt>
      <trkpt lat="64.86691" lon="21.03695">
        <ele>30.549751</ele>
        <time>2020-09-27T13:12:46.307Z</time>
      </trkpt>
      <trkpt lat="64.86688" lon="21.03675">
        <ele>30.522756</ele>
        <time>2020-09-27T13:12:48.287Z</time>
      </trkpt>
      <trkpt lat="64.86685" lon="21.03653">
        <ele>30.494283</ele>
        <time>2020-09-27T13:12:50.277Z</time>
      </trkpt>
      <trkpt lat="64.86682" lon="21.03631">
        <ele>30.466046</ele>
        <time>2020-09-27T13:12:52.266Z</time>
      </trkpt>
      <trkpt lat="64.86679" lon="21.03609">
        <ele>30.449064</ele>
        <time>2020-09-27T13:12:54.276Z</time>
      </trkpt>
      <trkpt lat="64.86677" lon="21.03587">
        <ele>30.609845</ele>
        <time>2020-09-27T13:12:56.304Z</time>
      </trkpt>
      <trkpt lat="64.86674" lon="21.03566">
        <ele>30.764975</ele>
        <time>2020-09-27T13:12:58.267Z</time>
      </trkpt>
      <trkpt lat="64.86672" lon="21.03545">
        <ele>30.920543</ele>
        <time>2020-09-27T13:13:00.279Z</time>
      </trkpt>
      <trkpt lat="64.8667" lon="21.03523">
        <ele>31.079976</ele>
        <time>2020-09-27T13:13:02.277Z</time>
      </trkpt>
      <trkpt lat="64.86667" lon="21.03502">
        <ele>31.232409</ele>
        <time>2020-09-27T13:13:04.280Z</time>
      </trkpt>
      <trkpt lat="64.86664" lon="21.03473">
        <ele>31.450157</ele>
        <time>2020-09-27T13:13:07.293Z</time>
      </trkpt>
      <trkpt lat="64.86661" lon="21.03443">
        <ele>31.662574</ele>
        <time>2020-09-27T13:13:10.265Z</time>
      </trkpt>
      <trkpt lat="64.86658" lon="21.03415">
        <ele>31.86835</ele>
        <time>2020-09-27T13:13:13.290Z</time>
      </trkpt>
      <trkpt lat="64.86656" lon="21.03386">
        <ele>32.076943</ele>
        <time>2020-09-27T13:13:16.322Z</time>
      </trkpt>
      <trkpt lat="64.86653" lon="21.03358">
        <ele>32.277865</ele>
        <time>2020-09-27T13:13:19.279Z</time>
      </trkpt>
      <trkpt lat="64.86651" lon="21.03331">
        <ele>32.471375</ele>
        <time>2020-09-27T13:13:22.286Z</time>
      </trkpt>
      <trkpt lat="64.86649" lon="21.03306">
        <ele>32.65504</ele>
        <time>2020-09-27T13:13:25.263Z</time>
      </trkpt>
      <trkpt lat="64.86647" lon="21.03282">
        <ele>32.826223</ele>
        <time>2020-09-27T13:13:28.298Z</time>
      </trkpt>
      <trkpt lat="64.86645" lon="21.03259">
        <ele>32.991586</ele>
        <time>2020-09-27T13:13:31.285Z</time>
      </trkpt>
      <trkpt lat="64.86643" lon="21.03237">
        <ele>33.154816</ele>
        <time>2020-09-27T13:13:34.291Z</time>
      </trkpt>
      <trkpt lat="64.86641" lon="21.03213">
        <ele>33.324615</ele>
        <time>2020-09-27T13:13:37.259Z</time>
      </trkpt>
      <trkpt lat="64.86639" lon="21.03189">
        <ele>33.36613</ele>
        <time>2020-09-27T13:13:40.308Z</time>
      </trkpt>
      <trkpt lat="64.86637" lon="21.03165">
        <ele>33.182791</ele>
        <time>2020-09-27T13:13:43.267Z</time>
      </trkpt>
      <trkpt lat="64.86635" lon="21.03142">
        <ele>33.001202</ele>
        <time>2020-09-27T13:13:46.298Z</time>
      </trkpt>
      <trkpt lat="64.86633" lon="21.03118">
        <ele>32.820048</ele>
        <time>2020-09-27T13:13:49.267Z</time>
      </trkpt>
      <trkpt lat="64.8663" lon="21.03094">
        <ele>32.635217</ele>
        <time>2020-09-27T13:13:52.302Z</time>
      </trkpt>
      <trkpt lat="64.86628" lon="21.03069">
        <ele>32.443024</ele>
        <time>2020-09-27T13:13:55.265Z</time>
      </trkpt>
      <trkpt lat="64.86626" lon="21.03044">
        <ele>32.247143</ele>
        <time>2020-09-27T13:13:58.289Z</time>
      </trkpt>
      <trkpt lat="64.86623" lon="21.03017">
        <ele>32.03686</ele>
        <time>2020-09-27T13:14:01.270Z</time>
      </trkpt>
      <trkpt lat="64.86621" lon="21.02988">
        <ele>31.815093</ele>
        <time>2020-09-27T13:14:04.268Z</time>
      </trkpt>
      <trkpt lat="64.86619" lon="21.02956">
        <ele>31.575816</ele>
        <time>2020-09-27T13:14:07.263Z</time>
      </trkpt>
      <trkpt lat="64.86618" lon="21.02935">
        <ele>31.413785</ele>
        <time>2020-09-27T13:14:09.286Z</time>
      </trkpt>
      <trkpt lat="64.86618" lon="21.02913">
        <ele>31.249276</ele>
        <time>2020-09-27T13:14:11.271Z</time>
      </trkpt>
      <trkpt lat="64.86618" lon="21.02891">
        <ele>31.084843</ele>
        <time>2020-09-27T13:14:13.288Z</time>
      </trkpt>
      <trkpt lat="64.86618" lon="21.02869">
        <ele>30.912041</ele>
        <time>2020-09-27T13:14:15.294Z</time>
      </trkpt>
      <trkpt lat="64.86619" lon="21.02846">
        <ele>30.73824</ele>
        <time>2020-09-27T13:14:17.273Z</time>
      </trkpt>
      <trkpt lat="64.86619" lon="21.02822">
        <ele>30.563785</ele>
        <time>2020-09-27T13:14:19.283Z</time>
      </trkpt>
      <trkpt lat="64.8662" lon="21.028">
        <ele>30.392243</ele>
        <time>2020-09-27T13:14:21.266Z</time>
      </trkpt>
      <trkpt lat="64.86621" lon="21.02777">
        <ele>30.22773</ele>
        <time>2020-09-27T13:14:23.282Z</time>
      </trkpt>
      <trkpt lat="64.86622" lon="21.02755">
        <ele>30.1097</ele>
        <time>2020-09-27T13:14:25.273Z</time>
      </trkpt>
      <trkpt lat="64.86624" lon="21.02733">
        <ele>29.995474</ele>
        <time>2020-09-27T13:14:27.319Z</time>
      </trkpt>
      <trkpt lat="64.86625" lon="21.02711">
        <ele>29.879713</ele>
        <time>2020-09-27T13:14:29.334Z</time>
      </trkpt>
      <trkpt lat="64.86627" lon="21.0269">
        <ele>29.764253</ele>
        <time>2020-09-27T13:14:31.285Z</time>
      </trkpt>
      <trkpt lat="64.8663" lon="21.02668">
        <ele>29.651281</ele>
        <time>2020-09-27T13:14:33.268Z</time>
      </trkpt>
      <trkpt lat="64.86633" lon="21.02648">
        <ele>29.538537</ele>
        <time>2020-09-27T13:14:35.297Z</time>
      </trkpt>
      <trkpt lat="64.86636" lon="21.02627">
        <ele>29.425389</ele>
        <time>2020-09-27T13:14:37.288Z</time>
      </trkpt>
      <trkpt lat="64.86639" lon="21.02608">
        <ele>29.312412</ele>
        <time>2020-09-27T13:14:39.255Z</time>
      </trkpt>
      <trkpt lat="64.86644" lon="21.02589">
        <ele>29.200768</ele>
        <time>2020-09-27T13:14:41.272Z</time>
      </trkpt>
      <trkpt lat="64.86651" lon="21.02562">
        <ele>29.035646</ele>
        <time>2020-09-27T13:14:44.257Z</time>
      </trkpt>
      <trkpt lat="64.86657" lon="21.02544">
        <ele>28.921483</ele>
        <time>2020-09-27T13:14:46.278Z</time>
      </trkpt>
      <trkpt lat="64.86662" lon="21.02527">
        <ele>28.80483</ele>
        <time>2020-09-27T13:14:48.269Z</time>
      </trkpt>
      <trkpt lat="64.86668" lon="21.02509">
        <ele>28.691513</ele>
        <time>2020-09-27T13:14:50.276Z</time>
      </trkpt>
      <trkpt lat="64.86673" lon="21.02491">
        <ele>28.576751</ele>
        <time>2020-09-27T13:14:52.275Z</time>
      </trkpt>
      <trkpt lat="64.86679" lon="21.02473">
        <ele>28.465538</ele>
        <time>2020-09-27T13:14:54.271Z</time>
      </trkpt>
      <trkpt lat="64.86684" lon="21.02455">
        <ele>28.35062</ele>
        <time>2020-09-27T13:14:56.282Z</time>
      </trkpt>
      <trkpt lat="64.86689" lon="21.02437">
        <ele>28.235451</ele>
        <time>2020-09-27T13:14:58.283Z</time>
      </trkpt>
      <trkpt lat="64.86694" lon="21.02417">
        <ele>28.116819</ele>
        <time>2020-09-27T13:15:00.283Z</time>
      </trkpt>
      <trkpt lat="64.86699" lon="21.02398">
        <ele>28.050515</ele>
        <time>2020-09-27T13:15:02.277Z</time>
      </trkpt>
      <trkpt lat="64.86704" lon="21.02376">
        <ele>28.092116</ele>
        <time>2020-09-27T13:15:04.273Z</time>
      </trkpt>
      <trkpt lat="64.86709" lon="21.02354">
        <ele>28.134385</ele>
        <time>2020-09-27T13:15:06.288Z</time>
      </trkpt>
      <trkpt lat="64.86713" lon="21.0233">
        <ele>28.178647</ele>
        <time>2020-09-27T13:15:08.281Z</time>
      </trkpt>
      <trkpt lat="64.86716" lon="21.02306">
        <ele>28.221887</ele>
        <time>2020-09-27T13:15:10.310Z</time>
      </trkpt>
      <trkpt lat="64.8672" lon="21.02281">
        <ele>28.265317</ele>
        <time>2020-09-27T13:15:12.269Z</time>
      </trkpt>
      <trkpt lat="64.86724" lon="21.02258">
        <ele>28.308326</ele>
        <time>2020-09-27T13:15:14.270Z</time>
      </trkpt>
      <trkpt lat="64.86729" lon="21.02236">
        <ele>28.350999</ele>
        <time>2020-09-27T13:15:16.297Z</time>
      </trkpt>
      <trkpt lat="64.86735" lon="21.02216">
        <ele>28.393711</ele>
        <time>2020-09-27T13:15:18.278Z</time>
      </trkpt>
      <trkpt lat="64.86742" lon="21.02198">
        <ele>28.43333</ele>
        <time>2020-09-27T13:15:20.283Z</time>
      </trkpt>
      <trkpt lat="64.86749" lon="21.02182">
        <ele>28.473585</ele>
        <time>2020-09-27T13:15:22.265Z</time>
      </trkpt>
      <trkpt lat="64.86757" lon="21.02169">
        <ele>28.512465</ele>
        <time>2020-09-27T13:15:24.302Z</time>
      </trkpt>
      <trkpt lat="64.86765" lon="21.02159">
        <ele>28.548855</ele>
        <time>2020-09-27T13:15:26.268Z</time>
      </trkpt>
      <trkpt lat="64.86774" lon="21.02139">
        <ele>28.598879</ele>
        <time>2020-09-27T13:15:29.264Z</time>
      </trkpt>
      <trkpt lat="64.86778" lon="21.02119">
        <ele>28.635007</ele>
        <time>2020-09-27T13:15:31.281Z</time>
      </trkpt>
      <trkpt lat="64.8678" lon="21.02098">
        <ele>28.672067</ele>
        <time>2020-09-27T13:15:33.284Z</time>
      </trkpt>
      <trkpt lat="64.86782" lon="21.02077">
        <ele>28.708056</ele>
        <time>2020-09-27T13:15:35.276Z</time>
      </trkpt>
      <trkpt lat="64.86788" lon="21.0205">
        <ele>28.770599</ele>
        <time>2020-09-27T13:15:38.275Z</time>
      </trkpt>
      <trkpt lat="64.86793" lon="21.02033">
        <ele>28.940533</ele>
        <time>2020-09-27T13:15:40.266Z</time>
      </trkpt>
      <trkpt lat="64.86802" lon="21.02011">
        <ele>29.18372</ele>
        <time>2020-09-27T13:15:43.268Z</time>
      </trkpt>
      <trkpt lat="64.8681" lon="21.01989">
        <ele>29.416545</ele>
        <time>2020-09-27T13:15:46.266Z</time>
      </trkpt>
      <trkpt lat="64.8682" lon="21.0197">
        <ele>29.659809</ele>
        <time>2020-09-27T13:15:49.291Z</time>
      </trkpt>
      <trkpt lat="64.86824" lon="21.01945">
        <ele>29.876784</ele>
        <time>2020-09-27T13:15:52.271Z</time>
      </trkpt>
      <trkpt lat="64.86821" lon="21.01919">
        <ele>30.089448</ele>
        <time>2020-09-27T13:15:55.281Z</time>
      </trkpt>
      <trkpt lat="64.86816" lon="21.01894">
        <ele>30.312459</ele>
        <time>2020-09-27T13:15:58.265Z</time>
      </trkpt>
      <trkpt lat="64.86812" lon="21.01869">
        <ele>30.533898</ele>
        <time>2020-09-27T13:16:01.273Z</time>
      </trkpt>
      <trkpt lat="64.86806" lon="21.01843">
        <ele>30.76795</ele>
        <time>2020-09-27T13:16:04.274Z</time>
      </trkpt>
      <trkpt lat="64.86799" lon="21.01817">
        <ele>31.013158</ele>
        <time>2020-09-27T13:16:07.279Z</time>
      </trkpt>
      <trkpt lat="64.86792" lon="21.01792">
        <ele>31.252462</ele>
        <time>2020-09-27T13:16:10.305Z</time>
      </trkpt>
      <trkpt lat="64.86784" lon="21.01769">
        <ele>31.49394</ele>
        <time>2020-09-27T13:16:13.292Z</time>
      </trkpt>
      <trkpt lat="64.86775" lon="21.01747">
        <ele>31.736137</ele>
        <time>2020-09-27T13:16:16.267Z</time>
      </trkpt>
      <trkpt lat="64.86766" lon="21.01725">
        <ele>31.979326</ele>
        <time>2020-09-27T13:16:19.282Z</time>
      </trkpt>
      <trkpt lat="64.86758" lon="21.01702">
        <ele>32.26944</ele>
        <time>2020-09-27T13:16:22.300Z</time>
      </trkpt>
      <trkpt lat="64.86751" lon="21.01676">
        <ele>32.693029</ele>
        <time>2020-09-27T13:16:25.327Z</time>
      </trkpt>
      <trkpt lat="64.86749" lon="21.01647">
        <ele>33.108478</ele>
        <time>2020-09-27T13:16:28.303Z</time>
      </trkpt>
      <trkpt lat="64.8675" lon="21.01619">
        <ele>33.502568</ele>
        <time>2020-09-27T13:16:31.283Z</time>
      </trkpt>
      <trkpt lat="64.86755" lon="21.01593">
        <ele>33.889556</ele>
        <time>2020-09-27T13:16:34.289Z</time>
      </trkpt>
      <trkpt lat="64.86762" lon="21.01572">
        <ele>34.283829</ele>
        <time>2020-09-27T13:16:37.281Z</time>
      </trkpt>
      <trkpt lat="64.86771" lon="21.01554">
        <ele>34.65891</ele>
        <time>2020-09-27T13:16:40.284Z</time>
      </trkpt>
      <trkpt lat="64.8678" lon="21.01541">
        <ele>35.01104</ele>
        <time>2020-09-27T13:16:43.309Z</time>
      </trkpt>
      <trkpt lat="64.86787" lon="21.01527">
        <ele>35.330359</ele>
        <time>2020-09-27T13:16:46.286Z</time>
      </trkpt>
      <trkpt lat="64.86795" lon="21.01512">
        <ele>35.652262</ele>
        <time>2020-09-27T13:16:49.277Z</time>
      </trkpt>
      <trkpt lat="64.86803" lon="21.01498">
        <ele>35.977708</ele>
        <time>2020-09-27T13:16:52.281Z</time>
      </trkpt>
      <trkpt lat="64.86809" lon="21.0148">
        <ele>36.305828</ele>
        <time>2020-09-27T13:16:55.313Z</time>
      </trkpt>
      <trkpt lat="64.86811" lon="21.01455">
        <ele>36.66569</ele>
        <time>2020-09-27T13:16:58.304Z</time>
      </trkpt>
      <trkpt lat="64.86809" lon="21.0143">
        <ele>37.012215</ele>
        <time>2020-09-27T13:17:01.281Z</time>
      </trkpt>
      <trkpt lat="64.86806" lon="21.01409">
        <ele>37.326035</ele>
        <time>2020-09-27T13:17:04.293Z</time>
      </trkpt>
      <trkpt lat="64.86803" lon="21.0139">
        <ele>37.626837</ele>
        <time>2020-09-27T13:17:07.287Z</time>
      </trkpt>
      <trkpt lat="64.86795" lon="21.01368">
        <ele>38.009452</ele>
        <time>2020-09-27T13:17:11.286Z</time>
      </trkpt>
      <trkpt lat="64.86787" lon="21.0135">
        <ele>38.458536</ele>
        <time>2020-09-27T13:17:15.299Z</time>
      </trkpt>
      <trkpt lat="64.86777" lon="21.01336">
        <ele>38.916636</ele>
        <time>2020-09-27T13:17:19.301Z</time>
      </trkpt>
      <trkpt lat="64.86767" lon="21.01323">
        <ele>39.391496</ele>
        <time>2020-09-27T13:17:23.293Z</time>
      </trkpt>
      <trkpt lat="64.86759" lon="21.01311">
        <ele>39.769677</ele>
        <time>2020-09-27T13:17:26.278Z</time>
      </trkpt>
      <trkpt lat="64.86751" lon="21.01298">
        <ele>40.150254</ele>
        <time>2020-09-27T13:17:30.279Z</time>
      </trkpt>
      <trkpt lat="64.86743" lon="21.01283">
        <ele>40.557283</ele>
        <time>2020-09-27T13:17:35.320Z</time>
      </trkpt>
      <trkpt lat="64.86736" lon="21.0127">
        <ele>40.928459</ele>
        <time>2020-09-27T13:17:40.291Z</time>
      </trkpt>
      <trkpt lat="64.86727" lon="21.01258">
        <ele>41.370061</ele>
        <time>2020-09-27T13:17:45.278Z</time>
      </trkpt>
      <trkpt lat="64.86717" lon="21.01247">
        <ele>41.812573</ele>
        <time>2020-09-27T13:17:49.282Z</time>
      </trkpt>
      <trkpt lat="64.86708" lon="21.01237">
        <ele>42.20756</ele>
        <time>2020-09-27T13:17:53.303Z</time>
      </trkpt>
      <trkpt lat="64.86699" lon="21.01227">
        <ele>42.598893</ele>
        <time>2020-09-27T13:17:58.287Z</time>
      </trkpt>
      <trkpt lat="64.8669" lon="21.01218">
        <ele>42.999007</ele>
        <time>2020-09-27T13:18:03.293Z</time>
      </trkpt>
      <trkpt lat="64.86681" lon="21.01209">
        <ele>43.399775</ele>
        <time>2020-09-27T13:18:07.280Z</time>
      </trkpt>
      <trkpt lat="64.8667" lon="21.01201">
        <ele>43.850796</ele>
        <time>2020-09-27T13:18:11.319Z</time>
      </trkpt>
      <trkpt lat="64.8666" lon="21.01193">
        <ele>44.276633</ele>
        <time>2020-09-27T13:18:15.272Z</time>
      </trkpt>
      <trkpt lat="64.86651" lon="21.01185">
        <ele>44.665806</ele>
        <time>2020-09-27T13:18:19.280Z</time>
      </trkpt>
      <trkpt lat="64.86642" lon="21.01177">
        <ele>45.062253</ele>
        <time>2020-09-27T13:18:23.281Z</time>
      </trkpt>
      <trkpt lat="64.86632" lon="21.01168">
        <ele>45.667133</ele>
        <time>2020-09-27T13:18:27.319Z</time>
      </trkpt>
      <trkpt lat="64.86623" lon="21.01162">
        <ele>46.556847</ele>
        <time>2020-09-27T13:18:31.283Z</time>
      </trkpt>
      <trkpt lat="64.86614" lon="21.01155">
        <ele>47.439211</ele>
        <time>2020-09-27T13:18:35.294Z</time>
      </trkpt>
      <trkpt lat="64.86605" lon="21.01142">
        <ele>48.42687</ele>
        <time>2020-09-27T13:18:40.315Z</time>
      </trkpt>
      <trkpt lat="64.86597" lon="21.01129">
        <ele>49.340117</ele>
        <time>2020-09-27T13:18:45.273Z</time>
      </trkpt>
      <trkpt lat="64.86593" lon="21.01109">
        <ele>50.217067</ele>
        <time>2020-09-27T13:18:51.331Z</time>
      </trkpt>
      <trkpt lat="64.86588" lon="21.01089">
        <ele>51.128087</ele>
        <time>2020-09-27T13:18:57.315Z</time>
      </trkpt>
      <trkpt lat="64.86583" lon="21.0107">
        <ele>52.047811</ele>
        <time>2020-09-27T13:19:03.295Z</time>
      </trkpt>
      <trkpt lat="64.86578" lon="21.0105">
        <ele>52.969261</ele>
        <time>2020-09-27T13:19:10.275Z</time>
      </trkpt>
      <trkpt lat="64.8657" lon="21.01035">
        <ele>53.938452</ele>
        <time>2020-09-27T13:19:17.303Z</time>
      </trkpt>
      <trkpt lat="64.86563" lon="21.01021">
        <ele>54.796979</ele>
        <time>2020-09-27T13:19:23.298Z</time>
      </trkpt>
      <trkpt lat="64.86555" lon="21.01011">
        <ele>55.658881</ele>
        <time>2020-09-27T13:19:28.266Z</time>
      </trkpt>
      <trkpt lat="64.86545" lon="21.00997">
        <ele>56.720755</ele>
        <time>2020-09-27T13:19:33.262Z</time>
      </trkpt>
      <trkpt lat="64.86537" lon="21.00986">
        <ele>57.636707</ele>
        <time>2020-09-27T13:19:37.280Z</time>
      </trkpt>
      <trkpt lat="64.86528" lon="21.00974">
        <ele>58.585079</ele>
        <time>2020-09-27T13:19:41.281Z</time>
      </trkpt>
      <trkpt lat="64.86517" lon="21.00965">
        <ele>59.619579</ele>
        <time>2020-09-27T13:19:45.264Z</time>
      </trkpt>
      <trkpt lat="64.86508" lon="21.00956">
        <ele>60.599984</ele>
        <time>2020-09-27T13:19:49.301Z</time>
      </trkpt>
      <trkpt lat="64.86498" lon="21.00951">
        <ele>61.499755</ele>
        <time>2020-09-27T13:19:52.270Z</time>
      </trkpt>
      <trkpt lat="64.86488" lon="21.00941">
        <ele>62.217459</ele>
        <time>2020-09-27T13:19:56.346Z</time>
      </trkpt>
      <trkpt lat="64.86478" lon="21.00933">
        <ele>62.044185</ele>
        <time>2020-09-27T13:20:00.279Z</time>
      </trkpt>
      <trkpt lat="64.86469" lon="21.00928">
        <ele>61.883159</ele>
        <time>2020-09-27T13:20:04.438Z</time>
      </trkpt>
      <trkpt lat="64.86459" lon="21.0092">
        <ele>61.717881</ele>
        <time>2020-09-27T13:20:07.288Z</time>
      </trkpt>
      <trkpt lat="64.86447" lon="21.00911">
        <ele>61.503846</ele>
        <time>2020-09-27T13:20:12.192Z</time>
      </trkpt>
      <trkpt lat="64.86438" lon="21.00906">
        <ele>61.33877</ele>
        <time>2020-09-27T13:20:14.264Z</time>
      </trkpt>
      <trkpt lat="64.86427" lon="21.009">
        <ele>61.156743</ele>
        <time>2020-09-27T13:20:17.257Z</time>
      </trkpt>
      <trkpt lat="64.86417" lon="21.00895">
        <ele>60.989875</ele>
        <time>2020-09-27T13:20:20.278Z</time>
      </trkpt>
      <trkpt lat="64.86408" lon="21.00892">
        <ele>60.838159</ele>
        <time>2020-09-27T13:20:23.259Z</time>
      </trkpt>
      <trkpt lat="64.86397" lon="21.00887">
        <ele>60.650468</ele>
        <time>2020-09-27T13:20:27.294Z</time>
      </trkpt>
      <trkpt lat="64.86388" lon="21.00882">
        <ele>60.497121</ele>
        <time>2020-09-27T13:20:30.276Z</time>
      </trkpt>
      <trkpt lat="64.8638" lon="21.00877">
        <ele>60.346313</ele>
        <time>2020-09-27T13:20:33.265Z</time>
      </trkpt>
      <trkpt lat="64.86371" lon="21.00871">
        <ele>60.194543</ele>
        <time>2020-09-27T13:20:36.283Z</time>
      </trkpt>
      <trkpt lat="64.86362" lon="21.00862">
        <ele>60.038669</ele>
        <time>2020-09-27T13:20:39.269Z</time>
      </trkpt>
      <trkpt lat="64.86354" lon="21.00851">
        <ele>59.875634</ele>
        <time>2020-09-27T13:20:43.270Z</time>
      </trkpt>
      <trkpt lat="64.86345" lon="21.00838">
        <ele>59.702459</ele>
        <time>2020-09-27T13:20:48.273Z</time>
      </trkpt>
      <trkpt lat="64.86337" lon="21.00822">
        <ele>59.525098</ele>
        <time>2020-09-27T13:20:54.259Z</time>
      </trkpt>
      <trkpt lat="64.86329" lon="21.00811">
        <ele>59.367802</ele>
        <time>2020-09-27T13:20:59.261Z</time>
      </trkpt>
      <trkpt lat="64.8632" lon="21.00797">
        <ele>59.286922</ele>
        <time>2020-09-27T13:21:04.302Z</time>
      </trkpt>
      <trkpt lat="64.86311" lon="21.00785">
        <ele>59.350632</ele>
        <time>2020-09-27T13:21:09.271Z</time>
      </trkpt>
      <trkpt lat="64.86302" lon="21.00775">
        <ele>59.41385</ele>
        <time>2020-09-27T13:21:14.282Z</time>
      </trkpt>
      <trkpt lat="64.86292" lon="21.00764">
        <ele>59.479633</ele>
        <time>2020-09-27T13:21:19.289Z</time>
      </trkpt>
      <trkpt lat="64.86282" lon="21.00752">
        <ele>59.546842</ele>
        <time>2020-09-27T13:21:24.294Z</time>
      </trkpt>
      <trkpt lat="64.86273" lon="21.0074">
        <ele>59.612552</ele>
        <time>2020-09-27T13:21:28.278Z</time>
      </trkpt>
      <trkpt lat="64.86263" lon="21.00731">
        <ele>59.676342</ele>
        <time>2020-09-27T13:21:31.290Z</time>
      </trkpt>
      <trkpt lat="64.86253" lon="21.00724">
        <ele>59.742808</ele>
        <time>2020-09-27T13:21:34.290Z</time>
      </trkpt>
      <trkpt lat="64.86242" lon="21.00718">
        <ele>59.816225</ele>
        <time>2020-09-27T13:21:37.307Z</time>
      </trkpt>
      <trkpt lat="64.86229" lon="21.00713">
        <ele>59.894963</ele>
        <time>2020-09-27T13:21:40.302Z</time>
      </trkpt>
      <trkpt lat="64.86217" lon="21.00708">
        <ele>59.971872</ele>
        <time>2020-09-27T13:21:43.284Z</time>
      </trkpt>
      <trkpt lat="64.86207" lon="21.00706">
        <ele>60.030174</ele>
        <time>2020-09-27T13:21:45.270Z</time>
      </trkpt>
      <trkpt lat="64.86198" lon="21.00706">
        <ele>60.086349</ele>
        <time>2020-09-27T13:21:47.286Z</time>
      </trkpt>
      <trkpt lat="64.86188" lon="21.00705">
        <ele>60.146855</ele>
        <time>2020-09-27T13:21:49.272Z</time>
      </trkpt>
      <trkpt lat="64.86177" lon="21.00704">
        <ele>60.214846</ele>
        <time>2020-09-27T13:21:51.301Z</time>
      </trkpt>
      <trkpt lat="64.86165" lon="21.00703">
        <ele>60.288914</ele>
        <time>2020-09-27T13:21:53.302Z</time>
      </trkpt>
      <trkpt lat="64.86154" lon="21.00703">
        <ele>60.361743</ele>
        <time>2020-09-27T13:21:55.281Z</time>
      </trkpt>
      <trkpt lat="64.86141" lon="21.00703">
        <ele>60.329968</ele>
        <time>2020-09-27T13:21:57.306Z</time>
      </trkpt>
      <trkpt lat="64.86129" lon="21.00704">
        <ele>60.286839</ele>
        <time>2020-09-27T13:21:59.284Z</time>
      </trkpt>
      <trkpt lat="64.86118" lon="21.00708">
        <ele>60.243679</ele>
        <time>2020-09-27T13:22:01.265Z</time>
      </trkpt>
      <trkpt lat="64.86107" lon="21.00712">
        <ele>60.20445</ele>
        <time>2020-09-27T13:22:03.292Z</time>
      </trkpt>
      <trkpt lat="64.86097" lon="21.00717">
        <ele>60.168123</ele>
        <time>2020-09-27T13:22:05.285Z</time>
      </trkpt>
      <trkpt lat="64.86088" lon="21.00723">
        <ele>60.130579</ele>
        <time>2020-09-27T13:22:07.268Z</time>
      </trkpt>
      <trkpt lat="64.86076" lon="21.00733">
        <ele>60.084245</ele>
        <time>2020-09-27T13:22:10.295Z</time>
      </trkpt>
      <trkpt lat="64.86065" lon="21.00743">
        <ele>60.040524</ele>
        <time>2020-09-27T13:22:13.273Z</time>
      </trkpt>
      <trkpt lat="64.86052" lon="21.00754">
        <ele>59.992348</ele>
        <time>2020-09-27T13:22:16.274Z</time>
      </trkpt>
      <trkpt lat="64.86044" lon="21.00762">
        <ele>59.957313</ele>
        <time>2020-09-27T13:22:18.261Z</time>
      </trkpt>
      <trkpt lat="64.86034" lon="21.00771">
        <ele>59.918794</ele>
        <time>2020-09-27T13:22:20.288Z</time>
      </trkpt>
      <trkpt lat="64.86024" lon="21.00779">
        <ele>59.879234</ele>
        <time>2020-09-27T13:22:22.270Z</time>
      </trkpt>
      <trkpt lat="64.86014" lon="21.00791">
        <ele>59.839958</ele>
        <time>2020-09-27T13:22:24.282Z</time>
      </trkpt>
      <trkpt lat="64.86004" lon="21.00805">
        <ele>59.797579</ele>
        <time>2020-09-27T13:22:26.266Z</time>
      </trkpt>
      <trkpt lat="64.85993" lon="21.0082">
        <ele>59.74893</ele>
        <time>2020-09-27T13:22:28.314Z</time>
      </trkpt>
      <trkpt lat="64.85981" lon="21.00838">
        <ele>59.470335</ele>
        <time>2020-09-27T13:22:30.280Z</time>
      </trkpt>
      <trkpt lat="64.85969" lon="21.00855">
        <ele>58.305705</ele>
        <time>2020-09-27T13:22:32.278Z</time>
      </trkpt>
      <trkpt lat="64.85956" lon="21.00867">
        <ele>57.123781</ele>
        <time>2020-09-27T13:22:34.297Z</time>
      </trkpt>
      <trkpt lat="64.85941" lon="21.00872">
        <ele>55.910082</ele>
        <time>2020-09-27T13:22:36.273Z</time>
      </trkpt>
      <trkpt lat="64.85928" lon="21.00872">
        <ele>54.85708</ele>
        <time>2020-09-27T13:22:38.272Z</time>
      </trkpt>
      <trkpt lat="64.85916" lon="21.0087">
        <ele>53.884755</ele>
        <time>2020-09-27T13:22:40.281Z</time>
      </trkpt>
      <trkpt lat="64.85902" lon="21.00867">
        <ele>52.69521</ele>
        <time>2020-09-27T13:22:42.283Z</time>
      </trkpt>
      <trkpt lat="64.85885" lon="21.00858">
        <ele>51.29387</ele>
        <time>2020-09-27T13:22:44.325Z</time>
      </trkpt>
      <trkpt lat="64.85871" lon="21.00838">
        <ele>49.886491</ele>
        <time>2020-09-27T13:22:46.282Z</time>
      </trkpt>
      <trkpt lat="64.85863" lon="21.00823">
        <ele>49.102958</ele>
        <time>2020-09-27T13:22:47.261Z</time>
      </trkpt>
      <trkpt lat="64.85856" lon="21.00808">
        <ele>48.276245</ele>
        <time>2020-09-27T13:22:48.268Z</time>
      </trkpt>
      <trkpt lat="64.85848" lon="21.00793">
        <ele>47.465035</ele>
        <time>2020-09-27T13:22:49.286Z</time>
      </trkpt>
      <trkpt lat="64.8584" lon="21.00779">
        <ele>46.653841</ele>
        <time>2020-09-27T13:22:50.279Z</time>
      </trkpt>
      <trkpt lat="64.85833" lon="21.00766">
        <ele>45.877124</ele>
        <time>2020-09-27T13:22:51.288Z</time>
      </trkpt>
      <trkpt lat="64.85825" lon="21.00753">
        <ele>45.095545</ele>
        <time>2020-09-27T13:22:52.308Z</time>
      </trkpt>
      <trkpt lat="64.85817" lon="21.0074">
        <ele>44.474341</ele>
        <time>2020-09-27T13:22:53.280Z</time>
      </trkpt>
      <trkpt lat="64.8581" lon="21.00727">
        <ele>43.902426</ele>
        <time>2020-09-27T13:22:54.270Z</time>
      </trkpt>
      <trkpt lat="64.85802" lon="21.00715">
        <ele>43.340526</ele>
        <time>2020-09-27T13:22:55.287Z</time>
      </trkpt>
      <trkpt lat="64.85788" lon="21.0069">
        <ele>42.270344</ele>
        <time>2020-09-27T13:22:57.279Z</time>
      </trkpt>
      <trkpt lat="64.85775" lon="21.00667">
        <ele>41.253436</ele>
        <time>2020-09-27T13:22:59.283Z</time>
      </trkpt>
      <trkpt lat="64.85763" lon="21.00645">
        <ele>40.286688</ele>
        <time>2020-09-27T13:23:01.272Z</time>
      </trkpt>
      <trkpt lat="64.85751" lon="21.00625">
        <ele>39.407346</ele>
        <time>2020-09-27T13:23:03.274Z</time>
      </trkpt>
      <trkpt lat="64.85741" lon="21.00604">
        <ele>38.574681</ele>
        <time>2020-09-27T13:23:05.294Z</time>
      </trkpt>
      <trkpt lat="64.85731" lon="21.00585">
        <ele>37.80667</ele>
        <time>2020-09-27T13:23:07.287Z</time>
      </trkpt>
      <trkpt lat="64.85722" lon="21.00568">
        <ele>37.072248</ele>
        <time>2020-09-27T13:23:09.279Z</time>
      </trkpt>
      <trkpt lat="64.85713" lon="21.00552">
        <ele>36.409071</ele>
        <time>2020-09-27T13:23:11.290Z</time>
      </trkpt>
      <trkpt lat="64.85706" lon="21.00537">
        <ele>35.77632</ele>
        <time>2020-09-27T13:23:13.269Z</time>
      </trkpt>
      <trkpt lat="64.85697" lon="21.00522">
        <ele>35.132517</ele>
        <time>2020-09-27T13:23:15.295Z</time>
      </trkpt>
      <trkpt lat="64.85689" lon="21.00508">
        <ele>34.520965</ele>
        <time>2020-09-27T13:23:17.280Z</time>
      </trkpt>
      <trkpt lat="64.85681" lon="21.00493">
        <ele>33.891532</ele>
        <time>2020-09-27T13:23:19.281Z</time>
      </trkpt>
      <trkpt lat="64.85673" lon="21.0048">
        <ele>33.667734</ele>
        <time>2020-09-27T13:23:21.270Z</time>
      </trkpt>
      <trkpt lat="64.85666" lon="21.00466">
        <ele>33.47694</ele>
        <time>2020-09-27T13:23:23.265Z</time>
      </trkpt>
      <trkpt lat="64.85656" lon="21.00448">
        <ele>33.218211</ele>
        <time>2020-09-27T13:23:26.279Z</time>
      </trkpt>
      <trkpt lat="64.85645" lon="21.00428">
        <ele>32.948912</ele>
        <time>2020-09-27T13:23:29.265Z</time>
      </trkpt>
      <trkpt lat="64.85638" lon="21.00414">
        <ele>32.761266</ele>
        <time>2020-09-27T13:23:31.284Z</time>
      </trkpt>
      <trkpt lat="64.85631" lon="21.004">
        <ele>32.572067</ele>
        <time>2020-09-27T13:23:33.315Z</time>
      </trkpt>
      <trkpt lat="64.85623" lon="21.00386">
        <ele>32.378671</ele>
        <time>2020-09-27T13:23:35.289Z</time>
      </trkpt>
      <trkpt lat="64.85616" lon="21.00371">
        <ele>32.185808</ele>
        <time>2020-09-27T13:23:37.281Z</time>
      </trkpt>
      <trkpt lat="64.85608" lon="21.00357">
        <ele>31.990313</ele>
        <time>2020-09-27T13:23:39.303Z</time>
      </trkpt>
      <trkpt lat="64.85601" lon="21.00343">
        <ele>31.7953</ele>
        <time>2020-09-27T13:23:41.286Z</time>
      </trkpt>
      <trkpt lat="64.85593" lon="21.00328">
        <ele>31.59755</ele>
        <time>2020-09-27T13:23:43.283Z</time>
      </trkpt>
      <trkpt lat="64.85586" lon="21.00312">
        <ele>31.391859</ele>
        <time>2020-09-27T13:23:45.276Z</time>
      </trkpt>
      <trkpt lat="64.85578" lon="21.00295">
        <ele>31.180318</ele>
        <time>2020-09-27T13:23:47.273Z</time>
      </trkpt>
      <trkpt lat="64.85571" lon="21.00276">
        <ele>30.976038</ele>
        <time>2020-09-27T13:23:49.278Z</time>
      </trkpt>
      <trkpt lat="64.85564" lon="21.00254">
        <ele>30.739844</ele>
        <time>2020-09-27T13:23:51.268Z</time>
      </trkpt>
      <trkpt lat="64.85557" lon="21.0023">
        <ele>30.487868</ele>
        <time>2020-09-27T13:23:53.285Z</time>
      </trkpt>
      <trkpt lat="64.8555" lon="21.00204">
        <ele>30.229521</ele>
        <time>2020-09-27T13:23:55.294Z</time>
      </trkpt>
      <trkpt lat="64.85544" lon="21.0018">
        <ele>29.999183</ele>
        <time>2020-09-27T13:23:57.269Z</time>
      </trkpt>
      <trkpt lat="64.8554" lon="21.00156">
        <ele>29.784109</ele>
        <time>2020-09-27T13:23:59.269Z</time>
      </trkpt>
      <trkpt lat="64.85536" lon="21.00133">
        <ele>29.578497</ele>
        <time>2020-09-27T13:24:01.291Z</time>
      </trkpt>
      <trkpt lat="64.85533" lon="21.0011">
        <ele>29.378231</ele>
        <time>2020-09-27T13:24:03.297Z</time>
      </trkpt>
      <trkpt lat="64.8553" lon="21.00087">
        <ele>29.180884</ele>
        <time>2020-09-27T13:24:05.309Z</time>
      </trkpt>
      <trkpt lat="64.85528" lon="21.00065">
        <ele>28.998589</ele>
        <time>2020-09-27T13:24:07.290Z</time>
      </trkpt>
      <trkpt lat="64.85525" lon="21.00043">
        <ele>28.810467</ele>
        <time>2020-09-27T13:24:09.257Z</time>
      </trkpt>
      <trkpt lat="64.85522" lon="21.00022">
        <ele>28.623682</ele>
        <time>2020-09-27T13:24:11.288Z</time>
      </trkpt>
      <trkpt lat="64.8552" lon="21">
        <ele>28.443497</ele>
        <time>2020-09-27T13:24:13.273Z</time>
      </trkpt>
      <trkpt lat="64.85517" lon="20.9998">
        <ele>28.268524</ele>
        <time>2020-09-27T13:24:15.267Z</time>
      </trkpt>
      <trkpt lat="64.85514" lon="20.9996">
        <ele>28.094269</ele>
        <time>2020-09-27T13:24:17.274Z</time>
      </trkpt>
      <trkpt lat="64.8551" lon="20.99941">
        <ele>27.914565</ele>
        <time>2020-09-27T13:24:19.282Z</time>
      </trkpt>
      <trkpt lat="64.85505" lon="20.99922">
        <ele>27.738502</ele>
        <time>2020-09-27T13:24:21.303Z</time>
      </trkpt>
      <trkpt lat="64.85499" lon="20.99903">
        <ele>27.548058</ele>
        <time>2020-09-27T13:24:23.263Z</time>
      </trkpt>
      <trkpt lat="64.85493" lon="20.99886">
        <ele>27.358637</ele>
        <time>2020-09-27T13:24:25.282Z</time>
      </trkpt>
      <trkpt lat="64.85485" lon="20.9987">
        <ele>27.162695</ele>
        <time>2020-09-27T13:24:27.268Z</time>
      </trkpt>
      <trkpt lat="64.85478" lon="20.99855">
        <ele>26.96873</ele>
        <time>2020-09-27T13:24:29.275Z</time>
      </trkpt>
      <trkpt lat="64.85469" lon="20.99842">
        <ele>26.777997</ele>
        <time>2020-09-27T13:24:31.268Z</time>
      </trkpt>
      <trkpt lat="64.85461" lon="20.9983">
        <ele>26.786454</ele>
        <time>2020-09-27T13:24:33.281Z</time>
      </trkpt>
      <trkpt lat="64.85453" lon="20.9982">
        <ele>26.826562</ele>
        <time>2020-09-27T13:24:35.268Z</time>
      </trkpt>
      <trkpt lat="64.85444" lon="20.99811">
        <ele>26.865942</ele>
        <time>2020-09-27T13:24:37.265Z</time>
      </trkpt>
      <trkpt lat="64.85433" lon="20.998">
        <ele>26.920227</ele>
        <time>2020-09-27T13:24:40.273Z</time>
      </trkpt>
      <trkpt lat="64.85424" lon="20.99792">
        <ele>26.959469</ele>
        <time>2020-09-27T13:24:42.279Z</time>
      </trkpt>
      <trkpt lat="64.85412" lon="20.99781">
        <ele>27.017154</ele>
        <time>2020-09-27T13:24:45.266Z</time>
      </trkpt>
      <trkpt lat="64.85399" lon="20.99771">
        <ele>27.073505</ele>
        <time>2020-09-27T13:24:48.302Z</time>
      </trkpt>
      <trkpt lat="64.85388" lon="20.9976">
        <ele>27.126653</ele>
        <time>2020-09-27T13:24:51.267Z</time>
      </trkpt>
      <trkpt lat="64.85377" lon="20.99748">
        <ele>27.177996</ele>
        <time>2020-09-27T13:24:54.291Z</time>
      </trkpt>
      <trkpt lat="64.85366" lon="20.99737">
        <ele>27.22869</ele>
        <time>2020-09-27T13:24:57.266Z</time>
      </trkpt>
      <trkpt lat="64.85356" lon="20.99727">
        <ele>27.276011</ele>
        <time>2020-09-27T13:25:00.297Z</time>
      </trkpt>
      <trkpt lat="64.85347" lon="20.99718">
        <ele>27.319571</ele>
        <time>2020-09-27T13:25:03.272Z</time>
      </trkpt>
      <trkpt lat="64.85336" lon="20.99706">
        <ele>27.369749</ele>
        <time>2020-09-27T13:25:07.290Z</time>
      </trkpt>
      <trkpt lat="64.85325" lon="20.99693">
        <ele>27.420932</ele>
        <time>2020-09-27T13:25:11.282Z</time>
      </trkpt>
      <trkpt lat="64.85317" lon="20.99683">
        <ele>27.461323</ele>
        <time>2020-09-27T13:25:14.305Z</time>
      </trkpt>
      <trkpt lat="64.85308" lon="20.99675">
        <ele>27.501827</ele>
        <time>2020-09-27T13:25:17.270Z</time>
      </trkpt>
      <trkpt lat="64.853" lon="20.99667">
        <ele>27.658749</ele>
        <time>2020-09-27T13:25:20.263Z</time>
      </trkpt>
      <trkpt lat="64.8529" lon="20.99655">
        <ele>28.034572</ele>
        <time>2020-09-27T13:25:24.286Z</time>
      </trkpt>
      <trkpt lat="64.85281" lon="20.99646">
        <ele>28.352491</ele>
        <time>2020-09-27T13:25:27.262Z</time>
      </trkpt>
      <trkpt lat="64.85272" lon="20.99634">
        <ele>28.672063</ele>
        <time>2020-09-27T13:25:30.289Z</time>
      </trkpt>
      <trkpt lat="64.85264" lon="20.99619">
        <ele>29.029044</ele>
        <time>2020-09-27T13:25:33.281Z</time>
      </trkpt>
      <trkpt lat="64.85255" lon="20.996">
        <ele>29.415483</ele>
        <time>2020-09-27T13:25:36.265Z</time>
      </trkpt>
      <trkpt lat="64.85247" lon="20.99581">
        <ele>29.802388</ele>
        <time>2020-09-27T13:25:39.264Z</time>
      </trkpt>
      <trkpt lat="64.85239" lon="20.99562">
        <ele>30.177332</ele>
        <time>2020-09-27T13:25:42.262Z</time>
      </trkpt>
      <trkpt lat="64.85231" lon="20.99543">
        <ele>30.545031</ele>
        <time>2020-09-27T13:25:45.288Z</time>
      </trkpt>
      <trkpt lat="64.85224" lon="20.99524">
        <ele>30.908047</ele>
        <time>2020-09-27T13:25:48.286Z</time>
      </trkpt>
      <trkpt lat="64.85217" lon="20.99504">
        <ele>31.273085</ele>
        <time>2020-09-27T13:25:51.292Z</time>
      </trkpt>
      <trkpt lat="64.8521" lon="20.99483">
        <ele>31.631203</ele>
        <time>2020-09-27T13:25:54.298Z</time>
      </trkpt>
      <trkpt lat="64.85205" lon="20.9946">
        <ele>31.989446</ele>
        <time>2020-09-27T13:25:57.280Z</time>
      </trkpt>
      <trkpt lat="64.85201" lon="20.99437">
        <ele>32.346689</ele>
        <time>2020-09-27T13:26:00.310Z</time>
      </trkpt>
      <trkpt lat="64.85198" lon="20.99413">
        <ele>32.695223</ele>
        <time>2020-09-27T13:26:03.284Z</time>
      </trkpt>
      <trkpt lat="64.85194" lon="20.9939">
        <ele>33.034489</ele>
        <time>2020-09-27T13:26:06.312Z</time>
      </trkpt>
      <trkpt lat="64.85192" lon="20.99368">
        <ele>33.353074</ele>
        <time>2020-09-27T13:26:09.290Z</time>
      </trkpt>
      <trkpt lat="64.85189" lon="20.99348">
        <ele>33.384117</ele>
        <time>2020-09-27T13:26:12.268Z</time>
      </trkpt>
      <trkpt lat="64.85186" lon="20.99328">
        <ele>33.285719</ele>
        <time>2020-09-27T13:26:15.267Z</time>
      </trkpt>
      <trkpt lat="64.85184" lon="20.99307">
        <ele>33.186853</ele>
        <time>2020-09-27T13:26:18.283Z</time>
      </trkpt>
      <trkpt lat="64.85182" lon="20.99282">
        <ele>33.069419</ele>
        <time>2020-09-27T13:26:21.309Z</time>
      </trkpt>
      <trkpt lat="64.85176" lon="20.99255">
        <ele>32.931595</ele>
        <time>2020-09-27T13:26:24.290Z</time>
      </trkpt>
      <trkpt lat="64.85169" lon="20.99228">
        <ele>32.786244</ele>
        <time>2020-09-27T13:26:27.278Z</time>
      </trkpt>
      <trkpt lat="64.85164" lon="20.9921">
        <ele>32.686695</ele>
        <time>2020-09-27T13:26:29.303Z</time>
      </trkpt>
      <trkpt lat="64.85158" lon="20.99192">
        <ele>32.580756</ele>
        <time>2020-09-27T13:26:31.269Z</time>
      </trkpt>
      <trkpt lat="64.8515" lon="20.99174">
        <ele>32.461977</ele>
        <time>2020-09-27T13:26:33.269Z</time>
      </trkpt>
      <trkpt lat="64.85141" lon="20.99158">
        <ele>32.338059</ele>
        <time>2020-09-27T13:26:35.272Z</time>
      </trkpt>
      <trkpt lat="64.85131" lon="20.99143">
        <ele>32.207862</ele>
        <time>2020-09-27T13:26:37.270Z</time>
      </trkpt>
      <trkpt lat="64.8512" lon="20.99127">
        <ele>32.072089</ele>
        <time>2020-09-27T13:26:39.269Z</time>
      </trkpt>
      <trkpt lat="64.85109" lon="20.99112">
        <ele>31.932375</ele>
        <time>2020-09-27T13:26:41.277Z</time>
      </trkpt>
      <trkpt lat="64.85099" lon="20.99095">
        <ele>31.794099</ele>
        <time>2020-09-27T13:26:43.302Z</time>
      </trkpt>
      <trkpt lat="64.85089" lon="20.99077">
        <ele>31.660796</ele>
        <time>2020-09-27T13:26:45.293Z</time>
      </trkpt>
      <trkpt lat="64.8508" lon="20.99059">
        <ele>31.532139</ele>
        <time>2020-09-27T13:26:47.330Z</time>
      </trkpt>
      <trkpt lat="64.85072" lon="20.99039">
        <ele>31.255862</ele>
        <time>2020-09-27T13:26:49.277Z</time>
      </trkpt>
      <trkpt lat="64.85066" lon="20.99018">
        <ele>30.94185</ele>
        <time>2020-09-27T13:26:51.305Z</time>
      </trkpt>
      <trkpt lat="64.8506" lon="20.98999">
        <ele>30.644086</ele>
        <time>2020-09-27T13:26:53.282Z</time>
      </trkpt>
      <trkpt lat="64.85054" lon="20.9898">
        <ele>30.357676</ele>
        <time>2020-09-27T13:26:55.270Z</time>
      </trkpt>
      <trkpt lat="64.85048" lon="20.9896">
        <ele>30.069552</ele>
        <time>2020-09-27T13:26:57.263Z</time>
      </trkpt>
      <trkpt lat="64.85043" lon="20.9894">
        <ele>29.774815</ele>
        <time>2020-09-27T13:26:59.271Z</time>
      </trkpt>
      <trkpt lat="64.85037" lon="20.9892">
        <ele>29.474694</ele>
        <time>2020-09-27T13:27:01.308Z</time>
      </trkpt>
      <trkpt lat="64.85032" lon="20.989">
        <ele>29.182022</ele>
        <time>2020-09-27T13:27:03.282Z</time>
      </trkpt>
      <trkpt lat="64.85026" lon="20.9888">
        <ele>28.887284</ele>
        <time>2020-09-27T13:27:05.283Z</time>
      </trkpt>
      <trkpt lat="64.8502" lon="20.9886">
        <ele>28.596101</ele>
        <time>2020-09-27T13:27:07.277Z</time>
      </trkpt>
      <trkpt lat="64.85015" lon="20.98841">
        <ele>28.305329</ele>
        <time>2020-09-27T13:27:09.296Z</time>
      </trkpt>
      <trkpt lat="64.85009" lon="20.98822">
        <ele>28.024508</ele>
        <time>2020-09-27T13:27:11.270Z</time>
      </trkpt>
      <trkpt lat="64.85004" lon="20.98803">
        <ele>27.746744</ele>
        <time>2020-09-27T13:27:13.287Z</time>
      </trkpt>
      <trkpt lat="64.84999" lon="20.98785">
        <ele>27.474668</ele>
        <time>2020-09-27T13:27:15.322Z</time>
      </trkpt>
      <trkpt lat="64.84994" lon="20.98766">
        <ele>27.202716</ele>
        <time>2020-09-27T13:27:17.286Z</time>
      </trkpt>
      <trkpt lat="64.84988" lon="20.98748">
        <ele>26.930639</ele>
        <time>2020-09-27T13:27:19.279Z</time>
      </trkpt>
      <trkpt lat="64.84984" lon="20.98729">
        <ele>26.664777</ele>
        <time>2020-09-27T13:27:21.264Z</time>
      </trkpt>
      <trkpt lat="64.84979" lon="20.9871">
        <ele>26.392157</ele>
        <time>2020-09-27T13:27:23.278Z</time>
      </trkpt>
      <trkpt lat="64.84974" lon="20.98691">
        <ele>26.366675</ele>
        <time>2020-09-27T13:27:25.288Z</time>
      </trkpt>
      <trkpt lat="64.84969" lon="20.98672">
        <ele>26.46664</ele>
        <time>2020-09-27T13:27:27.283Z</time>
      </trkpt>
      <trkpt lat="64.84964" lon="20.98643">
        <ele>26.610218</ele>
        <time>2020-09-27T13:27:30.274Z</time>
      </trkpt>
      <trkpt lat="64.84958" lon="20.98615">
        <ele>26.752985</ele>
        <time>2020-09-27T13:27:33.273Z</time>
      </trkpt>
      <trkpt lat="64.84955" lon="20.98595">
        <ele>26.852132</ele>
        <time>2020-09-27T13:27:35.287Z</time>
      </trkpt>
      <trkpt lat="64.84952" lon="20.98575">
        <ele>26.951818</ele>
        <time>2020-09-27T13:27:37.271Z</time>
      </trkpt>
      <trkpt lat="64.84949" lon="20.98554">
        <ele>27.053545</ele>
        <time>2020-09-27T13:27:39.288Z</time>
      </trkpt>
      <trkpt lat="64.84945" lon="20.98533">
        <ele>27.154465</ele>
        <time>2020-09-27T13:27:41.273Z</time>
      </trkpt>
      <trkpt lat="64.84942" lon="20.98512">
        <ele>27.258727</ele>
        <time>2020-09-27T13:27:43.302Z</time>
      </trkpt>
      <trkpt lat="64.84939" lon="20.98491">
        <ele>27.36299</ele>
        <time>2020-09-27T13:27:45.278Z</time>
      </trkpt>
      <trkpt lat="64.84936" lon="20.9847">
        <ele>27.464494</ele>
        <time>2020-09-27T13:27:47.267Z</time>
      </trkpt>
      <trkpt lat="64.84933" lon="20.9845">
        <ele>27.561385</ele>
        <time>2020-09-27T13:27:49.281Z</time>
      </trkpt>
      <trkpt lat="64.84928" lon="20.98421">
        <ele>27.705603</ele>
        <time>2020-09-27T13:27:52.270Z</time>
      </trkpt>
      <trkpt lat="64.84924" lon="20.98391">
        <ele>27.849387</ele>
        <time>2020-09-27T13:27:55.272Z</time>
      </trkpt>
      <trkpt lat="64.84921" lon="20.98371">
        <ele>27.947776</ele>
        <time>2020-09-27T13:27:57.265Z</time>
      </trkpt>
      <trkpt lat="64.84917" lon="20.98351">
        <ele>28.047319</ele>
        <time>2020-09-27T13:27:59.286Z</time>
      </trkpt>
      <trkpt lat="64.84914" lon="20.9833">
        <ele>28.149105</ele>
        <time>2020-09-27T13:28:01.313Z</time>
      </trkpt>
      <trkpt lat="64.8491" lon="20.98309">
        <ele>28.227249</ele>
        <time>2020-09-27T13:28:03.277Z</time>
      </trkpt>
      <trkpt lat="64.84907" lon="20.98286">
        <ele>28.061584</ele>
        <time>2020-09-27T13:28:05.315Z</time>
      </trkpt>
      <trkpt lat="64.84903" lon="20.98265">
        <ele>27.897816</ele>
        <time>2020-09-27T13:28:07.274Z</time>
      </trkpt>
      <trkpt lat="64.84899" lon="20.98243">
        <ele>27.734135</ele>
        <time>2020-09-27T13:28:09.261Z</time>
      </trkpt>
      <trkpt lat="64.84894" lon="20.98222">
        <ele>27.567048</ele>
        <time>2020-09-27T13:28:11.324Z</time>
      </trkpt>
      <trkpt lat="64.84889" lon="20.98201">
        <ele>27.395121</ele>
        <time>2020-09-27T13:28:13.309Z</time>
      </trkpt>
      <trkpt lat="64.84883" lon="20.98179">
        <ele>27.212806</ele>
        <time>2020-09-27T13:28:15.303Z</time>
      </trkpt>
      <trkpt lat="64.84876" lon="20.98159">
        <ele>27.028343</ele>
        <time>2020-09-27T13:28:17.273Z</time>
      </trkpt>
      <trkpt lat="64.84867" lon="20.98141">
        <ele>26.843451</ele>
        <time>2020-09-27T13:28:19.286Z</time>
      </trkpt>
      <trkpt lat="64.84858" lon="20.98126">
        <ele>26.665674</ele>
        <time>2020-09-27T13:28:21.281Z</time>
      </trkpt>
      <trkpt lat="64.8485" lon="20.98112">
        <ele>26.491739</ele>
        <time>2020-09-27T13:28:23.286Z</time>
      </trkpt>
      <trkpt lat="64.84841" lon="20.981">
        <ele>26.327981</ele>
        <time>2020-09-27T13:28:25.309Z</time>
      </trkpt>
      <trkpt lat="64.84833" lon="20.98089">
        <ele>26.17511</ele>
        <time>2020-09-27T13:28:27.266Z</time>
      </trkpt>
      <trkpt lat="64.84824" lon="20.98082">
        <ele>26.027324</ele>
        <time>2020-09-27T13:28:29.319Z</time>
      </trkpt>
      <trkpt lat="64.84816" lon="20.98077">
        <ele>25.878923</ele>
        <time>2020-09-27T13:28:31.288Z</time>
      </trkpt>
      <trkpt lat="64.84804" lon="20.98072">
        <ele>25.676945</ele>
        <time>2020-09-27T13:28:34.302Z</time>
      </trkpt>
      <trkpt lat="64.84791" lon="20.98068">
        <ele>25.471258</ele>
        <time>2020-09-27T13:28:37.286Z</time>
      </trkpt>
      <trkpt lat="64.8478" lon="20.98064">
        <ele>25.308035</ele>
        <time>2020-09-27T13:28:40.290Z</time>
      </trkpt>
      <trkpt lat="64.84768" lon="20.98062">
        <ele>25.515327</ele>
        <time>2020-09-27T13:28:43.266Z</time>
      </trkpt>
      <trkpt lat="64.84756" lon="20.9806">
        <ele>25.717821</ele>
        <time>2020-09-27T13:28:46.289Z</time>
      </trkpt>
      <trkpt lat="64.84744" lon="20.98059">
        <ele>25.922996</ele>
        <time>2020-09-27T13:28:49.310Z</time>
      </trkpt>
      <trkpt lat="64.84733" lon="20.98058">
        <ele>26.124911</ele>
        <time>2020-09-27T13:28:52.281Z</time>
      </trkpt>
      <trkpt lat="64.84721" lon="20.98055">
        <ele>26.324013</ele>
        <time>2020-09-27T13:28:55.278Z</time>
      </trkpt>
      <trkpt lat="64.8471" lon="20.9805">
        <ele>26.521783</ele>
        <time>2020-09-27T13:28:58.286Z</time>
      </trkpt>
      <trkpt lat="64.84699" lon="20.98045">
        <ele>26.723788</ele>
        <time>2020-09-27T13:29:01.277Z</time>
      </trkpt>
      <trkpt lat="64.84687" lon="20.9804">
        <ele>26.921557</ele>
        <time>2020-09-27T13:29:04.310Z</time>
      </trkpt>
      <trkpt lat="64.84676" lon="20.98036">
        <ele>27.129018</ele>
        <time>2020-09-27T13:29:07.287Z</time>
      </trkpt>
      <trkpt lat="64.84663" lon="20.98029">
        <ele>27.358827</ele>
        <time>2020-09-27T13:29:10.271Z</time>
      </trkpt>
      <trkpt lat="64.84654" lon="20.98024">
        <ele>27.519582</ele>
        <time>2020-09-27T13:29:12.265Z</time>
      </trkpt>
      <trkpt lat="64.84644" lon="20.9802">
        <ele>27.692614</ele>
        <time>2020-09-27T13:29:14.268Z</time>
      </trkpt>
      <trkpt lat="64.84634" lon="20.98017">
        <ele>27.862989</ele>
        <time>2020-09-27T13:29:16.306Z</time>
      </trkpt>
      <trkpt lat="64.84624" lon="20.98015">
        <ele>28.044508</ele>
        <time>2020-09-27T13:29:18.302Z</time>
      </trkpt>
      <trkpt lat="64.84613" lon="20.98013">
        <ele>28.225594</ele>
        <time>2020-09-27T13:29:20.293Z</time>
      </trkpt>
      <trkpt lat="64.84603" lon="20.98014">
        <ele>28.406438</ele>
        <time>2020-09-27T13:29:22.305Z</time>
      </trkpt>
      <trkpt lat="64.84593" lon="20.98017">
        <ele>28.482752</ele>
        <time>2020-09-27T13:29:24.268Z</time>
      </trkpt>
      <trkpt lat="64.84583" lon="20.9802">
        <ele>28.551252</ele>
        <time>2020-09-27T13:29:26.277Z</time>
      </trkpt>
      <trkpt lat="64.84573" lon="20.98027">
        <ele>28.618686</ele>
        <time>2020-09-27T13:29:28.266Z</time>
      </trkpt>
      <trkpt lat="64.84564" lon="20.98035">
        <ele>28.68316</ele>
        <time>2020-09-27T13:29:30.314Z</time>
      </trkpt>
      <trkpt lat="64.84556" lon="20.98043">
        <ele>28.745452</ele>
        <time>2020-09-27T13:29:32.268Z</time>
      </trkpt>
      <trkpt lat="64.84543" lon="20.98055">
        <ele>28.834905</ele>
        <time>2020-09-27T13:29:35.283Z</time>
      </trkpt>
      <trkpt lat="64.84535" lon="20.98064">
        <ele>28.89639</ele>
        <time>2020-09-27T13:29:37.261Z</time>
      </trkpt>
      <trkpt lat="64.84527" lon="20.98074">
        <ele>28.957271</ele>
        <time>2020-09-27T13:29:39.267Z</time>
      </trkpt>
      <trkpt lat="64.84515" lon="20.98086">
        <ele>29.042537</ele>
        <time>2020-09-27T13:29:42.261Z</time>
      </trkpt>
      <trkpt lat="64.84503" lon="20.98099">
        <ele>29.129734</ele>
        <time>2020-09-27T13:29:45.278Z</time>
      </trkpt>
      <trkpt lat="64.84492" lon="20.98113">
        <ele>29.215451</ele>
        <time>2020-09-27T13:29:48.277Z</time>
      </trkpt>
      <trkpt lat="64.84481" lon="20.98128">
        <ele>29.301377</ele>
        <time>2020-09-27T13:29:51.270Z</time>
      </trkpt>
      <trkpt lat="64.84471" lon="20.98143">
        <ele>29.382537</ele>
        <time>2020-09-27T13:29:54.289Z</time>
      </trkpt>
      <trkpt lat="64.8446" lon="20.98156">
        <ele>29.460142</ele>
        <time>2020-09-27T13:29:57.268Z</time>
      </trkpt>
      <trkpt lat="64.8445" lon="20.98167">
        <ele>29.538857</ele>
        <time>2020-09-27T13:30:00.288Z</time>
      </trkpt>
      <trkpt lat="64.84439" lon="20.98177">
        <ele>29.613747</ele>
        <time>2020-09-27T13:30:03.271Z</time>
      </trkpt>
      <trkpt lat="64.84429" lon="20.98187">
        <ele>30.371759</ele>
        <time>2020-09-27T13:30:06.303Z</time>
      </trkpt>
      <trkpt lat="64.84418" lon="20.98193">
        <ele>31.284508</ele>
        <time>2020-09-27T13:30:09.271Z</time>
      </trkpt>
      <trkpt lat="64.84407" lon="20.98196">
        <ele>32.160033</ele>
        <time>2020-09-27T13:30:12.279Z</time>
      </trkpt>
      <trkpt lat="64.84395" lon="20.98196">
        <ele>33.030369</ele>
        <time>2020-09-27T13:30:15.302Z</time>
      </trkpt>
      <trkpt lat="64.84385" lon="20.98194">
        <ele>33.84115</ele>
        <time>2020-09-27T13:30:18.282Z</time>
      </trkpt>
      <trkpt lat="64.84376" lon="20.98191">
        <ele>34.552841</ele>
        <time>2020-09-27T13:30:21.282Z</time>
      </trkpt>
      <trkpt lat="64.84366" lon="20.98186">
        <ele>35.386353</ele>
        <time>2020-09-27T13:30:25.258Z</time>
      </trkpt>
      <trkpt lat="64.84356" lon="20.98179">
        <ele>36.189487</ele>
        <time>2020-09-27T13:30:29.299Z</time>
      </trkpt>
      <trkpt lat="64.84346" lon="20.98174">
        <ele>36.978544</ele>
        <time>2020-09-27T13:30:34.271Z</time>
      </trkpt>
      <trkpt lat="64.84335" lon="20.98171">
        <ele>37.816337</ele>
        <time>2020-09-27T13:30:41.271Z</time>
      </trkpt>
      <trkpt lat="64.84327" lon="20.98167">
        <ele>38.524857</ele>
        <time>2020-09-27T13:30:47.267Z</time>
      </trkpt>
      <trkpt lat="64.84318" lon="20.98166">
        <ele>39.231356</ele>
        <time>2020-09-27T13:30:53.305Z</time>
      </trkpt>
      <trkpt lat="64.84307" lon="20.98169">
        <ele>40.052364</ele>
        <time>2020-09-27T13:31:00.310Z</time>
      </trkpt>
      <trkpt lat="64.84298" lon="20.98172">
        <ele>40.782436</ele>
        <time>2020-09-27T13:31:05.269Z</time>
      </trkpt>
      <trkpt lat="64.84289" lon="20.98175">
        <ele>41.501066</ele>
        <time>2020-09-27T13:31:10.279Z</time>
      </trkpt>
      <trkpt lat="64.84279" lon="20.98178">
        <ele>42.301885</ele>
        <time>2020-09-27T13:31:16.277Z</time>
      </trkpt>
      <trkpt lat="64.84269" lon="20.98185">
        <ele>43.082317</ele>
        <time>2020-09-27T13:31:23.289Z</time>
      </trkpt>
      <trkpt lat="64.84259" lon="20.98191">
        <ele>43.776975</ele>
        <time>2020-09-27T13:31:29.287Z</time>
      </trkpt>
      <trkpt lat="64.8425" lon="20.98197">
        <ele>44.052633</ele>
        <time>2020-09-27T13:31:35.283Z</time>
      </trkpt>
      <trkpt lat="64.8424" lon="20.98208">
        <ele>44.338967</ele>
        <time>2020-09-27T13:31:41.321Z</time>
      </trkpt>
      <trkpt lat="64.8423" lon="20.98216">
        <ele>44.613053</ele>
        <time>2020-09-27T13:31:47.283Z</time>
      </trkpt>
      <trkpt lat="64.84221" lon="20.98224">
        <ele>44.872861</ele>
        <time>2020-09-27T13:31:53.294Z</time>
      </trkpt>
      <trkpt lat="64.84212" lon="20.98234">
        <ele>45.163635</ele>
        <time>2020-09-27T13:31:58.329Z</time>
      </trkpt>
      <trkpt lat="64.84202" lon="20.98248">
        <ele>45.474333</ele>
        <time>2020-09-27T13:32:03.309Z</time>
      </trkpt>
      <trkpt lat="64.84193" lon="20.98264">
        <ele>45.782414</ele>
        <time>2020-09-27T13:32:07.258Z</time>
      </trkpt>
      <trkpt lat="64.84185" lon="20.98277">
        <ele>46.038326</ele>
        <time>2020-09-27T13:32:10.276Z</time>
      </trkpt>
      <trkpt lat="64.84177" lon="20.98289">
        <ele>46.290461</ele>
        <time>2020-09-27T13:32:13.285Z</time>
      </trkpt>
      <trkpt lat="64.84169" lon="20.98303">
        <ele>46.568492</ele>
        <time>2020-09-27T13:32:16.277Z</time>
      </trkpt>
      <trkpt lat="64.8416" lon="20.98318">
        <ele>46.86377</ele>
        <time>2020-09-27T13:32:19.274Z</time>
      </trkpt>
      <trkpt lat="64.8415" lon="20.98336">
        <ele>47.18941</ele>
        <time>2020-09-27T13:32:22.293Z</time>
      </trkpt>
      <trkpt lat="64.84143" lon="20.98349">
        <ele>47.433501</ele>
        <time>2020-09-27T13:32:24.281Z</time>
      </trkpt>
      <trkpt lat="64.84136" lon="20.98363">
        <ele>47.688362</ele>
        <time>2020-09-27T13:32:26.282Z</time>
      </trkpt>
      <trkpt lat="64.84129" lon="20.98378">
        <ele>47.953132</ele>
        <time>2020-09-27T13:32:28.286Z</time>
      </trkpt>
      <trkpt lat="64.84122" lon="20.98396">
        <ele>48.23109</ele>
        <time>2020-09-27T13:32:30.291Z</time>
      </trkpt>
      <trkpt lat="64.84117" lon="20.98416">
        <ele>48.501628</ele>
        <time>2020-09-27T13:32:32.280Z</time>
      </trkpt>
      <trkpt lat="64.84113" lon="20.98438">
        <ele>48.29534</ele>
        <time>2020-09-27T13:32:34.290Z</time>
      </trkpt>
      <trkpt lat="64.84112" lon="20.98461">
        <ele>47.842656</ele>
        <time>2020-09-27T13:32:36.307Z</time>
      </trkpt>
      <trkpt lat="64.8411" lon="20.98487">
        <ele>47.350104</ele>
        <time>2020-09-27T13:32:38.261Z</time>
      </trkpt>
      <trkpt lat="64.84109" lon="20.98512">
        <ele>46.868006</ele>
        <time>2020-09-27T13:32:40.303Z</time>
      </trkpt>
      <trkpt lat="64.84107" lon="20.98539">
        <ele>46.342496</ele>
        <time>2020-09-27T13:32:43.292Z</time>
      </trkpt>
      <trkpt lat="64.84098" lon="20.98553">
        <ele>45.861187</ele>
        <time>2020-09-27T13:32:50.260Z</time>
      </trkpt>
      <trkpt lat="64.84087" lon="20.98548">
        <ele>45.346131</ele>
        <time>2020-09-27T13:32:55.273Z</time>
      </trkpt>
      <trkpt lat="64.84077" lon="20.98545">
        <ele>44.87122</ele>
        <time>2020-09-27T13:32:59.267Z</time>
      </trkpt>
      <trkpt lat="64.84065" lon="20.98541">
        <ele>44.336736</ele>
        <time>2020-09-27T13:33:03.281Z</time>
      </trkpt>
      <trkpt lat="64.84055" lon="20.98538">
        <ele>43.882674</ele>
        <time>2020-09-27T13:33:06.263Z</time>
      </trkpt>
      <trkpt lat="64.84045" lon="20.98536">
        <ele>43.428616</ele>
        <time>2020-09-27T13:33:09.286Z</time>
      </trkpt>
      <trkpt lat="64.84034" lon="20.98532">
        <ele>42.952666</ele>
        <time>2020-09-27T13:33:12.306Z</time>
      </trkpt>
      <trkpt lat="64.84023" lon="20.98529">
        <ele>42.445625</ele>
        <time>2020-09-27T13:33:15.281Z</time>
      </trkpt>
      <trkpt lat="64.84012" lon="20.98525">
        <ele>41.946067</ele>
        <time>2020-09-27T13:33:18.314Z</time>
      </trkpt>
      <trkpt lat="64.84" lon="20.98521">
        <ele>41.411583</ele>
        <time>2020-09-27T13:33:21.278Z</time>
      </trkpt>
      <trkpt lat="64.83988" lon="20.98515">
        <ele>40.854396</ele>
        <time>2020-09-27T13:33:24.296Z</time>
      </trkpt>
      <trkpt lat="64.83975" lon="20.98509">
        <ele>40.322455</ele>
        <time>2020-09-27T13:33:27.290Z</time>
      </trkpt>
      <trkpt lat="64.83966" lon="20.98504">
        <ele>40.003672</ele>
        <time>2020-09-27T13:33:29.280Z</time>
      </trkpt>
      <trkpt lat="64.83957" lon="20.98499">
        <ele>39.691005</ele>
        <time>2020-09-27T13:33:31.272Z</time>
      </trkpt>
      <trkpt lat="64.83944" lon="20.98495">
        <ele>39.235269</ele>
        <time>2020-09-27T13:33:34.307Z</time>
      </trkpt>
      <trkpt lat="64.83931" lon="20.9849">
        <ele>38.79143</ele>
        <time>2020-09-27T13:33:37.268Z</time>
      </trkpt>
      <trkpt lat="64.83918" lon="20.98485">
        <ele>38.353634</ele>
        <time>2020-09-27T13:33:40.274Z</time>
      </trkpt>
      <trkpt lat="64.83906" lon="20.9848">
        <ele>37.923077</ele>
        <time>2020-09-27T13:33:43.290Z</time>
      </trkpt>
      <trkpt lat="64.83893" lon="20.98475">
        <ele>37.475856</ele>
        <time>2020-09-27T13:33:46.293Z</time>
      </trkpt>
      <trkpt lat="64.83884" lon="20.98472">
        <ele>37.159628</ele>
        <time>2020-09-27T13:33:48.287Z</time>
      </trkpt>
      <trkpt lat="64.83874" lon="20.98469">
        <ele>36.818009</ele>
        <time>2020-09-27T13:33:50.274Z</time>
      </trkpt>
      <trkpt lat="64.83865" lon="20.98463">
        <ele>36.482645</ele>
        <time>2020-09-27T13:33:52.276Z</time>
      </trkpt>
      <trkpt lat="64.83854" lon="20.98457">
        <ele>36.097947</ele>
        <time>2020-09-27T13:33:54.334Z</time>
      </trkpt>
      <trkpt lat="64.83843" lon="20.98451">
        <ele>35.704284</ele>
        <time>2020-09-27T13:33:56.284Z</time>
      </trkpt>
      <trkpt lat="64.8383" lon="20.98446">
        <ele>35.285462</ele>
        <time>2020-09-27T13:33:58.288Z</time>
      </trkpt>
      <trkpt lat="64.83818" lon="20.98443">
        <ele>34.872238</ele>
        <time>2020-09-27T13:34:00.324Z</time>
      </trkpt>
      <trkpt lat="64.83808" lon="20.9844">
        <ele>34.49985</ele>
        <time>2020-09-27T13:34:02.314Z</time>
      </trkpt>
      <trkpt lat="64.83797" lon="20.98437">
        <ele>34.504048</ele>
        <time>2020-09-27T13:34:04.283Z</time>
      </trkpt>
      <trkpt lat="64.83788" lon="20.98435">
        <ele>34.714351</ele>
        <time>2020-09-27T13:34:06.287Z</time>
      </trkpt>
      <trkpt lat="64.83778" lon="20.98432">
        <ele>34.931756</ele>
        <time>2020-09-27T13:34:08.281Z</time>
      </trkpt>
      <trkpt lat="64.83769" lon="20.98429">
        <ele>35.14261</ele>
        <time>2020-09-27T13:34:10.280Z</time>
      </trkpt>
      <trkpt lat="64.83759" lon="20.98426">
        <ele>35.347175</ele>
        <time>2020-09-27T13:34:12.290Z</time>
      </trkpt>
      <trkpt lat="64.83746" lon="20.98421">
        <ele>35.641167</ele>
        <time>2020-09-27T13:34:15.294Z</time>
      </trkpt>
      <trkpt lat="64.83737" lon="20.98416">
        <ele>35.840433</ele>
        <time>2020-09-27T13:34:17.296Z</time>
      </trkpt>
      <trkpt lat="64.83728" lon="20.98413">
        <ele>36.039203</ele>
        <time>2020-09-27T13:34:19.282Z</time>
      </trkpt>
      <trkpt lat="64.83716" lon="20.9841">
        <ele>36.317861</ele>
        <time>2020-09-27T13:34:22.298Z</time>
      </trkpt>
      <trkpt lat="64.83704" lon="20.98405">
        <ele>36.589529</ele>
        <time>2020-09-27T13:34:25.289Z</time>
      </trkpt>
      <trkpt lat="64.83692" lon="20.98401">
        <ele>36.859465</ele>
        <time>2020-09-27T13:34:28.296Z</time>
      </trkpt>
      <trkpt lat="64.8368" lon="20.98396">
        <ele>37.124324</ele>
        <time>2020-09-27T13:34:31.301Z</time>
      </trkpt>
      <trkpt lat="64.83667" lon="20.98392">
        <ele>37.40063</ele>
        <time>2020-09-27T13:34:34.266Z</time>
      </trkpt>
      <trkpt lat="64.83658" lon="20.9839">
        <ele>37.599291</ele>
        <time>2020-09-27T13:34:36.283Z</time>
      </trkpt>
      <trkpt lat="64.83645" lon="20.98391">
        <ele>37.889927</ele>
        <time>2020-09-27T13:34:39.278Z</time>
      </trkpt>
      <trkpt lat="64.83632" lon="20.98395">
        <ele>38.185052</ele>
        <time>2020-09-27T13:34:42.285Z</time>
      </trkpt>
      <trkpt lat="64.83623" lon="20.98401">
        <ele>38.317208</ele>
        <time>2020-09-27T13:34:44.267Z</time>
      </trkpt>
      <trkpt lat="64.83614" lon="20.98408">
        <ele>38.300161</ele>
        <time>2020-09-27T13:34:46.270Z</time>
      </trkpt>
      <trkpt lat="64.83605" lon="20.98416">
        <ele>38.281993</ele>
        <time>2020-09-27T13:34:48.324Z</time>
      </trkpt>
      <trkpt lat="64.83595" lon="20.98426">
        <ele>38.263949</ele>
        <time>2020-09-27T13:34:50.276Z</time>
      </trkpt>
      <trkpt lat="64.83586" lon="20.98437">
        <ele>38.245505</ele>
        <time>2020-09-27T13:34:52.269Z</time>
      </trkpt>
      <trkpt lat="64.83577" lon="20.98449">
        <ele>38.226769</ele>
        <time>2020-09-27T13:34:54.271Z</time>
      </trkpt>
      <trkpt lat="64.83568" lon="20.98462">
        <ele>38.207419</ele>
        <time>2020-09-27T13:34:56.297Z</time>
      </trkpt>
      <trkpt lat="64.83558" lon="20.98475">
        <ele>38.186713</ele>
        <time>2020-09-27T13:34:58.278Z</time>
      </trkpt>
      <trkpt lat="64.83548" lon="20.98489">
        <ele>38.165684</ele>
        <time>2020-09-27T13:35:00.330Z</time>
      </trkpt>
      <trkpt lat="64.83537" lon="20.98503">
        <ele>38.143237</ele>
        <time>2020-09-27T13:35:02.287Z</time>
      </trkpt>
      <trkpt lat="64.83526" lon="20.98519">
        <ele>38.120822</ele>
        <time>2020-09-27T13:35:04.301Z</time>
      </trkpt>
      <trkpt lat="64.83515" lon="20.98535">
        <ele>38.097676</ele>
        <time>2020-09-27T13:35:06.284Z</time>
      </trkpt>
      <trkpt lat="64.83504" lon="20.98551">
        <ele>38.074489</ele>
        <time>2020-09-27T13:35:08.285Z</time>
      </trkpt>
      <trkpt lat="64.83494" lon="20.98564">
        <ele>38.053861</ele>
        <time>2020-09-27T13:35:10.283Z</time>
      </trkpt>
      <trkpt lat="64.83485" lon="20.98576">
        <ele>38.035163</ele>
        <time>2020-09-27T13:35:12.298Z</time>
      </trkpt>
      <trkpt lat="64.83477" lon="20.98588">
        <ele>38.017241</ele>
        <time>2020-09-27T13:35:14.267Z</time>
      </trkpt>
      <trkpt lat="64.83467" lon="20.986">
        <ele>38.030048</ele>
        <time>2020-09-27T13:35:16.298Z</time>
      </trkpt>
      <trkpt lat="64.83456" lon="20.98612">
        <ele>38.417462</ele>
        <time>2020-09-27T13:35:18.313Z</time>
      </trkpt>
      <trkpt lat="64.83445" lon="20.98626">
        <ele>38.810013</ele>
        <time>2020-09-27T13:35:20.278Z</time>
      </trkpt>
      <trkpt lat="64.83435" lon="20.98641">
        <ele>39.17819</ele>
        <time>2020-09-27T13:35:22.314Z</time>
      </trkpt>
      <trkpt lat="64.83425" lon="20.98653">
        <ele>39.524696</ele>
        <time>2020-09-27T13:35:24.273Z</time>
      </trkpt>
      <trkpt lat="64.83416" lon="20.98665">
        <ele>39.842626</ele>
        <time>2020-09-27T13:35:26.275Z</time>
      </trkpt>
      <trkpt lat="64.83408" lon="20.98676">
        <ele>40.132136</ele>
        <time>2020-09-27T13:35:28.291Z</time>
      </trkpt>
      <trkpt lat="64.83398" lon="20.9869">
        <ele>40.509651</ele>
        <time>2020-09-27T13:35:31.293Z</time>
      </trkpt>
      <trkpt lat="64.83388" lon="20.98704">
        <ele>40.861515</ele>
        <time>2020-09-27T13:35:34.269Z</time>
      </trkpt>
      <trkpt lat="64.83379" lon="20.98717">
        <ele>41.191755</ele>
        <time>2020-09-27T13:35:37.303Z</time>
      </trkpt>
      <trkpt lat="64.8337" lon="20.98729">
        <ele>41.521292</ele>
        <time>2020-09-27T13:35:40.270Z</time>
      </trkpt>
      <trkpt lat="64.83361" lon="20.9874">
        <ele>41.835972</ele>
        <time>2020-09-27T13:35:43.286Z</time>
      </trkpt>
      <trkpt lat="64.83352" lon="20.98752">
        <ele>42.163414</ele>
        <time>2020-09-27T13:35:46.289Z</time>
      </trkpt>
      <trkpt lat="64.83343" lon="20.98765">
        <ele>42.490838</ele>
        <time>2020-09-27T13:35:49.284Z</time>
      </trkpt>
      <trkpt lat="64.83334" lon="20.98777">
        <ele>42.824011</ele>
        <time>2020-09-27T13:35:52.284Z</time>
      </trkpt>
      <trkpt lat="64.83325" lon="20.98788">
        <ele>43.143588</ele>
        <time>2020-09-27T13:35:55.304Z</time>
      </trkpt>
      <trkpt lat="64.83316" lon="20.98801">
        <ele>43.481787</ele>
        <time>2020-09-27T13:35:58.263Z</time>
      </trkpt>
      <trkpt lat="64.83306" lon="20.98813">
        <ele>43.444458</ele>
        <time>2020-09-27T13:36:01.268Z</time>
      </trkpt>
      <trkpt lat="64.83297" lon="20.98826">
        <ele>43.051598</ele>
        <time>2020-09-27T13:36:04.297Z</time>
      </trkpt>
      <trkpt lat="64.83288" lon="20.98837">
        <ele>42.713208</ele>
        <time>2020-09-27T13:36:07.284Z</time>
      </trkpt>
      <trkpt lat="64.83277" lon="20.98847">
        <ele>42.29654</ele>
        <time>2020-09-27T13:36:11.286Z</time>
      </trkpt>
      <trkpt lat="64.83267" lon="20.9884">
        <ele>41.921693</ele>
        <time>2020-09-27T13:36:14.289Z</time>
      </trkpt>
      <trkpt lat="64.83259" lon="20.98818">
        <ele>41.475614</ele>
        <time>2020-09-27T13:36:17.284Z</time>
      </trkpt>
      <trkpt lat="64.83252" lon="20.98794">
        <ele>41.043921</ele>
        <time>2020-09-27T13:36:20.273Z</time>
      </trkpt>
      <trkpt lat="64.83245" lon="20.98771">
        <ele>40.61669</ele>
        <time>2020-09-27T13:36:23.268Z</time>
      </trkpt>
      <trkpt lat="64.83236" lon="20.98755">
        <ele>40.197209</ele>
        <time>2020-09-27T13:36:27.282Z</time>
      </trkpt>
      <trkpt lat="64.83226" lon="20.98764">
        <ele>39.82848</ele>
        <time>2020-09-27T13:36:32.291Z</time>
      </trkpt>
      <trkpt lat="64.83219" lon="20.98866">
        <ele>38.25514</ele>
        <time>2020-09-27T13:45:32.298Z</time>
      </trkpt>
      <trkpt lat="64.83232" lon="20.98871">
        <ele>37.789076</ele>
        <time>2020-09-27T13:45:41.281Z</time>
      </trkpt>
      <trkpt lat="64.83211" lon="20.98624">
        <ele>40.316026</ele>
        <time>2020-09-27T13:52:13.291Z</time>
      </trkpt>
      <trkpt lat="64.83188" lon="20.98743">
        <ele>42.166326</ele>
        <time>2020-09-27T13:52:19.337Z</time>
      </trkpt>
      <trkpt lat="64.83207" lon="20.98751">
        <ele>42.792744</ele>
        <time>2020-09-27T13:52:27.295Z</time>
      </trkpt>
      <trkpt lat="64.83198" lon="20.98751">
        <ele>43.095698</ele>
        <time>2020-09-27T13:52:28.262Z</time>
      </trkpt>
      <trkpt lat="64.83206" lon="20.98764">
        <ele>43.162811</ele>
        <time>2020-09-27T13:52:29.279Z</time>
      </trkpt>
      <trkpt lat="64.8322" lon="20.98798">
        <ele>42.862548</ele>
        <time>2020-09-27T13:52:57.281Z</time>
      </trkpt>
      <trkpt lat="64.83228" lon="20.98766">
        <ele>42.616957</ele>
        <time>2020-09-27T13:57:34.288Z</time>
      </trkpt>
      <trkpt lat="64.83243" lon="20.98733">
        <ele>42.316142</ele>
        <time>2020-09-27T13:59:20.274Z</time>
      </trkpt>
      <trkpt lat="64.8324" lon="20.98706">
        <ele>42.141698</ele>
        <time>2020-09-27T13:59:24.315Z</time>
      </trkpt>
      <trkpt lat="64.83236" lon="20.98683">
        <ele>41.983248</ele>
        <time>2020-09-27T13:59:27.282Z</time>
      </trkpt>
      <trkpt lat="64.83233" lon="20.98659">
        <ele>41.825152</ele>
        <time>2020-09-27T13:59:30.276Z</time>
      </trkpt>
      <trkpt lat="64.8323" lon="20.98632">
        <ele>41.647736</ele>
        <time>2020-09-27T13:59:33.295Z</time>
      </trkpt>
      <trkpt lat="64.83228" lon="20.98605">
        <ele>41.473489</ele>
        <time>2020-09-27T13:59:36.286Z</time>
      </trkpt>
      <trkpt lat="64.83226" lon="20.98578">
        <ele>41.302108</ele>
        <time>2020-09-27T13:59:39.273Z</time>
      </trkpt>
      <trkpt lat="64.83224" lon="20.98551">
        <ele>41.122564</ele>
        <time>2020-09-27T13:59:42.297Z</time>
      </trkpt>
      <trkpt lat="64.8322" lon="20.98522">
        <ele>40.933854</ele>
        <time>2020-09-27T13:59:45.307Z</time>
      </trkpt>
      <trkpt lat="64.83218" lon="20.98492">
        <ele>40.743794</ele>
        <time>2020-09-27T13:59:48.269Z</time>
      </trkpt>
      <trkpt lat="64.83215" lon="20.98465">
        <ele>40.566115</ele>
        <time>2020-09-27T13:59:51.275Z</time>
      </trkpt>
      <trkpt lat="64.83213" lon="20.98438">
        <ele>40.611924</ele>
        <time>2020-09-27T13:59:54.322Z</time>
      </trkpt>
      <trkpt lat="64.83211" lon="20.9841">
        <ele>40.662782</ele>
        <time>2020-09-27T13:59:57.277Z</time>
      </trkpt>
      <trkpt lat="64.83209" lon="20.98386">
        <ele>40.709208</ele>
        <time>2020-09-27T14:00:00.288Z</time>
      </trkpt>
      <trkpt lat="64.83202" lon="20.98368">
        <ele>40.754803</ele>
        <time>2020-09-27T14:00:03.305Z</time>
      </trkpt>
      <trkpt lat="64.83191" lon="20.98369">
        <ele>40.799025</ele>
        <time>2020-09-27T14:00:06.312Z</time>
      </trkpt>
      <trkpt lat="64.8319" lon="20.98394">
        <ele>40.844685</ele>
        <time>2020-09-27T14:00:09.303Z</time>
      </trkpt>
      <trkpt lat="64.83193" lon="20.98419">
        <ele>40.893774</ele>
        <time>2020-09-27T14:00:12.296Z</time>
      </trkpt>
      <trkpt lat="64.83195" lon="20.98444">
        <ele>40.938887</ele>
        <time>2020-09-27T14:00:15.304Z</time>
      </trkpt>
      <trkpt lat="64.83199" lon="20.98466">
        <ele>40.98426</ele>
        <time>2020-09-27T14:00:18.270Z</time>
      </trkpt>
      <trkpt lat="64.83205" lon="20.98487">
        <ele>41.029937</ele>
        <time>2020-09-27T14:00:21.283Z</time>
      </trkpt>
      <trkpt lat="64.83207" lon="20.98515">
        <ele>41.081882</ele>
        <time>2020-09-27T14:00:24.284Z</time>
      </trkpt>
      <trkpt lat="64.8321" lon="20.98542">
        <ele>41.133528</ele>
        <time>2020-09-27T14:00:27.294Z</time>
      </trkpt>
      <trkpt lat="64.83213" lon="20.98566">
        <ele>41.179406</ele>
        <time>2020-09-27T14:00:30.281Z</time>
      </trkpt>
      <trkpt lat="64.83215" lon="20.98591">
        <ele>41.22667</ele>
        <time>2020-09-27T14:00:33.293Z</time>
      </trkpt>
      <trkpt lat="64.83217" lon="20.98612">
        <ele>41.265556</ele>
        <time>2020-09-27T14:00:35.286Z</time>
      </trkpt>
      <trkpt lat="64.83219" lon="20.98641">
        <ele>41.32063</ele>
        <time>2020-09-27T14:00:38.282Z</time>
      </trkpt>
      <trkpt lat="64.83216" lon="20.98664">
        <ele>41.434502</ele>
        <time>2020-09-27T14:00:41.275Z</time>
      </trkpt>
      <trkpt lat="64.83207" lon="20.98677">
        <ele>41.61874</ele>
        <time>2020-09-27T14:00:44.290Z</time>
      </trkpt>
      <trkpt lat="64.83199" lon="20.98688">
        <ele>41.786723</ele>
        <time>2020-09-27T14:00:47.298Z</time>
      </trkpt>
      <trkpt lat="64.83189" lon="20.98701">
        <ele>41.983733</ele>
        <time>2020-09-27T14:00:51.272Z</time>
      </trkpt>
      <trkpt lat="64.83181" lon="20.98711">
        <ele>42.142256</ele>
        <time>2020-09-27T14:00:54.278Z</time>
      </trkpt>
      <trkpt lat="64.83171" lon="20.98723">
        <ele>42.344187</ele>
        <time>2020-09-27T14:00:58.320Z</time>
      </trkpt>
      <trkpt lat="64.83161" lon="20.98735">
        <ele>42.546371</ele>
        <time>2020-09-27T14:01:02.331Z</time>
      </trkpt>
      <trkpt lat="64.83151" lon="20.98748">
        <ele>42.736935</ele>
        <time>2020-09-27T14:01:06.287Z</time>
      </trkpt>
      <trkpt lat="64.83141" lon="20.98761">
        <ele>42.944574</ele>
        <time>2020-09-27T14:01:10.285Z</time>
      </trkpt>
      <trkpt lat="64.83131" lon="20.98776">
        <ele>43.142034</ele>
        <time>2020-09-27T14:01:14.283Z</time>
      </trkpt>
      <trkpt lat="64.83123" lon="20.98787">
        <ele>43.313256</ele>
        <time>2020-09-27T14:01:18.277Z</time>
      </trkpt>
      <trkpt lat="64.83113" lon="20.98796">
        <ele>43.504008</ele>
        <time>2020-09-27T14:01:23.283Z</time>
      </trkpt>
      <trkpt lat="64.83102" lon="20.988">
        <ele>43.682869</ele>
        <time>2020-09-27T14:01:28.283Z</time>
      </trkpt>
      <trkpt lat="64.83086" lon="20.98812">
        <ele>43.979501</ele>
        <time>2020-09-27T14:02:00.297Z</time>
      </trkpt>
      <trkpt lat="64.83075" lon="20.98817">
        <ele>44.182684</ele>
        <time>2020-09-27T14:02:04.289Z</time>
      </trkpt>
      <trkpt lat="64.83064" lon="20.98822">
        <ele>44.378437</ele>
        <time>2020-09-27T14:02:07.325Z</time>
      </trkpt>
      <trkpt lat="64.83052" lon="20.98827">
        <ele>44.371163</ele>
        <time>2020-09-27T14:02:10.327Z</time>
      </trkpt>
      <trkpt lat="64.83043" lon="20.98829">
        <ele>44.175284</ele>
        <time>2020-09-27T14:02:12.286Z</time>
      </trkpt>
      <trkpt lat="64.83032" lon="20.98832">
        <ele>43.963548</ele>
        <time>2020-09-27T14:02:14.292Z</time>
      </trkpt>
      <trkpt lat="64.8302" lon="20.98833">
        <ele>43.71295</ele>
        <time>2020-09-27T14:02:16.277Z</time>
      </trkpt>
      <trkpt lat="64.83007" lon="20.98835">
        <ele>43.435508</ele>
        <time>2020-09-27T14:02:18.275Z</time>
      </trkpt>
      <trkpt lat="64.82993" lon="20.98835">
        <ele>43.152204</ele>
        <time>2020-09-27T14:02:20.289Z</time>
      </trkpt>
      <trkpt lat="64.82979" lon="20.98835">
        <ele>42.862748</ele>
        <time>2020-09-27T14:02:22.295Z</time>
      </trkpt>
      <trkpt lat="64.82966" lon="20.98834">
        <ele>42.593587</ele>
        <time>2020-09-27T14:02:24.297Z</time>
      </trkpt>
      <trkpt lat="64.82953" lon="20.98832">
        <ele>42.334452</ele>
        <time>2020-09-27T14:02:26.310Z</time>
      </trkpt>
      <trkpt lat="64.82941" lon="20.9883">
        <ele>42.085666</ele>
        <time>2020-09-27T14:02:28.289Z</time>
      </trkpt>
      <trkpt lat="64.82929" lon="20.98828">
        <ele>41.846764</ele>
        <time>2020-09-27T14:02:30.284Z</time>
      </trkpt>
      <trkpt lat="64.82918" lon="20.98827">
        <ele>41.618571</ele>
        <time>2020-09-27T14:02:32.292Z</time>
      </trkpt>
      <trkpt lat="64.82907" lon="20.98825">
        <ele>41.396178</ele>
        <time>2020-09-27T14:02:34.285Z</time>
      </trkpt>
      <trkpt lat="64.82897" lon="20.98823">
        <ele>41.182381</ele>
        <time>2020-09-27T14:02:36.306Z</time>
      </trkpt>
      <trkpt lat="64.82887" lon="20.98822">
        <ele>40.98093</ele>
        <time>2020-09-27T14:02:38.293Z</time>
      </trkpt>
      <trkpt lat="64.82878" lon="20.98821">
        <ele>40.797876</ele>
        <time>2020-09-27T14:02:40.292Z</time>
      </trkpt>
      <trkpt lat="64.82866" lon="20.98819">
        <ele>41.977427</ele>
        <time>2020-09-27T14:02:43.320Z</time>
      </trkpt>
      <trkpt lat="64.82856" lon="20.98817">
        <ele>42.950904</ele>
        <time>2020-09-27T14:02:46.290Z</time>
      </trkpt>
      <trkpt lat="64.82845" lon="20.98814">
        <ele>44.052665</ele>
        <time>2020-09-27T14:02:50.273Z</time>
      </trkpt>
      <trkpt lat="64.82834" lon="20.98814">
        <ele>45.089345</ele>
        <time>2020-09-27T14:02:55.286Z</time>
      </trkpt>
      <trkpt lat="64.82825" lon="20.98814">
        <ele>45.981156</ele>
        <time>2020-09-27T14:02:59.284Z</time>
      </trkpt>
      <trkpt lat="64.82814" lon="20.98811">
        <ele>47.066766</ele>
        <time>2020-09-27T14:03:04.358Z</time>
      </trkpt>
      <trkpt lat="64.82805" lon="20.98808">
        <ele>47.967218</ele>
        <time>2020-09-27T14:03:08.277Z</time>
      </trkpt>
      <trkpt lat="64.82795" lon="20.98806">
        <ele>48.927876</ele>
        <time>2020-09-27T14:03:12.291Z</time>
      </trkpt>
      <trkpt lat="64.82785" lon="20.98802">
        <ele>49.873941</ele>
        <time>2020-09-27T14:03:16.291Z</time>
      </trkpt>
      <trkpt lat="64.82775" lon="20.98798">
        <ele>50.835581</ele>
        <time>2020-09-27T14:03:21.299Z</time>
      </trkpt>
      <trkpt lat="64.82765" lon="20.98789">
        <ele>51.922647</ele>
        <time>2020-09-27T14:03:26.296Z</time>
      </trkpt>
      <trkpt lat="64.82756" lon="20.98779">
        <ele>52.920573</ele>
        <time>2020-09-27T14:03:30.311Z</time>
      </trkpt>
      <trkpt lat="64.82747" lon="20.9877">
        <ele>53.855729</ele>
        <time>2020-09-27T14:03:34.270Z</time>
      </trkpt>
      <trkpt lat="64.82738" lon="20.98763">
        <ele>54.75784</ele>
        <time>2020-09-27T14:03:38.289Z</time>
      </trkpt>
      <trkpt lat="64.8273" lon="20.98753">
        <ele>55.643522</ele>
        <time>2020-09-27T14:03:43.332Z</time>
      </trkpt>
      <trkpt lat="64.8272" lon="20.98739">
        <ele>56.711221</ele>
        <time>2020-09-27T14:03:49.306Z</time>
      </trkpt>
      <trkpt lat="64.82712" lon="20.98729">
        <ele>57.64947</ele>
        <time>2020-09-27T14:03:53.294Z</time>
      </trkpt>
      <trkpt lat="64.82702" lon="20.98717">
        <ele>58.412441</ele>
        <time>2020-09-27T14:03:58.310Z</time>
      </trkpt>
      <trkpt lat="64.82694" lon="20.98703">
        <ele>58.792208</ele>
        <time>2020-09-27T14:04:03.284Z</time>
      </trkpt>
      <trkpt lat="64.82685" lon="20.98688">
        <ele>59.179614</ele>
        <time>2020-09-27T14:04:08.309Z</time>
      </trkpt>
      <trkpt lat="64.82677" lon="20.98672">
        <ele>59.556806</ele>
        <time>2020-09-27T14:04:13.285Z</time>
      </trkpt>
      <trkpt lat="64.82669" lon="20.98654">
        <ele>59.966567</ele>
        <time>2020-09-27T14:04:18.282Z</time>
      </trkpt>
      <trkpt lat="64.82663" lon="20.98639">
        <ele>60.310499</ele>
        <time>2020-09-27T14:04:22.293Z</time>
      </trkpt>
      <trkpt lat="64.82655" lon="20.98621">
        <ele>60.706253</ele>
        <time>2020-09-27T14:04:27.288Z</time>
      </trkpt>
      <trkpt lat="64.82649" lon="20.98603">
        <ele>61.06577</ele>
        <time>2020-09-27T14:04:32.299Z</time>
      </trkpt>
      <trkpt lat="64.82642" lon="20.98583">
        <ele>61.47834</ele>
        <time>2020-09-27T14:04:37.278Z</time>
      </trkpt>
      <trkpt lat="64.82638" lon="20.98563">
        <ele>61.831553</ele>
        <time>2020-09-27T14:04:41.322Z</time>
      </trkpt>
      <trkpt lat="64.82632" lon="20.98542">
        <ele>62.223309</ele>
        <time>2020-09-27T14:04:45.308Z</time>
      </trkpt>
      <trkpt lat="64.82626" lon="20.98521">
        <ele>62.611366</ele>
        <time>2020-09-27T14:04:49.283Z</time>
      </trkpt>
      <trkpt lat="64.82621" lon="20.985">
        <ele>63.004681</ele>
        <time>2020-09-27T14:04:53.285Z</time>
      </trkpt>
      <trkpt lat="64.82615" lon="20.98479">
        <ele>63.391186</ele>
        <time>2020-09-27T14:04:57.316Z</time>
      </trkpt>
      <trkpt lat="64.82609" lon="20.9846">
        <ele>63.757943</ele>
        <time>2020-09-27T14:05:01.291Z</time>
      </trkpt>
      <trkpt lat="64.82603" lon="20.98442">
        <ele>64.120928</ele>
        <time>2020-09-27T14:05:05.296Z</time>
      </trkpt>
      <trkpt lat="64.82597" lon="20.98421">
        <ele>64.512865</ele>
        <time>2020-09-27T14:05:09.286Z</time>
      </trkpt>
      <trkpt lat="64.82591" lon="20.98402">
        <ele>64.864272</ele>
        <time>2020-09-27T14:05:13.290Z</time>
      </trkpt>
      <trkpt lat="64.82585" lon="20.98383">
        <ele>64.906148</ele>
        <time>2020-09-27T14:05:17.298Z</time>
      </trkpt>
      <trkpt lat="64.8258" lon="20.9836">
        <ele>64.952204</ele>
        <time>2020-09-27T14:05:22.314Z</time>
      </trkpt>
      <trkpt lat="64.82573" lon="20.98341">
        <ele>64.996729</ele>
        <time>2020-09-27T14:05:27.285Z</time>
      </trkpt>
      <trkpt lat="64.82567" lon="20.98323">
        <ele>65.037786</ele>
        <time>2020-09-27T14:05:32.292Z</time>
      </trkpt>
      <trkpt lat="64.82561" lon="20.98304">
        <ele>65.081359</ele>
        <time>2020-09-27T14:05:37.301Z</time>
      </trkpt>
      <trkpt lat="64.82554" lon="20.98288">
        <ele>65.120849</ele>
        <time>2020-09-27T14:05:41.295Z</time>
      </trkpt>
      <trkpt lat="64.82547" lon="20.98272">
        <ele>65.160566</ele>
        <time>2020-09-27T14:05:45.293Z</time>
      </trkpt>
      <trkpt lat="64.82539" lon="20.98254">
        <ele>65.207038</ele>
        <time>2020-09-27T14:05:50.293Z</time>
      </trkpt>
      <trkpt lat="64.82532" lon="20.9824">
        <ele>65.246043</ele>
        <time>2020-09-27T14:05:54.322Z</time>
      </trkpt>
      <trkpt lat="64.82525" lon="20.98226">
        <ele>65.285187</ele>
        <time>2020-09-27T14:05:58.281Z</time>
      </trkpt>
      <trkpt lat="64.82517" lon="20.98211">
        <ele>65.324763</ele>
        <time>2020-09-27T14:06:02.308Z</time>
      </trkpt>
      <trkpt lat="64.8251" lon="20.98198">
        <ele>65.362899</ele>
        <time>2020-09-27T14:06:06.275Z</time>
      </trkpt>
      <trkpt lat="64.82503" lon="20.98185">
        <ele>65.401175</ele>
        <time>2020-09-27T14:06:10.286Z</time>
      </trkpt>
      <trkpt lat="64.82496" lon="20.98171">
        <ele>65.439887</ele>
        <time>2020-09-27T14:06:14.280Z</time>
      </trkpt>
      <trkpt lat="64.82488" lon="20.98156">
        <ele>65.480961</ele>
        <time>2020-09-27T14:06:18.281Z</time>
      </trkpt>
      <trkpt lat="64.82481" lon="20.98141">
        <ele>65.521434</ele>
        <time>2020-09-27T14:06:22.275Z</time>
      </trkpt>
      <trkpt lat="64.82473" lon="20.98126">
        <ele>65.5641</ele>
        <time>2020-09-27T14:06:26.289Z</time>
      </trkpt>
      <trkpt lat="64.82465" lon="20.9811">
        <ele>65.609772</ele>
        <time>2020-09-27T14:06:30.291Z</time>
      </trkpt>
      <trkpt lat="64.82457" lon="20.98095">
        <ele>65.748862</ele>
        <time>2020-09-27T14:06:34.289Z</time>
      </trkpt>
      <trkpt lat="64.82449" lon="20.98079">
        <ele>65.895763</ele>
        <time>2020-09-27T14:06:38.289Z</time>
      </trkpt>
      <trkpt lat="64.82441" lon="20.98064">
        <ele>66.038626</ele>
        <time>2020-09-27T14:06:42.287Z</time>
      </trkpt>
      <trkpt lat="64.82433" lon="20.9805">
        <ele>66.180002</ele>
        <time>2020-09-27T14:06:46.292Z</time>
      </trkpt>
      <trkpt lat="64.82426" lon="20.98035">
        <ele>66.320208</ele>
        <time>2020-09-27T14:06:50.299Z</time>
      </trkpt>
      <trkpt lat="64.82418" lon="20.98019">
        <ele>66.468979</ele>
        <time>2020-09-27T14:06:54.290Z</time>
      </trkpt>
      <trkpt lat="64.8241" lon="20.98004">
        <ele>66.615797</ele>
        <time>2020-09-27T14:06:58.294Z</time>
      </trkpt>
      <trkpt lat="64.82402" lon="20.97991">
        <ele>66.753799</ele>
        <time>2020-09-27T14:07:02.289Z</time>
      </trkpt>
      <trkpt lat="64.82394" lon="20.97979">
        <ele>66.888716</ele>
        <time>2020-09-27T14:07:06.285Z</time>
      </trkpt>
      <trkpt lat="64.82384" lon="20.97965">
        <ele>67.044664</ele>
        <time>2020-09-27T14:07:11.296Z</time>
      </trkpt>
      <trkpt lat="64.82376" lon="20.97955">
        <ele>67.183832</ele>
        <time>2020-09-27T14:07:15.275Z</time>
      </trkpt>
      <trkpt lat="64.82368" lon="20.97946">
        <ele>67.312992</ele>
        <time>2020-09-27T14:07:19.287Z</time>
      </trkpt>
      <trkpt lat="64.82359" lon="20.97936">
        <ele>67.449323</ele>
        <time>2020-09-27T14:07:23.287Z</time>
      </trkpt>
      <trkpt lat="64.8235" lon="20.97928">
        <ele>67.585876</ele>
        <time>2020-09-27T14:07:27.296Z</time>
      </trkpt>
      <trkpt lat="64.82341" lon="20.9792">
        <ele>67.721983</ele>
        <time>2020-09-27T14:07:31.330Z</time>
      </trkpt>
      <trkpt lat="64.82332" lon="20.97913">
        <ele>67.851565</ele>
        <time>2020-09-27T14:07:35.304Z</time>
      </trkpt>
      <trkpt lat="64.82323" lon="20.97905">
        <ele>67.993499</ele>
        <time>2020-09-27T14:07:39.288Z</time>
      </trkpt>
      <trkpt lat="64.82313" lon="20.97897">
        <ele>68.149879</ele>
        <time>2020-09-27T14:07:44.306Z</time>
      </trkpt>
      <trkpt lat="64.82304" lon="20.97889">
        <ele>68.435051</ele>
        <time>2020-09-27T14:07:48.293Z</time>
      </trkpt>
      <trkpt lat="64.82295" lon="20.97882">
        <ele>68.763235</ele>
        <time>2020-09-27T14:07:52.312Z</time>
      </trkpt>
      <trkpt lat="64.82286" lon="20.97874">
        <ele>69.087469</ele>
        <time>2020-09-27T14:07:56.293Z</time>
      </trkpt>
      <trkpt lat="64.82278" lon="20.97866">
        <ele>69.396239</ele>
        <time>2020-09-27T14:08:00.290Z</time>
      </trkpt>
      <trkpt lat="64.8227" lon="20.97858">
        <ele>69.705568</ele>
        <time>2020-09-27T14:08:04.323Z</time>
      </trkpt>
      <trkpt lat="64.8226" lon="20.9785">
        <ele>70.044754</ele>
        <time>2020-09-27T14:08:08.302Z</time>
      </trkpt>
      <trkpt lat="64.8225" lon="20.97838">
        <ele>70.426156</ele>
        <time>2020-09-27T14:08:13.316Z</time>
      </trkpt>
      <trkpt lat="64.82242" lon="20.97827">
        <ele>70.758039</ele>
        <time>2020-09-27T14:08:17.282Z</time>
      </trkpt>
      <trkpt lat="64.82232" lon="20.97815">
        <ele>71.139741</ele>
        <time>2020-09-27T14:08:22.291Z</time>
      </trkpt>
      <trkpt lat="64.82224" lon="20.97805">
        <ele>71.453307</ele>
        <time>2020-09-27T14:08:26.329Z</time>
      </trkpt>
      <trkpt lat="64.82215" lon="20.97794">
        <ele>71.811962</ele>
        <time>2020-09-27T14:08:31.329Z</time>
      </trkpt>
      <trkpt lat="64.82207" lon="20.97783">
        <ele>72.139212</ele>
        <time>2020-09-27T14:08:36.308Z</time>
      </trkpt>
      <trkpt lat="64.82198" lon="20.97771">
        <ele>72.476785</ele>
        <time>2020-09-27T14:08:41.329Z</time>
      </trkpt>
      <trkpt lat="64.82189" lon="20.97759">
        <ele>72.839649</ele>
        <time>2020-09-27T14:08:46.319Z</time>
      </trkpt>
      <trkpt lat="64.82179" lon="20.97746">
        <ele>73.219576</ele>
        <time>2020-09-27T14:08:51.293Z</time>
      </trkpt>
      <trkpt lat="64.8217" lon="20.97735">
        <ele>73.571121</ele>
        <time>2020-09-27T14:08:56.290Z</time>
      </trkpt>
      <trkpt lat="64.82161" lon="20.97722">
        <ele>73.936152</ele>
        <time>2020-09-27T14:09:01.301Z</time>
      </trkpt>
      <trkpt lat="64.82152" lon="20.97711">
        <ele>74.282714</ele>
        <time>2020-09-27T14:09:05.296Z</time>
      </trkpt>
      <trkpt lat="64.82143" lon="20.97698">
        <ele>74.831303</ele>
        <time>2020-09-27T14:09:09.324Z</time>
      </trkpt>
      <trkpt lat="64.82135" lon="20.97687">
        <ele>75.392754</ele>
        <time>2020-09-27T14:09:13.300Z</time>
      </trkpt>
      <trkpt lat="64.82126" lon="20.97675">
        <ele>75.973496</ele>
        <time>2020-09-27T14:09:17.316Z</time>
      </trkpt>
      <trkpt lat="64.82117" lon="20.97663">
        <ele>76.540792</ele>
        <time>2020-09-27T14:09:21.268Z</time>
      </trkpt>
      <trkpt lat="64.82109" lon="20.97651">
        <ele>77.097156</ele>
        <time>2020-09-27T14:09:25.339Z</time>
      </trkpt>
      <trkpt lat="64.82101" lon="20.97638">
        <ele>77.625346</ele>
        <time>2020-09-27T14:09:29.282Z</time>
      </trkpt>
      <trkpt lat="64.82093" lon="20.97624">
        <ele>78.196765</ele>
        <time>2020-09-27T14:09:33.295Z</time>
      </trkpt>
      <trkpt lat="64.82086" lon="20.97611">
        <ele>78.718713</ele>
        <time>2020-09-27T14:09:37.276Z</time>
      </trkpt>
      <trkpt lat="64.82077" lon="20.97595">
        <ele>79.343697</ele>
        <time>2020-09-27T14:09:42.285Z</time>
      </trkpt>
      <trkpt lat="64.8207" lon="20.97581">
        <ele>79.879427</ele>
        <time>2020-09-27T14:09:47.314Z</time>
      </trkpt>
      <trkpt lat="64.82062" lon="20.97567">
        <ele>80.43567</ele>
        <time>2020-09-27T14:09:53.298Z</time>
      </trkpt>
      <trkpt lat="64.82054" lon="20.97554">
        <ele>80.971573</ele>
        <time>2020-09-27T14:09:59.282Z</time>
      </trkpt>
      <trkpt lat="64.82047" lon="20.97542">
        <ele>81.501548</ele>
        <time>2020-09-27T14:10:05.285Z</time>
      </trkpt>
      <trkpt lat="64.82037" lon="20.97529">
        <ele>82.112994</ele>
        <time>2020-09-27T14:10:12.290Z</time>
      </trkpt>
      <trkpt lat="64.82028" lon="20.97518">
        <ele>82.695199</ele>
        <time>2020-09-27T14:10:18.336Z</time>
      </trkpt>
      <trkpt lat="64.82019" lon="20.97508">
        <ele>83.270284</ele>
        <time>2020-09-27T14:10:24.273Z</time>
      </trkpt>
      <trkpt lat="64.8201" lon="20.975">
        <ele>83.836843</ele>
        <time>2020-09-27T14:10:30.292Z</time>
      </trkpt>
      <trkpt lat="64.82" lon="20.97496">
        <ele>84.385359</ele>
        <time>2020-09-27T14:10:36.312Z</time>
      </trkpt>
      <trkpt lat="64.81991" lon="20.97492">
        <ele>84.800725</ele>
        <time>2020-09-27T14:10:42.289Z</time>
      </trkpt>
      <trkpt lat="64.81981" lon="20.9749">
        <ele>85.115297</ele>
        <time>2020-09-27T14:10:47.304Z</time>
      </trkpt>
      <trkpt lat="64.81971" lon="20.97487">
        <ele>85.467753</ele>
        <time>2020-09-27T14:10:53.292Z</time>
      </trkpt>
      <trkpt lat="64.81962" lon="20.97484">
        <ele>85.776235</ele>
        <time>2020-09-27T14:10:58.274Z</time>
      </trkpt>
      <trkpt lat="64.81953" lon="20.97481">
        <ele>86.087181</ele>
        <time>2020-09-27T14:11:03.294Z</time>
      </trkpt>
      <trkpt lat="64.81942" lon="20.97475">
        <ele>86.444132</ele>
        <time>2020-09-27T14:11:08.284Z</time>
      </trkpt>
      <trkpt lat="64.81932" lon="20.97469">
        <ele>86.802742</ele>
        <time>2020-09-27T14:11:13.298Z</time>
      </trkpt>
      <trkpt lat="64.81923" lon="20.97465">
        <ele>87.128757</ele>
        <time>2020-09-27T14:11:17.297Z</time>
      </trkpt>
      <trkpt lat="64.81913" lon="20.97458">
        <ele>87.469986</ele>
        <time>2020-09-27T14:11:21.288Z</time>
      </trkpt>
      <trkpt lat="64.81903" lon="20.97451">
        <ele>87.806761</ele>
        <time>2020-09-27T14:11:25.294Z</time>
      </trkpt>
      <trkpt lat="64.81893" lon="20.97442">
        <ele>88.176707</ele>
        <time>2020-09-27T14:11:29.294Z</time>
      </trkpt>
      <trkpt lat="64.81883" lon="20.97433">
        <ele>88.54405</ele>
        <time>2020-09-27T14:11:33.303Z</time>
      </trkpt>
      <trkpt lat="64.81872" lon="20.97422">
        <ele>88.942891</ele>
        <time>2020-09-27T14:11:37.285Z</time>
      </trkpt>
      <trkpt lat="64.81864" lon="20.97412">
        <ele>89.250075</ele>
        <time>2020-09-27T14:11:40.301Z</time>
      </trkpt>
      <trkpt lat="64.81856" lon="20.97402">
        <ele>89.562228</ele>
        <time>2020-09-27T14:11:43.302Z</time>
      </trkpt>
      <trkpt lat="64.81847" lon="20.9739">
        <ele>89.888822</ele>
        <time>2020-09-27T14:11:46.346Z</time>
      </trkpt>
      <trkpt lat="64.81839" lon="20.97379">
        <ele>90.218487</ele>
        <time>2020-09-27T14:11:49.285Z</time>
      </trkpt>
      <trkpt lat="64.8183" lon="20.97367">
        <ele>90.56396</ele>
        <time>2020-09-27T14:11:52.309Z</time>
      </trkpt>
      <trkpt lat="64.81821" lon="20.97355">
        <ele>90.444136</ele>
        <time>2020-09-27T14:11:55.285Z</time>
      </trkpt>
      <trkpt lat="64.81811" lon="20.97342">
        <ele>90.181456</ele>
        <time>2020-09-27T14:11:58.323Z</time>
      </trkpt>
      <trkpt lat="64.81801" lon="20.97331">
        <ele>89.919007</ele>
        <time>2020-09-27T14:12:01.314Z</time>
      </trkpt>
      <trkpt lat="64.81791" lon="20.97318">
        <ele>89.652293</ele>
        <time>2020-09-27T14:12:04.296Z</time>
      </trkpt>
      <trkpt lat="64.81781" lon="20.97306">
        <ele>89.369218</ele>
        <time>2020-09-27T14:12:07.319Z</time>
      </trkpt>
      <trkpt lat="64.81769" lon="20.97294">
        <ele>89.066607</ele>
        <time>2020-09-27T14:12:10.284Z</time>
      </trkpt>
      <trkpt lat="64.81761" lon="20.97286">
        <ele>88.849103</ele>
        <time>2020-09-27T14:12:12.295Z</time>
      </trkpt>
      <trkpt lat="64.81752" lon="20.97279">
        <ele>88.626622</ele>
        <time>2020-09-27T14:12:14.317Z</time>
      </trkpt>
      <trkpt lat="64.81742" lon="20.97272">
        <ele>88.38798</ele>
        <time>2020-09-27T14:12:16.294Z</time>
      </trkpt>
      <trkpt lat="64.81732" lon="20.97263">
        <ele>88.136323</ele>
        <time>2020-09-27T14:12:18.325Z</time>
      </trkpt>
      <trkpt lat="64.81721" lon="20.97255">
        <ele>87.861795</ele>
        <time>2020-09-27T14:12:20.303Z</time>
      </trkpt>
      <trkpt lat="64.8171" lon="20.97244">
        <ele>87.567588</ele>
        <time>2020-09-27T14:12:22.301Z</time>
      </trkpt>
      <trkpt lat="64.81698" lon="20.97232">
        <ele>87.26247</ele>
        <time>2020-09-27T14:12:24.343Z</time>
      </trkpt>
      <trkpt lat="64.81687" lon="20.97218">
        <ele>86.951116</ele>
        <time>2020-09-27T14:12:26.287Z</time>
      </trkpt>
      <trkpt lat="64.81674" lon="20.97204">
        <ele>86.620062</ele>
        <time>2020-09-27T14:12:28.291Z</time>
      </trkpt>
      <trkpt lat="64.81662" lon="20.97189">
        <ele>86.267337</ele>
        <time>2020-09-27T14:12:30.307Z</time>
      </trkpt>
      <trkpt lat="64.81649" lon="20.97173">
        <ele>85.839187</ele>
        <time>2020-09-27T14:12:32.299Z</time>
      </trkpt>
      <trkpt lat="64.81639" lon="20.97155">
        <ele>85.440437</ele>
        <time>2020-09-27T14:12:34.300Z</time>
      </trkpt>
      <trkpt lat="64.81628" lon="20.97138">
        <ele>85.056236</ele>
        <time>2020-09-27T14:12:36.286Z</time>
      </trkpt>
      <trkpt lat="64.81618" lon="20.97122">
        <ele>84.680685</ele>
        <time>2020-09-27T14:12:38.289Z</time>
      </trkpt>
      <trkpt lat="64.81608" lon="20.97106">
        <ele>84.311633</ele>
        <time>2020-09-27T14:12:40.326Z</time>
      </trkpt>
      <trkpt lat="64.81598" lon="20.97092">
        <ele>83.959151</ele>
        <time>2020-09-27T14:12:42.293Z</time>
      </trkpt>
      <trkpt lat="64.81589" lon="20.97077">
        <ele>83.619678</ele>
        <time>2020-09-27T14:12:44.285Z</time>
      </trkpt>
      <trkpt lat="64.8158" lon="20.97063">
        <ele>83.288845</ele>
        <time>2020-09-27T14:12:46.289Z</time>
      </trkpt>
      <trkpt lat="64.81571" lon="20.97049">
        <ele>82.967389</ele>
        <time>2020-09-27T14:12:48.279Z</time>
      </trkpt>
      <trkpt lat="64.81562" lon="20.97035">
        <ele>82.649906</ele>
        <time>2020-09-27T14:12:50.291Z</time>
      </trkpt>
      <trkpt lat="64.81554" lon="20.97023">
        <ele>82.341081</ele>
        <time>2020-09-27T14:12:52.293Z</time>
      </trkpt>
      <trkpt lat="64.81545" lon="20.97012">
        <ele>82.032517</ele>
        <time>2020-09-27T14:12:54.285Z</time>
      </trkpt>
      <trkpt lat="64.81536" lon="20.97002">
        <ele>81.732945</ele>
        <time>2020-09-27T14:12:56.290Z</time>
      </trkpt>
      <trkpt lat="64.81527" lon="20.96994">
        <ele>81.43273</ele>
        <time>2020-09-27T14:12:58.286Z</time>
      </trkpt>
      <trkpt lat="64.81517" lon="20.96986">
        <ele>81.136745</ele>
        <time>2020-09-27T14:13:00.326Z</time>
      </trkpt>
      <trkpt lat="64.81508" lon="20.96979">
        <ele>80.884999</ele>
        <time>2020-09-27T14:13:02.280Z</time>
      </trkpt>
      <trkpt lat="64.81499" lon="20.96974">
        <ele>80.947121</ele>
        <time>2020-09-27T14:13:04.281Z</time>
      </trkpt>
      <trkpt lat="64.8149" lon="20.96968">
        <ele>81.008414</ele>
        <time>2020-09-27T14:13:06.313Z</time>
      </trkpt>
      <trkpt lat="64.8148" lon="20.96964">
        <ele>81.070532</ele>
        <time>2020-09-27T14:13:08.283Z</time>
      </trkpt>
      <trkpt lat="64.81471" lon="20.96959">
        <ele>81.132431</ele>
        <time>2020-09-27T14:13:10.296Z</time>
      </trkpt>
      <trkpt lat="64.81461" lon="20.96956">
        <ele>81.194543</ele>
        <time>2020-09-27T14:13:12.288Z</time>
      </trkpt>
      <trkpt lat="64.81452" lon="20.96952">
        <ele>81.257611</ele>
        <time>2020-09-27T14:13:14.281Z</time>
      </trkpt>
      <trkpt lat="64.81442" lon="20.96948">
        <ele>81.320092</ele>
        <time>2020-09-27T14:13:16.302Z</time>
      </trkpt>
      <trkpt lat="64.81433" lon="20.96943">
        <ele>81.381357</ele>
        <time>2020-09-27T14:13:18.311Z</time>
      </trkpt>
      <trkpt lat="64.81424" lon="20.96938">
        <ele>81.443022</ele>
        <time>2020-09-27T14:13:20.305Z</time>
      </trkpt>
      <trkpt lat="64.81414" lon="20.96933">
        <ele>81.506396</ele>
        <time>2020-09-27T14:13:22.281Z</time>
      </trkpt>
      <trkpt lat="64.81405" lon="20.96926">
        <ele>81.569429</ele>
        <time>2020-09-27T14:13:24.275Z</time>
      </trkpt>
      <trkpt lat="64.81395" lon="20.96921">
        <ele>81.631693</ele>
        <time>2020-09-27T14:13:26.290Z</time>
      </trkpt>
      <trkpt lat="64.81387" lon="20.96915">
        <ele>81.690694</ele>
        <time>2020-09-27T14:13:28.281Z</time>
      </trkpt>
      <trkpt lat="64.81378" lon="20.96909">
        <ele>81.74992</ele>
        <time>2020-09-27T14:13:30.303Z</time>
      </trkpt>
      <trkpt lat="64.81369" lon="20.96902">
        <ele>81.810698</ele>
        <time>2020-09-27T14:13:32.305Z</time>
      </trkpt>
      <trkpt lat="64.8136" lon="20.96895">
        <ele>81.870692</ele>
        <time>2020-09-27T14:13:34.294Z</time>
      </trkpt>
      <trkpt lat="64.81352" lon="20.96887">
        <ele>81.928971</ele>
        <time>2020-09-27T14:13:36.296Z</time>
      </trkpt>
      <trkpt lat="64.81343" lon="20.9688">
        <ele>81.989022</ele>
        <time>2020-09-27T14:13:38.317Z</time>
      </trkpt>
      <trkpt lat="64.81334" lon="20.96873">
        <ele>82.094342</ele>
        <time>2020-09-27T14:13:40.298Z</time>
      </trkpt>
      <trkpt lat="64.81325" lon="20.96865">
        <ele>82.381584</ele>
        <time>2020-09-27T14:13:42.293Z</time>
      </trkpt>
      <trkpt lat="64.81316" lon="20.96858">
        <ele>82.668006</ele>
        <time>2020-09-27T14:13:44.274Z</time>
      </trkpt>
      <trkpt lat="64.81306" lon="20.96852">
        <ele>82.951718</ele>
        <time>2020-09-27T14:13:46.337Z</time>
      </trkpt>
      <trkpt lat="64.81294" lon="20.96842">
        <ele>83.342447</ele>
        <time>2020-09-27T14:13:49.297Z</time>
      </trkpt>
      <trkpt lat="64.81281" lon="20.96832">
        <ele>83.737158</ele>
        <time>2020-09-27T14:13:52.274Z</time>
      </trkpt>
      <trkpt lat="64.81269" lon="20.96822">
        <ele>84.116113</ele>
        <time>2020-09-27T14:13:55.282Z</time>
      </trkpt>
      <trkpt lat="64.81258" lon="20.96813">
        <ele>84.475665</ele>
        <time>2020-09-27T14:13:58.286Z</time>
      </trkpt>
      <trkpt lat="64.81247" lon="20.96804">
        <ele>84.82719</ele>
        <time>2020-09-27T14:14:01.294Z</time>
      </trkpt>
      <trkpt lat="64.81237" lon="20.96795">
        <ele>85.150444</ele>
        <time>2020-09-27T14:14:04.288Z</time>
      </trkpt>
      <trkpt lat="64.81227" lon="20.96786">
        <ele>85.463846</ele>
        <time>2020-09-27T14:14:07.277Z</time>
      </trkpt>
      <trkpt lat="64.81217" lon="20.96778">
        <ele>85.765305</ele>
        <time>2020-09-27T14:14:10.294Z</time>
      </trkpt>
      <trkpt lat="64.81208" lon="20.9677">
        <ele>86.072806</ele>
        <time>2020-09-27T14:14:13.295Z</time>
      </trkpt>
      <trkpt lat="64.81199" lon="20.96763">
        <ele>86.352765</ele>
        <time>2020-09-27T14:14:16.294Z</time>
      </trkpt>
      <trkpt lat="64.8119" lon="20.96757">
        <ele>86.625395</ele>
        <time>2020-09-27T14:14:19.301Z</time>
      </trkpt>
      <trkpt lat="64.81179" lon="20.96748">
        <ele>86.983823</ele>
        <time>2020-09-27T14:14:23.330Z</time>
      </trkpt>
      <trkpt lat="64.81168" lon="20.96739">
        <ele>87.320458</ele>
        <time>2020-09-27T14:14:27.295Z</time>
      </trkpt>
      <trkpt lat="64.81157" lon="20.9673">
        <ele>87.692263</ele>
        <time>2020-09-27T14:14:31.294Z</time>
      </trkpt>
      <trkpt lat="64.81147" lon="20.96721">
        <ele>88.067891</ele>
        <time>2020-09-27T14:14:35.339Z</time>
      </trkpt>
      <trkpt lat="64.81136" lon="20.96711">
        <ele>88.457644</ele>
        <time>2020-09-27T14:14:39.310Z</time>
      </trkpt>
      <trkpt lat="64.81125" lon="20.96701">
        <ele>88.865387</ele>
        <time>2020-09-27T14:14:43.311Z</time>
      </trkpt>
      <trkpt lat="64.81116" lon="20.96694">
        <ele>89.177824</ele>
        <time>2020-09-27T14:14:46.287Z</time>
      </trkpt>
      <trkpt lat="64.81108" lon="20.96685">
        <ele>89.491484</ele>
        <time>2020-09-27T14:14:49.275Z</time>
      </trkpt>
      <trkpt lat="64.811" lon="20.96676">
        <ele>89.804384</ele>
        <time>2020-09-27T14:14:52.352Z</time>
      </trkpt>
      <trkpt lat="64.81091" lon="20.96666">
        <ele>90.135695</ele>
        <time>2020-09-27T14:14:55.323Z</time>
      </trkpt>
      <trkpt lat="64.81082" lon="20.96657">
        <ele>90.46882</ele>
        <time>2020-09-27T14:14:58.278Z</time>
      </trkpt>
      <trkpt lat="64.81073" lon="20.96646">
        <ele>90.802032</ele>
        <time>2020-09-27T14:15:01.305Z</time>
      </trkpt>
      <trkpt lat="64.81064" lon="20.96635">
        <ele>91.151243</ele>
        <time>2020-09-27T14:15:04.288Z</time>
      </trkpt>
      <trkpt lat="64.81054" lon="20.96623">
        <ele>91.526458</ele>
        <time>2020-09-27T14:15:07.331Z</time>
      </trkpt>
      <trkpt lat="64.81044" lon="20.9661">
        <ele>91.907885</ele>
        <time>2020-09-27T14:15:10.294Z</time>
      </trkpt>
      <trkpt lat="64.81034" lon="20.96597">
        <ele>92.311987</ele>
        <time>2020-09-27T14:15:13.291Z</time>
      </trkpt>
      <trkpt lat="64.81023" lon="20.96581">
        <ele>92.746065</ele>
        <time>2020-09-27T14:15:16.297Z</time>
      </trkpt>
      <trkpt lat="64.81012" lon="20.96565">
        <ele>93.189707</ele>
        <time>2020-09-27T14:15:19.277Z</time>
      </trkpt>
      <trkpt lat="64.81001" lon="20.96547">
        <ele>93.448665</ele>
        <time>2020-09-27T14:15:22.296Z</time>
      </trkpt>
      <trkpt lat="64.8099" lon="20.96528">
        <ele>93.27847</ele>
        <time>2020-09-27T14:15:25.297Z</time>
      </trkpt>
      <trkpt lat="64.8098" lon="20.96509">
        <ele>93.111594</ele>
        <time>2020-09-27T14:15:28.284Z</time>
      </trkpt>
      <trkpt lat="64.80972" lon="20.96495">
        <ele>92.991801</ele>
        <time>2020-09-27T14:15:30.296Z</time>
      </trkpt>
      <trkpt lat="64.80964" lon="20.96482">
        <ele>92.867359</ele>
        <time>2020-09-27T14:15:32.281Z</time>
      </trkpt>
      <trkpt lat="64.80957" lon="20.96468">
        <ele>92.744946</ele>
        <time>2020-09-27T14:15:34.303Z</time>
      </trkpt>
      <trkpt lat="64.80949" lon="20.96453">
        <ele>92.625673</ele>
        <time>2020-09-27T14:15:36.286Z</time>
      </trkpt>
      <trkpt lat="64.80942" lon="20.96439">
        <ele>92.50919</ele>
        <time>2020-09-27T14:15:38.280Z</time>
      </trkpt>
      <trkpt lat="64.80935" lon="20.96424">
        <ele>92.38475</ele>
        <time>2020-09-27T14:15:40.280Z</time>
      </trkpt>
      <trkpt lat="64.80927" lon="20.96409">
        <ele>92.256303</ele>
        <time>2020-09-27T14:15:42.302Z</time>
      </trkpt>
      <trkpt lat="64.80919" lon="20.96394">
        <ele>92.126539</ele>
        <time>2020-09-27T14:15:44.275Z</time>
      </trkpt>
      <trkpt lat="64.80911" lon="20.96379">
        <ele>91.992838</ele>
        <time>2020-09-27T14:15:46.291Z</time>
      </trkpt>
      <trkpt lat="64.80902" lon="20.96362">
        <ele>91.852338</ele>
        <time>2020-09-27T14:15:48.287Z</time>
      </trkpt>
      <trkpt lat="64.80894" lon="20.96344">
        <ele>91.711838</ele>
        <time>2020-09-27T14:15:50.294Z</time>
      </trkpt>
      <trkpt lat="64.80886" lon="20.96326">
        <ele>91.567212</ele>
        <time>2020-09-27T14:15:52.300Z</time>
      </trkpt>
      <trkpt lat="64.80877" lon="20.96306">
        <ele>91.416658</ele>
        <time>2020-09-27T14:15:54.305Z</time>
      </trkpt>
      <trkpt lat="64.80869" lon="20.96286">
        <ele>91.267805</ele>
        <time>2020-09-27T14:15:56.290Z</time>
      </trkpt>
      <trkpt lat="64.80861" lon="20.96265">
        <ele>91.205645</ele>
        <time>2020-09-27T14:15:58.279Z</time>
      </trkpt>
      <trkpt lat="64.80854" lon="20.96245">
        <ele>91.176457</ele>
        <time>2020-09-27T14:16:00.341Z</time>
      </trkpt>
      <trkpt lat="64.80847" lon="20.96225">
        <ele>91.147925</ele>
        <time>2020-09-27T14:16:02.290Z</time>
      </trkpt>
      <trkpt lat="64.80839" lon="20.96205">
        <ele>91.120134</ele>
        <time>2020-09-27T14:16:04.285Z</time>
      </trkpt>
      <trkpt lat="64.80833" lon="20.96186">
        <ele>91.092753</ele>
        <time>2020-09-27T14:16:06.303Z</time>
      </trkpt>
      <trkpt lat="64.80826" lon="20.96166">
        <ele>91.065513</ele>
        <time>2020-09-27T14:16:08.326Z</time>
      </trkpt>
      <trkpt lat="64.8082" lon="20.96147">
        <ele>91.039576</ele>
        <time>2020-09-27T14:16:10.310Z</time>
      </trkpt>
      <trkpt lat="64.80814" lon="20.96128">
        <ele>91.013706</ele>
        <time>2020-09-27T14:16:12.303Z</time>
      </trkpt>
      <trkpt lat="64.80808" lon="20.96109">
        <ele>90.988635</ele>
        <time>2020-09-27T14:16:14.325Z</time>
      </trkpt>
      <trkpt lat="64.80802" lon="20.9609">
        <ele>90.964591</ele>
        <time>2020-09-27T14:16:16.295Z</time>
      </trkpt>
      <trkpt lat="64.80798" lon="20.96073">
        <ele>90.941701</ele>
        <time>2020-09-27T14:16:18.288Z</time>
      </trkpt>
      <trkpt lat="64.8079" lon="20.96047">
        <ele>90.908799</ele>
        <time>2020-09-27T14:16:21.286Z</time>
      </trkpt>
      <trkpt lat="64.80784" lon="20.96024">
        <ele>90.878537</ele>
        <time>2020-09-27T14:16:24.336Z</time>
      </trkpt>
      <trkpt lat="64.80777" lon="20.96001">
        <ele>90.848417</ele>
        <time>2020-09-27T14:16:27.297Z</time>
      </trkpt>
      <trkpt lat="64.80771" lon="20.95978">
        <ele>90.819521</ele>
        <time>2020-09-27T14:16:30.291Z</time>
      </trkpt>
      <trkpt lat="64.80764" lon="20.95956">
        <ele>90.790282</ele>
        <time>2020-09-27T14:16:33.291Z</time>
      </trkpt>
      <trkpt lat="64.80757" lon="20.9593">
        <ele>90.519016</ele>
        <time>2020-09-27T14:16:36.307Z</time>
      </trkpt>
      <trkpt lat="64.80752" lon="20.95912">
        <ele>90.079842</ele>
        <time>2020-09-27T14:16:38.289Z</time>
      </trkpt>
      <trkpt lat="64.80745" lon="20.95893">
        <ele>89.589543</ele>
        <time>2020-09-27T14:16:40.291Z</time>
      </trkpt>
      <trkpt lat="64.80739" lon="20.95874">
        <ele>89.121873</ele>
        <time>2020-09-27T14:16:42.282Z</time>
      </trkpt>
      <trkpt lat="64.80732" lon="20.95856">
        <ele>88.65007</ele>
        <time>2020-09-27T14:16:44.315Z</time>
      </trkpt>
      <trkpt lat="64.80725" lon="20.95838">
        <ele>88.163976</ele>
        <time>2020-09-27T14:16:46.319Z</time>
      </trkpt>
      <trkpt lat="64.80717" lon="20.95821">
        <ele>87.646092</ele>
        <time>2020-09-27T14:16:48.293Z</time>
      </trkpt>
      <trkpt lat="64.80708" lon="20.95803">
        <ele>87.083353</ele>
        <time>2020-09-27T14:16:50.301Z</time>
      </trkpt>
      <trkpt lat="64.80697" lon="20.95785">
        <ele>86.483481</ele>
        <time>2020-09-27T14:16:52.294Z</time>
      </trkpt>
      <trkpt lat="64.80686" lon="20.95768">
        <ele>85.843416</ele>
        <time>2020-09-27T14:16:54.329Z</time>
      </trkpt>
      <trkpt lat="64.80672" lon="20.95751">
        <ele>85.14804</ele>
        <time>2020-09-27T14:16:56.303Z</time>
      </trkpt>
      <trkpt lat="64.80658" lon="20.95735">
        <ele>84.420666</ele>
        <time>2020-09-27T14:16:58.286Z</time>
      </trkpt>
      <trkpt lat="64.80643" lon="20.95721">
        <ele>83.649785</ele>
        <time>2020-09-27T14:17:00.334Z</time>
      </trkpt>
      <trkpt lat="64.80626" lon="20.95711">
        <ele>82.853729</ele>
        <time>2020-09-27T14:17:02.280Z</time>
      </trkpt>
      <trkpt lat="64.80608" lon="20.95705">
        <ele>82.204802</ele>
        <time>2020-09-27T14:17:04.285Z</time>
      </trkpt>
      <trkpt lat="64.80599" lon="20.95703">
        <ele>81.983001</ele>
        <time>2020-09-27T14:17:05.318Z</time>
      </trkpt>
      <trkpt lat="64.8059" lon="20.95702">
        <ele>81.761721</ele>
        <time>2020-09-27T14:17:06.296Z</time>
      </trkpt>
      <trkpt lat="64.80581" lon="20.95703">
        <ele>81.540516</ele>
        <time>2020-09-27T14:17:07.290Z</time>
      </trkpt>
      <trkpt lat="64.80571" lon="20.95703">
        <ele>81.312025</ele>
        <time>2020-09-27T14:17:08.305Z</time>
      </trkpt>
      <trkpt lat="64.80562" lon="20.95703">
        <ele>81.08121</ele>
        <time>2020-09-27T14:17:09.298Z</time>
      </trkpt>
      <trkpt lat="64.80552" lon="20.95703">
        <ele>80.845587</ele>
        <time>2020-09-27T14:17:10.309Z</time>
      </trkpt>
      <trkpt lat="64.80542" lon="20.95703">
        <ele>80.614772</ele>
        <time>2020-09-27T14:17:11.285Z</time>
      </trkpt>
      <trkpt lat="64.80533" lon="20.95703">
        <ele>80.383924</ele>
        <time>2020-09-27T14:17:12.300Z</time>
      </trkpt>
      <trkpt lat="64.80524" lon="20.95702">
        <ele>80.162388</ele>
        <time>2020-09-27T14:17:13.296Z</time>
      </trkpt>
      <trkpt lat="64.80514" lon="20.95699">
        <ele>79.93721</ele>
        <time>2020-09-27T14:17:14.273Z</time>
      </trkpt>
      <trkpt lat="64.80505" lon="20.95695">
        <ele>79.714622</ele>
        <time>2020-09-27T14:17:15.293Z</time>
      </trkpt>
      <trkpt lat="64.80488" lon="20.95685">
        <ele>79.283445</ele>
        <time>2020-09-27T14:17:17.282Z</time>
      </trkpt>
      <trkpt lat="64.80471" lon="20.9567">
        <ele>78.858433</ele>
        <time>2020-09-27T14:17:19.277Z</time>
      </trkpt>
      <trkpt lat="64.80457" lon="20.9565">
        <ele>78.454653</ele>
        <time>2020-09-27T14:17:21.329Z</time>
      </trkpt>
      <trkpt lat="64.80444" lon="20.95626">
        <ele>78.076448</ele>
        <time>2020-09-27T14:17:23.324Z</time>
      </trkpt>
      <trkpt lat="64.80433" lon="20.95602">
        <ele>77.910142</ele>
        <time>2020-09-27T14:17:25.287Z</time>
      </trkpt>
      <trkpt lat="64.80424" lon="20.95576">
        <ele>77.757481</ele>
        <time>2020-09-27T14:17:27.327Z</time>
      </trkpt>
      <trkpt lat="64.80416" lon="20.95554">
        <ele>77.616774</ele>
        <time>2020-09-27T14:17:29.280Z</time>
      </trkpt>
      <trkpt lat="64.80407" lon="20.95532">
        <ele>77.48091</ele>
        <time>2020-09-27T14:17:31.281Z</time>
      </trkpt>
      <trkpt lat="64.80399" lon="20.95512">
        <ele>77.354319</ele>
        <time>2020-09-27T14:17:33.350Z</time>
      </trkpt>
      <trkpt lat="64.80392" lon="20.95492">
        <ele>77.234444</ele>
        <time>2020-09-27T14:17:35.294Z</time>
      </trkpt>
      <trkpt lat="64.80385" lon="20.95472">
        <ele>77.113836</ele>
        <time>2020-09-27T14:17:37.296Z</time>
      </trkpt>
      <trkpt lat="64.80378" lon="20.95451">
        <ele>76.989732</ele>
        <time>2020-09-27T14:17:39.315Z</time>
      </trkpt>
      <trkpt lat="64.80371" lon="20.95431">
        <ele>76.867384</ele>
        <time>2020-09-27T14:17:41.307Z</time>
      </trkpt>
      <trkpt lat="64.80364" lon="20.95411">
        <ele>76.746799</ele>
        <time>2020-09-27T14:17:43.290Z</time>
      </trkpt>
      <trkpt lat="64.80356" lon="20.95391">
        <ele>76.626569</ele>
        <time>2020-09-27T14:17:45.294Z</time>
      </trkpt>
      <trkpt lat="64.80349" lon="20.95372">
        <ele>76.510196</ele>
        <time>2020-09-27T14:17:47.282Z</time>
      </trkpt>
      <trkpt lat="64.80342" lon="20.95354">
        <ele>76.389394</ele>
        <time>2020-09-27T14:17:49.285Z</time>
      </trkpt>
      <trkpt lat="64.80334" lon="20.95334">
        <ele>76.265081</ele>
        <time>2020-09-27T14:17:51.298Z</time>
      </trkpt>
      <trkpt lat="64.80326" lon="20.95315">
        <ele>76.140447</ele>
        <time>2020-09-27T14:17:53.326Z</time>
      </trkpt>
      <trkpt lat="64.80317" lon="20.95297">
        <ele>76.048823</ele>
        <time>2020-09-27T14:17:55.326Z</time>
      </trkpt>
      <trkpt lat="64.80307" lon="20.9528">
        <ele>75.960693</ele>
        <time>2020-09-27T14:17:57.282Z</time>
      </trkpt>
      <trkpt lat="64.80297" lon="20.95265">
        <ele>75.872218</ele>
        <time>2020-09-27T14:17:59.291Z</time>
      </trkpt>
      <trkpt lat="64.80286" lon="20.95251">
        <ele>75.778563</ele>
        <time>2020-09-27T14:18:01.281Z</time>
      </trkpt>
      <trkpt lat="64.80275" lon="20.95238">
        <ele>75.687912</ele>
        <time>2020-09-27T14:18:03.293Z</time>
      </trkpt>
      <trkpt lat="64.80264" lon="20.95225">
        <ele>75.596356</ele>
        <time>2020-09-27T14:18:05.298Z</time>
      </trkpt>
      <trkpt lat="64.80252" lon="20.9521">
        <ele>75.500418</ele>
        <time>2020-09-27T14:18:07.283Z</time>
      </trkpt>
      <trkpt lat="64.80241" lon="20.95196">
        <ele>75.4063</ele>
        <time>2020-09-27T14:18:09.306Z</time>
      </trkpt>
      <trkpt lat="64.80229" lon="20.95181">
        <ele>75.309268</ele>
        <time>2020-09-27T14:18:11.298Z</time>
      </trkpt>
      <trkpt lat="64.80218" lon="20.95165">
        <ele>75.210711</ele>
        <time>2020-09-27T14:18:13.278Z</time>
      </trkpt>
      <trkpt lat="64.80207" lon="20.95147">
        <ele>75.111508</ele>
        <time>2020-09-27T14:18:15.298Z</time>
      </trkpt>
      <trkpt lat="64.80196" lon="20.95128">
        <ele>75.011545</ele>
        <time>2020-09-27T14:18:17.303Z</time>
      </trkpt>
      <trkpt lat="64.80185" lon="20.95108">
        <ele>74.910829</ele>
        <time>2020-09-27T14:18:19.283Z</time>
      </trkpt>
      <trkpt lat="64.80175" lon="20.95087">
        <ele>74.808134</ele>
        <time>2020-09-27T14:18:21.302Z</time>
      </trkpt>
      <trkpt lat="64.80165" lon="20.95065">
        <ele>75.28698</ele>
        <time>2020-09-27T14:18:23.298Z</time>
      </trkpt>
      <trkpt lat="64.80156" lon="20.95044">
        <ele>75.780654</ele>
        <time>2020-09-27T14:18:25.285Z</time>
      </trkpt>
      <trkpt lat="64.80147" lon="20.95024">
        <ele>76.248502</ele>
        <time>2020-09-27T14:18:27.304Z</time>
      </trkpt>
      <trkpt lat="64.80139" lon="20.95006">
        <ele>76.693526</ele>
        <time>2020-09-27T14:18:29.285Z</time>
      </trkpt>
      <trkpt lat="64.80131" lon="20.94988">
        <ele>77.110321</ele>
        <time>2020-09-27T14:18:31.348Z</time>
      </trkpt>
      <trkpt lat="64.80124" lon="20.94972">
        <ele>77.495364</ele>
        <time>2020-09-27T14:18:33.297Z</time>
      </trkpt>
      <trkpt lat="64.80116" lon="20.94956">
        <ele>77.881054</ele>
        <time>2020-09-27T14:18:35.287Z</time>
      </trkpt>
      <trkpt lat="64.80109" lon="20.9494">
        <ele>78.275163</ele>
        <time>2020-09-27T14:18:37.298Z</time>
      </trkpt>
      <trkpt lat="64.80101" lon="20.94926">
        <ele>78.662031</ele>
        <time>2020-09-27T14:18:39.281Z</time>
      </trkpt>
      <trkpt lat="64.80094" lon="20.94912">
        <ele>79.033626</ele>
        <time>2020-09-27T14:18:41.307Z</time>
      </trkpt>
      <trkpt lat="64.80086" lon="20.949">
        <ele>79.394397</ele>
        <time>2020-09-27T14:18:43.322Z</time>
      </trkpt>
      <trkpt lat="64.80078" lon="20.9489">
        <ele>79.744869</ele>
        <time>2020-09-27T14:18:45.295Z</time>
      </trkpt>
      <trkpt lat="64.80066" lon="20.94877">
        <ele>80.251182</ele>
        <time>2020-09-27T14:18:48.294Z</time>
      </trkpt>
      <trkpt lat="64.80054" lon="20.94865">
        <ele>80.761033</ele>
        <time>2020-09-27T14:18:51.315Z</time>
      </trkpt>
      <trkpt lat="64.80042" lon="20.94854">
        <ele>81.254077</ele>
        <time>2020-09-27T14:18:54.310Z</time>
      </trkpt>
      <trkpt lat="64.8003" lon="20.94843">
        <ele>81.746</ele>
        <time>2020-09-27T14:18:57.282Z</time>
      </trkpt>
      <trkpt lat="64.80018" lon="20.94833">
        <ele>82.121261</ele>
        <time>2020-09-27T14:19:00.299Z</time>
      </trkpt>
      <trkpt lat="64.80008" lon="20.94825">
        <ele>82.39546</ele>
        <time>2020-09-27T14:19:02.282Z</time>
      </trkpt>
      <trkpt lat="64.79998" lon="20.94816">
        <ele>82.675872</ele>
        <time>2020-09-27T14:19:04.286Z</time>
      </trkpt>
      <trkpt lat="64.79989" lon="20.94807">
        <ele>82.962187</ele>
        <time>2020-09-27T14:19:06.307Z</time>
      </trkpt>
      <trkpt lat="64.79979" lon="20.94798">
        <ele>83.231647</ele>
        <time>2020-09-27T14:19:08.274Z</time>
      </trkpt>
      <trkpt lat="64.7997" lon="20.94789">
        <ele>83.512916</ele>
        <time>2020-09-27T14:19:10.285Z</time>
      </trkpt>
      <trkpt lat="64.79961" lon="20.94779">
        <ele>83.790815</ele>
        <time>2020-09-27T14:19:12.305Z</time>
      </trkpt>
      <trkpt lat="64.79951" lon="20.94768">
        <ele>84.074773</ele>
        <time>2020-09-27T14:19:14.321Z</time>
      </trkpt>
      <trkpt lat="64.79942" lon="20.94758">
        <ele>84.355761</ele>
        <time>2020-09-27T14:19:16.283Z</time>
      </trkpt>
      <trkpt lat="64.79932" lon="20.94748">
        <ele>84.635658</ele>
        <time>2020-09-27T14:19:18.294Z</time>
      </trkpt>
      <trkpt lat="64.79923" lon="20.94738">
        <ele>84.916992</ele>
        <time>2020-09-27T14:19:20.333Z</time>
      </trkpt>
      <trkpt lat="64.79913" lon="20.94729">
        <ele>85.195745</ele>
        <time>2020-09-27T14:19:22.292Z</time>
      </trkpt>
      <trkpt lat="64.79904" lon="20.9472">
        <ele>85.47911</ele>
        <time>2020-09-27T14:19:24.278Z</time>
      </trkpt>
      <trkpt lat="64.79894" lon="20.94709">
        <ele>85.765367</ele>
        <time>2020-09-27T14:19:26.281Z</time>
      </trkpt>
      <trkpt lat="64.79885" lon="20.94698">
        <ele>86.061636</ele>
        <time>2020-09-27T14:19:28.307Z</time>
      </trkpt>
      <trkpt lat="64.79875" lon="20.94686">
        <ele>86.366743</ele>
        <time>2020-09-27T14:19:30.334Z</time>
      </trkpt>
      <trkpt lat="64.79865" lon="20.94675">
        <ele>86.664355</ele>
        <time>2020-09-27T14:19:32.306Z</time>
      </trkpt>
      <trkpt lat="64.79854" lon="20.94664">
        <ele>86.12094</ele>
        <time>2020-09-27T14:19:34.282Z</time>
      </trkpt>
      <trkpt lat="64.79843" lon="20.94653">
        <ele>85.564708</ele>
        <time>2020-09-27T14:19:36.286Z</time>
      </trkpt>
      <trkpt lat="64.79833" lon="20.94641">
        <ele>85.006807</ele>
        <time>2020-09-27T14:19:38.306Z</time>
      </trkpt>
      <trkpt lat="64.79822" lon="20.9463">
        <ele>84.458364</ele>
        <time>2020-09-27T14:19:40.291Z</time>
      </trkpt>
      <trkpt lat="64.79811" lon="20.94618">
        <ele>83.86061</ele>
        <time>2020-09-27T14:19:42.305Z</time>
      </trkpt>
      <trkpt lat="64.79799" lon="20.94606">
        <ele>83.244188</ele>
        <time>2020-09-27T14:19:44.309Z</time>
      </trkpt>
      <trkpt lat="64.79785" lon="20.94593">
        <ele>82.558038</ele>
        <time>2020-09-27T14:19:46.292Z</time>
      </trkpt>
      <trkpt lat="64.79772" lon="20.94581">
        <ele>81.884679</ele>
        <time>2020-09-27T14:19:48.278Z</time>
      </trkpt>
      <trkpt lat="64.79759" lon="20.9457">
        <ele>81.239149</ele>
        <time>2020-09-27T14:19:50.325Z</time>
      </trkpt>
      <trkpt lat="64.79747" lon="20.9456">
        <ele>80.617964</ele>
        <time>2020-09-27T14:19:52.291Z</time>
      </trkpt>
      <trkpt lat="64.79734" lon="20.94549">
        <ele>79.986085</ele>
        <time>2020-09-27T14:19:54.295Z</time>
      </trkpt>
      <trkpt lat="64.79722" lon="20.94538">
        <ele>79.351774</ele>
        <time>2020-09-27T14:19:56.286Z</time>
      </trkpt>
      <trkpt lat="64.79709" lon="20.94528">
        <ele>78.713424</ele>
        <time>2020-09-27T14:19:58.350Z</time>
      </trkpt>
      <trkpt lat="64.79697" lon="20.94516">
        <ele>78.05837</ele>
        <time>2020-09-27T14:20:00.302Z</time>
      </trkpt>
      <trkpt lat="64.79684" lon="20.94504">
        <ele>77.133369</ele>
        <time>2020-09-27T14:20:02.292Z</time>
      </trkpt>
      <trkpt lat="64.79672" lon="20.94492">
        <ele>76.20532</ele>
        <time>2020-09-27T14:20:04.293Z</time>
      </trkpt>
      <trkpt lat="64.79659" lon="20.94481">
        <ele>75.236475</ele>
        <time>2020-09-27T14:20:06.318Z</time>
      </trkpt>
      <trkpt lat="64.79645" lon="20.9447">
        <ele>74.223176</ele>
        <time>2020-09-27T14:20:08.287Z</time>
      </trkpt>
      <trkpt lat="64.79631" lon="20.9446">
        <ele>73.251905</ele>
        <time>2020-09-27T14:20:10.296Z</time>
      </trkpt>
      <trkpt lat="64.79618" lon="20.94449">
        <ele>72.252606</ele>
        <time>2020-09-27T14:20:12.287Z</time>
      </trkpt>
      <trkpt lat="64.79605" lon="20.94436">
        <ele>71.295385</ele>
        <time>2020-09-27T14:20:14.327Z</time>
      </trkpt>
      <trkpt lat="64.79592" lon="20.94423">
        <ele>70.327582</ele>
        <time>2020-09-27T14:20:16.298Z</time>
      </trkpt>
      <trkpt lat="64.79579" lon="20.94408">
        <ele>69.337267</ele>
        <time>2020-09-27T14:20:18.290Z</time>
      </trkpt>
      <trkpt lat="64.79566" lon="20.94392">
        <ele>68.337719</ele>
        <time>2020-09-27T14:20:20.309Z</time>
      </trkpt>
      <trkpt lat="64.79553" lon="20.94375">
        <ele>67.305253</ele>
        <time>2020-09-27T14:20:22.352Z</time>
      </trkpt>
      <trkpt lat="64.7954" lon="20.94356">
        <ele>66.239935</ele>
        <time>2020-09-27T14:20:24.329Z</time>
      </trkpt>
      <trkpt lat="64.79526" lon="20.94336">
        <ele>65.558842</ele>
        <time>2020-09-27T14:20:26.294Z</time>
      </trkpt>
      <trkpt lat="64.79512" lon="20.94315">
        <ele>65.210612</ele>
        <time>2020-09-27T14:20:28.322Z</time>
      </trkpt>
      <trkpt lat="64.79498" lon="20.94294">
        <ele>64.857268</ele>
        <time>2020-09-27T14:20:30.298Z</time>
      </trkpt>
      <trkpt lat="64.79484" lon="20.94271">
        <ele>64.513576</ele>
        <time>2020-09-27T14:20:32.316Z</time>
      </trkpt>
      <trkpt lat="64.79472" lon="20.9425">
        <ele>64.18608</ele>
        <time>2020-09-27T14:20:34.276Z</time>
      </trkpt>
      <trkpt lat="64.7946" lon="20.94228">
        <ele>63.867567</ele>
        <time>2020-09-27T14:20:36.301Z</time>
      </trkpt>
      <trkpt lat="64.79448" lon="20.94207">
        <ele>63.56875</ele>
        <time>2020-09-27T14:20:38.289Z</time>
      </trkpt>
      <trkpt lat="64.79438" lon="20.94187">
        <ele>63.285881</ele>
        <time>2020-09-27T14:20:40.284Z</time>
      </trkpt>
      <trkpt lat="64.79428" lon="20.94168">
        <ele>63.017155</ele>
        <time>2020-09-27T14:20:42.301Z</time>
      </trkpt>
      <trkpt lat="64.79419" lon="20.9415">
        <ele>62.764192</ele>
        <time>2020-09-27T14:20:44.284Z</time>
      </trkpt>
      <trkpt lat="64.7941" lon="20.94132">
        <ele>62.524502</ele>
        <time>2020-09-27T14:20:46.311Z</time>
      </trkpt>
      <trkpt lat="64.79402" lon="20.94115">
        <ele>62.29664</ele>
        <time>2020-09-27T14:20:48.321Z</time>
      </trkpt>
      <trkpt lat="64.79393" lon="20.94098">
        <ele>62.062436</ele>
        <time>2020-09-27T14:20:50.299Z</time>
      </trkpt>
      <trkpt lat="64.79384" lon="20.94081">
        <ele>61.996377</ele>
        <time>2020-09-27T14:20:52.296Z</time>
      </trkpt>
      <trkpt lat="64.79375" lon="20.94065">
        <ele>62.005397</ele>
        <time>2020-09-27T14:20:54.286Z</time>
      </trkpt>
      <trkpt lat="64.79366" lon="20.94049">
        <ele>62.013956</ele>
        <time>2020-09-27T14:20:56.301Z</time>
      </trkpt>
      <trkpt lat="64.79357" lon="20.94034">
        <ele>62.022401</ele>
        <time>2020-09-27T14:20:58.293Z</time>
      </trkpt>
      <trkpt lat="64.79348" lon="20.94019">
        <ele>62.030883</ele>
        <time>2020-09-27T14:21:00.292Z</time>
      </trkpt>
      <trkpt lat="64.79338" lon="20.94006">
        <ele>62.039255</ele>
        <time>2020-09-27T14:21:02.308Z</time>
      </trkpt>
      <trkpt lat="64.7933" lon="20.93992">
        <ele>62.047452</ele>
        <time>2020-09-27T14:21:04.316Z</time>
      </trkpt>
      <trkpt lat="64.7932" lon="20.93979">
        <ele>62.055637</ele>
        <time>2020-09-27T14:21:06.317Z</time>
      </trkpt>
      <trkpt lat="64.79312" lon="20.93966">
        <ele>62.063607</ele>
        <time>2020-09-27T14:21:08.283Z</time>
      </trkpt>
      <trkpt lat="64.79303" lon="20.93954">
        <ele>62.071329</ele>
        <time>2020-09-27T14:21:10.287Z</time>
      </trkpt>
      <trkpt lat="64.79294" lon="20.93943">
        <ele>62.078771</ele>
        <time>2020-09-27T14:21:12.292Z</time>
      </trkpt>
      <trkpt lat="64.79286" lon="20.93931">
        <ele>62.08598</ele>
        <time>2020-09-27T14:21:14.298Z</time>
      </trkpt>
      <trkpt lat="64.79278" lon="20.93921">
        <ele>62.09319</ele>
        <time>2020-09-27T14:21:16.298Z</time>
      </trkpt>
      <trkpt lat="64.79266" lon="20.93906">
        <ele>62.103456</ele>
        <time>2020-09-27T14:21:19.304Z</time>
      </trkpt>
      <trkpt lat="64.79258" lon="20.93897">
        <ele>62.110647</ele>
        <time>2020-09-27T14:21:21.298Z</time>
      </trkpt>
      <trkpt lat="64.79249" lon="20.93887">
        <ele>62.117894</ele>
        <time>2020-09-27T14:21:23.329Z</time>
      </trkpt>
      <trkpt lat="64.79241" lon="20.93878">
        <ele>62.125085</ele>
        <time>2020-09-27T14:21:25.298Z</time>
      </trkpt>
      <trkpt lat="64.79229" lon="20.93865">
        <ele>62.188142</ele>
        <time>2020-09-27T14:21:28.275Z</time>
      </trkpt>
      <trkpt lat="64.79218" lon="20.93853">
        <ele>62.26796</ele>
        <time>2020-09-27T14:21:31.311Z</time>
      </trkpt>
      <trkpt lat="64.79205" lon="20.93841">
        <ele>62.353724</ele>
        <time>2020-09-27T14:21:34.284Z</time>
      </trkpt>
      <trkpt lat="64.79197" lon="20.93833">
        <ele>62.413187</ele>
        <time>2020-09-27T14:21:36.285Z</time>
      </trkpt>
      <trkpt lat="64.79188" lon="20.93825">
        <ele>62.472753</ele>
        <time>2020-09-27T14:21:38.303Z</time>
      </trkpt>
      <trkpt lat="64.7918" lon="20.93817">
        <ele>62.534753</ele>
        <time>2020-09-27T14:21:40.285Z</time>
      </trkpt>
      <trkpt lat="64.79171" lon="20.93808">
        <ele>62.595235</ele>
        <time>2020-09-27T14:21:42.313Z</time>
      </trkpt>
      <trkpt lat="64.79162" lon="20.93801">
        <ele>62.656543</ele>
        <time>2020-09-27T14:21:44.289Z</time>
      </trkpt>
      <trkpt lat="64.79154" lon="20.93793">
        <ele>62.716005</ele>
        <time>2020-09-27T14:21:46.334Z</time>
      </trkpt>
      <trkpt lat="64.79145" lon="20.93785">
        <ele>62.776281</ele>
        <time>2020-09-27T14:21:48.279Z</time>
      </trkpt>
      <trkpt lat="64.79136" lon="20.93778">
        <ele>62.834734</ele>
        <time>2020-09-27T14:21:50.296Z</time>
      </trkpt>
      <trkpt lat="64.79128" lon="20.9377">
        <ele>62.893595</ele>
        <time>2020-09-27T14:21:52.297Z</time>
      </trkpt>
      <trkpt lat="64.79119" lon="20.93762">
        <ele>62.953166</ele>
        <time>2020-09-27T14:21:54.290Z</time>
      </trkpt>
      <trkpt lat="64.79111" lon="20.93754">
        <ele>63.014643</ele>
        <time>2020-09-27T14:21:56.296Z</time>
      </trkpt>
      <trkpt lat="64.79102" lon="20.93746">
        <ele>63.074811</ele>
        <time>2020-09-27T14:21:58.294Z</time>
      </trkpt>
      <trkpt lat="64.79094" lon="20.93736">
        <ele>63.135234</ele>
        <time>2020-09-27T14:22:00.277Z</time>
      </trkpt>
      <trkpt lat="64.79085" lon="20.93726">
        <ele>63.197093</ele>
        <time>2020-09-27T14:22:02.316Z</time>
      </trkpt>
      <trkpt lat="64.79077" lon="20.93716">
        <ele>63.259589</ele>
        <time>2020-09-27T14:22:04.312Z</time>
      </trkpt>
      <trkpt lat="64.79068" lon="20.93705">
        <ele>63.383473</ele>
        <time>2020-09-27T14:22:06.286Z</time>
      </trkpt>
      <trkpt lat="64.7906" lon="20.93693">
        <ele>63.586633</ele>
        <time>2020-09-27T14:22:08.289Z</time>
      </trkpt>
      <trkpt lat="64.79052" lon="20.93681">
        <ele>63.794067</ele>
        <time>2020-09-27T14:22:10.296Z</time>
      </trkpt>
      <trkpt lat="64.79045" lon="20.93669">
        <ele>63.995514</ele>
        <time>2020-09-27T14:22:12.327Z</time>
      </trkpt>
      <trkpt lat="64.79037" lon="20.93656">
        <ele>64.19727</ele>
        <time>2020-09-27T14:22:14.278Z</time>
      </trkpt>
      <trkpt lat="64.7903" lon="20.93643">
        <ele>64.395621</ele>
        <time>2020-09-27T14:22:16.283Z</time>
      </trkpt>
      <trkpt lat="64.79023" lon="20.9363">
        <ele>64.591088</ele>
        <time>2020-09-27T14:22:18.295Z</time>
      </trkpt>
      <trkpt lat="64.79016" lon="20.93616">
        <ele>64.791317</ele>
        <time>2020-09-27T14:22:20.289Z</time>
      </trkpt>
      <trkpt lat="64.79009" lon="20.93601">
        <ele>64.990739</ele>
        <time>2020-09-27T14:22:22.285Z</time>
      </trkpt>
      <trkpt lat="64.78999" lon="20.93579">
        <ele>65.284819</ele>
        <time>2020-09-27T14:22:25.307Z</time>
      </trkpt>
      <trkpt lat="64.78993" lon="20.93563">
        <ele>65.488135</ele>
        <time>2020-09-27T14:22:27.289Z</time>
      </trkpt>
      <trkpt lat="64.78986" lon="20.93548">
        <ele>65.689927</ele>
        <time>2020-09-27T14:22:29.319Z</time>
      </trkpt>
      <trkpt lat="64.7898" lon="20.93531">
        <ele>65.896901</ele>
        <time>2020-09-27T14:22:31.303Z</time>
      </trkpt>
      <trkpt lat="64.78974" lon="20.93513">
        <ele>66.107381</ele>
        <time>2020-09-27T14:22:33.288Z</time>
      </trkpt>
      <trkpt lat="64.78968" lon="20.93497">
        <ele>66.307348</ele>
        <time>2020-09-27T14:22:35.287Z</time>
      </trkpt>
      <trkpt lat="64.7896" lon="20.93472">
        <ele>66.596816</ele>
        <time>2020-09-27T14:22:38.302Z</time>
      </trkpt>
      <trkpt lat="64.78951" lon="20.93448">
        <ele>66.880689</ele>
        <time>2020-09-27T14:22:41.293Z</time>
      </trkpt>
      <trkpt lat="64.78944" lon="20.93426">
        <ele>67.146859</ele>
        <time>2020-09-27T14:22:44.307Z</time>
      </trkpt>
      <trkpt lat="64.78935" lon="20.93404">
        <ele>67.720816</ele>
        <time>2020-09-27T14:22:47.294Z</time>
      </trkpt>
      <trkpt lat="64.78927" lon="20.93383">
        <ele>68.371985</ele>
        <time>2020-09-27T14:22:50.295Z</time>
      </trkpt>
      <trkpt lat="64.78919" lon="20.93363">
        <ele>68.980203</ele>
        <time>2020-09-27T14:22:53.286Z</time>
      </trkpt>
      <trkpt lat="64.78912" lon="20.93345">
        <ele>69.563265</ele>
        <time>2020-09-27T14:22:56.284Z</time>
      </trkpt>
      <trkpt lat="64.78903" lon="20.93326">
        <ele>70.181649</ele>
        <time>2020-09-27T14:22:59.282Z</time>
      </trkpt>
      <trkpt lat="64.78894" lon="20.93309">
        <ele>70.782179</ele>
        <time>2020-09-27T14:23:02.286Z</time>
      </trkpt>
      <trkpt lat="64.78885" lon="20.93294">
        <ele>71.395063</ele>
        <time>2020-09-27T14:23:05.314Z</time>
      </trkpt>
      <trkpt lat="64.78875" lon="20.93278">
        <ele>72.00486</ele>
        <time>2020-09-27T14:23:08.304Z</time>
      </trkpt>
      <trkpt lat="64.78866" lon="20.93264">
        <ele>72.587666</ele>
        <time>2020-09-27T14:23:11.282Z</time>
      </trkpt>
      <trkpt lat="64.78857" lon="20.9325">
        <ele>73.164338</ele>
        <time>2020-09-27T14:23:14.291Z</time>
      </trkpt>
      <trkpt lat="64.78848" lon="20.9324">
        <ele>73.693166</ele>
        <time>2020-09-27T14:23:17.305Z</time>
      </trkpt>
      <trkpt lat="64.78839" lon="20.93231">
        <ele>74.178172</ele>
        <time>2020-09-27T14:23:20.315Z</time>
      </trkpt>
      <trkpt lat="64.78831" lon="20.93221">
        <ele>74.654446</ele>
        <time>2020-09-27T14:23:23.286Z</time>
      </trkpt>
      <trkpt lat="64.7882" lon="20.93211">
        <ele>75.289808</ele>
        <time>2020-09-27T14:23:27.296Z</time>
      </trkpt>
      <trkpt lat="64.78811" lon="20.93203">
        <ele>75.784312</ele>
        <time>2020-09-27T14:23:30.297Z</time>
      </trkpt>
      <trkpt lat="64.78802" lon="20.93198">
        <ele>76.296562</ele>
        <time>2020-09-27T14:23:33.313Z</time>
      </trkpt>
      <trkpt lat="64.78793" lon="20.93193">
        <ele>76.765826</ele>
        <time>2020-09-27T14:23:36.279Z</time>
      </trkpt>
      <trkpt lat="64.78783" lon="20.93189">
        <ele>77.114373</ele>
        <time>2020-09-27T14:23:39.302Z</time>
      </trkpt>
      <trkpt lat="64.78774" lon="20.93184">
        <ele>77.442425</ele>
        <time>2020-09-27T14:23:42.281Z</time>
      </trkpt>
      <trkpt lat="64.78764" lon="20.9318">
        <ele>77.775337</ele>
        <time>2020-09-27T14:23:45.311Z</time>
      </trkpt>
      <trkpt lat="64.78752" lon="20.93174">
        <ele>78.198613</ele>
        <time>2020-09-27T14:23:49.277Z</time>
      </trkpt>
      <trkpt lat="64.78743" lon="20.9317">
        <ele>78.519535</ele>
        <time>2020-09-27T14:23:52.345Z</time>
      </trkpt>
      <trkpt lat="64.78734" lon="20.93165">
        <ele>78.8479</ele>
        <time>2020-09-27T14:23:55.322Z</time>
      </trkpt>
      <trkpt lat="64.78724" lon="20.93162">
        <ele>79.202953</ele>
        <time>2020-09-27T14:23:58.317Z</time>
      </trkpt>
      <trkpt lat="64.78714" lon="20.93161">
        <ele>79.54198</ele>
        <time>2020-09-27T14:24:01.282Z</time>
      </trkpt>
      <trkpt lat="64.78705" lon="20.93157">
        <ele>79.865424</ele>
        <time>2020-09-27T14:24:04.292Z</time>
      </trkpt>
      <trkpt lat="64.78696" lon="20.93152">
        <ele>80.194434</ele>
        <time>2020-09-27T14:24:07.314Z</time>
      </trkpt>
      <trkpt lat="64.78685" lon="20.93147">
        <ele>80.600329</ele>
        <time>2020-09-27T14:24:11.323Z</time>
      </trkpt>
      <trkpt lat="64.78673" lon="20.93146">
        <ele>81.00925</ele>
        <time>2020-09-27T14:24:15.305Z</time>
      </trkpt>
      <trkpt lat="64.78661" lon="20.93142">
        <ele>81.416591</ele>
        <time>2020-09-27T14:24:19.286Z</time>
      </trkpt>
      <trkpt lat="64.78652" lon="20.93139">
        <ele>81.74852</ele>
        <time>2020-09-27T14:24:22.293Z</time>
      </trkpt>
      <trkpt lat="64.78643" lon="20.93134">
        <ele>82.070074</ele>
        <time>2020-09-27T14:24:25.300Z</time>
      </trkpt>
      <trkpt lat="64.78634" lon="20.93129">
        <ele>82.387671</ele>
        <time>2020-09-27T14:24:28.287Z</time>
      </trkpt>
      <trkpt lat="64.78625" lon="20.93122">
        <ele>82.718554</ele>
        <time>2020-09-27T14:24:31.305Z</time>
      </trkpt>
      <trkpt lat="64.78616" lon="20.93115">
        <ele>82.959053</ele>
        <time>2020-09-27T14:24:34.306Z</time>
      </trkpt>
      <trkpt lat="64.78607" lon="20.93107">
        <ele>82.891541</ele>
        <time>2020-09-27T14:24:37.297Z</time>
      </trkpt>
      <trkpt lat="64.78597" lon="20.93097">
        <ele>82.821511</ele>
        <time>2020-09-27T14:24:40.284Z</time>
      </trkpt>
      <trkpt lat="64.78589" lon="20.93086">
        <ele>82.757263</ele>
        <time>2020-09-27T14:24:43.313Z</time>
      </trkpt>
      <trkpt lat="64.78581" lon="20.93077">
        <ele>82.694208</ele>
        <time>2020-09-27T14:24:46.313Z</time>
      </trkpt>
      <trkpt lat="64.78571" lon="20.93062">
        <ele>82.612302</ele>
        <time>2020-09-27T14:24:50.295Z</time>
      </trkpt>
      <trkpt lat="64.78563" lon="20.9305">
        <ele>82.547804</ele>
        <time>2020-09-27T14:24:53.294Z</time>
      </trkpt>
      <trkpt lat="64.78555" lon="20.93038">
        <ele>82.482787</ele>
        <time>2020-09-27T14:24:56.291Z</time>
      </trkpt>
      <trkpt lat="64.78547" lon="20.93025">
        <ele>82.417465</ele>
        <time>2020-09-27T14:24:59.307Z</time>
      </trkpt>
      <trkpt lat="64.78539" lon="20.93013">
        <ele>82.351396</ele>
        <time>2020-09-27T14:25:02.296Z</time>
      </trkpt>
      <trkpt lat="64.78531" lon="20.93001">
        <ele>82.284432</ele>
        <time>2020-09-27T14:25:05.326Z</time>
      </trkpt>
      <trkpt lat="64.78523" lon="20.92988">
        <ele>82.213239</ele>
        <time>2020-09-27T14:25:08.292Z</time>
      </trkpt>
      <trkpt lat="64.78514" lon="20.92974">
        <ele>82.143585</ele>
        <time>2020-09-27T14:25:11.304Z</time>
      </trkpt>
      <trkpt lat="64.78506" lon="20.9296">
        <ele>82.074099</ele>
        <time>2020-09-27T14:25:14.309Z</time>
      </trkpt>
      <trkpt lat="64.78498" lon="20.92946">
        <ele>82.00255</ele>
        <time>2020-09-27T14:25:17.292Z</time>
      </trkpt>
      <trkpt lat="64.78489" lon="20.92931">
        <ele>81.927832</ele>
        <time>2020-09-27T14:25:20.296Z</time>
      </trkpt>
      <trkpt lat="64.7848" lon="20.92917">
        <ele>81.855908</ele>
        <time>2020-09-27T14:25:23.303Z</time>
      </trkpt>
      <trkpt lat="64.78472" lon="20.92903">
        <ele>81.785576</ele>
        <time>2020-09-27T14:25:26.309Z</time>
      </trkpt>
      <trkpt lat="64.78464" lon="20.92888">
        <ele>81.8891</ele>
        <time>2020-09-27T14:25:29.277Z</time>
      </trkpt>
      <trkpt lat="64.78456" lon="20.92874">
        <ele>82.441694</ele>
        <time>2020-09-27T14:25:32.316Z</time>
      </trkpt>
      <trkpt lat="64.78449" lon="20.92859">
        <ele>82.977412</ele>
        <time>2020-09-27T14:25:35.281Z</time>
      </trkpt>
      <trkpt lat="64.78441" lon="20.92841">
        <ele>83.614516</ele>
        <time>2020-09-27T14:25:39.283Z</time>
      </trkpt>
      <trkpt lat="64.78434" lon="20.92824">
        <ele>84.162213</ele>
        <time>2020-09-27T14:25:43.344Z</time>
      </trkpt>
      <trkpt lat="64.78427" lon="20.92808">
        <ele>84.712191</ele>
        <time>2020-09-27T14:25:47.311Z</time>
      </trkpt>
      <trkpt lat="64.78419" lon="20.92793">
        <ele>85.259378</ele>
        <time>2020-09-27T14:25:51.293Z</time>
      </trkpt>
      <trkpt lat="64.78413" lon="20.92776">
        <ele>85.760551</ele>
        <time>2020-09-27T14:25:55.325Z</time>
      </trkpt>
      <trkpt lat="64.78406" lon="20.92758">
        <ele>86.355467</ele>
        <time>2020-09-27T14:26:00.307Z</time>
      </trkpt>
      <trkpt lat="64.784" lon="20.92743">
        <ele>86.861907</ele>
        <time>2020-09-27T14:26:05.286Z</time>
      </trkpt>
      <trkpt lat="64.78395" lon="20.92724">
        <ele>87.382294</ele>
        <time>2020-09-27T14:26:10.305Z</time>
      </trkpt>
      <trkpt lat="64.78389" lon="20.92707">
        <ele>87.897694</ele>
        <time>2020-09-27T14:26:15.285Z</time>
      </trkpt>
      <trkpt lat="64.78383" lon="20.92692">
        <ele>88.397586</ele>
        <time>2020-09-27T14:26:20.283Z</time>
      </trkpt>
      <trkpt lat="64.78376" lon="20.92674">
        <ele>88.961878</ele>
        <time>2020-09-27T14:26:26.336Z</time>
      </trkpt>
      <trkpt lat="64.78369" lon="20.92658">
        <ele>89.514199</ele>
        <time>2020-09-27T14:26:31.283Z</time>
      </trkpt>
      <trkpt lat="64.78362" lon="20.92643">
        <ele>90.011603</ele>
        <time>2020-09-27T14:26:35.311Z</time>
      </trkpt>
      <trkpt lat="64.78355" lon="20.92628">
        <ele>90.552629</ele>
        <time>2020-09-27T14:26:39.295Z</time>
      </trkpt>
      <trkpt lat="64.78347" lon="20.92613">
        <ele>91.104457</ele>
        <time>2020-09-27T14:26:43.286Z</time>
      </trkpt>
      <trkpt lat="64.7834" lon="20.92598">
        <ele>91.63228</ele>
        <time>2020-09-27T14:26:47.292Z</time>
      </trkpt>
      <trkpt lat="64.78332" lon="20.92587">
        <ele>91.459425</ele>
        <time>2020-09-27T14:26:51.310Z</time>
      </trkpt>
      <trkpt lat="64.78324" lon="20.92576">
        <ele>91.189122</ele>
        <time>2020-09-27T14:26:55.285Z</time>
      </trkpt>
      <trkpt lat="64.78316" lon="20.92566">
        <ele>90.913936</ele>
        <time>2020-09-27T14:26:59.290Z</time>
      </trkpt>
      <trkpt lat="64.78307" lon="20.92558">
        <ele>90.650291</ele>
        <time>2020-09-27T14:27:03.293Z</time>
      </trkpt>
      <trkpt lat="64.78298" lon="20.92551">
        <ele>90.36548</ele>
        <time>2020-09-27T14:27:07.309Z</time>
      </trkpt>
      <trkpt lat="64.78289" lon="20.92544">
        <ele>90.081948</ele>
        <time>2020-09-27T14:27:11.280Z</time>
      </trkpt>
      <trkpt lat="64.78278" lon="20.92538">
        <ele>89.749855</ele>
        <time>2020-09-27T14:27:15.328Z</time>
      </trkpt>
      <trkpt lat="64.78269" lon="20.92532">
        <ele>89.480092</ele>
        <time>2020-09-27T14:27:18.283Z</time>
      </trkpt>
      <trkpt lat="64.78259" lon="20.9253">
        <ele>89.19793</ele>
        <time>2020-09-27T14:27:21.277Z</time>
      </trkpt>
      <trkpt lat="64.78249" lon="20.92527">
        <ele>88.892869</ele>
        <time>2020-09-27T14:27:24.302Z</time>
      </trkpt>
      <trkpt lat="64.78239" lon="20.92524">
        <ele>88.601733</ele>
        <time>2020-09-27T14:27:27.309Z</time>
      </trkpt>
      <trkpt lat="64.78229" lon="20.9252">
        <ele>88.316061</ele>
        <time>2020-09-27T14:27:30.302Z</time>
      </trkpt>
      <trkpt lat="64.7822" lon="20.92518">
        <ele>88.045562</ele>
        <time>2020-09-27T14:27:33.286Z</time>
      </trkpt>
      <trkpt lat="64.78211" lon="20.92518">
        <ele>87.782069</ele>
        <time>2020-09-27T14:27:36.302Z</time>
      </trkpt>
      <trkpt lat="64.78201" lon="20.9252">
        <ele>87.479858</ele>
        <time>2020-09-27T14:27:39.295Z</time>
      </trkpt>
      <trkpt lat="64.7819" lon="20.92521">
        <ele>87.145954</ele>
        <time>2020-09-27T14:27:42.320Z</time>
      </trkpt>
      <trkpt lat="64.78178" lon="20.92521">
        <ele>86.80338</ele>
        <time>2020-09-27T14:27:45.312Z</time>
      </trkpt>
      <trkpt lat="64.78166" lon="20.92522">
        <ele>86.463493</ele>
        <time>2020-09-27T14:27:48.328Z</time>
      </trkpt>
      <trkpt lat="64.78155" lon="20.92523">
        <ele>86.395068</ele>
        <time>2020-09-27T14:27:51.287Z</time>
      </trkpt>
      <trkpt lat="64.78145" lon="20.92523">
        <ele>86.356146</ele>
        <time>2020-09-27T14:27:54.283Z</time>
      </trkpt>
      <trkpt lat="64.78134" lon="20.92521">
        <ele>86.316755</ele>
        <time>2020-09-27T14:27:57.295Z</time>
      </trkpt>
      <trkpt lat="64.78122" lon="20.92519">
        <ele>86.274789</ele>
        <time>2020-09-27T14:28:00.308Z</time>
      </trkpt>
      <trkpt lat="64.7811" lon="20.92514">
        <ele>86.230255</ele>
        <time>2020-09-27T14:28:03.294Z</time>
      </trkpt>
      <trkpt lat="64.78099" lon="20.92509">
        <ele>86.187413</ele>
        <time>2020-09-27T14:28:06.313Z</time>
      </trkpt>
      <trkpt lat="64.78087" lon="20.92504">
        <ele>86.144339</ele>
        <time>2020-09-27T14:28:09.276Z</time>
      </trkpt>
      <trkpt lat="64.78075" lon="20.92496">
        <ele>86.099009</ele>
        <time>2020-09-27T14:28:12.306Z</time>
      </trkpt>
      <trkpt lat="64.78063" lon="20.92487">
        <ele>86.054474</ele>
        <time>2020-09-27T14:28:15.295Z</time>
      </trkpt>
      <trkpt lat="64.78053" lon="20.92476">
        <ele>86.011896</ele>
        <time>2020-09-27T14:28:18.284Z</time>
      </trkpt>
      <trkpt lat="64.78042" lon="20.92464">
        <ele>85.968355</ele>
        <time>2020-09-27T14:28:21.317Z</time>
      </trkpt>
      <trkpt lat="64.78031" lon="20.9245">
        <ele>85.925351</ele>
        <time>2020-09-27T14:28:24.306Z</time>
      </trkpt>
      <trkpt lat="64.78022" lon="20.92436">
        <ele>85.882989</ele>
        <time>2020-09-27T14:28:27.294Z</time>
      </trkpt>
      <trkpt lat="64.78012" lon="20.92418">
        <ele>85.837723</ele>
        <time>2020-09-27T14:28:30.290Z</time>
      </trkpt>
      <trkpt lat="64.78002" lon="20.92401">
        <ele>85.793598</ele>
        <time>2020-09-27T14:28:33.306Z</time>
      </trkpt>
      <trkpt lat="64.77991" lon="20.92385">
        <ele>85.977095</ele>
        <time>2020-09-27T14:28:36.308Z</time>
      </trkpt>
      <trkpt lat="64.77981" lon="20.92367">
        <ele>86.261862</ele>
        <time>2020-09-27T14:28:39.323Z</time>
      </trkpt>
      <trkpt lat="64.77971" lon="20.9235">
        <ele>86.560188</ele>
        <time>2020-09-27T14:28:42.296Z</time>
      </trkpt>
      <trkpt lat="64.7796" lon="20.92333">
        <ele>86.865092</ele>
        <time>2020-09-27T14:28:45.293Z</time>
      </trkpt>
      <trkpt lat="64.77949" lon="20.92317">
        <ele>87.160146</ele>
        <time>2020-09-27T14:28:48.283Z</time>
      </trkpt>
      <trkpt lat="64.77939" lon="20.92303">
        <ele>87.444563</ele>
        <time>2020-09-27T14:28:51.295Z</time>
      </trkpt>
      <trkpt lat="64.77928" lon="20.92293">
        <ele>87.710949</ele>
        <time>2020-09-27T14:28:54.336Z</time>
      </trkpt>
      <trkpt lat="64.77918" lon="20.92282">
        <ele>87.979296</ele>
        <time>2020-09-27T14:28:57.356Z</time>
      </trkpt>
      <trkpt lat="64.77907" lon="20.92275">
        <ele>88.242006</ele>
        <time>2020-09-27T14:29:00.310Z</time>
      </trkpt>
      <trkpt lat="64.77896" lon="20.92272">
        <ele>88.503958</ele>
        <time>2020-09-27T14:29:03.296Z</time>
      </trkpt>
      <trkpt lat="64.77886" lon="20.92269">
        <ele>88.739736</ele>
        <time>2020-09-27T14:29:06.288Z</time>
      </trkpt>
      <trkpt lat="64.77876" lon="20.92268">
        <ele>88.971801</ele>
        <time>2020-09-27T14:29:09.286Z</time>
      </trkpt>
      <trkpt lat="64.77866" lon="20.92268">
        <ele>89.196699</ele>
        <time>2020-09-27T14:29:12.342Z</time>
      </trkpt>
      <trkpt lat="64.77857" lon="20.92269">
        <ele>89.417204</ele>
        <time>2020-09-27T14:29:15.286Z</time>
      </trkpt>
      <trkpt lat="64.77847" lon="20.92272">
        <ele>89.648447</ele>
        <time>2020-09-27T14:29:18.279Z</time>
      </trkpt>
      <trkpt lat="64.77837" lon="20.92274">
        <ele>89.890893</ele>
        <time>2020-09-27T14:29:21.304Z</time>
      </trkpt>
      <trkpt lat="64.77827" lon="20.9228">
        <ele>90.129423</ele>
        <time>2020-09-27T14:29:24.294Z</time>
      </trkpt>
      <trkpt lat="64.77819" lon="20.92286">
        <ele>90.361016</ele>
        <time>2020-09-27T14:29:27.305Z</time>
      </trkpt>
      <trkpt lat="64.7781" lon="20.92292">
        <ele>90.586244</ele>
        <time>2020-09-27T14:29:30.291Z</time>
      </trkpt>
      <trkpt lat="64.77801" lon="20.923">
        <ele>90.824941</ele>
        <time>2020-09-27T14:29:33.295Z</time>
      </trkpt>
      <trkpt lat="64.77792" lon="20.92307">
        <ele>91.060335</ele>
        <time>2020-09-27T14:29:36.288Z</time>
      </trkpt>
      <trkpt lat="64.77783" lon="20.92314">
        <ele>91.300735</ele>
        <time>2020-09-27T14:29:39.310Z</time>
      </trkpt>
      <trkpt lat="64.77774" lon="20.92322">
        <ele>91.537764</ele>
        <time>2020-09-27T14:29:42.290Z</time>
      </trkpt>
      <trkpt lat="64.77765" lon="20.92328">
        <ele>91.775638</ele>
        <time>2020-09-27T14:29:45.290Z</time>
      </trkpt>
      <trkpt lat="64.77756" lon="20.92334">
        <ele>92.009312</ele>
        <time>2020-09-27T14:29:48.288Z</time>
      </trkpt>
      <trkpt lat="64.77747" lon="20.92342">
        <ele>92.253256</ele>
        <time>2020-09-27T14:29:51.303Z</time>
      </trkpt>
      <trkpt lat="64.77738" lon="20.9235">
        <ele>92.503191</ele>
        <time>2020-09-27T14:29:54.283Z</time>
      </trkpt>
      <trkpt lat="64.77728" lon="20.92356">
        <ele>92.765816</ele>
        <time>2020-09-27T14:29:57.305Z</time>
      </trkpt>
      <trkpt lat="64.77718" lon="20.92364">
        <ele>93.021209</ele>
        <time>2020-09-27T14:30:00.313Z</time>
      </trkpt>
      <trkpt lat="64.77708" lon="20.92369">
        <ele>93.283465</ele>
        <time>2020-09-27T14:30:03.294Z</time>
      </trkpt>
      <trkpt lat="64.77698" lon="20.92373">
        <ele>93.540959</ele>
        <time>2020-09-27T14:30:06.287Z</time>
      </trkpt>
      <trkpt lat="64.77687" lon="20.92376">
        <ele>93.796949</ele>
        <time>2020-09-27T14:30:09.288Z</time>
      </trkpt>
      <trkpt lat="64.77678" lon="20.92379">
        <ele>94.042158</ele>
        <time>2020-09-27T14:30:12.321Z</time>
      </trkpt>
      <trkpt lat="64.77668" lon="20.92381">
        <ele>94.281798</ele>
        <time>2020-09-27T14:30:15.294Z</time>
      </trkpt>
      <trkpt lat="64.77658" lon="20.92383">
        <ele>94.503098</ele>
        <time>2020-09-27T14:30:18.312Z</time>
      </trkpt>
      <trkpt lat="64.77648" lon="20.92382">
        <ele>94.479621</ele>
        <time>2020-09-27T14:30:21.289Z</time>
      </trkpt>
      <trkpt lat="64.77636" lon="20.92381">
        <ele>94.454584</ele>
        <time>2020-09-27T14:30:24.305Z</time>
      </trkpt>
      <trkpt lat="64.77625" lon="20.92378">
        <ele>94.429484</ele>
        <time>2020-09-27T14:30:27.332Z</time>
      </trkpt>
      <trkpt lat="64.77613" lon="20.92374">
        <ele>94.403167</ele>
        <time>2020-09-27T14:30:30.305Z</time>
      </trkpt>
      <trkpt lat="64.77601" lon="20.92369">
        <ele>94.377447</ele>
        <time>2020-09-27T14:30:33.286Z</time>
      </trkpt>
      <trkpt lat="64.77589" lon="20.92362">
        <ele>94.350107</ele>
        <time>2020-09-27T14:30:36.297Z</time>
      </trkpt>
      <trkpt lat="64.77576" lon="20.92353">
        <ele>94.321353</ele>
        <time>2020-09-27T14:30:39.298Z</time>
      </trkpt>
      <trkpt lat="64.77564" lon="20.92342">
        <ele>94.293143</ele>
        <time>2020-09-27T14:30:42.286Z</time>
      </trkpt>
      <trkpt lat="64.77556" lon="20.92334">
        <ele>94.273607</ele>
        <time>2020-09-27T14:30:44.322Z</time>
      </trkpt>
      <trkpt lat="64.77544" lon="20.92322">
        <ele>94.245035</ele>
        <time>2020-09-27T14:30:47.284Z</time>
      </trkpt>
      <trkpt lat="64.77532" lon="20.92309">
        <ele>94.217406</ele>
        <time>2020-09-27T14:30:50.324Z</time>
      </trkpt>
      <trkpt lat="64.77521" lon="20.92293">
        <ele>94.188912</ele>
        <time>2020-09-27T14:30:53.292Z</time>
      </trkpt>
      <trkpt lat="64.77511" lon="20.92276">
        <ele>94.162605</ele>
        <time>2020-09-27T14:30:56.301Z</time>
      </trkpt>
      <trkpt lat="64.77501" lon="20.92261">
        <ele>94.136078</ele>
        <time>2020-09-27T14:30:59.305Z</time>
      </trkpt>
      <trkpt lat="64.7749" lon="20.92243">
        <ele>94.052456</ele>
        <time>2020-09-27T14:31:02.297Z</time>
      </trkpt>
      <trkpt lat="64.77483" lon="20.9223">
        <ele>93.878056</ele>
        <time>2020-09-27T14:31:04.298Z</time>
      </trkpt>
      <trkpt lat="64.77476" lon="20.92215">
        <ele>93.693513</ele>
        <time>2020-09-27T14:31:06.302Z</time>
      </trkpt>
      <trkpt lat="64.77468" lon="20.92201">
        <ele>93.50394</ele>
        <time>2020-09-27T14:31:08.304Z</time>
      </trkpt>
      <trkpt lat="64.77461" lon="20.92187">
        <ele>93.321973</ele>
        <time>2020-09-27T14:31:10.296Z</time>
      </trkpt>
      <trkpt lat="64.77453" lon="20.92174">
        <ele>93.132333</ele>
        <time>2020-09-27T14:31:12.339Z</time>
      </trkpt>
      <trkpt lat="64.77444" lon="20.9216">
        <ele>92.936706</ele>
        <time>2020-09-27T14:31:14.311Z</time>
      </trkpt>
      <trkpt lat="64.77436" lon="20.92147">
        <ele>92.745024</ele>
        <time>2020-09-27T14:31:16.341Z</time>
      </trkpt>
      <trkpt lat="64.77428" lon="20.92133">
        <ele>92.553827</ele>
        <time>2020-09-27T14:31:18.297Z</time>
      </trkpt>
      <trkpt lat="64.7742" lon="20.92119">
        <ele>92.360177</ele>
        <time>2020-09-27T14:31:20.302Z</time>
      </trkpt>
      <trkpt lat="64.77412" lon="20.92104">
        <ele>92.167057</ele>
        <time>2020-09-27T14:31:22.294Z</time>
      </trkpt>
      <trkpt lat="64.77404" lon="20.92091">
        <ele>91.970969</ele>
        <time>2020-09-27T14:31:24.283Z</time>
      </trkpt>
      <trkpt lat="64.77396" lon="20.92077">
        <ele>91.775775</ele>
        <time>2020-09-27T14:31:26.295Z</time>
      </trkpt>
      <trkpt lat="64.77388" lon="20.92063">
        <ele>91.591756</ele>
        <time>2020-09-27T14:31:28.282Z</time>
      </trkpt>
      <trkpt lat="64.77381" lon="20.92051">
        <ele>91.410058</ele>
        <time>2020-09-27T14:31:30.285Z</time>
      </trkpt>
      <trkpt lat="64.77373" lon="20.92038">
        <ele>91.232754</ele>
        <time>2020-09-27T14:31:32.292Z</time>
      </trkpt>
      <trkpt lat="64.77366" lon="20.92025">
        <ele>91.054316</ele>
        <time>2020-09-27T14:31:34.310Z</time>
      </trkpt>
      <trkpt lat="64.77359" lon="20.92011">
        <ele>90.876393</ele>
        <time>2020-09-27T14:31:36.322Z</time>
      </trkpt>
      <trkpt lat="64.77351" lon="20.91998">
        <ele>90.690587</ele>
        <time>2020-09-27T14:31:38.314Z</time>
      </trkpt>
      <trkpt lat="64.77343" lon="20.91985">
        <ele>90.647434</ele>
        <time>2020-09-27T14:31:40.305Z</time>
      </trkpt>
      <trkpt lat="64.77335" lon="20.91972">
        <ele>90.655063</ele>
        <time>2020-09-27T14:31:42.324Z</time>
      </trkpt>
      <trkpt lat="64.77326" lon="20.91959">
        <ele>90.662896</ele>
        <time>2020-09-27T14:31:44.285Z</time>
      </trkpt>
      <trkpt lat="64.77318" lon="20.91947">
        <ele>90.670724</ele>
        <time>2020-09-27T14:31:46.298Z</time>
      </trkpt>
      <trkpt lat="64.7731" lon="20.91935">
        <ele>90.677952</ele>
        <time>2020-09-27T14:31:48.325Z</time>
      </trkpt>
      <trkpt lat="64.77299" lon="20.91918">
        <ele>90.688075</ele>
        <time>2020-09-27T14:31:51.312Z</time>
      </trkpt>
      <trkpt lat="64.77288" lon="20.91902">
        <ele>90.69848</ele>
        <time>2020-09-27T14:31:54.320Z</time>
      </trkpt>
      <trkpt lat="64.77276" lon="20.91886">
        <ele>90.708731</ele>
        <time>2020-09-27T14:31:57.294Z</time>
      </trkpt>
      <trkpt lat="64.77265" lon="20.9187">
        <ele>90.718999</ele>
        <time>2020-09-27T14:32:00.289Z</time>
      </trkpt>
      <trkpt lat="64.77253" lon="20.91855">
        <ele>90.729387</ele>
        <time>2020-09-27T14:32:03.313Z</time>
      </trkpt>
      <trkpt lat="64.77245" lon="20.91844">
        <ele>90.73643</ele>
        <time>2020-09-27T14:32:05.290Z</time>
      </trkpt>
      <trkpt lat="64.77237" lon="20.91832">
        <ele>90.743822</ele>
        <time>2020-09-27T14:32:07.322Z</time>
      </trkpt>
      <trkpt lat="64.77228" lon="20.91821">
        <ele>90.751593</ele>
        <time>2020-09-27T14:32:09.286Z</time>
      </trkpt>
      <trkpt lat="64.77219" lon="20.91811">
        <ele>90.7594</ele>
        <time>2020-09-27T14:32:11.284Z</time>
      </trkpt>
      <trkpt lat="64.77209" lon="20.91799">
        <ele>90.768359</ele>
        <time>2020-09-27T14:32:13.289Z</time>
      </trkpt>
      <trkpt lat="64.77198" lon="20.91787">
        <ele>90.777421</ele>
        <time>2020-09-27T14:32:15.278Z</time>
      </trkpt>
      <trkpt lat="64.77188" lon="20.91774">
        <ele>90.631361</ele>
        <time>2020-09-27T14:32:17.315Z</time>
      </trkpt>
      <trkpt lat="64.77176" lon="20.91761">
        <ele>90.354488</ele>
        <time>2020-09-27T14:32:19.305Z</time>
      </trkpt>
      <trkpt lat="64.77163" lon="20.91746">
        <ele>90.049574</ele>
        <time>2020-09-27T14:32:21.307Z</time>
      </trkpt>
      <trkpt lat="64.77151" lon="20.91732">
        <ele>89.745319</ele>
        <time>2020-09-27T14:32:23.313Z</time>
      </trkpt>
      <trkpt lat="64.77136" lon="20.91717">
        <ele>89.405078</ele>
        <time>2020-09-27T14:32:25.305Z</time>
      </trkpt>
      <trkpt lat="64.77121" lon="20.917">
        <ele>89.037293</ele>
        <time>2020-09-27T14:32:27.299Z</time>
      </trkpt>
      <trkpt lat="64.77105" lon="20.9168">
        <ele>88.647233</ele>
        <time>2020-09-27T14:32:29.271Z</time>
      </trkpt>
      <trkpt lat="64.77096" lon="20.91669">
        <ele>88.437056</ele>
        <time>2020-09-27T14:32:30.320Z</time>
      </trkpt>
      <trkpt lat="64.77088" lon="20.91655">
        <ele>88.215933</ele>
        <time>2020-09-27T14:32:31.303Z</time>
      </trkpt>
      <trkpt lat="64.7708" lon="20.91639">
        <ele>87.985824</ele>
        <time>2020-09-27T14:32:32.297Z</time>
      </trkpt>
      <trkpt lat="64.77072" lon="20.9162">
        <ele>87.745349</ele>
        <time>2020-09-27T14:32:33.376Z</time>
      </trkpt>
      <trkpt lat="64.77064" lon="20.91599">
        <ele>87.488533</ele>
        <time>2020-09-27T14:32:34.333Z</time>
      </trkpt>
      <trkpt lat="64.77056" lon="20.91577">
        <ele>87.230328</ele>
        <time>2020-09-27T14:32:35.289Z</time>
      </trkpt>
      <trkpt lat="64.77049" lon="20.91555">
        <ele>86.975784</ele>
        <time>2020-09-27T14:32:36.314Z</time>
      </trkpt>
      <trkpt lat="64.77043" lon="20.91532">
        <ele>86.362925</ele>
        <time>2020-09-27T14:32:37.291Z</time>
      </trkpt>
      <trkpt lat="64.77036" lon="20.91509">
        <ele>85.595145</ele>
        <time>2020-09-27T14:32:38.284Z</time>
      </trkpt>
      <trkpt lat="64.77031" lon="20.91485">
        <ele>84.859374</ele>
        <time>2020-09-27T14:32:39.289Z</time>
      </trkpt>
      <trkpt lat="64.77026" lon="20.91461">
        <ele>84.142306</ele>
        <time>2020-09-27T14:32:40.312Z</time>
      </trkpt>
      <trkpt lat="64.77022" lon="20.91437">
        <ele>83.434828</ele>
        <time>2020-09-27T14:32:41.313Z</time>
      </trkpt>
      <trkpt lat="64.77019" lon="20.91413">
        <ele>82.727035</ele>
        <time>2020-09-27T14:32:42.294Z</time>
      </trkpt>
      <trkpt lat="64.77015" lon="20.91388">
        <ele>81.987759</ele>
        <time>2020-09-27T14:32:43.314Z</time>
      </trkpt>
      <trkpt lat="64.77011" lon="20.91362">
        <ele>81.226559</ele>
        <time>2020-09-27T14:32:44.280Z</time>
      </trkpt>
      <trkpt lat="64.77006" lon="20.91335">
        <ele>80.4284</ele>
        <time>2020-09-27T14:32:45.331Z</time>
      </trkpt>
      <trkpt lat="64.76999" lon="20.91309">
        <ele>79.611518</ele>
        <time>2020-09-27T14:32:46.294Z</time>
      </trkpt>
      <trkpt lat="64.76993" lon="20.91284">
        <ele>78.800789</ele>
        <time>2020-09-27T14:32:47.292Z</time>
      </trkpt>
      <trkpt lat="64.76986" lon="20.9126">
        <ele>78.001902</ele>
        <time>2020-09-27T14:32:48.290Z</time>
      </trkpt>
      <trkpt lat="64.76979" lon="20.91236">
        <ele>77.220999</ele>
        <time>2020-09-27T14:32:49.306Z</time>
      </trkpt>
      <trkpt lat="64.76973" lon="20.91213">
        <ele>76.46005</ele>
        <time>2020-09-27T14:32:50.321Z</time>
      </trkpt>
      <trkpt lat="64.76966" lon="20.9119">
        <ele>75.696339</ele>
        <time>2020-09-27T14:32:51.307Z</time>
      </trkpt>
      <trkpt lat="64.76959" lon="20.91168">
        <ele>74.818127</ele>
        <time>2020-09-27T14:32:52.329Z</time>
      </trkpt>
      <trkpt lat="64.76953" lon="20.91147">
        <ele>73.817087</ele>
        <time>2020-09-27T14:32:53.290Z</time>
      </trkpt>
      <trkpt lat="64.76946" lon="20.91126">
        <ele>72.832654</ele>
        <time>2020-09-27T14:32:54.314Z</time>
      </trkpt>
      <trkpt lat="64.76939" lon="20.91106">
        <ele>71.831826</ele>
        <time>2020-09-27T14:32:55.321Z</time>
      </trkpt>
      <trkpt lat="64.76932" lon="20.91085">
        <ele>70.820255</ele>
        <time>2020-09-27T14:32:56.281Z</time>
      </trkpt>
      <trkpt lat="64.76925" lon="20.91062">
        <ele>69.785144</ele>
        <time>2020-09-27T14:32:57.284Z</time>
      </trkpt>
      <trkpt lat="64.76919" lon="20.91039">
        <ele>68.742463</ele>
        <time>2020-09-27T14:32:58.274Z</time>
      </trkpt>
      <trkpt lat="64.76912" lon="20.91017">
        <ele>67.729899</ele>
        <time>2020-09-27T14:32:59.302Z</time>
      </trkpt>
      <trkpt lat="64.76907" lon="20.90996">
        <ele>66.783175</ele>
        <time>2020-09-27T14:33:00.326Z</time>
      </trkpt>
      <trkpt lat="64.76901" lon="20.90975">
        <ele>65.864778</ele>
        <time>2020-09-27T14:33:01.289Z</time>
      </trkpt>
      <trkpt lat="64.76896" lon="20.90955">
        <ele>64.958658</ele>
        <time>2020-09-27T14:33:02.291Z</time>
      </trkpt>
      <trkpt lat="64.76891" lon="20.90934">
        <ele>64.041517</ele>
        <time>2020-09-27T14:33:03.294Z</time>
      </trkpt>
      <trkpt lat="64.76886" lon="20.90914">
        <ele>63.144279</ele>
        <time>2020-09-27T14:33:04.283Z</time>
      </trkpt>
      <trkpt lat="64.7688" lon="20.90894">
        <ele>62.25442</ele>
        <time>2020-09-27T14:33:05.293Z</time>
      </trkpt>
      <trkpt lat="64.76874" lon="20.90876">
        <ele>61.362001</ele>
        <time>2020-09-27T14:33:06.311Z</time>
      </trkpt>
      <trkpt lat="64.76867" lon="20.90857">
        <ele>60.424652</ele>
        <time>2020-09-27T14:33:07.286Z</time>
      </trkpt>
      <trkpt lat="64.76859" lon="20.90838">
        <ele>59.426847</ele>
        <time>2020-09-27T14:33:08.294Z</time>
      </trkpt>
      <trkpt lat="64.76851" lon="20.90819">
        <ele>58.609393</ele>
        <time>2020-09-27T14:33:09.304Z</time>
      </trkpt>
      <trkpt lat="64.76841" lon="20.90801">
        <ele>57.778346</ele>
        <time>2020-09-27T14:33:10.307Z</time>
      </trkpt>
      <trkpt lat="64.76832" lon="20.90782">
        <ele>56.942121</ele>
        <time>2020-09-27T14:33:11.295Z</time>
      </trkpt>
      <trkpt lat="64.76822" lon="20.90763">
        <ele>56.112476</ele>
        <time>2020-09-27T14:33:12.290Z</time>
      </trkpt>
      <trkpt lat="64.76813" lon="20.90745">
        <ele>55.312682</ele>
        <time>2020-09-27T14:33:13.289Z</time>
      </trkpt>
      <trkpt lat="64.76805" lon="20.90727">
        <ele>54.531878</ele>
        <time>2020-09-27T14:33:14.319Z</time>
      </trkpt>
      <trkpt lat="64.76796" lon="20.90709">
        <ele>53.764967</ele>
        <time>2020-09-27T14:33:15.302Z</time>
      </trkpt>
      <trkpt lat="64.76788" lon="20.90692">
        <ele>53.003839</ele>
        <time>2020-09-27T14:33:16.325Z</time>
      </trkpt>
      <trkpt lat="64.7678" lon="20.90674">
        <ele>52.255415</ele>
        <time>2020-09-27T14:33:17.283Z</time>
      </trkpt>
      <trkpt lat="64.76771" lon="20.90658">
        <ele>51.520186</ele>
        <time>2020-09-27T14:33:18.287Z</time>
      </trkpt>
      <trkpt lat="64.76763" lon="20.90642">
        <ele>50.810112</ele>
        <time>2020-09-27T14:33:19.290Z</time>
      </trkpt>
      <trkpt lat="64.76755" lon="20.90627">
        <ele>50.109159</ele>
        <time>2020-09-27T14:33:20.296Z</time>
      </trkpt>
      <trkpt lat="64.76747" lon="20.90613">
        <ele>49.421649</ele>
        <time>2020-09-27T14:33:21.333Z</time>
      </trkpt>
      <trkpt lat="64.76738" lon="20.90601">
        <ele>48.737947</ele>
        <time>2020-09-27T14:33:22.301Z</time>
      </trkpt>
      <trkpt lat="64.76729" lon="20.9059">
        <ele>48.066776</ele>
        <time>2020-09-27T14:33:23.295Z</time>
      </trkpt>
      <trkpt lat="64.76721" lon="20.90581">
        <ele>47.408346</ele>
        <time>2020-09-27T14:33:24.309Z</time>
      </trkpt>
      <trkpt lat="64.76711" lon="20.90573">
        <ele>46.966153</ele>
        <time>2020-09-27T14:33:25.302Z</time>
      </trkpt>
      <trkpt lat="64.76702" lon="20.90566">
        <ele>46.64731</ele>
        <time>2020-09-27T14:33:26.348Z</time>
      </trkpt>
      <trkpt lat="64.76692" lon="20.90562">
        <ele>46.32497</ele>
        <time>2020-09-27T14:33:27.308Z</time>
      </trkpt>
      <trkpt lat="64.76683" lon="20.90559">
        <ele>45.999266</ele>
        <time>2020-09-27T14:33:28.307Z</time>
      </trkpt>
      <trkpt lat="64.76673" lon="20.90557">
        <ele>45.682205</ele>
        <time>2020-09-27T14:33:29.297Z</time>
      </trkpt>
      <trkpt lat="64.76663" lon="20.90556">
        <ele>45.366373</ele>
        <time>2020-09-27T14:33:30.311Z</time>
      </trkpt>
      <trkpt lat="64.76654" lon="20.90557">
        <ele>45.04367</ele>
        <time>2020-09-27T14:33:31.292Z</time>
      </trkpt>
      <trkpt lat="64.76644" lon="20.90559">
        <ele>44.720492</ele>
        <time>2020-09-27T14:33:32.317Z</time>
      </trkpt>
      <trkpt lat="64.76634" lon="20.90561">
        <ele>44.396876</ele>
        <time>2020-09-27T14:33:33.285Z</time>
      </trkpt>
      <trkpt lat="64.76624" lon="20.90563">
        <ele>44.079414</ele>
        <time>2020-09-27T14:33:34.320Z</time>
      </trkpt>
      <trkpt lat="64.76615" lon="20.90566">
        <ele>43.758385</ele>
        <time>2020-09-27T14:33:35.279Z</time>
      </trkpt>
      <trkpt lat="64.76606" lon="20.9057">
        <ele>43.454309</ele>
        <time>2020-09-27T14:33:36.291Z</time>
      </trkpt>
      <trkpt lat="64.76597" lon="20.90574">
        <ele>43.152961</ele>
        <time>2020-09-27T14:33:37.314Z</time>
      </trkpt>
      <trkpt lat="64.76579" lon="20.90581">
        <ele>42.566948</ele>
        <time>2020-09-27T14:33:39.275Z</time>
      </trkpt>
      <trkpt lat="64.76563" lon="20.9059">
        <ele>42.00613</ele>
        <time>2020-09-27T14:33:41.286Z</time>
      </trkpt>
      <trkpt lat="64.76547" lon="20.906">
        <ele>41.46848</ele>
        <time>2020-09-27T14:33:43.345Z</time>
      </trkpt>
      <trkpt lat="64.76532" lon="20.90611">
        <ele>41.123526</ele>
        <time>2020-09-27T14:33:45.303Z</time>
      </trkpt>
      <trkpt lat="64.76517" lon="20.90623">
        <ele>40.901531</ele>
        <time>2020-09-27T14:33:47.323Z</time>
      </trkpt>
      <trkpt lat="64.76503" lon="20.90636">
        <ele>40.68253</ele>
        <time>2020-09-27T14:33:49.296Z</time>
      </trkpt>
      <trkpt lat="64.76489" lon="20.90649">
        <ele>40.473078</ele>
        <time>2020-09-27T14:33:51.301Z</time>
      </trkpt>
      <trkpt lat="64.76476" lon="20.90664">
        <ele>40.269023</ele>
        <time>2020-09-27T14:33:53.350Z</time>
      </trkpt>
      <trkpt lat="64.76464" lon="20.90678">
        <ele>40.067583</ele>
        <time>2020-09-27T14:33:55.302Z</time>
      </trkpt>
      <trkpt lat="64.76452" lon="20.90692">
        <ele>39.872866</ele>
        <time>2020-09-27T14:33:57.314Z</time>
      </trkpt>
      <trkpt lat="64.7644" lon="20.90706">
        <ele>39.687525</ele>
        <time>2020-09-27T14:33:59.317Z</time>
      </trkpt>
      <trkpt lat="64.76429" lon="20.90721">
        <ele>39.5048</ele>
        <time>2020-09-27T14:34:01.305Z</time>
      </trkpt>
      <trkpt lat="64.76419" lon="20.90737">
        <ele>39.328879</ele>
        <time>2020-09-27T14:34:03.277Z</time>
      </trkpt>
      <trkpt lat="64.7641" lon="20.90758">
        <ele>39.151777</ele>
        <time>2020-09-27T14:34:05.312Z</time>
      </trkpt>
      <trkpt lat="64.76406" lon="20.90786">
        <ele>38.968982</ele>
        <time>2020-09-27T14:34:07.310Z</time>
      </trkpt>
      <trkpt lat="64.76409" lon="20.90814">
        <ele>38.785536</ele>
        <time>2020-09-27T14:34:09.306Z</time>
      </trkpt>
      <trkpt lat="64.76419" lon="20.90836">
        <ele>38.643081</ele>
        <time>2020-09-27T14:34:11.303Z</time>
      </trkpt>
      <trkpt lat="64.76426" lon="20.90852">
        <ele>38.578612</ele>
        <time>2020-09-27T14:34:13.342Z</time>
      </trkpt>
      <trkpt lat="64.76424" lon="20.90874">
        <ele>38.51506</ele>
        <time>2020-09-27T14:34:17.295Z</time>
      </trkpt>
      <trkpt lat="64.76415" lon="20.90893">
        <ele>38.438989</ele>
        <time>2020-09-27T14:34:22.318Z</time>
      </trkpt>
      <trkpt lat="64.76406" lon="20.9091">
        <ele>38.367454</ele>
        <time>2020-09-27T14:34:25.292Z</time>
      </trkpt>
      <trkpt lat="64.76398" lon="20.90927">
        <ele>38.293923</ele>
        <time>2020-09-27T14:34:28.313Z</time>
      </trkpt>
      <trkpt lat="64.76389" lon="20.90949">
        <ele>38.21082</ele>
        <time>2020-09-27T14:34:31.309Z</time>
      </trkpt>
      <trkpt lat="64.76383" lon="20.90966">
        <ele>38.152292</ele>
        <time>2020-09-27T14:34:33.287Z</time>
      </trkpt>
      <trkpt lat="64.76375" lon="20.90989">
        <ele>38.071783</ele>
        <time>2020-09-27T14:34:36.309Z</time>
      </trkpt>
      <trkpt lat="64.76367" lon="20.9101">
        <ele>37.993405</ele>
        <time>2020-09-27T14:34:39.319Z</time>
      </trkpt>
      <trkpt lat="64.76359" lon="20.91031">
        <ele>37.914604</ele>
        <time>2020-09-27T14:34:42.293Z</time>
      </trkpt>
      <trkpt lat="64.7635" lon="20.91051">
        <ele>37.83658</ele>
        <time>2020-09-27T14:34:45.309Z</time>
      </trkpt>
      <trkpt lat="64.76341" lon="20.91072">
        <ele>37.755505</ele>
        <time>2020-09-27T14:34:48.310Z</time>
      </trkpt>
      <trkpt lat="64.76333" lon="20.91092">
        <ele>37.680329</ele>
        <time>2020-09-27T14:34:51.287Z</time>
      </trkpt>
      <trkpt lat="64.76327" lon="20.91111">
        <ele>37.613602</ele>
        <time>2020-09-27T14:34:54.301Z</time>
      </trkpt>
      <trkpt lat="64.76323" lon="20.91131">
        <ele>37.551831</ele>
        <time>2020-09-27T14:34:58.285Z</time>
      </trkpt>
      <trkpt lat="64.76311" lon="20.9114">
        <ele>37.578259</ele>
        <time>2020-09-27T14:35:03.282Z</time>
      </trkpt>
      <trkpt lat="64.76301" lon="20.91151">
        <ele>37.667832</ele>
        <time>2020-09-27T14:35:06.295Z</time>
      </trkpt>
      <trkpt lat="64.76292" lon="20.91167">
        <ele>37.756105</ele>
        <time>2020-09-27T14:35:09.288Z</time>
      </trkpt>
      <trkpt lat="64.76282" lon="20.91182">
        <ele>37.845842</ele>
        <time>2020-09-27T14:35:12.305Z</time>
      </trkpt>
      <trkpt lat="64.76273" lon="20.91198">
        <ele>37.934115</ele>
        <time>2020-09-27T14:35:15.286Z</time>
      </trkpt>
      <trkpt lat="64.76264" lon="20.91215">
        <ele>38.024843</ele>
        <time>2020-09-27T14:35:18.324Z</time>
      </trkpt>
      <trkpt lat="64.76256" lon="20.91232">
        <ele>38.113156</ele>
        <time>2020-09-27T14:35:21.282Z</time>
      </trkpt>
      <trkpt lat="64.76246" lon="20.91246">
        <ele>38.205826</ele>
        <time>2020-09-27T14:35:24.301Z</time>
      </trkpt>
      <trkpt lat="64.76236" lon="20.91263">
        <ele>38.302218</ele>
        <time>2020-09-27T14:35:27.282Z</time>
      </trkpt>
      <trkpt lat="64.76225" lon="20.9128">
        <ele>38.40189</ele>
        <time>2020-09-27T14:35:30.323Z</time>
      </trkpt>
      <trkpt lat="64.76215" lon="20.91297">
        <ele>38.498618</ele>
        <time>2020-09-27T14:35:33.312Z</time>
      </trkpt>
      <trkpt lat="64.76205" lon="20.91312">
        <ele>38.593483</ele>
        <time>2020-09-27T14:35:36.293Z</time>
      </trkpt>
      <trkpt lat="64.76196" lon="20.91328">
        <ele>38.681129</ele>
        <time>2020-09-27T14:35:39.278Z</time>
      </trkpt>
      <trkpt lat="64.76188" lon="20.91343">
        <ele>38.766945</ele>
        <time>2020-09-27T14:35:42.331Z</time>
      </trkpt>
      <trkpt lat="64.76179" lon="20.91355">
        <ele>38.844513</ele>
        <time>2020-09-27T14:35:45.300Z</time>
      </trkpt>
      <trkpt lat="64.7617" lon="20.91373">
        <ele>38.934781</ele>
        <time>2020-09-27T14:35:49.320Z</time>
      </trkpt>
      <trkpt lat="64.76162" lon="20.9139">
        <ele>38.968743</ele>
        <time>2020-09-27T14:35:52.300Z</time>
      </trkpt>
      <trkpt lat="64.76152" lon="20.91409">
        <ele>39.008769</ele>
        <time>2020-09-27T14:35:55.294Z</time>
      </trkpt>
      <trkpt lat="64.76142" lon="20.91427">
        <ele>39.049037</ele>
        <time>2020-09-27T14:35:58.311Z</time>
      </trkpt>
      <trkpt lat="64.76132" lon="20.91446">
        <ele>39.089305</ele>
        <time>2020-09-27T14:36:01.302Z</time>
      </trkpt>
      <trkpt lat="64.76123" lon="20.91465">
        <ele>39.127735</ele>
        <time>2020-09-27T14:36:04.281Z</time>
      </trkpt>
      <trkpt lat="64.76114" lon="20.91483">
        <ele>39.163218</ele>
        <time>2020-09-27T14:36:07.281Z</time>
      </trkpt>
      <trkpt lat="64.76107" lon="20.91498">
        <ele>39.19469</ele>
        <time>2020-09-27T14:36:10.280Z</time>
      </trkpt>
      <trkpt lat="64.76099" lon="20.91514">
        <ele>39.22682</ele>
        <time>2020-09-27T14:36:13.315Z</time>
      </trkpt>
      <trkpt lat="64.76093" lon="20.91533">
        <ele>39.259748</ele>
        <time>2020-09-27T14:36:17.285Z</time>
      </trkpt>
      <trkpt lat="64.7609" lon="20.91553">
        <ele>39.288305</ele>
        <time>2020-09-27T14:36:22.295Z</time>
      </trkpt>
      <trkpt lat="64.76086" lon="20.91573">
        <ele>39.317886</ele>
        <time>2020-09-27T14:36:25.288Z</time>
      </trkpt>
      <trkpt lat="64.76081" lon="20.91595">
        <ele>39.350758</ele>
        <time>2020-09-27T14:36:28.309Z</time>
      </trkpt>
      <trkpt lat="64.76077" lon="20.91617">
        <ele>39.382802</ele>
        <time>2020-09-27T14:36:31.303Z</time>
      </trkpt>
      <trkpt lat="64.76073" lon="20.9164">
        <ele>39.416573</ele>
        <time>2020-09-27T14:36:34.283Z</time>
      </trkpt>
      <trkpt lat="64.76068" lon="20.91664">
        <ele>39.451583</ele>
        <time>2020-09-27T14:36:37.287Z</time>
      </trkpt>
      <trkpt lat="64.76064" lon="20.91688">
        <ele>39.487202</ele>
        <time>2020-09-27T14:36:40.336Z</time>
      </trkpt>
      <trkpt lat="64.76058" lon="20.91713">
        <ele>39.540199</ele>
        <time>2020-09-27T14:36:43.321Z</time>
      </trkpt>
      <trkpt lat="64.76053" lon="20.91737">
        <ele>39.601744</ele>
        <time>2020-09-27T14:36:46.311Z</time>
      </trkpt>
      <trkpt lat="64.76048" lon="20.91759">
        <ele>39.655921</ele>
        <time>2020-09-27T14:36:49.309Z</time>
      </trkpt>
      <trkpt lat="64.76043" lon="20.91782">
        <ele>39.713101</ele>
        <time>2020-09-27T14:36:52.318Z</time>
      </trkpt>
      <trkpt lat="64.76036" lon="20.91806">
        <ele>39.77677</ele>
        <time>2020-09-27T14:36:55.309Z</time>
      </trkpt>
      <trkpt lat="64.76031" lon="20.91834">
        <ele>39.843985</ele>
        <time>2020-09-27T14:36:58.294Z</time>
      </trkpt>
      <trkpt lat="64.76025" lon="20.91859">
        <ele>39.909245</ele>
        <time>2020-09-27T14:37:01.285Z</time>
      </trkpt>
      <trkpt lat="64.76019" lon="20.91886">
        <ele>39.974998</ele>
        <time>2020-09-27T14:37:04.286Z</time>
      </trkpt>
      <trkpt lat="64.76014" lon="20.91912">
        <ele>40.038493</ele>
        <time>2020-09-27T14:37:07.307Z</time>
      </trkpt>
      <trkpt lat="64.76007" lon="20.91938">
        <ele>40.105481</ele>
        <time>2020-09-27T14:37:10.328Z</time>
      </trkpt>
      <trkpt lat="64.76002" lon="20.91965">
        <ele>40.17193</ele>
        <time>2020-09-27T14:37:13.283Z</time>
      </trkpt>
      <trkpt lat="64.75996" lon="20.9199">
        <ele>40.233865</ele>
        <time>2020-09-27T14:37:16.302Z</time>
      </trkpt>
      <trkpt lat="64.7599" lon="20.92014">
        <ele>40.296302</ele>
        <time>2020-09-27T14:37:19.310Z</time>
      </trkpt>
      <trkpt lat="64.75985" lon="20.92041">
        <ele>40.361076</ele>
        <time>2020-09-27T14:37:22.307Z</time>
      </trkpt>
      <trkpt lat="64.75978" lon="20.92069">
        <ele>40.43116</ele>
        <time>2020-09-27T14:37:25.315Z</time>
      </trkpt>
      <trkpt lat="64.75974" lon="20.92088">
        <ele>40.598675</ele>
        <time>2020-09-27T14:37:27.309Z</time>
      </trkpt>
      <trkpt lat="64.75969" lon="20.92117">
        <ele>40.844924</ele>
        <time>2020-09-27T14:37:30.301Z</time>
      </trkpt>
      <trkpt lat="64.75965" lon="20.92136">
        <ele>41.019165</ele>
        <time>2020-09-27T14:37:32.322Z</time>
      </trkpt>
      <trkpt lat="64.7596" lon="20.92156">
        <ele>41.19562</ele>
        <time>2020-09-27T14:37:34.299Z</time>
      </trkpt>
      <trkpt lat="64.75956" lon="20.92176">
        <ele>41.374683</ele>
        <time>2020-09-27T14:37:36.291Z</time>
      </trkpt>
      <trkpt lat="64.75951" lon="20.92196">
        <ele>41.556371</ele>
        <time>2020-09-27T14:37:38.294Z</time>
      </trkpt>
      <trkpt lat="64.75947" lon="20.92216">
        <ele>41.730378</ele>
        <time>2020-09-27T14:37:40.314Z</time>
      </trkpt>
      <trkpt lat="64.75941" lon="20.92244">
        <ele>41.971115</ele>
        <time>2020-09-27T14:37:43.289Z</time>
      </trkpt>
      <trkpt lat="64.75936" lon="20.9227">
        <ele>42.198587</ele>
        <time>2020-09-27T14:37:46.295Z</time>
      </trkpt>
      <trkpt lat="64.75932" lon="20.92289">
        <ele>42.365418</ele>
        <time>2020-09-27T14:37:49.311Z</time>
      </trkpt>
      <trkpt lat="64.75927" lon="20.92309">
        <ele>42.549845</ele>
        <time>2020-09-27T14:37:52.306Z</time>
      </trkpt>
      <trkpt lat="64.75922" lon="20.92338">
        <ele>42.793923</ele>
        <time>2020-09-27T14:37:55.278Z</time>
      </trkpt>
      <trkpt lat="64.75917" lon="20.92367">
        <ele>43.040727</ele>
        <time>2020-09-27T14:37:58.289Z</time>
      </trkpt>
      <trkpt lat="64.75915" lon="20.92389">
        <ele>43.214809</ele>
        <time>2020-09-27T14:38:00.294Z</time>
      </trkpt>
      <trkpt lat="64.75913" lon="20.9241">
        <ele>43.386168</ele>
        <time>2020-09-27T14:38:02.295Z</time>
      </trkpt>
      <trkpt lat="64.75911" lon="20.9243">
        <ele>43.55251</ele>
        <time>2020-09-27T14:38:04.298Z</time>
      </trkpt>
      <trkpt lat="64.7591" lon="20.92452">
        <ele>43.722701</ele>
        <time>2020-09-27T14:38:06.290Z</time>
      </trkpt>
      <trkpt lat="64.75909" lon="20.92473">
        <ele>43.653354</ele>
        <time>2020-09-27T14:38:08.292Z</time>
      </trkpt>
      <trkpt lat="64.75908" lon="20.92495">
        <ele>43.532258</ele>
        <time>2020-09-27T14:38:10.305Z</time>
      </trkpt>
      <trkpt lat="64.75909" lon="20.92516">
        <ele>43.409754</ele>
        <time>2020-09-27T14:38:12.291Z</time>
      </trkpt>
      <trkpt lat="64.7591" lon="20.92546">
        <ele>43.238604</ele>
        <time>2020-09-27T14:38:15.293Z</time>
      </trkpt>
      <trkpt lat="64.75911" lon="20.92575">
        <ele>43.073978</ele>
        <time>2020-09-27T14:38:18.307Z</time>
      </trkpt>
      <trkpt lat="64.75912" lon="20.92603">
        <ele>42.915102</ele>
        <time>2020-09-27T14:38:21.282Z</time>
      </trkpt>
      <trkpt lat="64.75912" lon="20.9263">
        <ele>42.765365</ele>
        <time>2020-09-27T14:38:24.354Z</time>
      </trkpt>
      <trkpt lat="64.75913" lon="20.92657">
        <ele>42.609624</ele>
        <time>2020-09-27T14:38:27.343Z</time>
      </trkpt>
      <trkpt lat="64.75913" lon="20.92687">
        <ele>42.442895</ele>
        <time>2020-09-27T14:38:30.340Z</time>
      </trkpt>
      <trkpt lat="64.75909" lon="20.92715">
        <ele>42.278885</ele>
        <time>2020-09-27T14:38:33.295Z</time>
      </trkpt>
      <trkpt lat="64.75903" lon="20.92742">
        <ele>42.108065</ele>
        <time>2020-09-27T14:38:36.286Z</time>
      </trkpt>
      <trkpt lat="64.75899" lon="20.92765">
        <ele>41.96669</ele>
        <time>2020-09-27T14:38:38.281Z</time>
      </trkpt>
      <trkpt lat="64.75901" lon="20.92789">
        <ele>41.828212</ele>
        <time>2020-09-27T14:38:40.302Z</time>
      </trkpt>
      <trkpt lat="64.75912" lon="20.92803">
        <ele>41.669601</ele>
        <time>2020-09-27T14:38:43.308Z</time>
      </trkpt>
      <trkpt lat="64.75921" lon="20.92814">
        <ele>41.531463</ele>
        <time>2020-09-27T14:38:48.307Z</time>
      </trkpt>
      <trkpt lat="64.75927" lon="20.9283">
        <ele>41.412343</ele>
        <time>2020-09-27T14:38:53.298Z</time>
      </trkpt>
      <trkpt lat="64.75933" lon="20.9285">
        <ele>41.524968</ele>
        <time>2020-09-27T14:38:59.286Z</time>
      </trkpt>
      <trkpt lat="64.7594" lon="20.92867">
        <ele>41.753664</ele>
        <time>2020-09-27T14:39:04.279Z</time>
      </trkpt>
      <trkpt lat="64.75946" lon="20.92885">
        <ele>41.973188</ele>
        <time>2020-09-27T14:39:10.317Z</time>
      </trkpt>
      <trkpt lat="64.75937" lon="20.92895">
        <ele>42.193452</ele>
        <time>2020-09-27T14:39:19.269Z</time>
      </trkpt>
      <trkpt lat="64.75929" lon="20.92913">
        <ele>42.432769</ele>
        <time>2020-09-27T14:39:47.297Z</time>
      </trkpt>
      <trkpt lat="64.75924" lon="20.92935">
        <ele>42.669175</ele>
        <time>2020-09-27T14:39:50.285Z</time>
      </trkpt>
      <trkpt lat="64.75922" lon="20.92963">
        <ele>42.935981</ele>
        <time>2020-09-27T14:39:53.293Z</time>
      </trkpt>
      <trkpt lat="64.75931" lon="20.92981">
        <ele>43.199516</ele>
        <time>2020-09-27T14:39:56.324Z</time>
      </trkpt>
      <trkpt lat="64.75941" lon="20.92992">
        <ele>43.447643</ele>
        <time>2020-09-27T14:39:59.302Z</time>
      </trkpt>
      <trkpt lat="64.75949" lon="20.93007">
        <ele>43.680919</ele>
        <time>2020-09-27T14:40:02.280Z</time>
      </trkpt>
      <trkpt lat="64.75958" lon="20.93022">
        <ele>43.917769</ele>
        <time>2020-09-27T14:40:05.273Z</time>
      </trkpt>
      <trkpt lat="64.75965" lon="20.9304">
        <ele>44.15029</ele>
        <time>2020-09-27T14:40:08.281Z</time>
      </trkpt>
      <trkpt lat="64.75972" lon="20.93057">
        <ele>44.376305</ele>
        <time>2020-09-27T14:40:11.298Z</time>
      </trkpt>
      <trkpt lat="64.75978" lon="20.93074">
        <ele>44.583393</ele>
        <time>2020-09-27T14:40:14.315Z</time>
      </trkpt>
      <trkpt lat="64.75984" lon="20.93091">
        <ele>44.792071</ele>
        <time>2020-09-27T14:40:17.282Z</time>
      </trkpt>
      <trkpt lat="64.75989" lon="20.93108">
        <ele>45.000749</ele>
        <time>2020-09-27T14:40:20.306Z</time>
      </trkpt>
      <trkpt lat="64.75995" lon="20.93126">
        <ele>45.210923</ele>
        <time>2020-09-27T14:40:23.313Z</time>
      </trkpt>
      <trkpt lat="64.76001" lon="20.93144">
        <ele>45.439842</ele>
        <time>2020-09-27T14:40:26.281Z</time>
      </trkpt>
      <trkpt lat="64.76007" lon="20.93163">
        <ele>45.726578</ele>
        <time>2020-09-27T14:40:29.335Z</time>
      </trkpt>
      <trkpt lat="64.76013" lon="20.93182">
        <ele>46.010667</ele>
        <time>2020-09-27T14:40:32.288Z</time>
      </trkpt>
      <trkpt lat="64.76018" lon="20.93202">
        <ele>46.284704</ele>
        <time>2020-09-27T14:40:35.322Z</time>
      </trkpt>
      <trkpt lat="64.76024" lon="20.93225">
        <ele>46.610962</ele>
        <time>2020-09-27T14:40:39.341Z</time>
      </trkpt>
      <trkpt lat="64.76028" lon="20.9325">
        <ele>46.934826</ele>
        <time>2020-09-27T14:40:43.305Z</time>
      </trkpt>
      <trkpt lat="64.76031" lon="20.9327">
        <ele>47.188441</ele>
        <time>2020-09-27T14:40:46.288Z</time>
      </trkpt>
      <trkpt lat="64.76035" lon="20.93296">
        <ele>47.515783</ele>
        <time>2020-09-27T14:40:50.299Z</time>
      </trkpt>
      <trkpt lat="64.7604" lon="20.9332">
        <ele>47.83749</ele>
        <time>2020-09-27T14:40:54.323Z</time>
      </trkpt>
      <trkpt lat="64.76045" lon="20.93344">
        <ele>48.168053</ele>
        <time>2020-09-27T14:40:58.305Z</time>
      </trkpt>
      <trkpt lat="64.76049" lon="20.93372">
        <ele>48.51286</ele>
        <time>2020-09-27T14:41:02.290Z</time>
      </trkpt>
      <trkpt lat="64.76052" lon="20.93393">
        <ele>48.780677</ele>
        <time>2020-09-27T14:41:05.333Z</time>
      </trkpt>
      <trkpt lat="64.76056" lon="20.93417">
        <ele>49.088863</ele>
        <time>2020-09-27T14:41:08.296Z</time>
      </trkpt>
      <trkpt lat="64.7606" lon="20.93448">
        <ele>49.476881</ele>
        <time>2020-09-27T14:41:11.310Z</time>
      </trkpt>
      <trkpt lat="64.76063" lon="20.9347">
        <ele>49.754713</ele>
        <time>2020-09-27T14:41:13.333Z</time>
      </trkpt>
      <trkpt lat="64.76065" lon="20.9349">
        <ele>50.009415</ele>
        <time>2020-09-27T14:41:15.314Z</time>
      </trkpt>
      <trkpt lat="64.76068" lon="20.93516">
        <ele>50.32849</ele>
        <time>2020-09-27T14:41:18.287Z</time>
      </trkpt>
      <trkpt lat="64.7607" lon="20.93541">
        <ele>51.014471</ele>
        <time>2020-09-27T14:41:22.306Z</time>
      </trkpt>
      <trkpt lat="64.76073" lon="20.93561">
        <ele>51.82129</ele>
        <time>2020-09-27T14:41:26.286Z</time>
      </trkpt>
      <trkpt lat="64.76076" lon="20.93582">
        <ele>52.664828</ele>
        <time>2020-09-27T14:41:31.305Z</time>
      </trkpt>
      <trkpt lat="64.76078" lon="20.93603">
        <ele>53.486236</ele>
        <time>2020-09-27T14:41:36.300Z</time>
      </trkpt>
      <trkpt lat="64.7608" lon="20.93625">
        <ele>54.354296</ele>
        <time>2020-09-27T14:41:43.298Z</time>
      </trkpt>
      <trkpt lat="64.76082" lon="20.93646">
        <ele>55.16402</ele>
        <time>2020-09-27T14:41:49.321Z</time>
      </trkpt>
      <trkpt lat="64.76085" lon="20.93669">
        <ele>56.057506</ele>
        <time>2020-09-27T14:41:55.353Z</time>
      </trkpt>
      <trkpt lat="64.76089" lon="20.9369">
        <ele>56.957159</ele>
        <time>2020-09-27T14:42:01.286Z</time>
      </trkpt>
      <trkpt lat="64.76091" lon="20.93712">
        <ele>57.799136</ele>
        <time>2020-09-27T14:42:07.328Z</time>
      </trkpt>
      <trkpt lat="64.76094" lon="20.93734">
        <ele>58.705709</ele>
        <time>2020-09-27T14:42:13.308Z</time>
      </trkpt>
      <trkpt lat="64.76098" lon="20.93756">
        <ele>59.577432</ele>
        <time>2020-09-27T14:42:19.322Z</time>
      </trkpt>
      <trkpt lat="64.761" lon="20.93777">
        <ele>60.420554</ele>
        <time>2020-09-27T14:42:25.288Z</time>
      </trkpt>
      <trkpt lat="64.76104" lon="20.93797">
        <ele>61.271324</ele>
        <time>2020-09-27T14:42:31.321Z</time>
      </trkpt>
      <trkpt lat="64.76109" lon="20.93817">
        <ele>62.115095</ele>
        <time>2020-09-27T14:42:37.307Z</time>
      </trkpt>
      <trkpt lat="64.76112" lon="20.93838">
        <ele>62.956078</ele>
        <time>2020-09-27T14:42:43.314Z</time>
      </trkpt>
      <trkpt lat="64.76116" lon="20.93858">
        <ele>63.807014</ele>
        <time>2020-09-27T14:42:49.292Z</time>
      </trkpt>
      <trkpt lat="64.76118" lon="20.93881">
        <ele>64.692836</ele>
        <time>2020-09-27T14:42:55.317Z</time>
      </trkpt>
      <trkpt lat="64.76121" lon="20.93901">
        <ele>65.503081</ele>
        <time>2020-09-27T14:43:01.297Z</time>
      </trkpt>
      <trkpt lat="64.76123" lon="20.93924">
        <ele>66.387895</ele>
        <time>2020-09-27T14:43:07.295Z</time>
      </trkpt>
      <trkpt lat="64.76127" lon="20.93946">
        <ele>67.520361</ele>
        <time>2020-09-27T14:43:13.310Z</time>
      </trkpt>
      <trkpt lat="64.76128" lon="20.9397">
        <ele>68.717804</ele>
        <time>2020-09-27T14:43:20.289Z</time>
      </trkpt>
      <trkpt lat="64.76129" lon="20.93991">
        <ele>69.774685</ele>
        <time>2020-09-27T14:43:26.293Z</time>
      </trkpt>
      <trkpt lat="64.7613" lon="20.94015">
        <ele>70.961899</ele>
        <time>2020-09-27T14:43:33.312Z</time>
      </trkpt>
      <trkpt lat="64.76129" lon="20.94038">
        <ele>72.112266</ele>
        <time>2020-09-27T14:43:40.296Z</time>
      </trkpt>
      <trkpt lat="64.76129" lon="20.94061">
        <ele>73.249467</ele>
        <time>2020-09-27T14:43:47.308Z</time>
      </trkpt>
      <trkpt lat="64.76128" lon="20.94085">
        <ele>74.447732</ele>
        <time>2020-09-27T14:43:55.309Z</time>
      </trkpt>
      <trkpt lat="64.76128" lon="20.94107">
        <ele>75.52986</ele>
        <time>2020-09-27T14:44:01.296Z</time>
      </trkpt>
      <trkpt lat="64.76128" lon="20.9413">
        <ele>76.706291</ele>
        <time>2020-09-27T14:44:08.299Z</time>
      </trkpt>
      <trkpt lat="64.76128" lon="20.94152">
        <ele>77.769522</ele>
        <time>2020-09-27T14:44:14.298Z</time>
      </trkpt>
      <trkpt lat="64.76128" lon="20.94176">
        <ele>78.970939</ele>
        <time>2020-09-27T14:44:21.310Z</time>
      </trkpt>
      <trkpt lat="64.76128" lon="20.94197">
        <ele>80.013361</ele>
        <time>2020-09-27T14:44:27.294Z</time>
      </trkpt>
      <trkpt lat="64.76128" lon="20.94218">
        <ele>81.075572</ele>
        <time>2020-09-27T14:44:34.305Z</time>
      </trkpt>
      <trkpt lat="64.76126" lon="20.9424">
        <ele>82.158879</ele>
        <time>2020-09-27T14:44:40.325Z</time>
      </trkpt>
      <trkpt lat="64.76123" lon="20.94261">
        <ele>83.273446</ele>
        <time>2020-09-27T14:44:46.324Z</time>
      </trkpt>
      <trkpt lat="64.76118" lon="20.94279">
        <ele>84.368587</ele>
        <time>2020-09-27T14:44:52.298Z</time>
      </trkpt>
      <trkpt lat="64.76111" lon="20.94297">
        <ele>85.548037</ele>
        <time>2020-09-27T14:44:59.283Z</time>
      </trkpt>
      <trkpt lat="64.76105" lon="20.94314">
        <ele>86.688883</ele>
        <time>2020-09-27T14:45:06.336Z</time>
      </trkpt>
      <trkpt lat="64.76099" lon="20.94333">
        <ele>87.422941</ele>
        <time>2020-09-27T14:45:12.347Z</time>
      </trkpt>
      <trkpt lat="64.76094" lon="20.94353">
        <ele>87.366768</ele>
        <time>2020-09-27T14:45:17.307Z</time>
      </trkpt>
      <trkpt lat="64.76092" lon="20.94373">
        <ele>87.313053</ele>
        <time>2020-09-27T14:45:21.312Z</time>
      </trkpt>
      <trkpt lat="64.76088" lon="20.94395">
        <ele>87.254031</ele>
        <time>2020-09-27T14:45:24.285Z</time>
      </trkpt>
      <trkpt lat="64.76087" lon="20.94416">
        <ele>87.200986</ele>
        <time>2020-09-27T14:45:26.304Z</time>
      </trkpt>
      <trkpt lat="64.76085" lon="20.94438">
        <ele>87.145526</ele>
        <time>2020-09-27T14:45:28.333Z</time>
      </trkpt>
      <trkpt lat="64.76084" lon="20.94462">
        <ele>87.084055</ele>
        <time>2020-09-27T14:45:31.309Z</time>
      </trkpt>
      <trkpt lat="64.76085" lon="20.94492">
        <ele>87.009615</ele>
        <time>2020-09-27T14:45:35.322Z</time>
      </trkpt>
      <trkpt lat="64.76086" lon="20.94514">
        <ele>86.953385</ele>
        <time>2020-09-27T14:45:37.314Z</time>
      </trkpt>
      <trkpt lat="64.76085" lon="20.94536">
        <ele>86.899796</ele>
        <time>2020-09-27T14:45:39.309Z</time>
      </trkpt>
      <trkpt lat="64.76086" lon="20.9456">
        <ele>86.839389</ele>
        <time>2020-09-27T14:45:41.306Z</time>
      </trkpt>
      <trkpt lat="64.76087" lon="20.94585">
        <ele>86.77651</ele>
        <time>2020-09-27T14:45:43.305Z</time>
      </trkpt>
      <trkpt lat="64.76088" lon="20.94611">
        <ele>86.710042</ele>
        <time>2020-09-27T14:45:45.294Z</time>
      </trkpt>
      <trkpt lat="64.76091" lon="20.94641">
        <ele>86.634363</ele>
        <time>2020-09-27T14:45:48.300Z</time>
      </trkpt>
      <trkpt lat="64.76091" lon="20.94662">
        <ele>86.580671</ele>
        <time>2020-09-27T14:45:50.287Z</time>
      </trkpt>
      <trkpt lat="64.76091" lon="20.94686">
        <ele>86.521337</ele>
        <time>2020-09-27T14:45:52.291Z</time>
      </trkpt>
      <trkpt lat="64.76091" lon="20.94713">
        <ele>86.454177</ele>
        <time>2020-09-27T14:45:54.308Z</time>
      </trkpt>
      <trkpt lat="64.76088" lon="20.94738">
        <ele>86.389158</ele>
        <time>2020-09-27T14:45:56.298Z</time>
      </trkpt>
      <trkpt lat="64.76086" lon="20.94764">
        <ele>85.69288</ele>
        <time>2020-09-27T14:45:58.307Z</time>
      </trkpt>
      <trkpt lat="64.76084" lon="20.94785">
        <ele>85.123334</ele>
        <time>2020-09-27T14:46:00.306Z</time>
      </trkpt>
      <trkpt lat="64.76078" lon="20.94809">
        <ele>84.390147</ele>
        <time>2020-09-27T14:46:03.284Z</time>
      </trkpt>
      <trkpt lat="64.76071" lon="20.94825">
        <ele>83.781321</ele>
        <time>2020-09-27T14:46:05.313Z</time>
      </trkpt>
      <trkpt lat="64.76063" lon="20.94836">
        <ele>83.197189</ele>
        <time>2020-09-27T14:46:07.308Z</time>
      </trkpt>
      <trkpt lat="64.76054" lon="20.94845">
        <ele>82.609233</ele>
        <time>2020-09-27T14:46:09.325Z</time>
      </trkpt>
      <trkpt lat="64.76042" lon="20.94855">
        <ele>81.804091</ele>
        <time>2020-09-27T14:46:12.289Z</time>
      </trkpt>
      <trkpt lat="64.76032" lon="20.94855">
        <ele>81.166013</ele>
        <time>2020-09-27T14:46:15.297Z</time>
      </trkpt>
      <trkpt lat="64.76023" lon="20.94852">
        <ele>80.575555</ele>
        <time>2020-09-27T14:46:19.299Z</time>
      </trkpt>
      <trkpt lat="64.76013" lon="20.94844">
        <ele>79.932416</ele>
        <time>2020-09-27T14:46:25.313Z</time>
      </trkpt>
      <trkpt lat="64.76004" lon="20.94842">
        <ele>79.36787</ele>
        <time>2020-09-27T14:46:29.334Z</time>
      </trkpt>
      <trkpt lat="64.75997" lon="20.94858">
        <ele>78.76158</ele>
        <time>2020-09-27T14:46:32.295Z</time>
      </trkpt>
      <trkpt lat="64.75992" lon="20.94877">
        <ele>78.14467</ele>
        <time>2020-09-27T14:46:34.312Z</time>
      </trkpt>
      <trkpt lat="64.75987" lon="20.94898">
        <ele>77.518557</ele>
        <time>2020-09-27T14:46:36.314Z</time>
      </trkpt>
      <trkpt lat="64.75978" lon="20.94916">
        <ele>76.78643</ele>
        <time>2020-09-27T14:46:39.345Z</time>
      </trkpt>
      <trkpt lat="64.75969" lon="20.94944">
        <ele>75.845329</ele>
        <time>2020-09-27T14:47:09.307Z</time>
      </trkpt>
      <trkpt lat="64.75964" lon="20.94968">
        <ele>75.133619</ele>
        <time>2020-09-27T14:47:12.292Z</time>
      </trkpt>
      <trkpt lat="64.75961" lon="20.94989">
        <ele>74.488779</ele>
        <time>2020-09-27T14:47:14.287Z</time>
      </trkpt>
      <trkpt lat="64.75957" lon="20.95011">
        <ele>73.784213</ele>
        <time>2020-09-27T14:47:16.299Z</time>
      </trkpt>
      <trkpt lat="64.75953" lon="20.95034">
        <ele>73.06895</ele>
        <time>2020-09-27T14:47:18.284Z</time>
      </trkpt>
      <trkpt lat="64.75949" lon="20.9506">
        <ele>72.26836</ele>
        <time>2020-09-27T14:47:20.313Z</time>
      </trkpt>
      <trkpt lat="64.75946" lon="20.95092">
        <ele>71.277111</ele>
        <time>2020-09-27T14:47:22.303Z</time>
      </trkpt>
      <trkpt lat="64.75943" lon="20.95125">
        <ele>70.302154</ele>
        <time>2020-09-27T14:47:24.296Z</time>
      </trkpt>
      <trkpt lat="64.75939" lon="20.95153">
        <ele>69.432624</ele>
        <time>2020-09-27T14:47:26.290Z</time>
      </trkpt>
      <trkpt lat="64.75936" lon="20.95185">
        <ele>68.471477</ele>
        <time>2020-09-27T14:47:28.291Z</time>
      </trkpt>
      <trkpt lat="64.75931" lon="20.95214">
        <ele>67.575951</ele>
        <time>2020-09-27T14:47:30.305Z</time>
      </trkpt>
      <trkpt lat="64.75926" lon="20.9524">
        <ele>66.707504</ele>
        <time>2020-09-27T14:47:32.329Z</time>
      </trkpt>
      <trkpt lat="64.7592" lon="20.95264">
        <ele>65.888909</ele>
        <time>2020-09-27T14:47:34.319Z</time>
      </trkpt>
      <trkpt lat="64.75914" lon="20.95289">
        <ele>65.063806</ele>
        <time>2020-09-27T14:47:36.326Z</time>
      </trkpt>
      <trkpt lat="64.7591" lon="20.95316">
        <ele>64.242475</ele>
        <time>2020-09-27T14:47:38.325Z</time>
      </trkpt>
      <trkpt lat="64.75907" lon="20.95341">
        <ele>63.460184</ele>
        <time>2020-09-27T14:47:40.315Z</time>
      </trkpt>
      <trkpt lat="64.75903" lon="20.95366">
        <ele>62.732137</ele>
        <time>2020-09-27T14:47:42.304Z</time>
      </trkpt>
      <trkpt lat="64.75899" lon="20.95391">
        <ele>62.403724</ele>
        <time>2020-09-27T14:47:44.305Z</time>
      </trkpt>
      <trkpt lat="64.75895" lon="20.95416">
        <ele>62.073907</ele>
        <time>2020-09-27T14:47:46.322Z</time>
      </trkpt>
      <trkpt lat="64.75891" lon="20.9544">
        <ele>61.759865</ele>
        <time>2020-09-27T14:47:48.336Z</time>
      </trkpt>
      <trkpt lat="64.75886" lon="20.95463">
        <ele>61.441972</ele>
        <time>2020-09-27T14:47:50.311Z</time>
      </trkpt>
      <trkpt lat="64.7588" lon="20.95487">
        <ele>61.10634</ele>
        <time>2020-09-27T14:47:52.296Z</time>
      </trkpt>
      <trkpt lat="64.75876" lon="20.9551">
        <ele>60.803616</ele>
        <time>2020-09-27T14:47:54.334Z</time>
      </trkpt>
      <trkpt lat="64.75873" lon="20.95533">
        <ele>60.501446</ele>
        <time>2020-09-27T14:47:56.321Z</time>
      </trkpt>
      <trkpt lat="64.7587" lon="20.95554">
        <ele>60.225094</ele>
        <time>2020-09-27T14:47:58.304Z</time>
      </trkpt>
      <trkpt lat="64.75866" lon="20.95574">
        <ele>59.959653</ele>
        <time>2020-09-27T14:48:00.308Z</time>
      </trkpt>
      <trkpt lat="64.75861" lon="20.95595">
        <ele>59.66758</ele>
        <time>2020-09-27T14:48:02.304Z</time>
      </trkpt>
      <trkpt lat="64.75857" lon="20.95617">
        <ele>59.369592</ele>
        <time>2020-09-27T14:48:04.297Z</time>
      </trkpt>
      <trkpt lat="64.75852" lon="20.95639">
        <ele>59.061771</ele>
        <time>2020-09-27T14:48:06.304Z</time>
      </trkpt>
      <trkpt lat="64.75847" lon="20.95661">
        <ele>58.749686</ele>
        <time>2020-09-27T14:48:08.289Z</time>
      </trkpt>
      <trkpt lat="64.75842" lon="20.95683">
        <ele>58.460178</ele>
        <time>2020-09-27T14:48:10.297Z</time>
      </trkpt>
      <trkpt lat="64.75838" lon="20.95704">
        <ele>58.167352</ele>
        <time>2020-09-27T14:48:12.318Z</time>
      </trkpt>
      <trkpt lat="64.75834" lon="20.95727">
        <ele>57.856735</ele>
        <time>2020-09-27T14:48:14.320Z</time>
      </trkpt>
      <trkpt lat="64.75831" lon="20.9575">
        <ele>57.588897</ele>
        <time>2020-09-27T14:48:16.298Z</time>
      </trkpt>
      <trkpt lat="64.75827" lon="20.95772">
        <ele>57.634136</ele>
        <time>2020-09-27T14:48:18.327Z</time>
      </trkpt>
      <trkpt lat="64.75824" lon="20.95794">
        <ele>57.680547</ele>
        <time>2020-09-27T14:48:20.297Z</time>
      </trkpt>
      <trkpt lat="64.7582" lon="20.95818">
        <ele>57.732573</ele>
        <time>2020-09-27T14:48:22.320Z</time>
      </trkpt>
      <trkpt lat="64.75815" lon="20.95843">
        <ele>57.786223</ele>
        <time>2020-09-27T14:48:24.369Z</time>
      </trkpt>
      <trkpt lat="64.75811" lon="20.95863">
        <ele>57.828095</ele>
        <time>2020-09-27T14:48:26.285Z</time>
      </trkpt>
      <trkpt lat="64.75807" lon="20.95886">
        <ele>57.877757</ele>
        <time>2020-09-27T14:48:30.377Z</time>
      </trkpt>
      <trkpt lat="64.75815" lon="20.95905">
        <ele>57.929058</ele>
        <time>2020-09-27T14:48:34.333Z</time>
      </trkpt>
      <trkpt lat="64.75826" lon="20.95921">
        <ele>57.989144</ele>
        <time>2020-09-27T14:48:37.283Z</time>
      </trkpt>
      <trkpt lat="64.7583" lon="20.95942">
        <ele>58.033551</ele>
        <time>2020-09-27T14:48:40.303Z</time>
      </trkpt>
      <trkpt lat="64.75827" lon="20.95968">
        <ele>58.087025</ele>
        <time>2020-09-27T14:48:44.312Z</time>
      </trkpt>
      <trkpt lat="64.75825" lon="20.95991">
        <ele>58.134061</ele>
        <time>2020-09-27T14:48:47.288Z</time>
      </trkpt>
      <trkpt lat="64.75823" lon="20.96013">
        <ele>58.177143</ele>
        <time>2020-09-27T14:48:50.284Z</time>
      </trkpt>
      <trkpt lat="64.75824" lon="20.96035">
        <ele>58.22059</ele>
        <time>2020-09-27T14:48:56.291Z</time>
      </trkpt>
      <trkpt lat="64.75825" lon="20.96061">
        <ele>58.272409</ele>
        <time>2020-09-27T14:49:00.303Z</time>
      </trkpt>
      <trkpt lat="64.75823" lon="20.96089">
        <ele>58.327119</ele>
        <time>2020-09-27T14:49:03.329Z</time>
      </trkpt>
      <trkpt lat="64.75822" lon="20.96117">
        <ele>58.382842</ele>
        <time>2020-09-27T14:49:06.293Z</time>
      </trkpt>
      <trkpt lat="64.75821" lon="20.96146">
        <ele>58.357369</ele>
        <time>2020-09-27T14:49:09.324Z</time>
      </trkpt>
      <trkpt lat="64.75821" lon="20.96171">
        <ele>58.236138</ele>
        <time>2020-09-27T14:49:12.298Z</time>
      </trkpt>
      <trkpt lat="64.7582" lon="20.96201">
        <ele>58.09453</ele>
        <time>2020-09-27T14:49:15.322Z</time>
      </trkpt>
      <trkpt lat="64.75818" lon="20.96227">
        <ele>57.966734</ele>
        <time>2020-09-27T14:49:18.312Z</time>
      </trkpt>
      <trkpt lat="64.75818" lon="20.96251">
        <ele>57.851186</ele>
        <time>2020-09-27T14:49:23.315Z</time>
      </trkpt>
      <trkpt lat="64.75822" lon="20.9627">
        <ele>57.750353</ele>
        <time>2020-09-27T14:49:31.309Z</time>
      </trkpt>
      <trkpt lat="64.75823" lon="20.96292">
        <ele>57.645378</ele>
        <time>2020-09-27T14:49:34.293Z</time>
      </trkpt>
      <trkpt lat="64.75819" lon="20.96314">
        <ele>57.533109</ele>
        <time>2020-09-27T14:49:37.298Z</time>
      </trkpt>
      <trkpt lat="64.75817" lon="20.96338">
        <ele>57.41594</ele>
        <time>2020-09-27T14:49:40.313Z</time>
      </trkpt>
      <trkpt lat="64.75816" lon="20.96363">
        <ele>57.294102</ele>
        <time>2020-09-27T14:49:43.308Z</time>
      </trkpt>
      <trkpt lat="64.75816" lon="20.96389">
        <ele>57.168575</ele>
        <time>2020-09-27T14:49:46.289Z</time>
      </trkpt>
      <trkpt lat="64.75817" lon="20.96415">
        <ele>57.04626</ele>
        <time>2020-09-27T14:49:49.298Z</time>
      </trkpt>
      <trkpt lat="64.7582" lon="20.96443">
        <ele>56.906276</ele>
        <time>2020-09-27T14:49:52.324Z</time>
      </trkpt>
      <trkpt lat="64.75826" lon="20.96468">
        <ele>56.767164</ele>
        <time>2020-09-27T14:49:55.318Z</time>
      </trkpt>
      <trkpt lat="64.75834" lon="20.9649">
        <ele>56.632292</ele>
        <time>2020-09-27T14:49:58.303Z</time>
      </trkpt>
      <trkpt lat="64.75841" lon="20.96511">
        <ele>56.502491</ele>
        <time>2020-09-27T14:50:01.307Z</time>
      </trkpt>
      <trkpt lat="64.75849" lon="20.96528">
        <ele>56.45946</ele>
        <time>2020-09-27T14:50:04.298Z</time>
      </trkpt>
      <trkpt lat="64.75855" lon="20.96544">
        <ele>56.991998</ele>
        <time>2020-09-27T14:50:07.316Z</time>
      </trkpt>
      <trkpt lat="64.75863" lon="20.96563">
        <ele>57.613579</ele>
        <time>2020-09-27T14:50:11.302Z</time>
      </trkpt>
      <trkpt lat="64.75872" lon="20.96579">
        <ele>58.231913</ele>
        <time>2020-09-27T14:50:15.309Z</time>
      </trkpt>
      <trkpt lat="64.75879" lon="20.96594">
        <ele>58.795132</ele>
        <time>2020-09-27T14:50:19.305Z</time>
      </trkpt>
      <trkpt lat="64.75885" lon="20.96611">
        <ele>59.308713</ele>
        <time>2020-09-27T14:50:23.308Z</time>
      </trkpt>
      <trkpt lat="64.75892" lon="20.96628">
        <ele>59.879537</ele>
        <time>2020-09-27T14:50:27.304Z</time>
      </trkpt>
      <trkpt lat="64.759" lon="20.96644">
        <ele>60.440763</ele>
        <time>2020-09-27T14:50:31.320Z</time>
      </trkpt>
      <trkpt lat="64.75907" lon="20.96663">
        <ele>61.040041</ele>
        <time>2020-09-27T14:50:36.295Z</time>
      </trkpt>
      <trkpt lat="64.75913" lon="20.96681">
        <ele>61.602719</ele>
        <time>2020-09-27T14:50:41.287Z</time>
      </trkpt>
      <trkpt lat="64.75919" lon="20.96701">
        <ele>62.172369</ele>
        <time>2020-09-27T14:50:47.305Z</time>
      </trkpt>
      <trkpt lat="64.75924" lon="20.96722">
        <ele>62.759019</ele>
        <time>2020-09-27T14:50:53.303Z</time>
      </trkpt>
      <trkpt lat="64.75931" lon="20.96743">
        <ele>63.366251</ele>
        <time>2020-09-27T14:50:59.288Z</time>
      </trkpt>
      <trkpt lat="64.75936" lon="20.96761">
        <ele>63.919019</ele>
        <time>2020-09-27T14:51:04.298Z</time>
      </trkpt>
      <trkpt lat="64.75943" lon="20.9678">
        <ele>64.508775</ele>
        <time>2020-09-27T14:51:09.295Z</time>
      </trkpt>
      <trkpt lat="64.75949" lon="20.96797">
        <ele>65.044213</ele>
        <time>2020-09-27T14:51:14.318Z</time>
      </trkpt>
      <trkpt lat="64.75955" lon="20.96818">
        <ele>65.634804</ele>
        <time>2020-09-27T14:51:20.303Z</time>
      </trkpt>
      <trkpt lat="64.75959" lon="20.96838">
        <ele>66.148378</ele>
        <time>2020-09-27T14:51:26.298Z</time>
      </trkpt>
      <trkpt lat="64.75964" lon="20.96861">
        <ele>66.398312</ele>
        <time>2020-09-27T14:51:31.344Z</time>
      </trkpt>
      <trkpt lat="64.75969" lon="20.96879">
        <ele>66.304583</ele>
        <time>2020-09-27T14:51:34.297Z</time>
      </trkpt>
      <trkpt lat="64.75974" lon="20.969">
        <ele>66.196853</ele>
        <time>2020-09-27T14:51:37.299Z</time>
      </trkpt>
      <trkpt lat="64.75981" lon="20.96923">
        <ele>66.072628</ele>
        <time>2020-09-27T14:51:40.301Z</time>
      </trkpt>
      <trkpt lat="64.75987" lon="20.96948">
        <ele>65.946837</ele>
        <time>2020-09-27T14:51:43.307Z</time>
      </trkpt>
      <trkpt lat="64.75993" lon="20.96973">
        <ele>65.819537</ele>
        <time>2020-09-27T14:51:46.372Z</time>
      </trkpt>
      <trkpt lat="64.75999" lon="20.96998">
        <ele>65.700077</ele>
        <time>2020-09-27T14:51:49.289Z</time>
      </trkpt>
      <trkpt lat="64.76003" lon="20.97021">
        <ele>65.586447</ele>
        <time>2020-09-27T14:51:52.298Z</time>
      </trkpt>
      <trkpt lat="64.76008" lon="20.97044">
        <ele>65.475063</ele>
        <time>2020-09-27T14:51:55.325Z</time>
      </trkpt>
      <trkpt lat="64.76013" lon="20.97066">
        <ele>65.369845</ele>
        <time>2020-09-27T14:51:58.322Z</time>
      </trkpt>
      <trkpt lat="64.76016" lon="20.97086">
        <ele>65.274738</ele>
        <time>2020-09-27T14:52:01.293Z</time>
      </trkpt>
      <trkpt lat="64.7602" lon="20.97106">
        <ele>65.179158</ele>
        <time>2020-09-27T14:52:04.296Z</time>
      </trkpt>
      <trkpt lat="64.76025" lon="20.97125">
        <ele>65.085407</ele>
        <time>2020-09-27T14:52:07.324Z</time>
      </trkpt>
      <trkpt lat="64.7603" lon="20.97144">
        <ele>64.98434</ele>
        <time>2020-09-27T14:52:10.303Z</time>
      </trkpt>
      <trkpt lat="64.76039" lon="20.97158">
        <ele>64.8719</ele>
        <time>2020-09-27T14:52:13.288Z</time>
      </trkpt>
      <trkpt lat="64.7605" lon="20.97162">
        <ele>64.762503</ele>
        <time>2020-09-27T14:52:16.293Z</time>
      </trkpt>
      <trkpt lat="64.76059" lon="20.97161">
        <ele>64.668355</ele>
        <time>2020-09-27T14:52:19.296Z</time>
      </trkpt>
      <trkpt lat="64.76068" lon="20.9716">
        <ele>64.613283</ele>
        <time>2020-09-27T14:52:22.301Z</time>
      </trkpt>
      <trkpt lat="64.76079" lon="20.97158">
        <ele>64.613283</ele>
        <time>2020-09-27T14:52:26.325Z</time>
      </trkpt>
      <trkpt lat="64.76085" lon="20.97174">
        <ele>64.613283</ele>
        <time>2020-09-27T14:52:30.338Z</time>
      </trkpt>
      <trkpt lat="64.76086" lon="20.97198">
        <ele>64.613283</ele>
        <time>2020-09-27T14:52:34.295Z</time>
      </trkpt>
      <trkpt lat="64.76087" lon="20.97221">
        <ele>64.613283</ele>
        <time>2020-09-27T14:52:38.291Z</time>
      </trkpt>
      <trkpt lat="64.76088" lon="20.97246">
        <ele>64.613283</ele>
        <time>2020-09-27T14:52:42.290Z</time>
      </trkpt>
      <trkpt lat="64.76088" lon="20.97267">
        <ele>64.613283</ele>
        <time>2020-09-27T14:52:45.346Z</time>
      </trkpt>
      <trkpt lat="64.76087" lon="20.97295">
        <ele>64.613283</ele>
        <time>2020-09-27T14:52:49.324Z</time>
      </trkpt>
      <trkpt lat="64.76087" lon="20.97318">
        <ele>64.613283</ele>
        <time>2020-09-27T14:52:53.321Z</time>
      </trkpt>
      <trkpt lat="64.76091" lon="20.9734">
        <ele>64.613283</ele>
        <time>2020-09-27T14:52:59.322Z</time>
      </trkpt>
      <trkpt lat="64.76095" lon="20.97362">
        <ele>64.613283</ele>
        <time>2020-09-27T14:53:05.299Z</time>
      </trkpt>
      <trkpt lat="64.76098" lon="20.97384">
        <ele>64.613283</ele>
        <time>2020-09-27T14:53:11.329Z</time>
      </trkpt>
      <trkpt lat="64.76101" lon="20.97405">
        <ele>64.613283</ele>
        <time>2020-09-27T14:53:16.313Z</time>
      </trkpt>
      <trkpt lat="64.76107" lon="20.97425">
        <ele>64.613283</ele>
        <time>2020-09-27T14:53:22.299Z</time>
      </trkpt>
      <trkpt lat="64.76113" lon="20.97445">
        <ele>64.613283</ele>
        <time>2020-09-27T14:53:29.320Z</time>
      </trkpt>
      <trkpt lat="64.76117" lon="20.97465">
        <ele>64.613283</ele>
        <time>2020-09-27T14:53:35.291Z</time>
      </trkpt>
      <trkpt lat="64.76123" lon="20.97481">
        <ele>64.613283</ele>
        <time>2020-09-27T14:53:42.294Z</time>
      </trkpt>
      <trkpt lat="64.76131" lon="20.97497">
        <ele>64.613283</ele>
        <time>2020-09-27T14:54:06.331Z</time>
      </trkpt>
      <trkpt lat="64.76139" lon="20.97509">
        <ele>64.613283</ele>
        <time>2020-09-27T14:54:12.299Z</time>
      </trkpt>
      <trkpt lat="64.76145" lon="20.97525">
        <ele>64.613283</ele>
        <time>2020-09-27T14:54:19.301Z</time>
      </trkpt>
      <trkpt lat="64.76149" lon="20.97511">
        <ele>64.613283</ele>
        <time>2020-09-27T15:11:30.426Z</time>
      </trkpt>
    </trkseg>
  </trk>
</gpx>